<?xml version='1.0' encoding='UTF-8'?><gpx version="1.1" creator="JPX - https://github.com/jenetics/jpx" xmlns="http://www.topografix.com/GPX/1/1"><trk><trkseg><trkpt lat="45.6774683" lon="8.683765"><ele>196.0</ele><time>2026-03-29T11:58:26.001Z</time></trkpt><trkpt lat="45.6775283" lon="8.68346"><ele>195.0</ele><time>2026-03-29T11:58:32.002Z</time></trkpt><trkpt lat="45.6775667" lon="8.683355"><ele>194.0</ele><time>2026-03-29T11:58:33.002Z</time></trkpt><trkpt lat="45.6776183" lon="8.6832367"><ele>193.0</ele><time>2026-03-29T11:58:34.002Z</time></trkpt><trkpt lat="45.6776833" lon="8.6830983"><ele>193.0</ele><time>2026-03-29T11:58:35.002Z</time></trkpt><trkpt lat="45.67774" lon="8.6829333"><ele>193.0</ele><time>2026-03-29T11:58:36.002Z</time></trkpt><trkpt lat="45.6778017" lon="8.682735"><ele>193.0</ele><time>2026-03-29T11:58:37.002Z</time></trkpt><trkpt lat="45.6778567" lon="8.6825167"><ele>193.0</ele><time>2026-03-29T11:58:38.001Z</time></trkpt><trkpt lat="45.6779033" lon="8.6822717"><ele>193.0</ele><time>2026-03-29T11:58:39.001Z</time></trkpt><trkpt lat="45.6779283" lon="8.6820083"><ele>193.0</ele><time>2026-03-29T11:58:40.002Z</time></trkpt><trkpt lat="45.6779567" lon="8.6817317"><ele>193.0</ele><time>2026-03-29T11:58:41.002Z</time></trkpt><trkpt lat="45.6780183" lon="8.681475"><ele>193.0</ele><time>2026-03-29T11:58:42.002Z</time></trkpt><trkpt lat="45.6780967" lon="8.6812017"><ele>193.0</ele><time>2026-03-29T11:58:43.002Z</time></trkpt><trkpt lat="45.678195" lon="8.6809083"><ele>193.0</ele><time>2026-03-29T11:58:44.002Z</time></trkpt><trkpt lat="45.6782883" lon="8.6805933"><ele>192.5</ele><time>2026-03-29T11:58:45.002Z</time></trkpt><trkpt lat="45.6783917" lon="8.6802433"><ele>192.0</ele><time>2026-03-29T11:58:46.002Z</time></trkpt><trkpt lat="45.6784833" lon="8.67994"><ele>192.0</ele><time>2026-03-29T11:58:47.002Z</time></trkpt><trkpt lat="45.678555" lon="8.67963"><ele>192.0</ele><time>2026-03-29T11:58:48.002Z</time></trkpt><trkpt lat="45.67861" lon="8.6793083"><ele>194.5</ele><time>2026-03-29T11:58:49.002Z</time></trkpt><trkpt lat="45.6786567" lon="8.6789783"><ele>197.0</ele><time>2026-03-29T11:58:50.002Z</time></trkpt><trkpt lat="45.678685" lon="8.6786417"><ele>200.5</ele><time>2026-03-29T11:58:51.002Z</time></trkpt><trkpt lat="45.6787083" lon="8.6782983"><ele>204.0</ele><time>2026-03-29T11:58:52.002Z</time></trkpt><trkpt lat="45.67872" lon="8.67794"><ele>207.5</ele><time>2026-03-29T11:58:53.001Z</time></trkpt><trkpt lat="45.6787133" lon="8.677565"><ele>211.0</ele><time>2026-03-29T11:58:54.001Z</time></trkpt><trkpt lat="45.678695" lon="8.6772033"><ele>216.5</ele><time>2026-03-29T11:58:55.002Z</time></trkpt><trkpt lat="45.6786783" lon="8.6768517"><ele>222.0</ele><time>2026-03-29T11:58:56.002Z</time></trkpt><trkpt lat="45.6786517" lon="8.6764867"><ele>222.0</ele><time>2026-03-29T11:58:57.002Z</time></trkpt><trkpt lat="45.6786083" lon="8.676135"><ele>222.0</ele><time>2026-03-29T11:58:58.002Z</time></trkpt><trkpt lat="45.6785433" lon="8.6758067"><ele>215.0</ele><time>2026-03-29T11:58:59.002Z</time></trkpt><trkpt lat="45.678475" lon="8.6755033"><ele>208.0</ele><time>2026-03-29T11:59:00.002Z</time></trkpt><trkpt lat="45.6784083" lon="8.675225"><ele>201.0</ele><time>2026-03-29T11:59:01.001Z</time></trkpt><trkpt lat="45.6783383" lon="8.67494"><ele>201.0</ele><time>2026-03-29T11:59:02.001Z</time></trkpt><trkpt lat="45.678265" lon="8.6746817"><ele>201.0</ele><time>2026-03-29T11:59:03.002Z</time></trkpt><trkpt lat="45.6782067" lon="8.6743933"><ele>201.0</ele><time>2026-03-29T11:59:04.002Z</time></trkpt><trkpt lat="45.678155" lon="8.6741033"><ele>203.33333333333331</ele><time>2026-03-29T11:59:05.002Z</time></trkpt><trkpt lat="45.67812" lon="8.6738017"><ele>205.66666666666666</ele><time>2026-03-29T11:59:06.002Z</time></trkpt><trkpt lat="45.6780833" lon="8.6735267"><ele>208.0</ele><time>2026-03-29T11:59:07.002Z</time></trkpt><trkpt lat="45.6780383" lon="8.673275"><ele>210.33333333333331</ele><time>2026-03-29T11:59:08.002Z</time></trkpt><trkpt lat="45.6779667" lon="8.6730283"><ele>212.66666666666669</ele><time>2026-03-29T11:59:09.001Z</time></trkpt><trkpt lat="45.6778867" lon="8.6728067"><ele>215.0</ele><time>2026-03-29T11:59:10.002Z</time></trkpt><trkpt lat="45.6778417" lon="8.6725967"><ele>216.0</ele><time>2026-03-29T11:59:11.002Z</time></trkpt><trkpt lat="45.6778183" lon="8.6723783"><ele>217.0</ele><time>2026-03-29T11:59:12.001Z</time></trkpt><trkpt lat="45.677805" lon="8.6721933"><ele>218.0</ele><time>2026-03-29T11:59:13.001Z</time></trkpt><trkpt lat="45.6778117" lon="8.671985"><ele>219.0</ele><time>2026-03-29T11:59:14.001Z</time></trkpt><trkpt lat="45.67781" lon="8.671755"><ele>219.33333333333331</ele><time>2026-03-29T11:59:15.001Z</time></trkpt><trkpt lat="45.6778417" lon="8.6715433"><ele>219.66666666666666</ele><time>2026-03-29T11:59:16.002Z</time></trkpt><trkpt lat="45.677895" lon="8.6713117"><ele>220.0</ele><time>2026-03-29T11:59:17.002Z</time></trkpt><trkpt lat="45.6779717" lon="8.6710883"><ele>218.33333333333331</ele><time>2026-03-29T11:59:18.002Z</time></trkpt><trkpt lat="45.67805" lon="8.6708583"><ele>216.66666666666669</ele><time>2026-03-29T11:59:19.002Z</time></trkpt><trkpt lat="45.6781117" lon="8.67061"><ele>215.0</ele><time>2026-03-29T11:59:20.002Z</time></trkpt><trkpt lat="45.6781483" lon="8.67039"><ele>216.0</ele><time>2026-03-29T11:59:21.002Z</time></trkpt><trkpt lat="45.6781467" lon="8.670215"><ele>217.0</ele><time>2026-03-29T11:59:22.002Z</time></trkpt><trkpt lat="45.6781083" lon="8.6700283"><ele>218.0</ele><time>2026-03-29T11:59:23.002Z</time></trkpt><trkpt lat="45.6780233" lon="8.6698833"><ele>219.0</ele><time>2026-03-29T11:59:24.001Z</time></trkpt><trkpt lat="45.67791" lon="8.6697783"><ele>211.66666666666669</ele><time>2026-03-29T11:59:25.002Z</time></trkpt><trkpt lat="45.6777683" lon="8.6697467"><ele>204.33333333333334</ele><time>2026-03-29T11:59:26.001Z</time></trkpt><trkpt lat="45.6775983" lon="8.6697883"><ele>197.0</ele><time>2026-03-29T11:59:27.002Z</time></trkpt><trkpt lat="45.67741" lon="8.6698617"><ele>197.0</ele><time>2026-03-29T11:59:28.002Z</time></trkpt><trkpt lat="45.67723" lon="8.6699617"><ele>197.0</ele><time>2026-03-29T11:59:29.001Z</time></trkpt><trkpt lat="45.6770583" lon="8.6700583"><ele>197.0</ele><time>2026-03-29T11:59:30.001Z</time></trkpt><trkpt lat="45.6768583" lon="8.67015"><ele>193.5</ele><time>2026-03-29T11:59:31.002Z</time></trkpt><trkpt lat="45.6766517" lon="8.6702717"><ele>190.0</ele><time>2026-03-29T11:59:32.002Z</time></trkpt><trkpt lat="45.6764467" lon="8.67042"><ele>190.0</ele><time>2026-03-29T11:59:33.002Z</time></trkpt><trkpt lat="45.6762317" lon="8.6705517"><ele>190.0</ele><time>2026-03-29T11:59:34.001Z</time></trkpt><trkpt lat="45.6759883" lon="8.6706767"><ele>190.5</ele><time>2026-03-29T11:59:35.002Z</time></trkpt><trkpt lat="45.6757483" lon="8.670805"><ele>191.0</ele><time>2026-03-29T11:59:36.002Z</time></trkpt><trkpt lat="45.6755183" lon="8.67093"><ele>191.0</ele><time>2026-03-29T11:59:37.001Z</time></trkpt><trkpt lat="45.6753133" lon="8.671035"><ele>191.0</ele><time>2026-03-29T11:59:38.001Z</time></trkpt><trkpt lat="45.6751133" lon="8.6711333"><ele>191.0</ele><time>2026-03-29T11:59:39.001Z</time></trkpt><trkpt lat="45.674945" lon="8.6712383"><ele>192.0</ele><time>2026-03-29T11:59:40.001Z</time></trkpt><trkpt lat="45.674775" lon="8.67133"><ele>193.0</ele><time>2026-03-29T11:59:41.002Z</time></trkpt><trkpt lat="45.674615" lon="8.6713833"><ele>194.0</ele><time>2026-03-29T11:59:42.001Z</time></trkpt><trkpt lat="45.6744617" lon="8.6714033"><ele>196.33333333333334</ele><time>2026-03-29T11:59:43.001Z</time></trkpt><trkpt lat="45.67431" lon="8.6713783"><ele>198.66666666666669</ele><time>2026-03-29T11:59:44.001Z</time></trkpt><trkpt lat="45.67416" lon="8.6712833"><ele>201.0</ele><time>2026-03-29T11:59:45.002Z</time></trkpt><trkpt lat="45.6740083" lon="8.6711567"><ele>202.33333333333331</ele><time>2026-03-29T11:59:46.002Z</time></trkpt><trkpt lat="45.6738933" lon="8.670915"><ele>203.66666666666666</ele><time>2026-03-29T11:59:47.002Z</time></trkpt><trkpt lat="45.6737783" lon="8.6706467"><ele>205.0</ele><time>2026-03-29T11:59:48.002Z</time></trkpt><trkpt lat="45.673635" lon="8.6703583"><ele>209.0</ele><time>2026-03-29T11:59:49.001Z</time></trkpt><trkpt lat="45.6734967" lon="8.67009"><ele>213.0</ele><time>2026-03-29T11:59:50.002Z</time></trkpt><trkpt lat="45.6733567" lon="8.6698033"><ele>213.0</ele><time>2026-03-29T11:59:51.001Z</time></trkpt><trkpt lat="45.6732" lon="8.66952"><ele>213.0</ele><time>2026-03-29T11:59:52.002Z</time></trkpt><trkpt lat="45.6730333" lon="8.66922"><ele>213.5</ele><time>2026-03-29T11:59:53.002Z</time></trkpt><trkpt lat="45.6728583" lon="8.6689367"><ele>214.0</ele><time>2026-03-29T11:59:54.001Z</time></trkpt><trkpt lat="45.6726883" lon="8.6686417"><ele>214.5</ele><time>2026-03-29T11:59:55.002Z</time></trkpt><trkpt lat="45.6725183" lon="8.6683383"><ele>215.0</ele><time>2026-03-29T11:59:56.002Z</time></trkpt><trkpt lat="45.672345" lon="8.6680467"><ele>217.0</ele><time>2026-03-29T11:59:57.002Z</time></trkpt><trkpt lat="45.6721767" lon="8.66776"><ele>219.0</ele><time>2026-03-29T11:59:58.002Z</time></trkpt><trkpt lat="45.672" lon="8.6674383"><ele>219.0</ele><time>2026-03-29T11:59:59.002Z</time></trkpt><trkpt lat="45.6718217" lon="8.66713"><ele>219.0</ele><time>2026-03-29T12:00:00.002Z</time></trkpt><trkpt lat="45.6716417" lon="8.6668183"><ele>218.5</ele><time>2026-03-29T12:00:01.002Z</time></trkpt><trkpt lat="45.6714617" lon="8.666505"><ele>218.0</ele><time>2026-03-29T12:00:02.002Z</time></trkpt><trkpt lat="45.6712883" lon="8.6662117"><ele>218.0</ele><time>2026-03-29T12:00:03.001Z</time></trkpt><trkpt lat="45.6711167" lon="8.665915"><ele>218.0</ele><time>2026-03-29T12:00:04.002Z</time></trkpt><trkpt lat="45.670945" lon="8.6656267"><ele>220.0</ele><time>2026-03-29T12:00:05.002Z</time></trkpt><trkpt lat="45.6707817" lon="8.665345"><ele>222.0</ele><time>2026-03-29T12:00:06.002Z</time></trkpt><trkpt lat="45.6706267" lon="8.665075"><ele>222.0</ele><time>2026-03-29T12:00:07.002Z</time></trkpt><trkpt lat="45.6704917" lon="8.6648117"><ele>222.0</ele><time>2026-03-29T12:00:08.002Z</time></trkpt><trkpt lat="45.6703667" lon="8.6645567"><ele>222.0</ele><time>2026-03-29T12:00:09.002Z</time></trkpt><trkpt lat="45.670245" lon="8.6643033"><ele>222.66666666666669</ele><time>2026-03-29T12:00:10.002Z</time></trkpt><trkpt lat="45.67014" lon="8.6640317"><ele>223.33333333333334</ele><time>2026-03-29T12:00:11.002Z</time></trkpt><trkpt lat="45.6700583" lon="8.6637283"><ele>224.0</ele><time>2026-03-29T12:00:12.002Z</time></trkpt><trkpt lat="45.6699983" lon="8.6634133"><ele>224.5</ele><time>2026-03-29T12:00:13.002Z</time></trkpt><trkpt lat="45.6699517" lon="8.663085"><ele>225.0</ele><time>2026-03-29T12:00:14.002Z</time></trkpt><trkpt lat="45.6699017" lon="8.66274"><ele>225.0</ele><time>2026-03-29T12:00:15.001Z</time></trkpt><trkpt lat="45.6698833" lon="8.6623967"><ele>225.0</ele><time>2026-03-29T12:00:16.002Z</time></trkpt><trkpt lat="45.66989" lon="8.6620383"><ele>229.0</ele><time>2026-03-29T12:00:17.002Z</time></trkpt><trkpt lat="45.669955" lon="8.6616667"><ele>233.0</ele><time>2026-03-29T12:00:18.002Z</time></trkpt><trkpt lat="45.6700483" lon="8.6612633"><ele>236.0</ele><time>2026-03-29T12:00:19.001Z</time></trkpt><trkpt lat="45.670115" lon="8.6608783"><ele>239.0</ele><time>2026-03-29T12:00:20.001Z</time></trkpt><trkpt lat="45.670195" lon="8.6604983"><ele>240.0</ele><time>2026-03-29T12:00:21.002Z</time></trkpt><trkpt lat="45.6702483" lon="8.66012"><ele>241.0</ele><time>2026-03-29T12:00:22.002Z</time></trkpt><trkpt lat="45.67028" lon="8.6596967"><ele>234.5</ele><time>2026-03-29T12:00:23.002Z</time></trkpt><trkpt lat="45.6702933" lon="8.6592883"><ele>228.0</ele><time>2026-03-29T12:00:24.002Z</time></trkpt><trkpt lat="45.6702767" lon="8.658885"><ele>229.0</ele><time>2026-03-29T12:00:25.002Z</time></trkpt><trkpt lat="45.6702767" lon="8.6584783"><ele>230.0</ele><time>2026-03-29T12:00:26.002Z</time></trkpt><trkpt lat="45.6702883" lon="8.658115"><ele>232.0</ele><time>2026-03-29T12:00:27.002Z</time></trkpt><trkpt lat="45.670285" lon="8.657735"><ele>234.0</ele><time>2026-03-29T12:00:28.002Z</time></trkpt><trkpt lat="45.67028" lon="8.657385"><ele>242.5</ele><time>2026-03-29T12:00:29.002Z</time></trkpt><trkpt lat="45.6702683" lon="8.657045"><ele>251.0</ele><time>2026-03-29T12:00:30.002Z</time></trkpt><trkpt lat="45.67027" lon="8.65674"><ele>253.33333333333334</ele><time>2026-03-29T12:00:31.002Z</time></trkpt><trkpt lat="45.670265" lon="8.6564417"><ele>255.66666666666669</ele><time>2026-03-29T12:00:32.002Z</time></trkpt><trkpt lat="45.6702683" lon="8.656165"><ele>258.0</ele><time>2026-03-29T12:00:33.002Z</time></trkpt><trkpt lat="45.6702633" lon="8.6558867"><ele>258.3333333333333</ele><time>2026-03-29T12:00:34.002Z</time></trkpt><trkpt lat="45.6702733" lon="8.655585"><ele>258.66666666666663</ele><time>2026-03-29T12:00:35.001Z</time></trkpt><trkpt lat="45.67027" lon="8.6552667"><ele>259.0</ele><time>2026-03-29T12:00:36.001Z</time></trkpt><trkpt lat="45.6702767" lon="8.6549533"><ele>257.66666666666663</ele><time>2026-03-29T12:00:37.001Z</time></trkpt><trkpt lat="45.6702733" lon="8.6546683"><ele>256.3333333333333</ele><time>2026-03-29T12:00:38.001Z</time></trkpt><trkpt lat="45.6702567" lon="8.6543917"><ele>255.0</ele><time>2026-03-29T12:00:39.001Z</time></trkpt><trkpt lat="45.670235" lon="8.654115"><ele>254.33333333333331</ele><time>2026-03-29T12:00:40.001Z</time></trkpt><trkpt lat="45.6702067" lon="8.6538483"><ele>253.66666666666666</ele><time>2026-03-29T12:00:41.002Z</time></trkpt><trkpt lat="45.6701633" lon="8.6535583"><ele>253.0</ele><time>2026-03-29T12:00:42.002Z</time></trkpt><trkpt lat="45.67012" lon="8.6532567"><ele>253.0</ele><time>2026-03-29T12:00:43.002Z</time></trkpt><trkpt lat="45.6700617" lon="8.65292"><ele>253.0</ele><time>2026-03-29T12:00:44.002Z</time></trkpt><trkpt lat="45.670015" lon="8.6525717"><ele>253.0</ele><time>2026-03-29T12:00:45.002Z</time></trkpt><trkpt lat="45.669985" lon="8.6521933"><ele>253.0</ele><time>2026-03-29T12:00:46.002Z</time></trkpt><trkpt lat="45.66998" lon="8.6518083"><ele>254.5</ele><time>2026-03-29T12:00:47.002Z</time></trkpt><trkpt lat="45.6699783" lon="8.6514183"><ele>256.0</ele><time>2026-03-29T12:00:48.001Z</time></trkpt><trkpt lat="45.6699733" lon="8.6510167"><ele>256.0</ele><time>2026-03-29T12:00:49.002Z</time></trkpt><trkpt lat="45.66998" lon="8.65062"><ele>256.0</ele><time>2026-03-29T12:00:50.002Z</time></trkpt><trkpt lat="45.66998" lon="8.6502233"><ele>256.0</ele><time>2026-03-29T12:00:51.002Z</time></trkpt><trkpt lat="45.6699867" lon="8.6498367"><ele>256.0</ele><time>2026-03-29T12:00:52.002Z</time></trkpt><trkpt lat="45.6699683" lon="8.64948"><ele>257.0</ele><time>2026-03-29T12:00:53.002Z</time></trkpt><trkpt lat="45.6699267" lon="8.649105"><ele>258.0</ele><time>2026-03-29T12:00:54.002Z</time></trkpt><trkpt lat="45.66986" lon="8.64874"><ele>260.0</ele><time>2026-03-29T12:00:55.002Z</time></trkpt><trkpt lat="45.66979" lon="8.6483733"><ele>262.0</ele><time>2026-03-29T12:00:56.001Z</time></trkpt><trkpt lat="45.6697117" lon="8.6480117"><ele>263.5</ele><time>2026-03-29T12:00:57.001Z</time></trkpt><trkpt lat="45.6696533" lon="8.6476333"><ele>265.0</ele><time>2026-03-29T12:00:58.001Z</time></trkpt><trkpt lat="45.6696183" lon="8.6472583"><ele>264.0</ele><time>2026-03-29T12:00:59.002Z</time></trkpt><trkpt lat="45.6696033" lon="8.6468833"><ele>263.0</ele><time>2026-03-29T12:01:00.001Z</time></trkpt><trkpt lat="45.6695833" lon="8.6465083"><ele>263.5</ele><time>2026-03-29T12:01:01.002Z</time></trkpt><trkpt lat="45.6695467" lon="8.6461083"><ele>264.0</ele><time>2026-03-29T12:01:02.001Z</time></trkpt><trkpt lat="45.669515" lon="8.6457283"><ele>264.0</ele><time>2026-03-29T12:01:03.001Z</time></trkpt><trkpt lat="45.66948" lon="8.6453317"><ele>264.0</ele><time>2026-03-29T12:01:04.001Z</time></trkpt><trkpt lat="45.6694283" lon="8.6449583"><ele>265.5</ele><time>2026-03-29T12:01:05.002Z</time></trkpt><trkpt lat="45.6693817" lon="8.6445867"><ele>267.0</ele><time>2026-03-29T12:01:06.002Z</time></trkpt><trkpt lat="45.669325" lon="8.6442233"><ele>269.0</ele><time>2026-03-29T12:01:07.002Z</time></trkpt><trkpt lat="45.6692817" lon="8.6438533"><ele>271.0</ele><time>2026-03-29T12:01:08.002Z</time></trkpt><trkpt lat="45.6692617" lon="8.6435"><ele>275.66666666666663</ele><time>2026-03-29T12:01:09.002Z</time></trkpt><trkpt lat="45.66927" lon="8.64318"><ele>280.3333333333333</ele><time>2026-03-29T12:01:10.002Z</time></trkpt><trkpt lat="45.6692767" lon="8.6428833"><ele>285.0</ele><time>2026-03-29T12:01:11.002Z</time></trkpt><trkpt lat="45.669255" lon="8.6426333"><ele>287.6666666666667</ele><time>2026-03-29T12:01:12.001Z</time></trkpt><trkpt lat="45.6692067" lon="8.6423867"><ele>290.33333333333337</ele><time>2026-03-29T12:01:13.002Z</time></trkpt><trkpt lat="45.6691117" lon="8.6421817"><ele>293.0</ele><time>2026-03-29T12:01:14.002Z</time></trkpt><trkpt lat="45.668995" lon="8.6419717"><ele>292.33333333333337</ele><time>2026-03-29T12:01:15.002Z</time></trkpt><trkpt lat="45.66884" lon="8.641755"><ele>291.6666666666667</ele><time>2026-03-29T12:01:16.002Z</time></trkpt><trkpt lat="45.6686983" lon="8.6415183"><ele>291.0</ele><time>2026-03-29T12:01:17.002Z</time></trkpt><trkpt lat="45.6685583" lon="8.6412283"><ele>288.0</ele><time>2026-03-29T12:01:18.001Z</time></trkpt><trkpt lat="45.668425" lon="8.640935"><ele>285.0</ele><time>2026-03-29T12:01:19.002Z</time></trkpt><trkpt lat="45.6683017" lon="8.640695"><ele>285.0</ele><time>2026-03-29T12:01:20.002Z</time></trkpt><trkpt lat="45.6681767" lon="8.64046"><ele>285.0</ele><time>2026-03-29T12:01:21.002Z</time></trkpt><trkpt lat="45.66807" lon="8.6402283"><ele>285.0</ele><time>2026-03-29T12:01:22.002Z</time></trkpt><trkpt lat="45.667945" lon="8.6400233"><ele>284.6666666666667</ele><time>2026-03-29T12:01:23.001Z</time></trkpt><trkpt lat="45.6678217" lon="8.6398567"><ele>284.33333333333337</ele><time>2026-03-29T12:01:24.002Z</time></trkpt><trkpt lat="45.6677067" lon="8.639655"><ele>284.0</ele><time>2026-03-29T12:01:25.002Z</time></trkpt><trkpt lat="45.6676017" lon="8.63946"><ele>284.0</ele><time>2026-03-29T12:01:26.002Z</time></trkpt><trkpt lat="45.6675067" lon="8.639285"><ele>284.0</ele><time>2026-03-29T12:01:27.001Z</time></trkpt><trkpt lat="45.66742" lon="8.6390717"><ele>284.0</ele><time>2026-03-29T12:01:28.002Z</time></trkpt><trkpt lat="45.6673417" lon="8.63886"><ele>284.0</ele><time>2026-03-29T12:01:29.002Z</time></trkpt><trkpt lat="45.6672683" lon="8.6386433"><ele>284.0</ele><time>2026-03-29T12:01:30.001Z</time></trkpt><trkpt lat="45.667205" lon="8.638425"><ele>284.0</ele><time>2026-03-29T12:01:31.002Z</time></trkpt><trkpt lat="45.667165" lon="8.6381983"><ele>284.6666666666667</ele><time>2026-03-29T12:01:32.001Z</time></trkpt><trkpt lat="45.6671383" lon="8.6379617"><ele>285.3333333333333</ele><time>2026-03-29T12:01:33.001Z</time></trkpt><trkpt lat="45.6671083" lon="8.6377183"><ele>286.0</ele><time>2026-03-29T12:01:34.002Z</time></trkpt><trkpt lat="45.6670683" lon="8.6374883"><ele>286.0</ele><time>2026-03-29T12:01:35.002Z</time></trkpt><trkpt lat="45.66702" lon="8.6372517"><ele>286.0</ele><time>2026-03-29T12:01:36.001Z</time></trkpt><trkpt lat="45.66701" lon="8.6370267"><ele>286.0</ele><time>2026-03-29T12:01:37.001Z</time></trkpt><trkpt lat="45.6670083" lon="8.6367983"><ele>284.66666666666663</ele><time>2026-03-29T12:01:38.002Z</time></trkpt><trkpt lat="45.6670267" lon="8.6365633"><ele>283.3333333333333</ele><time>2026-03-29T12:01:39.002Z</time></trkpt><trkpt lat="45.6670383" lon="8.6363283"><ele>282.0</ele><time>2026-03-29T12:01:40.002Z</time></trkpt><trkpt lat="45.667035" lon="8.6361067"><ele>282.0</ele><time>2026-03-29T12:01:41.002Z</time></trkpt><trkpt lat="45.6670283" lon="8.6358683"><ele>282.0</ele><time>2026-03-29T12:01:42.002Z</time></trkpt><trkpt lat="45.6670317" lon="8.6356283"><ele>282.0</ele><time>2026-03-29T12:01:43.002Z</time></trkpt><trkpt lat="45.66704" lon="8.6353917"><ele>283.0</ele><time>2026-03-29T12:01:44.002Z</time></trkpt><trkpt lat="45.66706" lon="8.635145"><ele>284.0</ele><time>2026-03-29T12:01:45.002Z</time></trkpt><trkpt lat="45.6670583" lon="8.6349117"><ele>285.0</ele><time>2026-03-29T12:01:46.002Z</time></trkpt><trkpt lat="45.6670517" lon="8.6346867"><ele>286.6666666666667</ele><time>2026-03-29T12:01:47.002Z</time></trkpt><trkpt lat="45.6670233" lon="8.63446"><ele>288.33333333333337</ele><time>2026-03-29T12:01:48.002Z</time></trkpt><trkpt lat="45.667" lon="8.634235"><ele>290.0</ele><time>2026-03-29T12:01:49.002Z</time></trkpt><trkpt lat="45.6669833" lon="8.6340283"><ele>290.0</ele><time>2026-03-29T12:01:50.001Z</time></trkpt><trkpt lat="45.6669617" lon="8.6338383"><ele>290.0</ele><time>2026-03-29T12:01:51.001Z</time></trkpt><trkpt lat="45.6669433" lon="8.6336783"><ele>290.0</ele><time>2026-03-29T12:01:52.001Z</time></trkpt><trkpt lat="45.6668967" lon="8.6335283"><ele>290.0</ele><time>2026-03-29T12:01:53.002Z</time></trkpt><trkpt lat="45.66686" lon="8.6334067"><ele>291.1666666666667</ele><time>2026-03-29T12:01:54.002Z</time></trkpt><trkpt lat="45.6667967" lon="8.633295"><ele>292.33333333333337</ele><time>2026-03-29T12:01:55.002Z</time></trkpt><trkpt lat="45.6667383" lon="8.6331933"><ele>293.5</ele><time>2026-03-29T12:01:56.002Z</time></trkpt><trkpt lat="45.66669" lon="8.6331133"><ele>294.6666666666667</ele><time>2026-03-29T12:01:57.002Z</time></trkpt><trkpt lat="45.6666283" lon="8.6330533"><ele>295.8333333333333</ele><time>2026-03-29T12:01:58.002Z</time></trkpt><trkpt lat="45.6665717" lon="8.6329417"><ele>297.0</ele><time>2026-03-29T12:01:59.002Z</time></trkpt><trkpt lat="45.6665267" lon="8.6328067"><ele>296.5</ele><time>2026-03-29T12:02:00.001Z</time></trkpt><trkpt lat="45.6664933" lon="8.6326483"><ele>296.0</ele><time>2026-03-29T12:02:01.002Z</time></trkpt><trkpt lat="45.6665" lon="8.6324833"><ele>295.5</ele><time>2026-03-29T12:02:02.002Z</time></trkpt><trkpt lat="45.6665183" lon="8.63231"><ele>295.0</ele><time>2026-03-29T12:02:03.002Z</time></trkpt><trkpt lat="45.6665283" lon="8.6321333"><ele>295.0</ele><time>2026-03-29T12:02:04.001Z</time></trkpt><trkpt lat="45.666555" lon="8.6319883"><ele>295.0</ele><time>2026-03-29T12:02:05.002Z</time></trkpt><trkpt lat="45.6665733" lon="8.6318567"><ele>295.0</ele><time>2026-03-29T12:02:06.001Z</time></trkpt><trkpt lat="45.666555" lon="8.6317383"><ele>295.0</ele><time>2026-03-29T12:02:07.002Z</time></trkpt><trkpt lat="45.66651" lon="8.6316167"><ele>295.0</ele><time>2026-03-29T12:02:08.001Z</time></trkpt><trkpt lat="45.66642" lon="8.6314983"><ele>295.6</ele><time>2026-03-29T12:02:09.002Z</time></trkpt><trkpt lat="45.66635" lon="8.6313833"><ele>296.2</ele><time>2026-03-29T12:02:10.001Z</time></trkpt><trkpt lat="45.6663033" lon="8.631275"><ele>296.8</ele><time>2026-03-29T12:02:11.002Z</time></trkpt><trkpt lat="45.66626" lon="8.6311617"><ele>297.4</ele><time>2026-03-29T12:02:12.002Z</time></trkpt><trkpt lat="45.6662333" lon="8.6310333"><ele>298.0</ele><time>2026-03-29T12:02:13.002Z</time></trkpt><trkpt lat="45.6662517" lon="8.6308333"><ele>298.75</ele><time>2026-03-29T12:02:14.002Z</time></trkpt><trkpt lat="45.66625" lon="8.6306867"><ele>299.5</ele><time>2026-03-29T12:02:15.002Z</time></trkpt><trkpt lat="45.6662583" lon="8.6305583"><ele>300.25</ele><time>2026-03-29T12:02:16.001Z</time></trkpt><trkpt lat="45.666445" lon="8.6303783"><ele>301.0</ele><time>2026-03-29T12:02:17.001Z</time></trkpt><trkpt lat="45.6665433" lon="8.6302217"><ele>301.0</ele><time>2026-03-29T12:02:18.002Z</time></trkpt><trkpt lat="45.6665867" lon="8.6301267"><ele>301.0</ele><time>2026-03-29T12:02:19.002Z</time></trkpt><trkpt lat="45.6666267" lon="8.6300217"><ele>301.0</ele><time>2026-03-29T12:02:20.002Z</time></trkpt><trkpt lat="45.666655" lon="8.6299067"><ele>301.0</ele><time>2026-03-29T12:02:21.002Z</time></trkpt><trkpt lat="45.66668" lon="8.6297917"><ele>301.0</ele><time>2026-03-29T12:02:22.002Z</time></trkpt><trkpt lat="45.66671" lon="8.629675"><ele>301.0</ele><time>2026-03-29T12:02:23.001Z</time></trkpt><trkpt lat="45.6667467" lon="8.6295467"><ele>300.75</ele><time>2026-03-29T12:02:24.001Z</time></trkpt><trkpt lat="45.6667717" lon="8.6293933"><ele>300.5</ele><time>2026-03-29T12:02:25.002Z</time></trkpt><trkpt lat="45.6668067" lon="8.6292283"><ele>300.25</ele><time>2026-03-29T12:02:26.002Z</time></trkpt><trkpt lat="45.6668267" lon="8.6290617"><ele>300.0</ele><time>2026-03-29T12:02:27.001Z</time></trkpt><trkpt lat="45.6668433" lon="8.6289033"><ele>300.0</ele><time>2026-03-29T12:02:28.002Z</time></trkpt><trkpt lat="45.6668567" lon="8.62876"><ele>300.0</ele><time>2026-03-29T12:02:29.002Z</time></trkpt><trkpt lat="45.666875" lon="8.6286417"><ele>300.0</ele><time>2026-03-29T12:02:30.001Z</time></trkpt><trkpt lat="45.6668967" lon="8.6285367"><ele>300.0</ele><time>2026-03-29T12:02:31.002Z</time></trkpt><trkpt lat="45.6669183" lon="8.6284417"><ele>300.0</ele><time>2026-03-29T12:02:32.002Z</time></trkpt><trkpt lat="45.6669383" lon="8.628335"><ele>300.0</ele><time>2026-03-29T12:02:33.002Z</time></trkpt><trkpt lat="45.6669667" lon="8.62824"><ele>299.6</ele><time>2026-03-29T12:02:34.002Z</time></trkpt><trkpt lat="45.666905" lon="8.628135"><ele>299.2</ele><time>2026-03-29T12:02:36.002Z</time></trkpt><trkpt lat="45.66683" lon="8.6281233"><ele>298.8</ele><time>2026-03-29T12:02:37.002Z</time></trkpt><trkpt lat="45.6667167" lon="8.62814"><ele>298.4</ele><time>2026-03-29T12:02:38.001Z</time></trkpt><trkpt lat="45.6665917" lon="8.6281633"><ele>298.0</ele><time>2026-03-29T12:02:39.001Z</time></trkpt><trkpt lat="45.666455" lon="8.6281983"><ele>298.0</ele><time>2026-03-29T12:02:40.002Z</time></trkpt><trkpt lat="45.66632" lon="8.6282117"><ele>298.0</ele><time>2026-03-29T12:02:41.002Z</time></trkpt><trkpt lat="45.6661833" lon="8.628245"><ele>298.0</ele><time>2026-03-29T12:02:42.002Z</time></trkpt><trkpt lat="45.66604" lon="8.62825"><ele>298.0</ele><time>2026-03-29T12:02:43.002Z</time></trkpt><trkpt lat="45.6659033" lon="8.6282533"><ele>297.4</ele><time>2026-03-29T12:02:44.002Z</time></trkpt><trkpt lat="45.6657733" lon="8.6282667"><ele>296.8</ele><time>2026-03-29T12:02:45.001Z</time></trkpt><trkpt lat="45.6656683" lon="8.6282683"><ele>296.2</ele><time>2026-03-29T12:02:46.002Z</time></trkpt><trkpt lat="45.665575" lon="8.6282717"><ele>295.6</ele><time>2026-03-29T12:02:47.002Z</time></trkpt><trkpt lat="45.6654867" lon="8.6282583"><ele>295.0</ele><time>2026-03-29T12:02:48.002Z</time></trkpt><trkpt lat="45.6654067" lon="8.62822"><ele>295.0</ele><time>2026-03-29T12:02:49.002Z</time></trkpt><trkpt lat="45.6653417" lon="8.6281817"><ele>295.0</ele><time>2026-03-29T12:02:50.001Z</time></trkpt><trkpt lat="45.665315" lon="8.6280883"><ele>295.0</ele><time>2026-03-29T12:02:51.002Z</time></trkpt><trkpt lat="45.665315" lon="8.6279167"><ele>295.0</ele><time>2026-03-29T12:02:52.002Z</time></trkpt><trkpt lat="45.66532" lon="8.6277317"><ele>295.0</ele><time>2026-03-29T12:02:53.001Z</time></trkpt><trkpt lat="45.6653317" lon="8.6275433"><ele>295.25</ele><time>2026-03-29T12:02:54.001Z</time></trkpt><trkpt lat="45.6653417" lon="8.627345"><ele>295.5</ele><time>2026-03-29T12:02:55.002Z</time></trkpt><trkpt lat="45.665345" lon="8.627135"><ele>295.75</ele><time>2026-03-29T12:02:56.002Z</time></trkpt><trkpt lat="45.66536" lon="8.62692"><ele>296.0</ele><time>2026-03-29T12:02:57.002Z</time></trkpt><trkpt lat="45.6653733" lon="8.6267"><ele>296.33333333333337</ele><time>2026-03-29T12:02:58.001Z</time></trkpt><trkpt lat="45.6653933" lon="8.6264833"><ele>296.6666666666667</ele><time>2026-03-29T12:02:59.001Z</time></trkpt><trkpt lat="45.665405" lon="8.6262667"><ele>297.0</ele><time>2026-03-29T12:03:00.001Z</time></trkpt><trkpt lat="45.6654233" lon="8.6260383"><ele>297.0</ele><time>2026-03-29T12:03:01.001Z</time></trkpt><trkpt lat="45.66544" lon="8.625805"><ele>297.0</ele><time>2026-03-29T12:03:02.001Z</time></trkpt><trkpt lat="45.665455" lon="8.6255683"><ele>297.0</ele><time>2026-03-29T12:03:03.002Z</time></trkpt><trkpt lat="45.6654683" lon="8.6253217"><ele>297.0</ele><time>2026-03-29T12:03:04.002Z</time></trkpt><trkpt lat="45.6654683" lon="8.6250683"><ele>297.0</ele><time>2026-03-29T12:03:05.002Z</time></trkpt><trkpt lat="45.66546" lon="8.624815"><ele>297.0</ele><time>2026-03-29T12:03:06.001Z</time></trkpt><trkpt lat="45.6654433" lon="8.6245633"><ele>297.0</ele><time>2026-03-29T12:03:07.002Z</time></trkpt><trkpt lat="45.665395" lon="8.62431"><ele>297.0</ele><time>2026-03-29T12:03:08.002Z</time></trkpt><trkpt lat="45.6653633" lon="8.6240433"><ele>297.0</ele><time>2026-03-29T12:03:09.001Z</time></trkpt><trkpt lat="45.6653083" lon="8.6237767"><ele>297.3333333333333</ele><time>2026-03-29T12:03:10.002Z</time></trkpt><trkpt lat="45.6652617" lon="8.623505"><ele>297.66666666666663</ele><time>2026-03-29T12:03:11.001Z</time></trkpt><trkpt lat="45.6652233" lon="8.62324"><ele>298.0</ele><time>2026-03-29T12:03:12.001Z</time></trkpt><trkpt lat="45.6651967" lon="8.6229883"><ele>296.66666666666663</ele><time>2026-03-29T12:03:13.001Z</time></trkpt><trkpt lat="45.665165" lon="8.622755"><ele>295.3333333333333</ele><time>2026-03-29T12:03:14.002Z</time></trkpt><trkpt lat="45.6651467" lon="8.6224933"><ele>294.0</ele><time>2026-03-29T12:03:15.002Z</time></trkpt><trkpt lat="45.66513" lon="8.6222567"><ele>294.0</ele><time>2026-03-29T12:03:16.002Z</time></trkpt><trkpt lat="45.6651017" lon="8.622005"><ele>294.0</ele><time>2026-03-29T12:03:17.001Z</time></trkpt><trkpt lat="45.6650683" lon="8.6217533"><ele>294.0</ele><time>2026-03-29T12:03:18.002Z</time></trkpt><trkpt lat="45.665035" lon="8.6215017"><ele>293.6666666666667</ele><time>2026-03-29T12:03:19.002Z</time></trkpt><trkpt lat="45.665" lon="8.6212533"><ele>293.33333333333337</ele><time>2026-03-29T12:03:20.002Z</time></trkpt><trkpt lat="45.6649667" lon="8.6210017"><ele>293.0</ele><time>2026-03-29T12:03:21.002Z</time></trkpt><trkpt lat="45.6649317" lon="8.62075"><ele>293.0</ele><time>2026-03-29T12:03:22.002Z</time></trkpt><trkpt lat="45.6648983" lon="8.620505"><ele>293.0</ele><time>2026-03-29T12:03:23.002Z</time></trkpt><trkpt lat="45.6648683" lon="8.6202683"><ele>293.0</ele><time>2026-03-29T12:03:24.002Z</time></trkpt><trkpt lat="45.6648417" lon="8.6200383"><ele>293.0</ele><time>2026-03-29T12:03:25.002Z</time></trkpt><trkpt lat="45.6648067" lon="8.6198033"><ele>293.0</ele><time>2026-03-29T12:03:26.001Z</time></trkpt><trkpt lat="45.66478" lon="8.6195967"><ele>293.0</ele><time>2026-03-29T12:03:27.002Z</time></trkpt><trkpt lat="45.6647533" lon="8.6194017"><ele>293.2</ele><time>2026-03-29T12:03:28.001Z</time></trkpt><trkpt lat="45.66471" lon="8.6192317"><ele>293.4</ele><time>2026-03-29T12:03:29.002Z</time></trkpt><trkpt lat="45.6646717" lon="8.6190783"><ele>293.59999999999997</ele><time>2026-03-29T12:03:30.001Z</time></trkpt><trkpt lat="45.66466" lon="8.6189433"><ele>293.8</ele><time>2026-03-29T12:03:31.002Z</time></trkpt><trkpt lat="45.66466" lon="8.6188133"><ele>294.0</ele><time>2026-03-29T12:03:32.002Z</time></trkpt><trkpt lat="45.6646733" lon="8.6186817"><ele>294.5</ele><time>2026-03-29T12:03:33.001Z</time></trkpt><trkpt lat="45.6647283" lon="8.61856"><ele>295.0</ele><time>2026-03-29T12:03:34.002Z</time></trkpt><trkpt lat="45.6648433" lon="8.61849"><ele>295.5</ele><time>2026-03-29T12:03:35.001Z</time></trkpt><trkpt lat="45.66498" lon="8.6184583"><ele>296.0</ele><time>2026-03-29T12:03:36Z</time></trkpt><trkpt lat="45.6651417" lon="8.61842"><ele>295.33333333333337</ele><time>2026-03-29T12:03:37Z</time></trkpt><trkpt lat="45.6653083" lon="8.6183933"><ele>294.6666666666667</ele><time>2026-03-29T12:03:38.001Z</time></trkpt><trkpt lat="45.66546" lon="8.6183667"><ele>294.0</ele><time>2026-03-29T12:03:39.001Z</time></trkpt><trkpt lat="45.6656317" lon="8.6183567"><ele>294.0</ele><time>2026-03-29T12:03:40.001Z</time></trkpt><trkpt lat="45.6658117" lon="8.6183483"><ele>294.0</ele><time>2026-03-29T12:03:41Z</time></trkpt><trkpt lat="45.6660017" lon="8.6183283"><ele>294.0</ele><time>2026-03-29T12:03:42.001Z</time></trkpt><trkpt lat="45.6661967" lon="8.618315"><ele>294.3333333333333</ele><time>2026-03-29T12:03:43.001Z</time></trkpt><trkpt lat="45.6663917" lon="8.6182933"><ele>294.66666666666663</ele><time>2026-03-29T12:03:44.001Z</time></trkpt><trkpt lat="45.6665933" lon="8.618285"><ele>295.0</ele><time>2026-03-29T12:03:45Z</time></trkpt><trkpt lat="45.6667833" lon="8.6182667"><ele>296.66666666666663</ele><time>2026-03-29T12:03:46Z</time></trkpt><trkpt lat="45.6669583" lon="8.6182467"><ele>298.3333333333333</ele><time>2026-03-29T12:03:47.001Z</time></trkpt><trkpt lat="45.6671083" lon="8.6182333"><ele>300.0</ele><time>2026-03-29T12:03:48.001Z</time></trkpt><trkpt lat="45.6672583" lon="8.6182167"><ele>300.0</ele><time>2026-03-29T12:03:49.001Z</time></trkpt><trkpt lat="45.6674017" lon="8.6182033"><ele>300.0</ele><time>2026-03-29T12:03:50.001Z</time></trkpt><trkpt lat="45.667545" lon="8.61817"><ele>300.0</ele><time>2026-03-29T12:03:51Z</time></trkpt><trkpt lat="45.667695" lon="8.618165"><ele>300.0</ele><time>2026-03-29T12:03:52Z</time></trkpt><trkpt lat="45.6678417" lon="8.6181533"><ele>300.25</ele><time>2026-03-29T12:03:53.001Z</time></trkpt><trkpt lat="45.6679733" lon="8.6181183"><ele>300.5</ele><time>2026-03-29T12:03:54Z</time></trkpt><trkpt lat="45.668115" lon="8.6180683"><ele>300.75</ele><time>2026-03-29T12:03:55.001Z</time></trkpt><trkpt lat="45.6682283" lon="8.6180033"><ele>301.0</ele><time>2026-03-29T12:03:56.001Z</time></trkpt><trkpt lat="45.6683083" lon="8.61795"><ele>301.0</ele><time>2026-03-29T12:03:57.001Z</time></trkpt><trkpt lat="45.6683983" lon="8.6179083"><ele>301.0</ele><time>2026-03-29T12:03:58.001Z</time></trkpt><trkpt lat="45.668495" lon="8.61789"><ele>301.0</ele><time>2026-03-29T12:03:59.001Z</time></trkpt><trkpt lat="45.6685917" lon="8.61785"><ele>301.0</ele><time>2026-03-29T12:04:00Z</time></trkpt><trkpt lat="45.6686767" lon="8.6177967"><ele>301.0</ele><time>2026-03-29T12:04:01Z</time></trkpt><trkpt lat="45.668745" lon="8.6177117"><ele>301.8</ele><time>2026-03-29T12:04:02Z</time></trkpt><trkpt lat="45.6688067" lon="8.61763"><ele>302.6</ele><time>2026-03-29T12:04:03.001Z</time></trkpt><trkpt lat="45.66888" lon="8.6175667"><ele>303.4</ele><time>2026-03-29T12:04:04Z</time></trkpt><trkpt lat="45.6690017" lon="8.6175233"><ele>304.2</ele><time>2026-03-29T12:04:05.001Z</time></trkpt><trkpt lat="45.6691283" lon="8.6174767"><ele>305.0</ele><time>2026-03-29T12:04:06.001Z</time></trkpt><trkpt lat="45.66925" lon="8.6174417"><ele>305.0</ele><time>2026-03-29T12:04:07Z</time></trkpt><trkpt lat="45.6693833" lon="8.6173783"><ele>305.0</ele><time>2026-03-29T12:04:08.001Z</time></trkpt><trkpt lat="45.6695483" lon="8.6173033"><ele>305.0</ele><time>2026-03-29T12:04:09.001Z</time></trkpt><trkpt lat="45.6697417" lon="8.617165"><ele>305.5</ele><time>2026-03-29T12:04:10.001Z</time></trkpt><trkpt lat="45.6699617" lon="8.617015"><ele>306.0</ele><time>2026-03-29T12:04:11.001Z</time></trkpt><trkpt lat="45.6702083" lon="8.6168533"><ele>306.0</ele><time>2026-03-29T12:04:12Z</time></trkpt><trkpt lat="45.670455" lon="8.616675"><ele>306.0</ele><time>2026-03-29T12:04:13.001Z</time></trkpt><trkpt lat="45.6707033" lon="8.6164883"><ele>306.0</ele><time>2026-03-29T12:04:14.001Z</time></trkpt><trkpt lat="45.6709267" lon="8.616325"><ele>306.0</ele><time>2026-03-29T12:04:15Z</time></trkpt><trkpt lat="45.6711367" lon="8.61618"><ele>306.3333333333333</ele><time>2026-03-29T12:04:16.001Z</time></trkpt><trkpt lat="45.67131" lon="8.616045"><ele>306.66666666666663</ele><time>2026-03-29T12:04:17.001Z</time></trkpt><trkpt lat="45.6714683" lon="8.61591"><ele>307.0</ele><time>2026-03-29T12:04:18.001Z</time></trkpt><trkpt lat="45.671605" lon="8.61579"><ele>307.0</ele><time>2026-03-29T12:04:19Z</time></trkpt><trkpt lat="45.6717417" lon="8.615695"><ele>307.0</ele><time>2026-03-29T12:04:20.001Z</time></trkpt><trkpt lat="45.6718583" lon="8.6156367"><ele>307.0</ele><time>2026-03-29T12:04:21.001Z</time></trkpt><trkpt lat="45.6719617" lon="8.6156033"><ele>307.0</ele><time>2026-03-29T12:04:22.001Z</time></trkpt><trkpt lat="45.67204" lon="8.6155417"><ele>306.75</ele><time>2026-03-29T12:04:23Z</time></trkpt><trkpt lat="45.672115" lon="8.6154367"><ele>306.5</ele><time>2026-03-29T12:04:24Z</time></trkpt><trkpt lat="45.672165" lon="8.6152933"><ele>306.25</ele><time>2026-03-29T12:04:25Z</time></trkpt><trkpt lat="45.6722217" lon="8.6151583"><ele>306.0</ele><time>2026-03-29T12:04:26.001Z</time></trkpt><trkpt lat="45.6723133" lon="8.6150183"><ele>306.0</ele><time>2026-03-29T12:04:27.001Z</time></trkpt><trkpt lat="45.67244" lon="8.61488"><ele>306.0</ele><time>2026-03-29T12:04:28.001Z</time></trkpt><trkpt lat="45.6725817" lon="8.6147183"><ele>306.0</ele><time>2026-03-29T12:04:29.001Z</time></trkpt><trkpt lat="45.6727367" lon="8.6145517"><ele>305.3333333333333</ele><time>2026-03-29T12:04:30.001Z</time></trkpt><trkpt lat="45.6729117" lon="8.6143783"><ele>304.66666666666663</ele><time>2026-03-29T12:04:31.001Z</time></trkpt><trkpt lat="45.673085" lon="8.6142033"><ele>304.0</ele><time>2026-03-29T12:04:32Z</time></trkpt><trkpt lat="45.67326" lon="8.6140033"><ele>304.0</ele><time>2026-03-29T12:04:33Z</time></trkpt><trkpt lat="45.67344" lon="8.6137967"><ele>304.0</ele><time>2026-03-29T12:04:34Z</time></trkpt><trkpt lat="45.6736267" lon="8.613585"><ele>303.5</ele><time>2026-03-29T12:04:35Z</time></trkpt><trkpt lat="45.673815" lon="8.6133667"><ele>303.0</ele><time>2026-03-29T12:04:36.001Z</time></trkpt><trkpt lat="45.67401" lon="8.6131517"><ele>303.0</ele><time>2026-03-29T12:04:37.001Z</time></trkpt><trkpt lat="45.674195" lon="8.6129317"><ele>303.0</ele><time>2026-03-29T12:04:38.001Z</time></trkpt><trkpt lat="45.6743683" lon="8.6127317"><ele>302.6666666666667</ele><time>2026-03-29T12:04:39Z</time></trkpt><trkpt lat="45.67451" lon="8.612535"><ele>302.33333333333337</ele><time>2026-03-29T12:04:40.001Z</time></trkpt><trkpt lat="45.6746483" lon="8.6123467"><ele>302.0</ele><time>2026-03-29T12:04:41.001Z</time></trkpt><trkpt lat="45.6747917" lon="8.612155"><ele>302.33333333333337</ele><time>2026-03-29T12:04:42.001Z</time></trkpt><trkpt lat="45.6749333" lon="8.6119717"><ele>302.6666666666667</ele><time>2026-03-29T12:04:43.001Z</time></trkpt><trkpt lat="45.67507" lon="8.6118017"><ele>303.0</ele><time>2026-03-29T12:04:44.001Z</time></trkpt><trkpt lat="45.6751967" lon="8.6116317"><ele>302.3333333333333</ele><time>2026-03-29T12:04:45Z</time></trkpt><trkpt lat="45.67531" lon="8.6114617"><ele>301.66666666666663</ele><time>2026-03-29T12:04:46.001Z</time></trkpt><trkpt lat="45.67543" lon="8.6113"><ele>301.0</ele><time>2026-03-29T12:04:47Z</time></trkpt><trkpt lat="45.6755467" lon="8.611145"><ele>301.0</ele><time>2026-03-29T12:04:48Z</time></trkpt><trkpt lat="45.6756567" lon="8.6109983"><ele>301.0</ele><time>2026-03-29T12:04:49.001Z</time></trkpt><trkpt lat="45.6757667" lon="8.610845"><ele>301.0</ele><time>2026-03-29T12:04:50.001Z</time></trkpt><trkpt lat="45.6758683" lon="8.6107067"><ele>301.0</ele><time>2026-03-29T12:04:51.001Z</time></trkpt><trkpt lat="45.675975" lon="8.6105867"><ele>301.0</ele><time>2026-03-29T12:04:52Z</time></trkpt><trkpt lat="45.6760883" lon="8.610475"><ele>301.0</ele><time>2026-03-29T12:04:53.001Z</time></trkpt><trkpt lat="45.6762033" lon="8.6103867"><ele>301.0</ele><time>2026-03-29T12:04:54.001Z</time></trkpt><trkpt lat="45.6763183" lon="8.61031"><ele>301.0</ele><time>2026-03-29T12:04:55.001Z</time></trkpt><trkpt lat="45.676425" lon="8.6102633"><ele>301.0</ele><time>2026-03-29T12:04:56.001Z</time></trkpt><trkpt lat="45.6765383" lon="8.61024"><ele>301.0</ele><time>2026-03-29T12:04:57.001Z</time></trkpt><trkpt lat="45.6766617" lon="8.6102483"><ele>301.0</ele><time>2026-03-29T12:04:58.001Z</time></trkpt><trkpt lat="45.67678" lon="8.6102633"><ele>301.0</ele><time>2026-03-29T12:04:59Z</time></trkpt><trkpt lat="45.676905" lon="8.6103167"><ele>296.3333333333333</ele><time>2026-03-29T12:05:00.001Z</time></trkpt><trkpt lat="45.6770383" lon="8.6104267"><ele>291.6666666666667</ele><time>2026-03-29T12:05:01Z</time></trkpt><trkpt lat="45.6771767" lon="8.6106117"><ele>287.0</ele><time>2026-03-29T12:05:02.001Z</time></trkpt><trkpt lat="45.677335" lon="8.610825"><ele>287.0</ele><time>2026-03-29T12:05:03.001Z</time></trkpt><trkpt lat="45.6775067" lon="8.6110833"><ele>287.0</ele><time>2026-03-29T12:05:04.001Z</time></trkpt><trkpt lat="45.677685" lon="8.6113333"><ele>289.0</ele><time>2026-03-29T12:05:05.001Z</time></trkpt><trkpt lat="45.6778683" lon="8.6115917"><ele>291.0</ele><time>2026-03-29T12:05:06.001Z</time></trkpt><trkpt lat="45.6780617" lon="8.6118583"><ele>289.5</ele><time>2026-03-29T12:05:07.001Z</time></trkpt><trkpt lat="45.6782433" lon="8.6121"><ele>288.0</ele><time>2026-03-29T12:05:08.001Z</time></trkpt><trkpt lat="45.67842" lon="8.6123333"><ele>288.0</ele><time>2026-03-29T12:05:09.001Z</time></trkpt><trkpt lat="45.6785967" lon="8.6125517"><ele>288.0</ele><time>2026-03-29T12:05:10Z</time></trkpt><trkpt lat="45.6787767" lon="8.61277"><ele>287.5</ele><time>2026-03-29T12:05:11.001Z</time></trkpt><trkpt lat="45.678955" lon="8.6130217"><ele>287.0</ele><time>2026-03-29T12:05:12Z</time></trkpt><trkpt lat="45.6791283" lon="8.6132783"><ele>287.0</ele><time>2026-03-29T12:05:13.001Z</time></trkpt><trkpt lat="45.6793067" lon="8.61352"><ele>287.0</ele><time>2026-03-29T12:05:14.001Z</time></trkpt><trkpt lat="45.6794933" lon="8.613755"><ele>283.5</ele><time>2026-03-29T12:05:15.001Z</time></trkpt><trkpt lat="45.6796867" lon="8.6139783"><ele>280.0</ele><time>2026-03-29T12:05:16.001Z</time></trkpt><trkpt lat="45.679885" lon="8.6141933"><ele>280.0</ele><time>2026-03-29T12:05:17.001Z</time></trkpt><trkpt lat="45.6800833" lon="8.6144033"><ele>280.0</ele><time>2026-03-29T12:05:18.001Z</time></trkpt><trkpt lat="45.6802917" lon="8.614615"><ele>282.5</ele><time>2026-03-29T12:05:19.001Z</time></trkpt><trkpt lat="45.680505" lon="8.6148233"><ele>285.0</ele><time>2026-03-29T12:05:20.001Z</time></trkpt><trkpt lat="45.68072" lon="8.6150267"><ele>285.0</ele><time>2026-03-29T12:05:21.001Z</time></trkpt><trkpt lat="45.6809533" lon="8.6151967"><ele>285.0</ele><time>2026-03-29T12:05:22.001Z</time></trkpt><trkpt lat="45.6811667" lon="8.6153233"><ele>285.5</ele><time>2026-03-29T12:05:23.001Z</time></trkpt><trkpt lat="45.6814083" lon="8.6154117"><ele>286.0</ele><time>2026-03-29T12:05:24.001Z</time></trkpt><trkpt lat="45.68165" lon="8.6154883"><ele>286.0</ele><time>2026-03-29T12:05:25.001Z</time></trkpt><trkpt lat="45.6819017" lon="8.6155383"><ele>286.0</ele><time>2026-03-29T12:05:26.001Z</time></trkpt><trkpt lat="45.6821583" lon="8.6155867"><ele>285.5</ele><time>2026-03-29T12:05:27.001Z</time></trkpt><trkpt lat="45.6824183" lon="8.6156067"><ele>285.0</ele><time>2026-03-29T12:05:28Z</time></trkpt><trkpt lat="45.6826883" lon="8.61563"><ele>288.0</ele><time>2026-03-29T12:05:29.001Z</time></trkpt><trkpt lat="45.6829517" lon="8.6156233"><ele>291.0</ele><time>2026-03-29T12:05:30Z</time></trkpt><trkpt lat="45.6832117" lon="8.6156267"><ele>291.0</ele><time>2026-03-29T12:05:31.001Z</time></trkpt><trkpt lat="45.6834483" lon="8.6156"><ele>291.0</ele><time>2026-03-29T12:05:32Z</time></trkpt><trkpt lat="45.68367" lon="8.6155683"><ele>292.3333333333333</ele><time>2026-03-29T12:05:33Z</time></trkpt><trkpt lat="45.6838917" lon="8.6155483"><ele>293.66666666666663</ele><time>2026-03-29T12:05:34.001Z</time></trkpt><trkpt lat="45.684105" lon="8.6155317"><ele>295.0</ele><time>2026-03-29T12:05:35.001Z</time></trkpt><trkpt lat="45.684315" lon="8.6155117"><ele>295.3333333333333</ele><time>2026-03-29T12:05:36Z</time></trkpt><trkpt lat="45.6845233" lon="8.6154883"><ele>295.6666666666667</ele><time>2026-03-29T12:05:37.001Z</time></trkpt><trkpt lat="45.684725" lon="8.6154617"><ele>296.0</ele><time>2026-03-29T12:05:38Z</time></trkpt><trkpt lat="45.684935" lon="8.6154383"><ele>296.0</ele><time>2026-03-29T12:05:39.001Z</time></trkpt><trkpt lat="45.685145" lon="8.615425"><ele>296.0</ele><time>2026-03-29T12:05:40.001Z</time></trkpt><trkpt lat="45.685365" lon="8.6154517"><ele>296.0</ele><time>2026-03-29T12:05:41.001Z</time></trkpt><trkpt lat="45.68557" lon="8.6154733"><ele>296.0</ele><time>2026-03-29T12:05:42.001Z</time></trkpt><trkpt lat="45.6857633" lon="8.615505"><ele>296.0</ele><time>2026-03-29T12:05:43Z</time></trkpt><trkpt lat="45.6859617" lon="8.615575"><ele>296.0</ele><time>2026-03-29T12:05:44.001Z</time></trkpt><trkpt lat="45.686155" lon="8.6156717"><ele>297.33333333333337</ele><time>2026-03-29T12:05:45.001Z</time></trkpt><trkpt lat="45.686355" lon="8.6157867"><ele>298.6666666666667</ele><time>2026-03-29T12:05:46Z</time></trkpt><trkpt lat="45.686555" lon="8.615915"><ele>300.0</ele><time>2026-03-29T12:05:47.001Z</time></trkpt><trkpt lat="45.686745" lon="8.6160417"><ele>300.0</ele><time>2026-03-29T12:05:48Z</time></trkpt><trkpt lat="45.6869183" lon="8.6161683"><ele>300.0</ele><time>2026-03-29T12:05:49.001Z</time></trkpt><trkpt lat="45.6870933" lon="8.6162917"><ele>300.0</ele><time>2026-03-29T12:05:50.001Z</time></trkpt><trkpt lat="45.68726" lon="8.616405"><ele>300.0</ele><time>2026-03-29T12:05:51Z</time></trkpt><trkpt lat="45.6874183" lon="8.6165867"><ele>300.0</ele><time>2026-03-29T12:05:52.001Z</time></trkpt><trkpt lat="45.6876117" lon="8.6167833"><ele>300.0</ele><time>2026-03-29T12:05:53Z</time></trkpt><trkpt lat="45.6878067" lon="8.6169183"><ele>298.0</ele><time>2026-03-29T12:05:54Z</time></trkpt><trkpt lat="45.6880317" lon="8.61701"><ele>296.0</ele><time>2026-03-29T12:05:55Z</time></trkpt><trkpt lat="45.6882817" lon="8.61707"><ele>296.0</ele><time>2026-03-29T12:05:56.001Z</time></trkpt><trkpt lat="45.688525" lon="8.6171117"><ele>296.0</ele><time>2026-03-29T12:05:57Z</time></trkpt><trkpt lat="45.6887583" lon="8.61713"><ele>294.0</ele><time>2026-03-29T12:05:58.001Z</time></trkpt><trkpt lat="45.68898" lon="8.6171367"><ele>292.0</ele><time>2026-03-29T12:05:59.001Z</time></trkpt><trkpt lat="45.6892083" lon="8.617165"><ele>285.3333333333333</ele><time>2026-03-29T12:06:00Z</time></trkpt><trkpt lat="45.6894333" lon="8.6171883"><ele>278.6666666666667</ele><time>2026-03-29T12:06:01.001Z</time></trkpt><trkpt lat="45.6896533" lon="8.6172183"><ele>272.0</ele><time>2026-03-29T12:06:02.001Z</time></trkpt><trkpt lat="45.6898317" lon="8.6169433"><ele>270.0</ele><time>2026-03-29T12:06:03Z</time></trkpt><trkpt lat="45.6900283" lon="8.61657"><ele>268.0</ele><time>2026-03-29T12:06:04.001Z</time></trkpt><trkpt lat="45.690225" lon="8.6162967"><ele>261.5</ele><time>2026-03-29T12:06:05Z</time></trkpt><trkpt lat="45.6903983" lon="8.6160433"><ele>255.0</ele><time>2026-03-29T12:06:06.001Z</time></trkpt><trkpt lat="45.6905617" lon="8.615775"><ele>255.0</ele><time>2026-03-29T12:06:07.001Z</time></trkpt><trkpt lat="45.690705" lon="8.6155083"><ele>255.0</ele><time>2026-03-29T12:06:08Z</time></trkpt><trkpt lat="45.690835" lon="8.6152217"><ele>254.5</ele><time>2026-03-29T12:06:09.001Z</time></trkpt><trkpt lat="45.690965" lon="8.6149417"><ele>254.0</ele><time>2026-03-29T12:06:10.001Z</time></trkpt><trkpt lat="45.6910867" lon="8.6146583"><ele>252.0</ele><time>2026-03-29T12:06:11.001Z</time></trkpt><trkpt lat="45.6912083" lon="8.6143733"><ele>250.0</ele><time>2026-03-29T12:06:12.001Z</time></trkpt><trkpt lat="45.6913317" lon="8.6141067"><ele>250.0</ele><time>2026-03-29T12:06:13Z</time></trkpt><trkpt lat="45.691455" lon="8.6138517"><ele>250.0</ele><time>2026-03-29T12:06:14.001Z</time></trkpt><trkpt lat="45.69157" lon="8.6135783"><ele>250.0</ele><time>2026-03-29T12:06:15.001Z</time></trkpt><trkpt lat="45.69168" lon="8.6132983"><ele>250.0</ele><time>2026-03-29T12:06:16.001Z</time></trkpt><trkpt lat="45.691785" lon="8.6130333"><ele>250.0</ele><time>2026-03-29T12:06:17.001Z</time></trkpt><trkpt lat="45.69188" lon="8.612785"><ele>250.0</ele><time>2026-03-29T12:06:18Z</time></trkpt><trkpt lat="45.69197" lon="8.6125617"><ele>250.0</ele><time>2026-03-29T12:06:19.001Z</time></trkpt><trkpt lat="45.6920583" lon="8.6123467"><ele>250.0</ele><time>2026-03-29T12:06:20Z</time></trkpt><trkpt lat="45.69215" lon="8.61214"><ele>250.0</ele><time>2026-03-29T12:06:21Z</time></trkpt><trkpt lat="45.69224" lon="8.6119483"><ele>249.5</ele><time>2026-03-29T12:06:22.001Z</time></trkpt><trkpt lat="45.692325" lon="8.61178"><ele>249.0</ele><time>2026-03-29T12:06:23Z</time></trkpt><trkpt lat="45.6924" lon="8.6116233"><ele>248.5</ele><time>2026-03-29T12:06:24.001Z</time></trkpt><trkpt lat="45.692465" lon="8.6115"><ele>248.0</ele><time>2026-03-29T12:06:25.001Z</time></trkpt><trkpt lat="45.6925233" lon="8.611385"><ele>248.0</ele><time>2026-03-29T12:06:26.001Z</time></trkpt><trkpt lat="45.6925867" lon="8.6112717"><ele>248.0</ele><time>2026-03-29T12:06:27.001Z</time></trkpt><trkpt lat="45.6926433" lon="8.6111683"><ele>248.0</ele><time>2026-03-29T12:06:28.001Z</time></trkpt><trkpt lat="45.6926933" lon="8.6110983"><ele>248.0</ele><time>2026-03-29T12:06:29Z</time></trkpt><trkpt lat="45.6927717" lon="8.611005"><ele>248.0</ele><time>2026-03-29T12:06:31.001Z</time></trkpt><trkpt lat="45.6928667" lon="8.61094"><ele>248.50000000000003</ele><time>2026-03-29T12:06:33Z</time></trkpt><trkpt lat="45.6929333" lon="8.6109083"><ele>249.0</ele><time>2026-03-29T12:06:34.001Z</time></trkpt><trkpt lat="45.6930133" lon="8.6108933"><ele>249.5</ele><time>2026-03-29T12:06:35Z</time></trkpt><trkpt lat="45.6930917" lon="8.61087"><ele>250.0</ele><time>2026-03-29T12:06:36Z</time></trkpt><trkpt lat="45.6931783" lon="8.6108183"><ele>250.50000000000003</ele><time>2026-03-29T12:06:37Z</time></trkpt><trkpt lat="45.693255" lon="8.61073"><ele>251.0</ele><time>2026-03-29T12:06:38.001Z</time></trkpt><trkpt lat="45.6933133" lon="8.6106183"><ele>251.0</ele><time>2026-03-29T12:06:39.001Z</time></trkpt><trkpt lat="45.6933583" lon="8.6104783"><ele>251.0</ele><time>2026-03-29T12:06:40.001Z</time></trkpt><trkpt lat="45.693425" lon="8.61035"><ele>251.0</ele><time>2026-03-29T12:06:41.001Z</time></trkpt><trkpt lat="45.6935233" lon="8.61022"><ele>251.0</ele><time>2026-03-29T12:06:42.001Z</time></trkpt><trkpt lat="45.6936567" lon="8.610095"><ele>251.0</ele><time>2026-03-29T12:06:43Z</time></trkpt><trkpt lat="45.69381" lon="8.6099583"><ele>251.0</ele><time>2026-03-29T12:06:44.001Z</time></trkpt><trkpt lat="45.6939867" lon="8.6098167"><ele>251.0</ele><time>2026-03-29T12:06:45.001Z</time></trkpt><trkpt lat="45.6941833" lon="8.6096733"><ele>251.0</ele><time>2026-03-29T12:06:46Z</time></trkpt><trkpt lat="45.6944117" lon="8.60951"><ele>251.0</ele><time>2026-03-29T12:06:47.001Z</time></trkpt><trkpt lat="45.6946517" lon="8.60934"><ele>251.0</ele><time>2026-03-29T12:06:48.001Z</time></trkpt><trkpt lat="45.6949017" lon="8.6091817"><ele>251.0</ele><time>2026-03-29T12:06:49.001Z</time></trkpt><trkpt lat="45.6951517" lon="8.6090067"><ele>250.5</ele><time>2026-03-29T12:06:50.001Z</time></trkpt><trkpt lat="45.6953817" lon="8.6088533"><ele>250.0</ele><time>2026-03-29T12:06:51.001Z</time></trkpt><trkpt lat="45.6955933" lon="8.6087083"><ele>250.33333333333331</ele><time>2026-03-29T12:06:52Z</time></trkpt><trkpt lat="45.695785" lon="8.6085617"><ele>250.66666666666669</ele><time>2026-03-29T12:06:53.001Z</time></trkpt><trkpt lat="45.695945" lon="8.608425"><ele>251.0</ele><time>2026-03-29T12:06:54.001Z</time></trkpt><trkpt lat="45.6960967" lon="8.6083017"><ele>251.0</ele><time>2026-03-29T12:06:55Z</time></trkpt><trkpt lat="45.696235" lon="8.6081983"><ele>251.0</ele><time>2026-03-29T12:06:56.001Z</time></trkpt><trkpt lat="45.6963733" lon="8.60814"><ele>251.0</ele><time>2026-03-29T12:06:57Z</time></trkpt><trkpt lat="45.696515" lon="8.6081133"><ele>251.0</ele><time>2026-03-29T12:06:58.001Z</time></trkpt><trkpt lat="45.696635" lon="8.60811"><ele>251.0</ele><time>2026-03-29T12:06:59Z</time></trkpt><trkpt lat="45.6967483" lon="8.6080933"><ele>251.0</ele><time>2026-03-29T12:07:00Z</time></trkpt><trkpt lat="45.69684" lon="8.608005"><ele>251.0</ele><time>2026-03-29T12:07:01.001Z</time></trkpt><trkpt lat="45.6969083" lon="8.6078533"><ele>251.0</ele><time>2026-03-29T12:07:02Z</time></trkpt><trkpt lat="45.6969683" lon="8.60769"><ele>251.0</ele><time>2026-03-29T12:07:03Z</time></trkpt><trkpt lat="45.6970667" lon="8.6075333"><ele>251.0</ele><time>2026-03-29T12:07:04.001Z</time></trkpt><trkpt lat="45.6971933" lon="8.6073717"><ele>251.0</ele><time>2026-03-29T12:07:05Z</time></trkpt><trkpt lat="45.6973467" lon="8.6072167"><ele>251.0</ele><time>2026-03-29T12:07:06.001Z</time></trkpt><trkpt lat="45.6975167" lon="8.6070333"><ele>251.0</ele><time>2026-03-29T12:07:07.001Z</time></trkpt><trkpt lat="45.697695" lon="8.60682"><ele>251.0</ele><time>2026-03-29T12:07:08Z</time></trkpt><trkpt lat="45.6978833" lon="8.6066"><ele>251.5</ele><time>2026-03-29T12:07:09.001Z</time></trkpt><trkpt lat="45.698085" lon="8.6063583"><ele>252.0</ele><time>2026-03-29T12:07:10.001Z</time></trkpt><trkpt lat="45.698275" lon="8.6060733"><ele>252.0</ele><time>2026-03-29T12:07:11.001Z</time></trkpt><trkpt lat="45.6984767" lon="8.605765"><ele>252.0</ele><time>2026-03-29T12:07:12.001Z</time></trkpt><trkpt lat="45.698665" lon="8.605425"><ele>250.5</ele><time>2026-03-29T12:07:13.001Z</time></trkpt><trkpt lat="45.6988433" lon="8.6050883"><ele>249.0</ele><time>2026-03-29T12:07:14.001Z</time></trkpt><trkpt lat="45.6990167" lon="8.60474"><ele>249.5</ele><time>2026-03-29T12:07:15.001Z</time></trkpt><trkpt lat="45.6991767" lon="8.6043733"><ele>250.0</ele><time>2026-03-29T12:07:16.001Z</time></trkpt><trkpt lat="45.6993383" lon="8.6039967"><ele>247.0</ele><time>2026-03-29T12:07:17.001Z</time></trkpt><trkpt lat="45.6995033" lon="8.6036167"><ele>244.0</ele><time>2026-03-29T12:07:18.001Z</time></trkpt><trkpt lat="45.699665" lon="8.60323"><ele>244.0</ele><time>2026-03-29T12:07:19Z</time></trkpt><trkpt lat="45.699815" lon="8.6028433"><ele>244.0</ele><time>2026-03-29T12:07:20Z</time></trkpt><trkpt lat="45.69995" lon="8.6024367"><ele>243.0</ele><time>2026-03-29T12:07:21Z</time></trkpt><trkpt lat="45.7000867" lon="8.6020283"><ele>242.0</ele><time>2026-03-29T12:07:22.001Z</time></trkpt><trkpt lat="45.700215" lon="8.6016133"><ele>241.5</ele><time>2026-03-29T12:07:23.001Z</time></trkpt><trkpt lat="45.7003217" lon="8.6011933"><ele>241.0</ele><time>2026-03-29T12:07:24Z</time></trkpt><trkpt lat="45.7004367" lon="8.6007683"><ele>241.0</ele><time>2026-03-29T12:07:25.001Z</time></trkpt><trkpt lat="45.70052" lon="8.600345"><ele>241.0</ele><time>2026-03-29T12:07:26.001Z</time></trkpt><trkpt lat="45.700605" lon="8.5999233"><ele>240.5</ele><time>2026-03-29T12:07:27.001Z</time></trkpt><trkpt lat="45.7006883" lon="8.5995167"><ele>240.0</ele><time>2026-03-29T12:07:28.001Z</time></trkpt><trkpt lat="45.7007817" lon="8.599105"><ele>242.0</ele><time>2026-03-29T12:07:29.001Z</time></trkpt><trkpt lat="45.7008967" lon="8.5987067"><ele>244.0</ele><time>2026-03-29T12:07:30.001Z</time></trkpt><trkpt lat="45.70103" lon="8.5983267"><ele>243.5</ele><time>2026-03-29T12:07:31.001Z</time></trkpt><trkpt lat="45.7011617" lon="8.5979683"><ele>243.0</ele><time>2026-03-29T12:07:32.001Z</time></trkpt><trkpt lat="45.701305" lon="8.5976067"><ele>243.0</ele><time>2026-03-29T12:07:33.001Z</time></trkpt><trkpt lat="45.70144" lon="8.5972383"><ele>243.0</ele><time>2026-03-29T12:07:34Z</time></trkpt><trkpt lat="45.7015833" lon="8.5968583"><ele>245.0</ele><time>2026-03-29T12:07:35.001Z</time></trkpt><trkpt lat="45.7017333" lon="8.5964983"><ele>247.0</ele><time>2026-03-29T12:07:36.001Z</time></trkpt><trkpt lat="45.70187" lon="8.5961517"><ele>243.0</ele><time>2026-03-29T12:07:37.001Z</time></trkpt><trkpt lat="45.7020067" lon="8.5958233"><ele>239.0</ele><time>2026-03-29T12:07:38.001Z</time></trkpt><trkpt lat="45.7021333" lon="8.5954917"><ele>241.5</ele><time>2026-03-29T12:07:39.001Z</time></trkpt><trkpt lat="45.702245" lon="8.5951417"><ele>244.0</ele><time>2026-03-29T12:07:40.001Z</time></trkpt><trkpt lat="45.7023133" lon="8.594765"><ele>244.5</ele><time>2026-03-29T12:07:41.001Z</time></trkpt><trkpt lat="45.70236" lon="8.5943917"><ele>245.0</ele><time>2026-03-29T12:07:42.001Z</time></trkpt><trkpt lat="45.7024017" lon="8.5940133"><ele>245.0</ele><time>2026-03-29T12:07:43Z</time></trkpt><trkpt lat="45.702415" lon="8.5936433"><ele>245.0</ele><time>2026-03-29T12:07:44Z</time></trkpt><trkpt lat="45.7024183" lon="8.5932867"><ele>245.0</ele><time>2026-03-29T12:07:45Z</time></trkpt><trkpt lat="45.702405" lon="8.5929683"><ele>245.0</ele><time>2026-03-29T12:07:46Z</time></trkpt><trkpt lat="45.7023733" lon="8.59267"><ele>245.0</ele><time>2026-03-29T12:07:47Z</time></trkpt><trkpt lat="45.7023183" lon="8.5924083"><ele>244.5</ele><time>2026-03-29T12:07:48.001Z</time></trkpt><trkpt lat="45.702275" lon="8.5921833"><ele>244.0</ele><time>2026-03-29T12:07:49.001Z</time></trkpt><trkpt lat="45.7022367" lon="8.5920017"><ele>243.5</ele><time>2026-03-29T12:07:50Z</time></trkpt><trkpt lat="45.7022117" lon="8.591835"><ele>243.0</ele><time>2026-03-29T12:07:51Z</time></trkpt><trkpt lat="45.70222" lon="8.5916733"><ele>243.0</ele><time>2026-03-29T12:07:52.001Z</time></trkpt><trkpt lat="45.702235" lon="8.5915217"><ele>243.0</ele><time>2026-03-29T12:07:53.001Z</time></trkpt><trkpt lat="45.7022117" lon="8.5913583"><ele>243.0</ele><time>2026-03-29T12:07:54.001Z</time></trkpt><trkpt lat="45.702165" lon="8.5912283"><ele>243.0</ele><time>2026-03-29T12:07:55Z</time></trkpt><trkpt lat="45.7021133" lon="8.5911317"><ele>243.0</ele><time>2026-03-29T12:07:56.001Z</time></trkpt><trkpt lat="45.7020633" lon="8.59102"><ele>243.2</ele><time>2026-03-29T12:07:57.001Z</time></trkpt><trkpt lat="45.7020383" lon="8.590885"><ele>243.4</ele><time>2026-03-29T12:07:58Z</time></trkpt><trkpt lat="45.70205" lon="8.5907367"><ele>243.59999999999997</ele><time>2026-03-29T12:07:59Z</time></trkpt><trkpt lat="45.7021" lon="8.5905933"><ele>243.79999999999998</ele><time>2026-03-29T12:08:00.001Z</time></trkpt><trkpt lat="45.7021567" lon="8.590455"><ele>244.0</ele><time>2026-03-29T12:08:01.001Z</time></trkpt><trkpt lat="45.7022317" lon="8.59031"><ele>245.33333333333331</ele><time>2026-03-29T12:08:02Z</time></trkpt><trkpt lat="45.70232" lon="8.5901667"><ele>246.66666666666669</ele><time>2026-03-29T12:08:03.001Z</time></trkpt><trkpt lat="45.702425" lon="8.58999"><ele>248.0</ele><time>2026-03-29T12:08:04.001Z</time></trkpt><trkpt lat="45.702555" lon="8.589805"><ele>248.0</ele><time>2026-03-29T12:08:05.001Z</time></trkpt><trkpt lat="45.7027217" lon="8.5895733"><ele>248.0</ele><time>2026-03-29T12:08:06.001Z</time></trkpt><trkpt lat="45.7029183" lon="8.5893183"><ele>244.5</ele><time>2026-03-29T12:08:07.001Z</time></trkpt><trkpt lat="45.7031283" lon="8.589065"><ele>241.0</ele><time>2026-03-29T12:08:08.001Z</time></trkpt><trkpt lat="45.7033633" lon="8.58882"><ele>237.5</ele><time>2026-03-29T12:08:09Z</time></trkpt><trkpt lat="45.70359" lon="8.5885683"><ele>234.0</ele><time>2026-03-29T12:08:10.001Z</time></trkpt><trkpt lat="45.7038183" lon="8.5882983"><ele>234.0</ele><time>2026-03-29T12:08:11Z</time></trkpt><trkpt lat="45.7040317" lon="8.588065"><ele>234.0</ele><time>2026-03-29T12:08:12Z</time></trkpt><trkpt lat="45.704225" lon="8.587835"><ele>233.33333333333331</ele><time>2026-03-29T12:08:13.001Z</time></trkpt><trkpt lat="45.7044" lon="8.5876333"><ele>232.66666666666666</ele><time>2026-03-29T12:08:14.001Z</time></trkpt><trkpt lat="45.7045667" lon="8.5874633"><ele>232.0</ele><time>2026-03-29T12:08:15Z</time></trkpt><trkpt lat="45.704735" lon="8.5873267"><ele>231.66666666666666</ele><time>2026-03-29T12:08:16.001Z</time></trkpt><trkpt lat="45.70492" lon="8.5872283"><ele>231.33333333333331</ele><time>2026-03-29T12:08:17.001Z</time></trkpt><trkpt lat="45.7051117" lon="8.5871567"><ele>231.0</ele><time>2026-03-29T12:08:18Z</time></trkpt><trkpt lat="45.705305" lon="8.5871817"><ele>231.0</ele><time>2026-03-29T12:08:19.001Z</time></trkpt><trkpt lat="45.7055133" lon="8.587215"><ele>231.0</ele><time>2026-03-29T12:08:20.001Z</time></trkpt><trkpt lat="45.7057117" lon="8.5872617"><ele>231.0</ele><time>2026-03-29T12:08:21.001Z</time></trkpt><trkpt lat="45.7059133" lon="8.5872917"><ele>231.0</ele><time>2026-03-29T12:08:22.001Z</time></trkpt><trkpt lat="45.706075" lon="8.58732"><ele>231.0</ele><time>2026-03-29T12:08:23.001Z</time></trkpt><trkpt lat="45.7062333" lon="8.5873633"><ele>231.0</ele><time>2026-03-29T12:08:24.001Z</time></trkpt><trkpt lat="45.7063717" lon="8.5873967"><ele>230.20000000000002</ele><time>2026-03-29T12:08:25.001Z</time></trkpt><trkpt lat="45.7064967" lon="8.58743"><ele>229.40000000000003</ele><time>2026-03-29T12:08:26.001Z</time></trkpt><trkpt lat="45.70659" lon="8.58745"><ele>228.6</ele><time>2026-03-29T12:08:27.001Z</time></trkpt><trkpt lat="45.7066633" lon="8.5874583"><ele>227.8</ele><time>2026-03-29T12:08:28Z</time></trkpt><trkpt lat="45.70678" lon="8.5874917"><ele>227.0</ele><time>2026-03-29T12:08:30.001Z</time></trkpt><trkpt lat="45.7069083" lon="8.587445"><ele>227.0</ele><time>2026-03-29T12:08:32.001Z</time></trkpt><trkpt lat="45.70696" lon="8.5873517"><ele>227.0</ele><time>2026-03-29T12:08:33Z</time></trkpt><trkpt lat="45.7069767" lon="8.587235"><ele>227.0</ele><time>2026-03-29T12:08:34Z</time></trkpt><trkpt lat="45.7069583" lon="8.58712"><ele>227.0</ele><time>2026-03-29T12:08:35.001Z</time></trkpt><trkpt lat="45.7069033" lon="8.5870283"><ele>227.0</ele><time>2026-03-29T12:08:36Z</time></trkpt><trkpt lat="45.7067833" lon="8.586945"><ele>232.66666666666669</ele><time>2026-03-29T12:08:37.001Z</time></trkpt><trkpt lat="45.706625" lon="8.5868583"><ele>238.33333333333331</ele><time>2026-03-29T12:08:38.001Z</time></trkpt><trkpt lat="45.7064183" lon="8.5867783"><ele>244.0</ele><time>2026-03-29T12:08:39.001Z</time></trkpt><trkpt lat="45.7062083" lon="8.5867"><ele>241.5</ele><time>2026-03-29T12:08:40.001Z</time></trkpt><trkpt lat="45.705965" lon="8.586645"><ele>239.0</ele><time>2026-03-29T12:08:41Z</time></trkpt><trkpt lat="45.7056967" lon="8.5866217"><ele>239.0</ele><time>2026-03-29T12:08:42.001Z</time></trkpt><trkpt lat="45.7054433" lon="8.5866083"><ele>239.0</ele><time>2026-03-29T12:08:43.001Z</time></trkpt><trkpt lat="45.7051983" lon="8.5866283"><ele>237.33333333333334</ele><time>2026-03-29T12:08:44.001Z</time></trkpt><trkpt lat="45.7049717" lon="8.5866233"><ele>235.66666666666669</ele><time>2026-03-29T12:08:45.001Z</time></trkpt><trkpt lat="45.70477" lon="8.5866033"><ele>234.0</ele><time>2026-03-29T12:08:46.001Z</time></trkpt><trkpt lat="45.7045733" lon="8.5865183"><ele>235.0</ele><time>2026-03-29T12:08:47.001Z</time></trkpt><trkpt lat="45.7043867" lon="8.586385"><ele>236.0</ele><time>2026-03-29T12:08:48Z</time></trkpt><trkpt lat="45.7042233" lon="8.5862133"><ele>237.0</ele><time>2026-03-29T12:08:49.001Z</time></trkpt><trkpt lat="45.704085" lon="8.5860117"><ele>240.33333333333331</ele><time>2026-03-29T12:08:50.001Z</time></trkpt><trkpt lat="45.7039617" lon="8.5858017"><ele>243.66666666666666</ele><time>2026-03-29T12:08:51Z</time></trkpt><trkpt lat="45.7038417" lon="8.5855833"><ele>247.0</ele><time>2026-03-29T12:08:52Z</time></trkpt><trkpt lat="45.703755" lon="8.5852733"><ele>247.66666666666666</ele><time>2026-03-29T12:08:53Z</time></trkpt><trkpt lat="45.7036833" lon="8.58498"><ele>248.33333333333331</ele><time>2026-03-29T12:08:54Z</time></trkpt><trkpt lat="45.7036067" lon="8.5846983"><ele>249.0</ele><time>2026-03-29T12:08:55Z</time></trkpt><trkpt lat="45.7035367" lon="8.5844317"><ele>249.0</ele><time>2026-03-29T12:08:55.999Z</time></trkpt><trkpt lat="45.7034967" lon="8.5841267"><ele>249.0</ele><time>2026-03-29T12:08:57Z</time></trkpt><trkpt lat="45.7035017" lon="8.5838033"><ele>249.0</ele><time>2026-03-29T12:08:58Z</time></trkpt><trkpt lat="45.7035167" lon="8.5834783"><ele>249.0</ele><time>2026-03-29T12:08:59Z</time></trkpt><trkpt lat="45.7035267" lon="8.5831667"><ele>249.0</ele><time>2026-03-29T12:09:00Z</time></trkpt><trkpt lat="45.70355" lon="8.5828883"><ele>249.0</ele><time>2026-03-29T12:09:01Z</time></trkpt><trkpt lat="45.7035767" lon="8.58263"><ele>250.33333333333331</ele><time>2026-03-29T12:09:02Z</time></trkpt><trkpt lat="45.7036167" lon="8.5823733"><ele>251.66666666666666</ele><time>2026-03-29T12:09:03Z</time></trkpt><trkpt lat="45.703695" lon="8.5821167"><ele>253.0</ele><time>2026-03-29T12:09:04Z</time></trkpt><trkpt lat="45.703795" lon="8.581905"><ele>253.0</ele><time>2026-03-29T12:09:05Z</time></trkpt><trkpt lat="45.703935" lon="8.58174"><ele>253.0</ele><time>2026-03-29T12:09:06Z</time></trkpt><trkpt lat="45.70412" lon="8.581565"><ele>253.0</ele><time>2026-03-29T12:09:06.999Z</time></trkpt><trkpt lat="45.704325" lon="8.5813933"><ele>251.5</ele><time>2026-03-29T12:09:08Z</time></trkpt><trkpt lat="45.704555" lon="8.581215"><ele>250.0</ele><time>2026-03-29T12:09:08.999Z</time></trkpt><trkpt lat="45.7047933" lon="8.5810233"><ele>250.0</ele><time>2026-03-29T12:09:10Z</time></trkpt><trkpt lat="45.70501" lon="8.58085"><ele>250.0</ele><time>2026-03-29T12:09:11Z</time></trkpt><trkpt lat="45.70522" lon="8.580675"><ele>250.0</ele><time>2026-03-29T12:09:11.999Z</time></trkpt><trkpt lat="45.7054167" lon="8.58047"><ele>250.0</ele><time>2026-03-29T12:09:13Z</time></trkpt><trkpt lat="45.7056" lon="8.58025"><ele>250.0</ele><time>2026-03-29T12:09:13.999Z</time></trkpt><trkpt lat="45.7057683" lon="8.580005"><ele>250.0</ele><time>2026-03-29T12:09:15Z</time></trkpt><trkpt lat="45.7059133" lon="8.579725"><ele>250.0</ele><time>2026-03-29T12:09:16Z</time></trkpt><trkpt lat="45.7060317" lon="8.5794117"><ele>250.0</ele><time>2026-03-29T12:09:17Z</time></trkpt><trkpt lat="45.7061183" lon="8.5791017"><ele>250.0</ele><time>2026-03-29T12:09:17.999Z</time></trkpt><trkpt lat="45.7061767" lon="8.5787683"><ele>250.0</ele><time>2026-03-29T12:09:19Z</time></trkpt><trkpt lat="45.70621" lon="8.5784217"><ele>250.0</ele><time>2026-03-29T12:09:20Z</time></trkpt><trkpt lat="45.70624" lon="8.578075"><ele>250.0</ele><time>2026-03-29T12:09:21Z</time></trkpt><trkpt lat="45.7062667" lon="8.5777133"><ele>251.5</ele><time>2026-03-29T12:09:21.999Z</time></trkpt><trkpt lat="45.7063017" lon="8.57733"><ele>253.0</ele><time>2026-03-29T12:09:23Z</time></trkpt><trkpt lat="45.706345" lon="8.576935"><ele>253.5</ele><time>2026-03-29T12:09:23.999Z</time></trkpt><trkpt lat="45.7063683" lon="8.5765133"><ele>254.0</ele><time>2026-03-29T12:09:24.999Z</time></trkpt><trkpt lat="45.7063967" lon="8.5760883"><ele>254.0</ele><time>2026-03-29T12:09:26Z</time></trkpt><trkpt lat="45.7064167" lon="8.57568"><ele>254.0</ele><time>2026-03-29T12:09:26.999Z</time></trkpt><trkpt lat="45.7064317" lon="8.5752783"><ele>253.0</ele><time>2026-03-29T12:09:27.999Z</time></trkpt><trkpt lat="45.70644" lon="8.5749"><ele>252.0</ele><time>2026-03-29T12:09:28.999Z</time></trkpt><trkpt lat="45.7064583" lon="8.5745467"><ele>252.5</ele><time>2026-03-29T12:09:30Z</time></trkpt><trkpt lat="45.7064783" lon="8.5742083"><ele>253.0</ele><time>2026-03-29T12:09:31Z</time></trkpt><trkpt lat="45.70649" lon="8.5738633"><ele>254.0</ele><time>2026-03-29T12:09:32Z</time></trkpt><trkpt lat="45.7065183" lon="8.5735167"><ele>255.0</ele><time>2026-03-29T12:09:33Z</time></trkpt><trkpt lat="45.7065667" lon="8.5731767"><ele>259.5</ele><time>2026-03-29T12:09:34Z</time></trkpt><trkpt lat="45.7066383" lon="8.5728367"><ele>264.0</ele><time>2026-03-29T12:09:34.999Z</time></trkpt><trkpt lat="45.70673" lon="8.57249"><ele>264.0</ele><time>2026-03-29T12:09:35.999Z</time></trkpt><trkpt lat="45.7068517" lon="8.5721733"><ele>264.0</ele><time>2026-03-29T12:09:37Z</time></trkpt><trkpt lat="45.7070083" lon="8.5718583"><ele>261.0</ele><time>2026-03-29T12:09:38Z</time></trkpt><trkpt lat="45.7071717" lon="8.5715367"><ele>258.0</ele><time>2026-03-29T12:09:38.999Z</time></trkpt><trkpt lat="45.7073683" lon="8.5712033"><ele>258.5</ele><time>2026-03-29T12:09:40Z</time></trkpt><trkpt lat="45.70755" lon="8.5708633"><ele>259.0</ele><time>2026-03-29T12:09:41Z</time></trkpt><trkpt lat="45.7077417" lon="8.5705533"><ele>257.5</ele><time>2026-03-29T12:09:41.999Z</time></trkpt><trkpt lat="45.707915" lon="8.57024"><ele>256.0</ele><time>2026-03-29T12:09:43Z</time></trkpt><trkpt lat="45.708085" lon="8.56994"><ele>256.0</ele><time>2026-03-29T12:09:44Z</time></trkpt><trkpt lat="45.7082483" lon="8.56963"><ele>256.0</ele><time>2026-03-29T12:09:45Z</time></trkpt><trkpt lat="45.708405" lon="8.5693317"><ele>256.0</ele><time>2026-03-29T12:09:46Z</time></trkpt><trkpt lat="45.7085533" lon="8.5690317"><ele>256.0</ele><time>2026-03-29T12:09:46.999Z</time></trkpt><trkpt lat="45.7086933" lon="8.5687267"><ele>256.5</ele><time>2026-03-29T12:09:47.999Z</time></trkpt><trkpt lat="45.7088167" lon="8.5684017"><ele>257.0</ele><time>2026-03-29T12:09:49Z</time></trkpt><trkpt lat="45.7089167" lon="8.5680567"><ele>258.5</ele><time>2026-03-29T12:09:50Z</time></trkpt><trkpt lat="45.7090067" lon="8.5676817"><ele>260.0</ele><time>2026-03-29T12:09:51Z</time></trkpt><trkpt lat="45.70909" lon="8.5673067"><ele>260.0</ele><time>2026-03-29T12:09:52Z</time></trkpt><trkpt lat="45.7091667" lon="8.56693"><ele>260.0</ele><time>2026-03-29T12:09:53Z</time></trkpt><trkpt lat="45.7092283" lon="8.5665633"><ele>260.0</ele><time>2026-03-29T12:09:54Z</time></trkpt><trkpt lat="45.7092917" lon="8.5662317"><ele>260.0</ele><time>2026-03-29T12:09:55Z</time></trkpt><trkpt lat="45.7093567" lon="8.5659267"><ele>261.33333333333337</ele><time>2026-03-29T12:09:56Z</time></trkpt><trkpt lat="45.7094317" lon="8.5656317"><ele>262.6666666666667</ele><time>2026-03-29T12:09:57Z</time></trkpt><trkpt lat="45.7094917" lon="8.565335"><ele>264.0</ele><time>2026-03-29T12:09:57.999Z</time></trkpt><trkpt lat="45.7095483" lon="8.5650367"><ele>264.3333333333333</ele><time>2026-03-29T12:09:59Z</time></trkpt><trkpt lat="45.709605" lon="8.5647483"><ele>264.66666666666663</ele><time>2026-03-29T12:10:00Z</time></trkpt><trkpt lat="45.709665" lon="8.5644633"><ele>265.0</ele><time>2026-03-29T12:10:01Z</time></trkpt><trkpt lat="45.7097183" lon="8.56418"><ele>265.66666666666663</ele><time>2026-03-29T12:10:02Z</time></trkpt><trkpt lat="45.709775" lon="8.5639067"><ele>266.3333333333333</ele><time>2026-03-29T12:10:02.999Z</time></trkpt><trkpt lat="45.70983" lon="8.5636483"><ele>267.0</ele><time>2026-03-29T12:10:04Z</time></trkpt><trkpt lat="45.7098783" lon="8.5634083"><ele>268.3333333333333</ele><time>2026-03-29T12:10:05Z</time></trkpt><trkpt lat="45.70992" lon="8.563185"><ele>269.66666666666663</ele><time>2026-03-29T12:10:06Z</time></trkpt><trkpt lat="45.7099683" lon="8.5629667"><ele>271.0</ele><time>2026-03-29T12:10:07Z</time></trkpt><trkpt lat="45.7100083" lon="8.5627667"><ele>274.0</ele><time>2026-03-29T12:10:08Z</time></trkpt><trkpt lat="45.7100467" lon="8.5625667"><ele>277.0</ele><time>2026-03-29T12:10:09Z</time></trkpt><trkpt lat="45.710095" lon="8.56237"><ele>280.0</ele><time>2026-03-29T12:10:09.999Z</time></trkpt><trkpt lat="45.7101417" lon="8.5621767"><ele>283.0</ele><time>2026-03-29T12:10:11Z</time></trkpt><trkpt lat="45.7101933" lon="8.561985"><ele>281.66666666666663</ele><time>2026-03-29T12:10:12Z</time></trkpt><trkpt lat="45.7102683" lon="8.561805"><ele>280.3333333333333</ele><time>2026-03-29T12:10:12.999Z</time></trkpt><trkpt lat="45.7103717" lon="8.561635"><ele>279.0</ele><time>2026-03-29T12:10:14Z</time></trkpt><trkpt lat="45.71051" lon="8.56145"><ele>279.0</ele><time>2026-03-29T12:10:15Z</time></trkpt><trkpt lat="45.7106667" lon="8.5612617"><ele>279.0</ele><time>2026-03-29T12:10:16Z</time></trkpt><trkpt lat="45.710835" lon="8.5610717"><ele>279.0</ele><time>2026-03-29T12:10:17Z</time></trkpt><trkpt lat="45.711015" lon="8.5608717"><ele>281.0</ele><time>2026-03-29T12:10:18Z</time></trkpt><trkpt lat="45.71118" lon="8.5606617"><ele>283.0</ele><time>2026-03-29T12:10:19Z</time></trkpt><trkpt lat="45.7113367" lon="8.5604717"><ele>285.0</ele><time>2026-03-29T12:10:20Z</time></trkpt><trkpt lat="45.71145" lon="8.5602483"><ele>286.6666666666667</ele><time>2026-03-29T12:10:21Z</time></trkpt><trkpt lat="45.7115283" lon="8.5600033"><ele>288.33333333333337</ele><time>2026-03-29T12:10:22Z</time></trkpt><trkpt lat="45.7115683" lon="8.5597617"><ele>290.0</ele><time>2026-03-29T12:10:23Z</time></trkpt><trkpt lat="45.7115917" lon="8.55952"><ele>290.6666666666667</ele><time>2026-03-29T12:10:23.999Z</time></trkpt><trkpt lat="45.7115983" lon="8.5592917"><ele>291.3333333333333</ele><time>2026-03-29T12:10:25Z</time></trkpt><trkpt lat="45.7115883" lon="8.559055"><ele>292.0</ele><time>2026-03-29T12:10:26Z</time></trkpt><trkpt lat="45.71156" lon="8.558825"><ele>292.3333333333333</ele><time>2026-03-29T12:10:27Z</time></trkpt><trkpt lat="45.7115217" lon="8.5585667"><ele>292.6666666666667</ele><time>2026-03-29T12:10:27.999Z</time></trkpt><trkpt lat="45.7114667" lon="8.55829"><ele>293.0</ele><time>2026-03-29T12:10:28.999Z</time></trkpt><trkpt lat="45.711415" lon="8.5579967"><ele>296.0</ele><time>2026-03-29T12:10:30Z</time></trkpt><trkpt lat="45.71137" lon="8.5576867"><ele>299.0</ele><time>2026-03-29T12:10:30.999Z</time></trkpt><trkpt lat="45.711325" lon="8.557345"><ele>301.0</ele><time>2026-03-29T12:10:32Z</time></trkpt><trkpt lat="45.71128" lon="8.55701"><ele>303.0</ele><time>2026-03-29T12:10:33Z</time></trkpt><trkpt lat="45.7112383" lon="8.5566933"><ele>303.0</ele><time>2026-03-29T12:10:34Z</time></trkpt><trkpt lat="45.7111933" lon="8.55638"><ele>303.0</ele><time>2026-03-29T12:10:35Z</time></trkpt><trkpt lat="45.711145" lon="8.5560567"><ele>304.5</ele><time>2026-03-29T12:10:35.999Z</time></trkpt><trkpt lat="45.711095" lon="8.555715"><ele>306.0</ele><time>2026-03-29T12:10:37Z</time></trkpt><trkpt lat="45.71104" lon="8.5553833"><ele>302.5</ele><time>2026-03-29T12:10:38Z</time></trkpt><trkpt lat="45.71099" lon="8.555055"><ele>299.0</ele><time>2026-03-29T12:10:38.999Z</time></trkpt><trkpt lat="45.7109367" lon="8.5547233"><ele>300.0</ele><time>2026-03-29T12:10:39.999Z</time></trkpt><trkpt lat="45.7108867" lon="8.5544033"><ele>301.0</ele><time>2026-03-29T12:10:41Z</time></trkpt><trkpt lat="45.7108333" lon="8.5541367"><ele>302.0</ele><time>2026-03-29T12:10:42Z</time></trkpt><trkpt lat="45.7107883" lon="8.553865"><ele>302.0</ele><time>2026-03-29T12:10:43Z</time></trkpt><trkpt lat="45.7107483" lon="8.553595"><ele>302.0</ele><time>2026-03-29T12:10:43.999Z</time></trkpt><trkpt lat="45.7107033" lon="8.5533117"><ele>302.0</ele><time>2026-03-29T12:10:45Z</time></trkpt><trkpt lat="45.7106567" lon="8.553045"><ele>302.33333333333337</ele><time>2026-03-29T12:10:46Z</time></trkpt><trkpt lat="45.71063" lon="8.5527883"><ele>302.6666666666667</ele><time>2026-03-29T12:10:47Z</time></trkpt><trkpt lat="45.710595" lon="8.5525333"><ele>303.0</ele><time>2026-03-29T12:10:47.999Z</time></trkpt><trkpt lat="45.71055" lon="8.55229"><ele>303.0</ele><time>2026-03-29T12:10:49Z</time></trkpt><trkpt lat="45.710515" lon="8.55204"><ele>303.0</ele><time>2026-03-29T12:10:49.999Z</time></trkpt><trkpt lat="45.7104867" lon="8.5517867"><ele>303.0</ele><time>2026-03-29T12:10:51Z</time></trkpt><trkpt lat="45.7104667" lon="8.55153"><ele>304.3333333333333</ele><time>2026-03-29T12:10:52Z</time></trkpt><trkpt lat="45.7104483" lon="8.5512667"><ele>305.66666666666663</ele><time>2026-03-29T12:10:52.999Z</time></trkpt><trkpt lat="45.7104333" lon="8.5509883"><ele>307.0</ele><time>2026-03-29T12:10:54Z</time></trkpt><trkpt lat="45.7104133" lon="8.5507"><ele>306.66666666666663</ele><time>2026-03-29T12:10:55Z</time></trkpt><trkpt lat="45.7103833" lon="8.5503967"><ele>306.3333333333333</ele><time>2026-03-29T12:10:56Z</time></trkpt><trkpt lat="45.7103667" lon="8.5500783"><ele>306.0</ele><time>2026-03-29T12:10:57Z</time></trkpt><trkpt lat="45.710355" lon="8.5497617"><ele>306.6666666666667</ele><time>2026-03-29T12:10:57.999Z</time></trkpt><trkpt lat="45.7103333" lon="8.5494483"><ele>307.33333333333337</ele><time>2026-03-29T12:10:58.999Z</time></trkpt><trkpt lat="45.7103283" lon="8.5491433"><ele>308.0</ele><time>2026-03-29T12:11:00Z</time></trkpt><trkpt lat="45.7103117" lon="8.5488517"><ele>308.33333333333337</ele><time>2026-03-29T12:11:01Z</time></trkpt><trkpt lat="45.7102783" lon="8.5485567"><ele>308.6666666666667</ele><time>2026-03-29T12:11:02Z</time></trkpt><trkpt lat="45.7102367" lon="8.5482633"><ele>309.0</ele><time>2026-03-29T12:11:03Z</time></trkpt><trkpt lat="45.7101667" lon="8.5479767"><ele>308.0</ele><time>2026-03-29T12:11:04Z</time></trkpt><trkpt lat="45.7100983" lon="8.5476767"><ele>307.0</ele><time>2026-03-29T12:11:05Z</time></trkpt><trkpt lat="45.7100167" lon="8.5473833"><ele>306.0</ele><time>2026-03-29T12:11:06Z</time></trkpt><trkpt lat="45.7099317" lon="8.54708"><ele>305.5</ele><time>2026-03-29T12:11:06.999Z</time></trkpt><trkpt lat="45.7098483" lon="8.5467717"><ele>305.0</ele><time>2026-03-29T12:11:08Z</time></trkpt><trkpt lat="45.709755" lon="8.54648"><ele>305.6666666666667</ele><time>2026-03-29T12:11:09Z</time></trkpt><trkpt lat="45.709675" lon="8.5461883"><ele>306.3333333333333</ele><time>2026-03-29T12:11:10Z</time></trkpt><trkpt lat="45.7096017" lon="8.5458833"><ele>307.0</ele><time>2026-03-29T12:11:11Z</time></trkpt><trkpt lat="45.709525" lon="8.5455967"><ele>308.66666666666663</ele><time>2026-03-29T12:11:11.999Z</time></trkpt><trkpt lat="45.7094483" lon="8.5453017"><ele>310.3333333333333</ele><time>2026-03-29T12:11:13Z</time></trkpt><trkpt lat="45.7093733" lon="8.5450133"><ele>312.0</ele><time>2026-03-29T12:11:14Z</time></trkpt><trkpt lat="45.7093083" lon="8.5447283"><ele>313.0</ele><time>2026-03-29T12:11:15Z</time></trkpt><trkpt lat="45.7092467" lon="8.5444467"><ele>314.0</ele><time>2026-03-29T12:11:16Z</time></trkpt><trkpt lat="45.7092033" lon="8.5441333"><ele>315.0</ele><time>2026-03-29T12:11:17Z</time></trkpt><trkpt lat="45.70921" lon="8.5438433"><ele>315.3333333333333</ele><time>2026-03-29T12:11:18Z</time></trkpt><trkpt lat="45.7092167" lon="8.54352"><ele>315.66666666666663</ele><time>2026-03-29T12:11:19Z</time></trkpt><trkpt lat="45.7092283" lon="8.5432017"><ele>316.0</ele><time>2026-03-29T12:11:20Z</time></trkpt><trkpt lat="45.7092633" lon="8.5428683"><ele>317.5</ele><time>2026-03-29T12:11:20.999Z</time></trkpt><trkpt lat="45.70931" lon="8.5425433"><ele>319.0</ele><time>2026-03-29T12:11:21.999Z</time></trkpt><trkpt lat="45.709355" lon="8.5422033"><ele>320.0</ele><time>2026-03-29T12:11:23Z</time></trkpt><trkpt lat="45.7093883" lon="8.541815"><ele>321.0</ele><time>2026-03-29T12:11:24Z</time></trkpt><trkpt lat="45.7094267" lon="8.5414567"><ele>323.0</ele><time>2026-03-29T12:11:25Z</time></trkpt><trkpt lat="45.7094683" lon="8.54114"><ele>325.0</ele><time>2026-03-29T12:11:26Z</time></trkpt><trkpt lat="45.7095067" lon="8.5408367"><ele>327.0</ele><time>2026-03-29T12:11:27Z</time></trkpt><trkpt lat="45.7095367" lon="8.5405533"><ele>325.6666666666667</ele><time>2026-03-29T12:11:28Z</time></trkpt><trkpt lat="45.709565" lon="8.5402883"><ele>324.33333333333337</ele><time>2026-03-29T12:11:28.999Z</time></trkpt><trkpt lat="45.70959" lon="8.5400483"><ele>323.0</ele><time>2026-03-29T12:11:30Z</time></trkpt><trkpt lat="45.7096083" lon="8.5398233"><ele>323.0</ele><time>2026-03-29T12:11:31Z</time></trkpt><trkpt lat="45.7096217" lon="8.5396017"><ele>323.0</ele><time>2026-03-29T12:11:32Z</time></trkpt><trkpt lat="45.7096417" lon="8.539395"><ele>323.0</ele><time>2026-03-29T12:11:32.999Z</time></trkpt><trkpt lat="45.7096683" lon="8.5392033"><ele>323.0</ele><time>2026-03-29T12:11:34Z</time></trkpt><trkpt lat="45.7096883" lon="8.5390133"><ele>322.75</ele><time>2026-03-29T12:11:35Z</time></trkpt><trkpt lat="45.7097" lon="8.538815"><ele>322.5</ele><time>2026-03-29T12:11:36Z</time></trkpt><trkpt lat="45.70972" lon="8.5386233"><ele>322.25</ele><time>2026-03-29T12:11:37Z</time></trkpt><trkpt lat="45.7097683" lon="8.5384317"><ele>322.0</ele><time>2026-03-29T12:11:38Z</time></trkpt><trkpt lat="45.7098133" lon="8.5382633"><ele>322.0</ele><time>2026-03-29T12:11:39Z</time></trkpt><trkpt lat="45.7098583" lon="8.5380817"><ele>322.0</ele><time>2026-03-29T12:11:40Z</time></trkpt><trkpt lat="45.7098683" lon="8.5378583"><ele>322.0</ele><time>2026-03-29T12:11:41Z</time></trkpt><trkpt lat="45.7098717" lon="8.5376067"><ele>322.3333333333333</ele><time>2026-03-29T12:11:42Z</time></trkpt><trkpt lat="45.7098817" lon="8.5373383"><ele>322.6666666666667</ele><time>2026-03-29T12:11:43Z</time></trkpt><trkpt lat="45.7098967" lon="8.5370567"><ele>323.0</ele><time>2026-03-29T12:11:44Z</time></trkpt><trkpt lat="45.7099183" lon="8.5367767"><ele>324.0</ele><time>2026-03-29T12:11:45Z</time></trkpt><trkpt lat="45.7099417" lon="8.53649"><ele>325.0</ele><time>2026-03-29T12:11:46Z</time></trkpt><trkpt lat="45.7099667" lon="8.5361917"><ele>326.0</ele><time>2026-03-29T12:11:46.999Z</time></trkpt><trkpt lat="45.7100017" lon="8.53588"><ele>326.0</ele><time>2026-03-29T12:11:48Z</time></trkpt><trkpt lat="45.7100317" lon="8.5355783"><ele>326.0</ele><time>2026-03-29T12:11:48.999Z</time></trkpt><trkpt lat="45.7100617" lon="8.53527"><ele>326.0</ele><time>2026-03-29T12:11:49.999Z</time></trkpt><trkpt lat="45.7100867" lon="8.5349733"><ele>326.33333333333337</ele><time>2026-03-29T12:11:51Z</time></trkpt><trkpt lat="45.7101067" lon="8.5346817"><ele>326.6666666666667</ele><time>2026-03-29T12:11:51.999Z</time></trkpt><trkpt lat="45.71013" lon="8.5343983"><ele>327.0</ele><time>2026-03-29T12:11:53Z</time></trkpt><trkpt lat="45.7101517" lon="8.5341233"><ele>327.3333333333333</ele><time>2026-03-29T12:11:54Z</time></trkpt><trkpt lat="45.7101767" lon="8.5338567"><ele>327.66666666666663</ele><time>2026-03-29T12:11:55Z</time></trkpt><trkpt lat="45.71022" lon="8.5335983"><ele>328.0</ele><time>2026-03-29T12:11:55.999Z</time></trkpt><trkpt lat="45.7102483" lon="8.5333417"><ele>328.3333333333333</ele><time>2026-03-29T12:11:57Z</time></trkpt><trkpt lat="45.7102717" lon="8.533055"><ele>328.6666666666667</ele><time>2026-03-29T12:11:58Z</time></trkpt><trkpt lat="45.710295" lon="8.532785"><ele>329.0</ele><time>2026-03-29T12:11:58.999Z</time></trkpt><trkpt lat="45.7103233" lon="8.5325083"><ele>329.6666666666667</ele><time>2026-03-29T12:11:59.999Z</time></trkpt><trkpt lat="45.7103567" lon="8.5322117"><ele>330.3333333333333</ele><time>2026-03-29T12:12:01Z</time></trkpt><trkpt lat="45.7103817" lon="8.5319083"><ele>331.0</ele><time>2026-03-29T12:12:02Z</time></trkpt><trkpt lat="45.7104083" lon="8.5316"><ele>331.3333333333333</ele><time>2026-03-29T12:12:03Z</time></trkpt><trkpt lat="45.7104417" lon="8.5312833"><ele>331.6666666666667</ele><time>2026-03-29T12:12:03.999Z</time></trkpt><trkpt lat="45.7104617" lon="8.530965"><ele>332.0</ele><time>2026-03-29T12:12:05Z</time></trkpt><trkpt lat="45.7104333" lon="8.5306617"><ele>332.0</ele><time>2026-03-29T12:12:06Z</time></trkpt><trkpt lat="45.7103883" lon="8.530355"><ele>332.0</ele><time>2026-03-29T12:12:06.999Z</time></trkpt><trkpt lat="45.7103317" lon="8.5300367"><ele>332.0</ele><time>2026-03-29T12:12:08Z</time></trkpt><trkpt lat="45.7102767" lon="8.5297317"><ele>336.0</ele><time>2026-03-29T12:12:09Z</time></trkpt><trkpt lat="45.71021" lon="8.5294267"><ele>340.0</ele><time>2026-03-29T12:12:10Z</time></trkpt><trkpt lat="45.7101217" lon="8.529115"><ele>340.0</ele><time>2026-03-29T12:12:11Z</time></trkpt><trkpt lat="45.7100317" lon="8.5287933"><ele>340.0</ele><time>2026-03-29T12:12:12Z</time></trkpt><trkpt lat="45.7099567" lon="8.5284917"><ele>340.3333333333333</ele><time>2026-03-29T12:12:13Z</time></trkpt><trkpt lat="45.709885" lon="8.5281883"><ele>340.6666666666667</ele><time>2026-03-29T12:12:14Z</time></trkpt><trkpt lat="45.7098133" lon="8.5279"><ele>341.0</ele><time>2026-03-29T12:12:15Z</time></trkpt><trkpt lat="45.7097417" lon="8.5276233"><ele>341.6666666666667</ele><time>2026-03-29T12:12:16Z</time></trkpt><trkpt lat="45.7096583" lon="8.5273467"><ele>342.3333333333333</ele><time>2026-03-29T12:12:17Z</time></trkpt><trkpt lat="45.7095833" lon="8.5271067"><ele>343.0</ele><time>2026-03-29T12:12:17.999Z</time></trkpt><trkpt lat="45.7095267" lon="8.5268733"><ele>343.0</ele><time>2026-03-29T12:12:19Z</time></trkpt><trkpt lat="45.7094717" lon="8.5266533"><ele>343.0</ele><time>2026-03-29T12:12:20Z</time></trkpt><trkpt lat="45.7094033" lon="8.5264417"><ele>343.0</ele><time>2026-03-29T12:12:21Z</time></trkpt><trkpt lat="45.7093433" lon="8.52622"><ele>342.66666666666663</ele><time>2026-03-29T12:12:22Z</time></trkpt><trkpt lat="45.709285" lon="8.525985"><ele>342.3333333333333</ele><time>2026-03-29T12:12:22.999Z</time></trkpt><trkpt lat="45.7092133" lon="8.5257217"><ele>342.0</ele><time>2026-03-29T12:12:24Z</time></trkpt><trkpt lat="45.709135" lon="8.5254417"><ele>343.0</ele><time>2026-03-29T12:12:24.999Z</time></trkpt><trkpt lat="45.7090567" lon="8.5251483"><ele>344.0</ele><time>2026-03-29T12:12:25.999Z</time></trkpt><trkpt lat="45.70898" lon="8.5248667"><ele>345.0</ele><time>2026-03-29T12:12:27Z</time></trkpt><trkpt lat="45.70892" lon="8.5245833"><ele>348.0</ele><time>2026-03-29T12:12:27.999Z</time></trkpt><trkpt lat="45.7088717" lon="8.52432"><ele>351.0</ele><time>2026-03-29T12:12:29Z</time></trkpt><trkpt lat="45.7088517" lon="8.5240467"><ele>354.0</ele><time>2026-03-29T12:12:29.999Z</time></trkpt><trkpt lat="45.7088917" lon="8.523735"><ele>355.0</ele><time>2026-03-29T12:12:30.999Z</time></trkpt><trkpt lat="45.70895" lon="8.523505"><ele>356.0</ele><time>2026-03-29T12:12:31.999Z</time></trkpt><trkpt lat="45.7090283" lon="8.5232583"><ele>357.0</ele><time>2026-03-29T12:12:32.999Z</time></trkpt><trkpt lat="45.709095" lon="8.523045"><ele>358.25</ele><time>2026-03-29T12:12:34Z</time></trkpt><trkpt lat="45.70915" lon="8.5228617"><ele>359.5</ele><time>2026-03-29T12:12:35Z</time></trkpt><trkpt lat="45.7091617" lon="8.5226883"><ele>360.75</ele><time>2026-03-29T12:12:36Z</time></trkpt><trkpt lat="45.7091267" lon="8.5225183"><ele>362.0</ele><time>2026-03-29T12:12:37Z</time></trkpt><trkpt lat="45.7090433" lon="8.5223933"><ele>362.0</ele><time>2026-03-29T12:12:37.999Z</time></trkpt><trkpt lat="45.708915" lon="8.5223367"><ele>362.0</ele><time>2026-03-29T12:12:39Z</time></trkpt><trkpt lat="45.70873" lon="8.52233"><ele>362.0</ele><time>2026-03-29T12:12:39.999Z</time></trkpt><trkpt lat="45.7085183" lon="8.5223683"><ele>363.6666666666667</ele><time>2026-03-29T12:12:41Z</time></trkpt><trkpt lat="45.708325" lon="8.5224"><ele>365.3333333333333</ele><time>2026-03-29T12:12:42Z</time></trkpt><trkpt lat="45.7081483" lon="8.5224267"><ele>367.0</ele><time>2026-03-29T12:12:43Z</time></trkpt><trkpt lat="45.7079717" lon="8.5224"><ele>367.0</ele><time>2026-03-29T12:12:43.999Z</time></trkpt><trkpt lat="45.7078283" lon="8.5223533"><ele>367.0</ele><time>2026-03-29T12:12:44.999Z</time></trkpt><trkpt lat="45.707715" lon="8.52224"><ele>367.0</ele><time>2026-03-29T12:12:46Z</time></trkpt><trkpt lat="45.70764" lon="8.5221017"><ele>367.0</ele><time>2026-03-29T12:12:47Z</time></trkpt><trkpt lat="45.7075933" lon="8.52194"><ele>368.75</ele><time>2026-03-29T12:12:48Z</time></trkpt><trkpt lat="45.707595" lon="8.521785"><ele>370.5</ele><time>2026-03-29T12:12:49Z</time></trkpt><trkpt lat="45.70763" lon="8.5216067"><ele>372.25</ele><time>2026-03-29T12:12:49.999Z</time></trkpt><trkpt lat="45.70774" lon="8.5213833"><ele>374.0</ele><time>2026-03-29T12:12:51Z</time></trkpt><trkpt lat="45.7078733" lon="8.5212117"><ele>375.0</ele><time>2026-03-29T12:12:52Z</time></trkpt><trkpt lat="45.70802" lon="8.5210517"><ele>376.0</ele><time>2026-03-29T12:12:53Z</time></trkpt><trkpt lat="45.7081633" lon="8.5209117"><ele>377.0</ele><time>2026-03-29T12:12:54Z</time></trkpt><trkpt lat="45.70831" lon="8.5207633"><ele>377.0</ele><time>2026-03-29T12:12:54.999Z</time></trkpt><trkpt lat="45.7084483" lon="8.5206217"><ele>377.0</ele><time>2026-03-29T12:12:56Z</time></trkpt><trkpt lat="45.708595" lon="8.5204983"><ele>377.0</ele><time>2026-03-29T12:12:56.999Z</time></trkpt><trkpt lat="45.7087333" lon="8.520385"><ele>377.6666666666667</ele><time>2026-03-29T12:12:58Z</time></trkpt><trkpt lat="45.7088683" lon="8.5202633"><ele>378.3333333333333</ele><time>2026-03-29T12:12:58.999Z</time></trkpt><trkpt lat="45.7090067" lon="8.5201333"><ele>379.0</ele><time>2026-03-29T12:13:00Z</time></trkpt><trkpt lat="45.7091383" lon="8.519995"><ele>379.0</ele><time>2026-03-29T12:13:00.999Z</time></trkpt><trkpt lat="45.7092633" lon="8.5198717"><ele>379.0</ele><time>2026-03-29T12:13:02Z</time></trkpt><trkpt lat="45.7093883" lon="8.519755"><ele>379.0</ele><time>2026-03-29T12:13:02.999Z</time></trkpt><trkpt lat="45.7095083" lon="8.5196383"><ele>379.0</ele><time>2026-03-29T12:13:04Z</time></trkpt><trkpt lat="45.7096383" lon="8.519535"><ele>379.25</ele><time>2026-03-29T12:13:04.999Z</time></trkpt><trkpt lat="45.7097533" lon="8.519415"><ele>379.5</ele><time>2026-03-29T12:13:05.999Z</time></trkpt><trkpt lat="45.709855" lon="8.5193133"><ele>379.75</ele><time>2026-03-29T12:13:07Z</time></trkpt><trkpt lat="45.7099467" lon="8.5192183"><ele>380.0</ele><time>2026-03-29T12:13:08Z</time></trkpt><trkpt lat="45.7100183" lon="8.5191283"><ele>380.0</ele><time>2026-03-29T12:13:09Z</time></trkpt><trkpt lat="45.7100483" lon="8.51901"><ele>380.0</ele><time>2026-03-29T12:13:10Z</time></trkpt><trkpt lat="45.7100833" lon="8.5189017"><ele>380.0</ele><time>2026-03-29T12:13:11Z</time></trkpt><trkpt lat="45.7100433" lon="8.51874"><ele>380.0</ele><time>2026-03-29T12:13:12Z</time></trkpt><trkpt lat="45.7099933" lon="8.5185817"><ele>380.0</ele><time>2026-03-29T12:13:12.999Z</time></trkpt><trkpt lat="45.7099233" lon="8.5184083"><ele>381.0</ele><time>2026-03-29T12:13:14Z</time></trkpt><trkpt lat="45.7098467" lon="8.51822"><ele>382.0</ele><time>2026-03-29T12:13:14.999Z</time></trkpt><trkpt lat="45.709765" lon="8.518"><ele>383.0</ele><time>2026-03-29T12:13:16Z</time></trkpt><trkpt lat="45.70969" lon="8.5177883"><ele>383.0</ele><time>2026-03-29T12:13:17Z</time></trkpt><trkpt lat="45.7096133" lon="8.5175633"><ele>383.0</ele><time>2026-03-29T12:13:18Z</time></trkpt><trkpt lat="45.70954" lon="8.517345"><ele>383.0</ele><time>2026-03-29T12:13:18.999Z</time></trkpt><trkpt lat="45.70946" lon="8.5171183"><ele>382.0</ele><time>2026-03-29T12:13:20Z</time></trkpt><trkpt lat="45.7093883" lon="8.5169"><ele>381.0</ele><time>2026-03-29T12:13:21Z</time></trkpt><trkpt lat="45.7093283" lon="8.51668"><ele>380.0</ele><time>2026-03-29T12:13:22Z</time></trkpt><trkpt lat="45.7093083" lon="8.5164217"><ele>378.6666666666667</ele><time>2026-03-29T12:13:23Z</time></trkpt><trkpt lat="45.70932" lon="8.5161617"><ele>377.3333333333333</ele><time>2026-03-29T12:13:24Z</time></trkpt><trkpt lat="45.70936" lon="8.515925"><ele>376.0</ele><time>2026-03-29T12:13:24.999Z</time></trkpt><trkpt lat="45.709415" lon="8.5156933"><ele>374.66666666666663</ele><time>2026-03-29T12:13:26Z</time></trkpt><trkpt lat="45.709455" lon="8.5154667"><ele>373.3333333333333</ele><time>2026-03-29T12:13:27Z</time></trkpt><trkpt lat="45.70948" lon="8.5152533"><ele>372.0</ele><time>2026-03-29T12:13:28Z</time></trkpt><trkpt lat="45.7095117" lon="8.515045"><ele>370.5</ele><time>2026-03-29T12:13:29Z</time></trkpt><trkpt lat="45.7095433" lon="8.51485"><ele>369.0</ele><time>2026-03-29T12:13:30Z</time></trkpt><trkpt lat="45.70957" lon="8.514665"><ele>367.5</ele><time>2026-03-29T12:13:31Z</time></trkpt><trkpt lat="45.709595" lon="8.5144867"><ele>366.0</ele><time>2026-03-29T12:13:31.999Z</time></trkpt><trkpt lat="45.7096183" lon="8.5143133"><ele>365.25</ele><time>2026-03-29T12:13:33Z</time></trkpt><trkpt lat="45.7096467" lon="8.5141383"><ele>364.5</ele><time>2026-03-29T12:13:34Z</time></trkpt><trkpt lat="45.7096867" lon="8.5139517"><ele>363.75</ele><time>2026-03-29T12:13:34.999Z</time></trkpt><trkpt lat="45.70972" lon="8.5137617"><ele>363.0</ele><time>2026-03-29T12:13:35.999Z</time></trkpt><trkpt lat="45.7097467" lon="8.51354"><ele>362.75</ele><time>2026-03-29T12:13:37Z</time></trkpt><trkpt lat="45.7097767" lon="8.51334"><ele>362.5</ele><time>2026-03-29T12:13:38Z</time></trkpt><trkpt lat="45.7098083" lon="8.5131283"><ele>362.25</ele><time>2026-03-29T12:13:39Z</time></trkpt><trkpt lat="45.709825" lon="8.512915"><ele>362.0</ele><time>2026-03-29T12:13:40Z</time></trkpt><trkpt lat="45.7098483" lon="8.5126933"><ele>361.6666666666667</ele><time>2026-03-29T12:13:40.999Z</time></trkpt><trkpt lat="45.709875" lon="8.51246"><ele>361.3333333333333</ele><time>2026-03-29T12:13:42Z</time></trkpt><trkpt lat="45.7099117" lon="8.512235"><ele>361.0</ele><time>2026-03-29T12:13:42.999Z</time></trkpt><trkpt lat="45.7099467" lon="8.5119867"><ele>361.66666666666663</ele><time>2026-03-29T12:13:44Z</time></trkpt><trkpt lat="45.709975" lon="8.5117417"><ele>362.3333333333333</ele><time>2026-03-29T12:13:45Z</time></trkpt><trkpt lat="45.710015" lon="8.5115"><ele>363.0</ele><time>2026-03-29T12:13:46Z</time></trkpt><trkpt lat="45.7100617" lon="8.5112733"><ele>363.0</ele><time>2026-03-29T12:13:47Z</time></trkpt><trkpt lat="45.710115" lon="8.5110517"><ele>363.0</ele><time>2026-03-29T12:13:48Z</time></trkpt><trkpt lat="45.710155" lon="8.51084"><ele>363.0</ele><time>2026-03-29T12:13:49Z</time></trkpt><trkpt lat="45.7101883" lon="8.5106417"><ele>363.0</ele><time>2026-03-29T12:13:50Z</time></trkpt><trkpt lat="45.710215" lon="8.51045"><ele>363.0</ele><time>2026-03-29T12:13:51Z</time></trkpt><trkpt lat="45.71024" lon="8.510245"><ele>363.0</ele><time>2026-03-29T12:13:52Z</time></trkpt><trkpt lat="45.7102683" lon="8.5100317"><ele>363.0</ele><time>2026-03-29T12:13:53Z</time></trkpt><trkpt lat="45.7102967" lon="8.50981"><ele>365.0</ele><time>2026-03-29T12:13:54Z</time></trkpt><trkpt lat="45.7103233" lon="8.509595"><ele>367.0</ele><time>2026-03-29T12:13:54.999Z</time></trkpt><trkpt lat="45.7103383" lon="8.5093467"><ele>369.0</ele><time>2026-03-29T12:13:56Z</time></trkpt><trkpt lat="45.7103467" lon="8.5090917"><ele>370.3333333333333</ele><time>2026-03-29T12:13:57Z</time></trkpt><trkpt lat="45.7103583" lon="8.508845"><ele>371.66666666666663</ele><time>2026-03-29T12:13:58Z</time></trkpt><trkpt lat="45.710355" lon="8.5086033"><ele>373.0</ele><time>2026-03-29T12:13:59Z</time></trkpt><trkpt lat="45.7103533" lon="8.5083617"><ele>374.0</ele><time>2026-03-29T12:14:00Z</time></trkpt><trkpt lat="45.7103667" lon="8.5081217"><ele>375.0</ele><time>2026-03-29T12:14:01Z</time></trkpt><trkpt lat="45.710365" lon="8.5078917"><ele>376.0</ele><time>2026-03-29T12:14:02Z</time></trkpt><trkpt lat="45.7103633" lon="8.507685"><ele>376.4</ele><time>2026-03-29T12:14:03Z</time></trkpt><trkpt lat="45.7103633" lon="8.507495"><ele>376.8</ele><time>2026-03-29T12:14:04Z</time></trkpt><trkpt lat="45.710385" lon="8.5073467"><ele>377.2</ele><time>2026-03-29T12:14:05Z</time></trkpt><trkpt lat="45.7104183" lon="8.507265"><ele>377.59999999999997</ele><time>2026-03-29T12:14:06Z</time></trkpt><trkpt lat="45.7104883" lon="8.507215"><ele>378.0</ele><time>2026-03-29T12:14:09Z</time></trkpt><trkpt lat="45.7105533" lon="8.50712"><ele>377.75</ele><time>2026-03-29T12:14:16Z</time></trkpt><trkpt lat="45.7106317" lon="8.5069967"><ele>377.5</ele><time>2026-03-29T12:14:17Z</time></trkpt><trkpt lat="45.71072" lon="8.506885"><ele>377.25</ele><time>2026-03-29T12:14:17.999Z</time></trkpt><trkpt lat="45.71084" lon="8.506785"><ele>377.0</ele><time>2026-03-29T12:14:18.999Z</time></trkpt><trkpt lat="45.7109933" lon="8.5066883"><ele>378.6666666666667</ele><time>2026-03-29T12:14:19.998Z</time></trkpt><trkpt lat="45.7111617" lon="8.506575"><ele>380.3333333333333</ele><time>2026-03-29T12:14:20.999Z</time></trkpt><trkpt lat="45.7113267" lon="8.5064467"><ele>382.0</ele><time>2026-03-29T12:14:21.999Z</time></trkpt><trkpt lat="45.7114883" lon="8.506315"><ele>382.0</ele><time>2026-03-29T12:14:22.999Z</time></trkpt><trkpt lat="45.71164" lon="8.5061617"><ele>382.0</ele><time>2026-03-29T12:14:23.998Z</time></trkpt><trkpt lat="45.7118017" lon="8.506025"><ele>382.0</ele><time>2026-03-29T12:14:24.999Z</time></trkpt><trkpt lat="45.7119617" lon="8.5058967"><ele>382.0</ele><time>2026-03-29T12:14:25.999Z</time></trkpt><trkpt lat="45.712125" lon="8.5057467"><ele>382.0</ele><time>2026-03-29T12:14:26.999Z</time></trkpt><trkpt lat="45.7122917" lon="8.5056017"><ele>382.0</ele><time>2026-03-29T12:14:27.999Z</time></trkpt><trkpt lat="45.71246" lon="8.5054817"><ele>381.3333333333333</ele><time>2026-03-29T12:14:28.998Z</time></trkpt><trkpt lat="45.7126333" lon="8.5053467"><ele>380.6666666666667</ele><time>2026-03-29T12:14:29.999Z</time></trkpt><trkpt lat="45.7128" lon="8.5052083"><ele>380.0</ele><time>2026-03-29T12:14:30.999Z</time></trkpt><trkpt lat="45.7129567" lon="8.5050933"><ele>380.0</ele><time>2026-03-29T12:14:31.998Z</time></trkpt><trkpt lat="45.713095" lon="8.504945"><ele>380.0</ele><time>2026-03-29T12:14:32.998Z</time></trkpt><trkpt lat="45.7132767" lon="8.5048083"><ele>380.0</ele><time>2026-03-29T12:14:33.998Z</time></trkpt><trkpt lat="45.7134367" lon="8.5046633"><ele>379.33333333333337</ele><time>2026-03-29T12:14:34.998Z</time></trkpt><trkpt lat="45.7135967" lon="8.504505"><ele>378.6666666666667</ele><time>2026-03-29T12:14:35.999Z</time></trkpt><trkpt lat="45.713755" lon="8.5043683"><ele>378.0</ele><time>2026-03-29T12:14:36.999Z</time></trkpt><trkpt lat="45.7138917" lon="8.5042117"><ele>378.0</ele><time>2026-03-29T12:14:37.998Z</time></trkpt><trkpt lat="45.7140167" lon="8.504085"><ele>378.0</ele><time>2026-03-29T12:14:38.999Z</time></trkpt><trkpt lat="45.7141383" lon="8.5039833"><ele>378.0</ele><time>2026-03-29T12:14:39.999Z</time></trkpt><trkpt lat="45.71424" lon="8.503885"><ele>378.0</ele><time>2026-03-29T12:14:40.999Z</time></trkpt><trkpt lat="45.7143033" lon="8.5037433"><ele>376.75</ele><time>2026-03-29T12:14:41.999Z</time></trkpt><trkpt lat="45.71431" lon="8.5035717"><ele>375.5</ele><time>2026-03-29T12:14:42.998Z</time></trkpt><trkpt lat="45.7142733" lon="8.5033917"><ele>374.25</ele><time>2026-03-29T12:14:43.999Z</time></trkpt><trkpt lat="45.714235" lon="8.5031683"><ele>373.0</ele><time>2026-03-29T12:14:44.998Z</time></trkpt><trkpt lat="45.7141933" lon="8.50292"><ele>371.66666666666663</ele><time>2026-03-29T12:14:45.998Z</time></trkpt><trkpt lat="45.7141667" lon="8.5026633"><ele>370.3333333333333</ele><time>2026-03-29T12:14:46.998Z</time></trkpt><trkpt lat="45.7141533" lon="8.502415"><ele>369.0</ele><time>2026-03-29T12:14:47.999Z</time></trkpt><trkpt lat="45.7141533" lon="8.502185"><ele>367.3333333333333</ele><time>2026-03-29T12:14:48.999Z</time></trkpt><trkpt lat="45.71415" lon="8.5019617"><ele>365.66666666666663</ele><time>2026-03-29T12:14:49.998Z</time></trkpt><trkpt lat="45.7141467" lon="8.5017467"><ele>364.0</ele><time>2026-03-29T12:14:50.998Z</time></trkpt><trkpt lat="45.7141367" lon="8.501525"><ele>364.0</ele><time>2026-03-29T12:14:51.998Z</time></trkpt><trkpt lat="45.7141333" lon="8.5013233"><ele>364.0</ele><time>2026-03-29T12:14:52.999Z</time></trkpt><trkpt lat="45.7141283" lon="8.501105"><ele>364.0</ele><time>2026-03-29T12:14:53.998Z</time></trkpt><trkpt lat="45.7141233" lon="8.50088"><ele>363.0</ele><time>2026-03-29T12:14:54.999Z</time></trkpt><trkpt lat="45.71412" lon="8.500655"><ele>362.0</ele><time>2026-03-29T12:14:55.999Z</time></trkpt><trkpt lat="45.7141133" lon="8.500435"><ele>361.0</ele><time>2026-03-29T12:14:56.999Z</time></trkpt><trkpt lat="45.7141133" lon="8.5002333"><ele>360.5</ele><time>2026-03-29T12:14:57.999Z</time></trkpt><trkpt lat="45.7141117" lon="8.5000417"><ele>360.0</ele><time>2026-03-29T12:14:58.999Z</time></trkpt><trkpt lat="45.7141067" lon="8.499865"><ele>359.5</ele><time>2026-03-29T12:14:59.999Z</time></trkpt><trkpt lat="45.71411" lon="8.49969"><ele>359.0</ele><time>2026-03-29T12:15:00.999Z</time></trkpt><trkpt lat="45.714125" lon="8.499525"><ele>358.6</ele><time>2026-03-29T12:15:01.998Z</time></trkpt><trkpt lat="45.7141367" lon="8.4993633"><ele>358.2</ele><time>2026-03-29T12:15:02.999Z</time></trkpt><trkpt lat="45.714135" lon="8.4992317"><ele>357.8</ele><time>2026-03-29T12:15:03.999Z</time></trkpt><trkpt lat="45.714095" lon="8.49911"><ele>357.40000000000003</ele><time>2026-03-29T12:15:04.999Z</time></trkpt><trkpt lat="45.7140083" lon="8.4989983"><ele>357.0</ele><time>2026-03-29T12:15:05.999Z</time></trkpt><trkpt lat="45.71391" lon="8.4989133"><ele>357.0</ele><time>2026-03-29T12:15:06.998Z</time></trkpt><trkpt lat="45.7138067" lon="8.4988233"><ele>357.0</ele><time>2026-03-29T12:15:07.999Z</time></trkpt><trkpt lat="45.7137083" lon="8.49872"><ele>357.0</ele><time>2026-03-29T12:15:08.998Z</time></trkpt><trkpt lat="45.713645" lon="8.49859"><ele>357.0</ele><time>2026-03-29T12:15:09.999Z</time></trkpt><trkpt lat="45.7135883" lon="8.498455"><ele>357.0</ele><time>2026-03-29T12:15:10.999Z</time></trkpt><trkpt lat="45.7135433" lon="8.49831"><ele>357.0</ele><time>2026-03-29T12:15:11.998Z</time></trkpt><trkpt lat="45.7135183" lon="8.4981483"><ele>357.0</ele><time>2026-03-29T12:15:12.998Z</time></trkpt><trkpt lat="45.7134967" lon="8.4980067"><ele>357.0</ele><time>2026-03-29T12:15:13.999Z</time></trkpt><trkpt lat="45.7134917" lon="8.4978667"><ele>357.0</ele><time>2026-03-29T12:15:14.999Z</time></trkpt><trkpt lat="45.7135533" lon="8.49774"><ele>354.6666666666667</ele><time>2026-03-29T12:15:15.999Z</time></trkpt><trkpt lat="45.7136767" lon="8.4976217"><ele>352.33333333333337</ele><time>2026-03-29T12:15:16.999Z</time></trkpt><trkpt lat="45.71384" lon="8.4974783"><ele>350.0</ele><time>2026-03-29T12:15:17.999Z</time></trkpt><trkpt lat="45.7139617" lon="8.4973217"><ele>350.0</ele><time>2026-03-29T12:15:18.999Z</time></trkpt><trkpt lat="45.7140617" lon="8.49715"><ele>350.0</ele><time>2026-03-29T12:15:19.998Z</time></trkpt><trkpt lat="45.7141467" lon="8.496975"><ele>350.0</ele><time>2026-03-29T12:15:20.998Z</time></trkpt><trkpt lat="45.7142133" lon="8.4968433"><ele>350.0</ele><time>2026-03-29T12:15:21.999Z</time></trkpt><trkpt lat="45.7142867" lon="8.49678"><ele>348.0</ele><time>2026-03-29T12:15:22.999Z</time></trkpt><trkpt lat="45.714365" lon="8.4967383"><ele>346.0</ele><time>2026-03-29T12:15:23.999Z</time></trkpt><trkpt lat="45.7144383" lon="8.496715"><ele>344.0</ele><time>2026-03-29T12:15:24.999Z</time></trkpt><trkpt lat="45.7145317" lon="8.4966783"><ele>342.0</ele><time>2026-03-29T12:15:25.999Z</time></trkpt><trkpt lat="45.7146467" lon="8.4966217"><ele>340.0</ele><time>2026-03-29T12:15:26.999Z</time></trkpt><trkpt lat="45.7147867" lon="8.49655"><ele>340.0</ele><time>2026-03-29T12:15:27.999Z</time></trkpt><trkpt lat="45.7149333" lon="8.49649"><ele>340.0</ele><time>2026-03-29T12:15:28.999Z</time></trkpt><trkpt lat="45.7150983" lon="8.496395"><ele>340.0</ele><time>2026-03-29T12:15:29.999Z</time></trkpt><trkpt lat="45.7152867" lon="8.4962917"><ele>337.5</ele><time>2026-03-29T12:15:30.999Z</time></trkpt><trkpt lat="45.71549" lon="8.4961733"><ele>335.0</ele><time>2026-03-29T12:15:31.999Z</time></trkpt><trkpt lat="45.715705" lon="8.496055"><ele>335.0</ele><time>2026-03-29T12:15:32.999Z</time></trkpt><trkpt lat="45.715905" lon="8.4959333"><ele>335.0</ele><time>2026-03-29T12:15:33.998Z</time></trkpt><trkpt lat="45.7161117" lon="8.49586"><ele>335.0</ele><time>2026-03-29T12:15:34.999Z</time></trkpt><trkpt lat="45.7163283" lon="8.4958517"><ele>336.33333333333337</ele><time>2026-03-29T12:15:35.999Z</time></trkpt><trkpt lat="45.7165433" lon="8.4959217"><ele>337.6666666666667</ele><time>2026-03-29T12:15:36.998Z</time></trkpt><trkpt lat="45.71675" lon="8.4960333"><ele>339.0</ele><time>2026-03-29T12:15:37.999Z</time></trkpt><trkpt lat="45.7169683" lon="8.4960967"><ele>339.0</ele><time>2026-03-29T12:15:38.999Z</time></trkpt><trkpt lat="45.7171833" lon="8.4960933"><ele>339.0</ele><time>2026-03-29T12:15:39.998Z</time></trkpt><trkpt lat="45.7174017" lon="8.49606"><ele>339.0</ele><time>2026-03-29T12:15:40.999Z</time></trkpt><trkpt lat="45.7176233" lon="8.4960283"><ele>339.6666666666667</ele><time>2026-03-29T12:15:41.999Z</time></trkpt><trkpt lat="45.717845" lon="8.4959967"><ele>340.33333333333337</ele><time>2026-03-29T12:15:42.999Z</time></trkpt><trkpt lat="45.718045" lon="8.4959633"><ele>341.0</ele><time>2026-03-29T12:15:43.999Z</time></trkpt><trkpt lat="45.71823" lon="8.4959183"><ele>341.0</ele><time>2026-03-29T12:15:44.999Z</time></trkpt><trkpt lat="45.718405" lon="8.495865"><ele>341.0</ele><time>2026-03-29T12:15:45.999Z</time></trkpt><trkpt lat="45.718565" lon="8.4957883"><ele>341.0</ele><time>2026-03-29T12:15:46.999Z</time></trkpt><trkpt lat="45.7187183" lon="8.4957217"><ele>341.0</ele><time>2026-03-29T12:15:47.999Z</time></trkpt><trkpt lat="45.7188617" lon="8.495655"><ele>341.0</ele><time>2026-03-29T12:15:48.999Z</time></trkpt><trkpt lat="45.7189917" lon="8.4955617"><ele>341.0</ele><time>2026-03-29T12:15:49.999Z</time></trkpt><trkpt lat="45.7191017" lon="8.495405"><ele>339.6666666666667</ele><time>2026-03-29T12:15:50.999Z</time></trkpt><trkpt lat="45.719175" lon="8.4951933"><ele>338.3333333333333</ele><time>2026-03-29T12:15:51.999Z</time></trkpt><trkpt lat="45.7192367" lon="8.49494"><ele>337.0</ele><time>2026-03-29T12:15:52.998Z</time></trkpt><trkpt lat="45.7192883" lon="8.4946833"><ele>337.0</ele><time>2026-03-29T12:15:53.998Z</time></trkpt><trkpt lat="45.7193467" lon="8.4944117"><ele>337.0</ele><time>2026-03-29T12:15:54.998Z</time></trkpt><trkpt lat="45.7193983" lon="8.49412"><ele>337.0</ele><time>2026-03-29T12:15:55.999Z</time></trkpt><trkpt lat="45.7194333" lon="8.49383"><ele>335.3333333333333</ele><time>2026-03-29T12:15:56.998Z</time></trkpt><trkpt lat="45.7194583" lon="8.493535"><ele>333.6666666666667</ele><time>2026-03-29T12:15:57.999Z</time></trkpt><trkpt lat="45.7194917" lon="8.4932233"><ele>332.0</ele><time>2026-03-29T12:15:58.999Z</time></trkpt><trkpt lat="45.7195283" lon="8.492925"><ele>332.6666666666667</ele><time>2026-03-29T12:15:59.999Z</time></trkpt><trkpt lat="45.7195683" lon="8.4926333"><ele>333.3333333333333</ele><time>2026-03-29T12:16:00.998Z</time></trkpt><trkpt lat="45.7196283" lon="8.4923683"><ele>334.0</ele><time>2026-03-29T12:16:01.999Z</time></trkpt><trkpt lat="45.7196933" lon="8.49209"><ele>335.0</ele><time>2026-03-29T12:16:02.998Z</time></trkpt><trkpt lat="45.719765" lon="8.4918283"><ele>336.0</ele><time>2026-03-29T12:16:03.998Z</time></trkpt><trkpt lat="45.71984" lon="8.4915867"><ele>337.0</ele><time>2026-03-29T12:16:04.999Z</time></trkpt><trkpt lat="45.71989" lon="8.4913633"><ele>337.66666666666663</ele><time>2026-03-29T12:16:05.999Z</time></trkpt><trkpt lat="45.719945" lon="8.49115"><ele>338.3333333333333</ele><time>2026-03-29T12:16:06.999Z</time></trkpt><trkpt lat="45.7199883" lon="8.4909333"><ele>339.0</ele><time>2026-03-29T12:16:07.999Z</time></trkpt><trkpt lat="45.72002" lon="8.4906967"><ele>339.0</ele><time>2026-03-29T12:16:08.999Z</time></trkpt><trkpt lat="45.7200333" lon="8.4904583"><ele>339.0</ele><time>2026-03-29T12:16:09.999Z</time></trkpt><trkpt lat="45.72006" lon="8.4902033"><ele>339.0</ele><time>2026-03-29T12:16:10.999Z</time></trkpt><trkpt lat="45.7200817" lon="8.4899983"><ele>338.79999999999995</ele><time>2026-03-29T12:16:11.999Z</time></trkpt><trkpt lat="45.7201033" lon="8.4898167"><ele>338.59999999999997</ele><time>2026-03-29T12:16:12.999Z</time></trkpt><trkpt lat="45.72012" lon="8.4896867"><ele>338.4</ele><time>2026-03-29T12:16:13.998Z</time></trkpt><trkpt lat="45.7201367" lon="8.4895867"><ele>338.2</ele><time>2026-03-29T12:16:14.999Z</time></trkpt><trkpt lat="45.720175" lon="8.4894283"><ele>338.0</ele><time>2026-03-29T12:16:16.999Z</time></trkpt><trkpt lat="45.7202233" lon="8.4893617"><ele>337.83333333333337</ele><time>2026-03-29T12:16:17.999Z</time></trkpt><trkpt lat="45.7202833" lon="8.4893"><ele>337.6666666666667</ele><time>2026-03-29T12:16:18.999Z</time></trkpt><trkpt lat="45.72033" lon="8.4892233"><ele>337.5</ele><time>2026-03-29T12:16:19.999Z</time></trkpt><trkpt lat="45.7203367" lon="8.4890633"><ele>337.3333333333333</ele><time>2026-03-29T12:16:21.999Z</time></trkpt><trkpt lat="45.7202633" lon="8.4889933"><ele>337.16666666666663</ele><time>2026-03-29T12:16:22.999Z</time></trkpt><trkpt lat="45.7201717" lon="8.4889483"><ele>337.0</ele><time>2026-03-29T12:16:23.999Z</time></trkpt><trkpt lat="45.7200717" lon="8.48891"><ele>337.0</ele><time>2026-03-29T12:16:24.999Z</time></trkpt><trkpt lat="45.7199717" lon="8.4888583"><ele>337.0</ele><time>2026-03-29T12:16:25.998Z</time></trkpt><trkpt lat="45.7198733" lon="8.4887933"><ele>337.0</ele><time>2026-03-29T12:16:26.999Z</time></trkpt><trkpt lat="45.7197833" lon="8.4887017"><ele>337.0</ele><time>2026-03-29T12:16:27.999Z</time></trkpt><trkpt lat="45.7196933" lon="8.488605"><ele>337.0</ele><time>2026-03-29T12:16:28.999Z</time></trkpt><trkpt lat="45.7195833" lon="8.4885067"><ele>336.75</ele><time>2026-03-29T12:16:29.999Z</time></trkpt><trkpt lat="45.7194783" lon="8.488405"><ele>336.5</ele><time>2026-03-29T12:16:30.998Z</time></trkpt><trkpt lat="45.7193633" lon="8.48828"><ele>336.25</ele><time>2026-03-29T12:16:31.999Z</time></trkpt><trkpt lat="45.7192333" lon="8.4881517"><ele>336.0</ele><time>2026-03-29T12:16:32.999Z</time></trkpt><trkpt lat="45.7190967" lon="8.4880133"><ele>336.3333333333333</ele><time>2026-03-29T12:16:33.999Z</time></trkpt><trkpt lat="45.7189533" lon="8.4878733"><ele>336.66666666666663</ele><time>2026-03-29T12:16:34.999Z</time></trkpt><trkpt lat="45.7188033" lon="8.4877417"><ele>337.0</ele><time>2026-03-29T12:16:35.999Z</time></trkpt><trkpt lat="45.718645" lon="8.4875783"><ele>337.3333333333333</ele><time>2026-03-29T12:16:36.999Z</time></trkpt><trkpt lat="45.71847" lon="8.4874133"><ele>337.6666666666667</ele><time>2026-03-29T12:16:37.999Z</time></trkpt><trkpt lat="45.7183033" lon="8.4872433"><ele>338.0</ele><time>2026-03-29T12:16:38.999Z</time></trkpt><trkpt lat="45.71813" lon="8.4870733"><ele>338.6666666666667</ele><time>2026-03-29T12:16:39.999Z</time></trkpt><trkpt lat="45.7179417" lon="8.486895"><ele>339.3333333333333</ele><time>2026-03-29T12:16:40.999Z</time></trkpt><trkpt lat="45.7177617" lon="8.48672"><ele>340.0</ele><time>2026-03-29T12:16:41.999Z</time></trkpt><trkpt lat="45.7175783" lon="8.4865283"><ele>338.3333333333333</ele><time>2026-03-29T12:16:42.999Z</time></trkpt><trkpt lat="45.717405" lon="8.4863483"><ele>336.6666666666667</ele><time>2026-03-29T12:16:43.999Z</time></trkpt><trkpt lat="45.7172317" lon="8.4861783"><ele>335.0</ele><time>2026-03-29T12:16:44.999Z</time></trkpt><trkpt lat="45.7170667" lon="8.4860167"><ele>335.0</ele><time>2026-03-29T12:16:45.999Z</time></trkpt><trkpt lat="45.7169167" lon="8.48586"><ele>335.0</ele><time>2026-03-29T12:16:46.999Z</time></trkpt><trkpt lat="45.7167783" lon="8.4857317"><ele>335.0</ele><time>2026-03-29T12:16:47.998Z</time></trkpt><trkpt lat="45.716645" lon="8.4855967"><ele>334.6666666666667</ele><time>2026-03-29T12:16:48.999Z</time></trkpt><trkpt lat="45.716515" lon="8.4854667"><ele>334.3333333333333</ele><time>2026-03-29T12:16:49.998Z</time></trkpt><trkpt lat="45.7163833" lon="8.485335"><ele>334.0</ele><time>2026-03-29T12:16:50.999Z</time></trkpt><trkpt lat="45.7162533" lon="8.4852017"><ele>334.0</ele><time>2026-03-29T12:16:51.999Z</time></trkpt><trkpt lat="45.716125" lon="8.48507"><ele>334.0</ele><time>2026-03-29T12:16:52.998Z</time></trkpt><trkpt lat="45.7159933" lon="8.48494"><ele>334.0</ele><time>2026-03-29T12:16:53.999Z</time></trkpt><trkpt lat="45.7158633" lon="8.4848133"><ele>334.0</ele><time>2026-03-29T12:16:54.998Z</time></trkpt><trkpt lat="45.7157467" lon="8.4846833"><ele>334.0</ele><time>2026-03-29T12:16:55.998Z</time></trkpt><trkpt lat="45.715625" lon="8.4845667"><ele>334.0</ele><time>2026-03-29T12:16:56.999Z</time></trkpt><trkpt lat="45.7154917" lon="8.4844333"><ele>334.66666666666663</ele><time>2026-03-29T12:16:57.999Z</time></trkpt><trkpt lat="45.7153617" lon="8.4843183"><ele>335.3333333333333</ele><time>2026-03-29T12:16:58.999Z</time></trkpt><trkpt lat="45.7152267" lon="8.4841917"><ele>336.0</ele><time>2026-03-29T12:16:59.999Z</time></trkpt><trkpt lat="45.7150917" lon="8.4840667"><ele>334.6666666666667</ele><time>2026-03-29T12:17:00.999Z</time></trkpt><trkpt lat="45.7149483" lon="8.48393"><ele>333.33333333333337</ele><time>2026-03-29T12:17:01.998Z</time></trkpt><trkpt lat="45.71482" lon="8.4837983"><ele>332.0</ele><time>2026-03-29T12:17:02.999Z</time></trkpt><trkpt lat="45.7146917" lon="8.4836717"><ele>332.0</ele><time>2026-03-29T12:17:03.999Z</time></trkpt><trkpt lat="45.71458" lon="8.4835183"><ele>332.0</ele><time>2026-03-29T12:17:04.998Z</time></trkpt><trkpt lat="45.71449" lon="8.4833533"><ele>332.0</ele><time>2026-03-29T12:17:05.999Z</time></trkpt><trkpt lat="45.714405" lon="8.483205"><ele>332.0</ele><time>2026-03-29T12:17:06.998Z</time></trkpt><trkpt lat="45.7143383" lon="8.4830533"><ele>331.8</ele><time>2026-03-29T12:17:07.999Z</time></trkpt><trkpt lat="45.7142883" lon="8.4829317"><ele>331.6</ele><time>2026-03-29T12:17:08.998Z</time></trkpt><trkpt lat="45.7142417" lon="8.4828083"><ele>331.40000000000003</ele><time>2026-03-29T12:17:09.999Z</time></trkpt><trkpt lat="45.7142067" lon="8.482705"><ele>331.20000000000005</ele><time>2026-03-29T12:17:10.999Z</time></trkpt><trkpt lat="45.714175" lon="8.4826133"><ele>331.0</ele><time>2026-03-29T12:17:11.999Z</time></trkpt><trkpt lat="45.7141417" lon="8.48247"><ele>331.16666666666663</ele><time>2026-03-29T12:17:13.999Z</time></trkpt><trkpt lat="45.714125" lon="8.4823683"><ele>331.3333333333333</ele><time>2026-03-29T12:17:19.999Z</time></trkpt><trkpt lat="45.7141117" lon="8.4822733"><ele>331.5</ele><time>2026-03-29T12:17:21.998Z</time></trkpt><trkpt lat="45.71412" lon="8.4821133"><ele>331.6666666666667</ele><time>2026-03-29T12:17:23.999Z</time></trkpt><trkpt lat="45.7141367" lon="8.4820167"><ele>331.83333333333337</ele><time>2026-03-29T12:17:24.998Z</time></trkpt><trkpt lat="45.7141767" lon="8.4819033"><ele>332.0</ele><time>2026-03-29T12:17:25.999Z</time></trkpt><trkpt lat="45.71427" lon="8.4817567"><ele>332.0</ele><time>2026-03-29T12:17:26.999Z</time></trkpt><trkpt lat="45.7143317" lon="8.481565"><ele>332.0</ele><time>2026-03-29T12:17:27.999Z</time></trkpt><trkpt lat="45.7143683" lon="8.4813617"><ele>332.0</ele><time>2026-03-29T12:17:28.998Z</time></trkpt><trkpt lat="45.7144117" lon="8.481175"><ele>332.0</ele><time>2026-03-29T12:17:29.998Z</time></trkpt><trkpt lat="45.7144833" lon="8.4810067"><ele>333.33333333333337</ele><time>2026-03-29T12:17:30.998Z</time></trkpt><trkpt lat="45.71461" lon="8.48084"><ele>334.6666666666667</ele><time>2026-03-29T12:17:31.999Z</time></trkpt><trkpt lat="45.71477" lon="8.4806733"><ele>336.0</ele><time>2026-03-29T12:17:32.998Z</time></trkpt><trkpt lat="45.7149683" lon="8.480515"><ele>339.0</ele><time>2026-03-29T12:17:33.998Z</time></trkpt><trkpt lat="45.7151967" lon="8.4803383"><ele>342.0</ele><time>2026-03-29T12:17:34.998Z</time></trkpt><trkpt lat="45.7154333" lon="8.4801033"><ele>341.0</ele><time>2026-03-29T12:17:35.999Z</time></trkpt><trkpt lat="45.7156867" lon="8.4798133"><ele>340.0</ele><time>2026-03-29T12:17:36.998Z</time></trkpt><trkpt lat="45.7159133" lon="8.479485"><ele>341.0</ele><time>2026-03-29T12:17:37.998Z</time></trkpt><trkpt lat="45.7161133" lon="8.4791367"><ele>342.0</ele><time>2026-03-29T12:17:38.998Z</time></trkpt><trkpt lat="45.7163" lon="8.478745"><ele>342.0</ele><time>2026-03-29T12:17:39.999Z</time></trkpt><trkpt lat="45.7164567" lon="8.478345"><ele>342.0</ele><time>2026-03-29T12:17:40.998Z</time></trkpt><trkpt lat="45.7166033" lon="8.477935"><ele>341.5</ele><time>2026-03-29T12:17:41.999Z</time></trkpt><trkpt lat="45.7167367" lon="8.4775183"><ele>341.0</ele><time>2026-03-29T12:17:42.999Z</time></trkpt><trkpt lat="45.716865" lon="8.47711"><ele>340.5</ele><time>2026-03-29T12:17:43.999Z</time></trkpt><trkpt lat="45.7170133" lon="8.47674"><ele>340.0</ele><time>2026-03-29T12:17:44.998Z</time></trkpt><trkpt lat="45.71718" lon="8.47642"><ele>339.0</ele><time>2026-03-29T12:17:45.999Z</time></trkpt><trkpt lat="45.717355" lon="8.4760933"><ele>338.0</ele><time>2026-03-29T12:17:46.999Z</time></trkpt><trkpt lat="45.7175667" lon="8.47579"><ele>337.0</ele><time>2026-03-29T12:17:47.999Z</time></trkpt><trkpt lat="45.7178017" lon="8.4754883"><ele>336.0</ele><time>2026-03-29T12:17:48.998Z</time></trkpt><trkpt lat="45.7180317" lon="8.4751833"><ele>336.0</ele><time>2026-03-29T12:17:49.999Z</time></trkpt><trkpt lat="45.7182583" lon="8.4749067"><ele>336.0</ele><time>2026-03-29T12:17:50.998Z</time></trkpt><trkpt lat="45.7184833" lon="8.47462"><ele>337.5</ele><time>2026-03-29T12:17:51.999Z</time></trkpt><trkpt lat="45.718705" lon="8.4743233"><ele>339.0</ele><time>2026-03-29T12:17:52.999Z</time></trkpt><trkpt lat="45.7189433" lon="8.4740333"><ele>340.5</ele><time>2026-03-29T12:17:53.999Z</time></trkpt><trkpt lat="45.7191633" lon="8.4737467"><ele>342.0</ele><time>2026-03-29T12:17:54.999Z</time></trkpt><trkpt lat="45.7193817" lon="8.4734667"><ele>343.0</ele><time>2026-03-29T12:17:55.998Z</time></trkpt><trkpt lat="45.7196" lon="8.473185"><ele>344.0</ele><time>2026-03-29T12:17:56.999Z</time></trkpt><trkpt lat="45.7198067" lon="8.4729167"><ele>344.0</ele><time>2026-03-29T12:17:57.999Z</time></trkpt><trkpt lat="45.7200233" lon="8.4726417"><ele>344.0</ele><time>2026-03-29T12:17:58.999Z</time></trkpt><trkpt lat="45.7202417" lon="8.4723767"><ele>345.0</ele><time>2026-03-29T12:17:59.999Z</time></trkpt><trkpt lat="45.7204467" lon="8.4721283"><ele>346.0</ele><time>2026-03-29T12:18:00.999Z</time></trkpt><trkpt lat="45.7206517" lon="8.4719"><ele>342.0</ele><time>2026-03-29T12:18:01.999Z</time></trkpt><trkpt lat="45.720835" lon="8.4716883"><ele>338.0</ele><time>2026-03-29T12:18:02.998Z</time></trkpt><trkpt lat="45.7210083" lon="8.47145"><ele>336.0</ele><time>2026-03-29T12:18:03.999Z</time></trkpt><trkpt lat="45.7211783" lon="8.4712033"><ele>334.0</ele><time>2026-03-29T12:18:04.999Z</time></trkpt><trkpt lat="45.7213333" lon="8.4709417"><ele>334.0</ele><time>2026-03-29T12:18:05.998Z</time></trkpt><trkpt lat="45.7214783" lon="8.4706717"><ele>334.0</ele><time>2026-03-29T12:18:06.999Z</time></trkpt><trkpt lat="45.7216033" lon="8.4703967"><ele>331.0</ele><time>2026-03-29T12:18:07.998Z</time></trkpt><trkpt lat="45.72175" lon="8.47012"><ele>328.0</ele><time>2026-03-29T12:18:08.999Z</time></trkpt><trkpt lat="45.721825" lon="8.4698333"><ele>328.0</ele><time>2026-03-29T12:18:09.998Z</time></trkpt><trkpt lat="45.72189" lon="8.4695433"><ele>328.0</ele><time>2026-03-29T12:18:10.999Z</time></trkpt><trkpt lat="45.7219617" lon="8.4692633"><ele>328.0</ele><time>2026-03-29T12:18:11.999Z</time></trkpt><trkpt lat="45.72202" lon="8.4689983"><ele>328.3333333333333</ele><time>2026-03-29T12:18:12.999Z</time></trkpt><trkpt lat="45.7220867" lon="8.4687417"><ele>328.6666666666667</ele><time>2026-03-29T12:18:13.999Z</time></trkpt><trkpt lat="45.7221483" lon="8.4684883"><ele>329.0</ele><time>2026-03-29T12:18:14.999Z</time></trkpt><trkpt lat="45.7222017" lon="8.46825"><ele>329.0</ele><time>2026-03-29T12:18:15.999Z</time></trkpt><trkpt lat="45.7222483" lon="8.468025"><ele>329.0</ele><time>2026-03-29T12:18:16.998Z</time></trkpt><trkpt lat="45.7223017" lon="8.4678"><ele>329.0</ele><time>2026-03-29T12:18:17.999Z</time></trkpt><trkpt lat="45.7223517" lon="8.4676067"><ele>328.25</ele><time>2026-03-29T12:18:18.999Z</time></trkpt><trkpt lat="45.7224067" lon="8.4673983"><ele>327.5</ele><time>2026-03-29T12:18:19.998Z</time></trkpt><trkpt lat="45.72248" lon="8.467235"><ele>326.75</ele><time>2026-03-29T12:18:20.999Z</time></trkpt><trkpt lat="45.7225683" lon="8.4670967"><ele>326.0</ele><time>2026-03-29T12:18:21.999Z</time></trkpt><trkpt lat="45.7226717" lon="8.466995"><ele>326.6</ele><time>2026-03-29T12:18:22.998Z</time></trkpt><trkpt lat="45.7227817" lon="8.46691"><ele>327.20000000000005</ele><time>2026-03-29T12:18:23.999Z</time></trkpt><trkpt lat="45.7228767" lon="8.4668367"><ele>327.79999999999995</ele><time>2026-03-29T12:18:24.998Z</time></trkpt><trkpt lat="45.7229517" lon="8.46673"><ele>328.4</ele><time>2026-03-29T12:18:25.999Z</time></trkpt><trkpt lat="45.7229867" lon="8.4665917"><ele>329.0</ele><time>2026-03-29T12:18:26.998Z</time></trkpt><trkpt lat="45.723" lon="8.46645"><ele>329.0</ele><time>2026-03-29T12:18:27.998Z</time></trkpt><trkpt lat="45.72298" lon="8.4663017"><ele>329.0</ele><time>2026-03-29T12:18:28.999Z</time></trkpt><trkpt lat="45.722925" lon="8.4661567"><ele>329.0</ele><time>2026-03-29T12:18:29.998Z</time></trkpt><trkpt lat="45.7228833" lon="8.4660117"><ele>329.0</ele><time>2026-03-29T12:18:30.998Z</time></trkpt><trkpt lat="45.7228583" lon="8.4658367"><ele>328.75</ele><time>2026-03-29T12:18:31.999Z</time></trkpt><trkpt lat="45.72286" lon="8.4656667"><ele>328.5</ele><time>2026-03-29T12:18:32.999Z</time></trkpt><trkpt lat="45.7228667" lon="8.4654733"><ele>328.25</ele><time>2026-03-29T12:18:33.998Z</time></trkpt><trkpt lat="45.7228883" lon="8.46526"><ele>328.0</ele><time>2026-03-29T12:18:34.998Z</time></trkpt><trkpt lat="45.7229267" lon="8.4650267"><ele>327.66666666666663</ele><time>2026-03-29T12:18:35.998Z</time></trkpt><trkpt lat="45.7229933" lon="8.46475"><ele>327.3333333333333</ele><time>2026-03-29T12:18:36.999Z</time></trkpt><trkpt lat="45.72307" lon="8.4644483"><ele>327.0</ele><time>2026-03-29T12:18:37.999Z</time></trkpt><trkpt lat="45.7231467" lon="8.4640867"><ele>327.0</ele><time>2026-03-29T12:18:38.999Z</time></trkpt><trkpt lat="45.7232333" lon="8.463715"><ele>327.0</ele><time>2026-03-29T12:18:39.999Z</time></trkpt><trkpt lat="45.72333" lon="8.46333"><ele>326.5</ele><time>2026-03-29T12:18:40.998Z</time></trkpt><trkpt lat="45.7234333" lon="8.462915"><ele>326.0</ele><time>2026-03-29T12:18:41.999Z</time></trkpt><trkpt lat="45.7235317" lon="8.462485"><ele>327.0</ele><time>2026-03-29T12:18:42.999Z</time></trkpt><trkpt lat="45.72362" lon="8.462075"><ele>328.0</ele><time>2026-03-29T12:18:43.999Z</time></trkpt><trkpt lat="45.7237067" lon="8.461685"><ele>328.0</ele><time>2026-03-29T12:18:44.999Z</time></trkpt><trkpt lat="45.7237867" lon="8.4613017"><ele>328.0</ele><time>2026-03-29T12:18:45.998Z</time></trkpt><trkpt lat="45.7238417" lon="8.460915"><ele>330.5</ele><time>2026-03-29T12:18:46.998Z</time></trkpt><trkpt lat="45.7238733" lon="8.46054"><ele>333.0</ele><time>2026-03-29T12:18:47.999Z</time></trkpt><trkpt lat="45.723885" lon="8.4601617"><ele>335.0</ele><time>2026-03-29T12:18:48.998Z</time></trkpt><trkpt lat="45.7239067" lon="8.4597867"><ele>337.0</ele><time>2026-03-29T12:18:49.999Z</time></trkpt><trkpt lat="45.7239233" lon="8.459415"><ele>337.0</ele><time>2026-03-29T12:18:50.999Z</time></trkpt><trkpt lat="45.7239117" lon="8.4590533"><ele>337.0</ele><time>2026-03-29T12:18:51.999Z</time></trkpt><trkpt lat="45.72386" lon="8.458725"><ele>336.3333333333333</ele><time>2026-03-29T12:18:52.998Z</time></trkpt><trkpt lat="45.72382" lon="8.4584067"><ele>335.6666666666667</ele><time>2026-03-29T12:18:53.999Z</time></trkpt><trkpt lat="45.723805" lon="8.4581017"><ele>335.0</ele><time>2026-03-29T12:18:54.999Z</time></trkpt><trkpt lat="45.7237817" lon="8.4578017"><ele>335.0</ele><time>2026-03-29T12:18:55.998Z</time></trkpt><trkpt lat="45.7237533" lon="8.457495"><ele>335.0</ele><time>2026-03-29T12:18:56.999Z</time></trkpt><trkpt lat="45.7237283" lon="8.4571867"><ele>335.0</ele><time>2026-03-29T12:18:57.999Z</time></trkpt><trkpt lat="45.7237" lon="8.4568733"><ele>335.5</ele><time>2026-03-29T12:18:58.999Z</time></trkpt><trkpt lat="45.7236617" lon="8.4565533"><ele>336.0</ele><time>2026-03-29T12:18:59.998Z</time></trkpt><trkpt lat="45.72363" lon="8.4562017"><ele>337.0</ele><time>2026-03-29T12:19:00.999Z</time></trkpt><trkpt lat="45.72361" lon="8.4558433"><ele>338.0</ele><time>2026-03-29T12:19:01.998Z</time></trkpt><trkpt lat="45.7235917" lon="8.4554783"><ele>339.0</ele><time>2026-03-29T12:19:02.999Z</time></trkpt><trkpt lat="45.7235733" lon="8.4551117"><ele>340.0</ele><time>2026-03-29T12:19:03.999Z</time></trkpt><trkpt lat="45.7235433" lon="8.4547433"><ele>337.0</ele><time>2026-03-29T12:19:04.999Z</time></trkpt><trkpt lat="45.72351" lon="8.4543783"><ele>334.0</ele><time>2026-03-29T12:19:05.999Z</time></trkpt><trkpt lat="45.7234833" lon="8.45401"><ele>334.0</ele><time>2026-03-29T12:19:06.999Z</time></trkpt><trkpt lat="45.723455" lon="8.453635"><ele>334.0</ele><time>2026-03-29T12:19:07.998Z</time></trkpt><trkpt lat="45.7234217" lon="8.45326"><ele>333.0</ele><time>2026-03-29T12:19:08.999Z</time></trkpt><trkpt lat="45.7233983" lon="8.452885"><ele>332.0</ele><time>2026-03-29T12:19:09.999Z</time></trkpt><trkpt lat="45.7233667" lon="8.4525183"><ele>332.0</ele><time>2026-03-29T12:19:10.998Z</time></trkpt><trkpt lat="45.7233367" lon="8.45216"><ele>332.0</ele><time>2026-03-29T12:19:11.999Z</time></trkpt><trkpt lat="45.723315" lon="8.4518183"><ele>332.0</ele><time>2026-03-29T12:19:12.999Z</time></trkpt><trkpt lat="45.7232883" lon="8.45149"><ele>332.0</ele><time>2026-03-29T12:19:13.999Z</time></trkpt><trkpt lat="45.723265" lon="8.4511533"><ele>332.0</ele><time>2026-03-29T12:19:14.999Z</time></trkpt><trkpt lat="45.7232333" lon="8.450825"><ele>332.0</ele><time>2026-03-29T12:19:15.999Z</time></trkpt><trkpt lat="45.7232067" lon="8.450505"><ele>333.0</ele><time>2026-03-29T12:19:16.999Z</time></trkpt><trkpt lat="45.723185" lon="8.4502"><ele>334.0</ele><time>2026-03-29T12:19:17.999Z</time></trkpt><trkpt lat="45.72316" lon="8.4498933"><ele>335.0</ele><time>2026-03-29T12:19:18.999Z</time></trkpt><trkpt lat="45.7231367" lon="8.4496117"><ele>335.0</ele><time>2026-03-29T12:19:19.998Z</time></trkpt><trkpt lat="45.7231083" lon="8.4493367"><ele>335.0</ele><time>2026-03-29T12:19:20.998Z</time></trkpt><trkpt lat="45.7230767" lon="8.4490783"><ele>335.0</ele><time>2026-03-29T12:19:21.999Z</time></trkpt><trkpt lat="45.7230533" lon="8.448835"><ele>334.33333333333337</ele><time>2026-03-29T12:19:22.999Z</time></trkpt><trkpt lat="45.7230283" lon="8.4485933"><ele>333.6666666666667</ele><time>2026-03-29T12:19:23.998Z</time></trkpt><trkpt lat="45.72301" lon="8.4483517"><ele>333.0</ele><time>2026-03-29T12:19:24.999Z</time></trkpt><trkpt lat="45.7229967" lon="8.448125"><ele>333.0</ele><time>2026-03-29T12:19:25.999Z</time></trkpt><trkpt lat="45.72302" lon="8.4479683"><ele>333.0</ele><time>2026-03-29T12:19:26.999Z</time></trkpt><trkpt lat="45.72306" lon="8.4478533"><ele>333.0</ele><time>2026-03-29T12:19:27.998Z</time></trkpt><trkpt lat="45.7230867" lon="8.447745"><ele>333.0</ele><time>2026-03-29T12:19:28.999Z</time></trkpt><trkpt lat="45.7231717" lon="8.447685"><ele>333.0</ele><time>2026-03-29T12:19:33.999Z</time></trkpt><trkpt lat="45.72323" lon="8.4476017"><ele>333.0</ele><time>2026-03-29T12:19:34.998Z</time></trkpt><trkpt lat="45.7232867" lon="8.4474967"><ele>333.0</ele><time>2026-03-29T12:19:35.999Z</time></trkpt><trkpt lat="45.723335" lon="8.4473733"><ele>333.0</ele><time>2026-03-29T12:19:36.999Z</time></trkpt><trkpt lat="45.72338" lon="8.44721"><ele>333.0</ele><time>2026-03-29T12:19:37.998Z</time></trkpt><trkpt lat="45.7234417" lon="8.4470717"><ele>333.0</ele><time>2026-03-29T12:19:38.999Z</time></trkpt><trkpt lat="45.72353" lon="8.4469483"><ele>333.3333333333333</ele><time>2026-03-29T12:19:39.998Z</time></trkpt><trkpt lat="45.7236633" lon="8.4468417"><ele>333.66666666666663</ele><time>2026-03-29T12:19:40.999Z</time></trkpt><trkpt lat="45.7238317" lon="8.4467283"><ele>334.0</ele><time>2026-03-29T12:19:41.999Z</time></trkpt><trkpt lat="45.7240183" lon="8.446615"><ele>334.0</ele><time>2026-03-29T12:19:42.998Z</time></trkpt><trkpt lat="45.7242017" lon="8.44649"><ele>334.0</ele><time>2026-03-29T12:19:43.998Z</time></trkpt><trkpt lat="45.7243733" lon="8.4463767"><ele>334.0</ele><time>2026-03-29T12:19:44.999Z</time></trkpt><trkpt lat="45.7245183" lon="8.4462583"><ele>334.66666666666663</ele><time>2026-03-29T12:19:45.999Z</time></trkpt><trkpt lat="45.7246783" lon="8.4461433"><ele>335.3333333333333</ele><time>2026-03-29T12:19:46.999Z</time></trkpt><trkpt lat="45.7248533" lon="8.446025"><ele>336.0</ele><time>2026-03-29T12:19:47.999Z</time></trkpt><trkpt lat="45.7250483" lon="8.4459"><ele>336.3333333333333</ele><time>2026-03-29T12:19:48.998Z</time></trkpt><trkpt lat="45.7252333" lon="8.445785"><ele>336.66666666666663</ele><time>2026-03-29T12:19:49.999Z</time></trkpt><trkpt lat="45.7254267" lon="8.44565"><ele>337.0</ele><time>2026-03-29T12:19:50.999Z</time></trkpt><trkpt lat="45.72562" lon="8.4455467"><ele>337.66666666666663</ele><time>2026-03-29T12:19:51.999Z</time></trkpt><trkpt lat="45.7258133" lon="8.4454617"><ele>338.3333333333333</ele><time>2026-03-29T12:19:52.998Z</time></trkpt><trkpt lat="45.7259917" lon="8.4453717"><ele>339.0</ele><time>2026-03-29T12:19:53.999Z</time></trkpt><trkpt lat="45.72617" lon="8.4453033"><ele>340.0</ele><time>2026-03-29T12:19:54.999Z</time></trkpt><trkpt lat="45.7263283" lon="8.445225"><ele>341.0</ele><time>2026-03-29T12:19:55.999Z</time></trkpt><trkpt lat="45.7264817" lon="8.4451467"><ele>342.0</ele><time>2026-03-29T12:19:56.999Z</time></trkpt><trkpt lat="45.7266367" lon="8.445075"><ele>342.0</ele><time>2026-03-29T12:19:57.998Z</time></trkpt><trkpt lat="45.7267933" lon="8.445005"><ele>342.0</ele><time>2026-03-29T12:19:58.998Z</time></trkpt><trkpt lat="45.7269517" lon="8.4449217"><ele>342.0</ele><time>2026-03-29T12:19:59.998Z</time></trkpt><trkpt lat="45.7271233" lon="8.4448367"><ele>341.6666666666667</ele><time>2026-03-29T12:20:00.998Z</time></trkpt><trkpt lat="45.727305" lon="8.4447617"><ele>341.33333333333337</ele><time>2026-03-29T12:20:01.997Z</time></trkpt><trkpt lat="45.727485" lon="8.4446667"><ele>341.0</ele><time>2026-03-29T12:20:02.997Z</time></trkpt><trkpt lat="45.7276817" lon="8.4445833"><ele>340.6666666666667</ele><time>2026-03-29T12:20:03.998Z</time></trkpt><trkpt lat="45.727885" lon="8.4445"><ele>340.3333333333333</ele><time>2026-03-29T12:20:04.998Z</time></trkpt><trkpt lat="45.7280817" lon="8.4444233"><ele>340.0</ele><time>2026-03-29T12:20:05.998Z</time></trkpt><trkpt lat="45.728275" lon="8.4443383"><ele>340.0</ele><time>2026-03-29T12:20:06.998Z</time></trkpt><trkpt lat="45.7284517" lon="8.4442583"><ele>340.0</ele><time>2026-03-29T12:20:07.998Z</time></trkpt><trkpt lat="45.7286283" lon="8.444195"><ele>340.0</ele><time>2026-03-29T12:20:08.997Z</time></trkpt><trkpt lat="45.7288133" lon="8.444155"><ele>340.66666666666663</ele><time>2026-03-29T12:20:09.998Z</time></trkpt><trkpt lat="45.728975" lon="8.4440967"><ele>341.3333333333333</ele><time>2026-03-29T12:20:10.998Z</time></trkpt><trkpt lat="45.729135" lon="8.4440667"><ele>342.0</ele><time>2026-03-29T12:20:11.998Z</time></trkpt><trkpt lat="45.7292833" lon="8.4440083"><ele>342.0</ele><time>2026-03-29T12:20:12.998Z</time></trkpt><trkpt lat="45.7294233" lon="8.443955"><ele>342.0</ele><time>2026-03-29T12:20:13.998Z</time></trkpt><trkpt lat="45.7295533" lon="8.4439067"><ele>342.0</ele><time>2026-03-29T12:20:14.997Z</time></trkpt><trkpt lat="45.7296867" lon="8.4438667"><ele>342.0</ele><time>2026-03-29T12:20:15.998Z</time></trkpt><trkpt lat="45.7298033" lon="8.4437967"><ele>342.0</ele><time>2026-03-29T12:20:16.998Z</time></trkpt><trkpt lat="45.7299317" lon="8.4437433"><ele>342.0</ele><time>2026-03-29T12:20:17.998Z</time></trkpt><trkpt lat="45.7300667" lon="8.443675"><ele>342.0</ele><time>2026-03-29T12:20:18.998Z</time></trkpt><trkpt lat="45.7301983" lon="8.4436217"><ele>342.0</ele><time>2026-03-29T12:20:19.998Z</time></trkpt><trkpt lat="45.730325" lon="8.4436"><ele>342.0</ele><time>2026-03-29T12:20:20.998Z</time></trkpt><trkpt lat="45.7304417" lon="8.443575"><ele>342.0</ele><time>2026-03-29T12:20:21.997Z</time></trkpt><trkpt lat="45.73055" lon="8.4435417"><ele>342.0</ele><time>2026-03-29T12:20:22.998Z</time></trkpt><trkpt lat="45.7306433" lon="8.4435183"><ele>342.0</ele><time>2026-03-29T12:20:23.997Z</time></trkpt><trkpt lat="45.73072" lon="8.4435"><ele>342.0</ele><time>2026-03-29T12:20:24.998Z</time></trkpt><trkpt lat="45.730825" lon="8.443445"><ele>342.0</ele><time>2026-03-29T12:20:26.998Z</time></trkpt><trkpt lat="45.7309517" lon="8.4433583"><ele>342.0</ele><time>2026-03-29T12:20:28.998Z</time></trkpt><trkpt lat="45.731035" lon="8.44329"><ele>342.0</ele><time>2026-03-29T12:20:29.998Z</time></trkpt><trkpt lat="45.7311267" lon="8.4432183"><ele>342.0</ele><time>2026-03-29T12:20:30.998Z</time></trkpt><trkpt lat="45.7312317" lon="8.44314"><ele>342.0</ele><time>2026-03-29T12:20:31.998Z</time></trkpt><trkpt lat="45.7313517" lon="8.443055"><ele>342.0</ele><time>2026-03-29T12:20:32.997Z</time></trkpt><trkpt lat="45.7314867" lon="8.4429533"><ele>342.0</ele><time>2026-03-29T12:20:33.997Z</time></trkpt><trkpt lat="45.7316267" lon="8.4428517"><ele>342.0</ele><time>2026-03-29T12:20:34.998Z</time></trkpt><trkpt lat="45.7317817" lon="8.4427317"><ele>342.6666666666667</ele><time>2026-03-29T12:20:35.998Z</time></trkpt><trkpt lat="45.7319383" lon="8.4426067"><ele>343.33333333333337</ele><time>2026-03-29T12:20:36.998Z</time></trkpt><trkpt lat="45.7321033" lon="8.442485"><ele>344.0</ele><time>2026-03-29T12:20:37.998Z</time></trkpt><trkpt lat="45.7322683" lon="8.4423667"><ele>344.0</ele><time>2026-03-29T12:20:38.998Z</time></trkpt><trkpt lat="45.7324283" lon="8.442255"><ele>344.0</ele><time>2026-03-29T12:20:39.998Z</time></trkpt><trkpt lat="45.7325883" lon="8.4421567"><ele>344.0</ele><time>2026-03-29T12:20:40.997Z</time></trkpt><trkpt lat="45.7327433" lon="8.4420833"><ele>343.6666666666667</ele><time>2026-03-29T12:20:41.998Z</time></trkpt><trkpt lat="45.73289" lon="8.442005"><ele>343.3333333333333</ele><time>2026-03-29T12:20:42.998Z</time></trkpt><trkpt lat="45.7330367" lon="8.4419133"><ele>343.0</ele><time>2026-03-29T12:20:43.997Z</time></trkpt><trkpt lat="45.7331583" lon="8.4418283"><ele>343.0</ele><time>2026-03-29T12:20:44.998Z</time></trkpt><trkpt lat="45.7332733" lon="8.44174"><ele>343.0</ele><time>2026-03-29T12:20:45.998Z</time></trkpt><trkpt lat="45.7333717" lon="8.44167"><ele>343.0</ele><time>2026-03-29T12:20:46.997Z</time></trkpt><trkpt lat="45.733475" lon="8.4416083"><ele>343.0</ele><time>2026-03-29T12:20:47.998Z</time></trkpt><trkpt lat="45.7335883" lon="8.441545"><ele>343.2</ele><time>2026-03-29T12:20:48.998Z</time></trkpt><trkpt lat="45.733685" lon="8.4414717"><ele>343.4</ele><time>2026-03-29T12:20:49.998Z</time></trkpt><trkpt lat="45.7337783" lon="8.44141"><ele>343.59999999999997</ele><time>2026-03-29T12:20:50.998Z</time></trkpt><trkpt lat="45.7338733" lon="8.4413383"><ele>343.79999999999995</ele><time>2026-03-29T12:20:51.998Z</time></trkpt><trkpt lat="45.7339683" lon="8.4412717"><ele>344.0</ele><time>2026-03-29T12:20:52.998Z</time></trkpt><trkpt lat="45.7340633" lon="8.441205"><ele>344.2</ele><time>2026-03-29T12:20:53.998Z</time></trkpt><trkpt lat="45.7341533" lon="8.4411333"><ele>344.4</ele><time>2026-03-29T12:20:54.998Z</time></trkpt><trkpt lat="45.7342517" lon="8.4410717"><ele>344.6</ele><time>2026-03-29T12:20:55.997Z</time></trkpt><trkpt lat="45.7343483" lon="8.4409933"><ele>344.8</ele><time>2026-03-29T12:20:56.998Z</time></trkpt><trkpt lat="45.7344483" lon="8.44093"><ele>345.0</ele><time>2026-03-29T12:20:57.997Z</time></trkpt><trkpt lat="45.7345533" lon="8.4408583"><ele>345.0</ele><time>2026-03-29T12:20:58.998Z</time></trkpt><trkpt lat="45.7346683" lon="8.4407783"><ele>345.0</ele><time>2026-03-29T12:20:59.997Z</time></trkpt><trkpt lat="45.7348083" lon="8.44072"><ele>345.0</ele><time>2026-03-29T12:21:00.998Z</time></trkpt><trkpt lat="45.7349583" lon="8.4406633"><ele>345.0</ele><time>2026-03-29T12:21:01.998Z</time></trkpt><trkpt lat="45.7351133" lon="8.4406083"><ele>345.0</ele><time>2026-03-29T12:21:02.998Z</time></trkpt><trkpt lat="45.7352483" lon="8.4405483"><ele>345.0</ele><time>2026-03-29T12:21:03.998Z</time></trkpt><trkpt lat="45.7353733" lon="8.440505"><ele>345.0</ele><time>2026-03-29T12:21:04.998Z</time></trkpt><trkpt lat="45.735485" lon="8.44048"><ele>345.0</ele><time>2026-03-29T12:21:05.998Z</time></trkpt><trkpt lat="45.7355983" lon="8.4404917"><ele>345.0</ele><time>2026-03-29T12:21:06.998Z</time></trkpt><trkpt lat="45.7357" lon="8.44048"><ele>345.0</ele><time>2026-03-29T12:21:07.998Z</time></trkpt><trkpt lat="45.7358033" lon="8.4404117"><ele>345.0</ele><time>2026-03-29T12:21:08.998Z</time></trkpt><trkpt lat="45.735905" lon="8.440335"><ele>345.0</ele><time>2026-03-29T12:21:09.998Z</time></trkpt><trkpt lat="45.736015" lon="8.44022"><ele>345.0</ele><time>2026-03-29T12:21:10.998Z</time></trkpt><trkpt lat="45.7361467" lon="8.4400983"><ele>345.0</ele><time>2026-03-29T12:21:11.997Z</time></trkpt><trkpt lat="45.7362883" lon="8.439985"><ele>345.0</ele><time>2026-03-29T12:21:12.998Z</time></trkpt><trkpt lat="45.7364567" lon="8.4398967"><ele>345.0</ele><time>2026-03-29T12:21:13.998Z</time></trkpt><trkpt lat="45.7366433" lon="8.4398217"><ele>345.0</ele><time>2026-03-29T12:21:14.998Z</time></trkpt><trkpt lat="45.7368367" lon="8.4397467"><ele>345.0</ele><time>2026-03-29T12:21:15.998Z</time></trkpt><trkpt lat="45.737045" lon="8.4396717"><ele>345.3333333333333</ele><time>2026-03-29T12:21:16.998Z</time></trkpt><trkpt lat="45.73725" lon="8.4395933"><ele>345.66666666666663</ele><time>2026-03-29T12:21:17.998Z</time></trkpt><trkpt lat="45.73746" lon="8.4395183"><ele>346.0</ele><time>2026-03-29T12:21:18.998Z</time></trkpt><trkpt lat="45.7376717" lon="8.43943"><ele>346.66666666666663</ele><time>2026-03-29T12:21:19.997Z</time></trkpt><trkpt lat="45.73788" lon="8.4393483"><ele>347.3333333333333</ele><time>2026-03-29T12:21:20.998Z</time></trkpt><trkpt lat="45.7380867" lon="8.439275"><ele>348.0</ele><time>2026-03-29T12:21:21.998Z</time></trkpt><trkpt lat="45.7382983" lon="8.43919"><ele>348.0</ele><time>2026-03-29T12:21:22.998Z</time></trkpt><trkpt lat="45.7385083" lon="8.439125"><ele>348.0</ele><time>2026-03-29T12:21:23.998Z</time></trkpt><trkpt lat="45.7387183" lon="8.43905"><ele>348.0</ele><time>2026-03-29T12:21:24.998Z</time></trkpt><trkpt lat="45.7389233" lon="8.4389783"><ele>348.3333333333333</ele><time>2026-03-29T12:21:25.997Z</time></trkpt><trkpt lat="45.7391383" lon="8.4388817"><ele>348.66666666666663</ele><time>2026-03-29T12:21:26.997Z</time></trkpt><trkpt lat="45.739335" lon="8.4388117"><ele>349.0</ele><time>2026-03-29T12:21:27.998Z</time></trkpt><trkpt lat="45.7395483" lon="8.4387883"><ele>349.3333333333333</ele><time>2026-03-29T12:21:28.997Z</time></trkpt><trkpt lat="45.739725" lon="8.4387467"><ele>349.6666666666667</ele><time>2026-03-29T12:21:29.998Z</time></trkpt><trkpt lat="45.7399" lon="8.4386833"><ele>350.0</ele><time>2026-03-29T12:21:30.997Z</time></trkpt><trkpt lat="45.740065" lon="8.4386283"><ele>349.33333333333337</ele><time>2026-03-29T12:21:31.998Z</time></trkpt><trkpt lat="45.7402183" lon="8.4385733"><ele>348.6666666666667</ele><time>2026-03-29T12:21:32.997Z</time></trkpt><trkpt lat="45.74036" lon="8.438505"><ele>348.0</ele><time>2026-03-29T12:21:33.998Z</time></trkpt><trkpt lat="45.740495" lon="8.4384367"><ele>348.0</ele><time>2026-03-29T12:21:34.998Z</time></trkpt><trkpt lat="45.7406217" lon="8.4383817"><ele>348.0</ele><time>2026-03-29T12:21:35.998Z</time></trkpt><trkpt lat="45.74074" lon="8.4383317"><ele>348.0</ele><time>2026-03-29T12:21:36.998Z</time></trkpt><trkpt lat="45.7408333" lon="8.4382767"><ele>348.0</ele><time>2026-03-29T12:21:37.998Z</time></trkpt><trkpt lat="45.740925" lon="8.4382467"><ele>348.0</ele><time>2026-03-29T12:21:38.997Z</time></trkpt><trkpt lat="45.74101" lon="8.4382233"><ele>348.0</ele><time>2026-03-29T12:21:39.998Z</time></trkpt><trkpt lat="45.7410883" lon="8.43823"><ele>348.0</ele><time>2026-03-29T12:21:40.997Z</time></trkpt><trkpt lat="45.7411633" lon="8.4382333"><ele>348.0</ele><time>2026-03-29T12:21:41.998Z</time></trkpt><trkpt lat="45.7412683" lon="8.4382283"><ele>348.0</ele><time>2026-03-29T12:21:43.998Z</time></trkpt><trkpt lat="45.7413567" lon="8.4382283"><ele>348.0</ele><time>2026-03-29T12:21:46.998Z</time></trkpt><trkpt lat="45.7414317" lon="8.4382017"><ele>348.0</ele><time>2026-03-29T12:21:48.998Z</time></trkpt><trkpt lat="45.7415167" lon="8.4381117"><ele>348.0</ele><time>2026-03-29T12:21:50.998Z</time></trkpt><trkpt lat="45.7415517" lon="8.4379483"><ele>348.0</ele><time>2026-03-29T12:21:52.997Z</time></trkpt><trkpt lat="45.7415567" lon="8.4377883"><ele>348.0</ele><time>2026-03-29T12:21:54.998Z</time></trkpt><trkpt lat="45.7415867" lon="8.437635"><ele>348.0</ele><time>2026-03-29T12:21:56.998Z</time></trkpt><trkpt lat="45.7416167" lon="8.43754"><ele>348.0</ele><time>2026-03-29T12:21:57.998Z</time></trkpt><trkpt lat="45.741655" lon="8.437435"><ele>348.0</ele><time>2026-03-29T12:21:58.997Z</time></trkpt><trkpt lat="45.741695" lon="8.4373033"><ele>348.0</ele><time>2026-03-29T12:21:59.998Z</time></trkpt><trkpt lat="45.7417633" lon="8.4371417"><ele>348.0</ele><time>2026-03-29T12:22:00.997Z</time></trkpt><trkpt lat="45.74185" lon="8.4369717"><ele>347.6666666666667</ele><time>2026-03-29T12:22:01.997Z</time></trkpt><trkpt lat="45.741945" lon="8.4367983"><ele>347.33333333333337</ele><time>2026-03-29T12:22:02.998Z</time></trkpt><trkpt lat="45.7420583" lon="8.4366333"><ele>347.0</ele><time>2026-03-29T12:22:03.997Z</time></trkpt><trkpt lat="45.7421733" lon="8.4364333"><ele>347.33333333333337</ele><time>2026-03-29T12:22:04.998Z</time></trkpt><trkpt lat="45.742275" lon="8.4362183"><ele>347.6666666666667</ele><time>2026-03-29T12:22:05.998Z</time></trkpt><trkpt lat="45.7423683" lon="8.4360067"><ele>348.0</ele><time>2026-03-29T12:22:06.997Z</time></trkpt><trkpt lat="45.7424783" lon="8.4357667"><ele>348.0</ele><time>2026-03-29T12:22:07.998Z</time></trkpt><trkpt lat="45.7425917" lon="8.4355667"><ele>348.0</ele><time>2026-03-29T12:22:08.998Z</time></trkpt><trkpt lat="45.7427133" lon="8.4353667"><ele>348.0</ele><time>2026-03-29T12:22:09.998Z</time></trkpt><trkpt lat="45.742805" lon="8.43515"><ele>348.0</ele><time>2026-03-29T12:22:10.998Z</time></trkpt><trkpt lat="45.742905" lon="8.4349417"><ele>348.0</ele><time>2026-03-29T12:22:11.997Z</time></trkpt><trkpt lat="45.74302" lon="8.4347417"><ele>348.0</ele><time>2026-03-29T12:22:12.998Z</time></trkpt><trkpt lat="45.74314" lon="8.4345533"><ele>348.3333333333333</ele><time>2026-03-29T12:22:13.998Z</time></trkpt><trkpt lat="45.743265" lon="8.4343467"><ele>348.66666666666663</ele><time>2026-03-29T12:22:14.997Z</time></trkpt><trkpt lat="45.7433967" lon="8.4341467"><ele>349.0</ele><time>2026-03-29T12:22:15.998Z</time></trkpt><trkpt lat="45.7435167" lon="8.4339483"><ele>349.3333333333333</ele><time>2026-03-29T12:22:16.998Z</time></trkpt><trkpt lat="45.7436367" lon="8.4337333"><ele>349.6666666666667</ele><time>2026-03-29T12:22:17.998Z</time></trkpt><trkpt lat="45.74375" lon="8.4335167"><ele>350.0</ele><time>2026-03-29T12:22:18.997Z</time></trkpt><trkpt lat="45.7438667" lon="8.4332983"><ele>350.0</ele><time>2026-03-29T12:22:19.998Z</time></trkpt><trkpt lat="45.7439833" lon="8.4330767"><ele>350.0</ele><time>2026-03-29T12:22:20.997Z</time></trkpt><trkpt lat="45.7441017" lon="8.4328617"><ele>350.0</ele><time>2026-03-29T12:22:21.997Z</time></trkpt><trkpt lat="45.7442167" lon="8.43265"><ele>350.33333333333337</ele><time>2026-03-29T12:22:22.998Z</time></trkpt><trkpt lat="45.7443283" lon="8.4324467"><ele>350.6666666666667</ele><time>2026-03-29T12:22:23.998Z</time></trkpt><trkpt lat="45.7444267" lon="8.4322533"><ele>351.0</ele><time>2026-03-29T12:22:24.998Z</time></trkpt><trkpt lat="45.7445267" lon="8.43207"><ele>351.0</ele><time>2026-03-29T12:22:25.997Z</time></trkpt><trkpt lat="45.7446283" lon="8.431885"><ele>351.0</ele><time>2026-03-29T12:22:26.998Z</time></trkpt><trkpt lat="45.7447233" lon="8.4317217"><ele>351.0</ele><time>2026-03-29T12:22:27.998Z</time></trkpt><trkpt lat="45.74481" lon="8.4315733"><ele>351.0</ele><time>2026-03-29T12:22:28.998Z</time></trkpt><trkpt lat="45.7448967" lon="8.4314317"><ele>351.0</ele><time>2026-03-29T12:22:29.998Z</time></trkpt><trkpt lat="45.7449583" lon="8.4312967"><ele>351.0</ele><time>2026-03-29T12:22:30.998Z</time></trkpt><trkpt lat="45.7450267" lon="8.4311783"><ele>351.0</ele><time>2026-03-29T12:22:31.997Z</time></trkpt><trkpt lat="45.7450833" lon="8.4310717"><ele>351.0</ele><time>2026-03-29T12:22:32.998Z</time></trkpt><trkpt lat="45.74513" lon="8.4309833"><ele>351.0</ele><time>2026-03-29T12:22:33.997Z</time></trkpt><trkpt lat="45.7451783" lon="8.4309"><ele>351.8</ele><time>2026-03-29T12:22:34.998Z</time></trkpt><trkpt lat="45.7452467" lon="8.4308267"><ele>352.6</ele><time>2026-03-29T12:22:35.998Z</time></trkpt><trkpt lat="45.7453083" lon="8.4307367"><ele>353.4</ele><time>2026-03-29T12:22:36.998Z</time></trkpt><trkpt lat="45.7453233" lon="8.43063"><ele>354.2</ele><time>2026-03-29T12:22:37.997Z</time></trkpt><trkpt lat="45.7453067" lon="8.4304817"><ele>355.0</ele><time>2026-03-29T12:22:38.998Z</time></trkpt><trkpt lat="45.7452867" lon="8.430295"><ele>355.0</ele><time>2026-03-29T12:22:39.998Z</time></trkpt><trkpt lat="45.7452733" lon="8.4300717"><ele>355.0</ele><time>2026-03-29T12:22:40.998Z</time></trkpt><trkpt lat="45.7452533" lon="8.4298317"><ele>355.0</ele><time>2026-03-29T12:22:41.998Z</time></trkpt><trkpt lat="45.7452367" lon="8.4295867"><ele>354.66666666666663</ele><time>2026-03-29T12:22:42.998Z</time></trkpt><trkpt lat="45.74522" lon="8.4293133"><ele>354.3333333333333</ele><time>2026-03-29T12:22:43.998Z</time></trkpt><trkpt lat="45.745205" lon="8.4290333"><ele>354.0</ele><time>2026-03-29T12:22:44.997Z</time></trkpt><trkpt lat="45.7452033" lon="8.428745"><ele>353.6666666666667</ele><time>2026-03-29T12:22:45.997Z</time></trkpt><trkpt lat="45.7451967" lon="8.428465"><ele>353.33333333333337</ele><time>2026-03-29T12:22:46.998Z</time></trkpt><trkpt lat="45.7452083" lon="8.4282233"><ele>353.0</ele><time>2026-03-29T12:22:47.997Z</time></trkpt><trkpt lat="45.7452217" lon="8.4280067"><ele>353.5</ele><time>2026-03-29T12:22:48.998Z</time></trkpt><trkpt lat="45.745235" lon="8.4278033"><ele>354.0</ele><time>2026-03-29T12:22:49.998Z</time></trkpt><trkpt lat="45.7452433" lon="8.4276033"><ele>354.5</ele><time>2026-03-29T12:22:50.997Z</time></trkpt><trkpt lat="45.7452483" lon="8.4274317"><ele>355.0</ele><time>2026-03-29T12:22:51.997Z</time></trkpt><trkpt lat="45.7452517" lon="8.4272983"><ele>355.0</ele><time>2026-03-29T12:22:52.997Z</time></trkpt><trkpt lat="45.7452617" lon="8.427195"><ele>355.0</ele><time>2026-03-29T12:22:53.998Z</time></trkpt><trkpt lat="45.7453267" lon="8.42711"><ele>355.0</ele><time>2026-03-29T12:22:54.998Z</time></trkpt><trkpt lat="45.7454017" lon="8.42702"><ele>355.0</ele><time>2026-03-29T12:22:55.998Z</time></trkpt><trkpt lat="45.7455133" lon="8.42694"><ele>355.0</ele><time>2026-03-29T12:22:56.998Z</time></trkpt><trkpt lat="45.7456217" lon="8.4268667"><ele>355.0</ele><time>2026-03-29T12:22:57.998Z</time></trkpt><trkpt lat="45.7457317" lon="8.4267783"><ele>355.0</ele><time>2026-03-29T12:22:58.998Z</time></trkpt><trkpt lat="45.74584" lon="8.4267067"><ele>355.0</ele><time>2026-03-29T12:22:59.997Z</time></trkpt><trkpt lat="45.74595" lon="8.4266283"><ele>355.0</ele><time>2026-03-29T12:23:00.997Z</time></trkpt><trkpt lat="45.746055" lon="8.4265517"><ele>355.0</ele><time>2026-03-29T12:23:01.998Z</time></trkpt><trkpt lat="45.74617" lon="8.4264867"><ele>355.0</ele><time>2026-03-29T12:23:02.998Z</time></trkpt><trkpt lat="45.7462917" lon="8.4264117"><ele>355.0</ele><time>2026-03-29T12:23:03.998Z</time></trkpt><trkpt lat="45.7464183" lon="8.4263483"><ele>355.0</ele><time>2026-03-29T12:23:04.998Z</time></trkpt><trkpt lat="45.746555" lon="8.426285"><ele>354.75</ele><time>2026-03-29T12:23:05.998Z</time></trkpt><trkpt lat="45.7466833" lon="8.4262083"><ele>354.5</ele><time>2026-03-29T12:23:06.997Z</time></trkpt><trkpt lat="45.7468133" lon="8.4261217"><ele>354.25</ele><time>2026-03-29T12:23:07.998Z</time></trkpt><trkpt lat="45.7469433" lon="8.4260317"><ele>354.0</ele><time>2026-03-29T12:23:08.998Z</time></trkpt><trkpt lat="45.7470783" lon="8.4259367"><ele>354.6666666666667</ele><time>2026-03-29T12:23:09.998Z</time></trkpt><trkpt lat="45.74722" lon="8.4258433"><ele>355.33333333333337</ele><time>2026-03-29T12:23:10.998Z</time></trkpt><trkpt lat="45.74736" lon="8.4257483"><ele>356.0</ele><time>2026-03-29T12:23:11.998Z</time></trkpt><trkpt lat="45.7474967" lon="8.42564"><ele>356.0</ele><time>2026-03-29T12:23:12.998Z</time></trkpt><trkpt lat="45.7476317" lon="8.4255483"><ele>356.0</ele><time>2026-03-29T12:23:13.998Z</time></trkpt><trkpt lat="45.7477683" lon="8.4254533"><ele>356.0</ele><time>2026-03-29T12:23:14.998Z</time></trkpt><trkpt lat="45.7479117" lon="8.4253783"><ele>355.6666666666667</ele><time>2026-03-29T12:23:15.998Z</time></trkpt><trkpt lat="45.748065" lon="8.4253067"><ele>355.3333333333333</ele><time>2026-03-29T12:23:16.998Z</time></trkpt><trkpt lat="45.748225" lon="8.42524"><ele>355.0</ele><time>2026-03-29T12:23:17.997Z</time></trkpt><trkpt lat="45.7483833" lon="8.4251817"><ele>356.3333333333333</ele><time>2026-03-29T12:23:18.997Z</time></trkpt><trkpt lat="45.7485467" lon="8.42513"><ele>357.6666666666667</ele><time>2026-03-29T12:23:19.998Z</time></trkpt><trkpt lat="45.7487" lon="8.4250833"><ele>359.0</ele><time>2026-03-29T12:23:20.998Z</time></trkpt><trkpt lat="45.7488667" lon="8.425035"><ele>359.0</ele><time>2026-03-29T12:23:21.998Z</time></trkpt><trkpt lat="45.7490417" lon="8.4249983"><ele>359.0</ele><time>2026-03-29T12:23:22.998Z</time></trkpt><trkpt lat="45.7492233" lon="8.42498"><ele>359.0</ele><time>2026-03-29T12:23:23.998Z</time></trkpt><trkpt lat="45.7494133" lon="8.4249783"><ele>360.0</ele><time>2026-03-29T12:23:24.997Z</time></trkpt><trkpt lat="45.7496033" lon="8.4249717"><ele>361.0</ele><time>2026-03-29T12:23:25.998Z</time></trkpt><trkpt lat="45.749775" lon="8.4249617"><ele>362.0</ele><time>2026-03-29T12:23:26.997Z</time></trkpt><trkpt lat="45.7499517" lon="8.4249817"><ele>362.0</ele><time>2026-03-29T12:23:27.998Z</time></trkpt><trkpt lat="45.750115" lon="8.424995"><ele>362.0</ele><time>2026-03-29T12:23:28.997Z</time></trkpt><trkpt lat="45.7502767" lon="8.42502"><ele>362.0</ele><time>2026-03-29T12:23:29.998Z</time></trkpt><trkpt lat="45.7504417" lon="8.4250367"><ele>361.6666666666667</ele><time>2026-03-29T12:23:30.997Z</time></trkpt><trkpt lat="45.7506317" lon="8.4250633"><ele>361.3333333333333</ele><time>2026-03-29T12:23:31.997Z</time></trkpt><trkpt lat="45.750815" lon="8.4250683"><ele>361.0</ele><time>2026-03-29T12:23:32.998Z</time></trkpt><trkpt lat="45.7509833" lon="8.425085"><ele>361.3333333333333</ele><time>2026-03-29T12:23:33.997Z</time></trkpt><trkpt lat="45.7511483" lon="8.425095"><ele>361.6666666666667</ele><time>2026-03-29T12:23:34.998Z</time></trkpt><trkpt lat="45.7513183" lon="8.4251017"><ele>362.0</ele><time>2026-03-29T12:23:35.997Z</time></trkpt><trkpt lat="45.7514733" lon="8.425105"><ele>362.0</ele><time>2026-03-29T12:23:36.998Z</time></trkpt><trkpt lat="45.7516233" lon="8.425105"><ele>362.0</ele><time>2026-03-29T12:23:37.998Z</time></trkpt><trkpt lat="45.7517683" lon="8.42514"><ele>362.0</ele><time>2026-03-29T12:23:38.997Z</time></trkpt><trkpt lat="45.7519167" lon="8.425125"><ele>362.0</ele><time>2026-03-29T12:23:39.997Z</time></trkpt><trkpt lat="45.7520567" lon="8.425125"><ele>362.25</ele><time>2026-03-29T12:23:40.997Z</time></trkpt><trkpt lat="45.7522" lon="8.4251167"><ele>362.5</ele><time>2026-03-29T12:23:41.998Z</time></trkpt><trkpt lat="45.7523417" lon="8.4251083"><ele>362.75</ele><time>2026-03-29T12:23:42.998Z</time></trkpt><trkpt lat="45.7524767" lon="8.425085"><ele>363.0</ele><time>2026-03-29T12:23:43.998Z</time></trkpt><trkpt lat="45.7526017" lon="8.425075"><ele>363.0</ele><time>2026-03-29T12:23:44.997Z</time></trkpt><trkpt lat="45.7526983" lon="8.4250533"><ele>363.0</ele><time>2026-03-29T12:23:45.997Z</time></trkpt><trkpt lat="45.7527833" lon="8.425025"><ele>363.0</ele><time>2026-03-29T12:23:46.998Z</time></trkpt><trkpt lat="45.7528683" lon="8.4250033"><ele>363.0</ele><time>2026-03-29T12:23:47.998Z</time></trkpt><trkpt lat="45.7529333" lon="8.424995"><ele>363.0</ele><time>2026-03-29T12:23:48.997Z</time></trkpt><trkpt lat="45.7530533" lon="8.4250017"><ele>363.0</ele><time>2026-03-29T12:23:50.998Z</time></trkpt><trkpt lat="45.75312" lon="8.4250317"><ele>363.0</ele><time>2026-03-29T12:23:51.998Z</time></trkpt><trkpt lat="45.7531883" lon="8.4250033"><ele>363.0</ele><time>2026-03-29T12:23:52.998Z</time></trkpt><trkpt lat="45.7532483" lon="8.4249483"><ele>363.0</ele><time>2026-03-29T12:23:53.998Z</time></trkpt><trkpt lat="45.7533217" lon="8.424865"><ele>363.0</ele><time>2026-03-29T12:23:54.998Z</time></trkpt><trkpt lat="45.7533833" lon="8.4246933"><ele>363.0</ele><time>2026-03-29T12:23:55.998Z</time></trkpt><trkpt lat="45.7534633" lon="8.4245083"><ele>363.3333333333333</ele><time>2026-03-29T12:23:56.998Z</time></trkpt><trkpt lat="45.753565" lon="8.424305"><ele>363.66666666666663</ele><time>2026-03-29T12:23:57.997Z</time></trkpt><trkpt lat="45.753685" lon="8.42411"><ele>364.0</ele><time>2026-03-29T12:23:58.998Z</time></trkpt><trkpt lat="45.7538067" lon="8.423915"><ele>364.25</ele><time>2026-03-29T12:23:59.997Z</time></trkpt><trkpt lat="45.7539" lon="8.4237367"><ele>364.5</ele><time>2026-03-29T12:24:00.998Z</time></trkpt><trkpt lat="45.754" lon="8.4235917"><ele>364.75</ele><time>2026-03-29T12:24:01.998Z</time></trkpt><trkpt lat="45.7540617" lon="8.4234417"><ele>365.0</ele><time>2026-03-29T12:24:02.998Z</time></trkpt><trkpt lat="45.7541167" lon="8.4232883"><ele>365.0</ele><time>2026-03-29T12:24:03.997Z</time></trkpt><trkpt lat="45.7541783" lon="8.42312"><ele>365.0</ele><time>2026-03-29T12:24:04.998Z</time></trkpt><trkpt lat="45.7542367" lon="8.42294"><ele>365.0</ele><time>2026-03-29T12:24:05.998Z</time></trkpt><trkpt lat="45.7543033" lon="8.4227467"><ele>365.0</ele><time>2026-03-29T12:24:06.998Z</time></trkpt><trkpt lat="45.75437" lon="8.422515"><ele>364.6666666666667</ele><time>2026-03-29T12:24:07.998Z</time></trkpt><trkpt lat="45.7544517" lon="8.4222683"><ele>364.3333333333333</ele><time>2026-03-29T12:24:08.998Z</time></trkpt><trkpt lat="45.754545" lon="8.422015"><ele>364.0</ele><time>2026-03-29T12:24:09.998Z</time></trkpt><trkpt lat="45.754645" lon="8.421765"><ele>364.0</ele><time>2026-03-29T12:24:10.998Z</time></trkpt><trkpt lat="45.754745" lon="8.4215283"><ele>364.0</ele><time>2026-03-29T12:24:11.998Z</time></trkpt><trkpt lat="45.7548467" lon="8.4213033"><ele>364.0</ele><time>2026-03-29T12:24:12.998Z</time></trkpt><trkpt lat="45.7549467" lon="8.42109"><ele>364.0</ele><time>2026-03-29T12:24:13.998Z</time></trkpt><trkpt lat="45.7550317" lon="8.4208867"><ele>364.0</ele><time>2026-03-29T12:24:14.998Z</time></trkpt><trkpt lat="45.7550983" lon="8.4206967"><ele>364.0</ele><time>2026-03-29T12:24:15.997Z</time></trkpt><trkpt lat="45.7551683" lon="8.420535"><ele>364.0</ele><time>2026-03-29T12:24:16.998Z</time></trkpt><trkpt lat="45.7552333" lon="8.4203667"><ele>364.4</ele><time>2026-03-29T12:24:17.998Z</time></trkpt><trkpt lat="45.75531" lon="8.4202283"><ele>364.79999999999995</ele><time>2026-03-29T12:24:18.997Z</time></trkpt><trkpt lat="45.7553917" lon="8.4201133"><ele>365.20000000000005</ele><time>2026-03-29T12:24:19.998Z</time></trkpt><trkpt lat="45.7554733" lon="8.42004"><ele>365.6</ele><time>2026-03-29T12:24:20.998Z</time></trkpt><trkpt lat="45.755545" lon="8.419995"><ele>366.0</ele><time>2026-03-29T12:24:21.998Z</time></trkpt><trkpt lat="45.755615" lon="8.41995"><ele>366.0</ele><time>2026-03-29T12:24:22.998Z</time></trkpt><trkpt lat="45.755675" lon="8.419895"><ele>366.0</ele><time>2026-03-29T12:24:23.998Z</time></trkpt><trkpt lat="45.7557383" lon="8.41985"><ele>366.0</ele><time>2026-03-29T12:24:24.998Z</time></trkpt><trkpt lat="45.7557667" lon="8.419755"><ele>366.0</ele><time>2026-03-29T12:24:25.998Z</time></trkpt><trkpt lat="45.7557567" lon="8.4196217"><ele>366.0</ele><time>2026-03-29T12:24:26.998Z</time></trkpt><trkpt lat="45.7557317" lon="8.4194933"><ele>366.0</ele><time>2026-03-29T12:24:27.998Z</time></trkpt><trkpt lat="45.75571" lon="8.4193317"><ele>365.75</ele><time>2026-03-29T12:24:28.997Z</time></trkpt><trkpt lat="45.755715" lon="8.4191467"><ele>365.5</ele><time>2026-03-29T12:24:29.997Z</time></trkpt><trkpt lat="45.7557567" lon="8.4189333"><ele>365.25</ele><time>2026-03-29T12:24:30.998Z</time></trkpt><trkpt lat="45.7558233" lon="8.4187367"><ele>365.0</ele><time>2026-03-29T12:24:31.997Z</time></trkpt><trkpt lat="45.75589" lon="8.41857"><ele>365.0</ele><time>2026-03-29T12:24:32.998Z</time></trkpt><trkpt lat="45.7559533" lon="8.4184467"><ele>365.0</ele><time>2026-03-29T12:24:33.998Z</time></trkpt><trkpt lat="45.7560067" lon="8.4183283"><ele>365.0</ele><time>2026-03-29T12:24:34.998Z</time></trkpt><trkpt lat="45.75605" lon="8.418215"><ele>365.0</ele><time>2026-03-29T12:24:35.997Z</time></trkpt><trkpt lat="45.7560967" lon="8.4181217"><ele>365.0</ele><time>2026-03-29T12:24:36.998Z</time></trkpt><trkpt lat="45.7561383" lon="8.4180317"><ele>365.75</ele><time>2026-03-29T12:24:37.997Z</time></trkpt><trkpt lat="45.7561717" lon="8.41795"><ele>366.5</ele><time>2026-03-29T12:24:38.998Z</time></trkpt><trkpt lat="45.7562133" lon="8.4178367"><ele>367.25</ele><time>2026-03-29T12:24:39.998Z</time></trkpt><trkpt lat="45.7562733" lon="8.417665"><ele>368.0</ele><time>2026-03-29T12:24:40.998Z</time></trkpt><trkpt lat="45.7563483" lon="8.4174617"><ele>368.0</ele><time>2026-03-29T12:24:41.998Z</time></trkpt><trkpt lat="45.7564267" lon="8.41722"><ele>368.0</ele><time>2026-03-29T12:24:42.997Z</time></trkpt><trkpt lat="45.7565317" lon="8.4169683"><ele>368.0</ele><time>2026-03-29T12:24:43.997Z</time></trkpt><trkpt lat="45.7566367" lon="8.4166883"><ele>368.0</ele><time>2026-03-29T12:24:44.998Z</time></trkpt><trkpt lat="45.7567433" lon="8.4163817"><ele>368.0</ele><time>2026-03-29T12:24:45.997Z</time></trkpt><trkpt lat="45.7568517" lon="8.416065"><ele>368.0</ele><time>2026-03-29T12:24:46.998Z</time></trkpt><trkpt lat="45.756955" lon="8.4157267"><ele>368.0</ele><time>2026-03-29T12:24:47.998Z</time></trkpt><trkpt lat="45.757045" lon="8.4153883"><ele>368.0</ele><time>2026-03-29T12:24:48.998Z</time></trkpt><trkpt lat="45.7571283" lon="8.41506"><ele>368.0</ele><time>2026-03-29T12:24:49.998Z</time></trkpt><trkpt lat="45.757205" lon="8.414755"><ele>369.0</ele><time>2026-03-29T12:24:50.997Z</time></trkpt><trkpt lat="45.75727" lon="8.41445"><ele>370.0</ele><time>2026-03-29T12:24:51.997Z</time></trkpt><trkpt lat="45.757335" lon="8.4141483"><ele>371.0</ele><time>2026-03-29T12:24:52.998Z</time></trkpt><trkpt lat="45.7574117" lon="8.4138367"><ele>372.0</ele><time>2026-03-29T12:24:53.998Z</time></trkpt><trkpt lat="45.75749" lon="8.4135183"><ele>373.0</ele><time>2026-03-29T12:24:54.998Z</time></trkpt><trkpt lat="45.7575633" lon="8.4131883"><ele>374.0</ele><time>2026-03-29T12:24:55.998Z</time></trkpt><trkpt lat="45.757645" lon="8.4128333"><ele>375.0</ele><time>2026-03-29T12:24:56.998Z</time></trkpt><trkpt lat="45.757715" lon="8.4124467"><ele>376.0</ele><time>2026-03-29T12:24:57.998Z</time></trkpt><trkpt lat="45.757775" lon="8.4120233"><ele>377.0</ele><time>2026-03-29T12:24:58.998Z</time></trkpt><trkpt lat="45.7578167" lon="8.4115467"><ele>376.0</ele><time>2026-03-29T12:24:59.998Z</time></trkpt><trkpt lat="45.75786" lon="8.4110533"><ele>375.0</ele><time>2026-03-29T12:25:00.997Z</time></trkpt><trkpt lat="45.75791" lon="8.4105333"><ele>374.0</ele><time>2026-03-29T12:25:01.998Z</time></trkpt><trkpt lat="45.7579717" lon="8.409975"><ele>373.0</ele><time>2026-03-29T12:25:02.998Z</time></trkpt><trkpt lat="45.75803" lon="8.409405"><ele>375.5</ele><time>2026-03-29T12:25:03.998Z</time></trkpt><trkpt lat="45.758075" lon="8.408875"><ele>378.0</ele><time>2026-03-29T12:25:04.998Z</time></trkpt><trkpt lat="45.75812" lon="8.4083733"><ele>380.5</ele><time>2026-03-29T12:25:05.998Z</time></trkpt><trkpt lat="45.75816" lon="8.407895"><ele>383.0</ele><time>2026-03-29T12:25:06.998Z</time></trkpt><trkpt lat="45.7582017" lon="8.4074233"><ele>383.5</ele><time>2026-03-29T12:25:07.998Z</time></trkpt><trkpt lat="45.7582417" lon="8.4069633"><ele>384.0</ele><time>2026-03-29T12:25:08.998Z</time></trkpt><trkpt lat="45.7582883" lon="8.406535"><ele>384.5</ele><time>2026-03-29T12:25:09.998Z</time></trkpt><trkpt lat="45.7583367" lon="8.4061133"><ele>385.0</ele><time>2026-03-29T12:25:10.998Z</time></trkpt><trkpt lat="45.7583783" lon="8.4057183"><ele>385.5</ele><time>2026-03-29T12:25:11.998Z</time></trkpt><trkpt lat="45.75841" lon="8.4053333"><ele>386.0</ele><time>2026-03-29T12:25:12.998Z</time></trkpt><trkpt lat="45.7584383" lon="8.4049767"><ele>386.0</ele><time>2026-03-29T12:25:13.997Z</time></trkpt><trkpt lat="45.758465" lon="8.4046333"><ele>386.0</ele><time>2026-03-29T12:25:14.997Z</time></trkpt><trkpt lat="45.75849" lon="8.404315"><ele>386.0</ele><time>2026-03-29T12:25:15.998Z</time></trkpt><trkpt lat="45.7584933" lon="8.4039967"><ele>386.0</ele><time>2026-03-29T12:25:16.998Z</time></trkpt><trkpt lat="45.7584683" lon="8.4036817"><ele>386.0</ele><time>2026-03-29T12:25:17.998Z</time></trkpt><trkpt lat="45.75841" lon="8.4033533"><ele>385.5</ele><time>2026-03-29T12:25:18.998Z</time></trkpt><trkpt lat="45.758325" lon="8.4030267"><ele>385.0</ele><time>2026-03-29T12:25:19.998Z</time></trkpt><trkpt lat="45.75823" lon="8.402705"><ele>384.0</ele><time>2026-03-29T12:25:20.997Z</time></trkpt><trkpt lat="45.7580983" lon="8.402395"><ele>383.0</ele><time>2026-03-29T12:25:21.998Z</time></trkpt><trkpt lat="45.75797" lon="8.40208"><ele>382.0</ele><time>2026-03-29T12:25:22.998Z</time></trkpt><trkpt lat="45.75784" lon="8.401735"><ele>381.0</ele><time>2026-03-29T12:25:23.997Z</time></trkpt><trkpt lat="45.7577267" lon="8.4013783"><ele>390.0</ele><time>2026-03-29T12:25:24.997Z</time></trkpt><trkpt lat="45.7576267" lon="8.4010367"><ele>399.0</ele><time>2026-03-29T12:25:25.996Z</time></trkpt><trkpt lat="45.7575617" lon="8.4007317"><ele>398.0</ele><time>2026-03-29T12:25:26.997Z</time></trkpt><trkpt lat="45.7575033" lon="8.40042"><ele>397.0</ele><time>2026-03-29T12:25:27.996Z</time></trkpt><trkpt lat="45.7574417" lon="8.4001183"><ele>396.0</ele><time>2026-03-29T12:25:28.997Z</time></trkpt><trkpt lat="45.7573833" lon="8.3998117"><ele>394.66666666666663</ele><time>2026-03-29T12:25:29.996Z</time></trkpt><trkpt lat="45.7573533" lon="8.3994867"><ele>393.3333333333333</ele><time>2026-03-29T12:25:30.997Z</time></trkpt><trkpt lat="45.757375" lon="8.3992017"><ele>392.0</ele><time>2026-03-29T12:25:31.997Z</time></trkpt><trkpt lat="45.7573933" lon="8.3989167"><ele>390.0</ele><time>2026-03-29T12:25:32.997Z</time></trkpt><trkpt lat="45.7573583" lon="8.3986067"><ele>388.0</ele><time>2026-03-29T12:25:33.997Z</time></trkpt><trkpt lat="45.7572817" lon="8.398295"><ele>387.5</ele><time>2026-03-29T12:25:34.997Z</time></trkpt><trkpt lat="45.7572" lon="8.3979783"><ele>387.0</ele><time>2026-03-29T12:25:35.997Z</time></trkpt><trkpt lat="45.7571333" lon="8.3976483"><ele>387.0</ele><time>2026-03-29T12:25:36.997Z</time></trkpt><trkpt lat="45.757135" lon="8.397305"><ele>387.0</ele><time>2026-03-29T12:25:37.997Z</time></trkpt><trkpt lat="45.757095" lon="8.396975"><ele>387.33333333333337</ele><time>2026-03-29T12:25:38.997Z</time></trkpt><trkpt lat="45.7570433" lon="8.39668"><ele>387.6666666666667</ele><time>2026-03-29T12:25:39.997Z</time></trkpt><trkpt lat="45.7569933" lon="8.3964217"><ele>388.0</ele><time>2026-03-29T12:25:40.997Z</time></trkpt><trkpt lat="45.75692" lon="8.3961717"><ele>400.0</ele><time>2026-03-29T12:25:41.996Z</time></trkpt><trkpt lat="45.7567983" lon="8.395925"><ele>412.0</ele><time>2026-03-29T12:25:42.996Z</time></trkpt><trkpt lat="45.7566517" lon="8.3956467"><ele>410.0</ele><time>2026-03-29T12:25:43.997Z</time></trkpt><trkpt lat="45.756545" lon="8.3953583"><ele>408.0</ele><time>2026-03-29T12:25:44.997Z</time></trkpt><trkpt lat="45.756435" lon="8.3950717"><ele>408.0</ele><time>2026-03-29T12:25:45.997Z</time></trkpt><trkpt lat="45.7563467" lon="8.3947983"><ele>408.0</ele><time>2026-03-29T12:25:46.997Z</time></trkpt><trkpt lat="45.756285" lon="8.3944767"><ele>408.0</ele><time>2026-03-29T12:25:47.996Z</time></trkpt><trkpt lat="45.7562583" lon="8.3941567"><ele>412.0</ele><time>2026-03-29T12:25:48.996Z</time></trkpt><trkpt lat="45.756245" lon="8.3938367"><ele>416.0</ele><time>2026-03-29T12:25:49.997Z</time></trkpt><trkpt lat="45.7562283" lon="8.3935133"><ele>416.0</ele><time>2026-03-29T12:25:50.997Z</time></trkpt><trkpt lat="45.7562317" lon="8.3931967"><ele>416.0</ele><time>2026-03-29T12:25:51.996Z</time></trkpt><trkpt lat="45.7562567" lon="8.3928933"><ele>416.0</ele><time>2026-03-29T12:25:52.996Z</time></trkpt><trkpt lat="45.7562883" lon="8.392605"><ele>416.3333333333333</ele><time>2026-03-29T12:25:53.997Z</time></trkpt><trkpt lat="45.75629" lon="8.39232"><ele>416.66666666666663</ele><time>2026-03-29T12:25:54.996Z</time></trkpt><trkpt lat="45.7562617" lon="8.3920067"><ele>417.0</ele><time>2026-03-29T12:25:55.997Z</time></trkpt><trkpt lat="45.7562617" lon="8.39168"><ele>417.0</ele><time>2026-03-29T12:25:56.997Z</time></trkpt><trkpt lat="45.7562433" lon="8.3913583"><ele>417.0</ele><time>2026-03-29T12:25:57.997Z</time></trkpt><trkpt lat="45.756245" lon="8.3910433"><ele>417.0</ele><time>2026-03-29T12:25:58.996Z</time></trkpt><trkpt lat="45.756215" lon="8.39075"><ele>422.0</ele><time>2026-03-29T12:25:59.997Z</time></trkpt><trkpt lat="45.7561867" lon="8.3904667"><ele>427.0</ele><time>2026-03-29T12:26:00.997Z</time></trkpt><trkpt lat="45.7561433" lon="8.3902017"><ele>432.0</ele><time>2026-03-29T12:26:01.997Z</time></trkpt><trkpt lat="45.7560517" lon="8.38997"><ele>435.25</ele><time>2026-03-29T12:26:02.997Z</time></trkpt><trkpt lat="45.7559667" lon="8.3897767"><ele>438.5</ele><time>2026-03-29T12:26:03.996Z</time></trkpt><trkpt lat="45.7558817" lon="8.3896"><ele>441.75</ele><time>2026-03-29T12:26:04.996Z</time></trkpt><trkpt lat="45.755815" lon="8.3894417"><ele>445.0</ele><time>2026-03-29T12:26:05.997Z</time></trkpt><trkpt lat="45.7557767" lon="8.3892783"><ele>445.25</ele><time>2026-03-29T12:26:06.997Z</time></trkpt><trkpt lat="45.75577" lon="8.3891017"><ele>445.5</ele><time>2026-03-29T12:26:07.996Z</time></trkpt><trkpt lat="45.7558" lon="8.3889117"><ele>445.75</ele><time>2026-03-29T12:26:08.997Z</time></trkpt><trkpt lat="45.7558683" lon="8.3887433"><ele>446.0</ele><time>2026-03-29T12:26:09.997Z</time></trkpt><trkpt lat="45.7559583" lon="8.3885933"><ele>446.0</ele><time>2026-03-29T12:26:10.997Z</time></trkpt><trkpt lat="45.7560483" lon="8.3884483"><ele>446.0</ele><time>2026-03-29T12:26:11.997Z</time></trkpt><trkpt lat="45.7561317" lon="8.3882867"><ele>446.0</ele><time>2026-03-29T12:26:12.997Z</time></trkpt><trkpt lat="45.7562133" lon="8.388125"><ele>446.0</ele><time>2026-03-29T12:26:13.996Z</time></trkpt><trkpt lat="45.75629" lon="8.3879683"><ele>447.0</ele><time>2026-03-29T12:26:14.996Z</time></trkpt><trkpt lat="45.75636" lon="8.3878133"><ele>448.0</ele><time>2026-03-29T12:26:15.997Z</time></trkpt><trkpt lat="45.756425" lon="8.38765"><ele>449.0</ele><time>2026-03-29T12:26:16.996Z</time></trkpt><trkpt lat="45.7564867" lon="8.3875033"><ele>450.0</ele><time>2026-03-29T12:26:17.996Z</time></trkpt><trkpt lat="45.7565467" lon="8.3873633"><ele>450.0</ele><time>2026-03-29T12:26:18.996Z</time></trkpt><trkpt lat="45.7566117" lon="8.38722"><ele>450.0</ele><time>2026-03-29T12:26:19.997Z</time></trkpt><trkpt lat="45.7566883" lon="8.387065"><ele>450.0</ele><time>2026-03-29T12:26:20.996Z</time></trkpt><trkpt lat="45.756765" lon="8.386915"><ele>450.0</ele><time>2026-03-29T12:26:21.997Z</time></trkpt><trkpt lat="45.75684" lon="8.386775"><ele>451.25</ele><time>2026-03-29T12:26:22.996Z</time></trkpt><trkpt lat="45.75691" lon="8.386625"><ele>452.5</ele><time>2026-03-29T12:26:23.997Z</time></trkpt><trkpt lat="45.7569867" lon="8.38648"><ele>453.75</ele><time>2026-03-29T12:26:24.997Z</time></trkpt><trkpt lat="45.75706" lon="8.3863317"><ele>455.0</ele><time>2026-03-29T12:26:25.997Z</time></trkpt><trkpt lat="45.7571367" lon="8.3861917"><ele>456.0</ele><time>2026-03-29T12:26:26.997Z</time></trkpt><trkpt lat="45.7572083" lon="8.3860383"><ele>457.0</ele><time>2026-03-29T12:26:27.996Z</time></trkpt><trkpt lat="45.7572733" lon="8.3859183"><ele>458.0</ele><time>2026-03-29T12:26:28.997Z</time></trkpt><trkpt lat="45.75733" lon="8.3858083"><ele>459.0</ele><time>2026-03-29T12:26:29.996Z</time></trkpt><trkpt lat="45.757385" lon="8.385705"><ele>460.0</ele><time>2026-03-29T12:26:30.997Z</time></trkpt><trkpt lat="45.75744" lon="8.385595"><ele>459.8</ele><time>2026-03-29T12:26:31.996Z</time></trkpt><trkpt lat="45.7574983" lon="8.385485"><ele>459.6</ele><time>2026-03-29T12:26:32.997Z</time></trkpt><trkpt lat="45.7575567" lon="8.38537"><ele>459.4</ele><time>2026-03-29T12:26:33.997Z</time></trkpt><trkpt lat="45.757615" lon="8.3852517"><ele>459.2</ele><time>2026-03-29T12:26:34.997Z</time></trkpt><trkpt lat="45.7576733" lon="8.3851283"><ele>459.0</ele><time>2026-03-29T12:26:35.997Z</time></trkpt><trkpt lat="45.7577367" lon="8.3850067"><ele>459.0</ele><time>2026-03-29T12:26:36.996Z</time></trkpt><trkpt lat="45.7578033" lon="8.3848867"><ele>459.0</ele><time>2026-03-29T12:26:37.996Z</time></trkpt><trkpt lat="45.7578633" lon="8.3847583"><ele>459.0</ele><time>2026-03-29T12:26:38.997Z</time></trkpt><trkpt lat="45.7579183" lon="8.3846483"><ele>459.0</ele><time>2026-03-29T12:26:39.997Z</time></trkpt><trkpt lat="45.75797" lon="8.3845417"><ele>459.0</ele><time>2026-03-29T12:26:40.996Z</time></trkpt><trkpt lat="45.7580217" lon="8.38444"><ele>459.0</ele><time>2026-03-29T12:26:41.997Z</time></trkpt><trkpt lat="45.7580733" lon="8.38434"><ele>459.0</ele><time>2026-03-29T12:26:42.997Z</time></trkpt><trkpt lat="45.75812" lon="8.3842467"><ele>459.0</ele><time>2026-03-29T12:26:43.997Z</time></trkpt><trkpt lat="45.7581667" lon="8.38416"><ele>459.0</ele><time>2026-03-29T12:26:44.997Z</time></trkpt><trkpt lat="45.7582167" lon="8.3840733"><ele>459.0</ele><time>2026-03-29T12:26:45.996Z</time></trkpt><trkpt lat="45.7582583" lon="8.3839967"><ele>459.0</ele><time>2026-03-29T12:26:46.996Z</time></trkpt><trkpt lat="45.7583133" lon="8.3839067"><ele>459.5</ele><time>2026-03-29T12:26:47.997Z</time></trkpt><trkpt lat="45.7583533" lon="8.3837967"><ele>460.0</ele><time>2026-03-29T12:26:48.997Z</time></trkpt><trkpt lat="45.7583617" lon="8.38369"><ele>460.5</ele><time>2026-03-29T12:26:49.997Z</time></trkpt><trkpt lat="45.7583483" lon="8.3836017"><ele>461.0</ele><time>2026-03-29T12:26:50.996Z</time></trkpt><trkpt lat="45.75831" lon="8.3835183"><ele>461.5</ele><time>2026-03-29T12:26:51.996Z</time></trkpt><trkpt lat="45.7582383" lon="8.38341"><ele>462.0</ele><time>2026-03-29T12:26:52.996Z</time></trkpt><trkpt lat="45.75803" lon="8.3832633"><ele>462.0</ele><time>2026-03-29T12:26:53.996Z</time></trkpt><trkpt lat="45.7578533" lon="8.3831167"><ele>462.0</ele><time>2026-03-29T12:26:54.997Z</time></trkpt><trkpt lat="45.7577167" lon="8.38297"><ele>462.0</ele><time>2026-03-29T12:26:55.997Z</time></trkpt><trkpt lat="45.7575683" lon="8.3828217"><ele>462.66666666666663</ele><time>2026-03-29T12:26:56.997Z</time></trkpt><trkpt lat="45.7574317" lon="8.3826633"><ele>463.3333333333333</ele><time>2026-03-29T12:26:57.996Z</time></trkpt><trkpt lat="45.7572967" lon="8.382505"><ele>464.0</ele><time>2026-03-29T12:26:58.997Z</time></trkpt><trkpt lat="45.7571767" lon="8.3823683"><ele>464.0</ele><time>2026-03-29T12:26:59.997Z</time></trkpt><trkpt lat="45.7570633" lon="8.3822417"><ele>464.0</ele><time>2026-03-29T12:27:00.997Z</time></trkpt><trkpt lat="45.7569517" lon="8.3821383"><ele>464.0</ele><time>2026-03-29T12:27:01.997Z</time></trkpt><trkpt lat="45.7568433" lon="8.3820067"><ele>464.0</ele><time>2026-03-29T12:27:02.997Z</time></trkpt><trkpt lat="45.7567317" lon="8.3818867"><ele>464.75</ele><time>2026-03-29T12:27:03.996Z</time></trkpt><trkpt lat="45.7566217" lon="8.38176"><ele>465.5</ele><time>2026-03-29T12:27:04.997Z</time></trkpt><trkpt lat="45.7565117" lon="8.38163"><ele>466.25</ele><time>2026-03-29T12:27:05.997Z</time></trkpt><trkpt lat="45.7564033" lon="8.38151"><ele>467.0</ele><time>2026-03-29T12:27:06.996Z</time></trkpt><trkpt lat="45.7562833" lon="8.3813833"><ele>467.25</ele><time>2026-03-29T12:27:07.997Z</time></trkpt><trkpt lat="45.7561683" lon="8.38125"><ele>467.5</ele><time>2026-03-29T12:27:08.997Z</time></trkpt><trkpt lat="45.7560467" lon="8.3811317"><ele>467.75</ele><time>2026-03-29T12:27:09.997Z</time></trkpt><trkpt lat="45.755925" lon="8.3810117"><ele>468.0</ele><time>2026-03-29T12:27:10.997Z</time></trkpt><trkpt lat="45.75581" lon="8.3808967"><ele>468.33333333333337</ele><time>2026-03-29T12:27:11.996Z</time></trkpt><trkpt lat="45.755685" lon="8.3807617"><ele>468.6666666666667</ele><time>2026-03-29T12:27:12.997Z</time></trkpt><trkpt lat="45.7555517" lon="8.38064"><ele>469.0</ele><time>2026-03-29T12:27:13.997Z</time></trkpt><trkpt lat="45.7554117" lon="8.380535"><ele>469.6666666666667</ele><time>2026-03-29T12:27:14.997Z</time></trkpt><trkpt lat="45.7552783" lon="8.3804583"><ele>470.33333333333337</ele><time>2026-03-29T12:27:15.997Z</time></trkpt><trkpt lat="45.75512" lon="8.3803817"><ele>471.0</ele><time>2026-03-29T12:27:16.997Z</time></trkpt><trkpt lat="45.7549583" lon="8.3803367"><ele>471.66666666666663</ele><time>2026-03-29T12:27:17.997Z</time></trkpt><trkpt lat="45.7547967" lon="8.3803083"><ele>472.3333333333333</ele><time>2026-03-29T12:27:18.996Z</time></trkpt><trkpt lat="45.754635" lon="8.3802933"><ele>473.0</ele><time>2026-03-29T12:27:19.997Z</time></trkpt><trkpt lat="45.7544633" lon="8.3803117"><ele>473.0</ele><time>2026-03-29T12:27:20.997Z</time></trkpt><trkpt lat="45.7543033" lon="8.380345"><ele>473.0</ele><time>2026-03-29T12:27:21.996Z</time></trkpt><trkpt lat="45.7541433" lon="8.3803833"><ele>473.0</ele><time>2026-03-29T12:27:22.996Z</time></trkpt><trkpt lat="45.75398" lon="8.3804317"><ele>473.0</ele><time>2026-03-29T12:27:23.997Z</time></trkpt><trkpt lat="45.7538233" lon="8.380485"><ele>473.0</ele><time>2026-03-29T12:27:24.997Z</time></trkpt><trkpt lat="45.7536583" lon="8.3805267"><ele>473.0</ele><time>2026-03-29T12:27:25.997Z</time></trkpt><trkpt lat="45.7534933" lon="8.3805617"><ele>470.3333333333333</ele><time>2026-03-29T12:27:26.997Z</time></trkpt><trkpt lat="45.7533217" lon="8.3806"><ele>467.66666666666663</ele><time>2026-03-29T12:27:27.997Z</time></trkpt><trkpt lat="45.7531533" lon="8.3806367"><ele>465.0</ele><time>2026-03-29T12:27:28.997Z</time></trkpt><trkpt lat="45.7529933" lon="8.3806833"><ele>465.0</ele><time>2026-03-29T12:27:29.997Z</time></trkpt><trkpt lat="45.752845" lon="8.3807317"><ele>465.0</ele><time>2026-03-29T12:27:30.997Z</time></trkpt><trkpt lat="45.7526833" lon="8.3807817"><ele>465.0</ele><time>2026-03-29T12:27:31.997Z</time></trkpt><trkpt lat="45.752515" lon="8.38082"><ele>468.0</ele><time>2026-03-29T12:27:32.997Z</time></trkpt><trkpt lat="45.7523417" lon="8.380875"><ele>471.0</ele><time>2026-03-29T12:27:33.997Z</time></trkpt><trkpt lat="45.75216" lon="8.3809267"><ele>474.0</ele><time>2026-03-29T12:27:34.997Z</time></trkpt><trkpt lat="45.7519633" lon="8.380985"><ele>475.66666666666663</ele><time>2026-03-29T12:27:35.997Z</time></trkpt><trkpt lat="45.751755" lon="8.38103"><ele>477.3333333333333</ele><time>2026-03-29T12:27:36.996Z</time></trkpt><trkpt lat="45.7515333" lon="8.3810883"><ele>479.0</ele><time>2026-03-29T12:27:37.996Z</time></trkpt><trkpt lat="45.7513317" lon="8.381135"><ele>479.0</ele><time>2026-03-29T12:27:38.997Z</time></trkpt><trkpt lat="45.7511367" lon="8.38118"><ele>479.0</ele><time>2026-03-29T12:27:39.996Z</time></trkpt><trkpt lat="45.7509383" lon="8.3812167"><ele>479.0</ele><time>2026-03-29T12:27:40.997Z</time></trkpt><trkpt lat="45.750745" lon="8.3812583"><ele>479.0</ele><time>2026-03-29T12:27:41.997Z</time></trkpt><trkpt lat="45.7505467" lon="8.3813083"><ele>479.0</ele><time>2026-03-29T12:27:42.997Z</time></trkpt><trkpt lat="45.7503533" lon="8.3813483"><ele>479.0</ele><time>2026-03-29T12:27:43.997Z</time></trkpt><trkpt lat="45.7501517" lon="8.38141"><ele>479.0</ele><time>2026-03-29T12:27:44.996Z</time></trkpt><trkpt lat="45.74996" lon="8.3814583"><ele>479.0</ele><time>2026-03-29T12:27:45.997Z</time></trkpt><trkpt lat="45.7497583" lon="8.3815133"><ele>479.0</ele><time>2026-03-29T12:27:46.997Z</time></trkpt><trkpt lat="45.74955" lon="8.381565"><ele>480.0</ele><time>2026-03-29T12:27:47.996Z</time></trkpt><trkpt lat="45.7493333" lon="8.381625"><ele>481.0</ele><time>2026-03-29T12:27:48.996Z</time></trkpt><trkpt lat="45.7491233" lon="8.381685"><ele>482.0</ele><time>2026-03-29T12:27:49.997Z</time></trkpt><trkpt lat="45.7489083" lon="8.3817667"><ele>482.0</ele><time>2026-03-29T12:27:50.996Z</time></trkpt><trkpt lat="45.74871" lon="8.381865"><ele>482.0</ele><time>2026-03-29T12:27:51.997Z</time></trkpt><trkpt lat="45.748525" lon="8.3819583"><ele>482.0</ele><time>2026-03-29T12:27:52.997Z</time></trkpt><trkpt lat="45.7483483" lon="8.38204"><ele>482.0</ele><time>2026-03-29T12:27:53.997Z</time></trkpt><trkpt lat="45.74819" lon="8.3821"><ele>482.0</ele><time>2026-03-29T12:27:54.996Z</time></trkpt><trkpt lat="45.74802" lon="8.38213"><ele>482.0</ele><time>2026-03-29T12:27:55.997Z</time></trkpt><trkpt lat="45.74786" lon="8.382105"><ele>482.0</ele><time>2026-03-29T12:27:56.997Z</time></trkpt><trkpt lat="45.7477167" lon="8.38208"><ele>482.0</ele><time>2026-03-29T12:27:57.997Z</time></trkpt><trkpt lat="45.747585" lon="8.3820367"><ele>482.0</ele><time>2026-03-29T12:27:58.996Z</time></trkpt><trkpt lat="45.7474767" lon="8.3820083"><ele>482.0</ele><time>2026-03-29T12:27:59.996Z</time></trkpt><trkpt lat="45.7473633" lon="8.3819833"><ele>481.20000000000005</ele><time>2026-03-29T12:28:00.996Z</time></trkpt><trkpt lat="45.747255" lon="8.3819667"><ele>480.40000000000003</ele><time>2026-03-29T12:28:01.997Z</time></trkpt><trkpt lat="45.747165" lon="8.38199"><ele>479.59999999999997</ele><time>2026-03-29T12:28:02.996Z</time></trkpt><trkpt lat="45.7470733" lon="8.382065"><ele>478.79999999999995</ele><time>2026-03-29T12:28:03.997Z</time></trkpt><trkpt lat="45.747005" lon="8.3822133"><ele>478.0</ele><time>2026-03-29T12:28:04.997Z</time></trkpt><trkpt lat="45.746945" lon="8.382445"><ele>480.6666666666667</ele><time>2026-03-29T12:28:05.996Z</time></trkpt><trkpt lat="45.746865" lon="8.3827217"><ele>483.33333333333337</ele><time>2026-03-29T12:28:06.997Z</time></trkpt><trkpt lat="45.7467767" lon="8.38302"><ele>486.0</ele><time>2026-03-29T12:28:07.997Z</time></trkpt><trkpt lat="45.74667" lon="8.3832883"><ele>486.0</ele><time>2026-03-29T12:28:08.997Z</time></trkpt><trkpt lat="45.74653" lon="8.3835267"><ele>486.0</ele><time>2026-03-29T12:28:09.996Z</time></trkpt><trkpt lat="45.7463967" lon="8.383735"><ele>486.0</ele><time>2026-03-29T12:28:10.997Z</time></trkpt><trkpt lat="45.7462667" lon="8.3838767"><ele>483.0</ele><time>2026-03-29T12:28:11.996Z</time></trkpt><trkpt lat="45.746125" lon="8.3839567"><ele>480.0</ele><time>2026-03-29T12:28:12.997Z</time></trkpt><trkpt lat="45.7459717" lon="8.3839633"><ele>477.0</ele><time>2026-03-29T12:28:13.996Z</time></trkpt><trkpt lat="45.74581" lon="8.383935"><ele>482.66666666666663</ele><time>2026-03-29T12:28:14.997Z</time></trkpt><trkpt lat="45.745645" lon="8.383845"><ele>488.3333333333333</ele><time>2026-03-29T12:28:15.997Z</time></trkpt><trkpt lat="45.74548" lon="8.3837183"><ele>494.0</ele><time>2026-03-29T12:28:16.997Z</time></trkpt><trkpt lat="45.7453383" lon="8.38358"><ele>494.0</ele><time>2026-03-29T12:28:17.996Z</time></trkpt><trkpt lat="45.7452383" lon="8.38343"><ele>494.0</ele><time>2026-03-29T12:28:18.997Z</time></trkpt><trkpt lat="45.7451833" lon="8.383235"><ele>494.0</ele><time>2026-03-29T12:28:19.997Z</time></trkpt><trkpt lat="45.7451883" lon="8.3829783"><ele>491.66666666666663</ele><time>2026-03-29T12:28:20.997Z</time></trkpt><trkpt lat="45.74521" lon="8.3826867"><ele>489.33333333333337</ele><time>2026-03-29T12:28:21.996Z</time></trkpt><trkpt lat="45.745195" lon="8.38242"><ele>487.0</ele><time>2026-03-29T12:28:22.997Z</time></trkpt><trkpt lat="45.745135" lon="8.3821817"><ele>489.0</ele><time>2026-03-29T12:28:23.997Z</time></trkpt><trkpt lat="45.74504" lon="8.3819633"><ele>491.0</ele><time>2026-03-29T12:28:24.997Z</time></trkpt><trkpt lat="45.7449467" lon="8.3817567"><ele>493.0</ele><time>2026-03-29T12:28:25.997Z</time></trkpt><trkpt lat="45.7448867" lon="8.3815317"><ele>494.5</ele><time>2026-03-29T12:28:26.996Z</time></trkpt><trkpt lat="45.7448683" lon="8.3812483"><ele>496.0</ele><time>2026-03-29T12:28:27.997Z</time></trkpt><trkpt lat="45.7448833" lon="8.3808817"><ele>496.0</ele><time>2026-03-29T12:28:28.997Z</time></trkpt><trkpt lat="45.7449" lon="8.3805283"><ele>496.0</ele><time>2026-03-29T12:28:29.996Z</time></trkpt><trkpt lat="45.744895" lon="8.3801683"><ele>496.5</ele><time>2026-03-29T12:28:30.996Z</time></trkpt><trkpt lat="45.7448683" lon="8.3797933"><ele>497.0</ele><time>2026-03-29T12:28:31.997Z</time></trkpt><trkpt lat="45.744825" lon="8.3793967"><ele>501.0</ele><time>2026-03-29T12:28:32.996Z</time></trkpt><trkpt lat="45.7447683" lon="8.3790417"><ele>505.0</ele><time>2026-03-29T12:28:33.996Z</time></trkpt><trkpt lat="45.7446733" lon="8.3787167"><ele>511.0</ele><time>2026-03-29T12:28:34.996Z</time></trkpt><trkpt lat="45.7445367" lon="8.37842"><ele>517.0</ele><time>2026-03-29T12:28:35.997Z</time></trkpt><trkpt lat="45.7443817" lon="8.3781333"><ele>509.5</ele><time>2026-03-29T12:28:36.997Z</time></trkpt><trkpt lat="45.74425" lon="8.3778367"><ele>502.0</ele><time>2026-03-29T12:28:37.997Z</time></trkpt><trkpt lat="45.74414" lon="8.37754"><ele>502.0</ele><time>2026-03-29T12:28:38.997Z</time></trkpt><trkpt lat="45.7440467" lon="8.37723"><ele>502.0</ele><time>2026-03-29T12:28:39.997Z</time></trkpt><trkpt lat="45.7439933" lon="8.3768617"><ele>503.5</ele><time>2026-03-29T12:28:40.997Z</time></trkpt><trkpt lat="45.7439683" lon="8.3764567"><ele>505.0</ele><time>2026-03-29T12:28:41.997Z</time></trkpt><trkpt lat="45.7439417" lon="8.3760933"><ele>507.0</ele><time>2026-03-29T12:28:42.997Z</time></trkpt><trkpt lat="45.7439067" lon="8.3757917"><ele>509.0</ele><time>2026-03-29T12:28:43.997Z</time></trkpt><trkpt lat="45.743875" lon="8.3755133"><ele>511.0</ele><time>2026-03-29T12:28:44.997Z</time></trkpt><trkpt lat="45.7438583" lon="8.37527"><ele>511.0</ele><time>2026-03-29T12:28:45.997Z</time></trkpt><trkpt lat="45.743885" lon="8.3750233"><ele>511.0</ele><time>2026-03-29T12:28:46.997Z</time></trkpt><trkpt lat="45.7439717" lon="8.3747933"><ele>511.0</ele><time>2026-03-29T12:28:47.997Z</time></trkpt><trkpt lat="45.7440633" lon="8.37454"><ele>509.5</ele><time>2026-03-29T12:28:48.997Z</time></trkpt><trkpt lat="45.7441917" lon="8.3742767"><ele>508.0</ele><time>2026-03-29T12:28:49.997Z</time></trkpt><trkpt lat="45.7443167" lon="8.37399"><ele>517.5</ele><time>2026-03-29T12:28:50.997Z</time></trkpt><trkpt lat="45.74443" lon="8.37369"><ele>527.0</ele><time>2026-03-29T12:28:51.997Z</time></trkpt><trkpt lat="45.74452" lon="8.37338"><ele>527.0</ele><time>2026-03-29T12:28:52.997Z</time></trkpt><trkpt lat="45.74458" lon="8.3731067"><ele>527.0</ele><time>2026-03-29T12:28:53.997Z</time></trkpt><trkpt lat="45.7446183" lon="8.3728833"><ele>527.0</ele><time>2026-03-29T12:28:54.997Z</time></trkpt><trkpt lat="45.7446467" lon="8.372695"><ele>524.5</ele><time>2026-03-29T12:28:55.996Z</time></trkpt><trkpt lat="45.7446933" lon="8.372525"><ele>522.0</ele><time>2026-03-29T12:28:56.997Z</time></trkpt><trkpt lat="45.7447833" lon="8.3723867"><ele>519.5</ele><time>2026-03-29T12:28:57.997Z</time></trkpt><trkpt lat="45.74493" lon="8.3722867"><ele>517.0</ele><time>2026-03-29T12:28:58.997Z</time></trkpt><trkpt lat="45.74505" lon="8.37219"><ele>517.6</ele><time>2026-03-29T12:28:59.997Z</time></trkpt><trkpt lat="45.7451333" lon="8.372075"><ele>518.2</ele><time>2026-03-29T12:29:00.997Z</time></trkpt><trkpt lat="45.7451417" lon="8.3719283"><ele>518.8</ele><time>2026-03-29T12:29:01.997Z</time></trkpt><trkpt lat="45.7450917" lon="8.37179"><ele>519.4</ele><time>2026-03-29T12:29:02.997Z</time></trkpt><trkpt lat="45.7450067" lon="8.3717"><ele>520.0</ele><time>2026-03-29T12:29:03.997Z</time></trkpt><trkpt lat="45.7449" lon="8.3716633"><ele>520.0</ele><time>2026-03-29T12:29:04.996Z</time></trkpt><trkpt lat="45.7447717" lon="8.371685"><ele>520.0</ele><time>2026-03-29T12:29:05.996Z</time></trkpt><trkpt lat="45.7446233" lon="8.3717817"><ele>520.0</ele><time>2026-03-29T12:29:06.996Z</time></trkpt><trkpt lat="45.74449" lon="8.3718767"><ele>520.0</ele><time>2026-03-29T12:29:07.996Z</time></trkpt><trkpt lat="45.7443783" lon="8.3718917"><ele>519.25</ele><time>2026-03-29T12:29:08.997Z</time></trkpt><trkpt lat="45.7442933" lon="8.371825"><ele>518.5</ele><time>2026-03-29T12:29:09.997Z</time></trkpt><trkpt lat="45.7442317" lon="8.371725"><ele>517.75</ele><time>2026-03-29T12:29:10.996Z</time></trkpt><trkpt lat="45.744195" lon="8.3715617"><ele>517.0</ele><time>2026-03-29T12:29:11.996Z</time></trkpt><trkpt lat="45.7441683" lon="8.3713317"><ele>521.0</ele><time>2026-03-29T12:29:12.997Z</time></trkpt><trkpt lat="45.7441233" lon="8.37107"><ele>525.0</ele><time>2026-03-29T12:29:13.996Z</time></trkpt><trkpt lat="45.7440517" lon="8.37079"><ele>529.0</ele><time>2026-03-29T12:29:14.997Z</time></trkpt><trkpt lat="45.7439833" lon="8.3704967"><ele>531.0</ele><time>2026-03-29T12:29:15.997Z</time></trkpt><trkpt lat="45.7439383" lon="8.3701883"><ele>533.0</ele><time>2026-03-29T12:29:16.996Z</time></trkpt><trkpt lat="45.74394" lon="8.369865"><ele>535.0</ele><time>2026-03-29T12:29:17.997Z</time></trkpt><trkpt lat="45.74396" lon="8.36956"><ele>537.0</ele><time>2026-03-29T12:29:18.997Z</time></trkpt><trkpt lat="45.7439417" lon="8.3692717"><ele>539.0</ele><time>2026-03-29T12:29:19.997Z</time></trkpt><trkpt lat="45.7438967" lon="8.368985"><ele>541.0</ele><time>2026-03-29T12:29:20.997Z</time></trkpt><trkpt lat="45.7438433" lon="8.3686967"><ele>544.0</ele><time>2026-03-29T12:29:21.997Z</time></trkpt><trkpt lat="45.7437817" lon="8.3683833"><ele>547.0</ele><time>2026-03-29T12:29:22.997Z</time></trkpt><trkpt lat="45.7437167" lon="8.36803"><ele>549.5</ele><time>2026-03-29T12:29:23.996Z</time></trkpt><trkpt lat="45.7436767" lon="8.367645"><ele>552.0</ele><time>2026-03-29T12:29:24.997Z</time></trkpt><trkpt lat="45.7436583" lon="8.3672967"><ele>552.0</ele><time>2026-03-29T12:29:25.997Z</time></trkpt><trkpt lat="45.7436783" lon="8.3669533"><ele>552.0</ele><time>2026-03-29T12:29:26.997Z</time></trkpt><trkpt lat="45.7437333" lon="8.3666133"><ele>549.5</ele><time>2026-03-29T12:29:27.996Z</time></trkpt><trkpt lat="45.743805" lon="8.366275"><ele>547.0</ele><time>2026-03-29T12:29:28.997Z</time></trkpt><trkpt lat="45.7438917" lon="8.3659683"><ele>547.0</ele><time>2026-03-29T12:29:29.997Z</time></trkpt><trkpt lat="45.7439967" lon="8.3656667"><ele>547.0</ele><time>2026-03-29T12:29:30.997Z</time></trkpt><trkpt lat="45.7441117" lon="8.3654167"><ele>547.0</ele><time>2026-03-29T12:29:31.996Z</time></trkpt><trkpt lat="45.7442217" lon="8.3652233"><ele>546.5</ele><time>2026-03-29T12:29:32.997Z</time></trkpt><trkpt lat="45.7443" lon="8.3650283"><ele>546.0</ele><time>2026-03-29T12:29:33.997Z</time></trkpt><trkpt lat="45.744305" lon="8.3648467"><ele>545.5</ele><time>2026-03-29T12:29:34.997Z</time></trkpt><trkpt lat="45.74431" lon="8.3647117"><ele>545.0</ele><time>2026-03-29T12:29:35.997Z</time></trkpt><trkpt lat="45.7442767" lon="8.3645733"><ele>548.5</ele><time>2026-03-29T12:29:36.997Z</time></trkpt><trkpt lat="45.7441983" lon="8.3644233"><ele>552.0</ele><time>2026-03-29T12:29:37.996Z</time></trkpt><trkpt lat="45.7440533" lon="8.36435"><ele>555.5</ele><time>2026-03-29T12:29:38.996Z</time></trkpt><trkpt lat="45.7439467" lon="8.364225"><ele>559.0</ele><time>2026-03-29T12:29:39.997Z</time></trkpt><trkpt lat="45.7438867" lon="8.3640467"><ele>560.0</ele><time>2026-03-29T12:29:40.997Z</time></trkpt><trkpt lat="45.7438833" lon="8.3638"><ele>561.0</ele><time>2026-03-29T12:29:41.996Z</time></trkpt><trkpt lat="45.7439367" lon="8.363545"><ele>562.0</ele><time>2026-03-29T12:29:42.997Z</time></trkpt><trkpt lat="45.7439633" lon="8.3632867"><ele>562.0</ele><time>2026-03-29T12:29:43.997Z</time></trkpt><trkpt lat="45.7440517" lon="8.3630433"><ele>562.0</ele><time>2026-03-29T12:29:44.997Z</time></trkpt><trkpt lat="45.7441233" lon="8.36284"><ele>562.0</ele><time>2026-03-29T12:29:45.996Z</time></trkpt><trkpt lat="45.74414" lon="8.36263"><ele>565.0</ele><time>2026-03-29T12:29:46.997Z</time></trkpt><trkpt lat="45.744115" lon="8.362425"><ele>568.0</ele><time>2026-03-29T12:29:47.997Z</time></trkpt><trkpt lat="45.744065" lon="8.3622233"><ele>571.0</ele><time>2026-03-29T12:29:48.997Z</time></trkpt><trkpt lat="45.7439817" lon="8.36203"><ele>575.3333333333334</ele><time>2026-03-29T12:29:49.997Z</time></trkpt><trkpt lat="45.7437633" lon="8.3619867"><ele>579.6666666666666</ele><time>2026-03-29T12:29:50.997Z</time></trkpt><trkpt lat="45.74359" lon="8.3618883"><ele>584.0</ele><time>2026-03-29T12:29:51.996Z</time></trkpt><trkpt lat="45.74338" lon="8.3618183"><ele>584.0</ele><time>2026-03-29T12:29:52.997Z</time></trkpt><trkpt lat="45.74304" lon="8.361845"><ele>584.0</ele><time>2026-03-29T12:29:53.997Z</time></trkpt><trkpt lat="45.7427383" lon="8.36178"><ele>577.5</ele><time>2026-03-29T12:29:54.997Z</time></trkpt><trkpt lat="45.7424933" lon="8.3616583"><ele>571.0</ele><time>2026-03-29T12:29:55.996Z</time></trkpt><trkpt lat="45.7422867" lon="8.3614967"><ele>572.6666666666667</ele><time>2026-03-29T12:29:56.996Z</time></trkpt><trkpt lat="45.7420967" lon="8.36131"><ele>574.3333333333334</ele><time>2026-03-29T12:29:57.997Z</time></trkpt><trkpt lat="45.7419267" lon="8.3611483"><ele>576.0</ele><time>2026-03-29T12:29:58.996Z</time></trkpt><trkpt lat="45.741775" lon="8.3609733"><ele>576.0</ele><time>2026-03-29T12:29:59.997Z</time></trkpt><trkpt lat="45.7416267" lon="8.3607967"><ele>576.0</ele><time>2026-03-29T12:30:00.996Z</time></trkpt><trkpt lat="45.74153" lon="8.3605733"><ele>576.0</ele><time>2026-03-29T12:30:01.996Z</time></trkpt><trkpt lat="45.7414333" lon="8.360345"><ele>579.3333333333334</ele><time>2026-03-29T12:30:02.996Z</time></trkpt><trkpt lat="45.7413233" lon="8.360135"><ele>582.6666666666667</ele><time>2026-03-29T12:30:03.997Z</time></trkpt><trkpt lat="45.7412217" lon="8.3599133"><ele>586.0</ele><time>2026-03-29T12:30:04.997Z</time></trkpt><trkpt lat="45.74113" lon="8.3596767"><ele>588.5</ele><time>2026-03-29T12:30:05.997Z</time></trkpt><trkpt lat="45.741045" lon="8.3594133"><ele>591.0</ele><time>2026-03-29T12:30:06.997Z</time></trkpt><trkpt lat="45.7406883" lon="8.3582067"><ele>579.5</ele><time>2026-03-29T12:30:10.004Z</time></trkpt><trkpt lat="45.7406283" lon="8.3575733"><ele>568.0</ele><time>2026-03-29T12:30:11.003Z</time></trkpt><trkpt lat="45.74054" lon="8.357025"><ele>568.0</ele><time>2026-03-29T12:30:12.004Z</time></trkpt><trkpt lat="45.7404383" lon="8.35656"><ele>568.0</ele><time>2026-03-29T12:30:13.004Z</time></trkpt><trkpt lat="45.7403283" lon="8.35619"><ele>558.0</ele><time>2026-03-29T12:30:14.004Z</time></trkpt><trkpt lat="45.74021" lon="8.355785"><ele>548.0</ele><time>2026-03-29T12:30:15.004Z</time></trkpt><trkpt lat="45.7401067" lon="8.3554883"><ele>548.0</ele><time>2026-03-29T12:30:16.004Z</time></trkpt><trkpt lat="45.7400083" lon="8.3551933"><ele>548.0</ele><time>2026-03-29T12:30:17.004Z</time></trkpt><trkpt lat="45.7399817" lon="8.3548833"><ele>548.0</ele><time>2026-03-29T12:30:18.004Z</time></trkpt><trkpt lat="45.7399533" lon="8.3546167"><ele>548.0</ele><time>2026-03-29T12:30:19.004Z</time></trkpt><trkpt lat="45.7399033" lon="8.3543667"><ele>548.0</ele><time>2026-03-29T12:30:20.004Z</time></trkpt><trkpt lat="45.7398267" lon="8.3541633"><ele>548.0</ele><time>2026-03-29T12:30:21.004Z</time></trkpt><trkpt lat="45.73977" lon="8.3540083"><ele>544.75</ele><time>2026-03-29T12:30:22.004Z</time></trkpt><trkpt lat="45.7397333" lon="8.35387"><ele>541.5</ele><time>2026-03-29T12:30:23.004Z</time></trkpt><trkpt lat="45.7397467" lon="8.353705"><ele>538.25</ele><time>2026-03-29T12:30:24.004Z</time></trkpt><trkpt lat="45.739805" lon="8.3535467"><ele>535.0</ele><time>2026-03-29T12:30:25.004Z</time></trkpt><trkpt lat="45.739905" lon="8.3533817"><ele>535.0</ele><time>2026-03-29T12:30:26.004Z</time></trkpt><trkpt lat="45.7400333" lon="8.3532283"><ele>535.0</ele><time>2026-03-29T12:30:27.004Z</time></trkpt><trkpt lat="45.74023" lon="8.3531617"><ele>535.0</ele><time>2026-03-29T12:30:28.004Z</time></trkpt><trkpt lat="45.7404283" lon="8.3531417"><ele>538.3333333333334</ele><time>2026-03-29T12:30:29.004Z</time></trkpt><trkpt lat="45.7406183" lon="8.3531483"><ele>541.6666666666666</ele><time>2026-03-29T12:30:30.003Z</time></trkpt><trkpt lat="45.7407933" lon="8.35318"><ele>545.0</ele><time>2026-03-29T12:30:31.004Z</time></trkpt><trkpt lat="45.7409583" lon="8.3532083"><ele>548.25</ele><time>2026-03-29T12:30:32.004Z</time></trkpt><trkpt lat="45.7411" lon="8.3531833"><ele>551.5</ele><time>2026-03-29T12:30:33.003Z</time></trkpt><trkpt lat="45.7412283" lon="8.3531333"><ele>554.75</ele><time>2026-03-29T12:30:34.004Z</time></trkpt><trkpt lat="45.741315" lon="8.3530533"><ele>558.0</ele><time>2026-03-29T12:30:35.004Z</time></trkpt><trkpt lat="45.74134" lon="8.352915"><ele>558.6666666666666</ele><time>2026-03-29T12:30:36.004Z</time></trkpt><trkpt lat="45.741285" lon="8.3527417"><ele>559.3333333333333</ele><time>2026-03-29T12:30:37.003Z</time></trkpt><trkpt lat="45.741175" lon="8.3525867"><ele>560.0</ele><time>2026-03-29T12:30:38.004Z</time></trkpt><trkpt lat="45.7409517" lon="8.3524867"><ele>553.0</ele><time>2026-03-29T12:30:39.004Z</time></trkpt><trkpt lat="45.7407667" lon="8.35242"><ele>546.0</ele><time>2026-03-29T12:30:40.004Z</time></trkpt><trkpt lat="45.740565" lon="8.3523717"><ele>539.0</ele><time>2026-03-29T12:30:41.004Z</time></trkpt><trkpt lat="45.7403283" lon="8.35233"><ele>535.5</ele><time>2026-03-29T12:30:42.003Z</time></trkpt><trkpt lat="45.7400717" lon="8.3523267"><ele>532.0</ele><time>2026-03-29T12:30:43.004Z</time></trkpt><trkpt lat="45.7397983" lon="8.3523567"><ele>532.0</ele><time>2026-03-29T12:30:44.003Z</time></trkpt><trkpt lat="45.7395283" lon="8.3524017"><ele>532.0</ele><time>2026-03-29T12:30:45.004Z</time></trkpt><trkpt lat="45.73928" lon="8.35245"><ele>528.6666666666667</ele><time>2026-03-29T12:30:46.003Z</time></trkpt><trkpt lat="45.73907" lon="8.3524683"><ele>525.3333333333334</ele><time>2026-03-29T12:30:47.004Z</time></trkpt><trkpt lat="45.738895" lon="8.3524733"><ele>522.0</ele><time>2026-03-29T12:30:48.004Z</time></trkpt><trkpt lat="45.7387483" lon="8.35237"><ele>519.3333333333334</ele><time>2026-03-29T12:30:49.003Z</time></trkpt><trkpt lat="45.7386217" lon="8.3522033"><ele>516.6666666666667</ele><time>2026-03-29T12:30:50.004Z</time></trkpt><trkpt lat="45.738515" lon="8.3519383"><ele>514.0</ele><time>2026-03-29T12:30:51.004Z</time></trkpt><trkpt lat="45.738375" lon="8.3515833"><ele>523.0</ele><time>2026-03-29T12:30:52.004Z</time></trkpt><trkpt lat="45.738215" lon="8.3512633"><ele>532.0</ele><time>2026-03-29T12:30:53.003Z</time></trkpt><trkpt lat="45.7380517" lon="8.3509383"><ele>532.0</ele><time>2026-03-29T12:30:54.004Z</time></trkpt><trkpt lat="45.73788" lon="8.350655"><ele>532.0</ele><time>2026-03-29T12:30:55.004Z</time></trkpt><trkpt lat="45.7376967" lon="8.3504117"><ele>528.3333333333334</ele><time>2026-03-29T12:30:56.004Z</time></trkpt><trkpt lat="45.737495" lon="8.3502083"><ele>524.6666666666666</ele><time>2026-03-29T12:30:57.004Z</time></trkpt><trkpt lat="45.737325" lon="8.350055"><ele>521.0</ele><time>2026-03-29T12:30:58.004Z</time></trkpt><trkpt lat="45.7371983" lon="8.3498717"><ele>521.0</ele><time>2026-03-29T12:30:59.004Z</time></trkpt><trkpt lat="45.7370833" lon="8.34971"><ele>521.0</ele><time>2026-03-29T12:31:00.004Z</time></trkpt><trkpt lat="45.737" lon="8.349505"><ele>521.0</ele><time>2026-03-29T12:31:01.003Z</time></trkpt><trkpt lat="45.7369633" lon="8.3492683"><ele>524.0</ele><time>2026-03-29T12:31:02.003Z</time></trkpt><trkpt lat="45.7369117" lon="8.3489933"><ele>527.0</ele><time>2026-03-29T12:31:03.004Z</time></trkpt><trkpt lat="45.7368433" lon="8.3487217"><ele>530.0</ele><time>2026-03-29T12:31:04.004Z</time></trkpt><trkpt lat="45.736765" lon="8.348435"><ele>518.0</ele><time>2026-03-29T12:31:05.003Z</time></trkpt><trkpt lat="45.7367117" lon="8.3481833"><ele>506.0</ele><time>2026-03-29T12:31:06.002Z</time></trkpt><trkpt lat="45.7366933" lon="8.347955"><ele>494.0</ele><time>2026-03-29T12:31:07.003Z</time></trkpt><trkpt lat="45.7367383" lon="8.3477633"><ele>495.0</ele><time>2026-03-29T12:31:08.003Z</time></trkpt><trkpt lat="45.73682" lon="8.347615"><ele>496.0</ele><time>2026-03-29T12:31:09.002Z</time></trkpt><trkpt lat="45.736925" lon="8.3474833"><ele>497.0</ele><time>2026-03-29T12:31:10.003Z</time></trkpt><trkpt lat="45.73709" lon="8.3473717"><ele>497.0</ele><time>2026-03-29T12:31:11.002Z</time></trkpt><trkpt lat="45.7372633" lon="8.3472933"><ele>497.0</ele><time>2026-03-29T12:31:12.003Z</time></trkpt><trkpt lat="45.7374317" lon="8.3472617"><ele>497.0</ele><time>2026-03-29T12:31:13.003Z</time></trkpt><trkpt lat="45.7375917" lon="8.34726"><ele>496.3333333333333</ele><time>2026-03-29T12:31:14.003Z</time></trkpt><trkpt lat="45.7377817" lon="8.34737"><ele>495.66666666666663</ele><time>2026-03-29T12:31:15.002Z</time></trkpt><trkpt lat="45.7379533" lon="8.3474533"><ele>495.0</ele><time>2026-03-29T12:31:16.003Z</time></trkpt><trkpt lat="45.73813" lon="8.34754"><ele>495.0</ele><time>2026-03-29T12:31:17.002Z</time></trkpt><trkpt lat="45.7382783" lon="8.3475483"><ele>495.0</ele><time>2026-03-29T12:31:18.003Z</time></trkpt><trkpt lat="45.738415" lon="8.3474617"><ele>495.0</ele><time>2026-03-29T12:31:19.003Z</time></trkpt><trkpt lat="45.738525" lon="8.347305"><ele>492.33333333333337</ele><time>2026-03-29T12:31:20.003Z</time></trkpt><trkpt lat="45.7385617" lon="8.3471067"><ele>489.6666666666667</ele><time>2026-03-29T12:31:21.003Z</time></trkpt><trkpt lat="45.738545" lon="8.346885"><ele>487.0</ele><time>2026-03-29T12:31:22.003Z</time></trkpt><trkpt lat="45.73852" lon="8.3466567"><ele>487.0</ele><time>2026-03-29T12:31:23.003Z</time></trkpt><trkpt lat="45.7384633" lon="8.3464467"><ele>487.0</ele><time>2026-03-29T12:31:24.003Z</time></trkpt><trkpt lat="45.7382533" lon="8.3464033"><ele>487.0</ele><time>2026-03-29T12:31:25.003Z</time></trkpt><trkpt lat="45.7380583" lon="8.346365"><ele>492.0</ele><time>2026-03-29T12:31:26.002Z</time></trkpt><trkpt lat="45.737885" lon="8.3463167"><ele>497.0</ele><time>2026-03-29T12:31:27.003Z</time></trkpt><trkpt lat="45.7376767" lon="8.3462867"><ele>502.0</ele><time>2026-03-29T12:31:28.003Z</time></trkpt><trkpt lat="45.737425" lon="8.34626"><ele>502.0</ele><time>2026-03-29T12:31:29.003Z</time></trkpt><trkpt lat="45.73718" lon="8.3462783"><ele>502.0</ele><time>2026-03-29T12:31:30.002Z</time></trkpt><trkpt lat="45.7369567" lon="8.3462667"><ele>496.6666666666667</ele><time>2026-03-29T12:31:31.003Z</time></trkpt><trkpt lat="45.73677" lon="8.34622"><ele>491.33333333333337</ele><time>2026-03-29T12:31:32.003Z</time></trkpt><trkpt lat="45.7366" lon="8.3461583"><ele>486.0</ele><time>2026-03-29T12:31:33.003Z</time></trkpt><trkpt lat="45.7364283" lon="8.346045"><ele>486.0</ele><time>2026-03-29T12:31:34.003Z</time></trkpt><trkpt lat="45.7362633" lon="8.345805"><ele>486.0</ele><time>2026-03-29T12:31:35.003Z</time></trkpt><trkpt lat="45.7361133" lon="8.3455767"><ele>481.0</ele><time>2026-03-29T12:31:36.003Z</time></trkpt><trkpt lat="45.7359267" lon="8.3453917"><ele>476.0</ele><time>2026-03-29T12:31:37.003Z</time></trkpt><trkpt lat="45.7357083" lon="8.34524"><ele>476.0</ele><time>2026-03-29T12:31:38.002Z</time></trkpt><trkpt lat="45.7354667" lon="8.3451033"><ele>476.0</ele><time>2026-03-29T12:31:39.003Z</time></trkpt><trkpt lat="45.7352333" lon="8.344975"><ele>472.3333333333333</ele><time>2026-03-29T12:31:40.003Z</time></trkpt><trkpt lat="45.7350267" lon="8.3448517"><ele>468.66666666666663</ele><time>2026-03-29T12:31:41.003Z</time></trkpt><trkpt lat="45.73483" lon="8.344705"><ele>465.0</ele><time>2026-03-29T12:31:42.003Z</time></trkpt><trkpt lat="45.73465" lon="8.344525"><ele>465.0</ele><time>2026-03-29T12:31:43.003Z</time></trkpt><trkpt lat="45.7344933" lon="8.3442967"><ele>465.0</ele><time>2026-03-29T12:31:44.002Z</time></trkpt><trkpt lat="45.73435" lon="8.344065"><ele>465.0</ele><time>2026-03-29T12:31:45.003Z</time></trkpt><trkpt lat="45.7342317" lon="8.343775"><ele>463.33333333333337</ele><time>2026-03-29T12:31:46.002Z</time></trkpt><trkpt lat="45.7341667" lon="8.3434867"><ele>461.6666666666667</ele><time>2026-03-29T12:31:47.002Z</time></trkpt><trkpt lat="45.7341383" lon="8.34321"><ele>460.0</ele><time>2026-03-29T12:31:48.002Z</time></trkpt><trkpt lat="45.734165" lon="8.3429617"><ele>459.33333333333337</ele><time>2026-03-29T12:31:49.002Z</time></trkpt><trkpt lat="45.7341883" lon="8.3426883"><ele>458.66666666666663</ele><time>2026-03-29T12:31:50.002Z</time></trkpt><trkpt lat="45.7341817" lon="8.3424133"><ele>458.0</ele><time>2026-03-29T12:31:51.003Z</time></trkpt><trkpt lat="45.7341533" lon="8.34214"><ele>456.66666666666663</ele><time>2026-03-29T12:31:52.003Z</time></trkpt><trkpt lat="45.7341317" lon="8.341895"><ele>455.33333333333337</ele><time>2026-03-29T12:31:53.002Z</time></trkpt><trkpt lat="45.73415" lon="8.3416583"><ele>454.0</ele><time>2026-03-29T12:31:54.003Z</time></trkpt><trkpt lat="45.7341783" lon="8.3414417"><ele>452.25</ele><time>2026-03-29T12:31:55.003Z</time></trkpt><trkpt lat="45.7342483" lon="8.3412683"><ele>450.5</ele><time>2026-03-29T12:31:56.003Z</time></trkpt><trkpt lat="45.734305" lon="8.341075"><ele>448.75</ele><time>2026-03-29T12:31:57.003Z</time></trkpt><trkpt lat="45.734315" lon="8.3408983"><ele>447.0</ele><time>2026-03-29T12:31:58.003Z</time></trkpt><trkpt lat="45.73428" lon="8.34069"><ele>445.66666666666663</ele><time>2026-03-29T12:31:59.003Z</time></trkpt><trkpt lat="45.73423" lon="8.3404533"><ele>444.3333333333333</ele><time>2026-03-29T12:32:00.002Z</time></trkpt><trkpt lat="45.734195" lon="8.3401767"><ele>443.0</ele><time>2026-03-29T12:32:01.002Z</time></trkpt><trkpt lat="45.734185" lon="8.3398983"><ele>440.3333333333333</ele><time>2026-03-29T12:32:02.003Z</time></trkpt><trkpt lat="45.7341983" lon="8.3396183"><ele>437.66666666666663</ele><time>2026-03-29T12:32:03.002Z</time></trkpt><trkpt lat="45.7341817" lon="8.3393067"><ele>435.0</ele><time>2026-03-29T12:32:04.002Z</time></trkpt><trkpt lat="45.73412" lon="8.33898"><ele>439.0</ele><time>2026-03-29T12:32:05.002Z</time></trkpt><trkpt lat="45.73401" lon="8.3386683"><ele>443.0</ele><time>2026-03-29T12:32:06.003Z</time></trkpt><trkpt lat="45.733855" lon="8.3383767"><ele>443.0</ele><time>2026-03-29T12:32:07.003Z</time></trkpt><trkpt lat="45.7336817" lon="8.3381017"><ele>443.0</ele><time>2026-03-29T12:32:08.003Z</time></trkpt><trkpt lat="45.7335067" lon="8.337845"><ele>438.0</ele><time>2026-03-29T12:32:09.003Z</time></trkpt><trkpt lat="45.7333383" lon="8.337585"><ele>433.0</ele><time>2026-03-29T12:32:10.003Z</time></trkpt><trkpt lat="45.7331717" lon="8.3373483"><ele>435.0</ele><time>2026-03-29T12:32:11.003Z</time></trkpt><trkpt lat="45.733015" lon="8.3371283"><ele>437.0</ele><time>2026-03-29T12:32:12.003Z</time></trkpt><trkpt lat="45.732865" lon="8.3369183"><ele>439.0</ele><time>2026-03-29T12:32:13.003Z</time></trkpt><trkpt lat="45.7327117" lon="8.3367083"><ele>434.6666666666667</ele><time>2026-03-29T12:32:14.002Z</time></trkpt><trkpt lat="45.7325683" lon="8.3365117"><ele>430.33333333333337</ele><time>2026-03-29T12:32:15.003Z</time></trkpt><trkpt lat="45.7324367" lon="8.3363133"><ele>426.0</ele><time>2026-03-29T12:32:16.003Z</time></trkpt><trkpt lat="45.7323067" lon="8.3361283"><ele>426.0</ele><time>2026-03-29T12:32:17.002Z</time></trkpt><trkpt lat="45.7322" lon="8.3359217"><ele>426.0</ele><time>2026-03-29T12:32:18.003Z</time></trkpt><trkpt lat="45.73211" lon="8.33573"><ele>426.0</ele><time>2026-03-29T12:32:19.003Z</time></trkpt><trkpt lat="45.7320317" lon="8.3355217"><ele>425.66666666666663</ele><time>2026-03-29T12:32:20.002Z</time></trkpt><trkpt lat="45.7319733" lon="8.3353117"><ele>425.3333333333333</ele><time>2026-03-29T12:32:21.003Z</time></trkpt><trkpt lat="45.7319133" lon="8.33509"><ele>425.0</ele><time>2026-03-29T12:32:22.003Z</time></trkpt><trkpt lat="45.7318517" lon="8.3348917"><ele>420.3333333333333</ele><time>2026-03-29T12:32:23.003Z</time></trkpt><trkpt lat="45.7317567" lon="8.3347183"><ele>415.66666666666663</ele><time>2026-03-29T12:32:24.003Z</time></trkpt><trkpt lat="45.73164" lon="8.3346067"><ele>411.0</ele><time>2026-03-29T12:32:25.002Z</time></trkpt><trkpt lat="45.73146" lon="8.334525"><ele>411.0</ele><time>2026-03-29T12:32:26.003Z</time></trkpt><trkpt lat="45.7312717" lon="8.3344717"><ele>411.0</ele><time>2026-03-29T12:32:27.002Z</time></trkpt><trkpt lat="45.73111" lon="8.3343883"><ele>411.0</ele><time>2026-03-29T12:32:28.003Z</time></trkpt><trkpt lat="45.7309517" lon="8.334255"><ele>411.33333333333337</ele><time>2026-03-29T12:32:29.002Z</time></trkpt><trkpt lat="45.7308117" lon="8.3340533"><ele>411.6666666666667</ele><time>2026-03-29T12:32:30.002Z</time></trkpt><trkpt lat="45.7306633" lon="8.3338467"><ele>412.0</ele><time>2026-03-29T12:32:31.003Z</time></trkpt><trkpt lat="45.73052" lon="8.3336517"><ele>412.0</ele><time>2026-03-29T12:32:32.003Z</time></trkpt><trkpt lat="45.7303833" lon="8.3334883"><ele>412.0</ele><time>2026-03-29T12:32:33.003Z</time></trkpt><trkpt lat="45.730245" lon="8.3333433"><ele>412.0</ele><time>2026-03-29T12:32:34.003Z</time></trkpt><trkpt lat="45.7301133" lon="8.3332067"><ele>410.0</ele><time>2026-03-29T12:32:35.003Z</time></trkpt><trkpt lat="45.7300183" lon="8.3330433"><ele>408.0</ele><time>2026-03-29T12:32:36.003Z</time></trkpt><trkpt lat="45.72993" lon="8.3328733"><ele>406.0</ele><time>2026-03-29T12:32:37.002Z</time></trkpt><trkpt lat="45.729855" lon="8.3327033"><ele>404.0</ele><time>2026-03-29T12:32:38.003Z</time></trkpt><trkpt lat="45.7297917" lon="8.3325317"><ele>404.0</ele><time>2026-03-29T12:32:39.003Z</time></trkpt><trkpt lat="45.7297183" lon="8.3323633"><ele>404.0</ele><time>2026-03-29T12:32:40.003Z</time></trkpt><trkpt lat="45.7296267" lon="8.3322167"><ele>404.0</ele><time>2026-03-29T12:32:41.003Z</time></trkpt><trkpt lat="45.7295183" lon="8.3320633"><ele>404.0</ele><time>2026-03-29T12:32:42.003Z</time></trkpt><trkpt lat="45.7294" lon="8.3319283"><ele>403.0</ele><time>2026-03-29T12:32:43.002Z</time></trkpt><trkpt lat="45.7292817" lon="8.3317867"><ele>402.0</ele><time>2026-03-29T12:32:44.003Z</time></trkpt><trkpt lat="45.729155" lon="8.3316417"><ele>401.0</ele><time>2026-03-29T12:32:45.003Z</time></trkpt><trkpt lat="45.7290067" lon="8.331495"><ele>401.0</ele><time>2026-03-29T12:32:46.003Z</time></trkpt><trkpt lat="45.7288667" lon="8.3313483"><ele>401.0</ele><time>2026-03-29T12:32:47.003Z</time></trkpt><trkpt lat="45.728715" lon="8.3312433"><ele>401.0</ele><time>2026-03-29T12:32:48.003Z</time></trkpt><trkpt lat="45.72855" lon="8.3311567"><ele>401.0</ele><time>2026-03-29T12:32:49.003Z</time></trkpt><trkpt lat="45.7283867" lon="8.3310583"><ele>401.0</ele><time>2026-03-29T12:32:50.003Z</time></trkpt><trkpt lat="45.72822" lon="8.3309817"><ele>401.0</ele><time>2026-03-29T12:32:51.003Z</time></trkpt><trkpt lat="45.7280583" lon="8.3309233"><ele>401.0</ele><time>2026-03-29T12:32:52.002Z</time></trkpt><trkpt lat="45.7279067" lon="8.33088"><ele>401.0</ele><time>2026-03-29T12:32:53.003Z</time></trkpt><trkpt lat="45.7277767" lon="8.33082"><ele>401.0</ele><time>2026-03-29T12:32:54.003Z</time></trkpt><trkpt lat="45.7276383" lon="8.33078"><ele>401.0</ele><time>2026-03-29T12:32:55.003Z</time></trkpt><trkpt lat="45.7275" lon="8.33073"><ele>401.0</ele><time>2026-03-29T12:32:56.002Z</time></trkpt><trkpt lat="45.72736" lon="8.3306917"><ele>401.0</ele><time>2026-03-29T12:32:57.003Z</time></trkpt><trkpt lat="45.7272217" lon="8.3306583"><ele>401.0</ele><time>2026-03-29T12:32:58.003Z</time></trkpt><trkpt lat="45.7270883" lon="8.3306167"><ele>401.0</ele><time>2026-03-29T12:32:59.002Z</time></trkpt><trkpt lat="45.72696" lon="8.3305767"><ele>399.25</ele><time>2026-03-29T12:33:00.003Z</time></trkpt><trkpt lat="45.7268367" lon="8.3305333"><ele>397.5</ele><time>2026-03-29T12:33:01.003Z</time></trkpt><trkpt lat="45.7267167" lon="8.330495"><ele>395.75</ele><time>2026-03-29T12:33:02.003Z</time></trkpt><trkpt lat="45.726605" lon="8.3304217"><ele>394.0</ele><time>2026-03-29T12:33:03.003Z</time></trkpt><trkpt lat="45.7265033" lon="8.330325"><ele>394.0</ele><time>2026-03-29T12:33:04.003Z</time></trkpt><trkpt lat="45.7264" lon="8.3302183"><ele>394.0</ele><time>2026-03-29T12:33:05.003Z</time></trkpt><trkpt lat="45.726315" lon="8.3301117"><ele>394.0</ele><time>2026-03-29T12:33:06.003Z</time></trkpt><trkpt lat="45.7262383" lon="8.3300067"><ele>394.0</ele><time>2026-03-29T12:33:07.003Z</time></trkpt><trkpt lat="45.726175" lon="8.3298917"><ele>394.0</ele><time>2026-03-29T12:33:08.002Z</time></trkpt><trkpt lat="45.7261183" lon="8.329795"><ele>394.00000000000006</ele><time>2026-03-29T12:33:09.003Z</time></trkpt><trkpt lat="45.7260633" lon="8.3297217"><ele>394.0</ele><time>2026-03-29T12:33:10.003Z</time></trkpt><trkpt lat="45.7260133" lon="8.329645"><ele>394.0</ele><time>2026-03-29T12:33:11.003Z</time></trkpt><trkpt lat="45.72597" lon="8.3295567"><ele>394.0</ele><time>2026-03-29T12:33:12.003Z</time></trkpt><trkpt lat="45.72593" lon="8.32948"><ele>394.00000000000006</ele><time>2026-03-29T12:33:13.002Z</time></trkpt><trkpt lat="45.7258867" lon="8.329385"><ele>394.0</ele><time>2026-03-29T12:33:14.003Z</time></trkpt><trkpt lat="45.7258317" lon="8.3292833"><ele>393.5</ele><time>2026-03-29T12:33:15.003Z</time></trkpt><trkpt lat="45.7257667" lon="8.3291667"><ele>393.0</ele><time>2026-03-29T12:33:16.003Z</time></trkpt><trkpt lat="45.7256867" lon="8.3290383"><ele>392.5</ele><time>2026-03-29T12:33:17.002Z</time></trkpt><trkpt lat="45.7255933" lon="8.3289033"><ele>392.0</ele><time>2026-03-29T12:33:18.003Z</time></trkpt><trkpt lat="45.7254933" lon="8.3287317"><ele>392.0</ele><time>2026-03-29T12:33:19.002Z</time></trkpt><trkpt lat="45.7253733" lon="8.3285533"><ele>392.0</ele><time>2026-03-29T12:33:20.003Z</time></trkpt><trkpt lat="45.7252417" lon="8.3283583"><ele>392.0</ele><time>2026-03-29T12:33:21.003Z</time></trkpt><trkpt lat="45.725085" lon="8.3281533"><ele>393.3333333333333</ele><time>2026-03-29T12:33:22.003Z</time></trkpt><trkpt lat="45.7249217" lon="8.3279383"><ele>394.66666666666663</ele><time>2026-03-29T12:33:23.002Z</time></trkpt><trkpt lat="45.7247483" lon="8.3277517"><ele>396.0</ele><time>2026-03-29T12:33:24.003Z</time></trkpt><trkpt lat="45.72457" lon="8.32758"><ele>396.0</ele><time>2026-03-29T12:33:25.003Z</time></trkpt><trkpt lat="45.7244217" lon="8.32741"><ele>396.0</ele><time>2026-03-29T12:33:26.003Z</time></trkpt><trkpt lat="45.724275" lon="8.3272417"><ele>396.0</ele><time>2026-03-29T12:33:27.002Z</time></trkpt><trkpt lat="45.7241433" lon="8.3270567"><ele>393.66666666666663</ele><time>2026-03-29T12:33:28.003Z</time></trkpt><trkpt lat="45.7240083" lon="8.32687"><ele>391.3333333333333</ele><time>2026-03-29T12:33:29.003Z</time></trkpt><trkpt lat="45.7238717" lon="8.3266733"><ele>389.0</ele><time>2026-03-29T12:33:30.002Z</time></trkpt><trkpt lat="45.7237517" lon="8.3264633"><ele>388.0</ele><time>2026-03-29T12:33:31.002Z</time></trkpt><trkpt lat="45.72364" lon="8.326225"><ele>387.0</ele><time>2026-03-29T12:33:32.003Z</time></trkpt><trkpt lat="45.72355" lon="8.325955"><ele>386.0</ele><time>2026-03-29T12:33:33.003Z</time></trkpt><trkpt lat="45.7234867" lon="8.32566"><ele>387.0</ele><time>2026-03-29T12:33:34.003Z</time></trkpt><trkpt lat="45.7234467" lon="8.3253733"><ele>388.0</ele><time>2026-03-29T12:33:35.002Z</time></trkpt><trkpt lat="45.7234083" lon="8.3250867"><ele>389.0</ele><time>2026-03-29T12:33:36.003Z</time></trkpt><trkpt lat="45.7233917" lon="8.3248117"><ele>388.3333333333333</ele><time>2026-03-29T12:33:37.003Z</time></trkpt><trkpt lat="45.7233917" lon="8.3245717"><ele>387.66666666666663</ele><time>2026-03-29T12:33:38.003Z</time></trkpt><trkpt lat="45.72338" lon="8.32433"><ele>387.0</ele><time>2026-03-29T12:33:39.003Z</time></trkpt><trkpt lat="45.72334" lon="8.32407"><ele>385.6666666666667</ele><time>2026-03-29T12:33:40.003Z</time></trkpt><trkpt lat="45.723265" lon="8.32382"><ele>384.33333333333337</ele><time>2026-03-29T12:33:41.003Z</time></trkpt><trkpt lat="45.7231417" lon="8.3236067"><ele>383.0</ele><time>2026-03-29T12:33:42.003Z</time></trkpt><trkpt lat="45.7229933" lon="8.32342"><ele>383.0</ele><time>2026-03-29T12:33:43.003Z</time></trkpt><trkpt lat="45.7228167" lon="8.3232717"><ele>383.0</ele><time>2026-03-29T12:33:44.003Z</time></trkpt><trkpt lat="45.7226333" lon="8.3231533"><ele>383.0</ele><time>2026-03-29T12:33:45.003Z</time></trkpt><trkpt lat="45.7224583" lon="8.3230233"><ele>381.6666666666667</ele><time>2026-03-29T12:33:46.003Z</time></trkpt><trkpt lat="45.7222783" lon="8.3228617"><ele>380.3333333333333</ele><time>2026-03-29T12:33:47.002Z</time></trkpt><trkpt lat="45.7221217" lon="8.322665"><ele>379.0</ele><time>2026-03-29T12:33:48.003Z</time></trkpt><trkpt lat="45.72198" lon="8.3224583"><ele>379.0</ele><time>2026-03-29T12:33:49.003Z</time></trkpt><trkpt lat="45.721855" lon="8.32222"><ele>379.0</ele><time>2026-03-29T12:33:50.002Z</time></trkpt><trkpt lat="45.7217583" lon="8.3219533"><ele>379.0</ele><time>2026-03-29T12:33:51.002Z</time></trkpt><trkpt lat="45.7216867" lon="8.3216733"><ele>378.0</ele><time>2026-03-29T12:33:52.002Z</time></trkpt><trkpt lat="45.7216333" lon="8.32137"><ele>377.0</ele><time>2026-03-29T12:33:53.002Z</time></trkpt><trkpt lat="45.72161" lon="8.321065"><ele>376.0</ele><time>2026-03-29T12:33:54.003Z</time></trkpt><trkpt lat="45.721595" lon="8.3207533"><ele>378.0</ele><time>2026-03-29T12:33:55.003Z</time></trkpt><trkpt lat="45.7215867" lon="8.3204567"><ele>380.0</ele><time>2026-03-29T12:33:56.003Z</time></trkpt><trkpt lat="45.72157" lon="8.32015"><ele>382.0</ele><time>2026-03-29T12:33:57.003Z</time></trkpt><trkpt lat="45.7215533" lon="8.3198233"><ele>381.0</ele><time>2026-03-29T12:33:58.002Z</time></trkpt><trkpt lat="45.7215167" lon="8.31952"><ele>380.0</ele><time>2026-03-29T12:33:59.003Z</time></trkpt><trkpt lat="45.7214833" lon="8.3192133"><ele>379.0</ele><time>2026-03-29T12:34:00.002Z</time></trkpt><trkpt lat="45.7214433" lon="8.3189117"><ele>379.3333333333333</ele><time>2026-03-29T12:34:01.003Z</time></trkpt><trkpt lat="45.72141" lon="8.3185983"><ele>379.6666666666667</ele><time>2026-03-29T12:34:02.002Z</time></trkpt><trkpt lat="45.7213783" lon="8.3182867"><ele>380.0</ele><time>2026-03-29T12:34:03.003Z</time></trkpt><trkpt lat="45.72134" lon="8.3179817"><ele>380.0</ele><time>2026-03-29T12:34:04.003Z</time></trkpt><trkpt lat="45.72131" lon="8.317675"><ele>380.0</ele><time>2026-03-29T12:34:05.002Z</time></trkpt><trkpt lat="45.7212783" lon="8.3173533"><ele>380.0</ele><time>2026-03-29T12:34:06.003Z</time></trkpt><trkpt lat="45.7212467" lon="8.31703"><ele>380.33333333333337</ele><time>2026-03-29T12:34:07.002Z</time></trkpt><trkpt lat="45.72123" lon="8.3167183"><ele>380.6666666666667</ele><time>2026-03-29T12:34:08.002Z</time></trkpt><trkpt lat="45.7212083" lon="8.3164067"><ele>381.0</ele><time>2026-03-29T12:34:09.003Z</time></trkpt><trkpt lat="45.7211833" lon="8.316105"><ele>381.6666666666667</ele><time>2026-03-29T12:34:10.002Z</time></trkpt><trkpt lat="45.7211783" lon="8.3158067"><ele>382.33333333333337</ele><time>2026-03-29T12:34:11.002Z</time></trkpt><trkpt lat="45.721175" lon="8.3155117"><ele>383.0</ele><time>2026-03-29T12:34:12.003Z</time></trkpt><trkpt lat="45.7211667" lon="8.3152117"><ele>383.0</ele><time>2026-03-29T12:34:13.003Z</time></trkpt><trkpt lat="45.72117" lon="8.3149083"><ele>383.0</ele><time>2026-03-29T12:34:14.003Z</time></trkpt><trkpt lat="45.7211767" lon="8.3146233"><ele>383.0</ele><time>2026-03-29T12:34:15.002Z</time></trkpt><trkpt lat="45.7211733" lon="8.3143383"><ele>381.0</ele><time>2026-03-29T12:34:16.002Z</time></trkpt><trkpt lat="45.7211717" lon="8.3140417"><ele>379.0</ele><time>2026-03-29T12:34:17.003Z</time></trkpt><trkpt lat="45.7211817" lon="8.313745"><ele>377.0</ele><time>2026-03-29T12:34:18.002Z</time></trkpt><trkpt lat="45.7211917" lon="8.313445"><ele>375.33333333333337</ele><time>2026-03-29T12:34:19.003Z</time></trkpt><trkpt lat="45.7212033" lon="8.31317"><ele>373.6666666666667</ele><time>2026-03-29T12:34:20.002Z</time></trkpt><trkpt lat="45.72121" lon="8.3129117"><ele>372.0</ele><time>2026-03-29T12:34:21.003Z</time></trkpt><trkpt lat="45.7212" lon="8.3126817"><ele>372.25</ele><time>2026-03-29T12:34:22.003Z</time></trkpt><trkpt lat="45.7211933" lon="8.31247"><ele>372.5</ele><time>2026-03-29T12:34:23.003Z</time></trkpt><trkpt lat="45.7211967" lon="8.312285"><ele>372.75</ele><time>2026-03-29T12:34:24.003Z</time></trkpt><trkpt lat="45.721225" lon="8.31211"><ele>373.0</ele><time>2026-03-29T12:34:25.003Z</time></trkpt><trkpt lat="45.7212717" lon="8.31197"><ele>373.0</ele><time>2026-03-29T12:34:26.002Z</time></trkpt><trkpt lat="45.7213283" lon="8.3118567"><ele>373.0</ele><time>2026-03-29T12:34:27.002Z</time></trkpt><trkpt lat="45.7213767" lon="8.3117583"><ele>373.0</ele><time>2026-03-29T12:34:28.003Z</time></trkpt><trkpt lat="45.721395" lon="8.3116417"><ele>373.0</ele><time>2026-03-29T12:34:29.002Z</time></trkpt><trkpt lat="45.7213567" lon="8.3115567"><ele>373.0</ele><time>2026-03-29T12:34:30.003Z</time></trkpt><trkpt lat="45.721305" lon="8.3114567"><ele>373.0</ele><time>2026-03-29T12:34:31.003Z</time></trkpt><trkpt lat="45.7212083" lon="8.311345"><ele>371.3333333333333</ele><time>2026-03-29T12:34:32.002Z</time></trkpt><trkpt lat="45.7211033" lon="8.3111917"><ele>369.6666666666667</ele><time>2026-03-29T12:34:33.003Z</time></trkpt><trkpt lat="45.7210017" lon="8.310975"><ele>368.0</ele><time>2026-03-29T12:34:34.003Z</time></trkpt><trkpt lat="45.7209033" lon="8.310705"><ele>370.5</ele><time>2026-03-29T12:34:35.002Z</time></trkpt><trkpt lat="45.7208067" lon="8.31038"><ele>373.0</ele><time>2026-03-29T12:34:36.003Z</time></trkpt><trkpt lat="45.7207033" lon="8.3100333"><ele>377.5</ele><time>2026-03-29T12:34:37.003Z</time></trkpt><trkpt lat="45.72059" lon="8.3096567"><ele>382.0</ele><time>2026-03-29T12:34:38.003Z</time></trkpt><trkpt lat="45.72046" lon="8.30927"><ele>387.0</ele><time>2026-03-29T12:34:39.003Z</time></trkpt><trkpt lat="45.72034" lon="8.308885"><ele>392.0</ele><time>2026-03-29T12:34:40.003Z</time></trkpt><trkpt lat="45.720235" lon="8.3085067"><ele>380.0</ele><time>2026-03-29T12:34:41.003Z</time></trkpt><trkpt lat="45.7201317" lon="8.3081233"><ele>368.0</ele><time>2026-03-29T12:34:42.003Z</time></trkpt><trkpt lat="45.720025" lon="8.307765"><ele>368.0</ele><time>2026-03-29T12:34:43.003Z</time></trkpt><trkpt lat="45.7199217" lon="8.30742"><ele>368.0</ele><time>2026-03-29T12:34:44.002Z</time></trkpt><trkpt lat="45.7198283" lon="8.3071167"><ele>370.6666666666667</ele><time>2026-03-29T12:34:45.003Z</time></trkpt><trkpt lat="45.7197867" lon="8.3067917"><ele>373.3333333333333</ele><time>2026-03-29T12:34:46.002Z</time></trkpt><trkpt lat="45.7197617" lon="8.3064967"><ele>376.0</ele><time>2026-03-29T12:34:47.003Z</time></trkpt><trkpt lat="45.7197767" lon="8.3061983"><ele>376.0</ele><time>2026-03-29T12:34:48.002Z</time></trkpt><trkpt lat="45.7198133" lon="8.3058817"><ele>376.0</ele><time>2026-03-29T12:34:49.003Z</time></trkpt><trkpt lat="45.7198417" lon="8.3055383"><ele>373.3333333333333</ele><time>2026-03-29T12:34:50.003Z</time></trkpt><trkpt lat="45.71985" lon="8.3052017"><ele>370.6666666666667</ele><time>2026-03-29T12:34:51.002Z</time></trkpt><trkpt lat="45.719835" lon="8.3049133"><ele>368.0</ele><time>2026-03-29T12:34:52.003Z</time></trkpt><trkpt lat="45.7198133" lon="8.30465"><ele>366.4</ele><time>2026-03-29T12:34:53.003Z</time></trkpt><trkpt lat="45.7197967" lon="8.30446"><ele>364.79999999999995</ele><time>2026-03-29T12:34:54.002Z</time></trkpt><trkpt lat="45.7197933" lon="8.3042883"><ele>363.2</ele><time>2026-03-29T12:34:55.003Z</time></trkpt><trkpt lat="45.7198" lon="8.3041433"><ele>361.6</ele><time>2026-03-29T12:34:56.002Z</time></trkpt><trkpt lat="45.7198167" lon="8.3040183"><ele>360.0</ele><time>2026-03-29T12:34:57.003Z</time></trkpt><trkpt lat="45.7197967" lon="8.30388"><ele>359.3333333333333</ele><time>2026-03-29T12:34:58.003Z</time></trkpt><trkpt lat="45.7197417" lon="8.3037317"><ele>358.66666666666663</ele><time>2026-03-29T12:34:59.002Z</time></trkpt><trkpt lat="45.7196817" lon="8.3035317"><ele>358.0</ele><time>2026-03-29T12:35:00.003Z</time></trkpt><trkpt lat="45.7196533" lon="8.30327"><ele>357.66666666666663</ele><time>2026-03-29T12:35:01.002Z</time></trkpt><trkpt lat="45.7196167" lon="8.30298"><ele>357.3333333333333</ele><time>2026-03-29T12:35:02.002Z</time></trkpt><trkpt lat="45.7195633" lon="8.3026867"><ele>357.0</ele><time>2026-03-29T12:35:03.002Z</time></trkpt><trkpt lat="45.7194733" lon="8.3024117"><ele>359.0</ele><time>2026-03-29T12:35:04.002Z</time></trkpt><trkpt lat="45.7193433" lon="8.3021617"><ele>361.0</ele><time>2026-03-29T12:35:05.003Z</time></trkpt><trkpt lat="45.71919" lon="8.3019283"><ele>363.0</ele><time>2026-03-29T12:35:06.003Z</time></trkpt><trkpt lat="45.719" lon="8.301735"><ele>363.0</ele><time>2026-03-29T12:35:07.003Z</time></trkpt><trkpt lat="45.7187767" lon="8.301565"><ele>363.0</ele><time>2026-03-29T12:35:08.003Z</time></trkpt><trkpt lat="45.718555" lon="8.30142"><ele>373.0</ele><time>2026-03-29T12:35:09.003Z</time></trkpt><trkpt lat="45.71833" lon="8.30129"><ele>383.0</ele><time>2026-03-29T12:35:10.003Z</time></trkpt><trkpt lat="45.718085" lon="8.3011233"><ele>383.0</ele><time>2026-03-29T12:35:11.003Z</time></trkpt><trkpt lat="45.7178467" lon="8.30093"><ele>383.0</ele><time>2026-03-29T12:35:12.002Z</time></trkpt><trkpt lat="45.7176233" lon="8.3007"><ele>372.5</ele><time>2026-03-29T12:35:13.003Z</time></trkpt><trkpt lat="45.7174133" lon="8.3004633"><ele>362.0</ele><time>2026-03-29T12:35:14.002Z</time></trkpt><trkpt lat="45.7172167" lon="8.3002033"><ele>362.0</ele><time>2026-03-29T12:35:15.003Z</time></trkpt><trkpt lat="45.7170333" lon="8.2999217"><ele>362.0</ele><time>2026-03-29T12:35:16.003Z</time></trkpt><trkpt lat="45.716865" lon="8.2996417"><ele>354.5</ele><time>2026-03-29T12:35:17.003Z</time></trkpt><trkpt lat="45.7167133" lon="8.2993717"><ele>347.0</ele><time>2026-03-29T12:35:18.003Z</time></trkpt><trkpt lat="45.7165833" lon="8.2990933"><ele>352.0</ele><time>2026-03-29T12:35:19.002Z</time></trkpt><trkpt lat="45.7164833" lon="8.298805"><ele>357.0</ele><time>2026-03-29T12:35:20.003Z</time></trkpt><trkpt lat="45.7163917" lon="8.2984967"><ele>357.0</ele><time>2026-03-29T12:35:21.003Z</time></trkpt><trkpt lat="45.7162917" lon="8.2982267"><ele>357.0</ele><time>2026-03-29T12:35:22.002Z</time></trkpt><trkpt lat="45.7161733" lon="8.297995"><ele>357.0</ele><time>2026-03-29T12:35:23.003Z</time></trkpt><trkpt lat="45.71602" lon="8.297805"><ele>359.6666666666667</ele><time>2026-03-29T12:35:24.003Z</time></trkpt><trkpt lat="45.71586" lon="8.297655"><ele>362.33333333333337</ele><time>2026-03-29T12:35:25.002Z</time></trkpt><trkpt lat="45.7156567" lon="8.2975533"><ele>365.0</ele><time>2026-03-29T12:35:26.003Z</time></trkpt><trkpt lat="45.7154417" lon="8.2974867"><ele>361.6666666666667</ele><time>2026-03-29T12:35:27.002Z</time></trkpt><trkpt lat="45.7152317" lon="8.2974483"><ele>358.3333333333333</ele><time>2026-03-29T12:35:28.002Z</time></trkpt><trkpt lat="45.7150033" lon="8.2974717"><ele>355.0</ele><time>2026-03-29T12:35:29.003Z</time></trkpt><trkpt lat="45.7147683" lon="8.297495"><ele>355.0</ele><time>2026-03-29T12:35:30.003Z</time></trkpt><trkpt lat="45.7145217" lon="8.2975233"><ele>355.0</ele><time>2026-03-29T12:35:31.002Z</time></trkpt><trkpt lat="45.7142583" lon="8.2975333"><ele>352.5</ele><time>2026-03-29T12:35:32.003Z</time></trkpt><trkpt lat="45.7139983" lon="8.2975517"><ele>350.0</ele><time>2026-03-29T12:35:33.003Z</time></trkpt><trkpt lat="45.71374" lon="8.2975733"><ele>347.0</ele><time>2026-03-29T12:35:34.003Z</time></trkpt><trkpt lat="45.713475" lon="8.297595"><ele>344.0</ele><time>2026-03-29T12:35:35.003Z</time></trkpt><trkpt lat="45.7132217" lon="8.2976117"><ele>344.0</ele><time>2026-03-29T12:35:36.002Z</time></trkpt><trkpt lat="45.7129817" lon="8.2976333"><ele>344.0</ele><time>2026-03-29T12:35:37.003Z</time></trkpt><trkpt lat="45.7127583" lon="8.2976533"><ele>345.0</ele><time>2026-03-29T12:35:38.003Z</time></trkpt><trkpt lat="45.7125533" lon="8.297685"><ele>346.0</ele><time>2026-03-29T12:35:39.003Z</time></trkpt><trkpt lat="45.7123583" lon="8.2977033"><ele>347.0</ele><time>2026-03-29T12:35:40.002Z</time></trkpt><trkpt lat="45.7121817" lon="8.2977017"><ele>347.0</ele><time>2026-03-29T12:35:41.003Z</time></trkpt><trkpt lat="45.7120083" lon="8.2976817"><ele>347.0</ele><time>2026-03-29T12:35:42.003Z</time></trkpt><trkpt lat="45.7118583" lon="8.297545"><ele>347.0</ele><time>2026-03-29T12:35:43.002Z</time></trkpt><trkpt lat="45.7117483" lon="8.2973667"><ele>347.33333333333337</ele><time>2026-03-29T12:35:44.003Z</time></trkpt><trkpt lat="45.7116517" lon="8.297135"><ele>347.6666666666667</ele><time>2026-03-29T12:35:45.003Z</time></trkpt><trkpt lat="45.7115767" lon="8.2968967"><ele>348.0</ele><time>2026-03-29T12:35:46.003Z</time></trkpt><trkpt lat="45.7115133" lon="8.2966783"><ele>348.0</ele><time>2026-03-29T12:35:47.003Z</time></trkpt><trkpt lat="45.7114533" lon="8.29646"><ele>348.0</ele><time>2026-03-29T12:35:48.003Z</time></trkpt><trkpt lat="45.7114" lon="8.2962217"><ele>348.0</ele><time>2026-03-29T12:35:49.002Z</time></trkpt><trkpt lat="45.71134" lon="8.2959833"><ele>348.3333333333333</ele><time>2026-03-29T12:35:50.003Z</time></trkpt><trkpt lat="45.71127" lon="8.29574"><ele>348.66666666666663</ele><time>2026-03-29T12:35:51.003Z</time></trkpt><trkpt lat="45.7111917" lon="8.2954933"><ele>349.0</ele><time>2026-03-29T12:35:52.002Z</time></trkpt><trkpt lat="45.7111267" lon="8.295255"><ele>348.0</ele><time>2026-03-29T12:35:53.002Z</time></trkpt><trkpt lat="45.71107" lon="8.2950433"><ele>347.0</ele><time>2026-03-29T12:35:54.002Z</time></trkpt><trkpt lat="45.7110067" lon="8.294845"><ele>346.0</ele><time>2026-03-29T12:35:55.003Z</time></trkpt><trkpt lat="45.7109533" lon="8.294645"><ele>346.0</ele><time>2026-03-29T12:35:56.003Z</time></trkpt><trkpt lat="45.7108983" lon="8.294485"><ele>346.0</ele><time>2026-03-29T12:35:57.003Z</time></trkpt><trkpt lat="45.7108417" lon="8.29432"><ele>346.0</ele><time>2026-03-29T12:35:58.003Z</time></trkpt><trkpt lat="45.7108067" lon="8.29417"><ele>346.0</ele><time>2026-03-29T12:35:59.003Z</time></trkpt><trkpt lat="45.7107617" lon="8.2940333"><ele>346.0</ele><time>2026-03-29T12:36:00.003Z</time></trkpt><trkpt lat="45.7107267" lon="8.2939017"><ele>346.0</ele><time>2026-03-29T12:36:01.002Z</time></trkpt><trkpt lat="45.710695" lon="8.2937833"><ele>346.0</ele><time>2026-03-29T12:36:02.002Z</time></trkpt><trkpt lat="45.710655" lon="8.2936667"><ele>346.0</ele><time>2026-03-29T12:36:03.003Z</time></trkpt><trkpt lat="45.7106183" lon="8.2935433"><ele>346.0</ele><time>2026-03-29T12:36:04.003Z</time></trkpt><trkpt lat="45.7105883" lon="8.2933783"><ele>346.0</ele><time>2026-03-29T12:36:05.002Z</time></trkpt><trkpt lat="45.7105867" lon="8.293195"><ele>346.0</ele><time>2026-03-29T12:36:06.002Z</time></trkpt><trkpt lat="45.7106083" lon="8.293015"><ele>346.0</ele><time>2026-03-29T12:36:07.003Z</time></trkpt><trkpt lat="45.710655" lon="8.29283"><ele>346.0</ele><time>2026-03-29T12:36:08.003Z</time></trkpt><trkpt lat="45.7106933" lon="8.29264"><ele>345.75</ele><time>2026-03-29T12:36:09.003Z</time></trkpt><trkpt lat="45.7107367" lon="8.2924667"><ele>345.5</ele><time>2026-03-29T12:36:10.003Z</time></trkpt><trkpt lat="45.7107783" lon="8.2923067"><ele>345.25</ele><time>2026-03-29T12:36:11.002Z</time></trkpt><trkpt lat="45.7108167" lon="8.2921533"><ele>345.0</ele><time>2026-03-29T12:36:12.003Z</time></trkpt><trkpt lat="45.7108517" lon="8.2920117"><ele>344.8</ele><time>2026-03-29T12:36:13.003Z</time></trkpt><trkpt lat="45.710885" lon="8.291885"><ele>344.6</ele><time>2026-03-29T12:36:14.003Z</time></trkpt><trkpt lat="45.7109167" lon="8.2917467"><ele>344.4</ele><time>2026-03-29T12:36:15.003Z</time></trkpt><trkpt lat="45.7109533" lon="8.2916017"><ele>344.2</ele><time>2026-03-29T12:36:16.002Z</time></trkpt><trkpt lat="45.7109883" lon="8.2914467"><ele>344.0</ele><time>2026-03-29T12:36:17.003Z</time></trkpt><trkpt lat="45.711015" lon="8.2912733"><ele>344.0</ele><time>2026-03-29T12:36:18.003Z</time></trkpt><trkpt lat="45.71105" lon="8.2911117"><ele>344.0</ele><time>2026-03-29T12:36:19.003Z</time></trkpt><trkpt lat="45.7110733" lon="8.2909467"><ele>344.0</ele><time>2026-03-29T12:36:20.003Z</time></trkpt><trkpt lat="45.7110917" lon="8.2907783"><ele>344.0</ele><time>2026-03-29T12:36:21.003Z</time></trkpt><trkpt lat="45.711115" lon="8.29061"><ele>347.25</ele><time>2026-03-29T12:36:22.002Z</time></trkpt><trkpt lat="45.71113" lon="8.2904233"><ele>350.5</ele><time>2026-03-29T12:36:23.003Z</time></trkpt><trkpt lat="45.7111367" lon="8.2902267"><ele>353.75</ele><time>2026-03-29T12:36:24.002Z</time></trkpt><trkpt lat="45.7111317" lon="8.2900333"><ele>357.0</ele><time>2026-03-29T12:36:25.002Z</time></trkpt><trkpt lat="45.7111167" lon="8.2898483"><ele>357.5</ele><time>2026-03-29T12:36:26.003Z</time></trkpt><trkpt lat="45.71111" lon="8.2896717"><ele>358.0</ele><time>2026-03-29T12:36:27.003Z</time></trkpt><trkpt lat="45.7111067" lon="8.2894933"><ele>358.5</ele><time>2026-03-29T12:36:28.003Z</time></trkpt><trkpt lat="45.7110983" lon="8.289305"><ele>359.0</ele><time>2026-03-29T12:36:29.003Z</time></trkpt><trkpt lat="45.711095" lon="8.28913"><ele>359.0</ele><time>2026-03-29T12:36:30.003Z</time></trkpt><trkpt lat="45.71109" lon="8.2889667"><ele>359.0</ele><time>2026-03-29T12:36:31.003Z</time></trkpt><trkpt lat="45.7110917" lon="8.2888067"><ele>359.0</ele><time>2026-03-29T12:36:32.003Z</time></trkpt><trkpt lat="45.711095" lon="8.2886417"><ele>359.0</ele><time>2026-03-29T12:36:33.002Z</time></trkpt><trkpt lat="45.7111133" lon="8.2884683"><ele>359.0</ele><time>2026-03-29T12:36:34.003Z</time></trkpt><trkpt lat="45.7111283" lon="8.2883083"><ele>359.0</ele><time>2026-03-29T12:36:35.003Z</time></trkpt><trkpt lat="45.71116" lon="8.2881333"><ele>359.0</ele><time>2026-03-29T12:36:36.003Z</time></trkpt><trkpt lat="45.7111933" lon="8.28795"><ele>359.0</ele><time>2026-03-29T12:36:37.002Z</time></trkpt><trkpt lat="45.7112417" lon="8.28779"><ele>358.0</ele><time>2026-03-29T12:36:38.003Z</time></trkpt><trkpt lat="45.7112783" lon="8.2876333"><ele>357.0</ele><time>2026-03-29T12:36:39.002Z</time></trkpt><trkpt lat="45.711335" lon="8.2875067"><ele>356.0</ele><time>2026-03-29T12:36:40.003Z</time></trkpt><trkpt lat="45.7113833" lon="8.2873783"><ele>355.0</ele><time>2026-03-29T12:36:41.002Z</time></trkpt><trkpt lat="45.71142" lon="8.28725"><ele>354.0</ele><time>2026-03-29T12:36:42.003Z</time></trkpt><trkpt lat="45.7114567" lon="8.287135"><ele>352.4</ele><time>2026-03-29T12:36:43.002Z</time></trkpt><trkpt lat="45.7114983" lon="8.287015"><ele>350.79999999999995</ele><time>2026-03-29T12:36:44.003Z</time></trkpt><trkpt lat="45.7115317" lon="8.2869017"><ele>349.20000000000005</ele><time>2026-03-29T12:36:45.003Z</time></trkpt><trkpt lat="45.7115733" lon="8.2868217"><ele>347.6</ele><time>2026-03-29T12:36:46.003Z</time></trkpt><trkpt lat="45.7116633" lon="8.2867417"><ele>346.0</ele><time>2026-03-29T12:36:48.003Z</time></trkpt><trkpt lat="45.71171" lon="8.286585"><ele>346.0</ele><time>2026-03-29T12:36:50.003Z</time></trkpt><trkpt lat="45.711715" lon="8.286485"><ele>346.0</ele><time>2026-03-29T12:36:51.003Z</time></trkpt><trkpt lat="45.7117417" lon="8.2863767"><ele>346.0</ele><time>2026-03-29T12:36:52.002Z</time></trkpt><trkpt lat="45.7117733" lon="8.2862683"><ele>346.0</ele><time>2026-03-29T12:36:53.003Z</time></trkpt><trkpt lat="45.7118" lon="8.2861483"><ele>346.0</ele><time>2026-03-29T12:36:54.002Z</time></trkpt><trkpt lat="45.71186" lon="8.2859867"><ele>346.0</ele><time>2026-03-29T12:36:55.003Z</time></trkpt><trkpt lat="45.7119267" lon="8.2858"><ele>345.0</ele><time>2026-03-29T12:36:56.003Z</time></trkpt><trkpt lat="45.7119967" lon="8.2856117"><ele>344.0</ele><time>2026-03-29T12:36:57.003Z</time></trkpt><trkpt lat="45.7120833" lon="8.28542"><ele>343.0</ele><time>2026-03-29T12:36:58.003Z</time></trkpt><trkpt lat="45.7121733" lon="8.2852283"><ele>343.0</ele><time>2026-03-29T12:36:59.002Z</time></trkpt><trkpt lat="45.7122517" lon="8.2850233"><ele>343.0</ele><time>2026-03-29T12:37:00.003Z</time></trkpt><trkpt lat="45.7123383" lon="8.284825"><ele>343.0</ele><time>2026-03-29T12:37:01.003Z</time></trkpt><trkpt lat="45.7124367" lon="8.284625"><ele>343.3333333333333</ele><time>2026-03-29T12:37:02.002Z</time></trkpt><trkpt lat="45.7125167" lon="8.2844267"><ele>343.6666666666667</ele><time>2026-03-29T12:37:03.003Z</time></trkpt><trkpt lat="45.7125933" lon="8.28424"><ele>344.0</ele><time>2026-03-29T12:37:04.002Z</time></trkpt><trkpt lat="45.7126767" lon="8.2840533"><ele>344.33333333333337</ele><time>2026-03-29T12:37:05.003Z</time></trkpt><trkpt lat="45.712755" lon="8.2838733"><ele>344.6666666666667</ele><time>2026-03-29T12:37:06.003Z</time></trkpt><trkpt lat="45.712835" lon="8.2836933"><ele>345.0</ele><time>2026-03-29T12:37:07.003Z</time></trkpt><trkpt lat="45.7129183" lon="8.2835033"><ele>345.0</ele><time>2026-03-29T12:37:08.003Z</time></trkpt><trkpt lat="45.7129867" lon="8.28333"><ele>345.0</ele><time>2026-03-29T12:37:09.003Z</time></trkpt><trkpt lat="45.713055" lon="8.2831767"><ele>345.0</ele><time>2026-03-29T12:37:10.003Z</time></trkpt><trkpt lat="45.7131167" lon="8.28303"><ele>345.0</ele><time>2026-03-29T12:37:11.002Z</time></trkpt><trkpt lat="45.7131867" lon="8.2828667"><ele>345.5</ele><time>2026-03-29T12:37:12.003Z</time></trkpt><trkpt lat="45.7132533" lon="8.282695"><ele>346.0</ele><time>2026-03-29T12:37:13.003Z</time></trkpt><trkpt lat="45.7133217" lon="8.2825333"><ele>346.5</ele><time>2026-03-29T12:37:14.003Z</time></trkpt><trkpt lat="45.7133833" lon="8.2823683"><ele>347.0</ele><time>2026-03-29T12:37:15.002Z</time></trkpt><trkpt lat="45.7134433" lon="8.2822083"><ele>347.20000000000005</ele><time>2026-03-29T12:37:16.003Z</time></trkpt><trkpt lat="45.7134933" lon="8.2820517"><ele>347.4</ele><time>2026-03-29T12:37:17.002Z</time></trkpt><trkpt lat="45.7135367" lon="8.28191"><ele>347.6</ele><time>2026-03-29T12:37:18.003Z</time></trkpt><trkpt lat="45.7136" lon="8.281775"><ele>347.79999999999995</ele><time>2026-03-29T12:37:19.003Z</time></trkpt><trkpt lat="45.7136467" lon="8.28166"><ele>348.0</ele><time>2026-03-29T12:37:20.002Z</time></trkpt><trkpt lat="45.713685" lon="8.2815383"><ele>348.4</ele><time>2026-03-29T12:37:21.001Z</time></trkpt><trkpt lat="45.7137233" lon="8.2814"><ele>348.79999999999995</ele><time>2026-03-29T12:37:22.002Z</time></trkpt><trkpt lat="45.713795" lon="8.28128"><ele>349.2</ele><time>2026-03-29T12:37:23.002Z</time></trkpt><trkpt lat="45.7138517" lon="8.2811783"><ele>349.6</ele><time>2026-03-29T12:37:24.002Z</time></trkpt><trkpt lat="45.713905" lon="8.2810633"><ele>350.0</ele><time>2026-03-29T12:37:25.001Z</time></trkpt><trkpt lat="45.7139517" lon="8.2809533"><ele>350.0</ele><time>2026-03-29T12:37:26.002Z</time></trkpt><trkpt lat="45.714005" lon="8.280845"><ele>350.0</ele><time>2026-03-29T12:37:27.002Z</time></trkpt><trkpt lat="45.71406" lon="8.280735"><ele>350.0</ele><time>2026-03-29T12:37:28.002Z</time></trkpt><trkpt lat="45.7141083" lon="8.2806117"><ele>350.0</ele><time>2026-03-29T12:37:29.002Z</time></trkpt><trkpt lat="45.7141567" lon="8.2804767"><ele>350.0</ele><time>2026-03-29T12:37:30.002Z</time></trkpt><trkpt lat="45.7142133" lon="8.2803517"><ele>350.2</ele><time>2026-03-29T12:37:31.001Z</time></trkpt><trkpt lat="45.7142683" lon="8.2802417"><ele>350.4</ele><time>2026-03-29T12:37:32.002Z</time></trkpt><trkpt lat="45.7143217" lon="8.2801283"><ele>350.6</ele><time>2026-03-29T12:37:33.001Z</time></trkpt><trkpt lat="45.7143633" lon="8.2800117"><ele>350.8</ele><time>2026-03-29T12:37:34.001Z</time></trkpt><trkpt lat="45.7144067" lon="8.2799017"><ele>351.0</ele><time>2026-03-29T12:37:35.002Z</time></trkpt><trkpt lat="45.7144533" lon="8.279795"><ele>352.0</ele><time>2026-03-29T12:37:36.002Z</time></trkpt><trkpt lat="45.7145033" lon="8.2796733"><ele>353.0</ele><time>2026-03-29T12:37:37.002Z</time></trkpt><trkpt lat="45.7145517" lon="8.2795633"><ele>354.0</ele><time>2026-03-29T12:37:38.002Z</time></trkpt><trkpt lat="45.7145917" lon="8.279455"><ele>355.0</ele><time>2026-03-29T12:37:39.002Z</time></trkpt><trkpt lat="45.7146317" lon="8.279355"><ele>356.0</ele><time>2026-03-29T12:37:40.001Z</time></trkpt><trkpt lat="45.7146683" lon="8.2792567"><ele>357.0</ele><time>2026-03-29T12:37:41.002Z</time></trkpt><trkpt lat="45.71466" lon="8.279155"><ele>357.0</ele><time>2026-03-29T12:37:42.002Z</time></trkpt><trkpt lat="45.7147167" lon="8.2790517"><ele>357.0</ele><time>2026-03-29T12:37:43.001Z</time></trkpt><trkpt lat="45.7147583" lon="8.2789617"><ele>357.0</ele><time>2026-03-29T12:37:44.001Z</time></trkpt><trkpt lat="45.7147967" lon="8.27887"><ele>357.0</ele><time>2026-03-29T12:37:45.002Z</time></trkpt><trkpt lat="45.7148367" lon="8.278785"><ele>357.0</ele><time>2026-03-29T12:37:46.001Z</time></trkpt><trkpt lat="45.7149017" lon="8.27864"><ele>357.0</ele><time>2026-03-29T12:37:48.002Z</time></trkpt><trkpt lat="45.7149767" lon="8.278535"><ele>357.1666666666667</ele><time>2026-03-29T12:37:50.001Z</time></trkpt><trkpt lat="45.7150183" lon="8.278455"><ele>357.3333333333333</ele><time>2026-03-29T12:37:52.002Z</time></trkpt><trkpt lat="45.7149617" lon="8.278355"><ele>357.5</ele><time>2026-03-29T12:37:54.002Z</time></trkpt><trkpt lat="45.7148567" lon="8.2783333"><ele>357.66666666666663</ele><time>2026-03-29T12:37:56.001Z</time></trkpt><trkpt lat="45.71479" lon="8.2783567"><ele>357.8333333333333</ele><time>2026-03-29T12:37:57.001Z</time></trkpt><trkpt lat="45.7147117" lon="8.2783667"><ele>358.0</ele><time>2026-03-29T12:37:58.002Z</time></trkpt><trkpt lat="45.7146283" lon="8.27836"><ele>358.0</ele><time>2026-03-29T12:37:59.002Z</time></trkpt><trkpt lat="45.7145333" lon="8.278325"><ele>358.0</ele><time>2026-03-29T12:38:00.002Z</time></trkpt><trkpt lat="45.7144283" lon="8.278265"><ele>358.0</ele><time>2026-03-29T12:38:01.002Z</time></trkpt><trkpt lat="45.7143233" lon="8.2781867"><ele>358.0</ele><time>2026-03-29T12:38:02.002Z</time></trkpt><trkpt lat="45.71422" lon="8.2781083"><ele>358.0</ele><time>2026-03-29T12:38:03.002Z</time></trkpt><trkpt lat="45.7141183" lon="8.2780433"><ele>357.16666666666663</ele><time>2026-03-29T12:38:04.002Z</time></trkpt><trkpt lat="45.7140217" lon="8.277965"><ele>356.3333333333333</ele><time>2026-03-29T12:38:05.001Z</time></trkpt><trkpt lat="45.7139417" lon="8.2778983"><ele>355.5</ele><time>2026-03-29T12:38:06.002Z</time></trkpt><trkpt lat="45.7138717" lon="8.2778233"><ele>354.6666666666667</ele><time>2026-03-29T12:38:07.001Z</time></trkpt><trkpt lat="45.7138217" lon="8.27773"><ele>353.83333333333337</ele><time>2026-03-29T12:38:08.002Z</time></trkpt><trkpt lat="45.713785" lon="8.2776517"><ele>353.0</ele><time>2026-03-29T12:38:09.002Z</time></trkpt><trkpt lat="45.7137367" lon="8.2775933"><ele>353.0</ele><time>2026-03-29T12:38:10.002Z</time></trkpt><trkpt lat="45.7136333" lon="8.2775467"><ele>353.0</ele><time>2026-03-29T12:38:12.002Z</time></trkpt><trkpt lat="45.7135483" lon="8.2775683"><ele>353.0</ele><time>2026-03-29T12:38:13.002Z</time></trkpt><trkpt lat="45.71346" lon="8.2775883"><ele>353.0</ele><time>2026-03-29T12:38:14.002Z</time></trkpt><trkpt lat="45.713365" lon="8.2776333"><ele>353.0</ele><time>2026-03-29T12:38:15.002Z</time></trkpt><trkpt lat="45.7132717" lon="8.2776733"><ele>352.59999999999997</ele><time>2026-03-29T12:38:16.002Z</time></trkpt><trkpt lat="45.7131817" lon="8.2777067"><ele>352.2</ele><time>2026-03-29T12:38:17.001Z</time></trkpt><trkpt lat="45.7130667" lon="8.2777417"><ele>351.8</ele><time>2026-03-29T12:38:18.002Z</time></trkpt><trkpt lat="45.7129567" lon="8.2777783"><ele>351.4</ele><time>2026-03-29T12:38:19.002Z</time></trkpt><trkpt lat="45.7128483" lon="8.2778133"><ele>351.0</ele><time>2026-03-29T12:38:20.001Z</time></trkpt><trkpt lat="45.712735" lon="8.2778417"><ele>349.0</ele><time>2026-03-29T12:38:21.001Z</time></trkpt><trkpt lat="45.7126283" lon="8.27787"><ele>347.0</ele><time>2026-03-29T12:38:22.001Z</time></trkpt><trkpt lat="45.7125117" lon="8.2778983"><ele>345.0</ele><time>2026-03-29T12:38:23.001Z</time></trkpt><trkpt lat="45.7124117" lon="8.2779283"><ele>343.0</ele><time>2026-03-29T12:38:24.002Z</time></trkpt><trkpt lat="45.7123167" lon="8.2779533"><ele>341.0</ele><time>2026-03-29T12:38:25.002Z</time></trkpt><trkpt lat="45.7122167" lon="8.2779767"><ele>341.0</ele><time>2026-03-29T12:38:26.002Z</time></trkpt><trkpt lat="45.7121267" lon="8.2779917"><ele>341.0</ele><time>2026-03-29T12:38:27.002Z</time></trkpt><trkpt lat="45.71203" lon="8.278015"><ele>341.0</ele><time>2026-03-29T12:38:28.002Z</time></trkpt><trkpt lat="45.71194" lon="8.2780317"><ele>341.0</ele><time>2026-03-29T12:38:29.002Z</time></trkpt><trkpt lat="45.7118733" lon="8.2780783"><ele>341.0</ele><time>2026-03-29T12:38:30.002Z</time></trkpt><trkpt lat="45.711815" lon="8.278145"><ele>341.0</ele><time>2026-03-29T12:38:31.002Z</time></trkpt><trkpt lat="45.7117717" lon="8.2782133"><ele>343.20000000000005</ele><time>2026-03-29T12:38:32.002Z</time></trkpt><trkpt lat="45.7117333" lon="8.2783167"><ele>345.40000000000003</ele><time>2026-03-29T12:38:33.001Z</time></trkpt><trkpt lat="45.711695" lon="8.2784333"><ele>347.6</ele><time>2026-03-29T12:38:34.002Z</time></trkpt><trkpt lat="45.7116483" lon="8.27857"><ele>349.8</ele><time>2026-03-29T12:38:35.002Z</time></trkpt><trkpt lat="45.7115933" lon="8.2786983"><ele>352.0</ele><time>2026-03-29T12:38:36.002Z</time></trkpt><trkpt lat="45.7115233" lon="8.27887"><ele>351.3333333333333</ele><time>2026-03-29T12:38:37.002Z</time></trkpt><trkpt lat="45.7114067" lon="8.2790533"><ele>350.6666666666667</ele><time>2026-03-29T12:38:38.002Z</time></trkpt><trkpt lat="45.7113033" lon="8.27922"><ele>350.0</ele><time>2026-03-29T12:38:39.002Z</time></trkpt><trkpt lat="45.7111983" lon="8.2794017"><ele>350.0</ele><time>2026-03-29T12:38:40.002Z</time></trkpt><trkpt lat="45.7110933" lon="8.2795833"><ele>350.0</ele><time>2026-03-29T12:38:41.002Z</time></trkpt><trkpt lat="45.7109717" lon="8.27979"><ele>350.0</ele><time>2026-03-29T12:38:42.001Z</time></trkpt><trkpt lat="45.710865" lon="8.2800033"><ele>350.0</ele><time>2026-03-29T12:38:43.002Z</time></trkpt><trkpt lat="45.71075" lon="8.2801917"><ele>350.0</ele><time>2026-03-29T12:38:44.001Z</time></trkpt><trkpt lat="45.7106383" lon="8.2803767"><ele>350.0</ele><time>2026-03-29T12:38:45.002Z</time></trkpt><trkpt lat="45.71053" lon="8.28056"><ele>350.33333333333337</ele><time>2026-03-29T12:38:46.002Z</time></trkpt><trkpt lat="45.7104233" lon="8.28074"><ele>350.6666666666667</ele><time>2026-03-29T12:38:47.002Z</time></trkpt><trkpt lat="45.7103317" lon="8.28091"><ele>351.0</ele><time>2026-03-29T12:38:48.001Z</time></trkpt><trkpt lat="45.7102167" lon="8.2810783"><ele>351.0</ele><time>2026-03-29T12:38:49.002Z</time></trkpt><trkpt lat="45.7100983" lon="8.281255"><ele>351.0</ele><time>2026-03-29T12:38:50.002Z</time></trkpt><trkpt lat="45.7099933" lon="8.28143"><ele>351.0</ele><time>2026-03-29T12:38:51.002Z</time></trkpt><trkpt lat="45.7098983" lon="8.2815933"><ele>350.6666666666667</ele><time>2026-03-29T12:38:52.001Z</time></trkpt><trkpt lat="45.709805" lon="8.2817533"><ele>350.33333333333337</ele><time>2026-03-29T12:38:53.001Z</time></trkpt><trkpt lat="45.7097083" lon="8.2819217"><ele>350.0</ele><time>2026-03-29T12:38:54.001Z</time></trkpt><trkpt lat="45.70961" lon="8.282105"><ele>349.0</ele><time>2026-03-29T12:38:55.002Z</time></trkpt><trkpt lat="45.7095033" lon="8.2822833"><ele>348.0</ele><time>2026-03-29T12:38:56.001Z</time></trkpt><trkpt lat="45.7093967" lon="8.2824667"><ele>347.0</ele><time>2026-03-29T12:38:57.001Z</time></trkpt><trkpt lat="45.7092933" lon="8.2826383"><ele>347.0</ele><time>2026-03-29T12:38:58.002Z</time></trkpt><trkpt lat="45.7092" lon="8.2827883"><ele>347.0</ele><time>2026-03-29T12:38:59.002Z</time></trkpt><trkpt lat="45.7091083" lon="8.2829167"><ele>347.0</ele><time>2026-03-29T12:39:00.002Z</time></trkpt><trkpt lat="45.7090183" lon="8.28305"><ele>347.0</ele><time>2026-03-29T12:39:01.002Z</time></trkpt><trkpt lat="45.7089333" lon="8.283145"><ele>347.0</ele><time>2026-03-29T12:39:02.002Z</time></trkpt><trkpt lat="45.7088567" lon="8.28323"><ele>347.0</ele><time>2026-03-29T12:39:03.002Z</time></trkpt><trkpt lat="45.7088" lon="8.283325"><ele>347.0</ele><time>2026-03-29T12:39:04.002Z</time></trkpt><trkpt lat="45.7087433" lon="8.2834617"><ele>347.0</ele><time>2026-03-29T12:39:05.002Z</time></trkpt><trkpt lat="45.708665" lon="8.2836117"><ele>347.0</ele><time>2026-03-29T12:39:06.002Z</time></trkpt><trkpt lat="45.708575" lon="8.2837783"><ele>347.0</ele><time>2026-03-29T12:39:07.002Z</time></trkpt><trkpt lat="45.70847" lon="8.28395"><ele>347.0</ele><time>2026-03-29T12:39:08.002Z</time></trkpt><trkpt lat="45.7083583" lon="8.284145"><ele>347.0</ele><time>2026-03-29T12:39:09.001Z</time></trkpt><trkpt lat="45.7082383" lon="8.2843417"><ele>347.0</ele><time>2026-03-29T12:39:10.002Z</time></trkpt><trkpt lat="45.708115" lon="8.2845517"><ele>347.0</ele><time>2026-03-29T12:39:11.001Z</time></trkpt><trkpt lat="45.707985" lon="8.2847333"><ele>347.0</ele><time>2026-03-29T12:39:12.002Z</time></trkpt><trkpt lat="45.7078683" lon="8.28492"><ele>347.33333333333337</ele><time>2026-03-29T12:39:13.001Z</time></trkpt><trkpt lat="45.7077433" lon="8.2851183"><ele>347.6666666666667</ele><time>2026-03-29T12:39:14.002Z</time></trkpt><trkpt lat="45.70763" lon="8.2853167"><ele>348.0</ele><time>2026-03-29T12:39:15.001Z</time></trkpt><trkpt lat="45.7075083" lon="8.2855017"><ele>347.0</ele><time>2026-03-29T12:39:16.002Z</time></trkpt><trkpt lat="45.7073883" lon="8.2857117"><ele>346.0</ele><time>2026-03-29T12:39:17.001Z</time></trkpt><trkpt lat="45.7072683" lon="8.2859133"><ele>345.0</ele><time>2026-03-29T12:39:18.002Z</time></trkpt><trkpt lat="45.7071383" lon="8.28612"><ele>345.0</ele><time>2026-03-29T12:39:19.001Z</time></trkpt><trkpt lat="45.7070067" lon="8.2863167"><ele>345.0</ele><time>2026-03-29T12:39:20.002Z</time></trkpt><trkpt lat="45.7068867" lon="8.28651"><ele>345.0</ele><time>2026-03-29T12:39:21.001Z</time></trkpt><trkpt lat="45.7067683" lon="8.286715"><ele>345.0</ele><time>2026-03-29T12:39:22.002Z</time></trkpt><trkpt lat="45.7066517" lon="8.2869067"><ele>345.0</ele><time>2026-03-29T12:39:23.002Z</time></trkpt><trkpt lat="45.70655" lon="8.2870833"><ele>345.0</ele><time>2026-03-29T12:39:24.002Z</time></trkpt><trkpt lat="45.706455" lon="8.2872433"><ele>345.0</ele><time>2026-03-29T12:39:25.001Z</time></trkpt><trkpt lat="45.70636" lon="8.2874"><ele>345.0</ele><time>2026-03-29T12:39:26.001Z</time></trkpt><trkpt lat="45.70627" lon="8.28755"><ele>345.0</ele><time>2026-03-29T12:39:27.002Z</time></trkpt><trkpt lat="45.706165" lon="8.2876833"><ele>345.0</ele><time>2026-03-29T12:39:28.001Z</time></trkpt><trkpt lat="45.7060483" lon="8.2877983"><ele>345.0</ele><time>2026-03-29T12:39:29.001Z</time></trkpt><trkpt lat="45.7059083" lon="8.2878717"><ele>345.0</ele><time>2026-03-29T12:39:30.002Z</time></trkpt><trkpt lat="45.70575" lon="8.2879283"><ele>345.0</ele><time>2026-03-29T12:39:31.002Z</time></trkpt><trkpt lat="45.705575" lon="8.2879467"><ele>345.0</ele><time>2026-03-29T12:39:32.002Z</time></trkpt><trkpt lat="45.7053917" lon="8.287975"><ele>345.0</ele><time>2026-03-29T12:39:33.002Z</time></trkpt><trkpt lat="45.705235" lon="8.2880033"><ele>345.0</ele><time>2026-03-29T12:39:34.002Z</time></trkpt><trkpt lat="45.7050933" lon="8.2880333"><ele>347.8</ele><time>2026-03-29T12:39:35.002Z</time></trkpt><trkpt lat="45.7049717" lon="8.2880633"><ele>350.6</ele><time>2026-03-29T12:39:36.002Z</time></trkpt><trkpt lat="45.704875" lon="8.288085"><ele>353.4</ele><time>2026-03-29T12:39:37.002Z</time></trkpt><trkpt lat="45.7047817" lon="8.28809"><ele>356.2</ele><time>2026-03-29T12:39:38.001Z</time></trkpt><trkpt lat="45.70471" lon="8.2880517"><ele>359.0</ele><time>2026-03-29T12:39:39.002Z</time></trkpt><trkpt lat="45.704655" lon="8.2879667"><ele>359.0</ele><time>2026-03-29T12:39:40.002Z</time></trkpt><trkpt lat="45.7046133" lon="8.287865"><ele>359.0</ele><time>2026-03-29T12:39:41.002Z</time></trkpt><trkpt lat="45.7045733" lon="8.2877517"><ele>359.0</ele><time>2026-03-29T12:39:42.002Z</time></trkpt><trkpt lat="45.704515" lon="8.2876817"><ele>359.0</ele><time>2026-03-29T12:39:43.002Z</time></trkpt><trkpt lat="45.7044317" lon="8.2876267"><ele>359.0</ele><time>2026-03-29T12:39:44.002Z</time></trkpt><trkpt lat="45.70435" lon="8.2876617"><ele>359.0</ele><time>2026-03-29T12:39:45.001Z</time></trkpt><trkpt lat="45.7042833" lon="8.287745"><ele>361.75</ele><time>2026-03-29T12:39:46.002Z</time></trkpt><trkpt lat="45.7042283" lon="8.2878617"><ele>364.5</ele><time>2026-03-29T12:39:47.002Z</time></trkpt><trkpt lat="45.7041583" lon="8.2879717"><ele>367.25</ele><time>2026-03-29T12:39:48.002Z</time></trkpt><trkpt lat="45.70406" lon="8.2880683"><ele>370.0</ele><time>2026-03-29T12:39:49.002Z</time></trkpt><trkpt lat="45.703945" lon="8.2881567"><ele>362.66666666666663</ele><time>2026-03-29T12:39:50.002Z</time></trkpt><trkpt lat="45.7038067" lon="8.288235"><ele>355.3333333333333</ele><time>2026-03-29T12:39:51.001Z</time></trkpt><trkpt lat="45.7036483" lon="8.28832"><ele>348.0</ele><time>2026-03-29T12:39:52.002Z</time></trkpt><trkpt lat="45.70347" lon="8.2884"><ele>348.0</ele><time>2026-03-29T12:39:53.002Z</time></trkpt><trkpt lat="45.70329" lon="8.28845"><ele>348.0</ele><time>2026-03-29T12:39:54.002Z</time></trkpt><trkpt lat="45.70311" lon="8.288495"><ele>348.0</ele><time>2026-03-29T12:39:55.002Z</time></trkpt><trkpt lat="45.7029333" lon="8.288525"><ele>348.0</ele><time>2026-03-29T12:39:56.002Z</time></trkpt><trkpt lat="45.7027567" lon="8.2885617"><ele>348.0</ele><time>2026-03-29T12:39:57.002Z</time></trkpt><trkpt lat="45.70257" lon="8.2886033"><ele>348.0</ele><time>2026-03-29T12:39:58.002Z</time></trkpt><trkpt lat="45.7023933" lon="8.2886533"><ele>348.6666666666667</ele><time>2026-03-29T12:39:59.002Z</time></trkpt><trkpt lat="45.7022183" lon="8.288695"><ele>349.33333333333337</ele><time>2026-03-29T12:40:00.002Z</time></trkpt><trkpt lat="45.7020483" lon="8.2887333"><ele>350.0</ele><time>2026-03-29T12:40:01.002Z</time></trkpt><trkpt lat="45.7018883" lon="8.2887633"><ele>350.0</ele><time>2026-03-29T12:40:02.001Z</time></trkpt><trkpt lat="45.7017367" lon="8.288775"><ele>350.0</ele><time>2026-03-29T12:40:03.001Z</time></trkpt><trkpt lat="45.70159" lon="8.2887583"><ele>350.0</ele><time>2026-03-29T12:40:04.002Z</time></trkpt><trkpt lat="45.7014683" lon="8.288715"><ele>350.0</ele><time>2026-03-29T12:40:05.002Z</time></trkpt><trkpt lat="45.7013667" lon="8.2886267"><ele>350.0</ele><time>2026-03-29T12:40:06.002Z</time></trkpt><trkpt lat="45.701315" lon="8.2884383"><ele>350.0</ele><time>2026-03-29T12:40:07.002Z</time></trkpt><trkpt lat="45.7012833" lon="8.288235"><ele>350.0</ele><time>2026-03-29T12:40:08.002Z</time></trkpt><trkpt lat="45.7012717" lon="8.2880383"><ele>350.0</ele><time>2026-03-29T12:40:09.002Z</time></trkpt><trkpt lat="45.7012567" lon="8.28788"><ele>353.6666666666667</ele><time>2026-03-29T12:40:10.001Z</time></trkpt><trkpt lat="45.7012483" lon="8.2877517"><ele>357.33333333333337</ele><time>2026-03-29T12:40:11.002Z</time></trkpt><trkpt lat="45.70124" lon="8.287655"><ele>361.0</ele><time>2026-03-29T12:40:12.002Z</time></trkpt><trkpt lat="45.701235" lon="8.2875583"><ele>364.6666666666667</ele><time>2026-03-29T12:40:13.001Z</time></trkpt><trkpt lat="45.7012383" lon="8.2874217"><ele>368.3333333333333</ele><time>2026-03-29T12:40:15.002Z</time></trkpt><trkpt lat="45.701225" lon="8.2872933"><ele>372.0</ele><time>2026-03-29T12:40:17.002Z</time></trkpt><trkpt lat="45.7011817" lon="8.28714"><ele>364.0</ele><time>2026-03-29T12:40:19.002Z</time></trkpt><trkpt lat="45.70108" lon="8.2871083"><ele>356.0</ele><time>2026-03-29T12:40:21.002Z</time></trkpt><trkpt lat="45.70099" lon="8.287125"><ele>348.0</ele><time>2026-03-29T12:40:22.002Z</time></trkpt><trkpt lat="45.7008683" lon="8.2871467"><ele>340.0</ele><time>2026-03-29T12:40:23.001Z</time></trkpt><trkpt lat="45.700735" lon="8.28717"><ele>340.0</ele><time>2026-03-29T12:40:24.001Z</time></trkpt><trkpt lat="45.7006033" lon="8.2871767"><ele>340.0</ele><time>2026-03-29T12:40:25.001Z</time></trkpt><trkpt lat="45.7004717" lon="8.287175"><ele>340.0</ele><time>2026-03-29T12:40:26.001Z</time></trkpt><trkpt lat="45.70035" lon="8.2871733"><ele>340.0</ele><time>2026-03-29T12:40:27.002Z</time></trkpt><trkpt lat="45.7002183" lon="8.287175"><ele>339.3333333333333</ele><time>2026-03-29T12:40:28.002Z</time></trkpt><trkpt lat="45.700075" lon="8.287175"><ele>338.6666666666667</ele><time>2026-03-29T12:40:29.002Z</time></trkpt><trkpt lat="45.6999017" lon="8.2871383"><ele>338.0</ele><time>2026-03-29T12:40:30.002Z</time></trkpt><trkpt lat="45.699735" lon="8.28711"><ele>338.0</ele><time>2026-03-29T12:40:31.002Z</time></trkpt><trkpt lat="45.6995533" lon="8.2870767"><ele>338.0</ele><time>2026-03-29T12:40:32.001Z</time></trkpt><trkpt lat="45.699385" lon="8.2870483"><ele>338.0</ele><time>2026-03-29T12:40:33.001Z</time></trkpt><trkpt lat="45.6992217" lon="8.2870283"><ele>337.33333333333337</ele><time>2026-03-29T12:40:34.002Z</time></trkpt><trkpt lat="45.6990583" lon="8.2870083"><ele>336.6666666666667</ele><time>2026-03-29T12:40:35.001Z</time></trkpt><trkpt lat="45.6988983" lon="8.2869933"><ele>336.0</ele><time>2026-03-29T12:40:36.001Z</time></trkpt><trkpt lat="45.6987433" lon="8.2869733"><ele>336.0</ele><time>2026-03-29T12:40:37.001Z</time></trkpt><trkpt lat="45.6985867" lon="8.28697"><ele>336.0</ele><time>2026-03-29T12:40:38.002Z</time></trkpt><trkpt lat="45.69844" lon="8.2869633"><ele>336.0</ele><time>2026-03-29T12:40:39.001Z</time></trkpt><trkpt lat="45.6982883" lon="8.2869533"><ele>335.75</ele><time>2026-03-29T12:40:40.001Z</time></trkpt><trkpt lat="45.698135" lon="8.2869317"><ele>335.5</ele><time>2026-03-29T12:40:41.002Z</time></trkpt><trkpt lat="45.6980033" lon="8.2869183"><ele>335.25</ele><time>2026-03-29T12:40:42.002Z</time></trkpt><trkpt lat="45.6978817" lon="8.2868983"><ele>335.0</ele><time>2026-03-29T12:40:43.002Z</time></trkpt><trkpt lat="45.6977683" lon="8.2868817"><ele>336.0</ele><time>2026-03-29T12:40:44.002Z</time></trkpt><trkpt lat="45.6976883" lon="8.28687"><ele>337.0</ele><time>2026-03-29T12:40:45.002Z</time></trkpt><trkpt lat="45.6975683" lon="8.2868583"><ele>338.0</ele><time>2026-03-29T12:40:47.001Z</time></trkpt><trkpt lat="45.69751" lon="8.286765"><ele>339.0</ele><time>2026-03-29T12:40:49.002Z</time></trkpt><trkpt lat="45.6974917" lon="8.2866017"><ele>340.0</ele><time>2026-03-29T12:40:50.002Z</time></trkpt><trkpt lat="45.6974617" lon="8.2864183"><ele>340.0</ele><time>2026-03-29T12:40:51.002Z</time></trkpt><trkpt lat="45.69744" lon="8.28621"><ele>340.0</ele><time>2026-03-29T12:40:52.002Z</time></trkpt><trkpt lat="45.69742" lon="8.28597"><ele>340.0</ele><time>2026-03-29T12:40:53.001Z</time></trkpt><trkpt lat="45.69738" lon="8.28568"><ele>340.3333333333333</ele><time>2026-03-29T12:40:54.001Z</time></trkpt><trkpt lat="45.6973433" lon="8.2854217"><ele>340.6666666666667</ele><time>2026-03-29T12:40:55.002Z</time></trkpt><trkpt lat="45.6972983" lon="8.2851333"><ele>341.0</ele><time>2026-03-29T12:40:56.001Z</time></trkpt><trkpt lat="45.6972583" lon="8.2848417"><ele>341.0</ele><time>2026-03-29T12:40:57.001Z</time></trkpt><trkpt lat="45.6972133" lon="8.2845317"><ele>341.0</ele><time>2026-03-29T12:40:58.002Z</time></trkpt><trkpt lat="45.6971717" lon="8.2842117"><ele>341.0</ele><time>2026-03-29T12:40:59.002Z</time></trkpt><trkpt lat="45.6971283" lon="8.2838783"><ele>340.5</ele><time>2026-03-29T12:41:00.002Z</time></trkpt><trkpt lat="45.697085" lon="8.2835267"><ele>340.0</ele><time>2026-03-29T12:41:01.001Z</time></trkpt><trkpt lat="45.69705" lon="8.2831617"><ele>340.5</ele><time>2026-03-29T12:41:02.002Z</time></trkpt><trkpt lat="45.6970033" lon="8.282805"><ele>341.0</ele><time>2026-03-29T12:41:03.002Z</time></trkpt><trkpt lat="45.69695" lon="8.2824383"><ele>343.5</ele><time>2026-03-29T12:41:04.002Z</time></trkpt><trkpt lat="45.6969033" lon="8.2820717"><ele>346.0</ele><time>2026-03-29T12:41:05.002Z</time></trkpt><trkpt lat="45.6968467" lon="8.281705"><ele>345.0</ele><time>2026-03-29T12:41:06.001Z</time></trkpt><trkpt lat="45.6968" lon="8.2813383"><ele>344.0</ele><time>2026-03-29T12:41:07.001Z</time></trkpt><trkpt lat="45.6967517" lon="8.2809617"><ele>344.0</ele><time>2026-03-29T12:41:08.002Z</time></trkpt><trkpt lat="45.6967017" lon="8.2805783"><ele>344.0</ele><time>2026-03-29T12:41:09.001Z</time></trkpt><trkpt lat="45.6966533" lon="8.2802117"><ele>344.0</ele><time>2026-03-29T12:41:10.001Z</time></trkpt><trkpt lat="45.696605" lon="8.2798367"><ele>344.0</ele><time>2026-03-29T12:41:11.002Z</time></trkpt><trkpt lat="45.696555" lon="8.2794583"><ele>345.0</ele><time>2026-03-29T12:41:12.001Z</time></trkpt><trkpt lat="45.696515" lon="8.27909"><ele>346.0</ele><time>2026-03-29T12:41:13.002Z</time></trkpt><trkpt lat="45.6964667" lon="8.2787283"><ele>348.0</ele><time>2026-03-29T12:41:14.001Z</time></trkpt><trkpt lat="45.69642" lon="8.278365"><ele>350.0</ele><time>2026-03-29T12:41:15.002Z</time></trkpt><trkpt lat="45.6963733" lon="8.27801"><ele>350.0</ele><time>2026-03-29T12:41:16.002Z</time></trkpt><trkpt lat="45.6963333" lon="8.2776383"><ele>350.0</ele><time>2026-03-29T12:41:17.002Z</time></trkpt><trkpt lat="45.6962917" lon="8.2772617"><ele>348.5</ele><time>2026-03-29T12:41:18.001Z</time></trkpt><trkpt lat="45.69624" lon="8.2768833"><ele>347.0</ele><time>2026-03-29T12:41:19.002Z</time></trkpt><trkpt lat="45.6962" lon="8.27652"><ele>347.0</ele><time>2026-03-29T12:41:20.001Z</time></trkpt><trkpt lat="45.69616" lon="8.2761433"><ele>347.0</ele><time>2026-03-29T12:41:21.001Z</time></trkpt><trkpt lat="45.6961117" lon="8.2757667"><ele>352.0</ele><time>2026-03-29T12:41:22.002Z</time></trkpt><trkpt lat="45.69606" lon="8.2754017"><ele>357.0</ele><time>2026-03-29T12:41:23.001Z</time></trkpt><trkpt lat="45.6960133" lon="8.2750317"><ele>356.0</ele><time>2026-03-29T12:41:24.002Z</time></trkpt><trkpt lat="45.69597" lon="8.2746667"><ele>355.0</ele><time>2026-03-29T12:41:25.002Z</time></trkpt><trkpt lat="45.6959083" lon="8.2743067"><ele>355.0</ele><time>2026-03-29T12:41:26.002Z</time></trkpt><trkpt lat="45.6958333" lon="8.27394"><ele>355.0</ele><time>2026-03-29T12:41:27.002Z</time></trkpt><trkpt lat="45.6957467" lon="8.2735633"><ele>355.0</ele><time>2026-03-29T12:41:28.001Z</time></trkpt><trkpt lat="45.6956533" lon="8.2732033"><ele>355.0</ele><time>2026-03-29T12:41:29.002Z</time></trkpt><trkpt lat="45.695565" lon="8.2728317"><ele>355.0</ele><time>2026-03-29T12:41:30.002Z</time></trkpt><trkpt lat="45.69547" lon="8.2724833"><ele>355.0</ele><time>2026-03-29T12:41:31.002Z</time></trkpt><trkpt lat="45.69537" lon="8.2721333"><ele>354.5</ele><time>2026-03-29T12:41:32.001Z</time></trkpt><trkpt lat="45.6952717" lon="8.2717817"><ele>354.0</ele><time>2026-03-29T12:41:33.002Z</time></trkpt><trkpt lat="45.695165" lon="8.2714333"><ele>354.0</ele><time>2026-03-29T12:41:34.001Z</time></trkpt><trkpt lat="45.69506" lon="8.2710867"><ele>354.0</ele><time>2026-03-29T12:41:35.001Z</time></trkpt><trkpt lat="45.6949567" lon="8.270745"><ele>354.5</ele><time>2026-03-29T12:41:36.002Z</time></trkpt><trkpt lat="45.694855" lon="8.2704"><ele>355.0</ele><time>2026-03-29T12:41:37.001Z</time></trkpt><trkpt lat="45.6947483" lon="8.2700517"><ele>355.5</ele><time>2026-03-29T12:41:38.002Z</time></trkpt><trkpt lat="45.6946467" lon="8.2697033"><ele>356.0</ele><time>2026-03-29T12:41:39.002Z</time></trkpt><trkpt lat="45.6945183" lon="8.2693733"><ele>356.0</ele><time>2026-03-29T12:41:40.002Z</time></trkpt><trkpt lat="45.6943867" lon="8.2690583"><ele>356.0</ele><time>2026-03-29T12:41:41.002Z</time></trkpt><trkpt lat="45.6942367" lon="8.2687583"><ele>356.0</ele><time>2026-03-29T12:41:42.002Z</time></trkpt><trkpt lat="45.6940667" lon="8.2684817"><ele>356.0</ele><time>2026-03-29T12:41:43.002Z</time></trkpt><trkpt lat="45.6938733" lon="8.2682333"><ele>357.5</ele><time>2026-03-29T12:41:44.002Z</time></trkpt><trkpt lat="45.6936783" lon="8.2680167"><ele>359.0</ele><time>2026-03-29T12:41:45.002Z</time></trkpt><trkpt lat="45.69347" lon="8.26783"><ele>359.0</ele><time>2026-03-29T12:41:46.001Z</time></trkpt><trkpt lat="45.69327" lon="8.267655"><ele>359.0</ele><time>2026-03-29T12:41:47.002Z</time></trkpt><trkpt lat="45.69306" lon="8.267545"><ele>359.0</ele><time>2026-03-29T12:41:48.002Z</time></trkpt><trkpt lat="45.6928317" lon="8.2675083"><ele>359.0</ele><time>2026-03-29T12:41:49.002Z</time></trkpt><trkpt lat="45.6925917" lon="8.2675117"><ele>361.0</ele><time>2026-03-29T12:41:50.001Z</time></trkpt><trkpt lat="45.69235" lon="8.2675433"><ele>363.0</ele><time>2026-03-29T12:41:51.002Z</time></trkpt><trkpt lat="45.692095" lon="8.2675833"><ele>364.5</ele><time>2026-03-29T12:41:52.002Z</time></trkpt><trkpt lat="45.6918533" lon="8.26763"><ele>366.0</ele><time>2026-03-29T12:41:53.002Z</time></trkpt><trkpt lat="45.6916133" lon="8.26765"><ele>366.0</ele><time>2026-03-29T12:41:54.002Z</time></trkpt><trkpt lat="45.6913733" lon="8.267645"><ele>366.0</ele><time>2026-03-29T12:41:55.002Z</time></trkpt><trkpt lat="45.6911283" lon="8.267585"><ele>368.0</ele><time>2026-03-29T12:41:56.001Z</time></trkpt><trkpt lat="45.690915" lon="8.2675083"><ele>370.0</ele><time>2026-03-29T12:41:57.002Z</time></trkpt><trkpt lat="45.69071" lon="8.2673983"><ele>372.0</ele><time>2026-03-29T12:41:58.002Z</time></trkpt><trkpt lat="45.6905133" lon="8.2672167"><ele>369.5</ele><time>2026-03-29T12:41:59.002Z</time></trkpt><trkpt lat="45.6903183" lon="8.2670033"><ele>367.0</ele><time>2026-03-29T12:42:00.002Z</time></trkpt><trkpt lat="45.690105" lon="8.26679"><ele>367.0</ele><time>2026-03-29T12:42:01.002Z</time></trkpt><trkpt lat="45.68989" lon="8.26655"><ele>367.0</ele><time>2026-03-29T12:42:02.002Z</time></trkpt><trkpt lat="45.6896783" lon="8.266305"><ele>366.5</ele><time>2026-03-29T12:42:03.002Z</time></trkpt><trkpt lat="45.6894717" lon="8.2660517"><ele>366.0</ele><time>2026-03-29T12:42:04.002Z</time></trkpt><trkpt lat="45.6892683" lon="8.2657917"><ele>363.0</ele><time>2026-03-29T12:42:05.002Z</time></trkpt><trkpt lat="45.6890817" lon="8.2655267"><ele>360.0</ele><time>2026-03-29T12:42:06.001Z</time></trkpt><trkpt lat="45.6889167" lon="8.2652317"><ele>360.0</ele><time>2026-03-29T12:42:07.002Z</time></trkpt><trkpt lat="45.688785" lon="8.2649033"><ele>360.0</ele><time>2026-03-29T12:42:08.002Z</time></trkpt><trkpt lat="45.68865" lon="8.26454"><ele>367.0</ele><time>2026-03-29T12:42:09.002Z</time></trkpt><trkpt lat="45.68854" lon="8.2641733"><ele>374.0</ele><time>2026-03-29T12:42:10.002Z</time></trkpt><trkpt lat="45.6884483" lon="8.2638033"><ele>374.0</ele><time>2026-03-29T12:42:11.002Z</time></trkpt><trkpt lat="45.6883683" lon="8.2634383"><ele>374.0</ele><time>2026-03-29T12:42:12.002Z</time></trkpt><trkpt lat="45.6883233" lon="8.263055"><ele>373.5</ele><time>2026-03-29T12:42:13.002Z</time></trkpt><trkpt lat="45.6883033" lon="8.262665"><ele>373.0</ele><time>2026-03-29T12:42:14.002Z</time></trkpt><trkpt lat="45.6882783" lon="8.2622667"><ele>372.5</ele><time>2026-03-29T12:42:15.001Z</time></trkpt><trkpt lat="45.6882517" lon="8.2618933"><ele>372.0</ele><time>2026-03-29T12:42:16.001Z</time></trkpt><trkpt lat="45.6882217" lon="8.2615383"><ele>368.0</ele><time>2026-03-29T12:42:17.002Z</time></trkpt><trkpt lat="45.688165" lon="8.2612"><ele>364.0</ele><time>2026-03-29T12:42:18.002Z</time></trkpt><trkpt lat="45.6881" lon="8.2608917"><ele>364.0</ele><time>2026-03-29T12:42:19.002Z</time></trkpt><trkpt lat="45.6880033" lon="8.2606167"><ele>364.0</ele><time>2026-03-29T12:42:20.002Z</time></trkpt><trkpt lat="45.6879333" lon="8.26032"><ele>364.0</ele><time>2026-03-29T12:42:21.002Z</time></trkpt><trkpt lat="45.68788" lon="8.2599917"><ele>362.5</ele><time>2026-03-29T12:42:22.002Z</time></trkpt><trkpt lat="45.6878417" lon="8.2596567"><ele>361.0</ele><time>2026-03-29T12:42:23.002Z</time></trkpt><trkpt lat="45.6877967" lon="8.259335"><ele>367.5</ele><time>2026-03-29T12:42:24.001Z</time></trkpt><trkpt lat="45.6877267" lon="8.259025"><ele>374.0</ele><time>2026-03-29T12:42:25.002Z</time></trkpt><trkpt lat="45.6876233" lon="8.2587317"><ele>374.0</ele><time>2026-03-29T12:42:26.001Z</time></trkpt><trkpt lat="45.6874983" lon="8.2584367"><ele>374.0</ele><time>2026-03-29T12:42:27.001Z</time></trkpt><trkpt lat="45.6873383" lon="8.2581533"><ele>371.5</ele><time>2026-03-29T12:42:28.002Z</time></trkpt><trkpt lat="45.6871683" lon="8.257875"><ele>369.0</ele><time>2026-03-29T12:42:29.002Z</time></trkpt><trkpt lat="45.6870017" lon="8.2575633"><ele>372.5</ele><time>2026-03-29T12:42:30.002Z</time></trkpt><trkpt lat="45.686835" lon="8.2572633"><ele>376.0</ele><time>2026-03-29T12:42:31.001Z</time></trkpt><trkpt lat="45.6866567" lon="8.2569667"><ele>376.0</ele><time>2026-03-29T12:42:32.002Z</time></trkpt><trkpt lat="45.686495" lon="8.2566783"><ele>376.0</ele><time>2026-03-29T12:42:33.001Z</time></trkpt><trkpt lat="45.6863417" lon="8.256355"><ele>372.0</ele><time>2026-03-29T12:42:34.002Z</time></trkpt><trkpt lat="45.686185" lon="8.256065"><ele>368.0</ele><time>2026-03-29T12:42:35.002Z</time></trkpt><trkpt lat="45.6859983" lon="8.2558133"><ele>368.5</ele><time>2026-03-29T12:42:36.001Z</time></trkpt><trkpt lat="45.6858233" lon="8.2555533"><ele>369.0</ele><time>2026-03-29T12:42:37.001Z</time></trkpt><trkpt lat="45.6856533" lon="8.2552783"><ele>369.0</ele><time>2026-03-29T12:42:38.002Z</time></trkpt><trkpt lat="45.6855017" lon="8.2549883"><ele>369.0</ele><time>2026-03-29T12:42:39.001Z</time></trkpt><trkpt lat="45.6853667" lon="8.2546567"><ele>376.5</ele><time>2026-03-29T12:42:40.002Z</time></trkpt><trkpt lat="45.6852417" lon="8.2543333"><ele>384.0</ele><time>2026-03-29T12:42:41.002Z</time></trkpt><trkpt lat="45.6851167" lon="8.2540383"><ele>377.5</ele><time>2026-03-29T12:42:42.002Z</time></trkpt><trkpt lat="45.6849733" lon="8.25377"><ele>371.0</ele><time>2026-03-29T12:42:43.002Z</time></trkpt><trkpt lat="45.6848183" lon="8.2535367"><ele>371.0</ele><time>2026-03-29T12:42:44.002Z</time></trkpt><trkpt lat="45.6846383" lon="8.2533267"><ele>371.0</ele><time>2026-03-29T12:42:45.002Z</time></trkpt><trkpt lat="45.684445" lon="8.2531317"><ele>373.0</ele><time>2026-03-29T12:42:46.001Z</time></trkpt><trkpt lat="45.6842317" lon="8.25297"><ele>375.0</ele><time>2026-03-29T12:42:47.002Z</time></trkpt><trkpt lat="45.6840117" lon="8.2528133"><ele>375.0</ele><time>2026-03-29T12:42:48.002Z</time></trkpt><trkpt lat="45.6837883" lon="8.2526567"><ele>375.0</ele><time>2026-03-29T12:42:49.002Z</time></trkpt><trkpt lat="45.68356" lon="8.252495"><ele>376.0</ele><time>2026-03-29T12:42:50.002Z</time></trkpt><trkpt lat="45.6833283" lon="8.2523167"><ele>377.0</ele><time>2026-03-29T12:42:51.002Z</time></trkpt><trkpt lat="45.6830917" lon="8.2521233"><ele>377.0</ele><time>2026-03-29T12:42:52.002Z</time></trkpt><trkpt lat="45.682905" lon="8.2519817"><ele>377.0</ele><time>2026-03-29T12:42:53.001Z</time></trkpt><trkpt lat="45.68273" lon="8.2518583"><ele>377.0</ele><time>2026-03-29T12:42:54.001Z</time></trkpt><trkpt lat="45.682565" lon="8.2516867"><ele>376.6666666666667</ele><time>2026-03-29T12:42:55.002Z</time></trkpt><trkpt lat="45.6824383" lon="8.2515333"><ele>376.3333333333333</ele><time>2026-03-29T12:42:56.001Z</time></trkpt><trkpt lat="45.6823183" lon="8.2513333"><ele>376.0</ele><time>2026-03-29T12:42:57.002Z</time></trkpt><trkpt lat="45.6822183" lon="8.2511217"><ele>376.0</ele><time>2026-03-29T12:42:58.002Z</time></trkpt><trkpt lat="45.6821267" lon="8.2508983"><ele>376.0</ele><time>2026-03-29T12:42:59.001Z</time></trkpt><trkpt lat="45.6820483" lon="8.2506817"><ele>376.0</ele><time>2026-03-29T12:43:00.002Z</time></trkpt><trkpt lat="45.6819617" lon="8.250465"><ele>376.66666666666663</ele><time>2026-03-29T12:43:01.002Z</time></trkpt><trkpt lat="45.6818867" lon="8.2502517"><ele>377.3333333333333</ele><time>2026-03-29T12:43:02.002Z</time></trkpt><trkpt lat="45.681815" lon="8.2500617"><ele>378.0</ele><time>2026-03-29T12:43:03.002Z</time></trkpt><trkpt lat="45.681745" lon="8.2498817"><ele>378.0</ele><time>2026-03-29T12:43:04.002Z</time></trkpt><trkpt lat="45.6816733" lon="8.249705"><ele>378.0</ele><time>2026-03-29T12:43:05.002Z</time></trkpt><trkpt lat="45.6816167" lon="8.24954"><ele>378.0</ele><time>2026-03-29T12:43:06.002Z</time></trkpt><trkpt lat="45.68155" lon="8.2493733"><ele>378.0</ele><time>2026-03-29T12:43:07.001Z</time></trkpt><trkpt lat="45.68148" lon="8.2492333"><ele>378.0</ele><time>2026-03-29T12:43:08.002Z</time></trkpt><trkpt lat="45.6814183" lon="8.2491017"><ele>378.0</ele><time>2026-03-29T12:43:09.002Z</time></trkpt><trkpt lat="45.681375" lon="8.24899"><ele>378.0</ele><time>2026-03-29T12:43:10.001Z</time></trkpt><trkpt lat="45.6813317" lon="8.24888"><ele>378.0</ele><time>2026-03-29T12:43:11.002Z</time></trkpt><trkpt lat="45.6812933" lon="8.248765"><ele>378.0</ele><time>2026-03-29T12:43:12.001Z</time></trkpt><trkpt lat="45.681265" lon="8.2486533"><ele>377.8333333333333</ele><time>2026-03-29T12:43:13.002Z</time></trkpt><trkpt lat="45.6812533" lon="8.2485533"><ele>377.6666666666667</ele><time>2026-03-29T12:43:14.002Z</time></trkpt><trkpt lat="45.6812717" lon="8.2484283"><ele>377.5</ele><time>2026-03-29T12:43:15.001Z</time></trkpt><trkpt lat="45.6812967" lon="8.2483117"><ele>377.33333333333337</ele><time>2026-03-29T12:43:16.001Z</time></trkpt><trkpt lat="45.6812883" lon="8.2481967"><ele>377.1666666666667</ele><time>2026-03-29T12:43:17.001Z</time></trkpt><trkpt lat="45.68125" lon="8.2480917"><ele>377.0</ele><time>2026-03-29T12:43:18.001Z</time></trkpt><trkpt lat="45.6811683" lon="8.2480267"><ele>377.25</ele><time>2026-03-29T12:43:19.001Z</time></trkpt><trkpt lat="45.681075" lon="8.2479467"><ele>377.5</ele><time>2026-03-29T12:43:20.001Z</time></trkpt><trkpt lat="45.6809817" lon="8.2478183"><ele>377.75</ele><time>2026-03-29T12:43:21.001Z</time></trkpt><trkpt lat="45.6809133" lon="8.2476583"><ele>378.0</ele><time>2026-03-29T12:43:22.001Z</time></trkpt><trkpt lat="45.6808417" lon="8.2474733"><ele>377.3333333333333</ele><time>2026-03-29T12:43:23.001Z</time></trkpt><trkpt lat="45.68077" lon="8.2472767"><ele>376.66666666666663</ele><time>2026-03-29T12:43:24Z</time></trkpt><trkpt lat="45.6806783" lon="8.2470467"><ele>376.0</ele><time>2026-03-29T12:43:25.001Z</time></trkpt><trkpt lat="45.6805767" lon="8.2468033"><ele>376.0</ele><time>2026-03-29T12:43:26.001Z</time></trkpt><trkpt lat="45.6804767" lon="8.246555"><ele>376.0</ele><time>2026-03-29T12:43:27.001Z</time></trkpt><trkpt lat="45.6803717" lon="8.246305"><ele>376.0</ele><time>2026-03-29T12:43:28.001Z</time></trkpt><trkpt lat="45.6802467" lon="8.246065"><ele>378.5</ele><time>2026-03-29T12:43:29.001Z</time></trkpt><trkpt lat="45.680095" lon="8.2458133"><ele>381.0</ele><time>2026-03-29T12:43:30.001Z</time></trkpt><trkpt lat="45.6799317" lon="8.2455367"><ele>381.0</ele><time>2026-03-29T12:43:31Z</time></trkpt><trkpt lat="45.6797633" lon="8.2452483"><ele>381.0</ele><time>2026-03-29T12:43:32.001Z</time></trkpt><trkpt lat="45.67957" lon="8.24497"><ele>383.5</ele><time>2026-03-29T12:43:33.001Z</time></trkpt><trkpt lat="45.6793683" lon="8.24468"><ele>386.0</ele><time>2026-03-29T12:43:34.001Z</time></trkpt><trkpt lat="45.67915" lon="8.24438"><ele>386.0</ele><time>2026-03-29T12:43:35.001Z</time></trkpt><trkpt lat="45.6789267" lon="8.244075"><ele>386.0</ele><time>2026-03-29T12:43:36.001Z</time></trkpt><trkpt lat="45.678705" lon="8.2437733"><ele>385.5</ele><time>2026-03-29T12:43:37.001Z</time></trkpt><trkpt lat="45.6784817" lon="8.243475"><ele>385.0</ele><time>2026-03-29T12:43:38Z</time></trkpt><trkpt lat="45.6782617" lon="8.2431683"><ele>384.5</ele><time>2026-03-29T12:43:39Z</time></trkpt><trkpt lat="45.6780417" lon="8.2428633"><ele>384.0</ele><time>2026-03-29T12:43:40.001Z</time></trkpt><trkpt lat="45.67783" lon="8.2425833"><ele>386.0</ele><time>2026-03-29T12:43:41.001Z</time></trkpt><trkpt lat="45.677625" lon="8.24231"><ele>388.0</ele><time>2026-03-29T12:43:42.001Z</time></trkpt><trkpt lat="45.6774283" lon="8.242045"><ele>388.0</ele><time>2026-03-29T12:43:43.001Z</time></trkpt><trkpt lat="45.67724" lon="8.2417817"><ele>388.0</ele><time>2026-03-29T12:43:44Z</time></trkpt><trkpt lat="45.6770617" lon="8.241525"><ele>391.5</ele><time>2026-03-29T12:43:45.001Z</time></trkpt><trkpt lat="45.6768933" lon="8.2412533"><ele>395.0</ele><time>2026-03-29T12:43:46.001Z</time></trkpt><trkpt lat="45.6767467" lon="8.24097"><ele>395.0</ele><time>2026-03-29T12:43:47.001Z</time></trkpt><trkpt lat="45.676615" lon="8.2406833"><ele>395.0</ele><time>2026-03-29T12:43:48Z</time></trkpt><trkpt lat="45.67649" lon="8.2403717"><ele>394.0</ele><time>2026-03-29T12:43:49.001Z</time></trkpt><trkpt lat="45.6763817" lon="8.2400383"><ele>393.0</ele><time>2026-03-29T12:43:50.001Z</time></trkpt><trkpt lat="45.6762917" lon="8.2396883"><ele>393.0</ele><time>2026-03-29T12:43:51.001Z</time></trkpt><trkpt lat="45.6762233" lon="8.239315"><ele>393.0</ele><time>2026-03-29T12:43:52Z</time></trkpt><trkpt lat="45.67618" lon="8.23893"><ele>393.0</ele><time>2026-03-29T12:43:53.001Z</time></trkpt><trkpt lat="45.6761883" lon="8.2385533"><ele>393.0</ele><time>2026-03-29T12:43:54.001Z</time></trkpt><trkpt lat="45.6762033" lon="8.2381617"><ele>393.0</ele><time>2026-03-29T12:43:55.001Z</time></trkpt><trkpt lat="45.67622" lon="8.237745"><ele>393.0</ele><time>2026-03-29T12:43:56Z</time></trkpt><trkpt lat="45.67625" lon="8.2373483"><ele>393.0</ele><time>2026-03-29T12:43:57Z</time></trkpt><trkpt lat="45.676285" lon="8.236945"><ele>393.0</ele><time>2026-03-29T12:43:58.001Z</time></trkpt><trkpt lat="45.676325" lon="8.2365667"><ele>393.0</ele><time>2026-03-29T12:43:59.001Z</time></trkpt><trkpt lat="45.676385" lon="8.236195"><ele>393.0</ele><time>2026-03-29T12:44:00Z</time></trkpt><trkpt lat="45.6763967" lon="8.2358283"><ele>391.5</ele><time>2026-03-29T12:44:01.001Z</time></trkpt><trkpt lat="45.6763667" lon="8.2354483"><ele>390.0</ele><time>2026-03-29T12:44:02.001Z</time></trkpt><trkpt lat="45.6763217" lon="8.2350867"><ele>389.5</ele><time>2026-03-29T12:44:03.001Z</time></trkpt><trkpt lat="45.6762233" lon="8.2347433"><ele>389.0</ele><time>2026-03-29T12:44:04.001Z</time></trkpt><trkpt lat="45.6761017" lon="8.2344217"><ele>391.0</ele><time>2026-03-29T12:44:05Z</time></trkpt><trkpt lat="45.6759483" lon="8.2341333"><ele>393.0</ele><time>2026-03-29T12:44:06.001Z</time></trkpt><trkpt lat="45.6757467" lon="8.23386"><ele>393.0</ele><time>2026-03-29T12:44:07Z</time></trkpt><trkpt lat="45.6755333" lon="8.2335933"><ele>393.0</ele><time>2026-03-29T12:44:08Z</time></trkpt><trkpt lat="45.6753433" lon="8.2333283"><ele>394.5</ele><time>2026-03-29T12:44:09.001Z</time></trkpt><trkpt lat="45.6751483" lon="8.2330683"><ele>396.0</ele><time>2026-03-29T12:44:10.001Z</time></trkpt><trkpt lat="45.6749667" lon="8.232795"><ele>396.0</ele><time>2026-03-29T12:44:11Z</time></trkpt><trkpt lat="45.6747883" lon="8.232535"><ele>396.0</ele><time>2026-03-29T12:44:12.001Z</time></trkpt><trkpt lat="45.674625" lon="8.2322767"><ele>394.0</ele><time>2026-03-29T12:44:13.001Z</time></trkpt><trkpt lat="45.674465" lon="8.2320033"><ele>392.0</ele><time>2026-03-29T12:44:14.001Z</time></trkpt><trkpt lat="45.67432" lon="8.2317133"><ele>396.5</ele><time>2026-03-29T12:44:15.001Z</time></trkpt><trkpt lat="45.6741867" lon="8.2314"><ele>401.0</ele><time>2026-03-29T12:44:16.001Z</time></trkpt><trkpt lat="45.6740667" lon="8.2310583"><ele>401.0</ele><time>2026-03-29T12:44:17.001Z</time></trkpt><trkpt lat="45.673965" lon="8.2306967"><ele>401.0</ele><time>2026-03-29T12:44:18.001Z</time></trkpt><trkpt lat="45.6738867" lon="8.2303267"><ele>401.0</ele><time>2026-03-29T12:44:19.001Z</time></trkpt><trkpt lat="45.67384" lon="8.2299417"><ele>401.0</ele><time>2026-03-29T12:44:20.001Z</time></trkpt><trkpt lat="45.673835" lon="8.229585"><ele>401.0</ele><time>2026-03-29T12:44:21.001Z</time></trkpt><trkpt lat="45.673845" lon="8.229185"><ele>401.0</ele><time>2026-03-29T12:44:22Z</time></trkpt><trkpt lat="45.6738883" lon="8.2287933"><ele>402.0</ele><time>2026-03-29T12:44:23.001Z</time></trkpt><trkpt lat="45.6739467" lon="8.2284067"><ele>403.0</ele><time>2026-03-29T12:44:24Z</time></trkpt><trkpt lat="45.674025" lon="8.2280317"><ele>406.0</ele><time>2026-03-29T12:44:25.001Z</time></trkpt><trkpt lat="45.6740933" lon="8.2276433"><ele>409.0</ele><time>2026-03-29T12:44:26.001Z</time></trkpt><trkpt lat="45.67416" lon="8.2272733"><ele>412.5</ele><time>2026-03-29T12:44:27Z</time></trkpt><trkpt lat="45.6742283" lon="8.2269067"><ele>416.0</ele><time>2026-03-29T12:44:28.001Z</time></trkpt><trkpt lat="45.6742867" lon="8.2265567"><ele>421.0</ele><time>2026-03-29T12:44:29.001Z</time></trkpt><trkpt lat="45.6743467" lon="8.226205"><ele>426.0</ele><time>2026-03-29T12:44:30.001Z</time></trkpt><trkpt lat="45.6743633" lon="8.2258483"><ele>423.0</ele><time>2026-03-29T12:44:31.001Z</time></trkpt><trkpt lat="45.6743617" lon="8.225475"><ele>420.0</ele><time>2026-03-29T12:44:32.001Z</time></trkpt><trkpt lat="45.6743317" lon="8.22511"><ele>413.0</ele><time>2026-03-29T12:44:33Z</time></trkpt><trkpt lat="45.6742833" lon="8.22478"><ele>406.0</ele><time>2026-03-29T12:44:34Z</time></trkpt><trkpt lat="45.6742" lon="8.2244733"><ele>406.0</ele><time>2026-03-29T12:44:35.001Z</time></trkpt><trkpt lat="45.6740817" lon="8.224185"><ele>406.0</ele><time>2026-03-29T12:44:36.001Z</time></trkpt><trkpt lat="45.6739433" lon="8.223905"><ele>404.0</ele><time>2026-03-29T12:44:37.001Z</time></trkpt><trkpt lat="45.6737917" lon="8.2236617"><ele>402.0</ele><time>2026-03-29T12:44:38.001Z</time></trkpt><trkpt lat="45.6736333" lon="8.2234333"><ele>407.0</ele><time>2026-03-29T12:44:39Z</time></trkpt><trkpt lat="45.6734967" lon="8.223195"><ele>412.0</ele><time>2026-03-29T12:44:40Z</time></trkpt><trkpt lat="45.6733817" lon="8.2229517"><ele>417.0</ele><time>2026-03-29T12:44:41Z</time></trkpt><trkpt lat="45.6732883" lon="8.2227233"><ele>417.0</ele><time>2026-03-29T12:44:42.001Z</time></trkpt><trkpt lat="45.6732067" lon="8.2225117"><ele>417.0</ele><time>2026-03-29T12:44:43.001Z</time></trkpt><trkpt lat="45.6731133" lon="8.2223267"><ele>417.0</ele><time>2026-03-29T12:44:44.001Z</time></trkpt><trkpt lat="45.6730233" lon="8.222165"><ele>415.6</ele><time>2026-03-29T12:44:45.001Z</time></trkpt><trkpt lat="45.67295" lon="8.222015"><ele>414.20000000000005</ele><time>2026-03-29T12:44:46.001Z</time></trkpt><trkpt lat="45.6728883" lon="8.2218467"><ele>412.8</ele><time>2026-03-29T12:44:47.001Z</time></trkpt><trkpt lat="45.6728617" lon="8.2217167"><ele>411.4</ele><time>2026-03-29T12:44:48.001Z</time></trkpt><trkpt lat="45.6728717" lon="8.2216133"><ele>410.0</ele><time>2026-03-29T12:44:49.001Z</time></trkpt><trkpt lat="45.6728667" lon="8.2214483"><ele>409.2</ele><time>2026-03-29T12:44:51.001Z</time></trkpt><trkpt lat="45.6727983" lon="8.22131"><ele>408.4</ele><time>2026-03-29T12:44:53.001Z</time></trkpt><trkpt lat="45.6727333" lon="8.2212433"><ele>407.6</ele><time>2026-03-29T12:44:54.001Z</time></trkpt><trkpt lat="45.6726483" lon="8.2211633"><ele>406.8</ele><time>2026-03-29T12:44:55.001Z</time></trkpt><trkpt lat="45.6725417" lon="8.2210667"><ele>406.0</ele><time>2026-03-29T12:44:56.001Z</time></trkpt><trkpt lat="45.6724333" lon="8.2209567"><ele>408.0</ele><time>2026-03-29T12:44:57.001Z</time></trkpt><trkpt lat="45.6723383" lon="8.2208017"><ele>410.0</ele><time>2026-03-29T12:44:58.001Z</time></trkpt><trkpt lat="45.672295" lon="8.220565"><ele>412.0</ele><time>2026-03-29T12:44:59.001Z</time></trkpt><trkpt lat="45.6722867" lon="8.2202983"><ele>412.0</ele><time>2026-03-29T12:45:00.001Z</time></trkpt><trkpt lat="45.6723117" lon="8.220035"><ele>412.0</ele><time>2026-03-29T12:45:01Z</time></trkpt><trkpt lat="45.67233" lon="8.2197617"><ele>412.0</ele><time>2026-03-29T12:45:02Z</time></trkpt><trkpt lat="45.6723433" lon="8.2194683"><ele>412.0</ele><time>2026-03-29T12:45:03.001Z</time></trkpt><trkpt lat="45.6723567" lon="8.2191567"><ele>412.0</ele><time>2026-03-29T12:45:04Z</time></trkpt><trkpt lat="45.672365" lon="8.21884"><ele>412.0</ele><time>2026-03-29T12:45:05.001Z</time></trkpt><trkpt lat="45.6723917" lon="8.2185317"><ele>415.0</ele><time>2026-03-29T12:45:06.001Z</time></trkpt><trkpt lat="45.6724317" lon="8.218215"><ele>418.0</ele><time>2026-03-29T12:45:07.001Z</time></trkpt><trkpt lat="45.6724817" lon="8.2178833"><ele>419.0</ele><time>2026-03-29T12:45:08Z</time></trkpt><trkpt lat="45.6725583" lon="8.217545"><ele>420.0</ele><time>2026-03-29T12:45:09.001Z</time></trkpt><trkpt lat="45.6726" lon="8.2172217"><ele>422.5</ele><time>2026-03-29T12:45:10.001Z</time></trkpt><trkpt lat="45.67264" lon="8.2168933"><ele>425.0</ele><time>2026-03-29T12:45:11.001Z</time></trkpt><trkpt lat="45.67268" lon="8.2165883"><ele>422.66666666666663</ele><time>2026-03-29T12:45:12.001Z</time></trkpt><trkpt lat="45.67271" lon="8.216295"><ele>420.33333333333337</ele><time>2026-03-29T12:45:13.001Z</time></trkpt><trkpt lat="45.6726967" lon="8.2160067"><ele>418.0</ele><time>2026-03-29T12:45:14Z</time></trkpt><trkpt lat="45.6726533" lon="8.2157383"><ele>417.0</ele><time>2026-03-29T12:45:15.001Z</time></trkpt><trkpt lat="45.6725767" lon="8.2154833"><ele>416.0</ele><time>2026-03-29T12:45:16Z</time></trkpt><trkpt lat="45.672475" lon="8.2152433"><ele>415.0</ele><time>2026-03-29T12:45:17.001Z</time></trkpt><trkpt lat="45.67237" lon="8.2150067"><ele>414.0</ele><time>2026-03-29T12:45:18.001Z</time></trkpt><trkpt lat="45.6722517" lon="8.2148033"><ele>413.0</ele><time>2026-03-29T12:45:19.001Z</time></trkpt><trkpt lat="45.672145" lon="8.21461"><ele>412.0</ele><time>2026-03-29T12:45:20Z</time></trkpt><trkpt lat="45.6720733" lon="8.2143983"><ele>412.0</ele><time>2026-03-29T12:45:21Z</time></trkpt><trkpt lat="45.6720133" lon="8.2141583"><ele>412.0</ele><time>2026-03-29T12:45:22Z</time></trkpt><trkpt lat="45.67194" lon="8.2138883"><ele>412.0</ele><time>2026-03-29T12:45:23.001Z</time></trkpt><trkpt lat="45.67185" lon="8.2136"><ele>413.5</ele><time>2026-03-29T12:45:24Z</time></trkpt><trkpt lat="45.6717567" lon="8.2133"><ele>415.0</ele><time>2026-03-29T12:45:25.001Z</time></trkpt><trkpt lat="45.6716667" lon="8.212985"><ele>417.0</ele><time>2026-03-29T12:45:26.001Z</time></trkpt><trkpt lat="45.6715867" lon="8.21268"><ele>419.0</ele><time>2026-03-29T12:45:27Z</time></trkpt><trkpt lat="45.6715117" lon="8.2123633"><ele>418.0</ele><time>2026-03-29T12:45:28Z</time></trkpt><trkpt lat="45.6714483" lon="8.2120517"><ele>417.0</ele><time>2026-03-29T12:45:29.001Z</time></trkpt><trkpt lat="45.671405" lon="8.2117217"><ele>417.5</ele><time>2026-03-29T12:45:30Z</time></trkpt><trkpt lat="45.6713833" lon="8.21139"><ele>418.0</ele><time>2026-03-29T12:45:31Z</time></trkpt><trkpt lat="45.67137" lon="8.211035"><ele>418.0</ele><time>2026-03-29T12:45:32.001Z</time></trkpt><trkpt lat="45.6713667" lon="8.210665"><ele>418.0</ele><time>2026-03-29T12:45:33Z</time></trkpt><trkpt lat="45.6713933" lon="8.21029"><ele>418.5</ele><time>2026-03-29T12:45:34.001Z</time></trkpt><trkpt lat="45.6714383" lon="8.2099"><ele>419.0</ele><time>2026-03-29T12:45:35.001Z</time></trkpt><trkpt lat="45.671485" lon="8.209525"><ele>419.0</ele><time>2026-03-29T12:45:36Z</time></trkpt><trkpt lat="45.6715167" lon="8.20915"><ele>419.0</ele><time>2026-03-29T12:45:37.001Z</time></trkpt><trkpt lat="45.67155" lon="8.2087717"><ele>419.5</ele><time>2026-03-29T12:45:38Z</time></trkpt><trkpt lat="45.671585" lon="8.2083933"><ele>420.0</ele><time>2026-03-29T12:45:39.001Z</time></trkpt><trkpt lat="45.671625" lon="8.2080133"><ele>421.5</ele><time>2026-03-29T12:45:40.001Z</time></trkpt><trkpt lat="45.6716717" lon="8.2076433"><ele>423.0</ele><time>2026-03-29T12:45:41.001Z</time></trkpt><trkpt lat="45.67171" lon="8.20727"><ele>430.5</ele><time>2026-03-29T12:45:42Z</time></trkpt><trkpt lat="45.67175" lon="8.2069383"><ele>438.0</ele><time>2026-03-29T12:45:43.001Z</time></trkpt><trkpt lat="45.671805" lon="8.20658"><ele>440.5</ele><time>2026-03-29T12:45:44.001Z</time></trkpt><trkpt lat="45.67184" lon="8.20622"><ele>443.0</ele><time>2026-03-29T12:45:45Z</time></trkpt><trkpt lat="45.6718667" lon="8.2058617"><ele>438.0</ele><time>2026-03-29T12:45:46.001Z</time></trkpt><trkpt lat="45.671865" lon="8.205505"><ele>433.0</ele><time>2026-03-29T12:45:47.001Z</time></trkpt><trkpt lat="45.6717983" lon="8.2051133"><ele>433.5</ele><time>2026-03-29T12:45:48.001Z</time></trkpt><trkpt lat="45.6717283" lon="8.204735"><ele>434.0</ele><time>2026-03-29T12:45:49.001Z</time></trkpt><trkpt lat="45.6716683" lon="8.20436"><ele>434.0</ele><time>2026-03-29T12:45:50.001Z</time></trkpt><trkpt lat="45.671635" lon="8.2039983"><ele>434.0</ele><time>2026-03-29T12:45:51Z</time></trkpt><trkpt lat="45.6716433" lon="8.2036783"><ele>434.5</ele><time>2026-03-29T12:45:52.001Z</time></trkpt><trkpt lat="45.6716783" lon="8.2033367"><ele>435.0</ele><time>2026-03-29T12:45:53.001Z</time></trkpt><trkpt lat="45.6717267" lon="8.20302"><ele>435.0</ele><time>2026-03-29T12:45:54.001Z</time></trkpt><trkpt lat="45.6718083" lon="8.202725"><ele>435.0</ele><time>2026-03-29T12:45:55.001Z</time></trkpt><trkpt lat="45.67191" lon="8.20246"><ele>435.0</ele><time>2026-03-29T12:45:56.001Z</time></trkpt><trkpt lat="45.67202" lon="8.2022117"><ele>435.0</ele><time>2026-03-29T12:45:57Z</time></trkpt><trkpt lat="45.67214" lon="8.201995"><ele>435.0</ele><time>2026-03-29T12:45:58.001Z</time></trkpt><trkpt lat="45.672275" lon="8.2017983"><ele>435.0</ele><time>2026-03-29T12:45:59.001Z</time></trkpt><trkpt lat="45.6724067" lon="8.2016117"><ele>434.66666666666663</ele><time>2026-03-29T12:46:00.001Z</time></trkpt><trkpt lat="45.67254" lon="8.2014067"><ele>434.3333333333333</ele><time>2026-03-29T12:46:01.001Z</time></trkpt><trkpt lat="45.6727183" lon="8.2012367"><ele>434.0</ele><time>2026-03-29T12:46:02Z</time></trkpt><trkpt lat="45.6729067" lon="8.2010883"><ele>434.0</ele><time>2026-03-29T12:46:03.001Z</time></trkpt><trkpt lat="45.673105" lon="8.200945"><ele>434.0</ele><time>2026-03-29T12:46:04Z</time></trkpt><trkpt lat="45.6733117" lon="8.20077"><ele>434.5</ele><time>2026-03-29T12:46:05.001Z</time></trkpt><trkpt lat="45.6735317" lon="8.2005917"><ele>435.0</ele><time>2026-03-29T12:46:06Z</time></trkpt><trkpt lat="45.6737517" lon="8.2004117"><ele>435.0</ele><time>2026-03-29T12:46:07.001Z</time></trkpt><trkpt lat="45.6739583" lon="8.2002483"><ele>435.0</ele><time>2026-03-29T12:46:08.001Z</time></trkpt><trkpt lat="45.67416" lon="8.200085"><ele>435.0</ele><time>2026-03-29T12:46:09Z</time></trkpt><trkpt lat="45.6743483" lon="8.1999267"><ele>435.0</ele><time>2026-03-29T12:46:10.001Z</time></trkpt><trkpt lat="45.674535" lon="8.1997617"><ele>435.0</ele><time>2026-03-29T12:46:11.001Z</time></trkpt><trkpt lat="45.6747" lon="8.1996117"><ele>435.0</ele><time>2026-03-29T12:46:12.001Z</time></trkpt><trkpt lat="45.6748433" lon="8.199485"><ele>435.0</ele><time>2026-03-29T12:46:13Z</time></trkpt><trkpt lat="45.6749667" lon="8.1993883"><ele>435.0</ele><time>2026-03-29T12:46:14Z</time></trkpt><trkpt lat="45.6750717" lon="8.1993117"><ele>435.0</ele><time>2026-03-29T12:46:15.001Z</time></trkpt><trkpt lat="45.6751717" lon="8.199275"><ele>435.0</ele><time>2026-03-29T12:46:16Z</time></trkpt><trkpt lat="45.67526" lon="8.1992683"><ele>435.0</ele><time>2026-03-29T12:46:17.001Z</time></trkpt><trkpt lat="45.6753383" lon="8.199205"><ele>435.0</ele><time>2026-03-29T12:46:18.001Z</time></trkpt><trkpt lat="45.6753933" lon="8.1990933"><ele>435.0</ele><time>2026-03-29T12:46:19.001Z</time></trkpt><trkpt lat="45.6754733" lon="8.1989583"><ele>435.0</ele><time>2026-03-29T12:46:20.001Z</time></trkpt><trkpt lat="45.675585" lon="8.1987967"><ele>435.0</ele><time>2026-03-29T12:46:21.001Z</time></trkpt><trkpt lat="45.6757567" lon="8.1986467"><ele>435.0</ele><time>2026-03-29T12:46:22.001Z</time></trkpt><trkpt lat="45.6759667" lon="8.198495"><ele>435.0</ele><time>2026-03-29T12:46:23.001Z</time></trkpt><trkpt lat="45.67619" lon="8.1983167"><ele>436.0</ele><time>2026-03-29T12:46:24.001Z</time></trkpt><trkpt lat="45.6764167" lon="8.19812"><ele>437.0</ele><time>2026-03-29T12:46:25.001Z</time></trkpt><trkpt lat="45.6766333" lon="8.1979133"><ele>437.0</ele><time>2026-03-29T12:46:26Z</time></trkpt><trkpt lat="45.6768633" lon="8.1976933"><ele>437.0</ele><time>2026-03-29T12:46:27.001Z</time></trkpt><trkpt lat="45.67709" lon="8.19749"><ele>438.5</ele><time>2026-03-29T12:46:28.001Z</time></trkpt><trkpt lat="45.677325" lon="8.1972817"><ele>440.0</ele><time>2026-03-29T12:46:29.001Z</time></trkpt><trkpt lat="45.6775683" lon="8.1970633"><ele>438.0</ele><time>2026-03-29T12:46:30.001Z</time></trkpt><trkpt lat="45.6777867" lon="8.196825"><ele>436.0</ele><time>2026-03-29T12:46:31.001Z</time></trkpt><trkpt lat="45.67799" lon="8.1965517"><ele>437.0</ele><time>2026-03-29T12:46:32Z</time></trkpt><trkpt lat="45.678195" lon="8.19627"><ele>438.0</ele><time>2026-03-29T12:46:33.001Z</time></trkpt><trkpt lat="45.67839" lon="8.1959933"><ele>438.0</ele><time>2026-03-29T12:46:34.001Z</time></trkpt><trkpt lat="45.6785617" lon="8.1956883"><ele>438.0</ele><time>2026-03-29T12:46:35.001Z</time></trkpt><trkpt lat="45.6787133" lon="8.1953783"><ele>438.0</ele><time>2026-03-29T12:46:36.001Z</time></trkpt><trkpt lat="45.6788533" lon="8.1950517"><ele>438.0</ele><time>2026-03-29T12:46:37.001Z</time></trkpt><trkpt lat="45.67899" lon="8.1947267"><ele>439.0</ele><time>2026-03-29T12:46:38Z</time></trkpt><trkpt lat="45.6791317" lon="8.1944117"><ele>440.0</ele><time>2026-03-29T12:46:39.001Z</time></trkpt><trkpt lat="45.679275" lon="8.1940917"><ele>440.5</ele><time>2026-03-29T12:46:40.001Z</time></trkpt><trkpt lat="45.6794233" lon="8.1937717"><ele>441.0</ele><time>2026-03-29T12:46:41.001Z</time></trkpt><trkpt lat="45.6795683" lon="8.1934483"><ele>441.5</ele><time>2026-03-29T12:46:42.001Z</time></trkpt><trkpt lat="45.679705" lon="8.193125"><ele>442.0</ele><time>2026-03-29T12:46:43Z</time></trkpt><trkpt lat="45.679855" lon="8.1928"><ele>442.0</ele><time>2026-03-29T12:46:44.001Z</time></trkpt><trkpt lat="45.6799983" lon="8.1924633"><ele>442.0</ele><time>2026-03-29T12:46:45.001Z</time></trkpt><trkpt lat="45.6801433" lon="8.1921333"><ele>444.0</ele><time>2026-03-29T12:46:46.001Z</time></trkpt><trkpt lat="45.6802917" lon="8.1918183"><ele>446.0</ele><time>2026-03-29T12:46:47.001Z</time></trkpt><trkpt lat="45.6804317" lon="8.1914983"><ele>446.5</ele><time>2026-03-29T12:46:48.001Z</time></trkpt><trkpt lat="45.680575" lon="8.1911833"><ele>447.0</ele><time>2026-03-29T12:46:49.001Z</time></trkpt><trkpt lat="45.6807233" lon="8.1908617"><ele>447.5</ele><time>2026-03-29T12:46:50.001Z</time></trkpt><trkpt lat="45.6808683" lon="8.19055"><ele>448.0</ele><time>2026-03-29T12:46:51.001Z</time></trkpt><trkpt lat="45.6810133" lon="8.19023"><ele>447.0</ele><time>2026-03-29T12:46:52Z</time></trkpt><trkpt lat="45.6811533" lon="8.189915"><ele>446.0</ele><time>2026-03-29T12:46:53Z</time></trkpt><trkpt lat="45.681295" lon="8.1896033"><ele>445.5</ele><time>2026-03-29T12:46:54Z</time></trkpt><trkpt lat="45.6814183" lon="8.18929"><ele>445.0</ele><time>2026-03-29T12:46:55Z</time></trkpt><trkpt lat="45.68151" lon="8.18896"><ele>448.0</ele><time>2026-03-29T12:46:56.001Z</time></trkpt><trkpt lat="45.6816" lon="8.1886067"><ele>451.0</ele><time>2026-03-29T12:46:57Z</time></trkpt><trkpt lat="45.681665" lon="8.18825"><ele>458.5</ele><time>2026-03-29T12:46:58Z</time></trkpt><trkpt lat="45.6817217" lon="8.1878683"><ele>466.0</ele><time>2026-03-29T12:46:59.001Z</time></trkpt><trkpt lat="45.681775" lon="8.1874883"><ele>473.5</ele><time>2026-03-29T12:47:00.001Z</time></trkpt><trkpt lat="45.6818283" lon="8.1870967"><ele>481.0</ele><time>2026-03-29T12:47:01Z</time></trkpt><trkpt lat="45.6818967" lon="8.1867333"><ele>466.0</ele><time>2026-03-29T12:47:02.001Z</time></trkpt><trkpt lat="45.6819583" lon="8.1863967"><ele>451.0</ele><time>2026-03-29T12:47:03.001Z</time></trkpt><trkpt lat="45.682005" lon="8.1860783"><ele>451.0</ele><time>2026-03-29T12:47:04Z</time></trkpt><trkpt lat="45.6820533" lon="8.1857783"><ele>451.0</ele><time>2026-03-29T12:47:05Z</time></trkpt><trkpt lat="45.6820933" lon="8.1854883"><ele>451.0</ele><time>2026-03-29T12:47:06.001Z</time></trkpt><trkpt lat="45.6821317" lon="8.185225"><ele>451.6666666666667</ele><time>2026-03-29T12:47:07.001Z</time></trkpt><trkpt lat="45.682165" lon="8.18499"><ele>452.33333333333337</ele><time>2026-03-29T12:47:08.001Z</time></trkpt><trkpt lat="45.6822017" lon="8.1847783"><ele>453.0</ele><time>2026-03-29T12:47:09Z</time></trkpt><trkpt lat="45.6822583" lon="8.1845833"><ele>454.2</ele><time>2026-03-29T12:47:10.001Z</time></trkpt><trkpt lat="45.6823133" lon="8.1844267"><ele>455.4</ele><time>2026-03-29T12:47:11.001Z</time></trkpt><trkpt lat="45.6823783" lon="8.1843033"><ele>456.59999999999997</ele><time>2026-03-29T12:47:12Z</time></trkpt><trkpt lat="45.68245" lon="8.1842283"><ele>457.79999999999995</ele><time>2026-03-29T12:47:13.001Z</time></trkpt><trkpt lat="45.68251" lon="8.18417"><ele>459.0</ele><time>2026-03-29T12:47:14.001Z</time></trkpt><trkpt lat="45.6825083" lon="8.1840767"><ele>460.0</ele><time>2026-03-29T12:47:15.001Z</time></trkpt><trkpt lat="45.6824817" lon="8.18396"><ele>461.0</ele><time>2026-03-29T12:47:16Z</time></trkpt><trkpt lat="45.682435" lon="8.1838383"><ele>462.0</ele><time>2026-03-29T12:47:17.001Z</time></trkpt><trkpt lat="45.682385" lon="8.1836617"><ele>463.0</ele><time>2026-03-29T12:47:18Z</time></trkpt><trkpt lat="45.6823533" lon="8.1834367"><ele>463.0</ele><time>2026-03-29T12:47:19.001Z</time></trkpt><trkpt lat="45.6823567" lon="8.1831983"><ele>463.0</ele><time>2026-03-29T12:47:20.001Z</time></trkpt><trkpt lat="45.6824033" lon="8.1829067"><ele>463.0</ele><time>2026-03-29T12:47:21.001Z</time></trkpt><trkpt lat="45.6824417" lon="8.1825767"><ele>473.0</ele><time>2026-03-29T12:47:22.001Z</time></trkpt><trkpt lat="45.68251" lon="8.182225"><ele>483.0</ele><time>2026-03-29T12:47:23Z</time></trkpt><trkpt lat="45.6825833" lon="8.18187"><ele>483.0</ele><time>2026-03-29T12:47:24.001Z</time></trkpt><trkpt lat="45.68266" lon="8.1815367"><ele>483.0</ele><time>2026-03-29T12:47:25.001Z</time></trkpt><trkpt lat="45.6827833" lon="8.18122"><ele>481.33333333333337</ele><time>2026-03-29T12:47:26.001Z</time></trkpt><trkpt lat="45.68288" lon="8.18091"><ele>479.6666666666667</ele><time>2026-03-29T12:47:27Z</time></trkpt><trkpt lat="45.68293" lon="8.180615"><ele>478.0</ele><time>2026-03-29T12:47:28.001Z</time></trkpt><trkpt lat="45.68298" lon="8.18033"><ele>478.0</ele><time>2026-03-29T12:47:29.001Z</time></trkpt><trkpt lat="45.683025" lon="8.18007"><ele>478.0</ele><time>2026-03-29T12:47:30.001Z</time></trkpt><trkpt lat="45.6830817" lon="8.1798517"><ele>478.0</ele><time>2026-03-29T12:47:31.001Z</time></trkpt><trkpt lat="45.6831617" lon="8.1796283"><ele>481.6666666666667</ele><time>2026-03-29T12:47:32Z</time></trkpt><trkpt lat="45.6832633" lon="8.1794283"><ele>485.33333333333337</ele><time>2026-03-29T12:47:33.001Z</time></trkpt><trkpt lat="45.6833883" lon="8.1792783"><ele>489.0</ele><time>2026-03-29T12:47:34.001Z</time></trkpt><trkpt lat="45.6835017" lon="8.1791683"><ele>490.75</ele><time>2026-03-29T12:47:35.001Z</time></trkpt><trkpt lat="45.6836183" lon="8.1790517"><ele>492.5</ele><time>2026-03-29T12:47:36Z</time></trkpt><trkpt lat="45.6836783" lon="8.1789083"><ele>494.25</ele><time>2026-03-29T12:47:37Z</time></trkpt><trkpt lat="45.683705" lon="8.1787383"><ele>496.0</ele><time>2026-03-29T12:47:38.001Z</time></trkpt><trkpt lat="45.68366" lon="8.1785833"><ele>498.5</ele><time>2026-03-29T12:47:39.001Z</time></trkpt><trkpt lat="45.6835967" lon="8.1784433"><ele>501.0</ele><time>2026-03-29T12:47:40Z</time></trkpt><trkpt lat="45.6835117" lon="8.1783317"><ele>503.5</ele><time>2026-03-29T12:47:41.001Z</time></trkpt><trkpt lat="45.6833967" lon="8.1782683"><ele>506.0</ele><time>2026-03-29T12:47:42.001Z</time></trkpt><trkpt lat="45.6832617" lon="8.1782783"><ele>506.0</ele><time>2026-03-29T12:47:43.001Z</time></trkpt><trkpt lat="45.6831383" lon="8.1783633"><ele>506.0</ele><time>2026-03-29T12:47:44.001Z</time></trkpt><trkpt lat="45.6830267" lon="8.1785"><ele>506.0</ele><time>2026-03-29T12:47:45Z</time></trkpt><trkpt lat="45.6829567" lon="8.1787017"><ele>506.0</ele><time>2026-03-29T12:47:46Z</time></trkpt><trkpt lat="45.6828767" lon="8.1789517"><ele>500.3333333333333</ele><time>2026-03-29T12:47:47.001Z</time></trkpt><trkpt lat="45.6827867" lon="8.1792"><ele>494.66666666666663</ele><time>2026-03-29T12:47:48Z</time></trkpt><trkpt lat="45.6827383" lon="8.1794267"><ele>489.0</ele><time>2026-03-29T12:47:49.001Z</time></trkpt><trkpt lat="45.6827117" lon="8.1796417"><ele>503.0</ele><time>2026-03-29T12:47:50.001Z</time></trkpt><trkpt lat="45.68272" lon="8.1798883"><ele>517.0</ele><time>2026-03-29T12:47:51Z</time></trkpt><trkpt lat="45.6827183" lon="8.180115"><ele>531.0</ele><time>2026-03-29T12:47:52.001Z</time></trkpt><trkpt lat="45.6826917" lon="8.1803133"><ele>531.0</ele><time>2026-03-29T12:47:53.001Z</time></trkpt><trkpt lat="45.68262" lon="8.1805267"><ele>531.0</ele><time>2026-03-29T12:47:54.001Z</time></trkpt><trkpt lat="45.6825117" lon="8.1807267"><ele>531.0</ele><time>2026-03-29T12:47:55.001Z</time></trkpt><trkpt lat="45.6823933" lon="8.180895"><ele>532.3333333333334</ele><time>2026-03-29T12:47:56Z</time></trkpt><trkpt lat="45.6822483" lon="8.1810067"><ele>533.6666666666667</ele><time>2026-03-29T12:47:57Z</time></trkpt><trkpt lat="45.6820983" lon="8.181055"><ele>535.0</ele><time>2026-03-29T12:47:58.001Z</time></trkpt><trkpt lat="45.6819217" lon="8.1811117"><ele>535.0</ele><time>2026-03-29T12:47:59.001Z</time></trkpt><trkpt lat="45.681725" lon="8.1811567"><ele>535.0</ele><time>2026-03-29T12:48:00.001Z</time></trkpt><trkpt lat="45.6815383" lon="8.18121"><ele>535.0</ele><time>2026-03-29T12:48:01Z</time></trkpt><trkpt lat="45.6813883" lon="8.1813217"><ele>535.0</ele><time>2026-03-29T12:48:02.001Z</time></trkpt><trkpt lat="45.6812567" lon="8.1813733"><ele>535.0</ele><time>2026-03-29T12:48:03.001Z</time></trkpt><trkpt lat="45.6811517" lon="8.1814433"><ele>535.0</ele><time>2026-03-29T12:48:04.001Z</time></trkpt><trkpt lat="45.6811117" lon="8.1815667"><ele>535.0</ele><time>2026-03-29T12:48:05Z</time></trkpt><trkpt lat="45.68112" lon="8.1816917"><ele>535.0</ele><time>2026-03-29T12:48:06.001Z</time></trkpt><trkpt lat="45.681185" lon="8.181845"><ele>529.0</ele><time>2026-03-29T12:48:07Z</time></trkpt><trkpt lat="45.68133" lon="8.1820917"><ele>523.0</ele><time>2026-03-29T12:48:08Z</time></trkpt><trkpt lat="45.6814583" lon="8.18228"><ele>517.0</ele><time>2026-03-29T12:48:09.001Z</time></trkpt><trkpt lat="45.68153" lon="8.1825"><ele>517.0</ele><time>2026-03-29T12:48:10.001Z</time></trkpt><trkpt lat="45.6815567" lon="8.1827133"><ele>517.0</ele><time>2026-03-29T12:48:11.001Z</time></trkpt><trkpt lat="45.6815483" lon="8.182895"><ele>517.0</ele><time>2026-03-29T12:48:12.001Z</time></trkpt><trkpt lat="45.6815017" lon="8.1830233"><ele>517.0</ele><time>2026-03-29T12:48:13.001Z</time></trkpt><trkpt lat="45.681415" lon="8.18313"><ele>517.25</ele><time>2026-03-29T12:48:14.001Z</time></trkpt><trkpt lat="45.6813367" lon="8.18326"><ele>517.5</ele><time>2026-03-29T12:48:15.001Z</time></trkpt><trkpt lat="45.6813233" lon="8.18346"><ele>517.75</ele><time>2026-03-29T12:48:16.001Z</time></trkpt><trkpt lat="45.6813317" lon="8.1836667"><ele>518.0</ele><time>2026-03-29T12:48:17.001Z</time></trkpt><trkpt lat="45.6813267" lon="8.183855"><ele>515.0</ele><time>2026-03-29T12:48:18.001Z</time></trkpt><trkpt lat="45.6812917" lon="8.1840183"><ele>512.0</ele><time>2026-03-29T12:48:19Z</time></trkpt><trkpt lat="45.6811917" lon="8.184195"><ele>509.0</ele><time>2026-03-29T12:48:20.001Z</time></trkpt><trkpt lat="45.6810933" lon="8.1843083"><ele>506.0</ele><time>2026-03-29T12:48:21Z</time></trkpt><trkpt lat="45.68097" lon="8.18437"><ele>514.25</ele><time>2026-03-29T12:48:22.001Z</time></trkpt><trkpt lat="45.680835" lon="8.18439"><ele>522.5</ele><time>2026-03-29T12:48:23.001Z</time></trkpt><trkpt lat="45.6807033" lon="8.1843567"><ele>530.75</ele><time>2026-03-29T12:48:24Z</time></trkpt><trkpt lat="45.6805717" lon="8.18429"><ele>539.0</ele><time>2026-03-29T12:48:25Z</time></trkpt><trkpt lat="45.6804433" lon="8.184225"><ele>539.0</ele><time>2026-03-29T12:48:26Z</time></trkpt><trkpt lat="45.6803333" lon="8.1841333"><ele>539.0</ele><time>2026-03-29T12:48:27.001Z</time></trkpt><trkpt lat="45.6802483" lon="8.1839933"><ele>539.0</ele><time>2026-03-29T12:48:28Z</time></trkpt><trkpt lat="45.6802417" lon="8.1837317"><ele>539.0</ele><time>2026-03-29T12:48:29Z</time></trkpt><trkpt lat="45.6802217" lon="8.1835067"><ele>543.4</ele><time>2026-03-29T12:48:30Z</time></trkpt><trkpt lat="45.6801217" lon="8.183485"><ele>547.8</ele><time>2026-03-29T12:48:32Z</time></trkpt><trkpt lat="45.6800783" lon="8.1835517"><ele>552.2</ele><time>2026-03-29T12:48:33.001Z</time></trkpt><trkpt lat="45.6800533" lon="8.1836517"><ele>556.6</ele><time>2026-03-29T12:48:34Z</time></trkpt><trkpt lat="45.6800517" lon="8.1837983"><ele>561.0</ele><time>2026-03-29T12:48:35.001Z</time></trkpt><trkpt lat="45.68003" lon="8.183955"><ele>559.0</ele><time>2026-03-29T12:48:36.001Z</time></trkpt><trkpt lat="45.6799633" lon="8.1841383"><ele>557.0</ele><time>2026-03-29T12:48:37.001Z</time></trkpt><trkpt lat="45.67991" lon="8.184335"><ele>555.0</ele><time>2026-03-29T12:48:38Z</time></trkpt><trkpt lat="45.6798733" lon="8.1845417"><ele>553.0</ele><time>2026-03-29T12:48:39.001Z</time></trkpt><trkpt lat="45.67988" lon="8.18476"><ele>553.0</ele><time>2026-03-29T12:48:40.001Z</time></trkpt><trkpt lat="45.6799167" lon="8.1849833"><ele>553.0</ele><time>2026-03-29T12:48:41.001Z</time></trkpt><trkpt lat="45.6799617" lon="8.1852033"><ele>553.0</ele><time>2026-03-29T12:48:42.001Z</time></trkpt><trkpt lat="45.680025" lon="8.185415"><ele>553.0</ele><time>2026-03-29T12:48:43Z</time></trkpt><trkpt lat="45.6800583" lon="8.1856067"><ele>553.0</ele><time>2026-03-29T12:48:44.001Z</time></trkpt><trkpt lat="45.6800433" lon="8.1857867"><ele>553.0</ele><time>2026-03-29T12:48:45.001Z</time></trkpt><trkpt lat="45.679985" lon="8.1859617"><ele>553.0</ele><time>2026-03-29T12:48:46Z</time></trkpt><trkpt lat="45.6799067" lon="8.1861183"><ele>553.5</ele><time>2026-03-29T12:48:47.001Z</time></trkpt><trkpt lat="45.6798183" lon="8.1862467"><ele>554.0</ele><time>2026-03-29T12:48:48.001Z</time></trkpt><trkpt lat="45.6797067" lon="8.1863317"><ele>554.5</ele><time>2026-03-29T12:48:49.001Z</time></trkpt><trkpt lat="45.6795683" lon="8.18632"><ele>555.0</ele><time>2026-03-29T12:48:50Z</time></trkpt><trkpt lat="45.6794233" lon="8.1862617"><ele>555.0</ele><time>2026-03-29T12:48:51.001Z</time></trkpt><trkpt lat="45.6792883" lon="8.1861833"><ele>555.0</ele><time>2026-03-29T12:48:52.001Z</time></trkpt><trkpt lat="45.6791917" lon="8.18605"><ele>555.0</ele><time>2026-03-29T12:48:53.001Z</time></trkpt><trkpt lat="45.6791483" lon="8.185845"><ele>555.0</ele><time>2026-03-29T12:48:54.001Z</time></trkpt><trkpt lat="45.6790983" lon="8.185605"><ele>558.0</ele><time>2026-03-29T12:48:55Z</time></trkpt><trkpt lat="45.679045" lon="8.185345"><ele>561.0</ele><time>2026-03-29T12:48:56Z</time></trkpt><trkpt lat="45.6789467" lon="8.1851567"><ele>564.0</ele><time>2026-03-29T12:48:57.001Z</time></trkpt><trkpt lat="45.678825" lon="8.1850117"><ele>564.0</ele><time>2026-03-29T12:48:58.001Z</time></trkpt><trkpt lat="45.67874" lon="8.1848667"><ele>564.0</ele><time>2026-03-29T12:48:59Z</time></trkpt><trkpt lat="45.6787033" lon="8.1846967"><ele>564.0</ele><time>2026-03-29T12:49:00.001Z</time></trkpt><trkpt lat="45.678685" lon="8.18444"><ele>564.0</ele><time>2026-03-29T12:49:01.001Z</time></trkpt><trkpt lat="45.6786867" lon="8.1841917"><ele>564.5</ele><time>2026-03-29T12:49:02.001Z</time></trkpt><trkpt lat="45.67867" lon="8.1839517"><ele>565.0</ele><time>2026-03-29T12:49:03.001Z</time></trkpt><trkpt lat="45.6786317" lon="8.1837617"><ele>565.5</ele><time>2026-03-29T12:49:04.001Z</time></trkpt><trkpt lat="45.6785933" lon="8.183575"><ele>566.0</ele><time>2026-03-29T12:49:05.001Z</time></trkpt><trkpt lat="45.6786067" lon="8.1833667"><ele>570.0</ele><time>2026-03-29T12:49:06.001Z</time></trkpt><trkpt lat="45.6786533" lon="8.18319"><ele>574.0</ele><time>2026-03-29T12:49:07.001Z</time></trkpt><trkpt lat="45.67873" lon="8.1829833"><ele>578.0</ele><time>2026-03-29T12:49:08.001Z</time></trkpt><trkpt lat="45.678805" lon="8.18276"><ele>578.0</ele><time>2026-03-29T12:49:09.001Z</time></trkpt><trkpt lat="45.6788683" lon="8.1824967"><ele>578.0</ele><time>2026-03-29T12:49:10Z</time></trkpt><trkpt lat="45.6789333" lon="8.1822483"><ele>578.0</ele><time>2026-03-29T12:49:11Z</time></trkpt><trkpt lat="45.6790067" lon="8.182015"><ele>578.75</ele><time>2026-03-29T12:49:12Z</time></trkpt><trkpt lat="45.6790533" lon="8.18181"><ele>579.5</ele><time>2026-03-29T12:49:13.001Z</time></trkpt><trkpt lat="45.67907" lon="8.18162"><ele>580.25</ele><time>2026-03-29T12:49:14Z</time></trkpt><trkpt lat="45.679055" lon="8.18143"><ele>581.0</ele><time>2026-03-29T12:49:15.001Z</time></trkpt><trkpt lat="45.6789983" lon="8.1812333"><ele>581.0</ele><time>2026-03-29T12:49:16.001Z</time></trkpt><trkpt lat="45.6788883" lon="8.181035"><ele>581.0</ele><time>2026-03-29T12:49:17.001Z</time></trkpt><trkpt lat="45.6787567" lon="8.1808333"><ele>581.0</ele><time>2026-03-29T12:49:18.001Z</time></trkpt><trkpt lat="45.6785767" lon="8.1806767"><ele>590.0</ele><time>2026-03-29T12:49:19Z</time></trkpt><trkpt lat="45.67841" lon="8.1805117"><ele>599.0</ele><time>2026-03-29T12:49:20.001Z</time></trkpt><trkpt lat="45.6782667" lon="8.1802617"><ele>608.0</ele><time>2026-03-29T12:49:21Z</time></trkpt><trkpt lat="45.6781367" lon="8.1800033"><ele>613.5</ele><time>2026-03-29T12:49:22.001Z</time></trkpt><trkpt lat="45.6780167" lon="8.17972"><ele>619.0</ele><time>2026-03-29T12:49:23Z</time></trkpt><trkpt lat="45.6779117" lon="8.1794333"><ele>619.0</ele><time>2026-03-29T12:49:24Z</time></trkpt><trkpt lat="45.6778233" lon="8.1791583"><ele>619.0</ele><time>2026-03-29T12:49:25.001Z</time></trkpt><trkpt lat="45.6777233" lon="8.1788717"><ele>619.0</ele><time>2026-03-29T12:49:26.001Z</time></trkpt><trkpt lat="45.6776017" lon="8.1786083"><ele>615.3333333333334</ele><time>2026-03-29T12:49:27.001Z</time></trkpt><trkpt lat="45.677455" lon="8.1784067"><ele>611.6666666666666</ele><time>2026-03-29T12:49:28Z</time></trkpt><trkpt lat="45.677295" lon="8.1782633"><ele>608.0</ele><time>2026-03-29T12:49:29Z</time></trkpt><trkpt lat="45.6771017" lon="8.1782133"><ele>609.4</ele><time>2026-03-29T12:49:29.999Z</time></trkpt><trkpt lat="45.6769817" lon="8.1781483"><ele>610.8</ele><time>2026-03-29T12:49:30.999Z</time></trkpt><trkpt lat="45.6768983" lon="8.1780883"><ele>612.2</ele><time>2026-03-29T12:49:32Z</time></trkpt><trkpt lat="45.6768517" lon="8.1779833"><ele>613.6</ele><time>2026-03-29T12:49:33Z</time></trkpt><trkpt lat="45.67684" lon="8.1778817"><ele>615.0</ele><time>2026-03-29T12:49:34Z</time></trkpt><trkpt lat="45.676905" lon="8.17782"><ele>615.0</ele><time>2026-03-29T12:49:35Z</time></trkpt><trkpt lat="45.6770167" lon="8.1777883"><ele>615.0</ele><time>2026-03-29T12:49:36Z</time></trkpt><trkpt lat="45.677175" lon="8.1777567"><ele>615.0</ele><time>2026-03-29T12:49:37Z</time></trkpt><trkpt lat="45.6773783" lon="8.1776933"><ele>615.0</ele><time>2026-03-29T12:49:37.999Z</time></trkpt><trkpt lat="45.6775783" lon="8.177585"><ele>615.0</ele><time>2026-03-29T12:49:38.999Z</time></trkpt><trkpt lat="45.6777517" lon="8.177445"><ele>615.0</ele><time>2026-03-29T12:49:39.999Z</time></trkpt><trkpt lat="45.677885" lon="8.177275"><ele>617.0</ele><time>2026-03-29T12:49:41Z</time></trkpt><trkpt lat="45.6779967" lon="8.1771067"><ele>619.0</ele><time>2026-03-29T12:49:41.999Z</time></trkpt><trkpt lat="45.6780233" lon="8.1769383"><ele>621.0</ele><time>2026-03-29T12:49:42.999Z</time></trkpt><trkpt lat="45.6779833" lon="8.17681"><ele>623.0</ele><time>2026-03-29T12:49:43.999Z</time></trkpt><trkpt lat="45.6779117" lon="8.176715"><ele>623.0</ele><time>2026-03-29T12:49:45Z</time></trkpt><trkpt lat="45.6778133" lon="8.17668"><ele>623.0</ele><time>2026-03-29T12:49:46Z</time></trkpt><trkpt lat="45.6777217" lon="8.176685"><ele>623.0</ele><time>2026-03-29T12:49:46.999Z</time></trkpt><trkpt lat="45.6776333" lon="8.1767317"><ele>623.0</ele><time>2026-03-29T12:49:47.999Z</time></trkpt><trkpt lat="45.6775467" lon="8.176805"><ele>623.0</ele><time>2026-03-29T12:49:49Z</time></trkpt><trkpt lat="45.6774283" lon="8.1769467"><ele>625.6666666666666</ele><time>2026-03-29T12:49:50Z</time></trkpt><trkpt lat="45.6772967" lon="8.1771"><ele>628.3333333333334</ele><time>2026-03-29T12:49:50.999Z</time></trkpt><trkpt lat="45.6771617" lon="8.1771967"><ele>631.0</ele><time>2026-03-29T12:49:51.999Z</time></trkpt><trkpt lat="45.6770067" lon="8.1772617"><ele>635.6666666666667</ele><time>2026-03-29T12:49:52.999Z</time></trkpt><trkpt lat="45.6768617" lon="8.177285"><ele>640.3333333333334</ele><time>2026-03-29T12:49:54Z</time></trkpt><trkpt lat="45.67672" lon="8.1773183"><ele>645.0</ele><time>2026-03-29T12:49:54.999Z</time></trkpt><trkpt lat="45.676535" lon="8.1772667"><ele>645.0</ele><time>2026-03-29T12:49:56Z</time></trkpt><trkpt lat="45.6763183" lon="8.1771567"><ele>645.0</ele><time>2026-03-29T12:49:57Z</time></trkpt><trkpt lat="45.6761367" lon="8.1770833"><ele>645.0</ele><time>2026-03-29T12:49:57.999Z</time></trkpt><trkpt lat="45.6759383" lon="8.177035"><ele>643.0</ele><time>2026-03-29T12:49:59Z</time></trkpt><trkpt lat="45.675775" lon="8.1769783"><ele>641.0</ele><time>2026-03-29T12:50:00Z</time></trkpt><trkpt lat="45.6756333" lon="8.17693"><ele>639.0</ele><time>2026-03-29T12:50:01Z</time></trkpt><trkpt lat="45.67552" lon="8.1768683"><ele>637.0</ele><time>2026-03-29T12:50:02Z</time></trkpt><trkpt lat="45.675415" lon="8.1768167"><ele>637.0</ele><time>2026-03-29T12:50:03Z</time></trkpt><trkpt lat="45.6753367" lon="8.17672"><ele>637.0</ele><time>2026-03-29T12:50:04Z</time></trkpt><trkpt lat="45.6752867" lon="8.176605"><ele>637.0</ele><time>2026-03-29T12:50:04.999Z</time></trkpt><trkpt lat="45.6752867" lon="8.176455"><ele>637.0</ele><time>2026-03-29T12:50:05.999Z</time></trkpt><trkpt lat="45.6752767" lon="8.176295"><ele>637.0</ele><time>2026-03-29T12:50:06.999Z</time></trkpt><trkpt lat="45.67524" lon="8.1761333"><ele>636.5</ele><time>2026-03-29T12:50:08Z</time></trkpt><trkpt lat="45.6751633" lon="8.176"><ele>636.0</ele><time>2026-03-29T12:50:09Z</time></trkpt><trkpt lat="45.6750483" lon="8.1758933"><ele>635.5</ele><time>2026-03-29T12:50:10Z</time></trkpt><trkpt lat="45.6749117" lon="8.1757967"><ele>635.0</ele><time>2026-03-29T12:50:11Z</time></trkpt><trkpt lat="45.67479" lon="8.17569"><ele>636.6</ele><time>2026-03-29T12:50:11.999Z</time></trkpt><trkpt lat="45.6746883" lon="8.17558"><ele>638.2</ele><time>2026-03-29T12:50:13Z</time></trkpt><trkpt lat="45.6746067" lon="8.1754633"><ele>639.8</ele><time>2026-03-29T12:50:14Z</time></trkpt><trkpt lat="45.6745683" lon="8.1753317"><ele>641.4</ele><time>2026-03-29T12:50:15Z</time></trkpt><trkpt lat="45.6745617" lon="8.175225"><ele>643.0</ele><time>2026-03-29T12:50:15.999Z</time></trkpt><trkpt lat="45.6746933" lon="8.175035"><ele>645.3333333333334</ele><time>2026-03-29T12:50:17Z</time></trkpt><trkpt lat="45.6748317" lon="8.174845"><ele>647.6666666666666</ele><time>2026-03-29T12:50:18Z</time></trkpt><trkpt lat="45.6750167" lon="8.17466"><ele>650.0</ele><time>2026-03-29T12:50:19Z</time></trkpt><trkpt lat="45.6751683" lon="8.1745067"><ele>650.0</ele><time>2026-03-29T12:50:19.999Z</time></trkpt><trkpt lat="45.6752633" lon="8.1743817"><ele>650.0</ele><time>2026-03-29T12:50:21Z</time></trkpt><trkpt lat="45.675305" lon="8.1742467"><ele>650.0</ele><time>2026-03-29T12:50:22Z</time></trkpt><trkpt lat="45.6752717" lon="8.174135"><ele>650.0</ele><time>2026-03-29T12:50:23Z</time></trkpt><trkpt lat="45.6752067" lon="8.174045"><ele>650.0</ele><time>2026-03-29T12:50:24Z</time></trkpt><trkpt lat="45.6751217" lon="8.173985"><ele>650.0</ele><time>2026-03-29T12:50:25Z</time></trkpt><trkpt lat="45.675" lon="8.17395"><ele>650.0</ele><time>2026-03-29T12:50:26Z</time></trkpt><trkpt lat="45.6748267" lon="8.1739867"><ele>650.0</ele><time>2026-03-29T12:50:27Z</time></trkpt><trkpt lat="45.6745967" lon="8.1741433"><ele>649.0</ele><time>2026-03-29T12:50:28Z</time></trkpt><trkpt lat="45.6743967" lon="8.1743083"><ele>648.0</ele><time>2026-03-29T12:50:28.999Z</time></trkpt><trkpt lat="45.6742283" lon="8.1744167"><ele>647.0</ele><time>2026-03-29T12:50:30Z</time></trkpt><trkpt lat="45.6740967" lon="8.1744433"><ele>647.0</ele><time>2026-03-29T12:50:31Z</time></trkpt><trkpt lat="45.6739917" lon="8.1743867"><ele>647.0</ele><time>2026-03-29T12:50:32Z</time></trkpt><trkpt lat="45.6739283" lon="8.1742833"><ele>647.0</ele><time>2026-03-29T12:50:33Z</time></trkpt><trkpt lat="45.6739083" lon="8.1741317"><ele>647.0</ele><time>2026-03-29T12:50:34Z</time></trkpt><trkpt lat="45.6739367" lon="8.1739667"><ele>647.0</ele><time>2026-03-29T12:50:35Z</time></trkpt><trkpt lat="45.6740667" lon="8.1737467"><ele>647.0</ele><time>2026-03-29T12:50:36Z</time></trkpt><trkpt lat="45.6741833" lon="8.17356"><ele>647.0</ele><time>2026-03-29T12:50:37Z</time></trkpt><trkpt lat="45.67428" lon="8.173395"><ele>647.0</ele><time>2026-03-29T12:50:37.999Z</time></trkpt><trkpt lat="45.6743767" lon="8.1732333"><ele>655.3333333333333</ele><time>2026-03-29T12:50:39Z</time></trkpt><trkpt lat="45.6745" lon="8.1730933"><ele>663.6666666666666</ele><time>2026-03-29T12:50:40Z</time></trkpt><trkpt lat="45.6746517" lon="8.1729333"><ele>672.0</ele><time>2026-03-29T12:50:41Z</time></trkpt><trkpt lat="45.67475" lon="8.1727817"><ele>672.0</ele><time>2026-03-29T12:50:41.999Z</time></trkpt><trkpt lat="45.6748017" lon="8.1726167"><ele>672.0</ele><time>2026-03-29T12:50:43Z</time></trkpt><trkpt lat="45.6747783" lon="8.172455"><ele>672.0</ele><time>2026-03-29T12:50:44Z</time></trkpt><trkpt lat="45.6746933" lon="8.172335"><ele>672.0</ele><time>2026-03-29T12:50:45Z</time></trkpt><trkpt lat="45.6745917" lon="8.1722417"><ele>674.0</ele><time>2026-03-29T12:50:46Z</time></trkpt><trkpt lat="45.6744917" lon="8.172135"><ele>676.0</ele><time>2026-03-29T12:50:47Z</time></trkpt><trkpt lat="45.6744083" lon="8.1719667"><ele>678.0</ele><time>2026-03-29T12:50:48Z</time></trkpt><trkpt lat="45.6743483" lon="8.1717333"><ele>680.0</ele><time>2026-03-29T12:50:49Z</time></trkpt><trkpt lat="45.6743083" lon="8.1715283"><ele>677.75</ele><time>2026-03-29T12:50:50Z</time></trkpt><trkpt lat="45.6742633" lon="8.1713167"><ele>675.5</ele><time>2026-03-29T12:50:51Z</time></trkpt><trkpt lat="45.6741983" lon="8.1711667"><ele>673.25</ele><time>2026-03-29T12:50:52Z</time></trkpt><trkpt lat="45.6741217" lon="8.1710817"><ele>671.0</ele><time>2026-03-29T12:50:53Z</time></trkpt><trkpt lat="45.67402" lon="8.1710683"><ele>671.0</ele><time>2026-03-29T12:50:54Z</time></trkpt><trkpt lat="45.67391" lon="8.1711483"><ele>671.0</ele><time>2026-03-29T12:50:55Z</time></trkpt><trkpt lat="45.6738217" lon="8.1712683"><ele>671.0</ele><time>2026-03-29T12:50:56Z</time></trkpt><trkpt lat="45.6737267" lon="8.1713633"><ele>671.0</ele><time>2026-03-29T12:50:57Z</time></trkpt><trkpt lat="45.67365" lon="8.1714483"><ele>668.0</ele><time>2026-03-29T12:50:58Z</time></trkpt><trkpt lat="45.673575" lon="8.1714483"><ele>665.0</ele><time>2026-03-29T12:50:58.999Z</time></trkpt><trkpt lat="45.6735" lon="8.1713467"><ele>662.0</ele><time>2026-03-29T12:51:00Z</time></trkpt><trkpt lat="45.6734867" lon="8.1711567"><ele>659.0</ele><time>2026-03-29T12:51:01Z</time></trkpt><trkpt lat="45.6735083" lon="8.1709417"><ele>659.0</ele><time>2026-03-29T12:51:02Z</time></trkpt><trkpt lat="45.6735667" lon="8.1707267"><ele>659.0</ele><time>2026-03-29T12:51:03Z</time></trkpt><trkpt lat="45.673615" lon="8.17052"><ele>659.0</ele><time>2026-03-29T12:51:04Z</time></trkpt><trkpt lat="45.6736617" lon="8.1703333"><ele>663.5</ele><time>2026-03-29T12:51:05Z</time></trkpt><trkpt lat="45.6736983" lon="8.170155"><ele>668.0</ele><time>2026-03-29T12:51:06Z</time></trkpt><trkpt lat="45.6737467" lon="8.17"><ele>672.5</ele><time>2026-03-29T12:51:07Z</time></trkpt><trkpt lat="45.67381" lon="8.1698633"><ele>677.0</ele><time>2026-03-29T12:51:08Z</time></trkpt><trkpt lat="45.67388" lon="8.1697117"><ele>677.0</ele><time>2026-03-29T12:51:09Z</time></trkpt><trkpt lat="45.67395" lon="8.1695483"><ele>677.0</ele><time>2026-03-29T12:51:09.999Z</time></trkpt><trkpt lat="45.6739983" lon="8.1693733"><ele>677.0</ele><time>2026-03-29T12:51:10.999Z</time></trkpt><trkpt lat="45.6740283" lon="8.1691933"><ele>677.0</ele><time>2026-03-29T12:51:12Z</time></trkpt><trkpt lat="45.67406" lon="8.1690233"><ele>676.0</ele><time>2026-03-29T12:51:12.999Z</time></trkpt><trkpt lat="45.6741433" lon="8.1688783"><ele>675.0</ele><time>2026-03-29T12:51:14Z</time></trkpt><trkpt lat="45.6742267" lon="8.1686883"><ele>674.0</ele><time>2026-03-29T12:51:15Z</time></trkpt><trkpt lat="45.67432" lon="8.1684867"><ele>678.6666666666666</ele><time>2026-03-29T12:51:16Z</time></trkpt><trkpt lat="45.67444" lon="8.16832"><ele>683.3333333333334</ele><time>2026-03-29T12:51:17Z</time></trkpt><trkpt lat="45.6745733" lon="8.1682167"><ele>688.0</ele><time>2026-03-29T12:51:18Z</time></trkpt><trkpt lat="45.6747217" lon="8.1681317"><ele>688.0</ele><time>2026-03-29T12:51:18.999Z</time></trkpt><trkpt lat="45.67485" lon="8.168025"><ele>688.0</ele><time>2026-03-29T12:51:20Z</time></trkpt><trkpt lat="45.6749433" lon="8.1678583"><ele>688.0</ele><time>2026-03-29T12:51:21Z</time></trkpt><trkpt lat="45.6750167" lon="8.1676283"><ele>688.5</ele><time>2026-03-29T12:51:22Z</time></trkpt><trkpt lat="45.6750867" lon="8.16733"><ele>689.0</ele><time>2026-03-29T12:51:23Z</time></trkpt><trkpt lat="45.6751883" lon="8.16699"><ele>696.5</ele><time>2026-03-29T12:51:23.999Z</time></trkpt><trkpt lat="45.6752933" lon="8.1666617"><ele>704.0</ele><time>2026-03-29T12:51:25Z</time></trkpt><trkpt lat="45.67538" lon="8.166365"><ele>704.75</ele><time>2026-03-29T12:51:25.999Z</time></trkpt><trkpt lat="45.6754567" lon="8.166125"><ele>705.5</ele><time>2026-03-29T12:51:26.999Z</time></trkpt><trkpt lat="45.6755083" lon="8.16595"><ele>706.25</ele><time>2026-03-29T12:51:27.999Z</time></trkpt><trkpt lat="45.6755383" lon="8.1658117"><ele>707.0</ele><time>2026-03-29T12:51:28.999Z</time></trkpt><trkpt lat="45.6755067" lon="8.1656933"><ele>706.2</ele><time>2026-03-29T12:51:29.999Z</time></trkpt><trkpt lat="45.6754517" lon="8.1655983"><ele>705.4000000000001</ele><time>2026-03-29T12:51:30.999Z</time></trkpt><trkpt lat="45.6753817" lon="8.1655567"><ele>704.5999999999999</ele><time>2026-03-29T12:51:32Z</time></trkpt><trkpt lat="45.6752833" lon="8.1655633"><ele>703.8</ele><time>2026-03-29T12:51:33Z</time></trkpt><trkpt lat="45.675165" lon="8.16565"><ele>703.0</ele><time>2026-03-29T12:51:34Z</time></trkpt><trkpt lat="45.6750067" lon="8.1657733"><ele>703.0</ele><time>2026-03-29T12:51:35Z</time></trkpt><trkpt lat="45.6747917" lon="8.165915"><ele>703.0</ele><time>2026-03-29T12:51:35.999Z</time></trkpt><trkpt lat="45.6745967" lon="8.1660233"><ele>703.0</ele><time>2026-03-29T12:51:36.999Z</time></trkpt><trkpt lat="45.674425" lon="8.1661233"><ele>705.0</ele><time>2026-03-29T12:51:38Z</time></trkpt><trkpt lat="45.6742583" lon="8.1661733"><ele>707.0</ele><time>2026-03-29T12:51:38.999Z</time></trkpt><trkpt lat="45.674095" lon="8.166195"><ele>709.0</ele><time>2026-03-29T12:51:39.999Z</time></trkpt><trkpt lat="45.6739367" lon="8.1661933"><ele>709.0</ele><time>2026-03-29T12:51:40.999Z</time></trkpt><trkpt lat="45.6737833" lon="8.1661433"><ele>709.0</ele><time>2026-03-29T12:51:42Z</time></trkpt><trkpt lat="45.6736567" lon="8.1660533"><ele>709.0</ele><time>2026-03-29T12:51:43Z</time></trkpt><trkpt lat="45.6735783" lon="8.165925"><ele>709.0</ele><time>2026-03-29T12:51:43.999Z</time></trkpt><trkpt lat="45.6735383" lon="8.1657717"><ele>709.0</ele><time>2026-03-29T12:51:44.999Z</time></trkpt><trkpt lat="45.673535" lon="8.1655667"><ele>709.0</ele><time>2026-03-29T12:51:46Z</time></trkpt><trkpt lat="45.6735483" lon="8.1653183"><ele>709.0</ele><time>2026-03-29T12:51:46.999Z</time></trkpt><trkpt lat="45.673565" lon="8.1650467"><ele>711.3333333333334</ele><time>2026-03-29T12:51:48Z</time></trkpt><trkpt lat="45.67359" lon="8.164775"><ele>713.6666666666666</ele><time>2026-03-29T12:51:49Z</time></trkpt><trkpt lat="45.67364" lon="8.1645167"><ele>716.0</ele><time>2026-03-29T12:51:50Z</time></trkpt><trkpt lat="45.6736983" lon="8.1642833"><ele>719.0</ele><time>2026-03-29T12:51:51Z</time></trkpt><trkpt lat="45.6737733" lon="8.1640967"><ele>722.0</ele><time>2026-03-29T12:51:52Z</time></trkpt><trkpt lat="45.6738167" lon="8.163935"><ele>725.0</ele><time>2026-03-29T12:51:53Z</time></trkpt><trkpt lat="45.673805" lon="8.163815"><ele>728.0</ele><time>2026-03-29T12:51:54Z</time></trkpt><trkpt lat="45.673745" lon="8.1637083"><ele>727.75</ele><time>2026-03-29T12:51:55Z</time></trkpt><trkpt lat="45.67367" lon="8.1636467"><ele>727.5</ele><time>2026-03-29T12:51:55.999Z</time></trkpt><trkpt lat="45.67356" lon="8.163645"><ele>727.25</ele><time>2026-03-29T12:51:57Z</time></trkpt><trkpt lat="45.6734533" lon="8.1636333"><ele>727.0</ele><time>2026-03-29T12:51:58Z</time></trkpt><trkpt lat="45.6732867" lon="8.16366"><ele>727.0</ele><time>2026-03-29T12:51:58.999Z</time></trkpt><trkpt lat="45.6731167" lon="8.16366"><ele>727.0</ele><time>2026-03-29T12:52:00Z</time></trkpt><trkpt lat="45.6729367" lon="8.1636067"><ele>727.0</ele><time>2026-03-29T12:52:00.999Z</time></trkpt><trkpt lat="45.672765" lon="8.1634717"><ele>724.6666666666667</ele><time>2026-03-29T12:52:02Z</time></trkpt><trkpt lat="45.6726017" lon="8.16331"><ele>722.3333333333334</ele><time>2026-03-29T12:52:03Z</time></trkpt><trkpt lat="45.67242" lon="8.1631517"><ele>720.0</ele><time>2026-03-29T12:52:04Z</time></trkpt><trkpt lat="45.672255" lon="8.1629933"><ele>720.0</ele><time>2026-03-29T12:52:05Z</time></trkpt><trkpt lat="45.6721033" lon="8.16281"><ele>720.0</ele><time>2026-03-29T12:52:06Z</time></trkpt><trkpt lat="45.6719483" lon="8.1626217"><ele>720.0</ele><time>2026-03-29T12:52:07Z</time></trkpt><trkpt lat="45.6718067" lon="8.1624267"><ele>724.6666666666666</ele><time>2026-03-29T12:52:08Z</time></trkpt><trkpt lat="45.6716883" lon="8.16222"><ele>729.3333333333333</ele><time>2026-03-29T12:52:09Z</time></trkpt><trkpt lat="45.6715567" lon="8.1620033"><ele>734.0</ele><time>2026-03-29T12:52:09.999Z</time></trkpt><trkpt lat="45.6714383" lon="8.1618033"><ele>734.0</ele><time>2026-03-29T12:52:11Z</time></trkpt><trkpt lat="45.671345" lon="8.161545"><ele>734.0</ele><time>2026-03-29T12:52:12Z</time></trkpt><trkpt lat="45.6712283" lon="8.161325"><ele>734.0</ele><time>2026-03-29T12:52:13Z</time></trkpt><trkpt lat="45.6710967" lon="8.1611717"><ele>737.6666666666666</ele><time>2026-03-29T12:52:14Z</time></trkpt><trkpt lat="45.670935" lon="8.1610783"><ele>741.3333333333334</ele><time>2026-03-29T12:52:14.999Z</time></trkpt><trkpt lat="45.6707617" lon="8.1610383"><ele>745.0</ele><time>2026-03-29T12:52:15.999Z</time></trkpt><trkpt lat="45.67059" lon="8.1610133"><ele>745.0</ele><time>2026-03-29T12:52:17Z</time></trkpt><trkpt lat="45.6704217" lon="8.1610033"><ele>745.0</ele><time>2026-03-29T12:52:18Z</time></trkpt><trkpt lat="45.670255" lon="8.161005"><ele>745.0</ele><time>2026-03-29T12:52:19Z</time></trkpt><trkpt lat="45.6701233" lon="8.1610383"><ele>744.25</ele><time>2026-03-29T12:52:20Z</time></trkpt><trkpt lat="45.6700083" lon="8.1611233"><ele>743.5</ele><time>2026-03-29T12:52:21Z</time></trkpt><trkpt lat="45.6699317" lon="8.1612867"><ele>742.75</ele><time>2026-03-29T12:52:21.999Z</time></trkpt><trkpt lat="45.6698583" lon="8.1614317"><ele>742.0</ele><time>2026-03-29T12:52:22.999Z</time></trkpt><trkpt lat="45.6697733" lon="8.16154"><ele>742.0</ele><time>2026-03-29T12:52:24Z</time></trkpt><trkpt lat="45.6696883" lon="8.1616283"><ele>742.0</ele><time>2026-03-29T12:52:24.999Z</time></trkpt><trkpt lat="45.6695833" lon="8.1616833"><ele>742.0</ele><time>2026-03-29T12:52:26Z</time></trkpt><trkpt lat="45.6694733" lon="8.1617083"><ele>742.0</ele><time>2026-03-29T12:52:27Z</time></trkpt><trkpt lat="45.6693533" lon="8.161685"><ele>742.0</ele><time>2026-03-29T12:52:28Z</time></trkpt><trkpt lat="45.6692533" lon="8.1616767"><ele>741.25</ele><time>2026-03-29T12:52:29Z</time></trkpt><trkpt lat="45.6691417" lon="8.1615917"><ele>740.5</ele><time>2026-03-29T12:52:30Z</time></trkpt><trkpt lat="45.669035" lon="8.1615217"><ele>739.75</ele><time>2026-03-29T12:52:31Z</time></trkpt><trkpt lat="45.6690017" lon="8.1613367"><ele>739.0</ele><time>2026-03-29T12:52:32Z</time></trkpt><trkpt lat="45.6689967" lon="8.1610867"><ele>742.0</ele><time>2026-03-29T12:52:33Z</time></trkpt><trkpt lat="45.6689683" lon="8.1608317"><ele>745.0</ele><time>2026-03-29T12:52:34Z</time></trkpt><trkpt lat="45.6689367" lon="8.1605633"><ele>748.0</ele><time>2026-03-29T12:52:35Z</time></trkpt><trkpt lat="45.6689017" lon="8.1602817"><ele>748.6666666666667</ele><time>2026-03-29T12:52:36Z</time></trkpt><trkpt lat="45.668875" lon="8.160015"><ele>749.3333333333334</ele><time>2026-03-29T12:52:37Z</time></trkpt><trkpt lat="45.668845" lon="8.1597733"><ele>750.0</ele><time>2026-03-29T12:52:37.999Z</time></trkpt><trkpt lat="45.6688233" lon="8.1595567"><ele>752.6666666666666</ele><time>2026-03-29T12:52:39Z</time></trkpt><trkpt lat="45.668815" lon="8.159355"><ele>755.3333333333333</ele><time>2026-03-29T12:52:39.999Z</time></trkpt><trkpt lat="45.6688467" lon="8.1591367"><ele>758.0</ele><time>2026-03-29T12:52:41Z</time></trkpt><trkpt lat="45.6688917" lon="8.1589167"><ele>758.3333333333333</ele><time>2026-03-29T12:52:42Z</time></trkpt><trkpt lat="45.6689467" lon="8.158715"><ele>758.6666666666666</ele><time>2026-03-29T12:52:42.999Z</time></trkpt><trkpt lat="45.6690317" lon="8.15849"><ele>759.0</ele><time>2026-03-29T12:52:44Z</time></trkpt><trkpt lat="45.6691" lon="8.1582983"><ele>759.0</ele><time>2026-03-29T12:52:44.999Z</time></trkpt><trkpt lat="45.66917" lon="8.1581467"><ele>759.0</ele><time>2026-03-29T12:52:46Z</time></trkpt><trkpt lat="45.6691833" lon="8.158"><ele>759.0</ele><time>2026-03-29T12:52:47Z</time></trkpt><trkpt lat="45.669175" lon="8.1578783"><ele>759.0</ele><time>2026-03-29T12:52:48Z</time></trkpt><trkpt lat="45.6691217" lon="8.1577817"><ele>759.0</ele><time>2026-03-29T12:52:49Z</time></trkpt><trkpt lat="45.66907" lon="8.157695"><ele>759.0</ele><time>2026-03-29T12:52:50Z</time></trkpt><trkpt lat="45.669015" lon="8.15758"><ele>759.0</ele><time>2026-03-29T12:52:52Z</time></trkpt><trkpt lat="45.66915" lon="8.1576767"><ele>759.0</ele><time>2026-03-29T12:52:55Z</time></trkpt><trkpt lat="45.669255" lon="8.1578067"><ele>759.0</ele><time>2026-03-29T12:52:56Z</time></trkpt><trkpt lat="45.6693783" lon="8.1579667"><ele>761.5</ele><time>2026-03-29T12:52:57Z</time></trkpt><trkpt lat="45.66951" lon="8.15812"><ele>764.0</ele><time>2026-03-29T12:52:57.999Z</time></trkpt><trkpt lat="45.6696267" lon="8.1582383"><ele>766.5</ele><time>2026-03-29T12:52:59Z</time></trkpt><trkpt lat="45.6697483" lon="8.158315"><ele>769.0</ele><time>2026-03-29T12:53:00Z</time></trkpt><trkpt lat="45.66988" lon="8.1583467"><ele>769.0</ele><time>2026-03-29T12:53:01Z</time></trkpt><trkpt lat="45.6700233" lon="8.1583433"><ele>769.0</ele><time>2026-03-29T12:53:01.999Z</time></trkpt><trkpt lat="45.6701533" lon="8.158315"><ele>769.0</ele><time>2026-03-29T12:53:03Z</time></trkpt><trkpt lat="45.670275" lon="8.1582733"><ele>769.0</ele><time>2026-03-29T12:53:04Z</time></trkpt><trkpt lat="45.6703833" lon="8.1582617"><ele>768.6</ele><time>2026-03-29T12:53:05Z</time></trkpt><trkpt lat="45.6704883" lon="8.1582417"><ele>768.2</ele><time>2026-03-29T12:53:06Z</time></trkpt><trkpt lat="45.6705633" lon="8.1582467"><ele>767.8000000000001</ele><time>2026-03-29T12:53:07Z</time></trkpt><trkpt lat="45.6706667" lon="8.1581967"><ele>767.4000000000001</ele><time>2026-03-29T12:53:09Z</time></trkpt><trkpt lat="45.6706567" lon="8.158055"><ele>767.0</ele><time>2026-03-29T12:53:10.999Z</time></trkpt><trkpt lat="45.6706033" lon="8.1579733"><ele>769.25</ele><time>2026-03-29T12:53:12Z</time></trkpt><trkpt lat="45.67052" lon="8.15791"><ele>771.5</ele><time>2026-03-29T12:53:12.999Z</time></trkpt><trkpt lat="45.6704117" lon="8.1578367"><ele>773.75</ele><time>2026-03-29T12:53:14Z</time></trkpt><trkpt lat="45.670255" lon="8.15776"><ele>776.0</ele><time>2026-03-29T12:53:14.999Z</time></trkpt><trkpt lat="45.6701017" lon="8.1576283"><ele>776.0000000000001</ele><time>2026-03-29T12:53:16Z</time></trkpt><trkpt lat="45.669985" lon="8.1575333"><ele>776.0</ele><time>2026-03-29T12:53:17Z</time></trkpt><trkpt lat="45.66993" lon="8.15744"><ele>776.0</ele><time>2026-03-29T12:53:18Z</time></trkpt><trkpt lat="45.66995" lon="8.15734"><ele>776.0</ele><time>2026-03-29T12:53:19Z</time></trkpt><trkpt lat="45.6700067" lon="8.1572817"><ele>776.0000000000001</ele><time>2026-03-29T12:53:19.999Z</time></trkpt><trkpt lat="45.67008" lon="8.157265"><ele>776.0</ele><time>2026-03-29T12:53:21Z</time></trkpt><trkpt lat="45.670205" lon="8.15731"><ele>778.3333333333334</ele><time>2026-03-29T12:53:22Z</time></trkpt><trkpt lat="45.670365" lon="8.1573683"><ele>780.6666666666667</ele><time>2026-03-29T12:53:22.999Z</time></trkpt><trkpt lat="45.670535" lon="8.157425"><ele>783.0</ele><time>2026-03-29T12:53:24Z</time></trkpt><trkpt lat="45.6706817" lon="8.157465"><ele>783.0</ele><time>2026-03-29T12:53:25Z</time></trkpt><trkpt lat="45.6708183" lon="8.1574683"><ele>783.0</ele><time>2026-03-29T12:53:26Z</time></trkpt><trkpt lat="45.670965" lon="8.1574283"><ele>783.0</ele><time>2026-03-29T12:53:27Z</time></trkpt><trkpt lat="45.6711167" lon="8.1573633"><ele>783.0</ele><time>2026-03-29T12:53:28Z</time></trkpt><trkpt lat="45.6712883" lon="8.1572283"><ele>790.6666666666667</ele><time>2026-03-29T12:53:28.999Z</time></trkpt><trkpt lat="45.6714667" lon="8.1571383"><ele>798.3333333333334</ele><time>2026-03-29T12:53:29.999Z</time></trkpt><trkpt lat="45.6716583" lon="8.1570883"><ele>806.0</ele><time>2026-03-29T12:53:31Z</time></trkpt><trkpt lat="45.67184" lon="8.15706"><ele>808.6666666666667</ele><time>2026-03-29T12:53:31.999Z</time></trkpt><trkpt lat="45.6720167" lon="8.1570383"><ele>811.3333333333333</ele><time>2026-03-29T12:53:33Z</time></trkpt><trkpt lat="45.67218" lon="8.15707"><ele>814.0</ele><time>2026-03-29T12:53:33.999Z</time></trkpt><trkpt lat="45.6723317" lon="8.1571617"><ele>814.0</ele><time>2026-03-29T12:53:34.999Z</time></trkpt><trkpt lat="45.6724633" lon="8.1572883"><ele>814.0</ele><time>2026-03-29T12:53:36Z</time></trkpt><trkpt lat="45.6725683" lon="8.1574767"><ele>814.0</ele><time>2026-03-29T12:53:37Z</time></trkpt><trkpt lat="45.6726583" lon="8.1577183"><ele>819.3333333333333</ele><time>2026-03-29T12:53:38Z</time></trkpt><trkpt lat="45.6727517" lon="8.1579367"><ele>824.6666666666667</ele><time>2026-03-29T12:53:39Z</time></trkpt><trkpt lat="45.6728633" lon="8.1581883"><ele>830.0</ele><time>2026-03-29T12:53:40Z</time></trkpt><trkpt lat="45.6729867" lon="8.1584267"><ele>830.0</ele><time>2026-03-29T12:53:40.999Z</time></trkpt><trkpt lat="45.6730883" lon="8.1586183"><ele>830.0</ele><time>2026-03-29T12:53:42Z</time></trkpt><trkpt lat="45.6731633" lon="8.1588067"><ele>830.0</ele><time>2026-03-29T12:53:42.999Z</time></trkpt><trkpt lat="45.6732183" lon="8.1589733"><ele>830.0</ele><time>2026-03-29T12:53:44Z</time></trkpt><trkpt lat="45.6732817" lon="8.159105"><ele>830.0000000000001</ele><time>2026-03-29T12:53:45Z</time></trkpt><trkpt lat="45.6733633" lon="8.1591717"><ele>830.0</ele><time>2026-03-29T12:53:46Z</time></trkpt><trkpt lat="45.6734433" lon="8.15919"><ele>830.0</ele><time>2026-03-29T12:53:47Z</time></trkpt><trkpt lat="45.67349" lon="8.1591217"><ele>830.0</ele><time>2026-03-29T12:53:48Z</time></trkpt><trkpt lat="45.6735067" lon="8.15901"><ele>830.0000000000001</ele><time>2026-03-29T12:53:49Z</time></trkpt><trkpt lat="45.6734833" lon="8.1588833"><ele>830.0</ele><time>2026-03-29T12:53:49.999Z</time></trkpt><trkpt lat="45.6734267" lon="8.1587317"><ele>830.0</ele><time>2026-03-29T12:53:51Z</time></trkpt><trkpt lat="45.6733483" lon="8.1585633"><ele>830.0</ele><time>2026-03-29T12:53:51.999Z</time></trkpt><trkpt lat="45.6732633" lon="8.1583667"><ele>830.0</ele><time>2026-03-29T12:53:52.999Z</time></trkpt><trkpt lat="45.6731767" lon="8.1580883"><ele>836.0</ele><time>2026-03-29T12:53:54Z</time></trkpt><trkpt lat="45.67311" lon="8.1578783"><ele>842.0</ele><time>2026-03-29T12:53:55Z</time></trkpt><trkpt lat="45.6730717" lon="8.1576483"><ele>848.0</ele><time>2026-03-29T12:53:56Z</time></trkpt><trkpt lat="45.6730583" lon="8.1574033"><ele>848.3333333333334</ele><time>2026-03-29T12:53:57Z</time></trkpt><trkpt lat="45.6730633" lon="8.1571617"><ele>848.6666666666667</ele><time>2026-03-29T12:53:58Z</time></trkpt><trkpt lat="45.6730867" lon="8.15693"><ele>849.0</ele><time>2026-03-29T12:53:59Z</time></trkpt><trkpt lat="45.67313" lon="8.1567133"><ele>848.6666666666667</ele><time>2026-03-29T12:54:00Z</time></trkpt><trkpt lat="45.6732467" lon="8.15648"><ele>848.3333333333334</ele><time>2026-03-29T12:54:00.999Z</time></trkpt><trkpt lat="45.6733783" lon="8.1562333"><ele>848.0</ele><time>2026-03-29T12:54:02Z</time></trkpt><trkpt lat="45.6734933" lon="8.15599"><ele>848.0</ele><time>2026-03-29T12:54:03Z</time></trkpt><trkpt lat="45.6735883" lon="8.1557883"><ele>848.0</ele><time>2026-03-29T12:54:04Z</time></trkpt><trkpt lat="45.6736483" lon="8.1555883"><ele>848.0</ele><time>2026-03-29T12:54:05Z</time></trkpt><trkpt lat="45.6736583" lon="8.1553983"><ele>853.5999999999999</ele><time>2026-03-29T12:54:06Z</time></trkpt><trkpt lat="45.6736433" lon="8.155225"><ele>859.1999999999999</ele><time>2026-03-29T12:54:07Z</time></trkpt><trkpt lat="45.673655" lon="8.155085"><ele>864.8</ele><time>2026-03-29T12:54:08Z</time></trkpt><trkpt lat="45.6736833" lon="8.154995"><ele>870.4</ele><time>2026-03-29T12:54:09Z</time></trkpt><trkpt lat="45.67378" lon="8.154895"><ele>876.0</ele><time>2026-03-29T12:54:10.999Z</time></trkpt><trkpt lat="45.6738433" lon="8.1549867"><ele>876.0</ele><time>2026-03-29T12:54:12Z</time></trkpt><trkpt lat="45.673895" lon="8.1550717"><ele>875.9999999999999</ele><time>2026-03-29T12:54:13Z</time></trkpt><trkpt lat="45.6739167" lon="8.155185"><ele>875.9999999999999</ele><time>2026-03-29T12:54:13.999Z</time></trkpt><trkpt lat="45.6739033" lon="8.15532"><ele>876.0</ele><time>2026-03-29T12:54:15Z</time></trkpt><trkpt lat="45.6737983" lon="8.155535"><ele>876.0</ele><time>2026-03-29T12:54:15.999Z</time></trkpt><trkpt lat="45.673725" lon="8.1557567"><ele>878.3333333333333</ele><time>2026-03-29T12:54:17Z</time></trkpt><trkpt lat="45.6736517" lon="8.1560333"><ele>880.6666666666666</ele><time>2026-03-29T12:54:18Z</time></trkpt><trkpt lat="45.6735917" lon="8.1563583"><ele>883.0</ele><time>2026-03-29T12:54:19Z</time></trkpt><trkpt lat="45.6735417" lon="8.15666"><ele>871.6666666666666</ele><time>2026-03-29T12:54:20Z</time></trkpt><trkpt lat="45.6734967" lon="8.1569133"><ele>860.3333333333333</ele><time>2026-03-29T12:54:21Z</time></trkpt><trkpt lat="45.6734733" lon="8.1571417"><ele>849.0</ele><time>2026-03-29T12:54:22Z</time></trkpt><trkpt lat="45.6734917" lon="8.157365"><ele>848.6666666666667</ele><time>2026-03-29T12:54:23Z</time></trkpt><trkpt lat="45.673555" lon="8.1576"><ele>848.3333333333334</ele><time>2026-03-29T12:54:24Z</time></trkpt><trkpt lat="45.6736667" lon="8.1578267"><ele>848.0</ele><time>2026-03-29T12:54:25Z</time></trkpt><trkpt lat="45.6737833" lon="8.1580267"><ele>852.5</ele><time>2026-03-29T12:54:26Z</time></trkpt><trkpt lat="45.6738883" lon="8.15822"><ele>857.0</ele><time>2026-03-29T12:54:27Z</time></trkpt><trkpt lat="45.6739933" lon="8.1583633"><ele>861.5</ele><time>2026-03-29T12:54:28Z</time></trkpt><trkpt lat="45.6740783" lon="8.1584117"><ele>866.0</ele><time>2026-03-29T12:54:29Z</time></trkpt><trkpt lat="45.6741583" lon="8.1583617"><ele>866.0</ele><time>2026-03-29T12:54:30Z</time></trkpt><trkpt lat="45.6742083" lon="8.1582567"><ele>865.9999999999999</ele><time>2026-03-29T12:54:30.999Z</time></trkpt><trkpt lat="45.6742183" lon="8.1581183"><ele>865.9999999999999</ele><time>2026-03-29T12:54:32Z</time></trkpt><trkpt lat="45.6741833" lon="8.1580033"><ele>866.0</ele><time>2026-03-29T12:54:33Z</time></trkpt><trkpt lat="45.6741183" lon="8.1578917"><ele>866.0</ele><time>2026-03-29T12:54:34Z</time></trkpt><trkpt lat="45.67404" lon="8.1577717"><ele>873.25</ele><time>2026-03-29T12:54:35Z</time></trkpt><trkpt lat="45.673965" lon="8.15761"><ele>880.5</ele><time>2026-03-29T12:54:36Z</time></trkpt><trkpt lat="45.6738917" lon="8.15743"><ele>887.75</ele><time>2026-03-29T12:54:37Z</time></trkpt><trkpt lat="45.673835" lon="8.1572567"><ele>895.0</ele><time>2026-03-29T12:54:38Z</time></trkpt><trkpt lat="45.6738067" lon="8.15708"><ele>895.6666666666666</ele><time>2026-03-29T12:54:39Z</time></trkpt><trkpt lat="45.673845" lon="8.1568767"><ele>896.3333333333333</ele><time>2026-03-29T12:54:39.999Z</time></trkpt><trkpt lat="45.67391" lon="8.1566583"><ele>897.0</ele><time>2026-03-29T12:54:41Z</time></trkpt><trkpt lat="45.6739917" lon="8.1564383"><ele>892.3333333333333</ele><time>2026-03-29T12:54:42Z</time></trkpt><trkpt lat="45.6740883" lon="8.1562233"><ele>887.6666666666666</ele><time>2026-03-29T12:54:43Z</time></trkpt><trkpt lat="45.6742133" lon="8.1560217"><ele>883.0</ele><time>2026-03-29T12:54:44Z</time></trkpt><trkpt lat="45.674365" lon="8.155825"><ele>889.3333333333333</ele><time>2026-03-29T12:54:45Z</time></trkpt><trkpt lat="45.6744767" lon="8.15561"><ele>895.6666666666667</ele><time>2026-03-29T12:54:46Z</time></trkpt><trkpt lat="45.6745967" lon="8.1554033"><ele>902.0</ele><time>2026-03-29T12:54:46.999Z</time></trkpt><trkpt lat="45.67469" lon="8.155235"><ele>902.0</ele><time>2026-03-29T12:54:48Z</time></trkpt><trkpt lat="45.674815" lon="8.155105"><ele>902.0</ele><time>2026-03-29T12:54:49Z</time></trkpt><trkpt lat="45.67492" lon="8.155025"><ele>902.0</ele><time>2026-03-29T12:54:49.999Z</time></trkpt><trkpt lat="45.6750383" lon="8.1549733"><ele>902.0</ele><time>2026-03-29T12:54:51Z</time></trkpt><trkpt lat="45.6751433" lon="8.1549433"><ele>902.0000000000001</ele><time>2026-03-29T12:54:52Z</time></trkpt><trkpt lat="45.6752217" lon="8.1549183"><ele>902.0</ele><time>2026-03-29T12:54:53Z</time></trkpt><trkpt lat="45.6752917" lon="8.1548867"><ele>902.0</ele><time>2026-03-29T12:54:54Z</time></trkpt><trkpt lat="45.6753717" lon="8.1548567"><ele>902.0</ele><time>2026-03-29T12:54:54.999Z</time></trkpt><trkpt lat="45.67544" lon="8.1548183"><ele>902.0000000000001</ele><time>2026-03-29T12:54:56Z</time></trkpt><trkpt lat="45.6755167" lon="8.154785"><ele>902.0</ele><time>2026-03-29T12:54:57Z</time></trkpt><trkpt lat="45.67558" lon="8.1547317"><ele>905.5000000000001</ele><time>2026-03-29T12:54:58Z</time></trkpt><trkpt lat="45.6756467" lon="8.1547117"><ele>909.0</ele><time>2026-03-29T12:54:58.999Z</time></trkpt><trkpt lat="45.6757083" lon="8.1546917"><ele>912.5</ele><time>2026-03-29T12:55:00Z</time></trkpt><trkpt lat="45.675745" lon="8.1545983"><ele>916.0</ele><time>2026-03-29T12:55:02Z</time></trkpt><trkpt lat="45.67566" lon="8.154445"><ele>919.5000000000001</ele><time>2026-03-29T12:55:04Z</time></trkpt><trkpt lat="45.67562" lon="8.154305"><ele>923.0</ele><time>2026-03-29T12:55:04.999Z</time></trkpt><trkpt lat="45.6755983" lon="8.154195"><ele>923.0</ele><time>2026-03-29T12:55:06Z</time></trkpt><trkpt lat="45.675615" lon="8.1540667"><ele>923.0</ele><time>2026-03-29T12:55:06.999Z</time></trkpt><trkpt lat="45.6756267" lon="8.15395"><ele>923.0</ele><time>2026-03-29T12:55:08Z</time></trkpt><trkpt lat="45.6756533" lon="8.1537917"><ele>923.0</ele><time>2026-03-29T12:55:09Z</time></trkpt><trkpt lat="45.6756417" lon="8.1536383"><ele>923.0</ele><time>2026-03-29T12:55:10Z</time></trkpt><trkpt lat="45.6756083" lon="8.1535117"><ele>924.8</ele><time>2026-03-29T12:55:10.999Z</time></trkpt><trkpt lat="45.6755883" lon="8.15339"><ele>926.5999999999999</ele><time>2026-03-29T12:55:12Z</time></trkpt><trkpt lat="45.67556" lon="8.1532833"><ele>928.4000000000001</ele><time>2026-03-29T12:55:12.999Z</time></trkpt><trkpt lat="45.675525" lon="8.1531783"><ele>930.2</ele><time>2026-03-29T12:55:13.999Z</time></trkpt><trkpt lat="45.67547" lon="8.1530383"><ele>932.0</ele><time>2026-03-29T12:55:15.999Z</time></trkpt><trkpt lat="45.67553" lon="8.15288"><ele>932.0</ele><time>2026-03-29T12:55:17.999Z</time></trkpt><trkpt lat="45.6755783" lon="8.15282"><ele>932.0</ele><time>2026-03-29T12:55:19Z</time></trkpt><trkpt lat="45.67569" lon="8.15284"><ele>932.0</ele><time>2026-03-29T12:55:20.999Z</time></trkpt><trkpt lat="45.6757433" lon="8.1529417"><ele>932.0</ele><time>2026-03-29T12:55:22Z</time></trkpt><trkpt lat="45.6757767" lon="8.1530817"><ele>932.0</ele><time>2026-03-29T12:55:23Z</time></trkpt><trkpt lat="45.67578" lon="8.1532483"><ele>932.0</ele><time>2026-03-29T12:55:24Z</time></trkpt><trkpt lat="45.6757683" lon="8.1534333"><ele>932.0</ele><time>2026-03-29T12:55:25Z</time></trkpt><trkpt lat="45.6757667" lon="8.1536133"><ele>932.0</ele><time>2026-03-29T12:55:26Z</time></trkpt><trkpt lat="45.67576" lon="8.15378"><ele>932.0</ele><time>2026-03-29T12:55:27Z</time></trkpt><trkpt lat="45.6757717" lon="8.1539233"><ele>930.2</ele><time>2026-03-29T12:55:28Z</time></trkpt><trkpt lat="45.6757933" lon="8.1540583"><ele>928.4000000000001</ele><time>2026-03-29T12:55:29Z</time></trkpt><trkpt lat="45.67584" lon="8.154195"><ele>926.5999999999999</ele><time>2026-03-29T12:55:30Z</time></trkpt><trkpt lat="45.6758933" lon="8.1543217"><ele>924.8</ele><time>2026-03-29T12:55:30.999Z</time></trkpt><trkpt lat="45.67597" lon="8.1544433"><ele>923.0</ele><time>2026-03-29T12:55:32Z</time></trkpt><trkpt lat="45.6760617" lon="8.1545667"><ele>931.25</ele><time>2026-03-29T12:55:33Z</time></trkpt><trkpt lat="45.6761467" lon="8.1546933"><ele>939.5</ele><time>2026-03-29T12:55:34Z</time></trkpt><trkpt lat="45.6762217" lon="8.154835"><ele>947.75</ele><time>2026-03-29T12:55:35Z</time></trkpt><trkpt lat="45.6763" lon="8.1549983"><ele>956.0</ele><time>2026-03-29T12:55:36Z</time></trkpt><trkpt lat="45.6763567" lon="8.1551683"><ele>956.0</ele><time>2026-03-29T12:55:37Z</time></trkpt><trkpt lat="45.6763983" lon="8.15536"><ele>956.0</ele><time>2026-03-29T12:55:38Z</time></trkpt><trkpt lat="45.6764267" lon="8.1555367"><ele>956.0</ele><time>2026-03-29T12:55:38.999Z</time></trkpt><trkpt lat="45.676415" lon="8.1557033"><ele>956.0</ele><time>2026-03-29T12:55:39.999Z</time></trkpt><trkpt lat="45.6763933" lon="8.155865"><ele>954.25</ele><time>2026-03-29T12:55:41Z</time></trkpt><trkpt lat="45.6763283" lon="8.15604"><ele>952.5</ele><time>2026-03-29T12:55:42Z</time></trkpt><trkpt lat="45.676225" lon="8.1561883"><ele>950.75</ele><time>2026-03-29T12:55:43Z</time></trkpt><trkpt lat="45.6761617" lon="8.1563283"><ele>949.0</ele><time>2026-03-29T12:55:43.999Z</time></trkpt><trkpt lat="45.6761483" lon="8.1564433"><ele>949.0</ele><time>2026-03-29T12:55:44.999Z</time></trkpt><trkpt lat="45.6761783" lon="8.156575"><ele>949.0</ele><time>2026-03-29T12:55:47Z</time></trkpt><trkpt lat="45.6762733" lon="8.1564533"><ele>949.0</ele><time>2026-03-29T12:55:49Z</time></trkpt><trkpt lat="45.67642" lon="8.1561967"><ele>949.0</ele><time>2026-03-29T12:55:49.999Z</time></trkpt><trkpt lat="45.6765433" lon="8.1559533"><ele>949.0</ele><time>2026-03-29T12:55:51Z</time></trkpt><trkpt lat="45.676675" lon="8.15573"><ele>949.0</ele><time>2026-03-29T12:55:52Z</time></trkpt><trkpt lat="45.676735" lon="8.1555617"><ele>950.75</ele><time>2026-03-29T12:55:53Z</time></trkpt><trkpt lat="45.6767533" lon="8.1553567"><ele>952.5</ele><time>2026-03-29T12:55:53.999Z</time></trkpt><trkpt lat="45.6767567" lon="8.1551567"><ele>954.25</ele><time>2026-03-29T12:55:54.999Z</time></trkpt><trkpt lat="45.6767033" lon="8.1549383"><ele>956.0</ele><time>2026-03-29T12:55:56Z</time></trkpt><trkpt lat="45.67663" lon="8.1547017"><ele>960.3333333333334</ele><time>2026-03-29T12:55:57Z</time></trkpt><trkpt lat="45.6765567" lon="8.1544283"><ele>964.6666666666667</ele><time>2026-03-29T12:55:58Z</time></trkpt><trkpt lat="45.676515" lon="8.1541733"><ele>969.0</ele><time>2026-03-29T12:55:58.999Z</time></trkpt><trkpt lat="45.676475" lon="8.1539333"><ele>970.5</ele><time>2026-03-29T12:55:59.999Z</time></trkpt><trkpt lat="45.6764567" lon="8.1537067"><ele>972.0</ele><time>2026-03-29T12:56:01Z</time></trkpt><trkpt lat="45.6764567" lon="8.153495"><ele>973.5</ele><time>2026-03-29T12:56:01.999Z</time></trkpt><trkpt lat="45.6764833" lon="8.1533017"><ele>975.0</ele><time>2026-03-29T12:56:02.999Z</time></trkpt><trkpt lat="45.6765817" lon="8.15309"><ele>975.0</ele><time>2026-03-29T12:56:03.999Z</time></trkpt><trkpt lat="45.67667" lon="8.1528517"><ele>975.0</ele><time>2026-03-29T12:56:04.998Z</time></trkpt><trkpt lat="45.676755" lon="8.1526217"><ele>975.0</ele><time>2026-03-29T12:56:05.999Z</time></trkpt><trkpt lat="45.676835" lon="8.1524117"><ele>979.25</ele><time>2026-03-29T12:56:06.999Z</time></trkpt><trkpt lat="45.6769267" lon="8.1522533"><ele>983.5</ele><time>2026-03-29T12:56:07.998Z</time></trkpt><trkpt lat="45.6769617" lon="8.152085"><ele>987.75</ele><time>2026-03-29T12:56:08.998Z</time></trkpt><trkpt lat="45.676945" lon="8.1519133"><ele>992.0</ele><time>2026-03-29T12:56:09.999Z</time></trkpt><trkpt lat="45.6769083" lon="8.1517617"><ele>992.0</ele><time>2026-03-29T12:56:10.998Z</time></trkpt><trkpt lat="45.676795" lon="8.1516667"><ele>992.0</ele><time>2026-03-29T12:56:11.999Z</time></trkpt><trkpt lat="45.6766467" lon="8.15162"><ele>992.0</ele><time>2026-03-29T12:56:12.999Z</time></trkpt><trkpt lat="45.6765233" lon="8.1515283"><ele>992.0</ele><time>2026-03-29T12:56:13.999Z</time></trkpt><trkpt lat="45.67639" lon="8.15144"><ele>994.25</ele><time>2026-03-29T12:56:14.999Z</time></trkpt><trkpt lat="45.676275" lon="8.1512583"><ele>996.5</ele><time>2026-03-29T12:56:15.998Z</time></trkpt><trkpt lat="45.6761883" lon="8.1510867"><ele>998.75</ele><time>2026-03-29T12:56:16.999Z</time></trkpt><trkpt lat="45.6761083" lon="8.1509617"><ele>1001.0</ele><time>2026-03-29T12:56:17.999Z</time></trkpt><trkpt lat="45.6760383" lon="8.1508217"><ele>1008.0</ele><time>2026-03-29T12:56:18.999Z</time></trkpt><trkpt lat="45.6759617" lon="8.1507067"><ele>1015.0</ele><time>2026-03-29T12:56:19.999Z</time></trkpt><trkpt lat="45.675865" lon="8.1506483"><ele>1022.0</ele><time>2026-03-29T12:56:20.999Z</time></trkpt><trkpt lat="45.6757367" lon="8.15065"><ele>1029.0</ele><time>2026-03-29T12:56:21.999Z</time></trkpt><trkpt lat="45.6756033" lon="8.1506683"><ele>1019.6666666666667</ele><time>2026-03-29T12:56:22.999Z</time></trkpt><trkpt lat="45.67544" lon="8.1507383"><ele>1010.3333333333334</ele><time>2026-03-29T12:56:23.998Z</time></trkpt><trkpt lat="45.6753033" lon="8.1507467"><ele>1001.0</ele><time>2026-03-29T12:56:24.999Z</time></trkpt><trkpt lat="45.67516" lon="8.1507283"><ele>1008.0</ele><time>2026-03-29T12:56:25.998Z</time></trkpt><trkpt lat="45.6750017" lon="8.15067"><ele>1015.0</ele><time>2026-03-29T12:56:26.999Z</time></trkpt><trkpt lat="45.6748767" lon="8.1506483"><ele>1022.0</ele><time>2026-03-29T12:56:27.999Z</time></trkpt><trkpt lat="45.6747783" lon="8.1506467"><ele>1029.0</ele><time>2026-03-29T12:56:28.998Z</time></trkpt><trkpt lat="45.6746883" lon="8.1506933"><ele>1021.75</ele><time>2026-03-29T12:56:29.998Z</time></trkpt><trkpt lat="45.6745867" lon="8.1507783"><ele>1014.5</ele><time>2026-03-29T12:56:30.999Z</time></trkpt><trkpt lat="45.674475" lon="8.1508433"><ele>1007.25</ele><time>2026-03-29T12:56:31.998Z</time></trkpt><trkpt lat="45.674335" lon="8.150865"><ele>1000.0</ele><time>2026-03-29T12:56:32.998Z</time></trkpt><trkpt lat="45.6742" lon="8.15085"><ele>1000.0</ele><time>2026-03-29T12:56:33.999Z</time></trkpt><trkpt lat="45.674075" lon="8.15077"><ele>1000.0</ele><time>2026-03-29T12:56:34.998Z</time></trkpt><trkpt lat="45.6739483" lon="8.1506383"><ele>1000.0</ele><time>2026-03-29T12:56:35.999Z</time></trkpt><trkpt lat="45.673815" lon="8.150435"><ele>1000.3333333333333</ele><time>2026-03-29T12:56:36.998Z</time></trkpt><trkpt lat="45.6736767" lon="8.1502217"><ele>1000.6666666666667</ele><time>2026-03-29T12:56:37.999Z</time></trkpt><trkpt lat="45.673565" lon="8.1500133"><ele>1001.0</ele><time>2026-03-29T12:56:38.999Z</time></trkpt><trkpt lat="45.6734817" lon="8.1498333"><ele>1007.6666666666667</ele><time>2026-03-29T12:56:39.998Z</time></trkpt><trkpt lat="45.6734167" lon="8.149635"><ele>1014.3333333333333</ele><time>2026-03-29T12:56:40.999Z</time></trkpt><trkpt lat="45.6733733" lon="8.1494367"><ele>1021.0</ele><time>2026-03-29T12:56:41.999Z</time></trkpt><trkpt lat="45.6733233" lon="8.1492067"><ele>1022.6666666666666</ele><time>2026-03-29T12:56:42.998Z</time></trkpt><trkpt lat="45.6732617" lon="8.14897"><ele>1024.3333333333333</ele><time>2026-03-29T12:56:43.999Z</time></trkpt><trkpt lat="45.6731883" lon="8.1487133"><ele>1026.0</ele><time>2026-03-29T12:56:44.998Z</time></trkpt><trkpt lat="45.6730617" lon="8.14852"><ele>1026.0</ele><time>2026-03-29T12:56:45.999Z</time></trkpt><trkpt lat="45.672955" lon="8.1483683"><ele>1026.0</ele><time>2026-03-29T12:56:46.999Z</time></trkpt><trkpt lat="45.6728833" lon="8.1482033"><ele>1026.0</ele><time>2026-03-29T12:56:47.999Z</time></trkpt><trkpt lat="45.672855" lon="8.14803"><ele>1026.0</ele><time>2026-03-29T12:56:48.999Z</time></trkpt><trkpt lat="45.6728517" lon="8.1478117"><ele>1029.3333333333333</ele><time>2026-03-29T12:56:49.999Z</time></trkpt><trkpt lat="45.6728867" lon="8.1475867"><ele>1032.6666666666665</ele><time>2026-03-29T12:56:50.998Z</time></trkpt><trkpt lat="45.672925" lon="8.14737"><ele>1036.0</ele><time>2026-03-29T12:56:51.999Z</time></trkpt><trkpt lat="45.6729533" lon="8.1471817"><ele>1037.0</ele><time>2026-03-29T12:56:52.999Z</time></trkpt><trkpt lat="45.6729717" lon="8.147035"><ele>1038.0</ele><time>2026-03-29T12:56:53.999Z</time></trkpt><trkpt lat="45.67299" lon="8.14692"><ele>1039.0</ele><time>2026-03-29T12:56:54.999Z</time></trkpt><trkpt lat="45.67305" lon="8.1468"><ele>1040.0</ele><time>2026-03-29T12:56:56.998Z</time></trkpt><trkpt lat="45.6731367" lon="8.1469533"><ele>1041.0</ele><time>2026-03-29T12:56:58.999Z</time></trkpt><trkpt lat="45.6731917" lon="8.1472133"><ele>1039.3333333333333</ele><time>2026-03-29T12:57:00.998Z</time></trkpt><trkpt lat="45.673185" lon="8.1475617"><ele>1037.6666666666665</ele><time>2026-03-29T12:57:01.999Z</time></trkpt><trkpt lat="45.6731883" lon="8.14782"><ele>1036.0</ele><time>2026-03-29T12:57:02.999Z</time></trkpt><trkpt lat="45.6732183" lon="8.14803"><ele>1036.0</ele><time>2026-03-29T12:57:03.999Z</time></trkpt><trkpt lat="45.6732833" lon="8.1481933"><ele>1036.0</ele><time>2026-03-29T12:57:04.999Z</time></trkpt><trkpt lat="45.673385" lon="8.148355"><ele>1036.0</ele><time>2026-03-29T12:57:05.999Z</time></trkpt><trkpt lat="45.6735133" lon="8.1485433"><ele>1038.6666666666665</ele><time>2026-03-29T12:57:06.999Z</time></trkpt><trkpt lat="45.6736433" lon="8.1487667"><ele>1041.3333333333333</ele><time>2026-03-29T12:57:07.999Z</time></trkpt><trkpt lat="45.6737633" lon="8.14901"><ele>1044.0</ele><time>2026-03-29T12:57:08.999Z</time></trkpt><trkpt lat="45.673875" lon="8.14922"><ele>1044.0</ele><time>2026-03-29T12:57:09.998Z</time></trkpt><trkpt lat="45.6739817" lon="8.1493833"><ele>1044.0</ele><time>2026-03-29T12:57:10.999Z</time></trkpt><trkpt lat="45.6741183" lon="8.1494983"><ele>1044.0</ele><time>2026-03-29T12:57:11.999Z</time></trkpt><trkpt lat="45.6742533" lon="8.1495783"><ele>1044.0</ele><time>2026-03-29T12:57:12.999Z</time></trkpt><trkpt lat="45.6743833" lon="8.1495833"><ele>1044.0</ele><time>2026-03-29T12:57:13.999Z</time></trkpt><trkpt lat="45.6745033" lon="8.1495083"><ele>1044.0</ele><time>2026-03-29T12:57:14.998Z</time></trkpt><trkpt lat="45.6746333" lon="8.14939"><ele>1044.0</ele><time>2026-03-29T12:57:15.999Z</time></trkpt><trkpt lat="45.6747733" lon="8.14927"><ele>1047.0</ele><time>2026-03-29T12:57:16.999Z</time></trkpt><trkpt lat="45.6749267" lon="8.1491933"><ele>1050.0</ele><time>2026-03-29T12:57:17.999Z</time></trkpt><trkpt lat="45.6750883" lon="8.1491533"><ele>1053.0</ele><time>2026-03-29T12:57:18.999Z</time></trkpt><trkpt lat="45.6752667" lon="8.1491633"><ele>1054.0</ele><time>2026-03-29T12:57:19.998Z</time></trkpt><trkpt lat="45.67545" lon="8.1491483"><ele>1055.0</ele><time>2026-03-29T12:57:20.998Z</time></trkpt><trkpt lat="45.6756267" lon="8.1490883"><ele>1056.0</ele><time>2026-03-29T12:57:21.999Z</time></trkpt><trkpt lat="45.6758" lon="8.149025"><ele>1068.6666666666667</ele><time>2026-03-29T12:57:22.999Z</time></trkpt><trkpt lat="45.6759733" lon="8.1489617"><ele>1081.3333333333335</ele><time>2026-03-29T12:57:23.999Z</time></trkpt><trkpt lat="45.6761367" lon="8.1488633"><ele>1094.0</ele><time>2026-03-29T12:57:24.998Z</time></trkpt><trkpt lat="45.6762783" lon="8.1488417"><ele>1095.0</ele><time>2026-03-29T12:57:25.999Z</time></trkpt><trkpt lat="45.676415" lon="8.1488333"><ele>1096.0</ele><time>2026-03-29T12:57:26.998Z</time></trkpt><trkpt lat="45.67656" lon="8.14886"><ele>1097.0</ele><time>2026-03-29T12:57:27.999Z</time></trkpt><trkpt lat="45.6767033" lon="8.1488817"><ele>1098.0</ele><time>2026-03-29T12:57:28.999Z</time></trkpt><trkpt lat="45.6768433" lon="8.1489467"><ele>1093.3333333333333</ele><time>2026-03-29T12:57:29.998Z</time></trkpt><trkpt lat="45.676985" lon="8.14906"><ele>1088.6666666666665</ele><time>2026-03-29T12:57:30.998Z</time></trkpt><trkpt lat="45.67711" lon="8.1492533"><ele>1084.0</ele><time>2026-03-29T12:57:31.999Z</time></trkpt><trkpt lat="45.6772517" lon="8.1493983"><ele>1084.0</ele><time>2026-03-29T12:57:32.999Z</time></trkpt><trkpt lat="45.6774117" lon="8.149495"><ele>1084.0</ele><time>2026-03-29T12:57:33.998Z</time></trkpt><trkpt lat="45.6775767" lon="8.14954"><ele>1084.0</ele><time>2026-03-29T12:57:34.999Z</time></trkpt><trkpt lat="45.6777467" lon="8.14955"><ele>1085.3333333333333</ele><time>2026-03-29T12:57:35.999Z</time></trkpt><trkpt lat="45.67793" lon="8.1495383"><ele>1086.6666666666667</ele><time>2026-03-29T12:57:36.998Z</time></trkpt><trkpt lat="45.6781033" lon="8.1495367"><ele>1088.0</ele><time>2026-03-29T12:57:37.998Z</time></trkpt><trkpt lat="45.6782567" lon="8.1495317"><ele>1088.0</ele><time>2026-03-29T12:57:38.998Z</time></trkpt><trkpt lat="45.6783783" lon="8.1494767"><ele>1088.0</ele><time>2026-03-29T12:57:39.999Z</time></trkpt><trkpt lat="45.67849" lon="8.1493867"><ele>1088.0</ele><time>2026-03-29T12:57:40.999Z</time></trkpt><trkpt lat="45.678595" lon="8.1492767"><ele>1088.0</ele><time>2026-03-29T12:57:41.999Z</time></trkpt><trkpt lat="45.6786883" lon="8.1491217"><ele>1086.75</ele><time>2026-03-29T12:57:42.998Z</time></trkpt><trkpt lat="45.6787567" lon="8.148965"><ele>1085.5</ele><time>2026-03-29T12:57:43.999Z</time></trkpt><trkpt lat="45.6788067" lon="8.1487933"><ele>1084.25</ele><time>2026-03-29T12:57:44.999Z</time></trkpt><trkpt lat="45.6788433" lon="8.1485917"><ele>1083.0</ele><time>2026-03-29T12:57:45.999Z</time></trkpt><trkpt lat="45.6788817" lon="8.14835"><ele>1088.6666666666667</ele><time>2026-03-29T12:57:46.998Z</time></trkpt><trkpt lat="45.67892" lon="8.1480983"><ele>1094.3333333333335</ele><time>2026-03-29T12:57:47.998Z</time></trkpt><trkpt lat="45.678975" lon="8.14784"><ele>1100.0</ele><time>2026-03-29T12:57:48.999Z</time></trkpt><trkpt lat="45.679045" lon="8.14758"><ele>1107.6666666666667</ele><time>2026-03-29T12:57:49.998Z</time></trkpt><trkpt lat="45.67914" lon="8.1473033"><ele>1115.3333333333333</ele><time>2026-03-29T12:57:50.998Z</time></trkpt><trkpt lat="45.67925" lon="8.1470217"><ele>1123.0</ele><time>2026-03-29T12:57:51.998Z</time></trkpt><trkpt lat="45.6793533" lon="8.146745"><ele>1123.0</ele><time>2026-03-29T12:57:52.998Z</time></trkpt><trkpt lat="45.6794367" lon="8.146475"><ele>1123.0</ele><time>2026-03-29T12:57:53.998Z</time></trkpt><trkpt lat="45.6795217" lon="8.1462133"><ele>1123.0</ele><time>2026-03-29T12:57:54.998Z</time></trkpt><trkpt lat="45.6795683" lon="8.1459883"><ele>1123.0</ele><time>2026-03-29T12:57:55.999Z</time></trkpt><trkpt lat="45.6796283" lon="8.14581"><ele>1123.0</ele><time>2026-03-29T12:57:56.999Z</time></trkpt><trkpt lat="45.6797017" lon="8.1456183"><ele>1123.0</ele><time>2026-03-29T12:57:57.999Z</time></trkpt><trkpt lat="45.6797867" lon="8.14546"><ele>1123.0</ele><time>2026-03-29T12:57:58.999Z</time></trkpt><trkpt lat="45.679905" lon="8.145335"><ele>1128.75</ele><time>2026-03-29T12:57:59.999Z</time></trkpt><trkpt lat="45.6800283" lon="8.1452833"><ele>1134.5</ele><time>2026-03-29T12:58:00.999Z</time></trkpt><trkpt lat="45.6801583" lon="8.1452683"><ele>1140.25</ele><time>2026-03-29T12:58:01.999Z</time></trkpt><trkpt lat="45.68031" lon="8.1452967"><ele>1146.0</ele><time>2026-03-29T12:58:02.999Z</time></trkpt><trkpt lat="45.6804683" lon="8.1453867"><ele>1148.0</ele><time>2026-03-29T12:58:03.999Z</time></trkpt><trkpt lat="45.6806517" lon="8.1454783"><ele>1150.0</ele><time>2026-03-29T12:58:04.999Z</time></trkpt><trkpt lat="45.680825" lon="8.14551"><ele>1152.0</ele><time>2026-03-29T12:58:05.998Z</time></trkpt><trkpt lat="45.680955" lon="8.1455067"><ele>1152.0</ele><time>2026-03-29T12:58:06.999Z</time></trkpt><trkpt lat="45.68109" lon="8.1454617"><ele>1152.0</ele><time>2026-03-29T12:58:07.999Z</time></trkpt><trkpt lat="45.68118" lon="8.1453483"><ele>1152.0</ele><time>2026-03-29T12:58:08.999Z</time></trkpt><trkpt lat="45.6812617" lon="8.145175"><ele>1152.0</ele><time>2026-03-29T12:58:09.998Z</time></trkpt><trkpt lat="45.6813417" lon="8.1449533"><ele>1154.3333333333333</ele><time>2026-03-29T12:58:10.999Z</time></trkpt><trkpt lat="45.6814317" lon="8.14473"><ele>1156.6666666666665</ele><time>2026-03-29T12:58:11.998Z</time></trkpt><trkpt lat="45.6815183" lon="8.1445233"><ele>1159.0</ele><time>2026-03-29T12:58:12.999Z</time></trkpt><trkpt lat="45.6816317" lon="8.14433"><ele>1159.0</ele><time>2026-03-29T12:58:13.998Z</time></trkpt><trkpt lat="45.6817433" lon="8.144195"><ele>1159.0</ele><time>2026-03-29T12:58:14.999Z</time></trkpt><trkpt lat="45.6818683" lon="8.144105"><ele>1159.0</ele><time>2026-03-29T12:58:15.999Z</time></trkpt><trkpt lat="45.682015" lon="8.1440633"><ele>1159.0</ele><time>2026-03-29T12:58:16.999Z</time></trkpt><trkpt lat="45.6821733" lon="8.1440683"><ele>1160.3333333333333</ele><time>2026-03-29T12:58:17.998Z</time></trkpt><trkpt lat="45.6823333" lon="8.1440717"><ele>1161.6666666666667</ele><time>2026-03-29T12:58:18.999Z</time></trkpt><trkpt lat="45.68248" lon="8.1440833"><ele>1163.0</ele><time>2026-03-29T12:58:19.999Z</time></trkpt><trkpt lat="45.682625" lon="8.14413"><ele>1163.0</ele><time>2026-03-29T12:58:20.998Z</time></trkpt><trkpt lat="45.6827533" lon="8.1442783"><ele>1163.0</ele><time>2026-03-29T12:58:21.998Z</time></trkpt><trkpt lat="45.6829" lon="8.1443717"><ele>1163.0</ele><time>2026-03-29T12:58:22.998Z</time></trkpt><trkpt lat="45.6830567" lon="8.144455"><ele>1171.0</ele><time>2026-03-29T12:58:23.999Z</time></trkpt><trkpt lat="45.6832067" lon="8.1445433"><ele>1179.0</ele><time>2026-03-29T12:58:24.999Z</time></trkpt><trkpt lat="45.6833283" lon="8.1446533"><ele>1187.0</ele><time>2026-03-29T12:58:25.999Z</time></trkpt><trkpt lat="45.683425" lon="8.1448067"><ele>1190.3333333333335</ele><time>2026-03-29T12:58:26.999Z</time></trkpt><trkpt lat="45.6835033" lon="8.1450067"><ele>1193.6666666666667</ele><time>2026-03-29T12:58:27.999Z</time></trkpt><trkpt lat="45.6836167" lon="8.1452017"><ele>1197.0</ele><time>2026-03-29T12:58:28.999Z</time></trkpt><trkpt lat="45.6837567" lon="8.1453683"><ele>1197.0</ele><time>2026-03-29T12:58:29.999Z</time></trkpt><trkpt lat="45.6839267" lon="8.145485"><ele>1197.0</ele><time>2026-03-29T12:58:30.998Z</time></trkpt><trkpt lat="45.6840617" lon="8.1456383"><ele>1197.0</ele><time>2026-03-29T12:58:31.999Z</time></trkpt><trkpt lat="45.684185" lon="8.1458283"><ele>1192.0</ele><time>2026-03-29T12:58:32.999Z</time></trkpt><trkpt lat="45.6842733" lon="8.14603"><ele>1187.0</ele><time>2026-03-29T12:58:33.998Z</time></trkpt><trkpt lat="45.6843233" lon="8.146225"><ele>1182.0</ele><time>2026-03-29T12:58:34.999Z</time></trkpt><trkpt lat="45.6843533" lon="8.1464"><ele>1177.0</ele><time>2026-03-29T12:58:35.999Z</time></trkpt><trkpt lat="45.6843783" lon="8.14655"><ele>1180.2</ele><time>2026-03-29T12:58:36.998Z</time></trkpt><trkpt lat="45.6844133" lon="8.1466367"><ele>1183.4</ele><time>2026-03-29T12:58:37.998Z</time></trkpt><trkpt lat="45.6845183" lon="8.1465833"><ele>1186.6</ele><time>2026-03-29T12:58:39.998Z</time></trkpt><trkpt lat="45.6845617" lon="8.1464817"><ele>1189.8</ele><time>2026-03-29T12:58:40.999Z</time></trkpt><trkpt lat="45.68455" lon="8.1463117"><ele>1193.0</ele><time>2026-03-29T12:58:41.999Z</time></trkpt><trkpt lat="45.6845167" lon="8.14612"><ele>1194.3333333333335</ele><time>2026-03-29T12:58:42.999Z</time></trkpt><trkpt lat="45.6844617" lon="8.1459067"><ele>1195.6666666666667</ele><time>2026-03-29T12:58:43.998Z</time></trkpt><trkpt lat="45.6843883" lon="8.1456733"><ele>1197.0</ele><time>2026-03-29T12:58:44.999Z</time></trkpt><trkpt lat="45.68431" lon="8.1454217"><ele>1197.0</ele><time>2026-03-29T12:58:45.999Z</time></trkpt><trkpt lat="45.6842167" lon="8.14518"><ele>1197.0</ele><time>2026-03-29T12:58:46.999Z</time></trkpt><trkpt lat="45.6841083" lon="8.14497"><ele>1197.0</ele><time>2026-03-29T12:58:47.998Z</time></trkpt><trkpt lat="45.6839967" lon="8.1448"><ele>1202.75</ele><time>2026-03-29T12:58:48.999Z</time></trkpt><trkpt lat="45.6839033" lon="8.14464"><ele>1208.5</ele><time>2026-03-29T12:58:49.999Z</time></trkpt><trkpt lat="45.6838417" lon="8.144445"><ele>1214.25</ele><time>2026-03-29T12:58:50.998Z</time></trkpt><trkpt lat="45.68377" lon="8.1442917"><ele>1220.0</ele><time>2026-03-29T12:58:51.999Z</time></trkpt><trkpt lat="45.6836867" lon="8.1441383"><ele>1213.3333333333335</ele><time>2026-03-29T12:58:52.998Z</time></trkpt><trkpt lat="45.6835617" lon="8.1439683"><ele>1206.6666666666667</ele><time>2026-03-29T12:58:53.999Z</time></trkpt><trkpt lat="45.68342" lon="8.14378"><ele>1200.0</ele><time>2026-03-29T12:58:54.999Z</time></trkpt><trkpt lat="45.68326" lon="8.1435967"><ele>1200.0</ele><time>2026-03-29T12:58:55.999Z</time></trkpt><trkpt lat="45.68309" lon="8.1434"><ele>1200.0</ele><time>2026-03-29T12:58:56.999Z</time></trkpt><trkpt lat="45.68292" lon="8.143225"><ele>1200.0</ele><time>2026-03-29T12:58:57.999Z</time></trkpt><trkpt lat="45.6827717" lon="8.143075"><ele>1201.0</ele><time>2026-03-29T12:58:58.999Z</time></trkpt><trkpt lat="45.68261" lon="8.1429183"><ele>1202.0</ele><time>2026-03-29T12:58:59.999Z</time></trkpt><trkpt lat="45.6824683" lon="8.1427917"><ele>1203.0</ele><time>2026-03-29T12:59:00.998Z</time></trkpt><trkpt lat="45.6823233" lon="8.1426967"><ele>1203.0</ele><time>2026-03-29T12:59:01.999Z</time></trkpt><trkpt lat="45.68217" lon="8.1426333"><ele>1203.0</ele><time>2026-03-29T12:59:02.999Z</time></trkpt><trkpt lat="45.6819983" lon="8.1426183"><ele>1203.0</ele><time>2026-03-29T12:59:03.999Z</time></trkpt><trkpt lat="45.6818083" lon="8.1426383"><ele>1204.6666666666667</ele><time>2026-03-29T12:59:04.999Z</time></trkpt><trkpt lat="45.681605" lon="8.1426783"><ele>1206.3333333333335</ele><time>2026-03-29T12:59:05.999Z</time></trkpt><trkpt lat="45.6814083" lon="8.1427517"><ele>1208.0</ele><time>2026-03-29T12:59:06.999Z</time></trkpt><trkpt lat="45.6812033" lon="8.1428817"><ele>1208.0</ele><time>2026-03-29T12:59:07.999Z</time></trkpt><trkpt lat="45.68102" lon="8.1430217"><ele>1208.0</ele><time>2026-03-29T12:59:08.999Z</time></trkpt><trkpt lat="45.6808533" lon="8.1431417"><ele>1208.0</ele><time>2026-03-29T12:59:09.999Z</time></trkpt><trkpt lat="45.6806983" lon="8.1432467"><ele>1208.0</ele><time>2026-03-29T12:59:10.999Z</time></trkpt><trkpt lat="45.6805583" lon="8.14332"><ele>1208.0</ele><time>2026-03-29T12:59:11.999Z</time></trkpt><trkpt lat="45.6804217" lon="8.1433417"><ele>1208.0</ele><time>2026-03-29T12:59:12.999Z</time></trkpt><trkpt lat="45.680275" lon="8.1433283"><ele>1208.0</ele><time>2026-03-29T12:59:13.999Z</time></trkpt><trkpt lat="45.6801183" lon="8.1433033"><ele>1212.3333333333335</ele><time>2026-03-29T12:59:14.998Z</time></trkpt><trkpt lat="45.67996" lon="8.1432783"><ele>1216.6666666666667</ele><time>2026-03-29T12:59:15.998Z</time></trkpt><trkpt lat="45.6798167" lon="8.1432783"><ele>1221.0</ele><time>2026-03-29T12:59:16.998Z</time></trkpt><trkpt lat="45.6796583" lon="8.1433583"><ele>1221.0</ele><time>2026-03-29T12:59:17.999Z</time></trkpt><trkpt lat="45.6795067" lon="8.143465"><ele>1221.0</ele><time>2026-03-29T12:59:18.999Z</time></trkpt><trkpt lat="45.6793817" lon="8.1435617"><ele>1221.0</ele><time>2026-03-29T12:59:19.999Z</time></trkpt><trkpt lat="45.6792533" lon="8.1435917"><ele>1221.0</ele><time>2026-03-29T12:59:20.999Z</time></trkpt><trkpt lat="45.6791217" lon="8.1435933"><ele>1224.75</ele><time>2026-03-29T12:59:21.999Z</time></trkpt><trkpt lat="45.6789767" lon="8.1435967"><ele>1228.5</ele><time>2026-03-29T12:59:22.999Z</time></trkpt><trkpt lat="45.6788383" lon="8.1436717"><ele>1232.25</ele><time>2026-03-29T12:59:23.999Z</time></trkpt><trkpt lat="45.6787217" lon="8.1437983"><ele>1236.0</ele><time>2026-03-29T12:59:24.999Z</time></trkpt><trkpt lat="45.67863" lon="8.1439733"><ele>1236.6666666666667</ele><time>2026-03-29T12:59:25.999Z</time></trkpt><trkpt lat="45.6785333" lon="8.1441783"><ele>1237.3333333333335</ele><time>2026-03-29T12:59:26.999Z</time></trkpt><trkpt lat="45.6784233" lon="8.144375"><ele>1238.0</ele><time>2026-03-29T12:59:27.998Z</time></trkpt><trkpt lat="45.6782917" lon="8.14454"><ele>1238.0</ele><time>2026-03-29T12:59:28.999Z</time></trkpt><trkpt lat="45.6781733" lon="8.1447217"><ele>1238.0</ele><time>2026-03-29T12:59:29.999Z</time></trkpt><trkpt lat="45.67806" lon="8.1448967"><ele>1238.0</ele><time>2026-03-29T12:59:30.998Z</time></trkpt><trkpt lat="45.6779567" lon="8.1450517"><ele>1240.75</ele><time>2026-03-29T12:59:31.999Z</time></trkpt><trkpt lat="45.6778617" lon="8.14517"><ele>1243.5</ele><time>2026-03-29T12:59:32.999Z</time></trkpt><trkpt lat="45.6777583" lon="8.145235"><ele>1246.25</ele><time>2026-03-29T12:59:33.999Z</time></trkpt><trkpt lat="45.6776283" lon="8.145255"><ele>1249.0</ele><time>2026-03-29T12:59:34.999Z</time></trkpt><trkpt lat="45.6774683" lon="8.14525"><ele>1249.0</ele><time>2026-03-29T12:59:35.998Z</time></trkpt><trkpt lat="45.6772983" lon="8.1452467"><ele>1249.0</ele><time>2026-03-29T12:59:36.999Z</time></trkpt><trkpt lat="45.677125" lon="8.145245"><ele>1249.0</ele><time>2026-03-29T12:59:37.999Z</time></trkpt><trkpt lat="45.6769733" lon="8.1452217"><ele>1248.0</ele><time>2026-03-29T12:59:38.998Z</time></trkpt><trkpt lat="45.67682" lon="8.14515"><ele>1247.0</ele><time>2026-03-29T12:59:39.998Z</time></trkpt><trkpt lat="45.676685" lon="8.1450533"><ele>1246.0</ele><time>2026-03-29T12:59:40.999Z</time></trkpt><trkpt lat="45.67658" lon="8.144945"><ele>1245.0</ele><time>2026-03-29T12:59:41.999Z</time></trkpt><trkpt lat="45.6764917" lon="8.1447883"><ele>1250.25</ele><time>2026-03-29T12:59:42.999Z</time></trkpt><trkpt lat="45.676425" lon="8.1446233"><ele>1255.5</ele><time>2026-03-29T12:59:43.998Z</time></trkpt><trkpt lat="45.676385" lon="8.1444217"><ele>1260.75</ele><time>2026-03-29T12:59:44.998Z</time></trkpt><trkpt lat="45.6763433" lon="8.14421"><ele>1266.0</ele><time>2026-03-29T12:59:45.998Z</time></trkpt><trkpt lat="45.6763017" lon="8.1439917"><ele>1262.5</ele><time>2026-03-29T12:59:46.999Z</time></trkpt><trkpt lat="45.67626" lon="8.1437867"><ele>1259.0</ele><time>2026-03-29T12:59:47.999Z</time></trkpt><trkpt lat="45.6762133" lon="8.143585"><ele>1255.5</ele><time>2026-03-29T12:59:48.999Z</time></trkpt><trkpt lat="45.6761367" lon="8.1434083"><ele>1252.0</ele><time>2026-03-29T12:59:49.999Z</time></trkpt><trkpt lat="45.67601" lon="8.143245"><ele>1260.3333333333333</ele><time>2026-03-29T12:59:50.999Z</time></trkpt><trkpt lat="45.6758467" lon="8.1431333"><ele>1268.6666666666667</ele><time>2026-03-29T12:59:51.999Z</time></trkpt><trkpt lat="45.6756983" lon="8.143025"><ele>1277.0</ele><time>2026-03-29T12:59:52.999Z</time></trkpt><trkpt lat="45.6755583" lon="8.1429"><ele>1277.0</ele><time>2026-03-29T12:59:53.998Z</time></trkpt><trkpt lat="45.675455" lon="8.1426983"><ele>1277.0</ele><time>2026-03-29T12:59:54.998Z</time></trkpt><trkpt lat="45.675355" lon="8.1425133"><ele>1277.0</ele><time>2026-03-29T12:59:55.998Z</time></trkpt><trkpt lat="45.6752617" lon="8.1422667"><ele>1273.6666666666667</ele><time>2026-03-29T12:59:56.999Z</time></trkpt><trkpt lat="45.675165" lon="8.141995"><ele>1270.3333333333333</ele><time>2026-03-29T12:59:57.999Z</time></trkpt><trkpt lat="45.6750767" lon="8.1417617"><ele>1267.0</ele><time>2026-03-29T12:59:58.998Z</time></trkpt><trkpt lat="45.6749967" lon="8.14153"><ele>1267.0</ele><time>2026-03-29T12:59:59.998Z</time></trkpt><trkpt lat="45.67494" lon="8.141295"><ele>1267.0</ele><time>2026-03-29T13:00:00.999Z</time></trkpt><trkpt lat="45.674905" lon="8.1410333"><ele>1267.0</ele><time>2026-03-29T13:00:01.999Z</time></trkpt><trkpt lat="45.6748867" lon="8.1407633"><ele>1270.0</ele><time>2026-03-29T13:00:02.999Z</time></trkpt><trkpt lat="45.6748667" lon="8.1404883"><ele>1273.0</ele><time>2026-03-29T13:00:03.999Z</time></trkpt><trkpt lat="45.6748533" lon="8.14021"><ele>1276.0</ele><time>2026-03-29T13:00:04.999Z</time></trkpt><trkpt lat="45.6748483" lon="8.139895"><ele>1279.3333333333333</ele><time>2026-03-29T13:00:05.999Z</time></trkpt><trkpt lat="45.6748167" lon="8.139595"><ele>1282.6666666666667</ele><time>2026-03-29T13:00:06.999Z</time></trkpt><trkpt lat="45.6747967" lon="8.1393233"><ele>1286.0</ele><time>2026-03-29T13:00:07.999Z</time></trkpt><trkpt lat="45.67472" lon="8.13908"><ele>1280.3333333333335</ele><time>2026-03-29T13:00:08.999Z</time></trkpt><trkpt lat="45.6746083" lon="8.1388817"><ele>1274.6666666666667</ele><time>2026-03-29T13:00:09.998Z</time></trkpt><trkpt lat="45.6744817" lon="8.1387167"><ele>1269.0</ele><time>2026-03-29T13:00:10.998Z</time></trkpt><trkpt lat="45.67438" lon="8.1385567"><ele>1269.0</ele><time>2026-03-29T13:00:11.998Z</time></trkpt><trkpt lat="45.6743283" lon="8.1383583"><ele>1269.0</ele><time>2026-03-29T13:00:12.999Z</time></trkpt><trkpt lat="45.6742767" lon="8.13815"><ele>1269.0</ele><time>2026-03-29T13:00:13.999Z</time></trkpt><trkpt lat="45.6742233" lon="8.1379117"><ele>1276.3333333333333</ele><time>2026-03-29T13:00:14.999Z</time></trkpt><trkpt lat="45.67416" lon="8.137675"><ele>1283.6666666666665</ele><time>2026-03-29T13:00:15.999Z</time></trkpt><trkpt lat="45.67407" lon="8.1374567"><ele>1291.0</ele><time>2026-03-29T13:00:16.999Z</time></trkpt><trkpt lat="45.6739483" lon="8.13723"><ele>1287.3333333333333</ele><time>2026-03-29T13:00:17.998Z</time></trkpt><trkpt lat="45.6738267" lon="8.1370233"><ele>1283.6666666666667</ele><time>2026-03-29T13:00:18.999Z</time></trkpt><trkpt lat="45.6736983" lon="8.1368583"><ele>1280.0</ele><time>2026-03-29T13:00:19.999Z</time></trkpt><trkpt lat="45.6735467" lon="8.1367283"><ele>1280.0</ele><time>2026-03-29T13:00:20.998Z</time></trkpt><trkpt lat="45.6734017" lon="8.1365967"><ele>1280.0</ele><time>2026-03-29T13:00:21.999Z</time></trkpt><trkpt lat="45.6732933" lon="8.1364233"><ele>1280.0</ele><time>2026-03-29T13:00:22.998Z</time></trkpt><trkpt lat="45.6731967" lon="8.1362033"><ele>1288.0</ele><time>2026-03-29T13:00:23.998Z</time></trkpt><trkpt lat="45.6731183" lon="8.135985"><ele>1296.0</ele><time>2026-03-29T13:00:24.999Z</time></trkpt><trkpt lat="45.673005" lon="8.1357917"><ele>1304.0</ele><time>2026-03-29T13:00:25.999Z</time></trkpt><trkpt lat="45.67289" lon="8.135585"><ele>1300.0</ele><time>2026-03-29T13:00:26.999Z</time></trkpt><trkpt lat="45.67278" lon="8.13538"><ele>1296.0</ele><time>2026-03-29T13:00:27.999Z</time></trkpt><trkpt lat="45.6726817" lon="8.135155"><ele>1292.0</ele><time>2026-03-29T13:00:28.999Z</time></trkpt><trkpt lat="45.6725867" lon="8.13491"><ele>1297.6666666666667</ele><time>2026-03-29T13:00:29.999Z</time></trkpt><trkpt lat="45.6724783" lon="8.134675"><ele>1303.3333333333333</ele><time>2026-03-29T13:00:30.998Z</time></trkpt><trkpt lat="45.672355" lon="8.1344483"><ele>1309.0</ele><time>2026-03-29T13:00:31.998Z</time></trkpt><trkpt lat="45.6722083" lon="8.1342467"><ele>1309.3333333333333</ele><time>2026-03-29T13:00:32.999Z</time></trkpt><trkpt lat="45.6720583" lon="8.13404"><ele>1309.6666666666667</ele><time>2026-03-29T13:00:33.998Z</time></trkpt><trkpt lat="45.6719" lon="8.13386"><ele>1310.0</ele><time>2026-03-29T13:00:34.999Z</time></trkpt><trkpt lat="45.6717433" lon="8.13368"><ele>1310.0</ele><time>2026-03-29T13:00:35.998Z</time></trkpt><trkpt lat="45.6715833" lon="8.1334917"><ele>1310.0</ele><time>2026-03-29T13:00:36.999Z</time></trkpt><trkpt lat="45.6714333" lon="8.133305"><ele>1310.0</ele><time>2026-03-29T13:00:37.999Z</time></trkpt><trkpt lat="45.6712967" lon="8.1331017"><ele>1312.0</ele><time>2026-03-29T13:00:38.999Z</time></trkpt><trkpt lat="45.6711633" lon="8.13291"><ele>1314.0</ele><time>2026-03-29T13:00:39.999Z</time></trkpt><trkpt lat="45.6710183" lon="8.132735"><ele>1316.0</ele><time>2026-03-29T13:00:40.999Z</time></trkpt><trkpt lat="45.6708517" lon="8.1325883"><ele>1316.0</ele><time>2026-03-29T13:00:41.999Z</time></trkpt><trkpt lat="45.67067" lon="8.1324833"><ele>1316.0</ele><time>2026-03-29T13:00:42.998Z</time></trkpt><trkpt lat="45.670485" lon="8.1324267"><ele>1316.0</ele><time>2026-03-29T13:00:43.999Z</time></trkpt><trkpt lat="45.6703083" lon="8.13238"><ele>1311.0</ele><time>2026-03-29T13:00:44.999Z</time></trkpt><trkpt lat="45.6701633" lon="8.1323717"><ele>1306.0</ele><time>2026-03-29T13:00:45.999Z</time></trkpt><trkpt lat="45.6700067" lon="8.13243"><ele>1301.0</ele><time>2026-03-29T13:00:46.998Z</time></trkpt><trkpt lat="45.6698683" lon="8.1325333"><ele>1301.0</ele><time>2026-03-29T13:00:47.998Z</time></trkpt><trkpt lat="45.66976" lon="8.1326833"><ele>1301.0</ele><time>2026-03-29T13:00:48.999Z</time></trkpt><trkpt lat="45.6696767" lon="8.1328817"><ele>1301.0</ele><time>2026-03-29T13:00:49.999Z</time></trkpt><trkpt lat="45.6695883" lon="8.13309"><ele>1304.75</ele><time>2026-03-29T13:00:50.999Z</time></trkpt><trkpt lat="45.6695067" lon="8.13328"><ele>1308.5</ele><time>2026-03-29T13:00:51.998Z</time></trkpt><trkpt lat="45.6694183" lon="8.1334417"><ele>1312.25</ele><time>2026-03-29T13:00:52.998Z</time></trkpt><trkpt lat="45.669325" lon="8.13358"><ele>1316.0</ele><time>2026-03-29T13:00:53.999Z</time></trkpt><trkpt lat="45.6692233" lon="8.1337017"><ele>1316.0</ele><time>2026-03-29T13:00:54.999Z</time></trkpt><trkpt lat="45.66913" lon="8.13379"><ele>1316.0</ele><time>2026-03-29T13:00:55.998Z</time></trkpt><trkpt lat="45.66903" lon="8.133865"><ele>1316.0</ele><time>2026-03-29T13:00:56.999Z</time></trkpt><trkpt lat="45.6689267" lon="8.1339017"><ele>1316.0</ele><time>2026-03-29T13:00:57.998Z</time></trkpt><trkpt lat="45.6688283" lon="8.1339"><ele>1316.0</ele><time>2026-03-29T13:00:58.999Z</time></trkpt><trkpt lat="45.6686983" lon="8.1338817"><ele>1315.8</ele><time>2026-03-29T13:00:59.998Z</time></trkpt><trkpt lat="45.6685717" lon="8.1338833"><ele>1315.6</ele><time>2026-03-29T13:01:00.999Z</time></trkpt><trkpt lat="45.668455" lon="8.1338917"><ele>1315.4</ele><time>2026-03-29T13:01:01.999Z</time></trkpt><trkpt lat="45.6683567" lon="8.1338467"><ele>1315.2</ele><time>2026-03-29T13:01:02.999Z</time></trkpt><trkpt lat="45.66826" lon="8.13381"><ele>1315.0</ele><time>2026-03-29T13:01:03.999Z</time></trkpt><trkpt lat="45.6682067" lon="8.1336733"><ele>1315.0</ele><time>2026-03-29T13:01:04.999Z</time></trkpt><trkpt lat="45.6681683" lon="8.1335017"><ele>1315.0</ele><time>2026-03-29T13:01:05.998Z</time></trkpt><trkpt lat="45.668145" lon="8.1332783"><ele>1315.0</ele><time>2026-03-29T13:01:06.998Z</time></trkpt><trkpt lat="45.668115" lon="8.1330333"><ele>1323.0</ele><time>2026-03-29T13:01:07.999Z</time></trkpt><trkpt lat="45.668065" lon="8.13277"><ele>1331.0</ele><time>2026-03-29T13:01:08.999Z</time></trkpt><trkpt lat="45.6679983" lon="8.13253"><ele>1339.0</ele><time>2026-03-29T13:01:09.999Z</time></trkpt><trkpt lat="45.66791" lon="8.1323017"><ele>1335.0</ele><time>2026-03-29T13:01:10.999Z</time></trkpt><trkpt lat="45.6678133" lon="8.1320917"><ele>1331.0</ele><time>2026-03-29T13:01:11.999Z</time></trkpt><trkpt lat="45.6677083" lon="8.1318883"><ele>1327.0</ele><time>2026-03-29T13:01:12.998Z</time></trkpt><trkpt lat="45.6675967" lon="8.1317067"><ele>1333.0</ele><time>2026-03-29T13:01:13.999Z</time></trkpt><trkpt lat="45.6674933" lon="8.1315383"><ele>1339.0</ele><time>2026-03-29T13:01:14.999Z</time></trkpt><trkpt lat="45.667415" lon="8.131355"><ele>1345.0</ele><time>2026-03-29T13:01:15.999Z</time></trkpt><trkpt lat="45.6673567" lon="8.1311567"><ele>1345.0</ele><time>2026-03-29T13:01:16.999Z</time></trkpt><trkpt lat="45.6673217" lon="8.130935"><ele>1345.0</ele><time>2026-03-29T13:01:17.998Z</time></trkpt><trkpt lat="45.6672967" lon="8.13071"><ele>1345.0</ele><time>2026-03-29T13:01:18.998Z</time></trkpt><trkpt lat="45.6672617" lon="8.130475"><ele>1345.25</ele><time>2026-03-29T13:01:19.999Z</time></trkpt><trkpt lat="45.6672333" lon="8.13028"><ele>1345.5</ele><time>2026-03-29T13:01:20.998Z</time></trkpt><trkpt lat="45.66724" lon="8.1300783"><ele>1345.75</ele><time>2026-03-29T13:01:21.999Z</time></trkpt><trkpt lat="45.6672767" lon="8.1298817"><ele>1346.0</ele><time>2026-03-29T13:01:22.998Z</time></trkpt><trkpt lat="45.6673067" lon="8.12966"><ele>1345.0</ele><time>2026-03-29T13:01:23.999Z</time></trkpt><trkpt lat="45.6673183" lon="8.129445"><ele>1344.0</ele><time>2026-03-29T13:01:24.999Z</time></trkpt><trkpt lat="45.66733" lon="8.1292233"><ele>1343.0</ele><time>2026-03-29T13:01:25.999Z</time></trkpt><trkpt lat="45.6673567" lon="8.1289783"><ele>1341.25</ele><time>2026-03-29T13:01:26.999Z</time></trkpt><trkpt lat="45.6673833" lon="8.1287533"><ele>1339.5</ele><time>2026-03-29T13:01:27.999Z</time></trkpt><trkpt lat="45.66741" lon="8.1285583"><ele>1337.75</ele><time>2026-03-29T13:01:28.999Z</time></trkpt><trkpt lat="45.66743" lon="8.1283517"><ele>1336.0</ele><time>2026-03-29T13:01:29.999Z</time></trkpt><trkpt lat="45.6674467" lon="8.1281767"><ele>1335.6</ele><time>2026-03-29T13:01:30.999Z</time></trkpt><trkpt lat="45.6674533" lon="8.12802"><ele>1335.1999999999998</ele><time>2026-03-29T13:01:31.998Z</time></trkpt><trkpt lat="45.6674683" lon="8.1278683"><ele>1334.8000000000002</ele><time>2026-03-29T13:01:32.999Z</time></trkpt><trkpt lat="45.6674717" lon="8.1277467"><ele>1334.4</ele><time>2026-03-29T13:01:33.999Z</time></trkpt><trkpt lat="45.6674767" lon="8.1276167"><ele>1334.0</ele><time>2026-03-29T13:01:34.999Z</time></trkpt><trkpt lat="45.66745" lon="8.1275117"><ele>1334.0</ele><time>2026-03-29T13:01:35.999Z</time></trkpt><trkpt lat="45.6673967" lon="8.1274083"><ele>1334.0</ele><time>2026-03-29T13:01:36.999Z</time></trkpt><trkpt lat="45.667325" lon="8.1273133"><ele>1334.0</ele><time>2026-03-29T13:01:37.998Z</time></trkpt><trkpt lat="45.6672383" lon="8.1272283"><ele>1334.0</ele><time>2026-03-29T13:01:38.999Z</time></trkpt><trkpt lat="45.6671233" lon="8.1271483"><ele>1334.0</ele><time>2026-03-29T13:01:39.999Z</time></trkpt><trkpt lat="45.6669917" lon="8.12705"><ele>1337.3333333333335</ele><time>2026-03-29T13:01:40.999Z</time></trkpt><trkpt lat="45.66684" lon="8.1269633"><ele>1340.6666666666667</ele><time>2026-03-29T13:01:41.998Z</time></trkpt><trkpt lat="45.6666767" lon="8.12687"><ele>1344.0</ele><time>2026-03-29T13:01:42.999Z</time></trkpt><trkpt lat="45.6665267" lon="8.1267683"><ele>1344.0</ele><time>2026-03-29T13:01:43.998Z</time></trkpt><trkpt lat="45.6663867" lon="8.126675"><ele>1344.0</ele><time>2026-03-29T13:01:44.999Z</time></trkpt><trkpt lat="45.6662517" lon="8.1266"><ele>1344.0</ele><time>2026-03-29T13:01:45.999Z</time></trkpt><trkpt lat="45.6661217" lon="8.1265133"><ele>1344.0</ele><time>2026-03-29T13:01:46.999Z</time></trkpt><trkpt lat="45.6660017" lon="8.1264117"><ele>1344.6666666666667</ele><time>2026-03-29T13:01:47.998Z</time></trkpt><trkpt lat="45.6659117" lon="8.12625"><ele>1345.3333333333335</ele><time>2026-03-29T13:01:48.998Z</time></trkpt><trkpt lat="45.665805" lon="8.1260917"><ele>1346.0</ele><time>2026-03-29T13:01:49.999Z</time></trkpt><trkpt lat="45.6656883" lon="8.125945"><ele>1346.0</ele><time>2026-03-29T13:01:50.999Z</time></trkpt><trkpt lat="45.6655683" lon="8.1257817"><ele>1346.0</ele><time>2026-03-29T13:01:51.999Z</time></trkpt><trkpt lat="45.6654533" lon="8.125605"><ele>1346.0</ele><time>2026-03-29T13:01:52.999Z</time></trkpt><trkpt lat="45.6653367" lon="8.1254533"><ele>1347.0</ele><time>2026-03-29T13:01:53.999Z</time></trkpt><trkpt lat="45.6652083" lon="8.1253317"><ele>1348.0</ele><time>2026-03-29T13:01:54.999Z</time></trkpt><trkpt lat="45.6650767" lon="8.1252433"><ele>1349.0</ele><time>2026-03-29T13:01:55.999Z</time></trkpt><trkpt lat="45.6649333" lon="8.1251833"><ele>1350.0</ele><time>2026-03-29T13:01:56.998Z</time></trkpt><trkpt lat="45.6647933" lon="8.12511"><ele>1350.0</ele><time>2026-03-29T13:01:57.999Z</time></trkpt><trkpt lat="45.6646483" lon="8.12502"><ele>1350.0</ele><time>2026-03-29T13:01:58.999Z</time></trkpt><trkpt lat="45.6645217" lon="8.1249283"><ele>1350.0</ele><time>2026-03-29T13:01:59.999Z</time></trkpt><trkpt lat="45.66441" lon="8.1248417"><ele>1350.0</ele><time>2026-03-29T13:02:00.999Z</time></trkpt><trkpt lat="45.6643083" lon="8.1246883"><ele>1353.0</ele><time>2026-03-29T13:02:01.999Z</time></trkpt><trkpt lat="45.664205" lon="8.1245767"><ele>1356.0</ele><time>2026-03-29T13:02:02.998Z</time></trkpt><trkpt lat="45.6640767" lon="8.1245117"><ele>1359.0</ele><time>2026-03-29T13:02:03.998Z</time></trkpt><trkpt lat="45.6639333" lon="8.1244667"><ele>1362.0</ele><time>2026-03-29T13:02:04.998Z</time></trkpt><trkpt lat="45.6637783" lon="8.1244433"><ele>1362.0</ele><time>2026-03-29T13:02:05.999Z</time></trkpt><trkpt lat="45.6636283" lon="8.1244483"><ele>1362.0</ele><time>2026-03-29T13:02:06.999Z</time></trkpt><trkpt lat="45.6634767" lon="8.1244617"><ele>1362.0</ele><time>2026-03-29T13:02:07.999Z</time></trkpt><trkpt lat="45.6633317" lon="8.124505"><ele>1355.5</ele><time>2026-03-29T13:02:08.999Z</time></trkpt><trkpt lat="45.6631783" lon="8.1245517"><ele>1349.0</ele><time>2026-03-29T13:02:09.999Z</time></trkpt><trkpt lat="45.6630333" lon="8.12458"><ele>1342.5</ele><time>2026-03-29T13:02:10.999Z</time></trkpt><trkpt lat="45.6629" lon="8.124535"><ele>1336.0</ele><time>2026-03-29T13:02:11.998Z</time></trkpt><trkpt lat="45.66278" lon="8.1244867"><ele>1330.25</ele><time>2026-03-29T13:02:12.999Z</time></trkpt><trkpt lat="45.6626617" lon="8.1244333"><ele>1324.5</ele><time>2026-03-29T13:02:13.999Z</time></trkpt><trkpt lat="45.6625583" lon="8.12437"><ele>1318.75</ele><time>2026-03-29T13:02:14.998Z</time></trkpt><trkpt lat="45.6624533" lon="8.124275"><ele>1313.0</ele><time>2026-03-29T13:02:15.998Z</time></trkpt><trkpt lat="45.6623783" lon="8.124085"><ele>1316.6666666666667</ele><time>2026-03-29T13:02:16.999Z</time></trkpt><trkpt lat="45.66232" lon="8.1238833"><ele>1320.3333333333333</ele><time>2026-03-29T13:02:17.998Z</time></trkpt><trkpt lat="45.6622817" lon="8.12367"><ele>1324.0</ele><time>2026-03-29T13:02:18.999Z</time></trkpt><trkpt lat="45.66228" lon="8.1234083"><ele>1321.0</ele><time>2026-03-29T13:02:19.999Z</time></trkpt><trkpt lat="45.6622683" lon="8.123195"><ele>1318.0</ele><time>2026-03-29T13:02:20.999Z</time></trkpt><trkpt lat="45.6622633" lon="8.1229883"><ele>1315.0</ele><time>2026-03-29T13:02:21.999Z</time></trkpt><trkpt lat="45.66228" lon="8.1228017"><ele>1312.0</ele><time>2026-03-29T13:02:22.999Z</time></trkpt><trkpt lat="45.662325" lon="8.1226383"><ele>1312.0</ele><time>2026-03-29T13:02:23.999Z</time></trkpt><trkpt lat="45.6624067" lon="8.1225117"><ele>1312.0</ele><time>2026-03-29T13:02:24.999Z</time></trkpt><trkpt lat="45.6625167" lon="8.1223867"><ele>1312.0</ele><time>2026-03-29T13:02:25.999Z</time></trkpt><trkpt lat="45.662655" lon="8.12226"><ele>1312.0</ele><time>2026-03-29T13:02:26.998Z</time></trkpt><trkpt lat="45.6627967" lon="8.1221483"><ele>1307.6666666666665</ele><time>2026-03-29T13:02:27.999Z</time></trkpt><trkpt lat="45.6629333" lon="8.1220233"><ele>1303.3333333333333</ele><time>2026-03-29T13:02:28.999Z</time></trkpt><trkpt lat="45.6630717" lon="8.1219117"><ele>1299.0</ele><time>2026-03-29T13:02:29.998Z</time></trkpt><trkpt lat="45.6632017" lon="8.1218167"><ele>1299.0</ele><time>2026-03-29T13:02:30.999Z</time></trkpt><trkpt lat="45.6633417" lon="8.1217533"><ele>1299.0</ele><time>2026-03-29T13:02:31.999Z</time></trkpt><trkpt lat="45.6634833" lon="8.121695"><ele>1299.0</ele><time>2026-03-29T13:02:32.999Z</time></trkpt><trkpt lat="45.6636483" lon="8.1216683"><ele>1302.3333333333333</ele><time>2026-03-29T13:02:33.999Z</time></trkpt><trkpt lat="45.6638367" lon="8.1216583"><ele>1305.6666666666665</ele><time>2026-03-29T13:02:34.999Z</time></trkpt><trkpt lat="45.664035" lon="8.1216533"><ele>1309.0</ele><time>2026-03-29T13:02:35.999Z</time></trkpt><trkpt lat="45.6642217" lon="8.1216383"><ele>1309.0</ele><time>2026-03-29T13:02:36.998Z</time></trkpt><trkpt lat="45.664405" lon="8.12163"><ele>1309.0</ele><time>2026-03-29T13:02:37.998Z</time></trkpt><trkpt lat="45.6645633" lon="8.1215133"><ele>1309.0</ele><time>2026-03-29T13:02:38.999Z</time></trkpt><trkpt lat="45.6646467" lon="8.1213067"><ele>1309.5</ele><time>2026-03-29T13:02:39.999Z</time></trkpt><trkpt lat="45.6647133" lon="8.1211083"><ele>1310.0</ele><time>2026-03-29T13:02:40.999Z</time></trkpt><trkpt lat="45.66479" lon="8.12094"><ele>1310.5</ele><time>2026-03-29T13:02:41.999Z</time></trkpt><trkpt lat="45.6648867" lon="8.1208067"><ele>1311.0</ele><time>2026-03-29T13:02:42.999Z</time></trkpt><trkpt lat="45.664975" lon="8.1206667"><ele>1302.25</ele><time>2026-03-29T13:02:43.999Z</time></trkpt><trkpt lat="45.6650633" lon="8.1205517"><ele>1293.5</ele><time>2026-03-29T13:02:44.998Z</time></trkpt><trkpt lat="45.6651367" lon="8.120395"><ele>1284.75</ele><time>2026-03-29T13:02:45.999Z</time></trkpt><trkpt lat="45.66518" lon="8.1202267"><ele>1276.0</ele><time>2026-03-29T13:02:46.999Z</time></trkpt><trkpt lat="45.665245" lon="8.1200917"><ele>1276.0</ele><time>2026-03-29T13:02:47.999Z</time></trkpt><trkpt lat="45.6653483" lon="8.1199917"><ele>1276.0</ele><time>2026-03-29T13:02:48.998Z</time></trkpt><trkpt lat="45.6654783" lon="8.11993"><ele>1276.0</ele><time>2026-03-29T13:02:49.999Z</time></trkpt><trkpt lat="45.665615" lon="8.11985"><ele>1276.0</ele><time>2026-03-29T13:02:50.999Z</time></trkpt><trkpt lat="45.6657433" lon="8.1197583"><ele>1276.0</ele><time>2026-03-29T13:02:51.999Z</time></trkpt><trkpt lat="45.66584" lon="8.1195883"><ele>1276.0</ele><time>2026-03-29T13:02:52.999Z</time></trkpt><trkpt lat="45.6659533" lon="8.11945"><ele>1276.0</ele><time>2026-03-29T13:02:53.999Z</time></trkpt><trkpt lat="45.6660817" lon="8.1193183"><ele>1278.75</ele><time>2026-03-29T13:02:54.998Z</time></trkpt><trkpt lat="45.6662017" lon="8.1191833"><ele>1281.5</ele><time>2026-03-29T13:02:55.998Z</time></trkpt><trkpt lat="45.66632" lon="8.11905"><ele>1284.25</ele><time>2026-03-29T13:02:56.998Z</time></trkpt><trkpt lat="45.66643" lon="8.11893"><ele>1287.0</ele><time>2026-03-29T13:02:57.999Z</time></trkpt><trkpt lat="45.6665467" lon="8.118845"><ele>1287.0</ele><time>2026-03-29T13:02:58.999Z</time></trkpt><trkpt lat="45.6666317" lon="8.1187267"><ele>1287.0</ele><time>2026-03-29T13:02:59.999Z</time></trkpt><trkpt lat="45.6666933" lon="8.118565"><ele>1287.0</ele><time>2026-03-29T13:03:00.999Z</time></trkpt><trkpt lat="45.6667333" lon="8.1183967"><ele>1287.0</ele><time>2026-03-29T13:03:01.999Z</time></trkpt><trkpt lat="45.6667467" lon="8.1182117"><ele>1287.25</ele><time>2026-03-29T13:03:02.999Z</time></trkpt><trkpt lat="45.66675" lon="8.1180333"><ele>1287.5</ele><time>2026-03-29T13:03:03.999Z</time></trkpt><trkpt lat="45.66675" lon="8.1178467"><ele>1287.75</ele><time>2026-03-29T13:03:04.999Z</time></trkpt><trkpt lat="45.6667467" lon="8.1176533"><ele>1288.0</ele><time>2026-03-29T13:03:05.998Z</time></trkpt><trkpt lat="45.6667533" lon="8.1174667"><ele>1291.5</ele><time>2026-03-29T13:03:06.998Z</time></trkpt><trkpt lat="45.6667483" lon="8.117285"><ele>1295.0</ele><time>2026-03-29T13:03:07.998Z</time></trkpt><trkpt lat="45.66674" lon="8.1170917"><ele>1298.5</ele><time>2026-03-29T13:03:08.999Z</time></trkpt><trkpt lat="45.6667217" lon="8.1169"><ele>1302.0</ele><time>2026-03-29T13:03:09.999Z</time></trkpt><trkpt lat="45.6666917" lon="8.116715"><ele>1303.0</ele><time>2026-03-29T13:03:10.999Z</time></trkpt><trkpt lat="45.6666617" lon="8.1165467"><ele>1304.0</ele><time>2026-03-29T13:03:11.999Z</time></trkpt><trkpt lat="45.666655" lon="8.1163733"><ele>1305.0</ele><time>2026-03-29T13:03:12.999Z</time></trkpt><trkpt lat="45.666685" lon="8.1162017"><ele>1306.0</ele><time>2026-03-29T13:03:13.998Z</time></trkpt><trkpt lat="45.6667317" lon="8.1160417"><ele>1306.0</ele><time>2026-03-29T13:03:14.998Z</time></trkpt><trkpt lat="45.6667667" lon="8.1158683"><ele>1306.0</ele><time>2026-03-29T13:03:15.997Z</time></trkpt><trkpt lat="45.6667617" lon="8.1156783"><ele>1306.0</ele><time>2026-03-29T13:03:16.998Z</time></trkpt><trkpt lat="45.66672" lon="8.1154617"><ele>1306.0</ele><time>2026-03-29T13:03:17.998Z</time></trkpt><trkpt lat="45.6666717" lon="8.1152267"><ele>1310.3333333333333</ele><time>2026-03-29T13:03:18.998Z</time></trkpt><trkpt lat="45.6666" lon="8.1149917"><ele>1314.6666666666667</ele><time>2026-03-29T13:03:19.997Z</time></trkpt><trkpt lat="45.666525" lon="8.1147567"><ele>1319.0</ele><time>2026-03-29T13:03:20.998Z</time></trkpt><trkpt lat="45.6664583" lon="8.11454"><ele>1319.0</ele><time>2026-03-29T13:03:21.998Z</time></trkpt><trkpt lat="45.6664" lon="8.114345"><ele>1319.0</ele><time>2026-03-29T13:03:22.998Z</time></trkpt><trkpt lat="45.66637" lon="8.114175"><ele>1319.0</ele><time>2026-03-29T13:03:23.997Z</time></trkpt><trkpt lat="45.6663783" lon="8.11403"><ele>1319.0</ele><time>2026-03-29T13:03:24.997Z</time></trkpt><trkpt lat="45.66642" lon="8.1138917"><ele>1314.0</ele><time>2026-03-29T13:03:25.998Z</time></trkpt><trkpt lat="45.6665033" lon="8.113775"><ele>1309.0</ele><time>2026-03-29T13:03:26.998Z</time></trkpt><trkpt lat="45.6666283" lon="8.1136617"><ele>1304.0</ele><time>2026-03-29T13:03:27.998Z</time></trkpt><trkpt lat="45.666775" lon="8.113545"><ele>1299.0</ele><time>2026-03-29T13:03:28.998Z</time></trkpt><trkpt lat="45.6669233" lon="8.11341"><ele>1311.0</ele><time>2026-03-29T13:03:29.998Z</time></trkpt><trkpt lat="45.66707" lon="8.113265"><ele>1323.0</ele><time>2026-03-29T13:03:30.998Z</time></trkpt><trkpt lat="45.667195" lon="8.1131"><ele>1335.0</ele><time>2026-03-29T13:03:31.997Z</time></trkpt><trkpt lat="45.6673067" lon="8.1129217"><ele>1335.0</ele><time>2026-03-29T13:03:32.997Z</time></trkpt><trkpt lat="45.6673467" lon="8.1126767"><ele>1335.0</ele><time>2026-03-29T13:03:33.998Z</time></trkpt><trkpt lat="45.6673783" lon="8.1124183"><ele>1335.0</ele><time>2026-03-29T13:03:34.997Z</time></trkpt><trkpt lat="45.6674033" lon="8.1121467"><ele>1333.6666666666667</ele><time>2026-03-29T13:03:35.998Z</time></trkpt><trkpt lat="45.6674317" lon="8.111845"><ele>1332.3333333333335</ele><time>2026-03-29T13:03:36.997Z</time></trkpt><trkpt lat="45.667455" lon="8.1115433"><ele>1331.0</ele><time>2026-03-29T13:03:37.998Z</time></trkpt><trkpt lat="45.667475" lon="8.1112067"><ele>1331.0</ele><time>2026-03-29T13:03:38.997Z</time></trkpt><trkpt lat="45.6674683" lon="8.1108667"><ele>1331.0</ele><time>2026-03-29T13:03:39.998Z</time></trkpt><trkpt lat="45.66744" lon="8.11055"><ele>1333.3333333333335</ele><time>2026-03-29T13:03:40.998Z</time></trkpt><trkpt lat="45.6674017" lon="8.110255"><ele>1335.6666666666667</ele><time>2026-03-29T13:03:41.998Z</time></trkpt><trkpt lat="45.6673633" lon="8.1099933"><ele>1338.0</ele><time>2026-03-29T13:03:42.997Z</time></trkpt><trkpt lat="45.6673217" lon="8.1097783"><ele>1338.0</ele><time>2026-03-29T13:03:43.997Z</time></trkpt><trkpt lat="45.66727" lon="8.1095983"><ele>1338.0</ele><time>2026-03-29T13:03:44.998Z</time></trkpt><trkpt lat="45.667185" lon="8.1094433"><ele>1338.0</ele><time>2026-03-29T13:03:45.997Z</time></trkpt><trkpt lat="45.6670667" lon="8.1093133"><ele>1338.0</ele><time>2026-03-29T13:03:46.998Z</time></trkpt><trkpt lat="45.6669417" lon="8.1092067"><ele>1338.0</ele><time>2026-03-29T13:03:47.997Z</time></trkpt><trkpt lat="45.6667867" lon="8.1091233"><ele>1338.0</ele><time>2026-03-29T13:03:48.998Z</time></trkpt><trkpt lat="45.6665883" lon="8.1090633"><ele>1338.0</ele><time>2026-03-29T13:03:49.998Z</time></trkpt><trkpt lat="45.6663733" lon="8.1090733"><ele>1348.0</ele><time>2026-03-29T13:03:50.997Z</time></trkpt><trkpt lat="45.666175" lon="8.1090233"><ele>1358.0</ele><time>2026-03-29T13:03:51.997Z</time></trkpt><trkpt lat="45.6659933" lon="8.1089633"><ele>1368.0</ele><time>2026-03-29T13:03:52.998Z</time></trkpt><trkpt lat="45.6658317" lon="8.1089017"><ele>1368.0</ele><time>2026-03-29T13:03:53.997Z</time></trkpt><trkpt lat="45.6657" lon="8.108805"><ele>1368.0</ele><time>2026-03-29T13:03:54.998Z</time></trkpt><trkpt lat="45.6655783" lon="8.108685"><ele>1368.0</ele><time>2026-03-29T13:03:55.997Z</time></trkpt><trkpt lat="45.6654833" lon="8.1085117"><ele>1368.0</ele><time>2026-03-29T13:03:56.998Z</time></trkpt><trkpt lat="45.6654" lon="8.1082983"><ele>1368.0</ele><time>2026-03-29T13:03:57.998Z</time></trkpt><trkpt lat="45.6653117" lon="8.1080883"><ele>1368.0</ele><time>2026-03-29T13:03:58.998Z</time></trkpt><trkpt lat="45.6652533" lon="8.1078583"><ele>1365.0</ele><time>2026-03-29T13:03:59.997Z</time></trkpt><trkpt lat="45.6651983" lon="8.107675"><ele>1362.0</ele><time>2026-03-29T13:04:00.998Z</time></trkpt><trkpt lat="45.6651517" lon="8.107485"><ele>1359.0</ele><time>2026-03-29T13:04:01.998Z</time></trkpt><trkpt lat="45.6651467" lon="8.1072467"><ele>1356.0</ele><time>2026-03-29T13:04:02.998Z</time></trkpt><trkpt lat="45.6651133" lon="8.1070283"><ele>1356.0</ele><time>2026-03-29T13:04:03.997Z</time></trkpt><trkpt lat="45.6650633" lon="8.1068033"><ele>1356.0</ele><time>2026-03-29T13:04:04.998Z</time></trkpt><trkpt lat="45.665025" lon="8.1065717"><ele>1356.0</ele><time>2026-03-29T13:04:05.998Z</time></trkpt><trkpt lat="45.6649867" lon="8.10634"><ele>1363.3333333333333</ele><time>2026-03-29T13:04:06.998Z</time></trkpt><trkpt lat="45.66497" lon="8.1061117"><ele>1370.6666666666665</ele><time>2026-03-29T13:04:07.998Z</time></trkpt><trkpt lat="45.6649617" lon="8.1058783"><ele>1378.0</ele><time>2026-03-29T13:04:08.998Z</time></trkpt><trkpt lat="45.664955" lon="8.1056433"><ele>1382.0</ele><time>2026-03-29T13:04:09.998Z</time></trkpt><trkpt lat="45.6649517" lon="8.1054017"><ele>1386.0</ele><time>2026-03-29T13:04:10.998Z</time></trkpt><trkpt lat="45.6649583" lon="8.1051633"><ele>1390.0</ele><time>2026-03-29T13:04:11.998Z</time></trkpt><trkpt lat="45.6649567" lon="8.104935"><ele>1390.3333333333333</ele><time>2026-03-29T13:04:12.998Z</time></trkpt><trkpt lat="45.6649567" lon="8.1047033"><ele>1390.6666666666667</ele><time>2026-03-29T13:04:13.998Z</time></trkpt><trkpt lat="45.6649567" lon="8.1044717"><ele>1391.0</ele><time>2026-03-29T13:04:14.998Z</time></trkpt><trkpt lat="45.664705" lon="8.1035567"><ele>1395.3333333333335</ele><time>2026-03-29T13:04:21.001Z</time></trkpt><trkpt lat="45.6646533" lon="8.1034667"><ele>1399.6666666666667</ele><time>2026-03-29T13:04:22.001Z</time></trkpt><trkpt lat="45.6645733" lon="8.1032617"><ele>1404.0</ele><time>2026-03-29T13:04:23Z</time></trkpt><trkpt lat="45.6645183" lon="8.10298"><ele>1410.6666666666667</ele><time>2026-03-29T13:04:24.001Z</time></trkpt><trkpt lat="45.6644483" lon="8.1026917"><ele>1417.3333333333335</ele><time>2026-03-29T13:04:25.001Z</time></trkpt><trkpt lat="45.6643717" lon="8.102395"><ele>1424.0</ele><time>2026-03-29T13:04:26Z</time></trkpt><trkpt lat="45.6642933" lon="8.1020883"><ele>1424.0</ele><time>2026-03-29T13:04:27Z</time></trkpt><trkpt lat="45.6642133" lon="8.1017567"><ele>1424.0</ele><time>2026-03-29T13:04:28Z</time></trkpt><trkpt lat="45.6641267" lon="8.10145"><ele>1433.5</ele><time>2026-03-29T13:04:29.001Z</time></trkpt><trkpt lat="45.664045" lon="8.10113"><ele>1443.0</ele><time>2026-03-29T13:04:30.001Z</time></trkpt><trkpt lat="45.66397" lon="8.1008283"><ele>1443.6666666666667</ele><time>2026-03-29T13:04:31Z</time></trkpt><trkpt lat="45.6638983" lon="8.100535"><ele>1444.3333333333335</ele><time>2026-03-29T13:04:32.001Z</time></trkpt><trkpt lat="45.663825" lon="8.1002417"><ele>1445.0</ele><time>2026-03-29T13:04:33.001Z</time></trkpt><trkpt lat="45.6636033" lon="8.0996333"><ele>1437.6666666666667</ele><time>2026-03-29T13:04:36.003Z</time></trkpt><trkpt lat="45.663535" lon="8.0994033"><ele>1430.3333333333333</ele><time>2026-03-29T13:04:37.003Z</time></trkpt><trkpt lat="45.66345" lon="8.0990767"><ele>1423.0</ele><time>2026-03-29T13:04:38.002Z</time></trkpt><trkpt lat="45.663365" lon="8.098855"><ele>1423.0</ele><time>2026-03-29T13:04:39.003Z</time></trkpt><trkpt lat="45.66326" lon="8.0986983"><ele>1423.0</ele><time>2026-03-29T13:04:40.003Z</time></trkpt><trkpt lat="45.6631267" lon="8.0985867"><ele>1423.0</ele><time>2026-03-29T13:04:41.002Z</time></trkpt><trkpt lat="45.6629667" lon="8.0985017"><ele>1423.0</ele><time>2026-03-29T13:04:42.003Z</time></trkpt><trkpt lat="45.6628133" lon="8.09842"><ele>1423.0</ele><time>2026-03-29T13:04:43.002Z</time></trkpt><trkpt lat="45.6626533" lon="8.0983433"><ele>1423.0</ele><time>2026-03-29T13:04:44.003Z</time></trkpt><trkpt lat="45.6625" lon="8.098265"><ele>1422.75</ele><time>2026-03-29T13:04:45.003Z</time></trkpt><trkpt lat="45.662355" lon="8.098195"><ele>1422.5</ele><time>2026-03-29T13:04:46.002Z</time></trkpt><trkpt lat="45.66224" lon="8.0981217"><ele>1422.25</ele><time>2026-03-29T13:04:47.003Z</time></trkpt><trkpt lat="45.6621483" lon="8.0980483"><ele>1422.0</ele><time>2026-03-29T13:04:48.003Z</time></trkpt><trkpt lat="45.6620667" lon="8.0979317"><ele>1422.0</ele><time>2026-03-29T13:04:49.003Z</time></trkpt><trkpt lat="45.6620267" lon="8.0978083"><ele>1422.0</ele><time>2026-03-29T13:04:50.003Z</time></trkpt><trkpt lat="45.6620417" lon="8.0976983"><ele>1422.0</ele><time>2026-03-29T13:04:51.002Z</time></trkpt><trkpt lat="45.6620783" lon="8.0975883"><ele>1422.0</ele><time>2026-03-29T13:04:52.003Z</time></trkpt><trkpt lat="45.662135" lon="8.0974717"><ele>1422.0</ele><time>2026-03-29T13:04:53.002Z</time></trkpt><trkpt lat="45.6622233" lon="8.0973333"><ele>1418.0</ele><time>2026-03-29T13:04:54.003Z</time></trkpt><trkpt lat="45.66237" lon="8.0971983"><ele>1414.0</ele><time>2026-03-29T13:04:55.002Z</time></trkpt><trkpt lat="45.6625183" lon="8.097065"><ele>1410.0</ele><time>2026-03-29T13:04:56.002Z</time></trkpt><trkpt lat="45.6626617" lon="8.0969367"><ele>1422.0</ele><time>2026-03-29T13:04:57.003Z</time></trkpt><trkpt lat="45.6627983" lon="8.0968033"><ele>1434.0</ele><time>2026-03-29T13:04:58.003Z</time></trkpt><trkpt lat="45.6629217" lon="8.0966567"><ele>1446.0</ele><time>2026-03-29T13:04:59.002Z</time></trkpt><trkpt lat="45.6630183" lon="8.0964983"><ele>1446.0</ele><time>2026-03-29T13:05:00.003Z</time></trkpt><trkpt lat="45.6630617" lon="8.0963033"><ele>1446.0</ele><time>2026-03-29T13:05:01.002Z</time></trkpt><trkpt lat="45.6630733" lon="8.096075"><ele>1446.0</ele><time>2026-03-29T13:05:02.003Z</time></trkpt><trkpt lat="45.6630883" lon="8.0958317"><ele>1449.6666666666667</ele><time>2026-03-29T13:05:03.003Z</time></trkpt><trkpt lat="45.6630917" lon="8.0955367"><ele>1453.3333333333335</ele><time>2026-03-29T13:05:04.003Z</time></trkpt><trkpt lat="45.6630933" lon="8.0952683"><ele>1457.0</ele><time>2026-03-29T13:05:05.002Z</time></trkpt><trkpt lat="45.6630767" lon="8.0950367"><ele>1462.3333333333335</ele><time>2026-03-29T13:05:06.003Z</time></trkpt><trkpt lat="45.6630333" lon="8.094815"><ele>1467.6666666666667</ele><time>2026-03-29T13:05:07.002Z</time></trkpt><trkpt lat="45.6629467" lon="8.0946183"><ele>1473.0</ele><time>2026-03-29T13:05:08.003Z</time></trkpt><trkpt lat="45.6628533" lon="8.094445"><ele>1466.75</ele><time>2026-03-29T13:05:09.002Z</time></trkpt><trkpt lat="45.66278" lon="8.09429"><ele>1460.5</ele><time>2026-03-29T13:05:10.003Z</time></trkpt><trkpt lat="45.6627217" lon="8.0941083"><ele>1454.25</ele><time>2026-03-29T13:05:11.002Z</time></trkpt><trkpt lat="45.6626783" lon="8.0938983"><ele>1448.0</ele><time>2026-03-29T13:05:12.002Z</time></trkpt><trkpt lat="45.6626333" lon="8.0936783"><ele>1448.0</ele><time>2026-03-29T13:05:13.003Z</time></trkpt><trkpt lat="45.662575" lon="8.093445"><ele>1448.0</ele><time>2026-03-29T13:05:14.003Z</time></trkpt><trkpt lat="45.662485" lon="8.0932117"><ele>1448.0</ele><time>2026-03-29T13:05:15.003Z</time></trkpt><trkpt lat="45.66239" lon="8.0929783"><ele>1457.0</ele><time>2026-03-29T13:05:16.002Z</time></trkpt><trkpt lat="45.6623017" lon="8.0927633"><ele>1466.0</ele><time>2026-03-29T13:05:17.003Z</time></trkpt><trkpt lat="45.6621933" lon="8.09257"><ele>1475.0</ele><time>2026-03-29T13:05:18.003Z</time></trkpt><trkpt lat="45.6620833" lon="8.09242"><ele>1477.75</ele><time>2026-03-29T13:05:19.003Z</time></trkpt><trkpt lat="45.6620067" lon="8.09227"><ele>1480.5</ele><time>2026-03-29T13:05:20.003Z</time></trkpt><trkpt lat="45.6619483" lon="8.0920817"><ele>1483.25</ele><time>2026-03-29T13:05:21.003Z</time></trkpt><trkpt lat="45.661915" lon="8.09189"><ele>1486.0</ele><time>2026-03-29T13:05:22.003Z</time></trkpt><trkpt lat="45.6619" lon="8.091695"><ele>1486.5</ele><time>2026-03-29T13:05:23.003Z</time></trkpt><trkpt lat="45.6619217" lon="8.0914967"><ele>1487.0</ele><time>2026-03-29T13:05:24.003Z</time></trkpt><trkpt lat="45.6619617" lon="8.09129"><ele>1487.5</ele><time>2026-03-29T13:05:25.003Z</time></trkpt><trkpt lat="45.661985" lon="8.0910817"><ele>1488.0</ele><time>2026-03-29T13:05:26.003Z</time></trkpt><trkpt lat="45.6619617" lon="8.09087"><ele>1480.25</ele><time>2026-03-29T13:05:27.003Z</time></trkpt><trkpt lat="45.6619033" lon="8.0906683"><ele>1472.5</ele><time>2026-03-29T13:05:28.003Z</time></trkpt><trkpt lat="45.6618433" lon="8.0904767"><ele>1464.75</ele><time>2026-03-29T13:05:29.002Z</time></trkpt><trkpt lat="45.6617983" lon="8.09028"><ele>1457.0</ele><time>2026-03-29T13:05:30.003Z</time></trkpt><trkpt lat="45.6617967" lon="8.090075"><ele>1458.0</ele><time>2026-03-29T13:05:31.003Z</time></trkpt><trkpt lat="45.661805" lon="8.08988"><ele>1459.0</ele><time>2026-03-29T13:05:32.003Z</time></trkpt><trkpt lat="45.661835" lon="8.0896783"><ele>1460.0</ele><time>2026-03-29T13:05:33.003Z</time></trkpt><trkpt lat="45.66188" lon="8.08947"><ele>1461.0</ele><time>2026-03-29T13:05:34.003Z</time></trkpt><trkpt lat="45.6619033" lon="8.0892833"><ele>1461.0</ele><time>2026-03-29T13:05:35.002Z</time></trkpt><trkpt lat="45.66191" lon="8.0891133"><ele>1461.0</ele><time>2026-03-29T13:05:36.002Z</time></trkpt><trkpt lat="45.6619067" lon="8.088915"><ele>1461.0</ele><time>2026-03-29T13:05:37.003Z</time></trkpt><trkpt lat="45.6618874" lon="8.0887283"><ele>1461.0</ele><time>2026-03-29T13:05:38.003Z</time></trkpt><trkpt lat="45.6618581" lon="8.0885351"><ele>1464.75</ele><time>2026-03-29T13:05:39.002Z</time></trkpt><trkpt lat="45.6618292" lon="8.0883423"><ele>1468.5</ele><time>2026-03-29T13:05:40.003Z</time></trkpt><trkpt lat="45.661817" lon="8.088151"><ele>1472.25</ele><time>2026-03-29T13:05:41.003Z</time></trkpt><trkpt lat="45.6618222" lon="8.087951"><ele>1476.0</ele><time>2026-03-29T13:05:42.002Z</time></trkpt><trkpt lat="45.6618334" lon="8.0877593"><ele>1476.0</ele><time>2026-03-29T13:05:43.002Z</time></trkpt><trkpt lat="45.661864" lon="8.0875893"><ele>1476.0</ele><time>2026-03-29T13:05:44.003Z</time></trkpt><trkpt lat="45.6619226" lon="8.0874475"><ele>1476.0</ele><time>2026-03-29T13:05:45.003Z</time></trkpt><trkpt lat="45.6619895" lon="8.0873122"><ele>1476.0</ele><time>2026-03-29T13:05:46.003Z</time></trkpt><trkpt lat="45.6620642" lon="8.0871955"><ele>1477.8</ele><time>2026-03-29T13:05:47.003Z</time></trkpt><trkpt lat="45.6621348" lon="8.0870874"><ele>1479.6</ele><time>2026-03-29T13:05:48.003Z</time></trkpt><trkpt lat="45.6622008" lon="8.0869815"><ele>1481.4</ele><time>2026-03-29T13:05:49.003Z</time></trkpt><trkpt lat="45.662257" lon="8.0868809"><ele>1483.2</ele><time>2026-03-29T13:05:50.003Z</time></trkpt><trkpt lat="45.6623084" lon="8.0867843"><ele>1485.0</ele><time>2026-03-29T13:05:51.003Z</time></trkpt><trkpt lat="45.6623588" lon="8.086692"><ele>1485.0</ele><time>2026-03-29T13:05:52.002Z</time></trkpt><trkpt lat="45.6624033" lon="8.0866087"><ele>1485.0</ele><time>2026-03-29T13:05:53.003Z</time></trkpt><trkpt lat="45.662441" lon="8.086528"><ele>1485.0</ele><time>2026-03-29T13:05:54.003Z</time></trkpt><trkpt lat="45.662497" lon="8.0863683"><ele>1485.0</ele><time>2026-03-29T13:05:56.002Z</time></trkpt><trkpt lat="45.6625041" lon="8.0862033"><ele>1485.0</ele><time>2026-03-29T13:05:58.003Z</time></trkpt><trkpt lat="45.6624846" lon="8.0860549"><ele>1484.8</ele><time>2026-03-29T13:06:00.002Z</time></trkpt><trkpt lat="45.6624638" lon="8.0859201"><ele>1484.6</ele><time>2026-03-29T13:06:02.002Z</time></trkpt><trkpt lat="45.6624536" lon="8.0857922"><ele>1484.4</ele><time>2026-03-29T13:06:04.003Z</time></trkpt><trkpt lat="45.6624183" lon="8.0856658"><ele>1484.2</ele><time>2026-03-29T13:06:06.002Z</time></trkpt><trkpt lat="45.6623578" lon="8.0855234"><ele>1484.0</ele><time>2026-03-29T13:06:08.002Z</time></trkpt><trkpt lat="45.662323" lon="8.0854401"><ele>1484.0</ele><time>2026-03-29T13:06:09.003Z</time></trkpt><trkpt lat="45.6622927" lon="8.0853469"><ele>1484.0</ele><time>2026-03-29T13:06:10.003Z</time></trkpt><trkpt lat="45.662264" lon="8.0852483"><ele>1484.0</ele><time>2026-03-29T13:06:11.003Z</time></trkpt><trkpt lat="45.6622441" lon="8.0851409"><ele>1484.0</ele><time>2026-03-29T13:06:12.003Z</time></trkpt><trkpt lat="45.6622406" lon="8.0850238"><ele>1484.0</ele><time>2026-03-29T13:06:13.003Z</time></trkpt><trkpt lat="45.6622456" lon="8.084908"><ele>1484.0</ele><time>2026-03-29T13:06:14.003Z</time></trkpt><trkpt lat="45.6622573" lon="8.0847886"><ele>1483.8333333333335</ele><time>2026-03-29T13:06:15.003Z</time></trkpt><trkpt lat="45.6622741" lon="8.0846729"><ele>1483.6666666666667</ele><time>2026-03-29T13:06:16.003Z</time></trkpt><trkpt lat="45.6622896" lon="8.0845728"><ele>1483.5</ele><time>2026-03-29T13:06:17.003Z</time></trkpt><trkpt lat="45.6623079" lon="8.0844862"><ele>1483.3333333333333</ele><time>2026-03-29T13:06:18.003Z</time></trkpt><trkpt lat="45.6623531" lon="8.0843419"><ele>1483.1666666666665</ele><time>2026-03-29T13:06:20.002Z</time></trkpt><trkpt lat="45.6624341" lon="8.0842132"><ele>1483.0</ele><time>2026-03-29T13:06:22.003Z</time></trkpt><trkpt lat="45.6624864" lon="8.0841628"><ele>1483.0</ele><time>2026-03-29T13:06:23.002Z</time></trkpt><trkpt lat="45.662545" lon="8.0841288"><ele>1483.0</ele><time>2026-03-29T13:06:24.003Z</time></trkpt><trkpt lat="45.662611" lon="8.0841066"><ele>1483.0</ele><time>2026-03-29T13:06:25.003Z</time></trkpt><trkpt lat="45.6626834" lon="8.0840838"><ele>1483.0</ele><time>2026-03-29T13:06:26.003Z</time></trkpt><trkpt lat="45.662746" lon="8.0840696"><ele>1483.0</ele><time>2026-03-29T13:06:27.003Z</time></trkpt><trkpt lat="45.6628534" lon="8.0840513"><ele>1483.0</ele><time>2026-03-29T13:06:29.003Z</time></trkpt><trkpt lat="45.6629247" lon="8.0840392"><ele>1483.0</ele><time>2026-03-29T13:06:31.002Z</time></trkpt><trkpt lat="45.662992" lon="8.0840256"><ele>1483.3333333333333</ele><time>2026-03-29T13:06:33.003Z</time></trkpt><trkpt lat="45.6630583" lon="8.0839973"><ele>1483.6666666666665</ele><time>2026-03-29T13:06:35.003Z</time></trkpt><trkpt lat="45.6631164" lon="8.0839432"><ele>1484.0</ele><time>2026-03-29T13:06:37.002Z</time></trkpt><trkpt lat="45.6631892" lon="8.083899"><ele>1484.3333333333333</ele><time>2026-03-29T13:06:40.002Z</time></trkpt><trkpt lat="45.6632867" lon="8.083885"><ele>1484.6666666666667</ele><time>2026-03-29T13:19:35.002Z</time></trkpt><trkpt lat="45.663305" lon="8.0837833"><ele>1485.0</ele><time>2026-03-29T13:19:36.002Z</time></trkpt><trkpt lat="45.6633333" lon="8.08365"><ele>1485.0</ele><time>2026-03-29T13:19:37.002Z</time></trkpt><trkpt lat="45.6633617" lon="8.0834967"><ele>1485.0</ele><time>2026-03-29T13:19:38.002Z</time></trkpt><trkpt lat="45.6633967" lon="8.083345"><ele>1485.0</ele><time>2026-03-29T13:19:39.002Z</time></trkpt><trkpt lat="45.6634133" lon="8.083205"><ele>1485.0</ele><time>2026-03-29T13:19:40.002Z</time></trkpt><trkpt lat="45.6634167" lon="8.083075"><ele>1485.0</ele><time>2026-03-29T13:19:41.002Z</time></trkpt><trkpt lat="45.6634267" lon="8.0829483"><ele>1485.8</ele><time>2026-03-29T13:19:42.002Z</time></trkpt><trkpt lat="45.663435" lon="8.0828133"><ele>1486.6</ele><time>2026-03-29T13:19:43.002Z</time></trkpt><trkpt lat="45.6634367" lon="8.0826833"><ele>1487.4</ele><time>2026-03-29T13:19:44.002Z</time></trkpt><trkpt lat="45.6634317" lon="8.0825483"><ele>1488.2</ele><time>2026-03-29T13:19:45.002Z</time></trkpt><trkpt lat="45.66342" lon="8.08241"><ele>1489.0</ele><time>2026-03-29T13:19:46.002Z</time></trkpt><trkpt lat="45.66339" lon="8.0822617"><ele>1490.0</ele><time>2026-03-29T13:19:47.002Z</time></trkpt><trkpt lat="45.6633717" lon="8.08211"><ele>1491.0</ele><time>2026-03-29T13:19:48.001Z</time></trkpt><trkpt lat="45.6633583" lon="8.08197"><ele>1492.0</ele><time>2026-03-29T13:19:49.002Z</time></trkpt><trkpt lat="45.6633367" lon="8.0818367"><ele>1493.0</ele><time>2026-03-29T13:19:50.002Z</time></trkpt><trkpt lat="45.663325" lon="8.0816983"><ele>1494.0</ele><time>2026-03-29T13:19:51.002Z</time></trkpt><trkpt lat="45.6633283" lon="8.081525"><ele>1495.75</ele><time>2026-03-29T13:19:52.002Z</time></trkpt><trkpt lat="45.6633433" lon="8.08136"><ele>1497.5</ele><time>2026-03-29T13:19:53.002Z</time></trkpt><trkpt lat="45.66335" lon="8.08118"><ele>1499.25</ele><time>2026-03-29T13:19:54.002Z</time></trkpt><trkpt lat="45.66332" lon="8.0810083"><ele>1501.0</ele><time>2026-03-29T13:19:55.001Z</time></trkpt><trkpt lat="45.66326" lon="8.0808483"><ele>1505.5</ele><time>2026-03-29T13:19:56.001Z</time></trkpt><trkpt lat="45.6631583" lon="8.0807433"><ele>1510.0</ele><time>2026-03-29T13:19:57.002Z</time></trkpt><trkpt lat="45.6630733" lon="8.0806317"><ele>1514.5</ele><time>2026-03-29T13:19:58.002Z</time></trkpt><trkpt lat="45.66298" lon="8.0805333"><ele>1519.0</ele><time>2026-03-29T13:19:59.002Z</time></trkpt><trkpt lat="45.6628867" lon="8.0804183"><ele>1519.0</ele><time>2026-03-29T13:20:00.002Z</time></trkpt><trkpt lat="45.6628067" lon="8.08029"><ele>1519.0</ele><time>2026-03-29T13:20:01.002Z</time></trkpt><trkpt lat="45.6627317" lon="8.0801583"><ele>1519.0</ele><time>2026-03-29T13:20:02.002Z</time></trkpt><trkpt lat="45.66266" lon="8.0800267"><ele>1519.0</ele><time>2026-03-29T13:20:03.002Z</time></trkpt><trkpt lat="45.662585" lon="8.07989"><ele>1511.0</ele><time>2026-03-29T13:20:04.002Z</time></trkpt><trkpt lat="45.6625083" lon="8.0797483"><ele>1503.0</ele><time>2026-03-29T13:20:05.002Z</time></trkpt><trkpt lat="45.6624467" lon="8.0795967"><ele>1495.0</ele><time>2026-03-29T13:20:06.002Z</time></trkpt><trkpt lat="45.6623883" lon="8.0794367"><ele>1487.0</ele><time>2026-03-29T13:20:07.002Z</time></trkpt><trkpt lat="45.662345" lon="8.079275"><ele>1487.0</ele><time>2026-03-29T13:20:08.002Z</time></trkpt><trkpt lat="45.6623033" lon="8.0791233"><ele>1487.0</ele><time>2026-03-29T13:20:09.001Z</time></trkpt><trkpt lat="45.6622933" lon="8.0789533"><ele>1487.0</ele><time>2026-03-29T13:20:10.002Z</time></trkpt><trkpt lat="45.6623033" lon="8.0787783"><ele>1487.0</ele><time>2026-03-29T13:20:11.001Z</time></trkpt><trkpt lat="45.6623383" lon="8.0786183"><ele>1487.0</ele><time>2026-03-29T13:20:12.001Z</time></trkpt><trkpt lat="45.66238" lon="8.078455"><ele>1487.0</ele><time>2026-03-29T13:20:13.002Z</time></trkpt><trkpt lat="45.6624133" lon="8.078285"><ele>1487.0</ele><time>2026-03-29T13:20:14.001Z</time></trkpt><trkpt lat="45.6624183" lon="8.0780983"><ele>1487.0</ele><time>2026-03-29T13:20:15.002Z</time></trkpt><trkpt lat="45.66239" lon="8.077935"><ele>1489.0</ele><time>2026-03-29T13:20:16.002Z</time></trkpt><trkpt lat="45.6623433" lon="8.077785"><ele>1491.0</ele><time>2026-03-29T13:20:17.001Z</time></trkpt><trkpt lat="45.6622833" lon="8.07763"><ele>1493.0</ele><time>2026-03-29T13:20:18.002Z</time></trkpt><trkpt lat="45.66221" lon="8.0774617"><ele>1495.0</ele><time>2026-03-29T13:20:19.002Z</time></trkpt><trkpt lat="45.6621167" lon="8.0772833"><ele>1490.5</ele><time>2026-03-29T13:20:20.002Z</time></trkpt><trkpt lat="45.6620183" lon="8.0771283"><ele>1486.0</ele><time>2026-03-29T13:20:21.002Z</time></trkpt><trkpt lat="45.66193" lon="8.0769883"><ele>1481.5</ele><time>2026-03-29T13:20:22.001Z</time></trkpt><trkpt lat="45.6618283" lon="8.0768167"><ele>1477.0</ele><time>2026-03-29T13:20:23.001Z</time></trkpt><trkpt lat="45.6617333" lon="8.07663"><ele>1483.0</ele><time>2026-03-29T13:20:24.001Z</time></trkpt><trkpt lat="45.661615" lon="8.0764717"><ele>1489.0</ele><time>2026-03-29T13:20:25.002Z</time></trkpt><trkpt lat="45.661495" lon="8.076335"><ele>1495.0</ele><time>2026-03-29T13:20:26.001Z</time></trkpt><trkpt lat="45.6613733" lon="8.0762133"><ele>1495.0</ele><time>2026-03-29T13:20:27.002Z</time></trkpt><trkpt lat="45.6612483" lon="8.0761083"><ele>1495.0</ele><time>2026-03-29T13:20:28.002Z</time></trkpt><trkpt lat="45.6611283" lon="8.0760167"><ele>1495.0</ele><time>2026-03-29T13:20:29.001Z</time></trkpt><trkpt lat="45.6610283" lon="8.07592"><ele>1495.0</ele><time>2026-03-29T13:20:30.001Z</time></trkpt><trkpt lat="45.6609583" lon="8.0758617"><ele>1490.0</ele><time>2026-03-29T13:20:31.001Z</time></trkpt><trkpt lat="45.660915" lon="8.075765"><ele>1485.0</ele><time>2026-03-29T13:20:32.002Z</time></trkpt><trkpt lat="45.660875" lon="8.07568"><ele>1480.0</ele><time>2026-03-29T13:20:33.002Z</time></trkpt><trkpt lat="45.6608517" lon="8.075595"><ele>1475.0</ele><time>2026-03-29T13:20:34.002Z</time></trkpt><trkpt lat="45.6608683" lon="8.07543"><ele>1470.0</ele><time>2026-03-29T13:20:36.001Z</time></trkpt><trkpt lat="45.6609017" lon="8.0752667"><ele>1470.0</ele><time>2026-03-29T13:20:38.001Z</time></trkpt><trkpt lat="45.660955" lon="8.0751317"><ele>1470.0</ele><time>2026-03-29T13:20:40.002Z</time></trkpt><trkpt lat="45.6610317" lon="8.075"><ele>1470.0</ele><time>2026-03-29T13:20:42Z</time></trkpt><trkpt lat="45.661075" lon="8.0749333"><ele>1470.0</ele><time>2026-03-29T13:20:43Z</time></trkpt><trkpt lat="45.6611533" lon="8.074805"><ele>1470.0</ele><time>2026-03-29T13:20:45.001Z</time></trkpt><trkpt lat="45.6612067" lon="8.0747467"><ele>1470.0</ele><time>2026-03-29T13:20:46.001Z</time></trkpt><trkpt lat="45.6612583" lon="8.07469"><ele>1470.0</ele><time>2026-03-29T13:20:47.001Z</time></trkpt><trkpt lat="45.6613117" lon="8.0746283"><ele>1470.0</ele><time>2026-03-29T13:20:48Z</time></trkpt><trkpt lat="45.6613683" lon="8.0745667"><ele>1470.0</ele><time>2026-03-29T13:20:49.001Z</time></trkpt><trkpt lat="45.66143" lon="8.0745017"><ele>1470.0</ele><time>2026-03-29T13:20:50.001Z</time></trkpt><trkpt lat="45.6614883" lon="8.0744333"><ele>1470.0</ele><time>2026-03-29T13:20:51.001Z</time></trkpt><trkpt lat="45.6615533" lon="8.0743683"><ele>1470.0</ele><time>2026-03-29T13:20:52.001Z</time></trkpt><trkpt lat="45.661615" lon="8.0743067"><ele>1470.0</ele><time>2026-03-29T13:20:53.001Z</time></trkpt><trkpt lat="45.6616817" lon="8.0742433"><ele>1470.0</ele><time>2026-03-29T13:20:54.001Z</time></trkpt><trkpt lat="45.6617517" lon="8.0741833"><ele>1470.0</ele><time>2026-03-29T13:20:55.001Z</time></trkpt><trkpt lat="45.661835" lon="8.07412"><ele>1470.0</ele><time>2026-03-29T13:20:56.001Z</time></trkpt><trkpt lat="45.661915" lon="8.0740617"><ele>1470.0</ele><time>2026-03-29T13:20:57.001Z</time></trkpt><trkpt lat="45.662" lon="8.0740017"><ele>1470.0</ele><time>2026-03-29T13:20:58.001Z</time></trkpt><trkpt lat="45.6620783" lon="8.0739417"><ele>1469.2</ele><time>2026-03-29T13:20:59.001Z</time></trkpt><trkpt lat="45.6621667" lon="8.0738683"><ele>1468.4</ele><time>2026-03-29T13:21:00.001Z</time></trkpt><trkpt lat="45.6622517" lon="8.0738033"><ele>1467.6</ele><time>2026-03-29T13:21:01Z</time></trkpt><trkpt lat="45.66234" lon="8.0737367"><ele>1466.8</ele><time>2026-03-29T13:21:02.001Z</time></trkpt><trkpt lat="45.6624333" lon="8.073665"><ele>1466.0</ele><time>2026-03-29T13:21:03.001Z</time></trkpt><trkpt lat="45.662525" lon="8.0736017"><ele>1466.0</ele><time>2026-03-29T13:21:04.001Z</time></trkpt><trkpt lat="45.6626217" lon="8.073535"><ele>1466.0</ele><time>2026-03-29T13:21:05.001Z</time></trkpt><trkpt lat="45.6627167" lon="8.07345"><ele>1466.0</ele><time>2026-03-29T13:21:06.001Z</time></trkpt><trkpt lat="45.6628" lon="8.07336"><ele>1466.0</ele><time>2026-03-29T13:21:07.001Z</time></trkpt><trkpt lat="45.66287" lon="8.0732467"><ele>1466.0</ele><time>2026-03-29T13:21:08.001Z</time></trkpt><trkpt lat="45.66293" lon="8.0731217"><ele>1468.0</ele><time>2026-03-29T13:21:09Z</time></trkpt><trkpt lat="45.6629883" lon="8.0729833"><ele>1470.0</ele><time>2026-03-29T13:21:10Z</time></trkpt><trkpt lat="45.6630433" lon="8.072825"><ele>1472.0</ele><time>2026-03-29T13:21:11Z</time></trkpt><trkpt lat="45.663085" lon="8.0726667"><ele>1474.0</ele><time>2026-03-29T13:21:12.001Z</time></trkpt><trkpt lat="45.66312" lon="8.0725067"><ele>1470.75</ele><time>2026-03-29T13:21:13.001Z</time></trkpt><trkpt lat="45.663155" lon="8.0723417"><ele>1467.5</ele><time>2026-03-29T13:21:14.001Z</time></trkpt><trkpt lat="45.6631967" lon="8.0721717"><ele>1464.25</ele><time>2026-03-29T13:21:15.001Z</time></trkpt><trkpt lat="45.6632367" lon="8.0720083"><ele>1461.0</ele><time>2026-03-29T13:21:16.001Z</time></trkpt><trkpt lat="45.6632783" lon="8.07186"><ele>1461.0</ele><time>2026-03-29T13:21:17Z</time></trkpt><trkpt lat="45.6633467" lon="8.0717233"><ele>1461.0</ele><time>2026-03-29T13:21:18.001Z</time></trkpt><trkpt lat="45.6634217" lon="8.071595"><ele>1461.0</ele><time>2026-03-29T13:21:19.001Z</time></trkpt><trkpt lat="45.663515" lon="8.0714983"><ele>1461.0</ele><time>2026-03-29T13:21:20Z</time></trkpt><trkpt lat="45.6635933" lon="8.0714017"><ele>1460.6</ele><time>2026-03-29T13:21:21.001Z</time></trkpt><trkpt lat="45.663665" lon="8.0713117"><ele>1460.1999999999998</ele><time>2026-03-29T13:21:22Z</time></trkpt><trkpt lat="45.6637333" lon="8.07122"><ele>1459.8000000000002</ele><time>2026-03-29T13:21:23Z</time></trkpt><trkpt lat="45.6637967" lon="8.071115"><ele>1459.4</ele><time>2026-03-29T13:21:24Z</time></trkpt><trkpt lat="45.66387" lon="8.0710083"><ele>1459.0</ele><time>2026-03-29T13:21:25Z</time></trkpt><trkpt lat="45.6639367" lon="8.0708883"><ele>1457.6666666666665</ele><time>2026-03-29T13:21:26.001Z</time></trkpt><trkpt lat="45.6639833" lon="8.07077"><ele>1456.3333333333333</ele><time>2026-03-29T13:21:27Z</time></trkpt><trkpt lat="45.6640317" lon="8.0706617"><ele>1455.0</ele><time>2026-03-29T13:21:28.001Z</time></trkpt><trkpt lat="45.6640683" lon="8.0705683"><ele>1453.6666666666667</ele><time>2026-03-29T13:21:29.001Z</time></trkpt><trkpt lat="45.6640983" lon="8.0704883"><ele>1452.3333333333335</ele><time>2026-03-29T13:21:30.001Z</time></trkpt><trkpt lat="45.6641267" lon="8.070335"><ele>1451.0</ele><time>2026-03-29T13:21:32.001Z</time></trkpt><trkpt lat="45.6641383" lon="8.0702"><ele>1451.0</ele><time>2026-03-29T13:21:34.001Z</time></trkpt><trkpt lat="45.6641733" lon="8.0701167"><ele>1451.0</ele><time>2026-03-29T13:21:36.001Z</time></trkpt><trkpt lat="45.6641183" lon="8.0700717"><ele>1451.0</ele><time>2026-03-29T13:23:52.001Z</time></trkpt><trkpt lat="45.6640417" lon="8.07005"><ele>1451.0</ele><time>2026-03-29T13:23:54.001Z</time></trkpt><trkpt lat="45.6639483" lon="8.0699917"><ele>1451.0</ele><time>2026-03-29T13:23:56.001Z</time></trkpt><trkpt lat="45.66388" lon="8.069885"><ele>1451.0</ele><time>2026-03-29T13:23:58Z</time></trkpt><trkpt lat="45.6638233" lon="8.0697683"><ele>1447.6</ele><time>2026-03-29T13:24:00.001Z</time></trkpt><trkpt lat="45.6637667" lon="8.0696317"><ele>1444.1999999999998</ele><time>2026-03-29T13:24:02.001Z</time></trkpt><trkpt lat="45.6636983" lon="8.06956"><ele>1440.8000000000002</ele><time>2026-03-29T13:24:04.001Z</time></trkpt><trkpt lat="45.6636367" lon="8.0696883"><ele>1437.4</ele><time>2026-03-29T13:24:08.001Z</time></trkpt><trkpt lat="45.6636433" lon="8.0697967"><ele>1434.0</ele><time>2026-03-29T13:24:11.001Z</time></trkpt><trkpt lat="45.6636617" lon="8.0699183"><ele>1436.4285714285713</ele><time>2026-03-29T13:24:15Z</time></trkpt><trkpt lat="45.6637017" lon="8.069995"><ele>1438.8571428571427</ele><time>2026-03-29T13:24:17Z</time></trkpt><trkpt lat="45.6637317" lon="8.070075"><ele>1441.2857142857142</ele><time>2026-03-29T13:24:19.001Z</time></trkpt><trkpt lat="45.6637567" lon="8.0701967"><ele>1443.7142857142858</ele><time>2026-03-29T13:24:22.001Z</time></trkpt><trkpt lat="45.663795" lon="8.070295"><ele>1446.142857142857</ele><time>2026-03-29T13:24:25.001Z</time></trkpt><trkpt lat="45.66383" lon="8.0703767"><ele>1448.5714285714287</ele><time>2026-03-29T13:24:28.001Z</time></trkpt><trkpt lat="45.6638417" lon="8.0704817"><ele>1451.0</ele><time>2026-03-29T13:24:31.001Z</time></trkpt><trkpt lat="45.6638683" lon="8.0705733"><ele>1451.0</ele><time>2026-03-29T13:24:34Z</time></trkpt><trkpt lat="45.66389" lon="8.070665"><ele>1451.0</ele><time>2026-03-29T13:24:37Z</time></trkpt><trkpt lat="45.6638967" lon="8.0707683"><ele>1451.0</ele><time>2026-03-29T13:24:40Z</time></trkpt><trkpt lat="45.6638683" lon="8.07085"><ele>1451.0</ele><time>2026-03-29T13:24:44.001Z</time></trkpt><trkpt lat="45.6638367" lon="8.0709767"><ele>1451.0</ele><time>2026-03-29T13:25:24.001Z</time></trkpt><trkpt lat="45.6637733" lon="8.0711367"><ele>1451.0</ele><time>2026-03-29T13:25:26Z</time></trkpt><trkpt lat="45.6637183" lon="8.07122"><ele>1450.0</ele><time>2026-03-29T13:25:27Z</time></trkpt><trkpt lat="45.6636633" lon="8.071305"><ele>1449.0</ele><time>2026-03-29T13:25:28.001Z</time></trkpt><trkpt lat="45.6636017" lon="8.0713867"><ele>1448.0</ele><time>2026-03-29T13:25:29.001Z</time></trkpt><trkpt lat="45.663525" lon="8.0714683"><ele>1447.0</ele><time>2026-03-29T13:25:30.001Z</time></trkpt><trkpt lat="45.6634517" lon="8.0715533"><ele>1446.0</ele><time>2026-03-29T13:25:31Z</time></trkpt><trkpt lat="45.6633617" lon="8.0716733"><ele>1449.75</ele><time>2026-03-29T13:25:32.001Z</time></trkpt><trkpt lat="45.66329" lon="8.0718183"><ele>1453.5</ele><time>2026-03-29T13:25:33Z</time></trkpt><trkpt lat="45.6632267" lon="8.0719867"><ele>1457.25</ele><time>2026-03-29T13:25:34Z</time></trkpt><trkpt lat="45.66317" lon="8.0721917"><ele>1461.0</ele><time>2026-03-29T13:25:35.001Z</time></trkpt><trkpt lat="45.66312" lon="8.0724267"><ele>1465.3333333333333</ele><time>2026-03-29T13:25:36.001Z</time></trkpt><trkpt lat="45.6630667" lon="8.072665"><ele>1469.6666666666665</ele><time>2026-03-29T13:25:37Z</time></trkpt><trkpt lat="45.6630017" lon="8.0728733"><ele>1474.0</ele><time>2026-03-29T13:25:38.001Z</time></trkpt><trkpt lat="45.6629167" lon="8.07307"><ele>1474.0</ele><time>2026-03-29T13:25:39.001Z</time></trkpt><trkpt lat="45.6628167" lon="8.073235"><ele>1474.0</ele><time>2026-03-29T13:25:40.001Z</time></trkpt><trkpt lat="45.6627" lon="8.073385"><ele>1474.0</ele><time>2026-03-29T13:25:41.001Z</time></trkpt><trkpt lat="45.66257" lon="8.0735117"><ele>1471.3333333333333</ele><time>2026-03-29T13:25:42Z</time></trkpt><trkpt lat="45.6624317" lon="8.0736183"><ele>1468.6666666666667</ele><time>2026-03-29T13:25:43.001Z</time></trkpt><trkpt lat="45.6622883" lon="8.0737233"><ele>1466.0</ele><time>2026-03-29T13:25:44Z</time></trkpt><trkpt lat="45.6621467" lon="8.0738183"><ele>1466.0</ele><time>2026-03-29T13:25:45Z</time></trkpt><trkpt lat="45.66201" lon="8.073935"><ele>1466.0</ele><time>2026-03-29T13:25:46.001Z</time></trkpt><trkpt lat="45.6618867" lon="8.0740467"><ele>1466.0</ele><time>2026-03-29T13:25:47.001Z</time></trkpt><trkpt lat="45.6617717" lon="8.07413"><ele>1466.0</ele><time>2026-03-29T13:25:48.001Z</time></trkpt><trkpt lat="45.6616533" lon="8.0742183"><ele>1467.0</ele><time>2026-03-29T13:25:49Z</time></trkpt><trkpt lat="45.6615567" lon="8.0743033"><ele>1468.0</ele><time>2026-03-29T13:25:50.001Z</time></trkpt><trkpt lat="45.6614517" lon="8.07441"><ele>1469.0</ele><time>2026-03-29T13:25:51.001Z</time></trkpt><trkpt lat="45.661355" lon="8.07452"><ele>1470.0</ele><time>2026-03-29T13:25:52Z</time></trkpt><trkpt lat="45.6612683" lon="8.0746233"><ele>1470.0</ele><time>2026-03-29T13:25:53.001Z</time></trkpt><trkpt lat="45.6611767" lon="8.07473"><ele>1470.0</ele><time>2026-03-29T13:25:54Z</time></trkpt><trkpt lat="45.661095" lon="8.0748517"><ele>1470.0</ele><time>2026-03-29T13:25:55.001Z</time></trkpt><trkpt lat="45.6610133" lon="8.0749617"><ele>1470.0</ele><time>2026-03-29T13:25:56.001Z</time></trkpt><trkpt lat="45.6609517" lon="8.0750933"><ele>1470.0</ele><time>2026-03-29T13:25:57.001Z</time></trkpt><trkpt lat="45.6609083" lon="8.0752283"><ele>1470.0</ele><time>2026-03-29T13:25:58.001Z</time></trkpt><trkpt lat="45.6608717" lon="8.0753517"><ele>1470.0</ele><time>2026-03-29T13:25:59.001Z</time></trkpt><trkpt lat="45.6608467" lon="8.0754617"><ele>1470.0</ele><time>2026-03-29T13:26:00.001Z</time></trkpt><trkpt lat="45.6608383" lon="8.0755733"><ele>1470.0</ele><time>2026-03-29T13:26:01Z</time></trkpt><trkpt lat="45.6608083" lon="8.0757017"><ele>1470.0</ele><time>2026-03-29T13:26:03.001Z</time></trkpt><trkpt lat="45.6607367" lon="8.07574"><ele>1470.0</ele><time>2026-03-29T13:26:06.001Z</time></trkpt><trkpt lat="45.6607033" lon="8.0756433"><ele>1470.0</ele><time>2026-03-29T13:26:07Z</time></trkpt><trkpt lat="45.6606767" lon="8.0755333"><ele>1470.0</ele><time>2026-03-29T13:26:08.001Z</time></trkpt><trkpt lat="45.6606867" lon="8.075385"><ele>1470.0</ele><time>2026-03-29T13:26:09.001Z</time></trkpt><trkpt lat="45.6607167" lon="8.0751983"><ele>1470.0</ele><time>2026-03-29T13:26:10Z</time></trkpt><trkpt lat="45.660765" lon="8.0749883"><ele>1470.0</ele><time>2026-03-29T13:26:11.001Z</time></trkpt><trkpt lat="45.660815" lon="8.0747833"><ele>1470.0</ele><time>2026-03-29T13:26:12.001Z</time></trkpt><trkpt lat="45.6608783" lon="8.0745783"><ele>1464.3333333333333</ele><time>2026-03-29T13:26:13.001Z</time></trkpt><trkpt lat="45.660955" lon="8.074385"><ele>1458.6666666666665</ele><time>2026-03-29T13:26:14Z</time></trkpt><trkpt lat="45.6610367" lon="8.0742167"><ele>1453.0</ele><time>2026-03-29T13:26:15.001Z</time></trkpt><trkpt lat="45.6611367" lon="8.0740483"><ele>1452.0</ele><time>2026-03-29T13:26:16.001Z</time></trkpt><trkpt lat="45.6612433" lon="8.0739"><ele>1451.0</ele><time>2026-03-29T13:26:17Z</time></trkpt><trkpt lat="45.6613783" lon="8.07376"><ele>1450.0</ele><time>2026-03-29T13:26:18.001Z</time></trkpt><trkpt lat="45.661515" lon="8.0736233"><ele>1450.0</ele><time>2026-03-29T13:26:19.001Z</time></trkpt><trkpt lat="45.6616483" lon="8.0734733"><ele>1450.0</ele><time>2026-03-29T13:26:20.001Z</time></trkpt><trkpt lat="45.6617767" lon="8.0733367"><ele>1450.0</ele><time>2026-03-29T13:26:21.001Z</time></trkpt><trkpt lat="45.6619083" lon="8.07321"><ele>1449.75</ele><time>2026-03-29T13:26:22.001Z</time></trkpt><trkpt lat="45.6620367" lon="8.0731317"><ele>1449.5</ele><time>2026-03-29T13:26:23.001Z</time></trkpt><trkpt lat="45.6621733" lon="8.07306"><ele>1449.25</ele><time>2026-03-29T13:26:24.001Z</time></trkpt><trkpt lat="45.66231" lon="8.0729667"><ele>1449.0</ele><time>2026-03-29T13:26:25.001Z</time></trkpt><trkpt lat="45.6624317" lon="8.0728333"><ele>1449.0</ele><time>2026-03-29T13:26:26.001Z</time></trkpt><trkpt lat="45.6625367" lon="8.0726733"><ele>1449.0</ele><time>2026-03-29T13:26:27.001Z</time></trkpt><trkpt lat="45.6626233" lon="8.0724983"><ele>1449.0</ele><time>2026-03-29T13:26:28.001Z</time></trkpt><trkpt lat="45.6626783" lon="8.0722983"><ele>1443.3333333333333</ele><time>2026-03-29T13:26:29.001Z</time></trkpt><trkpt lat="45.6627017" lon="8.0720717"><ele>1437.6666666666665</ele><time>2026-03-29T13:26:30.001Z</time></trkpt><trkpt lat="45.6626983" lon="8.0718483"><ele>1432.0</ele><time>2026-03-29T13:26:31.001Z</time></trkpt><trkpt lat="45.6627017" lon="8.0716183"><ele>1436.6666666666665</ele><time>2026-03-29T13:26:32Z</time></trkpt><trkpt lat="45.662715" lon="8.0714067"><ele>1441.3333333333333</ele><time>2026-03-29T13:26:33.001Z</time></trkpt><trkpt lat="45.6627683" lon="8.0711933"><ele>1446.0</ele><time>2026-03-29T13:26:34.001Z</time></trkpt><trkpt lat="45.66283" lon="8.0709767"><ele>1446.75</ele><time>2026-03-29T13:26:35.001Z</time></trkpt><trkpt lat="45.6628867" lon="8.0707717"><ele>1447.5</ele><time>2026-03-29T13:26:36.001Z</time></trkpt><trkpt lat="45.6629267" lon="8.0705867"><ele>1448.25</ele><time>2026-03-29T13:26:37.001Z</time></trkpt><trkpt lat="45.6629483" lon="8.0704017"><ele>1449.0</ele><time>2026-03-29T13:26:38Z</time></trkpt><trkpt lat="45.6629133" lon="8.0702133"><ele>1449.0</ele><time>2026-03-29T13:26:39.001Z</time></trkpt><trkpt lat="45.6628533" lon="8.070035"><ele>1449.0</ele><time>2026-03-29T13:26:40.001Z</time></trkpt><trkpt lat="45.6627517" lon="8.069855"><ele>1449.0</ele><time>2026-03-29T13:26:41.001Z</time></trkpt><trkpt lat="45.66263" lon="8.0696667"><ele>1440.0</ele><time>2026-03-29T13:26:42.001Z</time></trkpt><trkpt lat="45.66252" lon="8.0694733"><ele>1431.0</ele><time>2026-03-29T13:26:43.001Z</time></trkpt><trkpt lat="45.6624167" lon="8.069275"><ele>1422.0</ele><time>2026-03-29T13:26:44.001Z</time></trkpt><trkpt lat="45.6623267" lon="8.0690683"><ele>1422.0</ele><time>2026-03-29T13:26:45Z</time></trkpt><trkpt lat="45.6622583" lon="8.0688567"><ele>1422.0</ele><time>2026-03-29T13:26:46.001Z</time></trkpt><trkpt lat="45.6621933" lon="8.0686467"><ele>1422.0</ele><time>2026-03-29T13:26:47Z</time></trkpt><trkpt lat="45.6621533" lon="8.0684283"><ele>1421.3333333333333</ele><time>2026-03-29T13:26:48Z</time></trkpt><trkpt lat="45.6621183" lon="8.0681983"><ele>1420.6666666666665</ele><time>2026-03-29T13:26:49Z</time></trkpt><trkpt lat="45.662085" lon="8.0679583"><ele>1420.0</ele><time>2026-03-29T13:26:50Z</time></trkpt><trkpt lat="45.662075" lon="8.0677467"><ele>1420.0</ele><time>2026-03-29T13:26:51Z</time></trkpt><trkpt lat="45.6620833" lon="8.0675433"><ele>1420.0</ele><time>2026-03-29T13:26:52.001Z</time></trkpt><trkpt lat="45.6621383" lon="8.067355"><ele>1420.0</ele><time>2026-03-29T13:26:53.001Z</time></trkpt><trkpt lat="45.6621933" lon="8.0671367"><ele>1420.0</ele><time>2026-03-29T13:26:54.001Z</time></trkpt><trkpt lat="45.662225" lon="8.0669017"><ele>1419.3333333333333</ele><time>2026-03-29T13:26:55.001Z</time></trkpt><trkpt lat="45.66223" lon="8.0666467"><ele>1418.6666666666667</ele><time>2026-03-29T13:26:56.001Z</time></trkpt><trkpt lat="45.6622083" lon="8.0663817"><ele>1418.0</ele><time>2026-03-29T13:26:57.001Z</time></trkpt><trkpt lat="45.662215" lon="8.066125"><ele>1415.6666666666667</ele><time>2026-03-29T13:26:58Z</time></trkpt><trkpt lat="45.662255" lon="8.065875"><ele>1413.3333333333333</ele><time>2026-03-29T13:26:59.001Z</time></trkpt><trkpt lat="45.662275" lon="8.0655733"><ele>1411.0</ele><time>2026-03-29T13:27:00.001Z</time></trkpt><trkpt lat="45.6623067" lon="8.0652967"><ele>1406.0</ele><time>2026-03-29T13:27:01Z</time></trkpt><trkpt lat="45.6623383" lon="8.0650283"><ele>1401.0</ele><time>2026-03-29T13:27:02.001Z</time></trkpt><trkpt lat="45.6623617" lon="8.0647733"><ele>1396.0</ele><time>2026-03-29T13:27:03Z</time></trkpt><trkpt lat="45.662395" lon="8.0645133"><ele>1392.6666666666665</ele><time>2026-03-29T13:27:04.001Z</time></trkpt><trkpt lat="45.6624267" lon="8.0642567"><ele>1389.3333333333333</ele><time>2026-03-29T13:27:04.999Z</time></trkpt><trkpt lat="45.6624633" lon="8.0640017"><ele>1386.0</ele><time>2026-03-29T13:27:05.999Z</time></trkpt><trkpt lat="45.6625067" lon="8.0637633"><ele>1381.75</ele><time>2026-03-29T13:27:07Z</time></trkpt><trkpt lat="45.6625433" lon="8.0635467"><ele>1377.5</ele><time>2026-03-29T13:27:07.999Z</time></trkpt><trkpt lat="45.6625883" lon="8.063365"><ele>1373.25</ele><time>2026-03-29T13:27:09Z</time></trkpt><trkpt lat="45.66264" lon="8.063205"><ele>1369.0</ele><time>2026-03-29T13:27:10Z</time></trkpt><trkpt lat="45.662725" lon="8.063085"><ele>1368.0</ele><time>2026-03-29T13:27:11Z</time></trkpt><trkpt lat="45.6628367" lon="8.0630133"><ele>1367.0</ele><time>2026-03-29T13:27:12Z</time></trkpt><trkpt lat="45.662975" lon="8.06299"><ele>1366.0</ele><time>2026-03-29T13:27:13Z</time></trkpt><trkpt lat="45.6631117" lon="8.0629417"><ele>1365.0</ele><time>2026-03-29T13:27:14Z</time></trkpt><trkpt lat="45.6632517" lon="8.0628983"><ele>1365.0</ele><time>2026-03-29T13:27:15Z</time></trkpt><trkpt lat="45.66336" lon="8.0628567"><ele>1365.0</ele><time>2026-03-29T13:27:16Z</time></trkpt><trkpt lat="45.6634833" lon="8.0628033"><ele>1365.0</ele><time>2026-03-29T13:27:17Z</time></trkpt><trkpt lat="45.66357" lon="8.062715"><ele>1365.0</ele><time>2026-03-29T13:27:17.999Z</time></trkpt><trkpt lat="45.663645" lon="8.0625933"><ele>1367.75</ele><time>2026-03-29T13:27:18.999Z</time></trkpt><trkpt lat="45.6636867" lon="8.0624633"><ele>1370.5</ele><time>2026-03-29T13:27:20Z</time></trkpt><trkpt lat="45.6636967" lon="8.062295"><ele>1373.25</ele><time>2026-03-29T13:27:20.999Z</time></trkpt><trkpt lat="45.6636967" lon="8.0621017"><ele>1376.0</ele><time>2026-03-29T13:27:22Z</time></trkpt><trkpt lat="45.663695" lon="8.0618867"><ele>1380.3333333333335</ele><time>2026-03-29T13:27:22.999Z</time></trkpt><trkpt lat="45.66368" lon="8.0616367"><ele>1384.6666666666667</ele><time>2026-03-29T13:27:24Z</time></trkpt><trkpt lat="45.66365" lon="8.0613667"><ele>1389.0</ele><time>2026-03-29T13:27:25Z</time></trkpt><trkpt lat="45.663605" lon="8.061115"><ele>1382.0</ele><time>2026-03-29T13:27:26Z</time></trkpt><trkpt lat="45.6635733" lon="8.0608783"><ele>1375.0</ele><time>2026-03-29T13:27:26.999Z</time></trkpt><trkpt lat="45.6635217" lon="8.0606117"><ele>1368.0</ele><time>2026-03-29T13:27:28Z</time></trkpt><trkpt lat="45.6634817" lon="8.0603433"><ele>1368.0</ele><time>2026-03-29T13:27:28.999Z</time></trkpt><trkpt lat="45.66344" lon="8.0601033"><ele>1368.0</ele><time>2026-03-29T13:27:29.999Z</time></trkpt><trkpt lat="45.663375" lon="8.0598617"><ele>1368.0</ele><time>2026-03-29T13:27:31Z</time></trkpt><trkpt lat="45.663285" lon="8.05966"><ele>1375.3333333333333</ele><time>2026-03-29T13:27:31.999Z</time></trkpt><trkpt lat="45.6631683" lon="8.0594867"><ele>1382.6666666666665</ele><time>2026-03-29T13:27:33Z</time></trkpt><trkpt lat="45.6630217" lon="8.0593583"><ele>1390.0</ele><time>2026-03-29T13:27:33.999Z</time></trkpt><trkpt lat="45.6628533" lon="8.0592733"><ele>1379.3333333333333</ele><time>2026-03-29T13:27:35Z</time></trkpt><trkpt lat="45.6626717" lon="8.0592267"><ele>1368.6666666666667</ele><time>2026-03-29T13:27:35.999Z</time></trkpt><trkpt lat="45.6625233" lon="8.0592033"><ele>1358.0</ele><time>2026-03-29T13:27:36.999Z</time></trkpt><trkpt lat="45.662395" lon="8.0591383"><ele>1365.25</ele><time>2026-03-29T13:27:38Z</time></trkpt><trkpt lat="45.6623067" lon="8.0590333"><ele>1372.5</ele><time>2026-03-29T13:27:39Z</time></trkpt><trkpt lat="45.662245" lon="8.058875"><ele>1379.75</ele><time>2026-03-29T13:27:40Z</time></trkpt><trkpt lat="45.6621767" lon="8.0586933"><ele>1387.0</ele><time>2026-03-29T13:27:40.999Z</time></trkpt><trkpt lat="45.6620883" lon="8.0585333"><ele>1387.0</ele><time>2026-03-29T13:27:42Z</time></trkpt><trkpt lat="45.6619533" lon="8.0583883"><ele>1387.0</ele><time>2026-03-29T13:27:43Z</time></trkpt><trkpt lat="45.6618133" lon="8.0582433"><ele>1387.0</ele><time>2026-03-29T13:27:43.999Z</time></trkpt><trkpt lat="45.6616767" lon="8.05808"><ele>1384.3333333333333</ele><time>2026-03-29T13:27:45Z</time></trkpt><trkpt lat="45.661545" lon="8.0579167"><ele>1381.6666666666667</ele><time>2026-03-29T13:27:46Z</time></trkpt><trkpt lat="45.6614233" lon="8.057785"><ele>1379.0</ele><time>2026-03-29T13:27:47Z</time></trkpt><trkpt lat="45.6613117" lon="8.0576433"><ele>1379.0</ele><time>2026-03-29T13:27:48Z</time></trkpt><trkpt lat="45.661185" lon="8.0575517"><ele>1379.0</ele><time>2026-03-29T13:27:49Z</time></trkpt><trkpt lat="45.6610583" lon="8.0575017"><ele>1379.0</ele><time>2026-03-29T13:27:50Z</time></trkpt><trkpt lat="45.6609233" lon="8.057525"><ele>1379.0</ele><time>2026-03-29T13:27:51Z</time></trkpt><trkpt lat="45.6607833" lon="8.0576233"><ele>1371.6666666666667</ele><time>2026-03-29T13:27:51.999Z</time></trkpt><trkpt lat="45.66064" lon="8.0577533"><ele>1364.3333333333333</ele><time>2026-03-29T13:27:53Z</time></trkpt><trkpt lat="45.6605117" lon="8.0578883"><ele>1357.0</ele><time>2026-03-29T13:27:54Z</time></trkpt><trkpt lat="45.6603867" lon="8.058005"><ele>1404.0</ele><time>2026-03-29T13:27:55Z</time></trkpt><trkpt lat="45.66365" lon="8.0613667"><ele>1392.0</ele><time>2026-03-29T13:27:25Z</time></trkpt><trkpt lat="45.663605" lon="8.061115"><ele>1380.0</ele><time>2026-03-29T13:27:26Z</time></trkpt><trkpt lat="45.6635733" lon="8.0608783"><ele>1368.0</ele><time>2026-03-29T13:27:26.999Z</time></trkpt><trkpt lat="45.6635217" lon="8.0606117"><ele>1368.0</ele><time>2026-03-29T13:27:28Z</time></trkpt><trkpt lat="45.6634817" lon="8.0603433"><ele>1368.0</ele><time>2026-03-29T13:27:28.999Z</time></trkpt><trkpt lat="45.66344" lon="8.0601033"><ele>1368.0</ele><time>2026-03-29T13:27:29.999Z</time></trkpt><trkpt lat="45.663375" lon="8.0598617"><ele>1375.3333333333333</ele><time>2026-03-29T13:27:31Z</time></trkpt><trkpt lat="45.663285" lon="8.05966"><ele>1382.6666666666665</ele><time>2026-03-29T13:27:31.999Z</time></trkpt><trkpt lat="45.6631683" lon="8.0594867"><ele>1390.0</ele><time>2026-03-29T13:27:33Z</time></trkpt><trkpt lat="45.6630217" lon="8.0593583"><ele>1390.0</ele><time>2026-03-29T13:27:33.999Z</time></trkpt><trkpt lat="45.6628533" lon="8.0592733"><ele>1390.0</ele><time>2026-03-29T13:27:35Z</time></trkpt><trkpt lat="45.6626717" lon="8.0592267"><ele>1390.0</ele><time>2026-03-29T13:27:35.999Z</time></trkpt><trkpt lat="45.6625233" lon="8.0592033"><ele>1389.25</ele><time>2026-03-29T13:27:36.999Z</time></trkpt><trkpt lat="45.662395" lon="8.0591383"><ele>1388.5</ele><time>2026-03-29T13:27:38Z</time></trkpt><trkpt lat="45.6623067" lon="8.0590333"><ele>1387.75</ele><time>2026-03-29T13:27:39Z</time></trkpt><trkpt lat="45.662245" lon="8.058875"><ele>1387.0</ele><time>2026-03-29T13:27:40Z</time></trkpt><trkpt lat="45.6621767" lon="8.0586933"><ele>1387.0</ele><time>2026-03-29T13:27:40.999Z</time></trkpt><trkpt lat="45.6620883" lon="8.0585333"><ele>1387.0</ele><time>2026-03-29T13:27:42Z</time></trkpt><trkpt lat="45.6619533" lon="8.0583883"><ele>1387.0</ele><time>2026-03-29T13:27:43Z</time></trkpt><trkpt lat="45.6618133" lon="8.0582433"><ele>1384.3333333333333</ele><time>2026-03-29T13:27:43.999Z</time></trkpt><trkpt lat="45.6616767" lon="8.05808"><ele>1381.6666666666667</ele><time>2026-03-29T13:27:45Z</time></trkpt><trkpt lat="45.661545" lon="8.0579167"><ele>1379.0</ele><time>2026-03-29T13:27:46Z</time></trkpt><trkpt lat="45.6614233" lon="8.057785"><ele>1379.0</ele><time>2026-03-29T13:27:47Z</time></trkpt><trkpt lat="45.6613117" lon="8.0576433"><ele>1379.0</ele><time>2026-03-29T13:27:48Z</time></trkpt><trkpt lat="45.661185" lon="8.0575517"><ele>1379.0</ele><time>2026-03-29T13:27:49Z</time></trkpt><trkpt lat="45.6610583" lon="8.0575017"><ele>1379.0</ele><time>2026-03-29T13:27:50Z</time></trkpt><trkpt lat="45.6609233" lon="8.057525"><ele>1371.6666666666667</ele><time>2026-03-29T13:27:51Z</time></trkpt><trkpt lat="45.6607833" lon="8.0576233"><ele>1364.3333333333333</ele><time>2026-03-29T13:27:51.999Z</time></trkpt><trkpt lat="45.66064" lon="8.0577533"><ele>1357.0</ele><time>2026-03-29T13:27:53Z</time></trkpt><trkpt lat="45.6605117" lon="8.0578883"><ele>1357.0</ele><time>2026-03-29T13:27:54Z</time></trkpt><trkpt lat="45.6603867" lon="8.058005"><ele>1357.0</ele><time>2026-03-29T13:27:55Z</time></trkpt><trkpt lat="45.6602533" lon="8.0581167"><ele>1357.0</ele><time>2026-03-29T13:27:55.999Z</time></trkpt><trkpt lat="45.6601467" lon="8.058165"><ele>1357.0</ele><time>2026-03-29T13:27:57Z</time></trkpt><trkpt lat="45.660025" lon="8.0581517"><ele>1357.3333333333333</ele><time>2026-03-29T13:27:58Z</time></trkpt><trkpt lat="45.6598883" lon="8.0580667"><ele>1357.6666666666667</ele><time>2026-03-29T13:27:58.999Z</time></trkpt><trkpt lat="45.65974" lon="8.0579733"><ele>1358.0</ele><time>2026-03-29T13:28:00Z</time></trkpt><trkpt lat="45.6595883" lon="8.0578833"><ele>1358.0</ele><time>2026-03-29T13:28:01Z</time></trkpt><trkpt lat="45.6594567" lon="8.05779"><ele>1358.0</ele><time>2026-03-29T13:28:02Z</time></trkpt><trkpt lat="45.6593417" lon="8.057695"><ele>1358.0</ele><time>2026-03-29T13:28:02.999Z</time></trkpt><trkpt lat="45.659265" lon="8.057525"><ele>1358.0</ele><time>2026-03-29T13:28:03.999Z</time></trkpt><trkpt lat="45.659225" lon="8.05733"><ele>1358.3333333333335</ele><time>2026-03-29T13:28:04.999Z</time></trkpt><trkpt lat="45.659195" lon="8.0570967"><ele>1358.6666666666667</ele><time>2026-03-29T13:28:05.999Z</time></trkpt><trkpt lat="45.6591733" lon="8.0568467"><ele>1359.0</ele><time>2026-03-29T13:28:07Z</time></trkpt><trkpt lat="45.6591283" lon="8.056615"><ele>1359.0</ele><time>2026-03-29T13:28:08Z</time></trkpt><trkpt lat="45.6590733" lon="8.05638"><ele>1359.0</ele><time>2026-03-29T13:28:09Z</time></trkpt><trkpt lat="45.6589817" lon="8.0561617"><ele>1359.0</ele><time>2026-03-29T13:28:10Z</time></trkpt><trkpt lat="45.65886" lon="8.0559833"><ele>1359.0</ele><time>2026-03-29T13:28:11Z</time></trkpt><trkpt lat="45.658705" lon="8.0558517"><ele>1359.0</ele><time>2026-03-29T13:28:11.999Z</time></trkpt><trkpt lat="45.658535" lon="8.05576"><ele>1359.0</ele><time>2026-03-29T13:28:13Z</time></trkpt><trkpt lat="45.6583517" lon="8.05571"><ele>1355.6666666666667</ele><time>2026-03-29T13:28:14Z</time></trkpt><trkpt lat="45.6581683" lon="8.0556533"><ele>1352.3333333333335</ele><time>2026-03-29T13:28:15Z</time></trkpt><trkpt lat="45.65803" lon="8.055615"><ele>1349.0</ele><time>2026-03-29T13:28:15.999Z</time></trkpt><trkpt lat="45.65791" lon="8.0555483"><ele>1349.0</ele><time>2026-03-29T13:28:17Z</time></trkpt><trkpt lat="45.65783" lon="8.0554267"><ele>1349.0</ele><time>2026-03-29T13:28:18Z</time></trkpt><trkpt lat="45.65777" lon="8.0552767"><ele>1349.0</ele><time>2026-03-29T13:28:19Z</time></trkpt><trkpt lat="45.657725" lon="8.055085"><ele>1349.0</ele><time>2026-03-29T13:28:19.999Z</time></trkpt><trkpt lat="45.657695" lon="8.05485"><ele>1341.6666666666667</ele><time>2026-03-29T13:28:21Z</time></trkpt><trkpt lat="45.6576583" lon="8.0545817"><ele>1334.3333333333333</ele><time>2026-03-29T13:28:22Z</time></trkpt><trkpt lat="45.65762" lon="8.0543033"><ele>1327.0</ele><time>2026-03-29T13:28:23Z</time></trkpt><trkpt lat="45.6575683" lon="8.0540317"><ele>1327.0</ele><time>2026-03-29T13:28:24Z</time></trkpt><trkpt lat="45.6575233" lon="8.0537717"><ele>1327.0</ele><time>2026-03-29T13:28:24.999Z</time></trkpt><trkpt lat="45.6574933" lon="8.0535333"><ele>1327.0</ele><time>2026-03-29T13:28:26Z</time></trkpt><trkpt lat="45.6574717" lon="8.0533117"><ele>1327.6666666666665</ele><time>2026-03-29T13:28:27Z</time></trkpt><trkpt lat="45.65746" lon="8.0530767"><ele>1328.3333333333333</ele><time>2026-03-29T13:28:27.999Z</time></trkpt><trkpt lat="45.6574617" lon="8.0528283"><ele>1329.0</ele><time>2026-03-29T13:28:29Z</time></trkpt><trkpt lat="45.657475" lon="8.052585"><ele>1331.75</ele><time>2026-03-29T13:28:30Z</time></trkpt><trkpt lat="45.65747" lon="8.0523733"><ele>1334.5</ele><time>2026-03-29T13:28:30.999Z</time></trkpt><trkpt lat="45.6574567" lon="8.05218"><ele>1337.25</ele><time>2026-03-29T13:28:32Z</time></trkpt><trkpt lat="45.6574083" lon="8.0520083"><ele>1340.0</ele><time>2026-03-29T13:28:33Z</time></trkpt><trkpt lat="45.6573233" lon="8.0518883"><ele>1340.0</ele><time>2026-03-29T13:28:33.999Z</time></trkpt><trkpt lat="45.6572067" lon="8.0518217"><ele>1340.0</ele><time>2026-03-29T13:28:35Z</time></trkpt><trkpt lat="45.6570683" lon="8.0518033"><ele>1340.0</ele><time>2026-03-29T13:28:36Z</time></trkpt><trkpt lat="45.656915" lon="8.051825"><ele>1340.0</ele><time>2026-03-29T13:28:37Z</time></trkpt><trkpt lat="45.6567633" lon="8.0518317"><ele>1340.3333333333335</ele><time>2026-03-29T13:28:38Z</time></trkpt><trkpt lat="45.6566083" lon="8.05181"><ele>1340.6666666666667</ele><time>2026-03-29T13:28:39Z</time></trkpt><trkpt lat="45.6564617" lon="8.0517167"><ele>1341.0</ele><time>2026-03-29T13:28:40Z</time></trkpt><trkpt lat="45.6563417" lon="8.0515633"><ele>1341.0</ele><time>2026-03-29T13:28:40.999Z</time></trkpt><trkpt lat="45.65623" lon="8.0513733"><ele>1341.0</ele><time>2026-03-29T13:28:42Z</time></trkpt><trkpt lat="45.6561" lon="8.0511767"><ele>1341.0</ele><time>2026-03-29T13:28:43Z</time></trkpt><trkpt lat="45.6559667" lon="8.0509617"><ele>1336.3333333333333</ele><time>2026-03-29T13:28:43.999Z</time></trkpt><trkpt lat="45.6558217" lon="8.05075"><ele>1331.6666666666665</ele><time>2026-03-29T13:28:45Z</time></trkpt><trkpt lat="45.6556783" lon="8.05056"><ele>1327.0</ele><time>2026-03-29T13:28:45.999Z</time></trkpt><trkpt lat="45.655535" lon="8.0503717"><ele>1327.0</ele><time>2026-03-29T13:28:47Z</time></trkpt><trkpt lat="45.65541" lon="8.05017"><ele>1327.0</ele><time>2026-03-29T13:28:48Z</time></trkpt><trkpt lat="45.6552917" lon="8.050005"><ele>1327.0</ele><time>2026-03-29T13:28:49Z</time></trkpt><trkpt lat="45.6551817" lon="8.0498283"><ele>1322.6666666666665</ele><time>2026-03-29T13:28:50Z</time></trkpt><trkpt lat="45.6550967" lon="8.049605"><ele>1318.3333333333333</ele><time>2026-03-29T13:28:50.999Z</time></trkpt><trkpt lat="45.65503" lon="8.0493483"><ele>1314.0</ele><time>2026-03-29T13:28:52Z</time></trkpt><trkpt lat="45.6549767" lon="8.0490983"><ele>1314.0</ele><time>2026-03-29T13:28:53Z</time></trkpt><trkpt lat="45.654925" lon="8.0488233"><ele>1314.0</ele><time>2026-03-29T13:28:53.999Z</time></trkpt><trkpt lat="45.65486" lon="8.048535"><ele>1314.0</ele><time>2026-03-29T13:28:54.999Z</time></trkpt><trkpt lat="45.6547917" lon="8.048235"><ele>1315.0</ele><time>2026-03-29T13:28:56Z</time></trkpt><trkpt lat="45.65472" lon="8.0479317"><ele>1316.0</ele><time>2026-03-29T13:28:57Z</time></trkpt><trkpt lat="45.6546483" lon="8.0476333"><ele>1317.0</ele><time>2026-03-29T13:28:58Z</time></trkpt><trkpt lat="45.6545867" lon="8.0473533"><ele>1319.0</ele><time>2026-03-29T13:28:58.999Z</time></trkpt><trkpt lat="45.6545383" lon="8.0470983"><ele>1321.0</ele><time>2026-03-29T13:28:59.999Z</time></trkpt><trkpt lat="45.6544817" lon="8.0468617"><ele>1323.0</ele><time>2026-03-29T13:29:01Z</time></trkpt><trkpt lat="45.654425" lon="8.046635"><ele>1322.3333333333333</ele><time>2026-03-29T13:29:01.999Z</time></trkpt><trkpt lat="45.6543517" lon="8.04642"><ele>1321.6666666666665</ele><time>2026-03-29T13:29:03Z</time></trkpt><trkpt lat="45.65426" lon="8.04625"><ele>1321.0</ele><time>2026-03-29T13:29:04Z</time></trkpt><trkpt lat="45.654135" lon="8.04614"><ele>1321.0</ele><time>2026-03-29T13:29:05Z</time></trkpt><trkpt lat="45.65398" lon="8.0460833"><ele>1321.0</ele><time>2026-03-29T13:29:06Z</time></trkpt><trkpt lat="45.6538033" lon="8.0460867"><ele>1321.0</ele><time>2026-03-29T13:29:07Z</time></trkpt><trkpt lat="45.6536167" lon="8.0460933"><ele>1316.3333333333333</ele><time>2026-03-29T13:29:08Z</time></trkpt><trkpt lat="45.6534333" lon="8.046085"><ele>1311.6666666666667</ele><time>2026-03-29T13:29:08.999Z</time></trkpt><trkpt lat="45.653265" lon="8.0460767"><ele>1307.0</ele><time>2026-03-29T13:29:09.999Z</time></trkpt><trkpt lat="45.6531133" lon="8.0460667"><ele>1307.0</ele><time>2026-03-29T13:29:11Z</time></trkpt><trkpt lat="45.6529767" lon="8.046025"><ele>1307.0</ele><time>2026-03-29T13:29:12Z</time></trkpt><trkpt lat="45.6528667" lon="8.0459183"><ele>1307.0</ele><time>2026-03-29T13:29:12.999Z</time></trkpt><trkpt lat="45.65278" lon="8.0457767"><ele>1307.0</ele><time>2026-03-29T13:29:13.999Z</time></trkpt><trkpt lat="45.6527" lon="8.0455867"><ele>1305.6666666666667</ele><time>2026-03-29T13:29:15Z</time></trkpt><trkpt lat="45.652615" lon="8.04537"><ele>1304.3333333333333</ele><time>2026-03-29T13:29:15.999Z</time></trkpt><trkpt lat="45.6525167" lon="8.0451783"><ele>1303.0</ele><time>2026-03-29T13:29:17Z</time></trkpt><trkpt lat="45.6523917" lon="8.0450333"><ele>1301.0</ele><time>2026-03-29T13:29:17.999Z</time></trkpt><trkpt lat="45.6522367" lon="8.0449217"><ele>1299.0</ele><time>2026-03-29T13:29:18.999Z</time></trkpt><trkpt lat="45.6520583" lon="8.0448417"><ele>1297.0</ele><time>2026-03-29T13:29:20Z</time></trkpt><trkpt lat="45.6518917" lon="8.044755"><ele>1297.0</ele><time>2026-03-29T13:29:21Z</time></trkpt><trkpt lat="45.651745" lon="8.0446717"><ele>1297.0</ele><time>2026-03-29T13:29:22Z</time></trkpt><trkpt lat="45.65162" lon="8.04457"><ele>1297.0</ele><time>2026-03-29T13:29:22.999Z</time></trkpt><trkpt lat="45.6515017" lon="8.0444683"><ele>1297.0</ele><time>2026-03-29T13:29:23.999Z</time></trkpt><trkpt lat="45.6514183" lon="8.0443283"><ele>1297.0</ele><time>2026-03-29T13:29:25Z</time></trkpt><trkpt lat="45.651365" lon="8.04415"><ele>1297.0</ele><time>2026-03-29T13:29:25.999Z</time></trkpt><trkpt lat="45.6513367" lon="8.0439367"><ele>1297.0</ele><time>2026-03-29T13:29:26.999Z</time></trkpt><trkpt lat="45.6513617" lon="8.04371"><ele>1297.0</ele><time>2026-03-29T13:29:28Z</time></trkpt><trkpt lat="45.6514033" lon="8.043445"><ele>1294.0</ele><time>2026-03-29T13:29:29Z</time></trkpt><trkpt lat="45.65146" lon="8.0431667"><ele>1291.0</ele><time>2026-03-29T13:29:30Z</time></trkpt><trkpt lat="45.651505" lon="8.04289"><ele>1288.0</ele><time>2026-03-29T13:29:31Z</time></trkpt><trkpt lat="45.65157" lon="8.042645"><ele>1282.3333333333333</ele><time>2026-03-29T13:29:32Z</time></trkpt><trkpt lat="45.6516583" lon="8.0424183"><ele>1276.6666666666667</ele><time>2026-03-29T13:29:33Z</time></trkpt><trkpt lat="45.6517733" lon="8.0422167"><ele>1271.0</ele><time>2026-03-29T13:29:34Z</time></trkpt><trkpt lat="45.6519083" lon="8.0420283"><ele>1273.6666666666667</ele><time>2026-03-29T13:29:35Z</time></trkpt><trkpt lat="45.65205" lon="8.04183"><ele>1276.3333333333333</ele><time>2026-03-29T13:29:35.999Z</time></trkpt><trkpt lat="45.6521967" lon="8.0416067"><ele>1279.0</ele><time>2026-03-29T13:29:37Z</time></trkpt><trkpt lat="45.65234" lon="8.041385"><ele>1279.0</ele><time>2026-03-29T13:29:38Z</time></trkpt><trkpt lat="45.65248" lon="8.0411683"><ele>1279.0</ele><time>2026-03-29T13:29:39Z</time></trkpt><trkpt lat="45.652615" lon="8.040965"><ele>1279.0</ele><time>2026-03-29T13:29:40Z</time></trkpt><trkpt lat="45.6527483" lon="8.0407817"><ele>1281.6666666666665</ele><time>2026-03-29T13:29:41Z</time></trkpt><trkpt lat="45.65289" lon="8.0405917"><ele>1284.3333333333333</ele><time>2026-03-29T13:29:41.999Z</time></trkpt><trkpt lat="45.6530333" lon="8.0404217"><ele>1287.0</ele><time>2026-03-29T13:29:43Z</time></trkpt><trkpt lat="45.65316" lon="8.040215"><ele>1287.0</ele><time>2026-03-29T13:29:44Z</time></trkpt><trkpt lat="45.6532767" lon="8.039985"><ele>1287.0</ele><time>2026-03-29T13:29:45Z</time></trkpt><trkpt lat="45.6533583" lon="8.03974"><ele>1287.0</ele><time>2026-03-29T13:29:45.999Z</time></trkpt><trkpt lat="45.6534133" lon="8.0394367"><ele>1275.5</ele><time>2026-03-29T13:29:46.999Z</time></trkpt><trkpt lat="45.653465" lon="8.0391183"><ele>1264.0</ele><time>2026-03-29T13:29:48Z</time></trkpt><trkpt lat="45.6535167" lon="8.038795"><ele>1264.0</ele><time>2026-03-29T13:29:49Z</time></trkpt><trkpt lat="45.6535533" lon="8.0384917"><ele>1264.0</ele><time>2026-03-29T13:29:50Z</time></trkpt><trkpt lat="45.653595" lon="8.0382033"><ele>1264.0</ele><time>2026-03-29T13:29:50.999Z</time></trkpt><trkpt lat="45.6536267" lon="8.0379533"><ele>1264.3333333333333</ele><time>2026-03-29T13:29:51.999Z</time></trkpt><trkpt lat="45.653665" lon="8.037725"><ele>1264.6666666666667</ele><time>2026-03-29T13:29:52.999Z</time></trkpt><trkpt lat="45.6536867" lon="8.0375133"><ele>1265.0</ele><time>2026-03-29T13:29:54Z</time></trkpt><trkpt lat="45.6536567" lon="8.03729"><ele>1261.6666666666667</ele><time>2026-03-29T13:29:55Z</time></trkpt><trkpt lat="45.653565" lon="8.0370633"><ele>1258.3333333333333</ele><time>2026-03-29T13:29:56Z</time></trkpt><trkpt lat="45.6534817" lon="8.0368367"><ele>1255.0</ele><time>2026-03-29T13:29:57Z</time></trkpt><trkpt lat="45.6534517" lon="8.0366583"><ele>1253.75</ele><time>2026-03-29T13:29:58Z</time></trkpt><trkpt lat="45.65346" lon="8.0365083"><ele>1252.5</ele><time>2026-03-29T13:29:59Z</time></trkpt><trkpt lat="45.65352" lon="8.0363767"><ele>1251.25</ele><time>2026-03-29T13:30:00Z</time></trkpt><trkpt lat="45.6536283" lon="8.036285"><ele>1250.0</ele><time>2026-03-29T13:30:01Z</time></trkpt><trkpt lat="45.6537667" lon="8.036235"><ele>1250.0</ele><time>2026-03-29T13:30:02Z</time></trkpt><trkpt lat="45.6539267" lon="8.0362267"><ele>1250.0</ele><time>2026-03-29T13:30:03Z</time></trkpt><trkpt lat="45.6541267" lon="8.036245"><ele>1250.0</ele><time>2026-03-29T13:30:04Z</time></trkpt><trkpt lat="45.6543483" lon="8.0362567"><ele>1246.5</ele><time>2026-03-29T13:30:05Z</time></trkpt><trkpt lat="45.6545933" lon="8.0362833"><ele>1243.0</ele><time>2026-03-29T13:30:06Z</time></trkpt><trkpt lat="45.6548417" lon="8.0362983"><ele>1243.0</ele><time>2026-03-29T13:30:07Z</time></trkpt><trkpt lat="45.6550867" lon="8.0363267"><ele>1243.0</ele><time>2026-03-29T13:30:08Z</time></trkpt><trkpt lat="45.6553117" lon="8.0363333"><ele>1242.3333333333333</ele><time>2026-03-29T13:30:09Z</time></trkpt><trkpt lat="45.6555167" lon="8.0363317"><ele>1241.6666666666667</ele><time>2026-03-29T13:30:10Z</time></trkpt><trkpt lat="45.6556867" lon="8.0363267"><ele>1241.0</ele><time>2026-03-29T13:30:11Z</time></trkpt><trkpt lat="45.6558517" lon="8.03633"><ele>1241.0</ele><time>2026-03-29T13:30:11.999Z</time></trkpt><trkpt lat="45.6560067" lon="8.0363617"><ele>1241.0</ele><time>2026-03-29T13:30:13Z</time></trkpt><trkpt lat="45.6561433" lon="8.0363733"><ele>1241.0</ele><time>2026-03-29T13:30:13.999Z</time></trkpt><trkpt lat="45.6562633" lon="8.0364067"><ele>1241.0</ele><time>2026-03-29T13:30:15Z</time></trkpt><trkpt lat="45.6563617" lon="8.0364317"><ele>1242.8</ele><time>2026-03-29T13:30:16Z</time></trkpt><trkpt lat="45.6564567" lon="8.036415"><ele>1244.6</ele><time>2026-03-29T13:30:17Z</time></trkpt><trkpt lat="45.6565267" lon="8.036345"><ele>1246.4</ele><time>2026-03-29T13:30:18Z</time></trkpt><trkpt lat="45.6565867" lon="8.036255"><ele>1248.2</ele><time>2026-03-29T13:30:19Z</time></trkpt><trkpt lat="45.6566067" lon="8.03613"><ele>1250.0</ele><time>2026-03-29T13:30:20Z</time></trkpt><trkpt lat="45.6566383" lon="8.0359933"><ele>1246.0</ele><time>2026-03-29T13:30:21Z</time></trkpt><trkpt lat="45.6566283" lon="8.0357633"><ele>1242.0</ele><time>2026-03-29T13:30:22Z</time></trkpt><trkpt lat="45.6566317" lon="8.0355017"><ele>1238.0</ele><time>2026-03-29T13:30:23Z</time></trkpt><trkpt lat="45.656645" lon="8.0352633"><ele>1238.0</ele><time>2026-03-29T13:30:24Z</time></trkpt><trkpt lat="45.656655" lon="8.0350117"><ele>1238.0</ele><time>2026-03-29T13:30:25Z</time></trkpt><trkpt lat="45.6566667" lon="8.034785"><ele>1238.0</ele><time>2026-03-29T13:30:26Z</time></trkpt><trkpt lat="45.65671" lon="8.0345917"><ele>1234.3333333333335</ele><time>2026-03-29T13:30:27Z</time></trkpt><trkpt lat="45.6567933" lon="8.03442"><ele>1230.6666666666667</ele><time>2026-03-29T13:30:28Z</time></trkpt><trkpt lat="45.6569017" lon="8.03426"><ele>1227.0</ele><time>2026-03-29T13:30:29Z</time></trkpt><trkpt lat="45.6570583" lon="8.034145"><ele>1229.0</ele><time>2026-03-29T13:30:30Z</time></trkpt><trkpt lat="45.6572033" lon="8.0339933"><ele>1231.0</ele><time>2026-03-29T13:30:31Z</time></trkpt><trkpt lat="45.6573667" lon="8.0338267"><ele>1233.0</ele><time>2026-03-29T13:30:32Z</time></trkpt><trkpt lat="45.657525" lon="8.033655"><ele>1233.0</ele><time>2026-03-29T13:30:32.999Z</time></trkpt><trkpt lat="45.65769" lon="8.0334633"><ele>1233.0</ele><time>2026-03-29T13:30:34Z</time></trkpt><trkpt lat="45.6578633" lon="8.0332783"><ele>1233.0</ele><time>2026-03-29T13:30:34.999Z</time></trkpt><trkpt lat="45.6580383" lon="8.0331017"><ele>1232.0</ele><time>2026-03-29T13:30:36Z</time></trkpt><trkpt lat="45.6582067" lon="8.03291"><ele>1231.0</ele><time>2026-03-29T13:30:37Z</time></trkpt><trkpt lat="45.6583683" lon="8.0327217"><ele>1230.0</ele><time>2026-03-29T13:30:38Z</time></trkpt><trkpt lat="45.6585233" lon="8.0325567"><ele>1225.6666666666667</ele><time>2026-03-29T13:30:39Z</time></trkpt><trkpt lat="45.658675" lon="8.0323933"><ele>1221.3333333333335</ele><time>2026-03-29T13:30:39.999Z</time></trkpt><trkpt lat="45.6588183" lon="8.0322567"><ele>1217.0</ele><time>2026-03-29T13:30:41Z</time></trkpt><trkpt lat="45.65897" lon="8.0321283"><ele>1217.0</ele><time>2026-03-29T13:30:41.999Z</time></trkpt><trkpt lat="45.6591383" lon="8.0320483"><ele>1217.0</ele><time>2026-03-29T13:30:43Z</time></trkpt><trkpt lat="45.659305" lon="8.0320167"><ele>1217.0</ele><time>2026-03-29T13:30:43.999Z</time></trkpt><trkpt lat="45.6594667" lon="8.032"><ele>1216.3333333333335</ele><time>2026-03-29T13:30:44.999Z</time></trkpt><trkpt lat="45.6596617" lon="8.032015"><ele>1215.6666666666667</ele><time>2026-03-29T13:30:46Z</time></trkpt><trkpt lat="45.6598483" lon="8.032035"><ele>1215.0</ele><time>2026-03-29T13:30:46.999Z</time></trkpt><trkpt lat="45.6600283" lon="8.0320383"><ele>1215.0</ele><time>2026-03-29T13:30:48Z</time></trkpt><trkpt lat="45.6602017" lon="8.032055"><ele>1215.0</ele><time>2026-03-29T13:30:48.999Z</time></trkpt><trkpt lat="45.6603683" lon="8.0320517"><ele>1215.0</ele><time>2026-03-29T13:30:50Z</time></trkpt><trkpt lat="45.6605267" lon="8.031995"><ele>1217.0</ele><time>2026-03-29T13:30:50.999Z</time></trkpt><trkpt lat="45.6606667" lon="8.0318983"><ele>1219.0</ele><time>2026-03-29T13:30:52Z</time></trkpt><trkpt lat="45.6608067" lon="8.0317767"><ele>1221.0</ele><time>2026-03-29T13:30:52.999Z</time></trkpt><trkpt lat="45.6609117" lon="8.0315883"><ele>1216.6666666666667</ele><time>2026-03-29T13:30:53.999Z</time></trkpt><trkpt lat="45.6609967" lon="8.0313717"><ele>1212.3333333333335</ele><time>2026-03-29T13:30:55Z</time></trkpt><trkpt lat="45.6610633" lon="8.0311517"><ele>1208.0</ele><time>2026-03-29T13:30:56Z</time></trkpt><trkpt lat="45.6611017" lon="8.0309617"><ele>1203.75</ele><time>2026-03-29T13:30:57Z</time></trkpt><trkpt lat="45.6611683" lon="8.03079"><ele>1199.5</ele><time>2026-03-29T13:30:57.999Z</time></trkpt><trkpt lat="45.6612683" lon="8.0306583"><ele>1195.25</ele><time>2026-03-29T13:30:59Z</time></trkpt><trkpt lat="45.661395" lon="8.0306383"><ele>1191.0</ele><time>2026-03-29T13:30:59.999Z</time></trkpt><trkpt lat="45.6615317" lon="8.0306617"><ele>1191.0</ele><time>2026-03-29T13:31:01Z</time></trkpt><trkpt lat="45.6616767" lon="8.030675"><ele>1191.0</ele><time>2026-03-29T13:31:02Z</time></trkpt><trkpt lat="45.66184" lon="8.0307717"><ele>1191.0</ele><time>2026-03-29T13:31:03Z</time></trkpt><trkpt lat="45.6620067" lon="8.0308367"><ele>1196.0</ele><time>2026-03-29T13:31:04Z</time></trkpt><trkpt lat="45.6621467" lon="8.0308617"><ele>1201.0</ele><time>2026-03-29T13:31:05Z</time></trkpt><trkpt lat="45.66227" lon="8.030845"><ele>1206.0</ele><time>2026-03-29T13:31:06Z</time></trkpt><trkpt lat="45.66235" lon="8.0307533"><ele>1211.0</ele><time>2026-03-29T13:31:07Z</time></trkpt><trkpt lat="45.6624083" lon="8.03058"><ele>1211.0</ele><time>2026-03-29T13:31:08Z</time></trkpt><trkpt lat="45.6624467" lon="8.0303567"><ele>1211.0</ele><time>2026-03-29T13:31:08.999Z</time></trkpt><trkpt lat="45.6624483" lon="8.030095"><ele>1211.0</ele><time>2026-03-29T13:31:09.999Z</time></trkpt><trkpt lat="45.6624333" lon="8.0298083"><ele>1213.0</ele><time>2026-03-29T13:31:11Z</time></trkpt><trkpt lat="45.6624067" lon="8.0294817"><ele>1215.0</ele><time>2026-03-29T13:31:12Z</time></trkpt><trkpt lat="45.6623833" lon="8.0291467"><ele>1216.0</ele><time>2026-03-29T13:31:12.999Z</time></trkpt><trkpt lat="45.6623567" lon="8.0288517"><ele>1217.0</ele><time>2026-03-29T13:31:14Z</time></trkpt><trkpt lat="45.66232" lon="8.028575"><ele>1218.0</ele><time>2026-03-29T13:31:14.999Z</time></trkpt><trkpt lat="45.662265" lon="8.0283083"><ele>1214.25</ele><time>2026-03-29T13:31:16Z</time></trkpt><trkpt lat="45.662225" lon="8.0280767"><ele>1210.5</ele><time>2026-03-29T13:31:17Z</time></trkpt><trkpt lat="45.6621917" lon="8.0278733"><ele>1206.75</ele><time>2026-03-29T13:31:17.999Z</time></trkpt><trkpt lat="45.6622017" lon="8.027695"><ele>1203.0</ele><time>2026-03-29T13:31:19Z</time></trkpt><trkpt lat="45.662255" lon="8.0275517"><ele>1195.5</ele><time>2026-03-29T13:31:20Z</time></trkpt><trkpt lat="45.6623483" lon="8.0274617"><ele>1188.0</ele><time>2026-03-29T13:31:20.999Z</time></trkpt><trkpt lat="45.6624633" lon="8.02741"><ele>1180.5</ele><time>2026-03-29T13:31:21.999Z</time></trkpt><trkpt lat="45.662605" lon="8.0273817"><ele>1173.0</ele><time>2026-03-29T13:31:22.999Z</time></trkpt><trkpt lat="45.662775" lon="8.0273367"><ele>1174.6666666666667</ele><time>2026-03-29T13:31:24Z</time></trkpt><trkpt lat="45.662965" lon="8.0272783"><ele>1176.3333333333335</ele><time>2026-03-29T13:31:25Z</time></trkpt><trkpt lat="45.6631783" lon="8.027225"><ele>1178.0</ele><time>2026-03-29T13:31:26Z</time></trkpt><trkpt lat="45.66341" lon="8.0271683"><ele>1182.0</ele><time>2026-03-29T13:31:27Z</time></trkpt><trkpt lat="45.6636433" lon="8.0271117"><ele>1186.0</ele><time>2026-03-29T13:31:28Z</time></trkpt><trkpt lat="45.6638817" lon="8.0270383"><ele>1186.0</ele><time>2026-03-29T13:31:29Z</time></trkpt><trkpt lat="45.66413" lon="8.0269883"><ele>1186.0</ele><time>2026-03-29T13:31:29.999Z</time></trkpt><trkpt lat="45.6643633" lon="8.0269583"><ele>1189.0</ele><time>2026-03-29T13:31:31Z</time></trkpt><trkpt lat="45.6645883" lon="8.0269317"><ele>1192.0</ele><time>2026-03-29T13:31:32Z</time></trkpt><trkpt lat="45.664795" lon="8.02688"><ele>1195.0</ele><time>2026-03-29T13:31:33Z</time></trkpt><trkpt lat="45.6649917" lon="8.0268"><ele>1195.0</ele><time>2026-03-29T13:31:34Z</time></trkpt><trkpt lat="45.6651517" lon="8.0267117"><ele>1195.0</ele><time>2026-03-29T13:31:35Z</time></trkpt><trkpt lat="45.6653067" lon="8.026625"><ele>1195.0</ele><time>2026-03-29T13:31:36Z</time></trkpt><trkpt lat="45.6654533" lon="8.0265417"><ele>1195.75</ele><time>2026-03-29T13:31:37Z</time></trkpt><trkpt lat="45.6655767" lon="8.0264517"><ele>1196.5</ele><time>2026-03-29T13:31:38Z</time></trkpt><trkpt lat="45.66567" lon="8.0263083"><ele>1197.25</ele><time>2026-03-29T13:31:39Z</time></trkpt><trkpt lat="45.6657383" lon="8.0261117"><ele>1198.0</ele><time>2026-03-29T13:31:39.999Z</time></trkpt><trkpt lat="45.665765" lon="8.0258883"><ele>1192.3333333333333</ele><time>2026-03-29T13:31:40.999Z</time></trkpt><trkpt lat="45.6657617" lon="8.02566"><ele>1186.6666666666667</ele><time>2026-03-29T13:31:41.999Z</time></trkpt><trkpt lat="45.6657867" lon="8.025455"><ele>1181.0</ele><time>2026-03-29T13:31:42.999Z</time></trkpt><trkpt lat="45.6658567" lon="8.0252617"><ele>1181.0</ele><time>2026-03-29T13:31:44Z</time></trkpt><trkpt lat="45.66594" lon="8.0250667"><ele>1181.0</ele><time>2026-03-29T13:31:45Z</time></trkpt><trkpt lat="45.666035" lon="8.0248667"><ele>1181.0</ele><time>2026-03-29T13:31:46Z</time></trkpt><trkpt lat="45.666135" lon="8.0246867"><ele>1188.0</ele><time>2026-03-29T13:31:46.999Z</time></trkpt><trkpt lat="45.6661983" lon="8.0245033"><ele>1195.0</ele><time>2026-03-29T13:31:48Z</time></trkpt><trkpt lat="45.666185" lon="8.024325"><ele>1202.0</ele><time>2026-03-29T13:31:49Z</time></trkpt><trkpt lat="45.66613" lon="8.0241517"><ele>1209.0</ele><time>2026-03-29T13:31:50Z</time></trkpt><trkpt lat="45.666035" lon="8.0240333"><ele>1213.75</ele><time>2026-03-29T13:31:50.999Z</time></trkpt><trkpt lat="45.6659033" lon="8.0239767"><ele>1218.5</ele><time>2026-03-29T13:31:52Z</time></trkpt><trkpt lat="45.6657633" lon="8.023925"><ele>1223.25</ele><time>2026-03-29T13:31:52.999Z</time></trkpt><trkpt lat="45.6656083" lon="8.0239"><ele>1228.0</ele><time>2026-03-29T13:31:54Z</time></trkpt><trkpt lat="45.6654217" lon="8.0238817"><ele>1222.6666666666665</ele><time>2026-03-29T13:31:55Z</time></trkpt><trkpt lat="45.6652083" lon="8.0238867"><ele>1217.3333333333333</ele><time>2026-03-29T13:31:55.999Z</time></trkpt><trkpt lat="45.6649883" lon="8.0239217"><ele>1212.0</ele><time>2026-03-29T13:31:57Z</time></trkpt><trkpt lat="45.6647683" lon="8.023945"><ele>1212.0</ele><time>2026-03-29T13:31:58Z</time></trkpt><trkpt lat="45.664575" lon="8.0239583"><ele>1212.0</ele><time>2026-03-29T13:31:59Z</time></trkpt><trkpt lat="45.6643883" lon="8.02396"><ele>1212.0</ele><time>2026-03-29T13:31:59.999Z</time></trkpt><trkpt lat="45.6641967" lon="8.02392"><ele>1203.75</ele><time>2026-03-29T13:32:01Z</time></trkpt><trkpt lat="45.6640367" lon="8.02385"><ele>1195.5</ele><time>2026-03-29T13:32:02Z</time></trkpt><trkpt lat="45.6639133" lon="8.02378"><ele>1187.25</ele><time>2026-03-29T13:32:03Z</time></trkpt><trkpt lat="45.663805" lon="8.0236983"><ele>1179.0</ele><time>2026-03-29T13:32:04Z</time></trkpt><trkpt lat="45.6638783" lon="8.023465"><ele>1181.0</ele><time>2026-03-29T13:32:05Z</time></trkpt><trkpt lat="45.6639417" lon="8.0232617"><ele>1183.0</ele><time>2026-03-29T13:32:06Z</time></trkpt><trkpt lat="45.6640417" lon="8.0230617"><ele>1185.0</ele><time>2026-03-29T13:32:07Z</time></trkpt><trkpt lat="45.664125" lon="8.0228683"><ele>1185.0</ele><time>2026-03-29T13:32:08Z</time></trkpt><trkpt lat="45.6641767" lon="8.0226817"><ele>1185.0</ele><time>2026-03-29T13:32:09Z</time></trkpt><trkpt lat="45.66419" lon="8.0225017"><ele>1185.0</ele><time>2026-03-29T13:32:09.999Z</time></trkpt><trkpt lat="45.6641417" lon="8.022355"><ele>1185.0</ele><time>2026-03-29T13:32:10.999Z</time></trkpt><trkpt lat="45.66406" lon="8.0222283"><ele>1186.6666666666667</ele><time>2026-03-29T13:32:12Z</time></trkpt><trkpt lat="45.6639367" lon="8.0221317"><ele>1188.3333333333335</ele><time>2026-03-29T13:32:13Z</time></trkpt><trkpt lat="45.66378" lon="8.0220617"><ele>1190.0</ele><time>2026-03-29T13:32:14Z</time></trkpt><trkpt lat="45.66358" lon="8.0220017"><ele>1190.0</ele><time>2026-03-29T13:32:14.999Z</time></trkpt><trkpt lat="45.663385" lon="8.0219567"><ele>1190.0</ele><time>2026-03-29T13:32:16Z</time></trkpt><trkpt lat="45.663175" lon="8.02194"><ele>1190.0</ele><time>2026-03-29T13:32:17Z</time></trkpt><trkpt lat="45.66298" lon="8.0219633"><ele>1190.0</ele><time>2026-03-29T13:32:17.999Z</time></trkpt><trkpt lat="45.6627817" lon="8.0219633"><ele>1190.0</ele><time>2026-03-29T13:32:19Z</time></trkpt><trkpt lat="45.6625983" lon="8.0219083"><ele>1190.0</ele><time>2026-03-29T13:32:19.999Z</time></trkpt><trkpt lat="45.6624383" lon="8.0218417"><ele>1187.25</ele><time>2026-03-29T13:32:21Z</time></trkpt><trkpt lat="45.6623017" lon="8.021795"><ele>1184.5</ele><time>2026-03-29T13:32:22Z</time></trkpt><trkpt lat="45.6621517" lon="8.021795"><ele>1181.75</ele><time>2026-03-29T13:32:23Z</time></trkpt><trkpt lat="45.662" lon="8.0218533"><ele>1179.0</ele><time>2026-03-29T13:32:24Z</time></trkpt><trkpt lat="45.6618317" lon="8.021885"><ele>1175.6666666666667</ele><time>2026-03-29T13:32:25Z</time></trkpt><trkpt lat="45.6616433" lon="8.0219033"><ele>1172.3333333333335</ele><time>2026-03-29T13:32:26Z</time></trkpt><trkpt lat="45.6614567" lon="8.0219067"><ele>1169.0</ele><time>2026-03-29T13:32:27Z</time></trkpt><trkpt lat="45.66127" lon="8.0218933"><ele>1163.0</ele><time>2026-03-29T13:32:28Z</time></trkpt><trkpt lat="45.6610867" lon="8.02177"><ele>1157.0</ele><time>2026-03-29T13:32:29Z</time></trkpt><trkpt lat="45.6608933" lon="8.0216517"><ele>1151.0</ele><time>2026-03-29T13:32:30Z</time></trkpt><trkpt lat="45.660715" lon="8.02155"><ele>1157.75</ele><time>2026-03-29T13:32:31Z</time></trkpt><trkpt lat="45.66058" lon="8.02145"><ele>1164.5</ele><time>2026-03-29T13:32:31.999Z</time></trkpt><trkpt lat="45.660445" lon="8.021395"><ele>1171.25</ele><time>2026-03-29T13:32:33Z</time></trkpt><trkpt lat="45.6603117" lon="8.0213767"><ele>1178.0</ele><time>2026-03-29T13:32:34Z</time></trkpt><trkpt lat="45.660155" lon="8.0214017"><ele>1178.0</ele><time>2026-03-29T13:32:35Z</time></trkpt><trkpt lat="45.6599733" lon="8.0214583"><ele>1178.0</ele><time>2026-03-29T13:32:35.999Z</time></trkpt><trkpt lat="45.659785" lon="8.0215017"><ele>1178.0</ele><time>2026-03-29T13:32:36.999Z</time></trkpt><trkpt lat="45.6596133" lon="8.0215317"><ele>1173.0</ele><time>2026-03-29T13:32:38Z</time></trkpt><trkpt lat="45.6594417" lon="8.0215367"><ele>1168.0</ele><time>2026-03-29T13:32:39Z</time></trkpt><trkpt lat="45.65926" lon="8.0215083"><ele>1163.0</ele><time>2026-03-29T13:32:39.999Z</time></trkpt><trkpt lat="45.6590683" lon="8.0214517"><ele>1163.0</ele><time>2026-03-29T13:32:40.999Z</time></trkpt><trkpt lat="45.6589033" lon="8.0213767"><ele>1163.0</ele><time>2026-03-29T13:32:41.999Z</time></trkpt><trkpt lat="45.658735" lon="8.0213183"><ele>1163.0</ele><time>2026-03-29T13:32:43Z</time></trkpt><trkpt lat="45.6585667" lon="8.0212867"><ele>1157.3333333333335</ele><time>2026-03-29T13:32:44Z</time></trkpt><trkpt lat="45.6583783" lon="8.0213333"><ele>1151.6666666666667</ele><time>2026-03-29T13:32:45Z</time></trkpt><trkpt lat="45.6581833" lon="8.0213483"><ele>1146.0</ele><time>2026-03-29T13:32:46Z</time></trkpt><trkpt lat="45.6579867" lon="8.021355"><ele>1146.0</ele><time>2026-03-29T13:32:47Z</time></trkpt><trkpt lat="45.6577883" lon="8.0213733"><ele>1146.0</ele><time>2026-03-29T13:32:48Z</time></trkpt><trkpt lat="45.6576117" lon="8.0213683"><ele>1146.0</ele><time>2026-03-29T13:32:49Z</time></trkpt><trkpt lat="45.6574583" lon="8.02136"><ele>1143.75</ele><time>2026-03-29T13:32:50Z</time></trkpt><trkpt lat="45.6573283" lon="8.0213167"><ele>1141.5</ele><time>2026-03-29T13:32:50.999Z</time></trkpt><trkpt lat="45.6572317" lon="8.0212083"><ele>1139.25</ele><time>2026-03-29T13:32:52Z</time></trkpt><trkpt lat="45.6571483" lon="8.0211233"><ele>1137.0</ele><time>2026-03-29T13:32:53Z</time></trkpt><trkpt lat="45.657135" lon="8.020965"><ele>1128.5</ele><time>2026-03-29T13:32:54Z</time></trkpt><trkpt lat="45.6571733" lon="8.020805"><ele>1120.0</ele><time>2026-03-29T13:32:54.999Z</time></trkpt><trkpt lat="45.6572633" lon="8.0206517"><ele>1111.5</ele><time>2026-03-29T13:32:55.999Z</time></trkpt><trkpt lat="45.6574117" lon="8.0205167"><ele>1103.0</ele><time>2026-03-29T13:32:57Z</time></trkpt><trkpt lat="45.6575783" lon="8.0203833"><ele>1103.0</ele><time>2026-03-29T13:32:57.999Z</time></trkpt><trkpt lat="45.6577583" lon="8.0202483"><ele>1103.0</ele><time>2026-03-29T13:32:59Z</time></trkpt><trkpt lat="45.6579433" lon="8.02013"><ele>1103.0</ele><time>2026-03-29T13:33:00Z</time></trkpt><trkpt lat="45.6581433" lon="8.02002"><ele>1099.3333333333335</ele><time>2026-03-29T13:33:00.999Z</time></trkpt><trkpt lat="45.6583317" lon="8.0199233"><ele>1095.6666666666667</ele><time>2026-03-29T13:33:02Z</time></trkpt><trkpt lat="45.6585" lon="8.0198183"><ele>1092.0</ele><time>2026-03-29T13:33:03Z</time></trkpt><trkpt lat="45.6586367" lon="8.0197167"><ele>1108.6666666666667</ele><time>2026-03-29T13:33:04Z</time></trkpt><trkpt lat="45.6587667" lon="8.0196"><ele>1125.3333333333335</ele><time>2026-03-29T13:33:05Z</time></trkpt><trkpt lat="45.6588617" lon="8.0194417"><ele>1142.0</ele><time>2026-03-29T13:33:06Z</time></trkpt><trkpt lat="45.65897" lon="8.0192467"><ele>1138.0</ele><time>2026-03-29T13:33:07Z</time></trkpt><trkpt lat="45.6590467" lon="8.0190267"><ele>1134.0</ele><time>2026-03-29T13:33:08Z</time></trkpt><trkpt lat="45.6590867" lon="8.0188033"><ele>1130.0</ele><time>2026-03-29T13:33:08.999Z</time></trkpt><trkpt lat="45.65905" lon="8.0185283"><ele>1125.0</ele><time>2026-03-29T13:33:10Z</time></trkpt><trkpt lat="45.659015" lon="8.0182617"><ele>1120.0</ele><time>2026-03-29T13:33:10.999Z</time></trkpt><trkpt lat="45.6589817" lon="8.0180083"><ele>1115.0</ele><time>2026-03-29T13:33:11.999Z</time></trkpt><trkpt lat="45.6589917" lon="8.01776"><ele>1115.0</ele><time>2026-03-29T13:33:12.999Z</time></trkpt><trkpt lat="45.65906" lon="8.0175167"><ele>1115.0</ele><time>2026-03-29T13:33:14Z</time></trkpt><trkpt lat="45.6591483" lon="8.017285"><ele>1115.0</ele><time>2026-03-29T13:33:14.999Z</time></trkpt><trkpt lat="45.6592433" lon="8.0170183"><ele>1116.6666666666667</ele><time>2026-03-29T13:33:16Z</time></trkpt><trkpt lat="45.659355" lon="8.0168083"><ele>1118.3333333333333</ele><time>2026-03-29T13:33:16.999Z</time></trkpt><trkpt lat="45.659465" lon="8.01667"><ele>1120.0</ele><time>2026-03-29T13:33:17.999Z</time></trkpt><trkpt lat="45.6595783" lon="8.0165667"><ele>1105.6666666666665</ele><time>2026-03-29T13:33:19Z</time></trkpt><trkpt lat="45.6596817" lon="8.0164533"><ele>1091.3333333333333</ele><time>2026-03-29T13:33:19.999Z</time></trkpt><trkpt lat="45.6598483" lon="8.0165017"><ele>1077.0</ele><time>2026-03-29T13:33:21Z</time></trkpt><trkpt lat="45.6600017" lon="8.0165383"><ele>1077.0</ele><time>2026-03-29T13:33:21.999Z</time></trkpt><trkpt lat="45.6601567" lon="8.0165417"><ele>1077.0</ele><time>2026-03-29T13:33:22.999Z</time></trkpt><trkpt lat="45.6603033" lon="8.016455"><ele>1077.0</ele><time>2026-03-29T13:33:23.999Z</time></trkpt><trkpt lat="45.660445" lon="8.0163467"><ele>1079.5</ele><time>2026-03-29T13:33:25Z</time></trkpt><trkpt lat="45.6605817" lon="8.0162317"><ele>1082.0</ele><time>2026-03-29T13:33:25.999Z</time></trkpt><trkpt lat="45.6607183" lon="8.0161683"><ele>1084.5</ele><time>2026-03-29T13:33:26.999Z</time></trkpt><trkpt lat="45.66086" lon="8.0161417"><ele>1087.0</ele><time>2026-03-29T13:33:28Z</time></trkpt><trkpt lat="45.6610017" lon="8.0161167"><ele>1091.3333333333333</ele><time>2026-03-29T13:33:29Z</time></trkpt><trkpt lat="45.661135" lon="8.016065"><ele>1095.6666666666667</ele><time>2026-03-29T13:33:29.999Z</time></trkpt><trkpt lat="45.6612917" lon="8.0159817"><ele>1100.0</ele><time>2026-03-29T13:33:30.999Z</time></trkpt><trkpt lat="45.6614383" lon="8.015885"><ele>1088.3333333333335</ele><time>2026-03-29T13:33:32Z</time></trkpt><trkpt lat="45.6616033" lon="8.01581"><ele>1076.6666666666667</ele><time>2026-03-29T13:33:33Z</time></trkpt><trkpt lat="45.661755" lon="8.0157267"><ele>1065.0</ele><time>2026-03-29T13:33:33.999Z</time></trkpt><trkpt lat="45.661925" lon="8.0156333"><ele>1079.6666666666667</ele><time>2026-03-29T13:33:35Z</time></trkpt><trkpt lat="45.6620617" lon="8.015455"><ele>1094.3333333333335</ele><time>2026-03-29T13:33:35.999Z</time></trkpt><trkpt lat="45.6621783" lon="8.015225"><ele>1109.0</ele><time>2026-03-29T13:33:36.999Z</time></trkpt><trkpt lat="45.6622867" lon="8.0150233"><ele>1101.3333333333335</ele><time>2026-03-29T13:33:37.999Z</time></trkpt><trkpt lat="45.662385" lon="8.0148267"><ele>1093.6666666666667</ele><time>2026-03-29T13:33:39Z</time></trkpt><trkpt lat="45.6624517" lon="8.0146083"><ele>1086.0</ele><time>2026-03-29T13:33:40Z</time></trkpt><trkpt lat="45.6624683" lon="8.01437"><ele>1080.0</ele><time>2026-03-29T13:33:41Z</time></trkpt><trkpt lat="45.6624333" lon="8.014125"><ele>1074.0</ele><time>2026-03-29T13:33:42Z</time></trkpt><trkpt lat="45.662355" lon="8.0138467"><ele>1068.0</ele><time>2026-03-29T13:33:43Z</time></trkpt><trkpt lat="45.662275" lon="8.0136083"><ele>1068.0</ele><time>2026-03-29T13:33:44Z</time></trkpt><trkpt lat="45.6622217" lon="8.0133783"><ele>1068.0</ele><time>2026-03-29T13:33:45Z</time></trkpt><trkpt lat="45.66223" lon="8.01319"><ele>1068.0</ele><time>2026-03-29T13:33:46Z</time></trkpt><trkpt lat="45.662295" lon="8.013055"><ele>1068.0</ele><time>2026-03-29T13:33:47Z</time></trkpt><trkpt lat="45.6623933" lon="8.01293"><ele>1063.5</ele><time>2026-03-29T13:33:48Z</time></trkpt><trkpt lat="45.662515" lon="8.0128917"><ele>1059.0</ele><time>2026-03-29T13:33:49Z</time></trkpt><trkpt lat="45.66263" lon="8.0129133"><ele>1054.5</ele><time>2026-03-29T13:33:49.999Z</time></trkpt><trkpt lat="45.6627733" lon="8.013025"><ele>1050.0</ele><time>2026-03-29T13:33:50.999Z</time></trkpt><trkpt lat="45.6629267" lon="8.0132033"><ele>1061.3333333333333</ele><time>2026-03-29T13:33:52Z</time></trkpt><trkpt lat="45.6630733" lon="8.0133467"><ele>1072.6666666666665</ele><time>2026-03-29T13:33:53Z</time></trkpt><trkpt lat="45.6632017" lon="8.0134183"><ele>1084.0</ele><time>2026-03-29T13:33:53.999Z</time></trkpt><trkpt lat="45.66334" lon="8.013415"><ele>1084.0</ele><time>2026-03-29T13:33:55Z</time></trkpt><trkpt lat="45.663475" lon="8.0133433"><ele>1084.0</ele><time>2026-03-29T13:33:56Z</time></trkpt><trkpt lat="45.6636117" lon="8.0132333"><ele>1084.0</ele><time>2026-03-29T13:33:56.999Z</time></trkpt><trkpt lat="45.6637117" lon="8.0130233"><ele>1084.0</ele><time>2026-03-29T13:33:58Z</time></trkpt><trkpt lat="45.6638133" lon="8.012825"><ele>1084.0</ele><time>2026-03-29T13:33:59Z</time></trkpt><trkpt lat="45.66389" lon="8.0125533"><ele>1084.0</ele><time>2026-03-29T13:34:00Z</time></trkpt><trkpt lat="45.663965" lon="8.0123117"><ele>1074.75</ele><time>2026-03-29T13:34:01Z</time></trkpt><trkpt lat="45.6640067" lon="8.012125"><ele>1065.5</ele><time>2026-03-29T13:34:02Z</time></trkpt><trkpt lat="45.664085" lon="8.0119567"><ele>1056.25</ele><time>2026-03-29T13:34:03Z</time></trkpt><trkpt lat="45.6641867" lon="8.0118433"><ele>1047.0</ele><time>2026-03-29T13:34:04Z</time></trkpt><trkpt lat="45.6643167" lon="8.01184"><ele>1047.0</ele><time>2026-03-29T13:34:05Z</time></trkpt><trkpt lat="45.66444" lon="8.0118267"><ele>1047.0</ele><time>2026-03-29T13:34:06Z</time></trkpt><trkpt lat="45.664565" lon="8.011845"><ele>1047.0</ele><time>2026-03-29T13:34:07Z</time></trkpt><trkpt lat="45.664695" lon="8.0118833"><ele>1047.0</ele><time>2026-03-29T13:34:08Z</time></trkpt><trkpt lat="45.6648433" lon="8.0118717"><ele>1043.25</ele><time>2026-03-29T13:34:09Z</time></trkpt><trkpt lat="45.6649483" lon="8.0117883"><ele>1039.5</ele><time>2026-03-29T13:34:10Z</time></trkpt><trkpt lat="45.6650483" lon="8.0116183"><ele>1035.75</ele><time>2026-03-29T13:34:10.999Z</time></trkpt><trkpt lat="45.6651533" lon="8.0114883"><ele>1032.0</ele><time>2026-03-29T13:34:12Z</time></trkpt><trkpt lat="45.66525" lon="8.011395"><ele>1039.0</ele><time>2026-03-29T13:34:13Z</time></trkpt><trkpt lat="45.6653533" lon="8.0113417"><ele>1046.0</ele><time>2026-03-29T13:34:14Z</time></trkpt><trkpt lat="45.6654533" lon="8.011355"><ele>1053.0</ele><time>2026-03-29T13:34:15Z</time></trkpt><trkpt lat="45.6655417" lon="8.0113817"><ele>1060.0</ele><time>2026-03-29T13:34:16Z</time></trkpt><trkpt lat="45.66563" lon="8.0114183"><ele>1067.0</ele><time>2026-03-29T13:34:16.999Z</time></trkpt><trkpt lat="45.6657167" lon="8.011435"><ele>1067.0</ele><time>2026-03-29T13:34:18Z</time></trkpt><trkpt lat="45.6658117" lon="8.01145"><ele>1067.0</ele><time>2026-03-29T13:34:19Z</time></trkpt><trkpt lat="45.6659033" lon="8.0114133"><ele>1067.0</ele><time>2026-03-29T13:34:20Z</time></trkpt><trkpt lat="45.6659483" lon="8.0112767"><ele>1067.0</ele><time>2026-03-29T13:34:21Z</time></trkpt><trkpt lat="45.6660083" lon="8.011145"><ele>1067.0</ele><time>2026-03-29T13:34:21.999Z</time></trkpt><trkpt lat="45.666045" lon="8.0110067"><ele>1067.0</ele><time>2026-03-29T13:34:23Z</time></trkpt><trkpt lat="45.666065" lon="8.010885"><ele>1067.0</ele><time>2026-03-29T13:34:23.999Z</time></trkpt><trkpt lat="45.666035" lon="8.0107433"><ele>1067.0</ele><time>2026-03-29T13:34:25Z</time></trkpt><trkpt lat="45.6659767" lon="8.0106"><ele>1067.0</ele><time>2026-03-29T13:34:26Z</time></trkpt><trkpt lat="45.6659117" lon="8.0104483"><ele>1067.0</ele><time>2026-03-29T13:34:27Z</time></trkpt><trkpt lat="45.6657217" lon="8.010265"><ele>1071.6666666666667</ele><time>2026-03-29T13:34:28Z</time></trkpt><trkpt lat="45.66554" lon="8.0100667"><ele>1076.3333333333333</ele><time>2026-03-29T13:34:29Z</time></trkpt><trkpt lat="45.6654083" lon="8.0098967"><ele>1081.0</ele><time>2026-03-29T13:34:29.999Z</time></trkpt><trkpt lat="45.6652917" lon="8.0097383"><ele>1070.0</ele><time>2026-03-29T13:34:30.999Z</time></trkpt><trkpt lat="45.6651767" lon="8.0095883"><ele>1059.0</ele><time>2026-03-29T13:34:32Z</time></trkpt><trkpt lat="45.6650767" lon="8.0094217"><ele>1048.0</ele><time>2026-03-29T13:34:32.999Z</time></trkpt><trkpt lat="45.665005" lon="8.0092167"><ele>1045.6666666666665</ele><time>2026-03-29T13:34:33.999Z</time></trkpt><trkpt lat="45.665015" lon="8.00895"><ele>1043.3333333333333</ele><time>2026-03-29T13:34:35Z</time></trkpt><trkpt lat="45.6650583" lon="8.0086817"><ele>1041.0</ele><time>2026-03-29T13:34:36Z</time></trkpt><trkpt lat="45.6650917" lon="8.0084633"><ele>1040.25</ele><time>2026-03-29T13:34:37Z</time></trkpt><trkpt lat="45.6651517" lon="8.008275"><ele>1039.5</ele><time>2026-03-29T13:34:38Z</time></trkpt><trkpt lat="45.6652233" lon="8.0080917"><ele>1038.75</ele><time>2026-03-29T13:34:39Z</time></trkpt><trkpt lat="45.6653283" lon="8.0079317"><ele>1038.0</ele><time>2026-03-29T13:34:40Z</time></trkpt><trkpt lat="45.6654533" lon="8.0077967"><ele>1038.0</ele><time>2026-03-29T13:34:40.999Z</time></trkpt><trkpt lat="45.665595" lon="8.0076817"><ele>1038.0</ele><time>2026-03-29T13:34:42Z</time></trkpt><trkpt lat="45.6657367" lon="8.0075467"><ele>1038.0</ele><time>2026-03-29T13:34:43Z</time></trkpt><trkpt lat="45.6658883" lon="8.00744"><ele>1039.0</ele><time>2026-03-29T13:34:43.999Z</time></trkpt><trkpt lat="45.6660567" lon="8.0073617"><ele>1040.0</ele><time>2026-03-29T13:34:45Z</time></trkpt><trkpt lat="45.6661667" lon="8.00721"><ele>1041.0</ele><time>2026-03-29T13:34:45.999Z</time></trkpt><trkpt lat="45.6662083" lon="8.007"><ele>1041.0</ele><time>2026-03-29T13:34:47Z</time></trkpt><trkpt lat="45.66624" lon="8.0068"><ele>1041.0</ele><time>2026-03-29T13:34:48Z</time></trkpt><trkpt lat="45.6662783" lon="8.006645"><ele>1041.0</ele><time>2026-03-29T13:34:49Z</time></trkpt><trkpt lat="45.6663467" lon="8.0065083"><ele>1041.0</ele><time>2026-03-29T13:34:50Z</time></trkpt><trkpt lat="45.6664583" lon="8.00642"><ele>1030.3333333333333</ele><time>2026-03-29T13:34:51Z</time></trkpt><trkpt lat="45.666615" lon="8.0063983"><ele>1019.6666666666666</ele><time>2026-03-29T13:34:52Z</time></trkpt><trkpt lat="45.6667783" lon="8.006415"><ele>1009.0</ele><time>2026-03-29T13:34:53Z</time></trkpt><trkpt lat="45.666925" lon="8.00643"><ele>1013.3333333333333</ele><time>2026-03-29T13:34:53.998Z</time></trkpt><trkpt lat="45.6670933" lon="8.0064467"><ele>1017.6666666666667</ele><time>2026-03-29T13:34:54.999Z</time></trkpt><trkpt lat="45.6672433" lon="8.00644"><ele>1022.0</ele><time>2026-03-29T13:34:55.998Z</time></trkpt><trkpt lat="45.6673867" lon="8.0064033"><ele>1022.0</ele><time>2026-03-29T13:34:56.999Z</time></trkpt><trkpt lat="45.667475" lon="8.0062283"><ele>1022.0</ele><time>2026-03-29T13:34:57.999Z</time></trkpt><trkpt lat="45.66754" lon="8.005995"><ele>1022.0</ele><time>2026-03-29T13:34:58.999Z</time></trkpt><trkpt lat="45.6676033" lon="8.0057517"><ele>1019.0</ele><time>2026-03-29T13:34:59.999Z</time></trkpt><trkpt lat="45.6676633" lon="8.0055167"><ele>1016.0</ele><time>2026-03-29T13:35:00.999Z</time></trkpt><trkpt lat="45.667705" lon="8.0052967"><ele>1013.0</ele><time>2026-03-29T13:35:01.998Z</time></trkpt><trkpt lat="45.6677083" lon="8.0050433"><ele>1014.6666666666667</ele><time>2026-03-29T13:35:02.998Z</time></trkpt><trkpt lat="45.6676833" lon="8.00479"><ele>1016.3333333333333</ele><time>2026-03-29T13:35:03.999Z</time></trkpt><trkpt lat="45.6676183" lon="8.0045433"><ele>1018.0</ele><time>2026-03-29T13:35:04.999Z</time></trkpt><trkpt lat="45.6675417" lon="8.0043067"><ele>1013.0</ele><time>2026-03-29T13:35:05.999Z</time></trkpt><trkpt lat="45.667455" lon="8.0040967"><ele>1008.0</ele><time>2026-03-29T13:35:06.998Z</time></trkpt><trkpt lat="45.6673933" lon="8.0038833"><ele>1003.0</ele><time>2026-03-29T13:35:07.999Z</time></trkpt><trkpt lat="45.6673667" lon="8.003695"><ele>1003.0</ele><time>2026-03-29T13:35:08.999Z</time></trkpt><trkpt lat="45.6674317" lon="8.0035083"><ele>1003.0</ele><time>2026-03-29T13:35:09.998Z</time></trkpt><trkpt lat="45.6674983" lon="8.0033383"><ele>1003.0</ele><time>2026-03-29T13:35:10.998Z</time></trkpt><trkpt lat="45.6676067" lon="8.0031717"><ele>1003.0</ele><time>2026-03-29T13:35:11.999Z</time></trkpt><trkpt lat="45.6677633" lon="8.00297"><ele>1007.0</ele><time>2026-03-29T13:35:12.999Z</time></trkpt><trkpt lat="45.6679717" lon="8.002735"><ele>1011.0</ele><time>2026-03-29T13:35:13.999Z</time></trkpt><trkpt lat="45.6681567" lon="8.0025017"><ele>1013.6666666666667</ele><time>2026-03-29T13:35:14.999Z</time></trkpt><trkpt lat="45.6683233" lon="8.002275"><ele>1016.3333333333334</ele><time>2026-03-29T13:35:15.999Z</time></trkpt><trkpt lat="45.6684783" lon="8.00208"><ele>1019.0</ele><time>2026-03-29T13:35:16.999Z</time></trkpt><trkpt lat="45.6686283" lon="8.001885"><ele>1019.0</ele><time>2026-03-29T13:35:17.998Z</time></trkpt><trkpt lat="45.6687417" lon="8.0017167"><ele>1019.0</ele><time>2026-03-29T13:35:18.999Z</time></trkpt><trkpt lat="45.6688383" lon="8.0015967"><ele>1019.0</ele><time>2026-03-29T13:35:19.999Z</time></trkpt><trkpt lat="45.6688983" lon="8.00146"><ele>1019.0</ele><time>2026-03-29T13:35:20.999Z</time></trkpt><trkpt lat="45.6689133" lon="8.0013067"><ele>1015.8000000000001</ele><time>2026-03-29T13:35:21.999Z</time></trkpt><trkpt lat="45.6688967" lon="8.001155"><ele>1012.6000000000001</ele><time>2026-03-29T13:35:22.999Z</time></trkpt><trkpt lat="45.6689017" lon="8.00099"><ele>1009.4</ele><time>2026-03-29T13:35:23.998Z</time></trkpt><trkpt lat="45.6689467" lon="8.00086"><ele>1006.2</ele><time>2026-03-29T13:35:24.999Z</time></trkpt><trkpt lat="45.669025" lon="8.000765"><ele>1003.0</ele><time>2026-03-29T13:35:25.999Z</time></trkpt><trkpt lat="45.6691533" lon="8.00074"><ele>998.5</ele><time>2026-03-29T13:35:26.999Z</time></trkpt><trkpt lat="45.6693067" lon="8.000725"><ele>994.0</ele><time>2026-03-29T13:35:27.999Z</time></trkpt><trkpt lat="45.6694533" lon="8.0006967"><ele>989.5</ele><time>2026-03-29T13:35:28.999Z</time></trkpt><trkpt lat="45.669585" lon="8.000635"><ele>985.0</ele><time>2026-03-29T13:35:29.999Z</time></trkpt><trkpt lat="45.6696917" lon="8.0005717"><ele>995.5</ele><time>2026-03-29T13:35:30.999Z</time></trkpt><trkpt lat="45.6697583" lon="8.000455"><ele>1006.0</ele><time>2026-03-29T13:35:31.998Z</time></trkpt><trkpt lat="45.6698067" lon="8.000325"><ele>1016.5</ele><time>2026-03-29T13:35:32.999Z</time></trkpt><trkpt lat="45.6697683" lon="8.000145"><ele>1027.0</ele><time>2026-03-29T13:35:33.999Z</time></trkpt><trkpt lat="45.6697" lon="7.999955"><ele>1027.0</ele><time>2026-03-29T13:35:34.998Z</time></trkpt><trkpt lat="45.669605" lon="7.99978"><ele>1027.0</ele><time>2026-03-29T13:35:35.999Z</time></trkpt><trkpt lat="45.669505" lon="7.9995833"><ele>1027.0</ele><time>2026-03-29T13:35:36.999Z</time></trkpt><trkpt lat="45.6694183" lon="7.999345"><ele>1013.0</ele><time>2026-03-29T13:35:37.999Z</time></trkpt><trkpt lat="45.6693467" lon="7.999085"><ele>999.0</ele><time>2026-03-29T13:35:38.999Z</time></trkpt><trkpt lat="45.6692633" lon="7.99883"><ele>985.0</ele><time>2026-03-29T13:35:39.999Z</time></trkpt><trkpt lat="45.6691717" lon="7.9986133"><ele>985.0</ele><time>2026-03-29T13:35:40.998Z</time></trkpt><trkpt lat="45.6690717" lon="7.9984283"><ele>985.0</ele><time>2026-03-29T13:35:41.999Z</time></trkpt><trkpt lat="45.6689433" lon="7.9982783"><ele>985.0</ele><time>2026-03-29T13:35:42.999Z</time></trkpt><trkpt lat="45.6688133" lon="7.9981667"><ele>986.25</ele><time>2026-03-29T13:35:43.998Z</time></trkpt><trkpt lat="45.6686933" lon="7.9980633"><ele>987.5</ele><time>2026-03-29T13:35:44.999Z</time></trkpt><trkpt lat="45.66859" lon="7.997945"><ele>988.75</ele><time>2026-03-29T13:35:45.999Z</time></trkpt><trkpt lat="45.6684917" lon="7.9978517"><ele>990.0</ele><time>2026-03-29T13:35:46.998Z</time></trkpt><trkpt lat="45.6684133" lon="7.9977183"><ele>986.75</ele><time>2026-03-29T13:35:47.999Z</time></trkpt><trkpt lat="45.6683383" lon="7.9975533"><ele>983.5</ele><time>2026-03-29T13:35:48.999Z</time></trkpt><trkpt lat="45.6683" lon="7.9973967"><ele>980.25</ele><time>2026-03-29T13:35:49.998Z</time></trkpt><trkpt lat="45.66831" lon="7.99723"><ele>977.0</ele><time>2026-03-29T13:35:50.998Z</time></trkpt><trkpt lat="45.6684033" lon="7.99712"><ele>977.0</ele><time>2026-03-29T13:35:51.998Z</time></trkpt><trkpt lat="45.6685233" lon="7.997015"><ele>977.0</ele><time>2026-03-29T13:35:52.998Z</time></trkpt><trkpt lat="45.668675" lon="7.9969783"><ele>977.0</ele><time>2026-03-29T13:35:53.999Z</time></trkpt><trkpt lat="45.6688517" lon="7.996945"><ele>981.6666666666667</ele><time>2026-03-29T13:35:54.999Z</time></trkpt><trkpt lat="45.6690367" lon="7.9968967"><ele>986.3333333333333</ele><time>2026-03-29T13:35:55.998Z</time></trkpt><trkpt lat="45.6692083" lon="7.9968367"><ele>991.0</ele><time>2026-03-29T13:35:56.999Z</time></trkpt><trkpt lat="45.6693733" lon="7.9967533"><ele>990.3333333333333</ele><time>2026-03-29T13:35:57.998Z</time></trkpt><trkpt lat="45.6695333" lon="7.9966783"><ele>989.6666666666667</ele><time>2026-03-29T13:35:58.998Z</time></trkpt><trkpt lat="45.66966" lon="7.9965433"><ele>989.0</ele><time>2026-03-29T13:35:59.999Z</time></trkpt><trkpt lat="45.6697583" lon="7.9963517"><ele>989.0</ele><time>2026-03-29T13:36:00.999Z</time></trkpt><trkpt lat="45.6698267" lon="7.996125"><ele>989.0</ele><time>2026-03-29T13:36:01.999Z</time></trkpt><trkpt lat="45.6698867" lon="7.99587"><ele>989.0</ele><time>2026-03-29T13:36:02.999Z</time></trkpt><trkpt lat="45.6699533" lon="7.9956183"><ele>987.0</ele><time>2026-03-29T13:36:03.999Z</time></trkpt><trkpt lat="45.669985" lon="7.9953917"><ele>985.0</ele><time>2026-03-29T13:36:04.998Z</time></trkpt><trkpt lat="45.6699783" lon="7.9951633"><ele>983.0</ele><time>2026-03-29T13:36:05.999Z</time></trkpt><trkpt lat="45.66995" lon="7.9949583"><ele>981.75</ele><time>2026-03-29T13:36:06.999Z</time></trkpt><trkpt lat="45.6699517" lon="7.99478"><ele>980.5</ele><time>2026-03-29T13:36:07.999Z</time></trkpt><trkpt lat="45.6699933" lon="7.99462"><ele>979.25</ele><time>2026-03-29T13:36:08.999Z</time></trkpt><trkpt lat="45.670075" lon="7.9944867"><ele>978.0</ele><time>2026-03-29T13:36:09.999Z</time></trkpt><trkpt lat="45.6701833" lon="7.9944117"><ele>980.0</ele><time>2026-03-29T13:36:10.998Z</time></trkpt><trkpt lat="45.6703283" lon="7.9943933"><ele>982.0</ele><time>2026-03-29T13:36:11.999Z</time></trkpt><trkpt lat="45.67049" lon="7.9944317"><ele>984.0</ele><time>2026-03-29T13:36:12.998Z</time></trkpt><trkpt lat="45.6706533" lon="7.9944383"><ele>984.0</ele><time>2026-03-29T13:36:13.998Z</time></trkpt><trkpt lat="45.670765" lon="7.9944117"><ele>984.0</ele><time>2026-03-29T13:36:14.999Z</time></trkpt><trkpt lat="45.6708817" lon="7.9944733"><ele>984.0</ele><time>2026-03-29T13:36:15.999Z</time></trkpt><trkpt lat="45.6709983" lon="7.9945933"><ele>984.0</ele><time>2026-03-29T13:36:16.999Z</time></trkpt><trkpt lat="45.6710633" lon="7.9947933"><ele>987.3333333333333</ele><time>2026-03-29T13:36:17.998Z</time></trkpt><trkpt lat="45.6710933" lon="7.99501"><ele>990.6666666666666</ele><time>2026-03-29T13:36:18.999Z</time></trkpt><trkpt lat="45.671085" lon="7.9952333"><ele>994.0</ele><time>2026-03-29T13:36:19.999Z</time></trkpt><trkpt lat="45.6710983" lon="7.9954467"><ele>994.3333333333333</ele><time>2026-03-29T13:36:20.998Z</time></trkpt><trkpt lat="45.67114" lon="7.9956567"><ele>994.6666666666667</ele><time>2026-03-29T13:36:21.999Z</time></trkpt><trkpt lat="45.6712233" lon="7.9958267"><ele>995.0</ele><time>2026-03-29T13:36:22.998Z</time></trkpt><trkpt lat="45.6713317" lon="7.9959867"><ele>995.0</ele><time>2026-03-29T13:36:23.999Z</time></trkpt><trkpt lat="45.6714483" lon="7.9961333"><ele>995.0</ele><time>2026-03-29T13:36:24.998Z</time></trkpt><trkpt lat="45.6715983" lon="7.9962383"><ele>995.0</ele><time>2026-03-29T13:36:25.999Z</time></trkpt><trkpt lat="45.6717567" lon="7.9963083"><ele>995.0</ele><time>2026-03-29T13:36:26.999Z</time></trkpt><trkpt lat="45.6719133" lon="7.9963383"><ele>995.0</ele><time>2026-03-29T13:36:27.999Z</time></trkpt><trkpt lat="45.6720867" lon="7.9962583"><ele>995.0</ele><time>2026-03-29T13:36:28.998Z</time></trkpt><trkpt lat="45.67225" lon="7.996195"><ele>993.6666666666667</ele><time>2026-03-29T13:36:29.999Z</time></trkpt><trkpt lat="45.6724167" lon="7.9961267"><ele>992.3333333333333</ele><time>2026-03-29T13:36:30.999Z</time></trkpt><trkpt lat="45.67259" lon="7.9960733"><ele>991.0</ele><time>2026-03-29T13:36:31.998Z</time></trkpt><trkpt lat="45.6727383" lon="7.9960117"><ele>986.75</ele><time>2026-03-29T13:36:32.999Z</time></trkpt><trkpt lat="45.6728767" lon="7.9959617"><ele>982.5</ele><time>2026-03-29T13:36:33.999Z</time></trkpt><trkpt lat="45.672975" lon="7.9958717"><ele>978.25</ele><time>2026-03-29T13:36:34.998Z</time></trkpt><trkpt lat="45.6730483" lon="7.9957417"><ele>974.0</ele><time>2026-03-29T13:36:35.999Z</time></trkpt><trkpt lat="45.67308" lon="7.995595"><ele>973.5</ele><time>2026-03-29T13:36:36.999Z</time></trkpt><trkpt lat="45.67306" lon="7.9954417"><ele>973.0</ele><time>2026-03-29T13:36:37.998Z</time></trkpt><trkpt lat="45.6730183" lon="7.9952917"><ele>972.5</ele><time>2026-03-29T13:36:38.999Z</time></trkpt><trkpt lat="45.67291" lon="7.9951467"><ele>972.0</ele><time>2026-03-29T13:36:39.998Z</time></trkpt><trkpt lat="45.672765" lon="7.9950067"><ele>965.0</ele><time>2026-03-29T13:36:40.999Z</time></trkpt><trkpt lat="45.6726333" lon="7.9948617"><ele>958.0</ele><time>2026-03-29T13:36:41.999Z</time></trkpt><trkpt lat="45.6725767" lon="7.994695"><ele>951.0</ele><time>2026-03-29T13:36:42.999Z</time></trkpt><trkpt lat="45.67255" lon="7.9945167"><ele>944.0</ele><time>2026-03-29T13:36:43.998Z</time></trkpt><trkpt lat="45.6725533" lon="7.9943367"><ele>942.25</ele><time>2026-03-29T13:36:44.999Z</time></trkpt><trkpt lat="45.672595" lon="7.9941583"><ele>940.5</ele><time>2026-03-29T13:36:45.999Z</time></trkpt><trkpt lat="45.6726233" lon="7.9939883"><ele>938.75</ele><time>2026-03-29T13:36:46.999Z</time></trkpt><trkpt lat="45.67261" lon="7.9938117"><ele>937.0</ele><time>2026-03-29T13:36:47.999Z</time></trkpt><trkpt lat="45.6725867" lon="7.9936183"><ele>937.0</ele><time>2026-03-29T13:36:48.999Z</time></trkpt><trkpt lat="45.6725367" lon="7.99341"><ele>937.0</ele><time>2026-03-29T13:36:49.999Z</time></trkpt><trkpt lat="45.6725033" lon="7.9931783"><ele>937.0</ele><time>2026-03-29T13:36:50.999Z</time></trkpt><trkpt lat="45.6724667" lon="7.99294"><ele>938.0</ele><time>2026-03-29T13:36:51.999Z</time></trkpt><trkpt lat="45.6724067" lon="7.992695"><ele>939.0</ele><time>2026-03-29T13:36:52.999Z</time></trkpt><trkpt lat="45.6723283" lon="7.9924733"><ele>940.0</ele><time>2026-03-29T13:36:53.999Z</time></trkpt><trkpt lat="45.67223" lon="7.9922883"><ele>942.3333333333333</ele><time>2026-03-29T13:36:54.999Z</time></trkpt><trkpt lat="45.6721117" lon="7.9921233"><ele>944.6666666666667</ele><time>2026-03-29T13:36:55.998Z</time></trkpt><trkpt lat="45.6720317" lon="7.9919417"><ele>947.0</ele><time>2026-03-29T13:36:56.998Z</time></trkpt><trkpt lat="45.67196" lon="7.99177"><ele>946.75</ele><time>2026-03-29T13:36:57.999Z</time></trkpt><trkpt lat="45.671935" lon="7.991605"><ele>946.5</ele><time>2026-03-29T13:36:58.999Z</time></trkpt><trkpt lat="45.6719717" lon="7.9914483"><ele>946.25</ele><time>2026-03-29T13:36:59.999Z</time></trkpt><trkpt lat="45.6721133" lon="7.9913317"><ele>946.0</ele><time>2026-03-29T13:37:00.999Z</time></trkpt><trkpt lat="45.6721833" lon="7.9912067"><ele>946.0</ele><time>2026-03-29T13:37:01.999Z</time></trkpt><trkpt lat="45.67223" lon="7.991045"><ele>946.0</ele><time>2026-03-29T13:37:02.998Z</time></trkpt><trkpt lat="45.67222" lon="7.9908783"><ele>946.0</ele><time>2026-03-29T13:37:03.999Z</time></trkpt><trkpt lat="45.6721433" lon="7.9907267"><ele>946.0</ele><time>2026-03-29T13:37:04.999Z</time></trkpt><trkpt lat="45.6720417" lon="7.9906033"><ele>944.0</ele><time>2026-03-29T13:37:05.998Z</time></trkpt><trkpt lat="45.6719483" lon="7.99051"><ele>941.9999999999999</ele><time>2026-03-29T13:37:06.998Z</time></trkpt><trkpt lat="45.6718967" lon="7.9903567"><ele>939.9999999999999</ele><time>2026-03-29T13:37:07.999Z</time></trkpt><trkpt lat="45.6718833" lon="7.9902083"><ele>938.0</ele><time>2026-03-29T13:37:08.999Z</time></trkpt><trkpt lat="45.67191" lon="7.9900767"><ele>936.0</ele><time>2026-03-29T13:37:09.999Z</time></trkpt><trkpt lat="45.6719767" lon="7.9899367"><ele>936.0</ele><time>2026-03-29T13:37:10.998Z</time></trkpt><trkpt lat="45.6720833" lon="7.9898433"><ele>936.0</ele><time>2026-03-29T13:37:11.999Z</time></trkpt><trkpt lat="45.6722117" lon="7.989755"><ele>936.0</ele><time>2026-03-29T13:37:12.998Z</time></trkpt><trkpt lat="45.6723433" lon="7.9896517"><ele>936.0</ele><time>2026-03-29T13:37:13.998Z</time></trkpt><trkpt lat="45.6724367" lon="7.9894783"><ele>936.0</ele><time>2026-03-29T13:37:14.999Z</time></trkpt><trkpt lat="45.672535" lon="7.9892667"><ele>936.0</ele><time>2026-03-29T13:37:15.999Z</time></trkpt><trkpt lat="45.67264" lon="7.9890367"><ele>936.0</ele><time>2026-03-29T13:37:16.998Z</time></trkpt><trkpt lat="45.6727367" lon="7.9888117"><ele>936.6666666666667</ele><time>2026-03-29T13:37:17.999Z</time></trkpt><trkpt lat="45.6728267" lon="7.9885917"><ele>937.3333333333334</ele><time>2026-03-29T13:37:18.999Z</time></trkpt><trkpt lat="45.67292" lon="7.9883983"><ele>938.0</ele><time>2026-03-29T13:37:19.999Z</time></trkpt><trkpt lat="45.6730267" lon="7.9882133"><ele>938.0</ele><time>2026-03-29T13:37:20.999Z</time></trkpt><trkpt lat="45.6731317" lon="7.9880533"><ele>938.0</ele><time>2026-03-29T13:37:21.998Z</time></trkpt><trkpt lat="45.673225" lon="7.98791"><ele>938.0</ele><time>2026-03-29T13:37:22.999Z</time></trkpt><trkpt lat="45.6732933" lon="7.9877483"><ele>938.0</ele><time>2026-03-29T13:37:23.998Z</time></trkpt><trkpt lat="45.67333" lon="7.9875733"><ele>933.5</ele><time>2026-03-29T13:37:24.999Z</time></trkpt><trkpt lat="45.6733583" lon="7.9873917"><ele>929.0</ele><time>2026-03-29T13:37:25.999Z</time></trkpt><trkpt lat="45.6733733" lon="7.9872183"><ele>924.5</ele><time>2026-03-29T13:37:26.999Z</time></trkpt><trkpt lat="45.6733883" lon="7.9870367"><ele>920.0</ele><time>2026-03-29T13:37:27.999Z</time></trkpt><trkpt lat="45.6734017" lon="7.9868467"><ele>917.0</ele><time>2026-03-29T13:37:28.999Z</time></trkpt><trkpt lat="45.67342" lon="7.9866517"><ele>914.0</ele><time>2026-03-29T13:37:29.999Z</time></trkpt><trkpt lat="45.6734317" lon="7.986465"><ele>911.0</ele><time>2026-03-29T13:37:30.999Z</time></trkpt><trkpt lat="45.67344" lon="7.9862817"><ele>908.0</ele><time>2026-03-29T13:37:31.998Z</time></trkpt><trkpt lat="45.673465" lon="7.9861067"><ele>908.0</ele><time>2026-03-29T13:37:32.999Z</time></trkpt><trkpt lat="45.6734767" lon="7.9859217"><ele>908.0</ele><time>2026-03-29T13:37:33.998Z</time></trkpt><trkpt lat="45.6734967" lon="7.9857433"><ele>908.0</ele><time>2026-03-29T13:37:34.998Z</time></trkpt><trkpt lat="45.67352" lon="7.9855617"><ele>908.0</ele><time>2026-03-29T13:37:35.999Z</time></trkpt><trkpt lat="45.673535" lon="7.98539"><ele>905.25</ele><time>2026-03-29T13:37:36.999Z</time></trkpt><trkpt lat="45.6735467" lon="7.9852167"><ele>902.5</ele><time>2026-03-29T13:37:37.999Z</time></trkpt><trkpt lat="45.6735517" lon="7.9850283"><ele>899.75</ele><time>2026-03-29T13:37:38.999Z</time></trkpt><trkpt lat="45.67355" lon="7.984835"><ele>897.0</ele><time>2026-03-29T13:37:39.999Z</time></trkpt><trkpt lat="45.67355" lon="7.9846467"><ele>895.75</ele><time>2026-03-29T13:37:40.999Z</time></trkpt><trkpt lat="45.6735533" lon="7.98445"><ele>894.5</ele><time>2026-03-29T13:37:41.998Z</time></trkpt><trkpt lat="45.6735517" lon="7.9842283"><ele>893.25</ele><time>2026-03-29T13:37:42.999Z</time></trkpt><trkpt lat="45.673555" lon="7.9840217"><ele>892.0</ele><time>2026-03-29T13:37:43.999Z</time></trkpt><trkpt lat="45.6735517" lon="7.9838083"><ele>890.5</ele><time>2026-03-29T13:37:44.999Z</time></trkpt><trkpt lat="45.6735733" lon="7.98361"><ele>889.0</ele><time>2026-03-29T13:37:45.998Z</time></trkpt><trkpt lat="45.6736367" lon="7.983435"><ele>887.5</ele><time>2026-03-29T13:37:46.999Z</time></trkpt><trkpt lat="45.67373" lon="7.9832667"><ele>886.0</ele><time>2026-03-29T13:37:47.998Z</time></trkpt><trkpt lat="45.6738417" lon="7.9831367"><ele>889.0</ele><time>2026-03-29T13:37:48.999Z</time></trkpt><trkpt lat="45.6739783" lon="7.983035"><ele>892.0</ele><time>2026-03-29T13:37:49.998Z</time></trkpt><trkpt lat="45.6741067" lon="7.9830033"><ele>895.0</ele><time>2026-03-29T13:37:50.999Z</time></trkpt><trkpt lat="45.67422" lon="7.983"><ele>898.0</ele><time>2026-03-29T13:37:51.999Z</time></trkpt><trkpt lat="45.674315" lon="7.9829783"><ele>898.0</ele><time>2026-03-29T13:37:52.999Z</time></trkpt><trkpt lat="45.6743717" lon="7.9829133"><ele>898.0</ele><time>2026-03-29T13:37:53.999Z</time></trkpt><trkpt lat="45.6744117" lon="7.98277"><ele>898.0</ele><time>2026-03-29T13:37:55.998Z</time></trkpt><trkpt lat="45.6743083" lon="7.9827317"><ele>898.0</ele><time>2026-03-29T13:37:56.999Z</time></trkpt><trkpt lat="45.6742067" lon="7.9827067"><ele>898.0</ele><time>2026-03-29T13:37:57.999Z</time></trkpt><trkpt lat="45.6740783" lon="7.9827683"><ele>898.0</ele><time>2026-03-29T13:37:58.999Z</time></trkpt><trkpt lat="45.6739533" lon="7.982875"><ele>898.0</ele><time>2026-03-29T13:37:59.998Z</time></trkpt><trkpt lat="45.67384" lon="7.98296"><ele>898.0</ele><time>2026-03-29T13:38:00.999Z</time></trkpt><trkpt lat="45.6737283" lon="7.9830517"><ele>898.0</ele><time>2026-03-29T13:38:01.998Z</time></trkpt><trkpt lat="45.6736333" lon="7.983125"><ele>893.9999999999999</ele><time>2026-03-29T13:38:02.999Z</time></trkpt><trkpt lat="45.6735683" lon="7.9831633"><ele>890.0</ele><time>2026-03-29T13:38:03.998Z</time></trkpt><trkpt lat="45.6734683" lon="7.9831967"><ele>886.0</ele><time>2026-03-29T13:38:05.999Z</time></trkpt><trkpt lat="45.6733917" lon="7.98315"><ele>882.0</ele><time>2026-03-29T13:38:07.999Z</time></trkpt><trkpt lat="45.6733233" lon="7.9831017"><ele>877.9999999999999</ele><time>2026-03-29T13:38:13.998Z</time></trkpt><trkpt lat="45.6732417" lon="7.98315"><ele>874.0</ele><time>2026-03-29T13:38:15.998Z</time></trkpt><trkpt lat="45.67313" lon="7.9833417"><ele>877.0</ele><time>2026-03-29T13:38:17.999Z</time></trkpt><trkpt lat="45.6730917" lon="7.9834933"><ele>880.0</ele><time>2026-03-29T13:38:18.999Z</time></trkpt><trkpt lat="45.6730417" lon="7.9836517"><ele>883.0</ele><time>2026-03-29T13:38:19.999Z</time></trkpt><trkpt lat="45.672995" lon="7.98382"><ele>886.0</ele><time>2026-03-29T13:38:20.998Z</time></trkpt><trkpt lat="45.6729633" lon="7.9840417"><ele>888.0</ele><time>2026-03-29T13:38:21.999Z</time></trkpt><trkpt lat="45.6729117" lon="7.9842567"><ele>890.0</ele><time>2026-03-29T13:38:22.998Z</time></trkpt><trkpt lat="45.6728467" lon="7.9844683"><ele>892.0</ele><time>2026-03-29T13:38:23.999Z</time></trkpt><trkpt lat="45.6727733" lon="7.984685"><ele>879.0</ele><time>2026-03-29T13:38:24.999Z</time></trkpt><trkpt lat="45.6726967" lon="7.9849267"><ele>866.0</ele><time>2026-03-29T13:38:25.999Z</time></trkpt><trkpt lat="45.6726567" lon="7.985185"><ele>853.0</ele><time>2026-03-29T13:38:26.999Z</time></trkpt><trkpt lat="45.6726317" lon="7.9854283"><ele>853.0</ele><time>2026-03-29T13:38:27.999Z</time></trkpt><trkpt lat="45.6726467" lon="7.9856833"><ele>853.0</ele><time>2026-03-29T13:38:28.999Z</time></trkpt><trkpt lat="45.6726683" lon="7.9859283"><ele>853.0</ele><time>2026-03-29T13:38:29.999Z</time></trkpt><trkpt lat="45.67263" lon="7.98614"><ele>854.5</ele><time>2026-03-29T13:38:30.999Z</time></trkpt><trkpt lat="45.6725733" lon="7.986295"><ele>856.0</ele><time>2026-03-29T13:38:31.999Z</time></trkpt><trkpt lat="45.6725067" lon="7.986475"><ele>857.5</ele><time>2026-03-29T13:38:32.999Z</time></trkpt><trkpt lat="45.6724533" lon="7.9866517"><ele>859.0</ele><time>2026-03-29T13:38:33.999Z</time></trkpt><trkpt lat="45.67241" lon="7.9868383"><ele>862.0</ele><time>2026-03-29T13:38:34.999Z</time></trkpt><trkpt lat="45.672335" lon="7.9870033"><ele>865.0</ele><time>2026-03-29T13:38:35.999Z</time></trkpt><trkpt lat="45.672255" lon="7.9871333"><ele>868.0</ele><time>2026-03-29T13:38:36.998Z</time></trkpt><trkpt lat="45.6721633" lon="7.9872683"><ele>871.0</ele><time>2026-03-29T13:38:37.999Z</time></trkpt><trkpt lat="45.6720767" lon="7.9874367"><ele>876.0</ele><time>2026-03-29T13:38:38.999Z</time></trkpt><trkpt lat="45.6719767" lon="7.987605"><ele>881.0</ele><time>2026-03-29T13:38:39.999Z</time></trkpt><trkpt lat="45.6718683" lon="7.98778"><ele>886.0</ele><time>2026-03-29T13:38:40.998Z</time></trkpt><trkpt lat="45.6717567" lon="7.9879567"><ele>884.0</ele><time>2026-03-29T13:38:41.998Z</time></trkpt><trkpt lat="45.671645" lon="7.9881217"><ele>882.0</ele><time>2026-03-29T13:38:42.999Z</time></trkpt><trkpt lat="45.67152" lon="7.988285"><ele>880.0</ele><time>2026-03-29T13:38:43.999Z</time></trkpt><trkpt lat="45.6713883" lon="7.9884217"><ele>880.0</ele><time>2026-03-29T13:38:44.998Z</time></trkpt><trkpt lat="45.671255" lon="7.9885717"><ele>880.0</ele><time>2026-03-29T13:38:45.999Z</time></trkpt><trkpt lat="45.6711083" lon="7.9887417"><ele>880.0</ele><time>2026-03-29T13:38:46.999Z</time></trkpt><trkpt lat="45.6709433" lon="7.9889417"><ele>876.0</ele><time>2026-03-29T13:38:47.998Z</time></trkpt><trkpt lat="45.6708033" lon="7.9891767"><ele>872.0</ele><time>2026-03-29T13:38:48.999Z</time></trkpt><trkpt lat="45.6706417" lon="7.9893833"><ele>868.0</ele><time>2026-03-29T13:38:49.998Z</time></trkpt><trkpt lat="45.67049" lon="7.9895867"><ele>868.0</ele><time>2026-03-29T13:38:50.999Z</time></trkpt><trkpt lat="45.6703383" lon="7.9897783"><ele>868.0</ele><time>2026-03-29T13:38:51.999Z</time></trkpt><trkpt lat="45.670215" lon="7.98999"><ele>868.0</ele><time>2026-03-29T13:38:52.999Z</time></trkpt><trkpt lat="45.67009" lon="7.99018"><ele>861.3333333333333</ele><time>2026-03-29T13:38:53.999Z</time></trkpt><trkpt lat="45.6699517" lon="7.99032"><ele>854.6666666666667</ele><time>2026-03-29T13:38:54.999Z</time></trkpt><trkpt lat="45.66982" lon="7.9904667"><ele>848.0</ele><time>2026-03-29T13:38:55.999Z</time></trkpt><trkpt lat="45.6696917" lon="7.9906017"><ele>848.0</ele><time>2026-03-29T13:38:56.999Z</time></trkpt><trkpt lat="45.6695583" lon="7.9907283"><ele>848.0</ele><time>2026-03-29T13:38:57.999Z</time></trkpt><trkpt lat="45.669425" lon="7.9908683"><ele>848.0</ele><time>2026-03-29T13:38:58.999Z</time></trkpt><trkpt lat="45.6692867" lon="7.9910167"><ele>853.0</ele><time>2026-03-29T13:38:59.999Z</time></trkpt><trkpt lat="45.6691367" lon="7.9911783"><ele>858.0</ele><time>2026-03-29T13:39:00.999Z</time></trkpt><trkpt lat="45.66898" lon="7.9913467"><ele>863.0</ele><time>2026-03-29T13:39:01.998Z</time></trkpt><trkpt lat="45.6688083" lon="7.9915183"><ele>862.6666666666667</ele><time>2026-03-29T13:39:02.998Z</time></trkpt><trkpt lat="45.6686183" lon="7.9916917"><ele>862.3333333333333</ele><time>2026-03-29T13:39:03.999Z</time></trkpt><trkpt lat="45.6684333" lon="7.9918567"><ele>862.0</ele><time>2026-03-29T13:39:04.998Z</time></trkpt><trkpt lat="45.6682583" lon="7.9919933"><ele>862.0</ele><time>2026-03-29T13:39:05.998Z</time></trkpt><trkpt lat="45.668065" lon="7.9920917"><ele>862.0</ele><time>2026-03-29T13:39:06.998Z</time></trkpt><trkpt lat="45.66787" lon="7.9921833"><ele>862.0</ele><time>2026-03-29T13:39:07.999Z</time></trkpt><trkpt lat="45.6676783" lon="7.992295"><ele>852.5</ele><time>2026-03-29T13:39:08.999Z</time></trkpt><trkpt lat="45.66748" lon="7.992445"><ele>843.0</ele><time>2026-03-29T13:39:09.998Z</time></trkpt><trkpt lat="45.6672833" lon="7.9926183"><ele>843.0</ele><time>2026-03-29T13:39:10.999Z</time></trkpt><trkpt lat="45.667105" lon="7.9928217"><ele>843.0</ele><time>2026-03-29T13:39:11.999Z</time></trkpt><trkpt lat="45.6669567" lon="7.9930317"><ele>843.0</ele><time>2026-03-29T13:39:12.999Z</time></trkpt><trkpt lat="45.6667817" lon="7.9932267"><ele>838.0</ele><time>2026-03-29T13:39:13.999Z</time></trkpt><trkpt lat="45.6665967" lon="7.9934217"><ele>833.0</ele><time>2026-03-29T13:39:14.999Z</time></trkpt><trkpt lat="45.6664067" lon="7.993625"><ele>833.0</ele><time>2026-03-29T13:39:15.999Z</time></trkpt><trkpt lat="45.666225" lon="7.993845"><ele>833.0</ele><time>2026-03-29T13:39:16.998Z</time></trkpt><trkpt lat="45.66606" lon="7.9940867"><ele>828.3333333333334</ele><time>2026-03-29T13:39:17.999Z</time></trkpt><trkpt lat="45.6659083" lon="7.9943133"><ele>823.6666666666667</ele><time>2026-03-29T13:39:18.999Z</time></trkpt><trkpt lat="45.6657667" lon="7.994555"><ele>819.0</ele><time>2026-03-29T13:39:19.998Z</time></trkpt><trkpt lat="45.6656483" lon="7.994845"><ele>832.5</ele><time>2026-03-29T13:39:20.999Z</time></trkpt><trkpt lat="45.665545" lon="7.995145"><ele>846.0</ele><time>2026-03-29T13:39:21.999Z</time></trkpt><trkpt lat="45.66544" lon="7.9954333"><ele>846.0</ele><time>2026-03-29T13:39:22.998Z</time></trkpt><trkpt lat="45.6653417" lon="7.9957083"><ele>846.0</ele><time>2026-03-29T13:39:23.999Z</time></trkpt><trkpt lat="45.6652467" lon="7.99594"><ele>846.0</ele><time>2026-03-29T13:39:24.998Z</time></trkpt><trkpt lat="45.665135" lon="7.996135"><ele>837.6666666666667</ele><time>2026-03-29T13:39:25.999Z</time></trkpt><trkpt lat="45.665005" lon="7.9962933"><ele>829.3333333333334</ele><time>2026-03-29T13:39:26.999Z</time></trkpt><trkpt lat="45.6648467" lon="7.9964317"><ele>821.0</ele><time>2026-03-29T13:39:27.999Z</time></trkpt><trkpt lat="45.6647067" lon="7.9965683"><ele>817.3333333333334</ele><time>2026-03-29T13:39:28.998Z</time></trkpt><trkpt lat="45.6645683" lon="7.9966867"><ele>813.6666666666667</ele><time>2026-03-29T13:39:29.999Z</time></trkpt><trkpt lat="45.664435" lon="7.9967917"><ele>810.0</ele><time>2026-03-29T13:39:30.999Z</time></trkpt><trkpt lat="45.664295" lon="7.9968733"><ele>810.0</ele><time>2026-03-29T13:39:31.999Z</time></trkpt><trkpt lat="45.6641767" lon="7.9969917"><ele>810.0</ele><time>2026-03-29T13:39:32.999Z</time></trkpt><trkpt lat="45.6640833" lon="7.9971233"><ele>810.0</ele><time>2026-03-29T13:39:33.999Z</time></trkpt><trkpt lat="45.6639617" lon="7.99718"><ele>810.0</ele><time>2026-03-29T13:39:34.998Z</time></trkpt><trkpt lat="45.6638533" lon="7.9971817"><ele>810.0</ele><time>2026-03-29T13:39:35.999Z</time></trkpt><trkpt lat="45.6637583" lon="7.9972117"><ele>810.0</ele><time>2026-03-29T13:39:36.999Z</time></trkpt><trkpt lat="45.6636817" lon="7.99729"><ele>810.0</ele><time>2026-03-29T13:39:37.999Z</time></trkpt><trkpt lat="45.6636317" lon="7.9974267"><ele>810.0</ele><time>2026-03-29T13:39:38.998Z</time></trkpt><trkpt lat="45.6636033" lon="7.997575"><ele>810.0</ele><time>2026-03-29T13:39:39.999Z</time></trkpt><trkpt lat="45.6635667" lon="7.9976967"><ele>806.2</ele><time>2026-03-29T13:39:40.998Z</time></trkpt><trkpt lat="45.6635033" lon="7.997805"><ele>802.4</ele><time>2026-03-29T13:39:41.999Z</time></trkpt><trkpt lat="45.6634517" lon="7.9979233"><ele>798.5999999999999</ele><time>2026-03-29T13:39:42.999Z</time></trkpt><trkpt lat="45.663395" lon="7.9980483"><ele>794.8</ele><time>2026-03-29T13:39:43.999Z</time></trkpt><trkpt lat="45.6633467" lon="7.9981533"><ele>791.0</ele><time>2026-03-29T13:39:44.999Z</time></trkpt><trkpt lat="45.6632917" lon="7.998265"><ele>791.8333333333334</ele><time>2026-03-29T13:39:45.999Z</time></trkpt><trkpt lat="45.6632567" lon="7.9983883"><ele>792.6666666666667</ele><time>2026-03-29T13:39:46.999Z</time></trkpt><trkpt lat="45.6632283" lon="7.998505"><ele>793.5</ele><time>2026-03-29T13:39:47.998Z</time></trkpt><trkpt lat="45.6631883" lon="7.998625"><ele>794.3333333333333</ele><time>2026-03-29T13:39:48.999Z</time></trkpt><trkpt lat="45.6631767" lon="7.9987283"><ele>795.1666666666666</ele><time>2026-03-29T13:39:49.998Z</time></trkpt><trkpt lat="45.6631817" lon="7.9988333"><ele>796.0</ele><time>2026-03-29T13:39:50.999Z</time></trkpt><trkpt lat="45.66319" lon="7.9989367"><ele>795.9999999999999</ele><time>2026-03-29T13:39:51.999Z</time></trkpt><trkpt lat="45.6632217" lon="7.999055"><ele>796.0</ele><time>2026-03-29T13:39:52.999Z</time></trkpt><trkpt lat="45.6632433" lon="7.9991583"><ele>796.0</ele><time>2026-03-29T13:39:53.999Z</time></trkpt><trkpt lat="45.663255" lon="7.999275"><ele>796.0</ele><time>2026-03-29T13:39:54.998Z</time></trkpt><trkpt lat="45.6632617" lon="7.99939"><ele>795.9999999999999</ele><time>2026-03-29T13:39:55.999Z</time></trkpt><trkpt lat="45.6632633" lon="7.9995033"><ele>796.0</ele><time>2026-03-29T13:39:56.998Z</time></trkpt><trkpt lat="45.66325" lon="7.9996183"><ele>798.4</ele><time>2026-03-29T13:39:57.999Z</time></trkpt><trkpt lat="45.6632367" lon="7.9997517"><ele>800.8</ele><time>2026-03-29T13:39:58.998Z</time></trkpt><trkpt lat="45.6631917" lon="7.9998833"><ele>803.1999999999999</ele><time>2026-03-29T13:39:59.998Z</time></trkpt><trkpt lat="45.6631633" lon="8.0000367"><ele>805.5999999999999</ele><time>2026-03-29T13:40:00.998Z</time></trkpt><trkpt lat="45.663125" lon="8.0001767"><ele>808.0</ele><time>2026-03-29T13:40:01.998Z</time></trkpt><trkpt lat="45.6630883" lon="8.0003217"><ele>808.0</ele><time>2026-03-29T13:40:02.999Z</time></trkpt><trkpt lat="45.6630483" lon="8.0004483"><ele>808.0</ele><time>2026-03-29T13:40:03.999Z</time></trkpt><trkpt lat="45.6629833" lon="8.0005633"><ele>808.0</ele><time>2026-03-29T13:40:04.999Z</time></trkpt><trkpt lat="45.6629467" lon="8.000705"><ele>808.0</ele><time>2026-03-29T13:40:05.998Z</time></trkpt><trkpt lat="45.6629017" lon="8.0008233"><ele>808.0</ele><time>2026-03-29T13:40:06.999Z</time></trkpt><trkpt lat="45.6628683" lon="8.0009467"><ele>811.4</ele><time>2026-03-29T13:40:07.999Z</time></trkpt><trkpt lat="45.6628467" lon="8.00109"><ele>814.8</ele><time>2026-03-29T13:40:08.999Z</time></trkpt><trkpt lat="45.6628117" lon="8.00125"><ele>818.2</ele><time>2026-03-29T13:40:09.999Z</time></trkpt><trkpt lat="45.6627417" lon="8.001345"><ele>821.6</ele><time>2026-03-29T13:40:10.999Z</time></trkpt><trkpt lat="45.6626683" lon="8.0014567"><ele>825.0</ele><time>2026-03-29T13:40:11.998Z</time></trkpt><trkpt lat="45.662595" lon="8.0015683"><ele>818.5</ele><time>2026-03-29T13:40:12.999Z</time></trkpt><trkpt lat="45.6624917" lon="8.0016783"><ele>812.0</ele><time>2026-03-29T13:40:13.999Z</time></trkpt><trkpt lat="45.6624083" lon="8.00178"><ele>805.5</ele><time>2026-03-29T13:40:14.999Z</time></trkpt><trkpt lat="45.6622883" lon="8.00184"><ele>799.0</ele><time>2026-03-29T13:40:15.999Z</time></trkpt><trkpt lat="45.6621667" lon="8.001885"><ele>799.0</ele><time>2026-03-29T13:40:16.999Z</time></trkpt><trkpt lat="45.66208" lon="8.00197"><ele>799.0</ele><time>2026-03-29T13:40:17.998Z</time></trkpt><trkpt lat="45.6619983" lon="8.0020467"><ele>799.0</ele><time>2026-03-29T13:40:18.999Z</time></trkpt><trkpt lat="45.6619267" lon="8.002135"><ele>799.0</ele><time>2026-03-29T13:40:19.999Z</time></trkpt><trkpt lat="45.661865" lon="8.002225"><ele>799.0</ele><time>2026-03-29T13:40:20.999Z</time></trkpt><trkpt lat="45.6618017" lon="8.00232"><ele>795.75</ele><time>2026-03-29T13:40:21.999Z</time></trkpt><trkpt lat="45.6617267" lon="8.0024583"><ele>792.5</ele><time>2026-03-29T13:40:22.999Z</time></trkpt><trkpt lat="45.6616517" lon="8.0026083"><ele>789.25</ele><time>2026-03-29T13:40:23.999Z</time></trkpt><trkpt lat="45.6615783" lon="8.0027567"><ele>786.0</ele><time>2026-03-29T13:40:24.998Z</time></trkpt><trkpt lat="45.6615017" lon="8.00289"><ele>786.0</ele><time>2026-03-29T13:40:25.999Z</time></trkpt><trkpt lat="45.6613983" lon="8.0029583"><ele>786.0</ele><time>2026-03-29T13:40:26.999Z</time></trkpt><trkpt lat="45.6613" lon="8.0030183"><ele>786.0</ele><time>2026-03-29T13:40:27.999Z</time></trkpt><trkpt lat="45.661175" lon="8.0030683"><ele>786.0</ele><time>2026-03-29T13:40:28.999Z</time></trkpt><trkpt lat="45.6610567" lon="8.00319"><ele>781.6666666666667</ele><time>2026-03-29T13:40:29.999Z</time></trkpt><trkpt lat="45.6609483" lon="8.0033717"><ele>777.3333333333334</ele><time>2026-03-29T13:40:30.999Z</time></trkpt><trkpt lat="45.6608567" lon="8.0036083"><ele>773.0</ele><time>2026-03-29T13:40:31.999Z</time></trkpt><trkpt lat="45.66074" lon="8.003855"><ele>773.0</ele><time>2026-03-29T13:40:32.999Z</time></trkpt><trkpt lat="45.66061" lon="8.0040883"><ele>773.0</ele><time>2026-03-29T13:40:33.999Z</time></trkpt><trkpt lat="45.6604717" lon="8.0043283"><ele>773.0</ele><time>2026-03-29T13:40:34.998Z</time></trkpt><trkpt lat="45.6603283" lon="8.0045633"><ele>773.0</ele><time>2026-03-29T13:40:35.999Z</time></trkpt><trkpt lat="45.6601917" lon="8.004805"><ele>773.0</ele><time>2026-03-29T13:40:36.999Z</time></trkpt><trkpt lat="45.6600517" lon="8.0050417"><ele>773.0</ele><time>2026-03-29T13:40:37.999Z</time></trkpt><trkpt lat="45.6598983" lon="8.0052533"><ele>773.0</ele><time>2026-03-29T13:40:38.998Z</time></trkpt><trkpt lat="45.659745" lon="8.0054683"><ele>773.0</ele><time>2026-03-29T13:40:39.999Z</time></trkpt><trkpt lat="45.6595983" lon="8.0056733"><ele>773.0</ele><time>2026-03-29T13:40:40.999Z</time></trkpt><trkpt lat="45.6594583" lon="8.0058583"><ele>767.6666666666667</ele><time>2026-03-29T13:40:41.999Z</time></trkpt><trkpt lat="45.6593017" lon="8.0060533"><ele>762.3333333333334</ele><time>2026-03-29T13:40:42.998Z</time></trkpt><trkpt lat="45.65912" lon="8.006235"><ele>757.0</ele><time>2026-03-29T13:40:43.999Z</time></trkpt><trkpt lat="45.6589317" lon="8.0063667"><ele>757.0</ele><time>2026-03-29T13:40:44.998Z</time></trkpt><trkpt lat="45.6587517" lon="8.0065067"><ele>757.0</ele><time>2026-03-29T13:40:45.999Z</time></trkpt><trkpt lat="45.658565" lon="8.0066483"><ele>757.0</ele><time>2026-03-29T13:40:46.999Z</time></trkpt><trkpt lat="45.65836" lon="8.0067483"><ele>757.3333333333334</ele><time>2026-03-29T13:40:47.999Z</time></trkpt><trkpt lat="45.65815" lon="8.00686"><ele>757.6666666666666</ele><time>2026-03-29T13:40:48.999Z</time></trkpt><trkpt lat="45.65794" lon="8.0069533"><ele>758.0</ele><time>2026-03-29T13:40:49.999Z</time></trkpt><trkpt lat="45.65774" lon="8.0070417"><ele>755.6666666666666</ele><time>2026-03-29T13:40:50.999Z</time></trkpt><trkpt lat="45.6575467" lon="8.00711"><ele>753.3333333333334</ele><time>2026-03-29T13:40:51.999Z</time></trkpt><trkpt lat="45.65736" lon="8.007195"><ele>751.0</ele><time>2026-03-29T13:40:52.998Z</time></trkpt><trkpt lat="45.6571733" lon="8.0073167"><ele>751.0</ele><time>2026-03-29T13:40:53.998Z</time></trkpt><trkpt lat="45.6569967" lon="8.0074583"><ele>751.0</ele><time>2026-03-29T13:40:54.999Z</time></trkpt><trkpt lat="45.6568217" lon="8.0076367"><ele>751.0</ele><time>2026-03-29T13:40:55.999Z</time></trkpt><trkpt lat="45.6566383" lon="8.0078333"><ele>749.6666666666667</ele><time>2026-03-29T13:40:56.999Z</time></trkpt><trkpt lat="45.6564783" lon="8.0080383"><ele>748.3333333333334</ele><time>2026-03-29T13:40:57.999Z</time></trkpt><trkpt lat="45.6563483" lon="8.00824"><ele>747.0</ele><time>2026-03-29T13:40:58.999Z</time></trkpt><trkpt lat="45.6562167" lon="8.0084217"><ele>743.6666666666666</ele><time>2026-03-29T13:40:59.999Z</time></trkpt><trkpt lat="45.656075" lon="8.00857"><ele>740.3333333333333</ele><time>2026-03-29T13:41:00.999Z</time></trkpt><trkpt lat="45.65595" lon="8.0087217"><ele>737.0</ele><time>2026-03-29T13:41:01.998Z</time></trkpt><trkpt lat="45.6558217" lon="8.00887"><ele>737.0</ele><time>2026-03-29T13:41:02.999Z</time></trkpt><trkpt lat="45.6557267" lon="8.0090083"><ele>737.0</ele><time>2026-03-29T13:41:03.999Z</time></trkpt><trkpt lat="45.655635" lon="8.009155"><ele>737.0</ele><time>2026-03-29T13:41:04.999Z</time></trkpt><trkpt lat="45.6555567" lon="8.0093117"><ele>737.0</ele><time>2026-03-29T13:41:05.998Z</time></trkpt><trkpt lat="45.65547" lon="8.0094683"><ele>735.6666666666666</ele><time>2026-03-29T13:41:06.999Z</time></trkpt><trkpt lat="45.6553817" lon="8.0096433"><ele>734.3333333333334</ele><time>2026-03-29T13:41:07.999Z</time></trkpt><trkpt lat="45.655295" lon="8.0098367"><ele>733.0</ele><time>2026-03-29T13:41:08.999Z</time></trkpt><trkpt lat="45.6552083" lon="8.0100283"><ele>733.0</ele><time>2026-03-29T13:41:09.999Z</time></trkpt><trkpt lat="45.6551383" lon="8.0102533"><ele>733.0</ele><time>2026-03-29T13:41:10.999Z</time></trkpt><trkpt lat="45.6550683" lon="8.0104433"><ele>733.0</ele><time>2026-03-29T13:41:11.999Z</time></trkpt><trkpt lat="45.6549733" lon="8.01061"><ele>733.0</ele><time>2026-03-29T13:41:12.999Z</time></trkpt><trkpt lat="45.6548867" lon="8.010765"><ele>733.0</ele><time>2026-03-29T13:41:13.999Z</time></trkpt><trkpt lat="45.6548117" lon="8.0109183"><ele>733.0</ele><time>2026-03-29T13:41:14.999Z</time></trkpt><trkpt lat="45.654755" lon="8.0110683"><ele>733.0</ele><time>2026-03-29T13:41:15.999Z</time></trkpt><trkpt lat="45.654695" lon="8.0112417"><ele>735.25</ele><time>2026-03-29T13:41:16.998Z</time></trkpt><trkpt lat="45.654645" lon="8.0114333"><ele>737.5</ele><time>2026-03-29T13:41:17.999Z</time></trkpt><trkpt lat="45.65461" lon="8.011645"><ele>739.75</ele><time>2026-03-29T13:41:18.998Z</time></trkpt><trkpt lat="45.6545533" lon="8.0118467"><ele>742.0</ele><time>2026-03-29T13:41:19.999Z</time></trkpt><trkpt lat="45.654465" lon="8.01204"><ele>738.0</ele><time>2026-03-29T13:41:20.999Z</time></trkpt><trkpt lat="45.65434" lon="8.01221"><ele>734.0</ele><time>2026-03-29T13:41:21.999Z</time></trkpt><trkpt lat="45.654175" lon="8.0123383"><ele>730.0</ele><time>2026-03-29T13:41:22.999Z</time></trkpt><trkpt lat="45.653945" lon="8.01238"><ele>730.0</ele><time>2026-03-29T13:41:23.999Z</time></trkpt><trkpt lat="45.65373" lon="8.0124217"><ele>730.0</ele><time>2026-03-29T13:41:24.999Z</time></trkpt><trkpt lat="45.6535517" lon="8.0125217"><ele>730.0</ele><time>2026-03-29T13:41:25.998Z</time></trkpt><trkpt lat="45.6533733" lon="8.012645"><ele>729.6666666666667</ele><time>2026-03-29T13:41:26.999Z</time></trkpt><trkpt lat="45.653205" lon="8.0127783"><ele>729.3333333333334</ele><time>2026-03-29T13:41:27.998Z</time></trkpt><trkpt lat="45.6530367" lon="8.0129067"><ele>729.0</ele><time>2026-03-29T13:41:28.998Z</time></trkpt><trkpt lat="45.6528633" lon="8.0129833"><ele>726.3333333333334</ele><time>2026-03-29T13:41:29.999Z</time></trkpt><trkpt lat="45.652685" lon="8.01303"><ele>723.6666666666667</ele><time>2026-03-29T13:41:30.999Z</time></trkpt><trkpt lat="45.6525083" lon="8.01299"><ele>721.0</ele><time>2026-03-29T13:41:31.999Z</time></trkpt><trkpt lat="45.6523267" lon="8.0129167"><ele>721.0</ele><time>2026-03-29T13:41:32.999Z</time></trkpt><trkpt lat="45.6521583" lon="8.012855"><ele>721.0</ele><time>2026-03-29T13:41:33.998Z</time></trkpt><trkpt lat="45.65199" lon="8.0128083"><ele>721.0</ele><time>2026-03-29T13:41:34.999Z</time></trkpt><trkpt lat="45.651815" lon="8.0128267"><ele>720.0</ele><time>2026-03-29T13:41:35.998Z</time></trkpt><trkpt lat="45.651645" lon="8.0128767"><ele>719.0</ele><time>2026-03-29T13:41:36.998Z</time></trkpt><trkpt lat="45.6514867" lon="8.01295"><ele>718.0</ele><time>2026-03-29T13:41:37.998Z</time></trkpt><trkpt lat="45.6513433" lon="8.0130467"><ele>718.0</ele><time>2026-03-29T13:41:38.999Z</time></trkpt><trkpt lat="45.6512133" lon="8.0132067"><ele>718.0</ele><time>2026-03-29T13:41:39.998Z</time></trkpt><trkpt lat="45.6510983" lon="8.0134267"><ele>718.0</ele><time>2026-03-29T13:41:40.998Z</time></trkpt><trkpt lat="45.6510017" lon="8.013645"><ele>719.3333333333334</ele><time>2026-03-29T13:41:41.998Z</time></trkpt><trkpt lat="45.6508933" lon="8.01387"><ele>720.6666666666666</ele><time>2026-03-29T13:41:42.999Z</time></trkpt><trkpt lat="45.6507483" lon="8.0140383"><ele>722.0</ele><time>2026-03-29T13:41:43.999Z</time></trkpt><trkpt lat="45.650605" lon="8.014215"><ele>722.0</ele><time>2026-03-29T13:41:44.999Z</time></trkpt><trkpt lat="45.650455" lon="8.01441"><ele>722.0</ele><time>2026-03-29T13:41:45.999Z</time></trkpt><trkpt lat="45.65032" lon="8.01461"><ele>722.0</ele><time>2026-03-29T13:41:46.999Z</time></trkpt><trkpt lat="45.6501917" lon="8.01478"><ele>719.3333333333333</ele><time>2026-03-29T13:41:47.999Z</time></trkpt><trkpt lat="45.650045" lon="8.01494"><ele>716.6666666666666</ele><time>2026-03-29T13:41:48.999Z</time></trkpt><trkpt lat="45.649905" lon="8.0150783"><ele>714.0</ele><time>2026-03-29T13:41:49.999Z</time></trkpt><trkpt lat="45.64973" lon="8.015195"><ele>714.0</ele><time>2026-03-29T13:41:50.998Z</time></trkpt><trkpt lat="45.649535" lon="8.0152883"><ele>714.0</ele><time>2026-03-29T13:41:51.999Z</time></trkpt><trkpt lat="45.6493467" lon="8.0153917"><ele>714.0</ele><time>2026-03-29T13:41:52.999Z</time></trkpt><trkpt lat="45.64918" lon="8.015505"><ele>713.6666666666666</ele><time>2026-03-29T13:41:53.999Z</time></trkpt><trkpt lat="45.6490333" lon="8.0156283"><ele>713.3333333333333</ele><time>2026-03-29T13:41:54.999Z</time></trkpt><trkpt lat="45.6488783" lon="8.015735"><ele>713.0</ele><time>2026-03-29T13:41:55.998Z</time></trkpt><trkpt lat="45.6487033" lon="8.0158233"><ele>707.6666666666666</ele><time>2026-03-29T13:41:56.999Z</time></trkpt><trkpt lat="45.6485217" lon="8.0159017"><ele>702.3333333333334</ele><time>2026-03-29T13:41:57.998Z</time></trkpt><trkpt lat="45.6483367" lon="8.0159667"><ele>697.0</ele><time>2026-03-29T13:41:58.998Z</time></trkpt><trkpt lat="45.6481783" lon="8.01606"><ele>697.0</ele><time>2026-03-29T13:41:59.999Z</time></trkpt><trkpt lat="45.6480667" lon="8.0162083"><ele>697.0</ele><time>2026-03-29T13:42:00.999Z</time></trkpt><trkpt lat="45.64796" lon="8.0163817"><ele>697.0</ele><time>2026-03-29T13:42:01.998Z</time></trkpt><trkpt lat="45.64786" lon="8.0165833"><ele>692.6666666666667</ele><time>2026-03-29T13:42:02.998Z</time></trkpt><trkpt lat="45.6478033" lon="8.01684"><ele>688.3333333333334</ele><time>2026-03-29T13:42:03.998Z</time></trkpt><trkpt lat="45.6476967" lon="8.017045"><ele>684.0</ele><time>2026-03-29T13:42:04.998Z</time></trkpt><trkpt lat="45.6475967" lon="8.0172367"><ele>684.0</ele><time>2026-03-29T13:42:05.999Z</time></trkpt><trkpt lat="45.6474683" lon="8.0174017"><ele>684.0</ele><time>2026-03-29T13:42:06.999Z</time></trkpt><trkpt lat="45.6473267" lon="8.0175917"><ele>684.0</ele><time>2026-03-29T13:42:07.999Z</time></trkpt><trkpt lat="45.6471717" lon="8.01777"><ele>684.6666666666666</ele><time>2026-03-29T13:42:08.999Z</time></trkpt><trkpt lat="45.6470283" lon="8.0179583"><ele>685.3333333333333</ele><time>2026-03-29T13:42:09.999Z</time></trkpt><trkpt lat="45.64688" lon="8.0181583"><ele>686.0</ele><time>2026-03-29T13:42:10.999Z</time></trkpt><trkpt lat="45.6467167" lon="8.0183783"><ele>688.0</ele><time>2026-03-29T13:42:11.999Z</time></trkpt><trkpt lat="45.6465633" lon="8.018605"><ele>690.0</ele><time>2026-03-29T13:42:12.999Z</time></trkpt><trkpt lat="45.6464317" lon="8.0188217"><ele>692.0</ele><time>2026-03-29T13:42:13.998Z</time></trkpt><trkpt lat="45.6462917" lon="8.019015"><ele>692.3333333333333</ele><time>2026-03-29T13:42:14.999Z</time></trkpt><trkpt lat="45.6461267" lon="8.01917"><ele>692.6666666666666</ele><time>2026-03-29T13:42:15.999Z</time></trkpt><trkpt lat="45.6459433" lon="8.0193067"><ele>693.0</ele><time>2026-03-29T13:42:16.998Z</time></trkpt><trkpt lat="45.6457667" lon="8.0194117"><ele>693.0</ele><time>2026-03-29T13:42:17.998Z</time></trkpt><trkpt lat="45.6455983" lon="8.0194867"><ele>693.0</ele><time>2026-03-29T13:42:18.999Z</time></trkpt><trkpt lat="45.6454467" lon="8.0195733"><ele>693.0</ele><time>2026-03-29T13:42:19.999Z</time></trkpt><trkpt lat="45.645345" lon="8.019705"><ele>689.0</ele><time>2026-03-29T13:42:20.999Z</time></trkpt><trkpt lat="45.64527" lon="8.0198583"><ele>685.0</ele><time>2026-03-29T13:42:21.999Z</time></trkpt><trkpt lat="45.64519" lon="8.0200483"><ele>681.0</ele><time>2026-03-29T13:42:22.999Z</time></trkpt><trkpt lat="45.6451333" lon="8.0202717"><ele>681.0</ele><time>2026-03-29T13:42:23.999Z</time></trkpt><trkpt lat="45.645065" lon="8.02049"><ele>681.0</ele><time>2026-03-29T13:42:24.998Z</time></trkpt><trkpt lat="45.6450383" lon="8.0207383"><ele>681.0</ele><time>2026-03-29T13:42:25.998Z</time></trkpt><trkpt lat="45.6450017" lon="8.021"><ele>681.0</ele><time>2026-03-29T13:42:26.998Z</time></trkpt><trkpt lat="45.6449817" lon="8.02126"><ele>681.0</ele><time>2026-03-29T13:42:27.999Z</time></trkpt><trkpt lat="45.6449583" lon="8.0214983"><ele>681.0</ele><time>2026-03-29T13:42:28.999Z</time></trkpt><trkpt lat="45.64494" lon="8.02173"><ele>679.3333333333334</ele><time>2026-03-29T13:42:29.999Z</time></trkpt><trkpt lat="45.6449367" lon="8.0219667"><ele>677.6666666666667</ele><time>2026-03-29T13:42:30.999Z</time></trkpt><trkpt lat="45.6449417" lon="8.0221967"><ele>676.0</ele><time>2026-03-29T13:42:31.999Z</time></trkpt><trkpt lat="45.6449633" lon="8.02239"><ele>676.25</ele><time>2026-03-29T13:42:32.999Z</time></trkpt><trkpt lat="45.6449617" lon="8.0225767"><ele>676.5</ele><time>2026-03-29T13:42:33.999Z</time></trkpt><trkpt lat="45.6449183" lon="8.0227867"><ele>676.75</ele><time>2026-03-29T13:42:34.998Z</time></trkpt><trkpt lat="45.6448717" lon="8.0229933"><ele>677.0</ele><time>2026-03-29T13:42:35.999Z</time></trkpt><trkpt lat="45.644795" lon="8.02321"><ele>673.0</ele><time>2026-03-29T13:42:36.998Z</time></trkpt><trkpt lat="45.6446383" lon="8.02343"><ele>669.0</ele><time>2026-03-29T13:42:37.999Z</time></trkpt><trkpt lat="45.6444767" lon="8.0236367"><ele>665.0</ele><time>2026-03-29T13:42:38.999Z</time></trkpt><trkpt lat="45.64432" lon="8.0238233"><ele>665.0</ele><time>2026-03-29T13:42:39.999Z</time></trkpt><trkpt lat="45.6441767" lon="8.023995"><ele>665.0</ele><time>2026-03-29T13:42:40.999Z</time></trkpt><trkpt lat="45.6440083" lon="8.0241217"><ele>665.0</ele><time>2026-03-29T13:42:41.999Z</time></trkpt><trkpt lat="45.6438367" lon="8.024215"><ele>667.3333333333333</ele><time>2026-03-29T13:42:42.998Z</time></trkpt><trkpt lat="45.64364" lon="8.02426"><ele>669.6666666666666</ele><time>2026-03-29T13:42:43.999Z</time></trkpt><trkpt lat="45.6434283" lon="8.0242783"><ele>672.0</ele><time>2026-03-29T13:42:44.998Z</time></trkpt><trkpt lat="45.64321" lon="8.0242817"><ele>672.0</ele><time>2026-03-29T13:42:45.998Z</time></trkpt><trkpt lat="45.6429883" lon="8.0242683"><ele>672.0</ele><time>2026-03-29T13:42:46.999Z</time></trkpt><trkpt lat="45.6427583" lon="8.024285"><ele>668.0</ele><time>2026-03-29T13:42:47.998Z</time></trkpt><trkpt lat="45.6425317" lon="8.0243033"><ele>664.0</ele><time>2026-03-29T13:42:48.998Z</time></trkpt><trkpt lat="45.6423117" lon="8.0243433"><ele>660.0</ele><time>2026-03-29T13:42:49.998Z</time></trkpt><trkpt lat="45.6421" lon="8.0243833"><ele>658.3333333333334</ele><time>2026-03-29T13:42:50.999Z</time></trkpt><trkpt lat="45.6419133" lon="8.0244317"><ele>656.6666666666667</ele><time>2026-03-29T13:42:51.998Z</time></trkpt><trkpt lat="45.6417167" lon="8.0244867"><ele>655.0</ele><time>2026-03-29T13:42:52.999Z</time></trkpt><trkpt lat="45.6415233" lon="8.0245733"><ele>655.0</ele><time>2026-03-29T13:42:53.999Z</time></trkpt><trkpt lat="45.64134" lon="8.0246783"><ele>655.0</ele><time>2026-03-29T13:42:54.998Z</time></trkpt><trkpt lat="45.64116" lon="8.024795"><ele>655.0</ele><time>2026-03-29T13:42:55.999Z</time></trkpt><trkpt lat="45.6409967" lon="8.024905"><ele>655.6666666666667</ele><time>2026-03-29T13:42:56.999Z</time></trkpt><trkpt lat="45.6408383" lon="8.0250167"><ele>656.3333333333334</ele><time>2026-03-29T13:42:57.999Z</time></trkpt><trkpt lat="45.6406933" lon="8.0251533"><ele>657.0</ele><time>2026-03-29T13:42:58.999Z</time></trkpt><trkpt lat="45.6405617" lon="8.0253267"><ele>657.0</ele><time>2026-03-29T13:42:59.999Z</time></trkpt><trkpt lat="45.6404283" lon="8.0255083"><ele>657.0</ele><time>2026-03-29T13:43:00.999Z</time></trkpt><trkpt lat="45.6403133" lon="8.0257083"><ele>657.0</ele><time>2026-03-29T13:43:01.999Z</time></trkpt><trkpt lat="45.6402017" lon="8.0259167"><ele>652.3333333333334</ele><time>2026-03-29T13:43:02.998Z</time></trkpt><trkpt lat="45.6400933" lon="8.0261067"><ele>647.6666666666667</ele><time>2026-03-29T13:43:03.999Z</time></trkpt><trkpt lat="45.6400033" lon="8.0263217"><ele>643.0</ele><time>2026-03-29T13:43:04.998Z</time></trkpt><trkpt lat="45.6399033" lon="8.0265383"><ele>650.6666666666667</ele><time>2026-03-29T13:43:05.999Z</time></trkpt><trkpt lat="45.63982" lon="8.0267617"><ele>658.3333333333334</ele><time>2026-03-29T13:43:06.999Z</time></trkpt><trkpt lat="45.6397283" lon="8.02694"><ele>666.0</ele><time>2026-03-29T13:43:07.998Z</time></trkpt><trkpt lat="45.639655" lon="8.0271617"><ele>666.0</ele><time>2026-03-29T13:43:08.999Z</time></trkpt><trkpt lat="45.6395783" lon="8.027345"><ele>666.0</ele><time>2026-03-29T13:43:09.999Z</time></trkpt><trkpt lat="45.6395183" lon="8.0275817"><ele>666.0</ele><time>2026-03-29T13:43:10.999Z</time></trkpt><trkpt lat="45.6394467" lon="8.027815"><ele>655.6666666666666</ele><time>2026-03-29T13:43:11.999Z</time></trkpt><trkpt lat="45.6393983" lon="8.0280417"><ele>645.3333333333333</ele><time>2026-03-29T13:43:12.999Z</time></trkpt><trkpt lat="45.6393417" lon="8.0282583"><ele>635.0</ele><time>2026-03-29T13:43:13.998Z</time></trkpt><trkpt lat="45.6392833" lon="8.02847"><ele>634.6666666666666</ele><time>2026-03-29T13:43:14.999Z</time></trkpt><trkpt lat="45.639215" lon="8.0286817"><ele>634.3333333333334</ele><time>2026-03-29T13:43:15.999Z</time></trkpt><trkpt lat="45.6391433" lon="8.0289067"><ele>634.0</ele><time>2026-03-29T13:43:16.998Z</time></trkpt><trkpt lat="45.63906" lon="8.0291167"><ele>639.3333333333334</ele><time>2026-03-29T13:43:17.999Z</time></trkpt><trkpt lat="45.6389567" lon="8.0293133"><ele>644.6666666666666</ele><time>2026-03-29T13:43:18.998Z</time></trkpt><trkpt lat="45.6388367" lon="8.0295117"><ele>650.0</ele><time>2026-03-29T13:43:19.998Z</time></trkpt><trkpt lat="45.6387083" lon="8.0296833"><ele>649.6666666666666</ele><time>2026-03-29T13:43:20.999Z</time></trkpt><trkpt lat="45.6385633" lon="8.0298633"><ele>649.3333333333334</ele><time>2026-03-29T13:43:21.999Z</time></trkpt><trkpt lat="45.6384167" lon="8.0300283"><ele>649.0</ele><time>2026-03-29T13:43:22.998Z</time></trkpt><trkpt lat="45.6382417" lon="8.0301583"><ele>649.0</ele><time>2026-03-29T13:43:23.998Z</time></trkpt><trkpt lat="45.6380783" lon="8.0302833"><ele>649.0</ele><time>2026-03-29T13:43:24.999Z</time></trkpt><trkpt lat="45.637895" lon="8.0303567"><ele>649.0</ele><time>2026-03-29T13:43:25.998Z</time></trkpt><trkpt lat="45.6377167" lon="8.03043"><ele>643.3333333333334</ele><time>2026-03-29T13:43:26.999Z</time></trkpt><trkpt lat="45.6375367" lon="8.0305033"><ele>637.6666666666666</ele><time>2026-03-29T13:43:27.998Z</time></trkpt><trkpt lat="45.63737" lon="8.0305633"><ele>632.0</ele><time>2026-03-29T13:43:28.999Z</time></trkpt><trkpt lat="45.6372033" lon="8.0306283"><ele>632.0</ele><time>2026-03-29T13:43:29.998Z</time></trkpt><trkpt lat="45.6370483" lon="8.030695"><ele>632.0</ele><time>2026-03-29T13:43:30.999Z</time></trkpt><trkpt lat="45.6368883" lon="8.0307833"><ele>632.0</ele><time>2026-03-29T13:43:31.998Z</time></trkpt><trkpt lat="45.63672" lon="8.0308917"><ele>633.3333333333333</ele><time>2026-03-29T13:43:32.998Z</time></trkpt><trkpt lat="45.6365667" lon="8.03105"><ele>634.6666666666666</ele><time>2026-03-29T13:43:33.998Z</time></trkpt><trkpt lat="45.6364117" lon="8.03126"><ele>636.0</ele><time>2026-03-29T13:43:34.999Z</time></trkpt><trkpt lat="45.6362667" lon="8.0314667"><ele>632.0</ele><time>2026-03-29T13:43:35.998Z</time></trkpt><trkpt lat="45.636135" lon="8.0316517"><ele>628.0</ele><time>2026-03-29T13:43:36.998Z</time></trkpt><trkpt lat="45.636025" lon="8.03183"><ele>624.0</ele><time>2026-03-29T13:43:37.998Z</time></trkpt><trkpt lat="45.635935" lon="8.0319933"><ele>624.0</ele><time>2026-03-29T13:43:38.997Z</time></trkpt><trkpt lat="45.6358417" lon="8.0321817"><ele>624.0</ele><time>2026-03-29T13:43:39.998Z</time></trkpt><trkpt lat="45.6357517" lon="8.0323833"><ele>624.0</ele><time>2026-03-29T13:43:40.998Z</time></trkpt><trkpt lat="45.6356633" lon="8.03263"><ele>623.6666666666666</ele><time>2026-03-29T13:43:41.998Z</time></trkpt><trkpt lat="45.6355517" lon="8.0328683"><ele>623.3333333333333</ele><time>2026-03-29T13:43:42.998Z</time></trkpt><trkpt lat="45.6354167" lon="8.033085"><ele>623.0</ele><time>2026-03-29T13:43:43.998Z</time></trkpt><trkpt lat="45.6352917" lon="8.033335"><ele>623.0</ele><time>2026-03-29T13:43:44.998Z</time></trkpt><trkpt lat="45.6351567" lon="8.0335917"><ele>623.0</ele><time>2026-03-29T13:43:45.997Z</time></trkpt><trkpt lat="45.635035" lon="8.033815"><ele>623.0</ele><time>2026-03-29T13:43:46.998Z</time></trkpt><trkpt lat="45.6349067" lon="8.03402"><ele>629.0</ele><time>2026-03-29T13:43:47.998Z</time></trkpt><trkpt lat="45.6347717" lon="8.034205"><ele>635.0</ele><time>2026-03-29T13:43:48.997Z</time></trkpt><trkpt lat="45.6346433" lon="8.0343833"><ele>641.0</ele><time>2026-03-29T13:43:49.997Z</time></trkpt><trkpt lat="45.6345267" lon="8.034535"><ele>635.0</ele><time>2026-03-29T13:43:50.998Z</time></trkpt><trkpt lat="45.63442" lon="8.03473"><ele>629.0</ele><time>2026-03-29T13:43:51.998Z</time></trkpt><trkpt lat="45.6343283" lon="8.034945"><ele>623.0</ele><time>2026-03-29T13:43:52.998Z</time></trkpt><trkpt lat="45.6342317" lon="8.0351467"><ele>623.0</ele><time>2026-03-29T13:43:53.998Z</time></trkpt><trkpt lat="45.6341183" lon="8.0353083"><ele>623.0</ele><time>2026-03-29T13:43:54.997Z</time></trkpt><trkpt lat="45.6339667" lon="8.03542"><ele>623.0</ele><time>2026-03-29T13:43:55.998Z</time></trkpt><trkpt lat="45.6337667" lon="8.03546"><ele>620.0</ele><time>2026-03-29T13:43:56.998Z</time></trkpt><trkpt lat="45.6335883" lon="8.0354717"><ele>617.0</ele><time>2026-03-29T13:43:57.997Z</time></trkpt><trkpt lat="45.633425" lon="8.0354717"><ele>614.0</ele><time>2026-03-29T13:43:58.998Z</time></trkpt><trkpt lat="45.6332683" lon="8.0354817"><ele>614.0</ele><time>2026-03-29T13:43:59.998Z</time></trkpt><trkpt lat="45.63316" lon="8.0355583"><ele>614.0</ele><time>2026-03-29T13:44:00.997Z</time></trkpt><trkpt lat="45.6330467" lon="8.0357383"><ele>614.0</ele><time>2026-03-29T13:44:01.998Z</time></trkpt><trkpt lat="45.6329367" lon="8.0359533"><ele>614.6666666666666</ele><time>2026-03-29T13:44:02.998Z</time></trkpt><trkpt lat="45.6328467" lon="8.0361583"><ele>615.3333333333334</ele><time>2026-03-29T13:44:03.998Z</time></trkpt><trkpt lat="45.6327617" lon="8.0363983"><ele>616.0</ele><time>2026-03-29T13:44:04.998Z</time></trkpt><trkpt lat="45.63272" lon="8.0366833"><ele>614.3333333333334</ele><time>2026-03-29T13:44:05.998Z</time></trkpt><trkpt lat="45.632685" lon="8.0369467"><ele>612.6666666666666</ele><time>2026-03-29T13:44:06.997Z</time></trkpt><trkpt lat="45.63266" lon="8.0372083"><ele>611.0</ele><time>2026-03-29T13:44:07.997Z</time></trkpt><trkpt lat="45.6326483" lon="8.03746"><ele>611.0</ele><time>2026-03-29T13:44:08.997Z</time></trkpt><trkpt lat="45.6326383" lon="8.0376933"><ele>611.0</ele><time>2026-03-29T13:44:09.998Z</time></trkpt><trkpt lat="45.632615" lon="8.0379417"><ele>611.0</ele><time>2026-03-29T13:44:10.998Z</time></trkpt><trkpt lat="45.6325933" lon="8.0381683"><ele>612.25</ele><time>2026-03-29T13:44:11.998Z</time></trkpt><trkpt lat="45.63255" lon="8.0383833"><ele>613.5</ele><time>2026-03-29T13:44:12.998Z</time></trkpt><trkpt lat="45.632485" lon="8.0385567"><ele>614.75</ele><time>2026-03-29T13:44:13.998Z</time></trkpt><trkpt lat="45.6323867" lon="8.03872"><ele>616.0</ele><time>2026-03-29T13:44:14.997Z</time></trkpt><trkpt lat="45.632275" lon="8.0388567"><ele>616.0</ele><time>2026-03-29T13:44:15.997Z</time></trkpt><trkpt lat="45.6321617" lon="8.0390017"><ele>616.0</ele><time>2026-03-29T13:44:16.998Z</time></trkpt><trkpt lat="45.6320433" lon="8.0391283"><ele>616.0</ele><time>2026-03-29T13:44:17.998Z</time></trkpt><trkpt lat="45.6319383" lon="8.0392633"><ele>616.0</ele><time>2026-03-29T13:44:18.998Z</time></trkpt><trkpt lat="45.6318533" lon="8.03941"><ele>614.75</ele><time>2026-03-29T13:44:19.998Z</time></trkpt><trkpt lat="45.6317717" lon="8.03955"><ele>613.5</ele><time>2026-03-29T13:44:20.998Z</time></trkpt><trkpt lat="45.6316617" lon="8.039705"><ele>612.25</ele><time>2026-03-29T13:44:21.998Z</time></trkpt><trkpt lat="45.6315583" lon="8.03985"><ele>611.0</ele><time>2026-03-29T13:44:22.998Z</time></trkpt><trkpt lat="45.63145" lon="8.0400283"><ele>611.0</ele><time>2026-03-29T13:44:23.998Z</time></trkpt><trkpt lat="45.6313517" lon="8.0402033"><ele>611.0</ele><time>2026-03-29T13:44:24.998Z</time></trkpt><trkpt lat="45.6312517" lon="8.0403917"><ele>611.0</ele><time>2026-03-29T13:44:25.998Z</time></trkpt><trkpt lat="45.631155" lon="8.0405783"><ele>610.0</ele><time>2026-03-29T13:44:26.998Z</time></trkpt><trkpt lat="45.63107" lon="8.0407567"><ele>609.0</ele><time>2026-03-29T13:44:27.998Z</time></trkpt><trkpt lat="45.6309617" lon="8.0409333"><ele>608.0</ele><time>2026-03-29T13:44:28.998Z</time></trkpt><trkpt lat="45.6308533" lon="8.041135"><ele>608.0</ele><time>2026-03-29T13:44:29.998Z</time></trkpt><trkpt lat="45.63075" lon="8.0413167"><ele>608.0</ele><time>2026-03-29T13:44:30.998Z</time></trkpt><trkpt lat="45.630655" lon="8.0414983"><ele>608.0</ele><time>2026-03-29T13:44:31.997Z</time></trkpt><trkpt lat="45.6305583" lon="8.0416783"><ele>606.3333333333333</ele><time>2026-03-29T13:44:32.998Z</time></trkpt><trkpt lat="45.6304717" lon="8.0418667"><ele>604.6666666666666</ele><time>2026-03-29T13:44:33.998Z</time></trkpt><trkpt lat="45.6303883" lon="8.04205"><ele>603.0</ele><time>2026-03-29T13:44:34.998Z</time></trkpt><trkpt lat="45.6302883" lon="8.0422267"><ele>603.0</ele><time>2026-03-29T13:44:35.997Z</time></trkpt><trkpt lat="45.6301967" lon="8.0423867"><ele>603.0</ele><time>2026-03-29T13:44:36.997Z</time></trkpt><trkpt lat="45.6300917" lon="8.042535"><ele>603.0</ele><time>2026-03-29T13:44:37.998Z</time></trkpt><trkpt lat="45.6299683" lon="8.0426683"><ele>603.0</ele><time>2026-03-29T13:44:38.997Z</time></trkpt><trkpt lat="45.6298233" lon="8.0427767"><ele>602.0</ele><time>2026-03-29T13:44:39.997Z</time></trkpt><trkpt lat="45.6296767" lon="8.0428667"><ele>601.0</ele><time>2026-03-29T13:44:40.998Z</time></trkpt><trkpt lat="45.629515" lon="8.042955"><ele>600.0</ele><time>2026-03-29T13:44:41.997Z</time></trkpt><trkpt lat="45.6293467" lon="8.04305"><ele>600.0</ele><time>2026-03-29T13:44:42.998Z</time></trkpt><trkpt lat="45.6291633" lon="8.04311"><ele>600.0</ele><time>2026-03-29T13:44:43.998Z</time></trkpt><trkpt lat="45.6290167" lon="8.0431917"><ele>600.0</ele><time>2026-03-29T13:44:44.998Z</time></trkpt><trkpt lat="45.628865" lon="8.043275"><ele>600.0</ele><time>2026-03-29T13:44:45.997Z</time></trkpt><trkpt lat="45.6287333" lon="8.043355"><ele>600.0</ele><time>2026-03-29T13:44:46.998Z</time></trkpt><trkpt lat="45.6285883" lon="8.0434033"><ele>600.0</ele><time>2026-03-29T13:44:47.997Z</time></trkpt><trkpt lat="45.6284283" lon="8.0434667"><ele>600.0</ele><time>2026-03-29T13:44:48.998Z</time></trkpt><trkpt lat="45.62828" lon="8.0435233"><ele>600.0</ele><time>2026-03-29T13:44:49.997Z</time></trkpt><trkpt lat="45.62813" lon="8.043615"><ele>600.0</ele><time>2026-03-29T13:44:50.998Z</time></trkpt><trkpt lat="45.6279783" lon="8.0437067"><ele>600.0</ele><time>2026-03-29T13:44:51.998Z</time></trkpt><trkpt lat="45.6278333" lon="8.043775"><ele>600.0</ele><time>2026-03-29T13:44:52.998Z</time></trkpt><trkpt lat="45.6276967" lon="8.0438533"><ele>600.0</ele><time>2026-03-29T13:44:53.997Z</time></trkpt><trkpt lat="45.6275633" lon="8.04393"><ele>600.0</ele><time>2026-03-29T13:44:54.997Z</time></trkpt><trkpt lat="45.627425" lon="8.0440067"><ele>598.0</ele><time>2026-03-29T13:44:55.998Z</time></trkpt><trkpt lat="45.62727" lon="8.044055"><ele>596.0</ele><time>2026-03-29T13:44:56.997Z</time></trkpt><trkpt lat="45.6271083" lon="8.04409"><ele>594.0</ele><time>2026-03-29T13:44:57.997Z</time></trkpt><trkpt lat="45.62692" lon="8.0441167"><ele>595.6666666666666</ele><time>2026-03-29T13:44:58.997Z</time></trkpt><trkpt lat="45.62675" lon="8.04414"><ele>597.3333333333333</ele><time>2026-03-29T13:44:59.998Z</time></trkpt><trkpt lat="45.626585" lon="8.0441683"><ele>599.0</ele><time>2026-03-29T13:45:00.998Z</time></trkpt><trkpt lat="45.6264133" lon="8.0441583"><ele>599.0</ele><time>2026-03-29T13:45:01.998Z</time></trkpt><trkpt lat="45.62626" lon="8.0441983"><ele>599.0</ele><time>2026-03-29T13:45:02.998Z</time></trkpt><trkpt lat="45.62611" lon="8.0442367"><ele>599.0</ele><time>2026-03-29T13:45:03.998Z</time></trkpt><trkpt lat="45.625975" lon="8.04427"><ele>599.0</ele><time>2026-03-29T13:45:04.998Z</time></trkpt><trkpt lat="45.6258517" lon="8.0442833"><ele>598.0</ele><time>2026-03-29T13:45:05.997Z</time></trkpt><trkpt lat="45.6257133" lon="8.0443167"><ele>597.0</ele><time>2026-03-29T13:45:06.998Z</time></trkpt><trkpt lat="45.6255933" lon="8.044395"><ele>596.0</ele><time>2026-03-29T13:45:07.998Z</time></trkpt><trkpt lat="45.6254867" lon="8.044535"><ele>595.0</ele><time>2026-03-29T13:45:08.998Z</time></trkpt><trkpt lat="45.6253633" lon="8.044665"><ele>593.6666666666667</ele><time>2026-03-29T13:45:09.998Z</time></trkpt><trkpt lat="45.6252433" lon="8.0448033"><ele>592.3333333333334</ele><time>2026-03-29T13:45:10.998Z</time></trkpt><trkpt lat="45.6251133" lon="8.0449333"><ele>591.0</ele><time>2026-03-29T13:45:11.997Z</time></trkpt><trkpt lat="45.624985" lon="8.0450367"><ele>594.0</ele><time>2026-03-29T13:45:12.997Z</time></trkpt><trkpt lat="45.624855" lon="8.045105"><ele>597.0</ele><time>2026-03-29T13:45:13.998Z</time></trkpt><trkpt lat="45.6247067" lon="8.0451617"><ele>600.0</ele><time>2026-03-29T13:45:14.998Z</time></trkpt><trkpt lat="45.6245483" lon="8.04521"><ele>599.0</ele><time>2026-03-29T13:45:15.997Z</time></trkpt><trkpt lat="45.6243633" lon="8.0452617"><ele>598.0</ele><time>2026-03-29T13:45:16.998Z</time></trkpt><trkpt lat="45.62417" lon="8.0453117"><ele>597.0</ele><time>2026-03-29T13:45:17.997Z</time></trkpt><trkpt lat="45.6239733" lon="8.045365"><ele>597.0</ele><time>2026-03-29T13:45:18.998Z</time></trkpt><trkpt lat="45.6237733" lon="8.0454283"><ele>597.0</ele><time>2026-03-29T13:45:19.998Z</time></trkpt><trkpt lat="45.6235717" lon="8.04547"><ele>597.0</ele><time>2026-03-29T13:45:20.998Z</time></trkpt><trkpt lat="45.6233733" lon="8.0455383"><ele>596.6666666666666</ele><time>2026-03-29T13:45:21.998Z</time></trkpt><trkpt lat="45.623165" lon="8.0456183"><ele>596.3333333333333</ele><time>2026-03-29T13:45:22.998Z</time></trkpt><trkpt lat="45.6229617" lon="8.0457"><ele>596.0</ele><time>2026-03-29T13:45:23.997Z</time></trkpt><trkpt lat="45.6227667" lon="8.0457717"><ele>595.3333333333333</ele><time>2026-03-29T13:45:24.998Z</time></trkpt><trkpt lat="45.6225833" lon="8.0458567"><ele>594.6666666666666</ele><time>2026-03-29T13:45:25.998Z</time></trkpt><trkpt lat="45.622405" lon="8.045955"><ele>594.0</ele><time>2026-03-29T13:45:26.998Z</time></trkpt><trkpt lat="45.6222433" lon="8.0460433"><ele>594.0</ele><time>2026-03-29T13:45:27.998Z</time></trkpt><trkpt lat="45.6220817" lon="8.0461217"><ele>594.0</ele><time>2026-03-29T13:45:28.998Z</time></trkpt><trkpt lat="45.6219083" lon="8.0461883"><ele>594.0</ele><time>2026-03-29T13:45:29.998Z</time></trkpt><trkpt lat="45.6217333" lon="8.0462233"><ele>593.6666666666666</ele><time>2026-03-29T13:45:30.997Z</time></trkpt><trkpt lat="45.6215517" lon="8.046245"><ele>593.3333333333333</ele><time>2026-03-29T13:45:31.998Z</time></trkpt><trkpt lat="45.6213633" lon="8.0462667"><ele>593.0</ele><time>2026-03-29T13:45:32.997Z</time></trkpt><trkpt lat="45.6211933" lon="8.0463133"><ele>591.6666666666666</ele><time>2026-03-29T13:45:33.998Z</time></trkpt><trkpt lat="45.6210033" lon="8.0463583"><ele>590.3333333333334</ele><time>2026-03-29T13:45:34.998Z</time></trkpt><trkpt lat="45.6208183" lon="8.0464283"><ele>589.0</ele><time>2026-03-29T13:45:35.998Z</time></trkpt><trkpt lat="45.62063" lon="8.04652"><ele>589.6666666666667</ele><time>2026-03-29T13:45:36.997Z</time></trkpt><trkpt lat="45.620445" lon="8.0466383"><ele>590.3333333333334</ele><time>2026-03-29T13:45:37.998Z</time></trkpt><trkpt lat="45.6202533" lon="8.0467433"><ele>591.0</ele><time>2026-03-29T13:45:38.998Z</time></trkpt><trkpt lat="45.62005" lon="8.0468267"><ele>591.0</ele><time>2026-03-29T13:45:39.998Z</time></trkpt><trkpt lat="45.6198583" lon="8.0469167"><ele>591.0</ele><time>2026-03-29T13:45:40.998Z</time></trkpt><trkpt lat="45.6196633" lon="8.0469933"><ele>591.0</ele><time>2026-03-29T13:45:41.997Z</time></trkpt><trkpt lat="45.6194783" lon="8.047075"><ele>588.0</ele><time>2026-03-29T13:45:42.998Z</time></trkpt><trkpt lat="45.6192933" lon="8.0471883"><ele>585.0</ele><time>2026-03-29T13:45:43.998Z</time></trkpt><trkpt lat="45.6191283" lon="8.0472933"><ele>582.0</ele><time>2026-03-29T13:45:44.998Z</time></trkpt><trkpt lat="45.6189667" lon="8.0474283"><ele>580.3333333333334</ele><time>2026-03-29T13:45:45.998Z</time></trkpt><trkpt lat="45.6188183" lon="8.0475817"><ele>578.6666666666667</ele><time>2026-03-29T13:45:46.998Z</time></trkpt><trkpt lat="45.618685" lon="8.0477667"><ele>577.0</ele><time>2026-03-29T13:45:47.997Z</time></trkpt><trkpt lat="45.618555" lon="8.0479917"><ele>577.0</ele><time>2026-03-29T13:45:48.997Z</time></trkpt><trkpt lat="45.6184367" lon="8.04824"><ele>577.0</ele><time>2026-03-29T13:45:49.997Z</time></trkpt><trkpt lat="45.61833" lon="8.0484967"><ele>577.0</ele><time>2026-03-29T13:45:50.998Z</time></trkpt><trkpt lat="45.6182283" lon="8.04874"><ele>576.0</ele><time>2026-03-29T13:45:51.997Z</time></trkpt><trkpt lat="45.6181083" lon="8.048935"><ele>575.0</ele><time>2026-03-29T13:45:52.997Z</time></trkpt><trkpt lat="45.6179667" lon="8.0491133"><ele>574.0</ele><time>2026-03-29T13:45:53.998Z</time></trkpt><trkpt lat="45.6177983" lon="8.0492583"><ele>574.0</ele><time>2026-03-29T13:45:54.998Z</time></trkpt><trkpt lat="45.6176383" lon="8.0493717"><ele>574.0</ele><time>2026-03-29T13:45:55.997Z</time></trkpt><trkpt lat="45.61748" lon="8.049425"><ele>574.0</ele><time>2026-03-29T13:45:56.998Z</time></trkpt><trkpt lat="45.6173367" lon="8.0494583"><ele>574.0</ele><time>2026-03-29T13:45:57.997Z</time></trkpt><trkpt lat="45.6172017" lon="8.0494467"><ele>574.0</ele><time>2026-03-29T13:45:58.998Z</time></trkpt><trkpt lat="45.6170817" lon="8.049425"><ele>574.0</ele><time>2026-03-29T13:45:59.997Z</time></trkpt><trkpt lat="45.6169533" lon="8.049405"><ele>574.0</ele><time>2026-03-29T13:46:00.998Z</time></trkpt><trkpt lat="45.616825" lon="8.049375"><ele>573.0</ele><time>2026-03-29T13:46:01.998Z</time></trkpt><trkpt lat="45.61668" lon="8.04936"><ele>572.0</ele><time>2026-03-29T13:46:02.998Z</time></trkpt><trkpt lat="45.616515" lon="8.0493183"><ele>571.0</ele><time>2026-03-29T13:46:03.998Z</time></trkpt><trkpt lat="45.6163567" lon="8.0492733"><ele>571.0</ele><time>2026-03-29T13:46:04.998Z</time></trkpt><trkpt lat="45.6161983" lon="8.0492283"><ele>571.0</ele><time>2026-03-29T13:46:05.998Z</time></trkpt><trkpt lat="45.6160267" lon="8.049175"><ele>571.0</ele><time>2026-03-29T13:46:06.997Z</time></trkpt><trkpt lat="45.6158517" lon="8.0491467"><ele>570.0</ele><time>2026-03-29T13:46:07.998Z</time></trkpt><trkpt lat="45.6156583" lon="8.049165"><ele>569.0</ele><time>2026-03-29T13:46:08.998Z</time></trkpt><trkpt lat="45.6154717" lon="8.049215"><ele>568.0</ele><time>2026-03-29T13:46:09.998Z</time></trkpt><trkpt lat="45.6152783" lon="8.0492617"><ele>566.6666666666667</ele><time>2026-03-29T13:46:10.998Z</time></trkpt><trkpt lat="45.6150967" lon="8.0493317"><ele>565.3333333333334</ele><time>2026-03-29T13:46:11.998Z</time></trkpt><trkpt lat="45.6149183" lon="8.049385"><ele>564.0</ele><time>2026-03-29T13:46:12.998Z</time></trkpt><trkpt lat="45.6147483" lon="8.0494417"><ele>564.0</ele><time>2026-03-29T13:46:13.998Z</time></trkpt><trkpt lat="45.6145633" lon="8.0495217"><ele>564.0</ele><time>2026-03-29T13:46:14.998Z</time></trkpt><trkpt lat="45.614385" lon="8.0496283"><ele>564.0</ele><time>2026-03-29T13:46:15.998Z</time></trkpt><trkpt lat="45.6142217" lon="8.0497567"><ele>562.6666666666666</ele><time>2026-03-29T13:46:16.998Z</time></trkpt><trkpt lat="45.6140617" lon="8.0499167"><ele>561.3333333333333</ele><time>2026-03-29T13:46:17.998Z</time></trkpt><trkpt lat="45.613915" lon="8.0500983"><ele>560.0</ele><time>2026-03-29T13:46:18.997Z</time></trkpt><trkpt lat="45.61378" lon="8.0503017"><ele>559.3333333333333</ele><time>2026-03-29T13:46:19.997Z</time></trkpt><trkpt lat="45.6136467" lon="8.05051"><ele>558.6666666666666</ele><time>2026-03-29T13:46:20.998Z</time></trkpt><trkpt lat="45.6135367" lon="8.0507217"><ele>558.0</ele><time>2026-03-29T13:46:21.998Z</time></trkpt><trkpt lat="45.6134283" lon="8.0509133"><ele>558.0</ele><time>2026-03-29T13:46:22.997Z</time></trkpt><trkpt lat="45.6133367" lon="8.0511067"><ele>558.0</ele><time>2026-03-29T13:46:23.998Z</time></trkpt><trkpt lat="45.6132583" lon="8.0512783"><ele>558.0</ele><time>2026-03-29T13:46:24.998Z</time></trkpt><trkpt lat="45.6131567" lon="8.0514383"><ele>558.0</ele><time>2026-03-29T13:46:25.998Z</time></trkpt><trkpt lat="45.6130517" lon="8.051575"><ele>558.0</ele><time>2026-03-29T13:46:26.998Z</time></trkpt><trkpt lat="45.6129467" lon="8.05169"><ele>558.0</ele><time>2026-03-29T13:46:27.998Z</time></trkpt><trkpt lat="45.6128267" lon="8.051785"><ele>558.0</ele><time>2026-03-29T13:46:28.998Z</time></trkpt><trkpt lat="45.61267" lon="8.0518567"><ele>557.75</ele><time>2026-03-29T13:46:29.998Z</time></trkpt><trkpt lat="45.6125333" lon="8.05192"><ele>557.5</ele><time>2026-03-29T13:46:30.997Z</time></trkpt><trkpt lat="45.6124283" lon="8.051995"><ele>557.25</ele><time>2026-03-29T13:46:31.998Z</time></trkpt><trkpt lat="45.6123167" lon="8.0520617"><ele>557.0</ele><time>2026-03-29T13:46:32.998Z</time></trkpt><trkpt lat="45.6121967" lon="8.052125"><ele>557.0</ele><time>2026-03-29T13:46:33.998Z</time></trkpt><trkpt lat="45.6120633" lon="8.0521833"><ele>557.0</ele><time>2026-03-29T13:46:34.997Z</time></trkpt><trkpt lat="45.61191" lon="8.0522367"><ele>557.0</ele><time>2026-03-29T13:46:35.997Z</time></trkpt><trkpt lat="45.6117467" lon="8.0522917"><ele>556.0</ele><time>2026-03-29T13:46:36.998Z</time></trkpt><trkpt lat="45.6115883" lon="8.052355"><ele>555.0</ele><time>2026-03-29T13:46:37.998Z</time></trkpt><trkpt lat="45.6114383" lon="8.0524033"><ele>554.0</ele><time>2026-03-29T13:46:38.998Z</time></trkpt><trkpt lat="45.6112933" lon="8.0524533"><ele>552.75</ele><time>2026-03-29T13:46:39.998Z</time></trkpt><trkpt lat="45.611155" lon="8.0525"><ele>551.5</ele><time>2026-03-29T13:46:40.998Z</time></trkpt><trkpt lat="45.6110283" lon="8.052555"><ele>550.25</ele><time>2026-03-29T13:46:41.997Z</time></trkpt><trkpt lat="45.61091" lon="8.0526367"><ele>549.0</ele><time>2026-03-29T13:46:42.998Z</time></trkpt><trkpt lat="45.6108033" lon="8.0526983"><ele>549.0</ele><time>2026-03-29T13:46:43.998Z</time></trkpt><trkpt lat="45.610695" lon="8.0527133"><ele>549.0</ele><time>2026-03-29T13:46:44.997Z</time></trkpt><trkpt lat="45.6105817" lon="8.0527333"><ele>549.0</ele><time>2026-03-29T13:46:45.998Z</time></trkpt><trkpt lat="45.610465" lon="8.0527667"><ele>549.0</ele><time>2026-03-29T13:46:46.998Z</time></trkpt><trkpt lat="45.6103467" lon="8.0527867"><ele>548.25</ele><time>2026-03-29T13:46:47.997Z</time></trkpt><trkpt lat="45.61023" lon="8.0528133"><ele>547.5</ele><time>2026-03-29T13:46:48.998Z</time></trkpt><trkpt lat="45.6101117" lon="8.05285"><ele>546.75</ele><time>2026-03-29T13:46:49.997Z</time></trkpt><trkpt lat="45.60999" lon="8.0528967"><ele>546.0</ele><time>2026-03-29T13:46:50.998Z</time></trkpt><trkpt lat="45.60986" lon="8.0529583"><ele>546.0</ele><time>2026-03-29T13:46:51.998Z</time></trkpt><trkpt lat="45.6097167" lon="8.0530283"><ele>546.0</ele><time>2026-03-29T13:46:52.998Z</time></trkpt><trkpt lat="45.609565" lon="8.0530983"><ele>546.0</ele><time>2026-03-29T13:46:53.998Z</time></trkpt><trkpt lat="45.6093933" lon="8.0531633"><ele>545.3333333333334</ele><time>2026-03-29T13:46:54.998Z</time></trkpt><trkpt lat="45.6092117" lon="8.0532067"><ele>544.6666666666667</ele><time>2026-03-29T13:46:55.998Z</time></trkpt><trkpt lat="45.6090183" lon="8.0532617"><ele>544.0</ele><time>2026-03-29T13:46:56.998Z</time></trkpt><trkpt lat="45.6088233" lon="8.0532967"><ele>542.6666666666667</ele><time>2026-03-29T13:46:57.998Z</time></trkpt><trkpt lat="45.6086067" lon="8.053315"><ele>541.3333333333334</ele><time>2026-03-29T13:46:58.998Z</time></trkpt><trkpt lat="45.6083983" lon="8.0533167"><ele>540.0</ele><time>2026-03-29T13:46:59.997Z</time></trkpt><trkpt lat="45.6081983" lon="8.053285"><ele>540.0</ele><time>2026-03-29T13:47:00.997Z</time></trkpt><trkpt lat="45.6079967" lon="8.0532833"><ele>540.0</ele><time>2026-03-29T13:47:01.998Z</time></trkpt><trkpt lat="45.6077717" lon="8.0532883"><ele>540.0</ele><time>2026-03-29T13:47:02.997Z</time></trkpt><trkpt lat="45.6075283" lon="8.0533267"><ele>540.5</ele><time>2026-03-29T13:47:03.998Z</time></trkpt><trkpt lat="45.6073083" lon="8.05342"><ele>541.0</ele><time>2026-03-29T13:47:04.998Z</time></trkpt><trkpt lat="45.6070833" lon="8.0535117"><ele>538.5</ele><time>2026-03-29T13:47:05.997Z</time></trkpt><trkpt lat="45.60686" lon="8.0536067"><ele>536.0</ele><time>2026-03-29T13:47:06.998Z</time></trkpt><trkpt lat="45.606645" lon="8.0536833"><ele>536.0</ele><time>2026-03-29T13:47:07.997Z</time></trkpt><trkpt lat="45.6064217" lon="8.05376"><ele>536.0</ele><time>2026-03-29T13:47:08.998Z</time></trkpt><trkpt lat="45.6062133" lon="8.05385"><ele>536.0</ele><time>2026-03-29T13:47:09.998Z</time></trkpt><trkpt lat="45.6060033" lon="8.053925"><ele>534.3333333333333</ele><time>2026-03-29T13:47:10.998Z</time></trkpt><trkpt lat="45.6057867" lon="8.054015"><ele>532.6666666666666</ele><time>2026-03-29T13:47:11.998Z</time></trkpt><trkpt lat="45.605575" lon="8.05408"><ele>531.0</ele><time>2026-03-29T13:47:12.998Z</time></trkpt><trkpt lat="45.60536" lon="8.05415"><ele>530.0</ele><time>2026-03-29T13:47:13.998Z</time></trkpt><trkpt lat="45.6051467" lon="8.0542283"><ele>529.0</ele><time>2026-03-29T13:47:14.998Z</time></trkpt><trkpt lat="45.6049283" lon="8.054305"><ele>528.0</ele><time>2026-03-29T13:47:15.997Z</time></trkpt><trkpt lat="45.6047167" lon="8.05434"><ele>528.0</ele><time>2026-03-29T13:47:16.997Z</time></trkpt><trkpt lat="45.6045067" lon="8.0543433"><ele>528.0</ele><time>2026-03-29T13:47:17.997Z</time></trkpt><trkpt lat="45.604305" lon="8.0543283"><ele>528.0</ele><time>2026-03-29T13:47:18.998Z</time></trkpt><trkpt lat="45.6041033" lon="8.05431"><ele>526.6666666666666</ele><time>2026-03-29T13:47:19.998Z</time></trkpt><trkpt lat="45.603915" lon="8.0543433"><ele>525.3333333333333</ele><time>2026-03-29T13:47:20.998Z</time></trkpt><trkpt lat="45.6037283" lon="8.0544383"><ele>524.0</ele><time>2026-03-29T13:47:21.998Z</time></trkpt><trkpt lat="45.60357" lon="8.0545917"><ele>523.3333333333333</ele><time>2026-03-29T13:47:22.998Z</time></trkpt><trkpt lat="45.603425" lon="8.0547783"><ele>522.6666666666666</ele><time>2026-03-29T13:47:23.998Z</time></trkpt><trkpt lat="45.6033233" lon="8.055"><ele>522.0</ele><time>2026-03-29T13:47:24.998Z</time></trkpt><trkpt lat="45.6032583" lon="8.055195"><ele>522.0</ele><time>2026-03-29T13:47:25.997Z</time></trkpt><trkpt lat="45.60321" lon="8.055325"><ele>522.0</ele><time>2026-03-29T13:47:26.998Z</time></trkpt><trkpt lat="45.6031733" lon="8.0554233"><ele>522.0</ele><time>2026-03-29T13:47:27.998Z</time></trkpt><trkpt lat="45.60314" lon="8.0555117"><ele>522.0</ele><time>2026-03-29T13:47:28.997Z</time></trkpt><trkpt lat="45.6031117" lon="8.0555967"><ele>522.0</ele><time>2026-03-29T13:47:29.997Z</time></trkpt><trkpt lat="45.6030667" lon="8.0556783"><ele>522.0</ele><time>2026-03-29T13:47:30.998Z</time></trkpt><trkpt lat="45.6029883" lon="8.0557717"><ele>520.5</ele><time>2026-03-29T13:47:31.998Z</time></trkpt><trkpt lat="45.6028883" lon="8.055885"><ele>519.0</ele><time>2026-03-29T13:47:32.997Z</time></trkpt><trkpt lat="45.6027733" lon="8.0560033"><ele>517.5</ele><time>2026-03-29T13:47:33.997Z</time></trkpt><trkpt lat="45.6026533" lon="8.0561433"><ele>516.0</ele><time>2026-03-29T13:47:34.998Z</time></trkpt><trkpt lat="45.60253" lon="8.0563083"><ele>515.3333333333334</ele><time>2026-03-29T13:47:35.997Z</time></trkpt><trkpt lat="45.6024133" lon="8.056455"><ele>514.6666666666667</ele><time>2026-03-29T13:47:36.998Z</time></trkpt><trkpt lat="45.6022883" lon="8.0565917"><ele>514.0</ele><time>2026-03-29T13:47:37.998Z</time></trkpt><trkpt lat="45.602155" lon="8.0566917"><ele>515.6666666666667</ele><time>2026-03-29T13:47:38.998Z</time></trkpt><trkpt lat="45.6019983" lon="8.0567617"><ele>517.3333333333334</ele><time>2026-03-29T13:47:39.998Z</time></trkpt><trkpt lat="45.601815" lon="8.0567933"><ele>519.0</ele><time>2026-03-29T13:47:40.998Z</time></trkpt><trkpt lat="45.6015833" lon="8.056755"><ele>519.0</ele><time>2026-03-29T13:47:41.998Z</time></trkpt><trkpt lat="45.60136" lon="8.0567417"><ele>519.0</ele><time>2026-03-29T13:47:42.998Z</time></trkpt><trkpt lat="45.6011417" lon="8.05674"><ele>519.0</ele><time>2026-03-29T13:47:43.997Z</time></trkpt><trkpt lat="45.6009417" lon="8.0567217"><ele>518.0</ele><time>2026-03-29T13:47:44.997Z</time></trkpt><trkpt lat="45.6007467" lon="8.0567167"><ele>517.0</ele><time>2026-03-29T13:47:45.998Z</time></trkpt><trkpt lat="45.600545" lon="8.0567367"><ele>516.0</ele><time>2026-03-29T13:47:46.998Z</time></trkpt><trkpt lat="45.6003583" lon="8.0567767"><ele>515.3333333333334</ele><time>2026-03-29T13:47:47.998Z</time></trkpt><trkpt lat="45.6001533" lon="8.0568367"><ele>514.6666666666667</ele><time>2026-03-29T13:47:48.998Z</time></trkpt><trkpt lat="45.599955" lon="8.0569117"><ele>514.0</ele><time>2026-03-29T13:47:49.997Z</time></trkpt><trkpt lat="45.59975" lon="8.0569933"><ele>514.0</ele><time>2026-03-29T13:47:50.998Z</time></trkpt><trkpt lat="45.5995417" lon="8.0570667"><ele>514.0</ele><time>2026-03-29T13:47:51.998Z</time></trkpt><trkpt lat="45.5993283" lon="8.0571417"><ele>514.0</ele><time>2026-03-29T13:47:52.998Z</time></trkpt><trkpt lat="45.5991183" lon="8.05722"><ele>511.6666666666667</ele><time>2026-03-29T13:47:53.998Z</time></trkpt><trkpt lat="45.5989133" lon="8.0572983"><ele>509.33333333333337</ele><time>2026-03-29T13:47:54.997Z</time></trkpt><trkpt lat="45.5986967" lon="8.0573533"><ele>507.0</ele><time>2026-03-29T13:47:55.998Z</time></trkpt><trkpt lat="45.5984833" lon="8.05741"><ele>512.0</ele><time>2026-03-29T13:47:56.998Z</time></trkpt><trkpt lat="45.598275" lon="8.0574667"><ele>517.0</ele><time>2026-03-29T13:47:57.997Z</time></trkpt><trkpt lat="45.5980783" lon="8.05754"><ele>522.0</ele><time>2026-03-29T13:47:58.998Z</time></trkpt><trkpt lat="45.5978883" lon="8.0576083"><ele>520.6666666666666</ele><time>2026-03-29T13:47:59.998Z</time></trkpt><trkpt lat="45.5976933" lon="8.0576467"><ele>519.3333333333333</ele><time>2026-03-29T13:48:00.998Z</time></trkpt><trkpt lat="45.5974983" lon="8.0576517"><ele>518.0</ele><time>2026-03-29T13:48:01.998Z</time></trkpt><trkpt lat="45.5973" lon="8.05763"><ele>518.0</ele><time>2026-03-29T13:48:02.998Z</time></trkpt><trkpt lat="45.5970983" lon="8.0576067"><ele>518.0</ele><time>2026-03-29T13:48:03.998Z</time></trkpt><trkpt lat="45.596905" lon="8.0575933"><ele>518.0</ele><time>2026-03-29T13:48:04.998Z</time></trkpt><trkpt lat="45.5966783" lon="8.0575317"><ele>503.5</ele><time>2026-03-29T13:48:05.998Z</time></trkpt><trkpt lat="45.5964533" lon="8.0574517"><ele>489.0</ele><time>2026-03-29T13:48:06.997Z</time></trkpt><trkpt lat="45.5962267" lon="8.0573683"><ele>489.66666666666663</ele><time>2026-03-29T13:48:07.998Z</time></trkpt><trkpt lat="45.5960083" lon="8.0572967"><ele>490.3333333333333</ele><time>2026-03-29T13:48:08.998Z</time></trkpt><trkpt lat="45.5958017" lon="8.0572217"><ele>491.0</ele><time>2026-03-29T13:48:09.998Z</time></trkpt><trkpt lat="45.595615" lon="8.0571533"><ele>491.0</ele><time>2026-03-29T13:48:10.998Z</time></trkpt><trkpt lat="45.5954367" lon="8.0570967"><ele>491.0</ele><time>2026-03-29T13:48:11.997Z</time></trkpt><trkpt lat="45.5952517" lon="8.0570567"><ele>491.0</ele><time>2026-03-29T13:48:12.997Z</time></trkpt><trkpt lat="45.5950567" lon="8.0570483"><ele>489.3333333333333</ele><time>2026-03-29T13:48:13.997Z</time></trkpt><trkpt lat="45.5948583" lon="8.0570533"><ele>487.66666666666663</ele><time>2026-03-29T13:48:14.997Z</time></trkpt><trkpt lat="45.594655" lon="8.05708"><ele>486.0</ele><time>2026-03-29T13:48:15.998Z</time></trkpt><trkpt lat="45.594475" lon="8.05713"><ele>482.0</ele><time>2026-03-29T13:48:16.998Z</time></trkpt><trkpt lat="45.5943033" lon="8.0571633"><ele>478.0</ele><time>2026-03-29T13:48:17.998Z</time></trkpt><trkpt lat="45.59414" lon="8.0572317"><ele>474.0</ele><time>2026-03-29T13:48:18.998Z</time></trkpt><trkpt lat="45.594015" lon="8.0573917"><ele>483.66666666666663</ele><time>2026-03-29T13:48:19.997Z</time></trkpt><trkpt lat="45.5938883" lon="8.05756"><ele>493.3333333333333</ele><time>2026-03-29T13:48:20.998Z</time></trkpt><trkpt lat="45.5938083" lon="8.0577733"><ele>503.0</ele><time>2026-03-29T13:48:21.997Z</time></trkpt><trkpt lat="45.5937333" lon="8.0579383"><ele>496.25</ele><time>2026-03-29T13:48:22.998Z</time></trkpt><trkpt lat="45.593625" lon="8.0580417"><ele>489.5</ele><time>2026-03-29T13:48:23.998Z</time></trkpt><trkpt lat="45.5935167" lon="8.0581167"><ele>482.75</ele><time>2026-03-29T13:48:24.998Z</time></trkpt><trkpt lat="45.5933833" lon="8.0581533"><ele>476.0</ele><time>2026-03-29T13:48:25.997Z</time></trkpt><trkpt lat="45.5931783" lon="8.058155"><ele>476.0</ele><time>2026-03-29T13:48:26.998Z</time></trkpt><trkpt lat="45.59298" lon="8.0581517"><ele>476.0</ele><time>2026-03-29T13:48:27.998Z</time></trkpt><trkpt lat="45.5927767" lon="8.0581167"><ele>476.0</ele><time>2026-03-29T13:48:28.998Z</time></trkpt><trkpt lat="45.5926167" lon="8.0580333"><ele>475.0</ele><time>2026-03-29T13:48:29.997Z</time></trkpt><trkpt lat="45.5924617" lon="8.0580483"><ele>474.0</ele><time>2026-03-29T13:48:30.997Z</time></trkpt><trkpt lat="45.59228" lon="8.0580633"><ele>473.0</ele><time>2026-03-29T13:48:31.997Z</time></trkpt><trkpt lat="45.592105" lon="8.0581417"><ele>471.66666666666663</ele><time>2026-03-29T13:48:32.998Z</time></trkpt><trkpt lat="45.5919217" lon="8.058205"><ele>470.33333333333337</ele><time>2026-03-29T13:48:33.998Z</time></trkpt><trkpt lat="45.5917233" lon="8.0582317"><ele>469.0</ele><time>2026-03-29T13:48:34.998Z</time></trkpt><trkpt lat="45.591525" lon="8.058225"><ele>469.0</ele><time>2026-03-29T13:48:35.997Z</time></trkpt><trkpt lat="45.5913383" lon="8.05822"><ele>469.0</ele><time>2026-03-29T13:48:36.998Z</time></trkpt><trkpt lat="45.5911617" lon="8.0582033"><ele>469.0</ele><time>2026-03-29T13:48:37.998Z</time></trkpt><trkpt lat="45.59096" lon="8.0581833"><ele>470.33333333333337</ele><time>2026-03-29T13:48:38.998Z</time></trkpt><trkpt lat="45.5907917" lon="8.0581383"><ele>471.66666666666663</ele><time>2026-03-29T13:48:39.998Z</time></trkpt><trkpt lat="45.5906167" lon="8.0580633"><ele>473.0</ele><time>2026-03-29T13:48:40.998Z</time></trkpt><trkpt lat="45.5904517" lon="8.0579817"><ele>474.3333333333333</ele><time>2026-03-29T13:48:41.998Z</time></trkpt><trkpt lat="45.59029" lon="8.0578867"><ele>475.66666666666663</ele><time>2026-03-29T13:48:42.998Z</time></trkpt><trkpt lat="45.59012" lon="8.0578217"><ele>477.0</ele><time>2026-03-29T13:48:43.998Z</time></trkpt><trkpt lat="45.5899517" lon="8.0577667"><ele>477.0</ele><time>2026-03-29T13:48:44.998Z</time></trkpt><trkpt lat="45.5898067" lon="8.05772"><ele>477.0</ele><time>2026-03-29T13:48:45.998Z</time></trkpt><trkpt lat="45.5896567" lon="8.057665"><ele>477.0</ele><time>2026-03-29T13:48:46.998Z</time></trkpt><trkpt lat="45.58951" lon="8.0576267"><ele>476.75</ele><time>2026-03-29T13:48:47.998Z</time></trkpt><trkpt lat="45.5893633" lon="8.0576833"><ele>476.5</ele><time>2026-03-29T13:48:48.998Z</time></trkpt><trkpt lat="45.5892217" lon="8.057745"><ele>476.25</ele><time>2026-03-29T13:48:49.997Z</time></trkpt><trkpt lat="45.5890867" lon="8.057825"><ele>476.0</ele><time>2026-03-29T13:48:50.998Z</time></trkpt><trkpt lat="45.5889417" lon="8.057905"><ele>476.0</ele><time>2026-03-29T13:48:51.998Z</time></trkpt><trkpt lat="45.5888017" lon="8.0580017"><ele>476.0</ele><time>2026-03-29T13:48:52.998Z</time></trkpt><trkpt lat="45.588655" lon="8.0580917"><ele>476.0</ele><time>2026-03-29T13:48:53.998Z</time></trkpt><trkpt lat="45.588515" lon="8.0581733"><ele>475.3333333333333</ele><time>2026-03-29T13:48:54.998Z</time></trkpt><trkpt lat="45.58838" lon="8.0582583"><ele>474.66666666666663</ele><time>2026-03-29T13:48:55.998Z</time></trkpt><trkpt lat="45.5882367" lon="8.0583533"><ele>474.0</ele><time>2026-03-29T13:48:56.997Z</time></trkpt><trkpt lat="45.5881017" lon="8.0584383"><ele>475.33333333333337</ele><time>2026-03-29T13:48:57.997Z</time></trkpt><trkpt lat="45.5879683" lon="8.0585367"><ele>476.6666666666667</ele><time>2026-03-29T13:48:58.998Z</time></trkpt><trkpt lat="45.58782" lon="8.0586233"><ele>478.0</ele><time>2026-03-29T13:48:59.998Z</time></trkpt><trkpt lat="45.5876883" lon="8.0587"><ele>478.0</ele><time>2026-03-29T13:49:00.998Z</time></trkpt><trkpt lat="45.5875433" lon="8.0587567"><ele>478.0</ele><time>2026-03-29T13:49:01.998Z</time></trkpt><trkpt lat="45.5874133" lon="8.05882"><ele>478.0</ele><time>2026-03-29T13:49:02.998Z</time></trkpt><trkpt lat="45.5872833" lon="8.0588817"><ele>478.0</ele><time>2026-03-29T13:49:03.998Z</time></trkpt><trkpt lat="45.5871567" lon="8.058965"><ele>478.0</ele><time>2026-03-29T13:49:04.998Z</time></trkpt><trkpt lat="45.5870317" lon="8.059065"><ele>478.0</ele><time>2026-03-29T13:49:05.997Z</time></trkpt><trkpt lat="45.5869017" lon="8.0591567"><ele>478.0</ele><time>2026-03-29T13:49:06.998Z</time></trkpt><trkpt lat="45.5867983" lon="8.0592417"><ele>478.0</ele><time>2026-03-29T13:49:07.998Z</time></trkpt><trkpt lat="45.5867083" lon="8.0593117"><ele>476.75</ele><time>2026-03-29T13:49:08.998Z</time></trkpt><trkpt lat="45.5865867" lon="8.05939"><ele>475.5</ele><time>2026-03-29T13:49:09.998Z</time></trkpt><trkpt lat="45.5864717" lon="8.0594483"><ele>474.25</ele><time>2026-03-29T13:49:10.998Z</time></trkpt><trkpt lat="45.58636" lon="8.059505"><ele>473.0</ele><time>2026-03-29T13:49:11.998Z</time></trkpt><trkpt lat="45.5862467" lon="8.0595517"><ele>472.25</ele><time>2026-03-29T13:49:12.998Z</time></trkpt><trkpt lat="45.5861317" lon="8.0595983"><ele>471.5</ele><time>2026-03-29T13:49:13.997Z</time></trkpt><trkpt lat="45.58602" lon="8.05963"><ele>470.75</ele><time>2026-03-29T13:49:14.998Z</time></trkpt><trkpt lat="45.5859017" lon="8.0596267"><ele>470.0</ele><time>2026-03-29T13:49:15.997Z</time></trkpt><trkpt lat="45.585775" lon="8.0596033"><ele>470.0</ele><time>2026-03-29T13:49:16.997Z</time></trkpt><trkpt lat="45.58566" lon="8.05956"><ele>470.0</ele><time>2026-03-29T13:49:17.998Z</time></trkpt><trkpt lat="45.585565" lon="8.0595133"><ele>470.0</ele><time>2026-03-29T13:49:18.998Z</time></trkpt><trkpt lat="45.5854367" lon="8.0594483"><ele>470.0</ele><time>2026-03-29T13:49:19.997Z</time></trkpt><trkpt lat="45.5853183" lon="8.059395"><ele>469.25</ele><time>2026-03-29T13:49:20.998Z</time></trkpt><trkpt lat="45.585205" lon="8.059355"><ele>468.5</ele><time>2026-03-29T13:49:21.998Z</time></trkpt><trkpt lat="45.5850867" lon="8.05932"><ele>467.75</ele><time>2026-03-29T13:49:22.998Z</time></trkpt><trkpt lat="45.58495" lon="8.0593033"><ele>467.0</ele><time>2026-03-29T13:49:23.998Z</time></trkpt><trkpt lat="45.58483" lon="8.0592717"><ele>467.0</ele><time>2026-03-29T13:49:24.998Z</time></trkpt><trkpt lat="45.584715" lon="8.059245"><ele>467.0</ele><time>2026-03-29T13:49:25.998Z</time></trkpt><trkpt lat="45.5846083" lon="8.0592217"><ele>467.0</ele><time>2026-03-29T13:49:26.997Z</time></trkpt><trkpt lat="45.584495" lon="8.0592"><ele>467.0</ele><time>2026-03-29T13:49:27.997Z</time></trkpt><trkpt lat="45.5843633" lon="8.0591567"><ele>466.75</ele><time>2026-03-29T13:49:28.998Z</time></trkpt><trkpt lat="45.584245" lon="8.0591183"><ele>466.5</ele><time>2026-03-29T13:49:29.998Z</time></trkpt><trkpt lat="45.584115" lon="8.05908"><ele>466.25</ele><time>2026-03-29T13:49:30.998Z</time></trkpt><trkpt lat="45.5839767" lon="8.0590483"><ele>466.0</ele><time>2026-03-29T13:49:31.997Z</time></trkpt><trkpt lat="45.5838433" lon="8.0590133"><ele>463.0</ele><time>2026-03-29T13:49:32.998Z</time></trkpt><trkpt lat="45.58371" lon="8.05897"><ele>460.0</ele><time>2026-03-29T13:49:33.998Z</time></trkpt><trkpt lat="45.5835833" lon="8.058935"><ele>457.0</ele><time>2026-03-29T13:49:34.998Z</time></trkpt><trkpt lat="45.58345" lon="8.0588767"><ele>454.0</ele><time>2026-03-29T13:49:35.998Z</time></trkpt><trkpt lat="45.58333" lon="8.0588317"><ele>454.0</ele><time>2026-03-29T13:49:36.997Z</time></trkpt><trkpt lat="45.5832117" lon="8.0588083"><ele>454.0</ele><time>2026-03-29T13:49:37.998Z</time></trkpt><trkpt lat="45.58311" lon="8.0588"><ele>454.0</ele><time>2026-03-29T13:49:38.998Z</time></trkpt><trkpt lat="45.583035" lon="8.0587483"><ele>454.0</ele><time>2026-03-29T13:49:39.998Z</time></trkpt><trkpt lat="45.5829733" lon="8.05871"><ele>454.0</ele><time>2026-03-29T13:49:40.998Z</time></trkpt><trkpt lat="45.5828867" lon="8.05868"><ele>454.33333333333337</ele><time>2026-03-29T13:49:42.998Z</time></trkpt><trkpt lat="45.5827883" lon="8.0586817"><ele>454.6666666666667</ele><time>2026-03-29T13:49:45.998Z</time></trkpt><trkpt lat="45.5827483" lon="8.058775"><ele>455.0</ele><time>2026-03-29T13:49:47.998Z</time></trkpt><trkpt lat="45.5827467" lon="8.0589333"><ele>455.33333333333337</ele><time>2026-03-29T13:49:49.998Z</time></trkpt><trkpt lat="45.582765" lon="8.0590267"><ele>455.6666666666667</ele><time>2026-03-29T13:49:50.998Z</time></trkpt><trkpt lat="45.5827733" lon="8.05914"><ele>456.0</ele><time>2026-03-29T13:49:51.998Z</time></trkpt><trkpt lat="45.5827767" lon="8.05925"><ele>457.6666666666667</ele><time>2026-03-29T13:49:52.997Z</time></trkpt><trkpt lat="45.58278" lon="8.0593633"><ele>459.33333333333337</ele><time>2026-03-29T13:49:53.998Z</time></trkpt><trkpt lat="45.5827883" lon="8.0594767"><ele>461.0</ele><time>2026-03-29T13:49:54.997Z</time></trkpt><trkpt lat="45.5827933" lon="8.0595883"><ele>462.6666666666667</ele><time>2026-03-29T13:49:55.998Z</time></trkpt><trkpt lat="45.5828017" lon="8.0597"><ele>464.33333333333337</ele><time>2026-03-29T13:49:56.998Z</time></trkpt><trkpt lat="45.582815" lon="8.0598133"><ele>466.0</ele><time>2026-03-29T13:49:57.997Z</time></trkpt><trkpt lat="45.5828483" lon="8.0599217"><ele>467.4</ele><time>2026-03-29T13:49:58.997Z</time></trkpt><trkpt lat="45.58288" lon="8.0600167"><ele>468.8</ele><time>2026-03-29T13:49:59.997Z</time></trkpt><trkpt lat="45.58297" lon="8.0600767"><ele>470.19999999999993</ele><time>2026-03-29T13:50:00.998Z</time></trkpt><trkpt lat="45.5831" lon="8.0601017"><ele>471.59999999999997</ele><time>2026-03-29T13:50:01.997Z</time></trkpt><trkpt lat="45.58323" lon="8.0601233"><ele>473.0</ele><time>2026-03-29T13:50:02.997Z</time></trkpt><trkpt lat="45.583355" lon="8.0601383"><ele>473.0</ele><time>2026-03-29T13:50:03.998Z</time></trkpt><trkpt lat="45.5834817" lon="8.060155"><ele>473.0</ele><time>2026-03-29T13:50:04.998Z</time></trkpt><trkpt lat="45.58362" lon="8.0601883"><ele>473.0</ele><time>2026-03-29T13:50:05.998Z</time></trkpt><trkpt lat="45.5837633" lon="8.0602167"><ele>473.0</ele><time>2026-03-29T13:50:06.998Z</time></trkpt><trkpt lat="45.583905" lon="8.060255"><ele>473.5</ele><time>2026-03-29T13:50:07.998Z</time></trkpt><trkpt lat="45.5840417" lon="8.0603017"><ele>474.0</ele><time>2026-03-29T13:50:08.998Z</time></trkpt><trkpt lat="45.5841833" lon="8.0603617"><ele>474.5</ele><time>2026-03-29T13:50:09.997Z</time></trkpt><trkpt lat="45.58431" lon="8.0604317"><ele>475.0</ele><time>2026-03-29T13:50:10.998Z</time></trkpt><trkpt lat="45.5844217" lon="8.0605"><ele>475.00000000000006</ele><time>2026-03-29T13:50:11.998Z</time></trkpt><trkpt lat="45.5845083" lon="8.0605667"><ele>475.0</ele><time>2026-03-29T13:50:12.998Z</time></trkpt><trkpt lat="45.5845867" lon="8.0606233"><ele>475.0</ele><time>2026-03-29T13:50:13.998Z</time></trkpt><trkpt lat="45.58467" lon="8.06068"><ele>475.0</ele><time>2026-03-29T13:50:14.998Z</time></trkpt><trkpt lat="45.5847517" lon="8.0607367"><ele>475.00000000000006</ele><time>2026-03-29T13:50:15.998Z</time></trkpt><trkpt lat="45.5848167" lon="8.0607783"><ele>475.0</ele><time>2026-03-29T13:50:16.998Z</time></trkpt><trkpt lat="45.5848783" lon="8.0608133"><ele>476.6666666666667</ele><time>2026-03-29T13:50:17.998Z</time></trkpt><trkpt lat="45.5849867" lon="8.0608717"><ele>478.33333333333337</ele><time>2026-03-29T13:50:19.998Z</time></trkpt><trkpt lat="45.58506" lon="8.06091"><ele>480.0</ele><time>2026-03-29T13:50:21.998Z</time></trkpt><trkpt lat="45.5851317" lon="8.0609117"><ele>481.66666666666663</ele><time>2026-03-29T13:50:25.998Z</time></trkpt><trkpt lat="45.5852133" lon="8.0609033"><ele>483.3333333333333</ele><time>2026-03-29T13:50:32.998Z</time></trkpt><trkpt lat="45.5852817" lon="8.0609367"><ele>485.0</ele><time>2026-03-29T13:50:35.997Z</time></trkpt><trkpt lat="45.58535" lon="8.06095"><ele>484.99999999999994</ele><time>2026-03-29T13:50:39.998Z</time></trkpt><trkpt lat="45.5854417" lon="8.0609717"><ele>485.0</ele><time>2026-03-29T13:51:03.998Z</time></trkpt><trkpt lat="45.5855083" lon="8.0609917"><ele>485.0</ele><time>2026-03-29T13:51:04.998Z</time></trkpt><trkpt lat="45.5855967" lon="8.0610167"><ele>485.0</ele><time>2026-03-29T13:51:05.998Z</time></trkpt><trkpt lat="45.5856933" lon="8.06104"><ele>484.99999999999994</ele><time>2026-03-29T13:51:06.998Z</time></trkpt><trkpt lat="45.5857867" lon="8.0610633"><ele>485.0</ele><time>2026-03-29T13:51:07.998Z</time></trkpt><trkpt lat="45.5858833" lon="8.061095"><ele>484.99999999999994</ele><time>2026-03-29T13:51:08.998Z</time></trkpt><trkpt lat="45.5859733" lon="8.061125"><ele>485.0</ele><time>2026-03-29T13:51:09.997Z</time></trkpt><trkpt lat="45.586045" lon="8.0611933"><ele>485.0</ele><time>2026-03-29T13:51:10.998Z</time></trkpt><trkpt lat="45.5861083" lon="8.061275"><ele>485.0</ele><time>2026-03-29T13:51:11.998Z</time></trkpt><trkpt lat="45.5861267" lon="8.0613817"><ele>484.99999999999994</ele><time>2026-03-29T13:51:12.997Z</time></trkpt><trkpt lat="45.5861217" lon="8.0615067"><ele>485.0</ele><time>2026-03-29T13:51:13.998Z</time></trkpt><trkpt lat="45.5861033" lon="8.0616617"><ele>488.0</ele><time>2026-03-29T13:51:14.998Z</time></trkpt><trkpt lat="45.58605" lon="8.0618533"><ele>491.0</ele><time>2026-03-29T13:51:15.998Z</time></trkpt><trkpt lat="45.585995" lon="8.0620567"><ele>494.0</ele><time>2026-03-29T13:51:16.998Z</time></trkpt><trkpt lat="45.58593" lon="8.0622633"><ele>494.3333333333333</ele><time>2026-03-29T13:51:17.998Z</time></trkpt><trkpt lat="45.5858817" lon="8.06247"><ele>494.66666666666663</ele><time>2026-03-29T13:51:18.998Z</time></trkpt><trkpt lat="45.5858383" lon="8.0626967"><ele>495.0</ele><time>2026-03-29T13:51:19.998Z</time></trkpt><trkpt lat="45.58578" lon="8.0629467"><ele>495.0</ele><time>2026-03-29T13:51:20.997Z</time></trkpt><trkpt lat="45.5857167" lon="8.0632017"><ele>495.0</ele><time>2026-03-29T13:51:21.998Z</time></trkpt><trkpt lat="45.58566" lon="8.0634617"><ele>495.0</ele><time>2026-03-29T13:51:22.998Z</time></trkpt><trkpt lat="45.585605" lon="8.0637283"><ele>494.66666666666663</ele><time>2026-03-29T13:51:23.998Z</time></trkpt><trkpt lat="45.5855467" lon="8.063985"><ele>494.3333333333333</ele><time>2026-03-29T13:51:24.998Z</time></trkpt><trkpt lat="45.5854933" lon="8.0642533"><ele>494.0</ele><time>2026-03-29T13:51:25.998Z</time></trkpt><trkpt lat="45.5854217" lon="8.06453"><ele>494.0</ele><time>2026-03-29T13:51:26.998Z</time></trkpt><trkpt lat="45.58535" lon="8.064815"><ele>494.0</ele><time>2026-03-29T13:51:27.998Z</time></trkpt><trkpt lat="45.5852917" lon="8.0651"><ele>494.0</ele><time>2026-03-29T13:51:28.998Z</time></trkpt><trkpt lat="45.5852267" lon="8.0653767"><ele>494.0</ele><time>2026-03-29T13:51:29.998Z</time></trkpt><trkpt lat="45.5851733" lon="8.06566"><ele>494.0</ele><time>2026-03-29T13:51:30.998Z</time></trkpt><trkpt lat="45.5851183" lon="8.0659567"><ele>494.0</ele><time>2026-03-29T13:51:31.998Z</time></trkpt><trkpt lat="45.5850583" lon="8.066255"><ele>495.0</ele><time>2026-03-29T13:51:32.998Z</time></trkpt><trkpt lat="45.5850067" lon="8.0665317"><ele>496.0</ele><time>2026-03-29T13:51:33.998Z</time></trkpt><trkpt lat="45.5849383" lon="8.066805"><ele>497.0</ele><time>2026-03-29T13:51:34.998Z</time></trkpt><trkpt lat="45.584865" lon="8.0670717"><ele>498.3333333333333</ele><time>2026-03-29T13:51:35.998Z</time></trkpt><trkpt lat="45.5847917" lon="8.06731"><ele>499.66666666666663</ele><time>2026-03-29T13:51:36.998Z</time></trkpt><trkpt lat="45.5847517" lon="8.0675367"><ele>501.0</ele><time>2026-03-29T13:51:37.998Z</time></trkpt><trkpt lat="45.5847" lon="8.06772"><ele>502.25</ele><time>2026-03-29T13:51:38.997Z</time></trkpt><trkpt lat="45.5846567" lon="8.0679083"><ele>503.5</ele><time>2026-03-29T13:51:39.998Z</time></trkpt><trkpt lat="45.584635" lon="8.0681083"><ele>504.75</ele><time>2026-03-29T13:51:40.998Z</time></trkpt><trkpt lat="45.5846517" lon="8.0683183"><ele>506.0</ele><time>2026-03-29T13:51:41.998Z</time></trkpt><trkpt lat="45.5846933" lon="8.068505"><ele>507.0</ele><time>2026-03-29T13:51:42.998Z</time></trkpt><trkpt lat="45.58476" lon="8.0686733"><ele>508.0</ele><time>2026-03-29T13:51:43.998Z</time></trkpt><trkpt lat="45.5848417" lon="8.0688233"><ele>509.0</ele><time>2026-03-29T13:51:44.998Z</time></trkpt><trkpt lat="45.5849333" lon="8.0689633"><ele>510.0</ele><time>2026-03-29T13:51:45.997Z</time></trkpt><trkpt lat="45.5850283" lon="8.0690867"><ele>509.8</ele><time>2026-03-29T13:51:46.997Z</time></trkpt><trkpt lat="45.5851167" lon="8.0692017"><ele>509.6</ele><time>2026-03-29T13:51:47.998Z</time></trkpt><trkpt lat="45.58517" lon="8.0692933"><ele>509.4</ele><time>2026-03-29T13:51:48.998Z</time></trkpt><trkpt lat="45.5852367" lon="8.069395"><ele>509.2</ele><time>2026-03-29T13:51:50.998Z</time></trkpt><trkpt lat="45.5852917" lon="8.069455"><ele>509.0</ele><time>2026-03-29T13:51:52.998Z</time></trkpt><trkpt lat="45.5853617" lon="8.0695717"><ele>508.75</ele><time>2026-03-29T13:51:55.998Z</time></trkpt><trkpt lat="45.5854533" lon="8.0697233"><ele>508.5</ele><time>2026-03-29T13:51:57.998Z</time></trkpt><trkpt lat="45.58551" lon="8.0698217"><ele>508.25</ele><time>2026-03-29T13:51:58.998Z</time></trkpt><trkpt lat="45.5855967" lon="8.0699433"><ele>508.0</ele><time>2026-03-29T13:51:59.998Z</time></trkpt><trkpt lat="45.5857067" lon="8.0700717"><ele>507.6666666666667</ele><time>2026-03-29T13:52:00.997Z</time></trkpt><trkpt lat="45.585825" lon="8.0702183"><ele>507.33333333333337</ele><time>2026-03-29T13:52:01.998Z</time></trkpt><trkpt lat="45.58593" lon="8.070385"><ele>507.0</ele><time>2026-03-29T13:52:02.998Z</time></trkpt><trkpt lat="45.5860333" lon="8.0705617"><ele>507.0</ele><time>2026-03-29T13:52:03.998Z</time></trkpt><trkpt lat="45.5861683" lon="8.0707533"><ele>507.0</ele><time>2026-03-29T13:52:04.998Z</time></trkpt><trkpt lat="45.5862917" lon="8.0709683"><ele>507.0</ele><time>2026-03-29T13:52:05.998Z</time></trkpt><trkpt lat="45.5864233" lon="8.0711667"><ele>507.0</ele><time>2026-03-29T13:52:06.998Z</time></trkpt><trkpt lat="45.5865567" lon="8.0713783"><ele>507.0</ele><time>2026-03-29T13:52:07.997Z</time></trkpt><trkpt lat="45.5867117" lon="8.0716017"><ele>507.0</ele><time>2026-03-29T13:52:08.997Z</time></trkpt><trkpt lat="45.5868567" lon="8.0718333"><ele>506.33333333333337</ele><time>2026-03-29T13:52:09.998Z</time></trkpt><trkpt lat="45.5870083" lon="8.0720533"><ele>505.6666666666667</ele><time>2026-03-29T13:52:10.998Z</time></trkpt><trkpt lat="45.5871717" lon="8.0722783"><ele>505.0</ele><time>2026-03-29T13:52:11.998Z</time></trkpt><trkpt lat="45.587335" lon="8.0725083"><ele>503.6666666666667</ele><time>2026-03-29T13:52:12.998Z</time></trkpt><trkpt lat="45.5874917" lon="8.0727383"><ele>502.33333333333337</ele><time>2026-03-29T13:52:13.998Z</time></trkpt><trkpt lat="45.5876267" lon="8.0729617"><ele>501.0</ele><time>2026-03-29T13:52:14.998Z</time></trkpt><trkpt lat="45.587775" lon="8.0731717"><ele>500.66666666666663</ele><time>2026-03-29T13:52:15.997Z</time></trkpt><trkpt lat="45.5879083" lon="8.0733783"><ele>500.3333333333333</ele><time>2026-03-29T13:52:16.997Z</time></trkpt><trkpt lat="45.5880567" lon="8.0735783"><ele>500.0</ele><time>2026-03-29T13:52:17.997Z</time></trkpt><trkpt lat="45.5881767" lon="8.0737667"><ele>500.0</ele><time>2026-03-29T13:52:18.997Z</time></trkpt><trkpt lat="45.5883" lon="8.0739383"><ele>500.0</ele><time>2026-03-29T13:52:19.997Z</time></trkpt><trkpt lat="45.5884033" lon="8.074095"><ele>500.0</ele><time>2026-03-29T13:52:20.997Z</time></trkpt><trkpt lat="45.58851" lon="8.0742617"><ele>499.5</ele><time>2026-03-29T13:52:21.997Z</time></trkpt><trkpt lat="45.5886167" lon="8.0744233"><ele>499.0</ele><time>2026-03-29T13:52:22.997Z</time></trkpt><trkpt lat="45.58869" lon="8.0746"><ele>498.5</ele><time>2026-03-29T13:52:23.997Z</time></trkpt><trkpt lat="45.5887117" lon="8.07478"><ele>498.0</ele><time>2026-03-29T13:52:24.996Z</time></trkpt><trkpt lat="45.5886967" lon="8.0749533"><ele>498.0</ele><time>2026-03-29T13:52:25.997Z</time></trkpt><trkpt lat="45.5885833" lon="8.0751133"><ele>498.0</ele><time>2026-03-29T13:52:26.997Z</time></trkpt><trkpt lat="45.5884617" lon="8.0752633"><ele>498.0</ele><time>2026-03-29T13:52:27.996Z</time></trkpt><trkpt lat="45.5883417" lon="8.0754367"><ele>498.0</ele><time>2026-03-29T13:52:28.997Z</time></trkpt><trkpt lat="45.58826" lon="8.0756417"><ele>498.0</ele><time>2026-03-29T13:52:29.997Z</time></trkpt><trkpt lat="45.5882033" lon="8.0758883"><ele>498.0</ele><time>2026-03-29T13:52:30.997Z</time></trkpt><trkpt lat="45.588185" lon="8.0761517"><ele>498.0</ele><time>2026-03-29T13:52:31.996Z</time></trkpt><trkpt lat="45.588205" lon="8.076415"><ele>498.0</ele><time>2026-03-29T13:52:32.997Z</time></trkpt><trkpt lat="45.588245" lon="8.07668"><ele>498.0</ele><time>2026-03-29T13:52:33.996Z</time></trkpt><trkpt lat="45.58837" lon="8.0768983"><ele>498.66666666666663</ele><time>2026-03-29T13:52:34.997Z</time></trkpt><trkpt lat="45.5885017" lon="8.07714"><ele>499.3333333333333</ele><time>2026-03-29T13:52:35.997Z</time></trkpt><trkpt lat="45.5886467" lon="8.0773967"><ele>500.0</ele><time>2026-03-29T13:52:36.997Z</time></trkpt><trkpt lat="45.5888067" lon="8.077685"><ele>496.0</ele><time>2026-03-29T13:52:37.996Z</time></trkpt><trkpt lat="45.58899" lon="8.0780017"><ele>492.0</ele><time>2026-03-29T13:52:38.996Z</time></trkpt><trkpt lat="45.5891783" lon="8.0783433"><ele>492.0</ele><time>2026-03-29T13:52:39.997Z</time></trkpt><trkpt lat="45.589355" lon="8.0786983"><ele>492.0</ele><time>2026-03-29T13:52:40.997Z</time></trkpt><trkpt lat="45.5895167" lon="8.079045"><ele>494.0</ele><time>2026-03-29T13:52:41.997Z</time></trkpt><trkpt lat="45.58967" lon="8.079335"><ele>496.0</ele><time>2026-03-29T13:52:42.997Z</time></trkpt><trkpt lat="45.5898217" lon="8.0796133"><ele>496.0</ele><time>2026-03-29T13:52:43.996Z</time></trkpt><trkpt lat="45.58998" lon="8.07988"><ele>496.0</ele><time>2026-03-29T13:52:44.997Z</time></trkpt><trkpt lat="45.5901283" lon="8.0801217"><ele>497.0</ele><time>2026-03-29T13:52:45.997Z</time></trkpt><trkpt lat="45.59026" lon="8.0803617"><ele>498.0</ele><time>2026-03-29T13:52:46.996Z</time></trkpt><trkpt lat="45.5903883" lon="8.0805833"><ele>499.0</ele><time>2026-03-29T13:52:47.997Z</time></trkpt><trkpt lat="45.5905267" lon="8.0807783"><ele>502.33333333333337</ele><time>2026-03-29T13:52:48.997Z</time></trkpt><trkpt lat="45.5907" lon="8.080955"><ele>505.66666666666663</ele><time>2026-03-29T13:52:49.997Z</time></trkpt><trkpt lat="45.5909" lon="8.0810983"><ele>509.0</ele><time>2026-03-29T13:52:50.997Z</time></trkpt><trkpt lat="45.5911167" lon="8.0812467"><ele>510.3333333333333</ele><time>2026-03-29T13:52:51.997Z</time></trkpt><trkpt lat="45.5913067" lon="8.0813917"><ele>511.66666666666663</ele><time>2026-03-29T13:52:52.997Z</time></trkpt><trkpt lat="45.5914933" lon="8.0815367"><ele>513.0</ele><time>2026-03-29T13:52:53.997Z</time></trkpt><trkpt lat="45.591685" lon="8.081655"><ele>515.0</ele><time>2026-03-29T13:52:54.997Z</time></trkpt><trkpt lat="45.59188" lon="8.08173"><ele>517.0</ele><time>2026-03-29T13:52:55.996Z</time></trkpt><trkpt lat="45.5920767" lon="8.081775"><ele>519.0</ele><time>2026-03-29T13:52:56.997Z</time></trkpt><trkpt lat="45.59229" lon="8.0818133"><ele>520.3333333333334</ele><time>2026-03-29T13:52:57.997Z</time></trkpt><trkpt lat="45.59249" lon="8.081875"><ele>521.6666666666667</ele><time>2026-03-29T13:52:58.997Z</time></trkpt><trkpt lat="45.592685" lon="8.08196"><ele>523.0</ele><time>2026-03-29T13:52:59.997Z</time></trkpt><trkpt lat="45.5928817" lon="8.082035"><ele>526.5</ele><time>2026-03-29T13:53:00.996Z</time></trkpt><trkpt lat="45.5930533" lon="8.0820783"><ele>530.0</ele><time>2026-03-29T13:53:01.997Z</time></trkpt><trkpt lat="45.5931883" lon="8.08208"><ele>533.5</ele><time>2026-03-29T13:53:02.996Z</time></trkpt><trkpt lat="45.593315" lon="8.0820133"><ele>537.0</ele><time>2026-03-29T13:53:03.996Z</time></trkpt><trkpt lat="45.59344" lon="8.0818517"><ele>537.0</ele><time>2026-03-29T13:53:04.997Z</time></trkpt><trkpt lat="45.5935817" lon="8.081675"><ele>537.0</ele><time>2026-03-29T13:53:05.997Z</time></trkpt><trkpt lat="45.5936933" lon="8.081475"><ele>537.0</ele><time>2026-03-29T13:53:06.997Z</time></trkpt><trkpt lat="45.593745" lon="8.08129"><ele>537.75</ele><time>2026-03-29T13:53:07.997Z</time></trkpt><trkpt lat="45.5937633" lon="8.0811367"><ele>538.5</ele><time>2026-03-29T13:53:08.997Z</time></trkpt><trkpt lat="45.5937333" lon="8.080995"><ele>539.25</ele><time>2026-03-29T13:53:09.997Z</time></trkpt><trkpt lat="45.5936517" lon="8.0808517"><ele>540.0</ele><time>2026-03-29T13:53:10.997Z</time></trkpt><trkpt lat="45.593535" lon="8.080735"><ele>541.0</ele><time>2026-03-29T13:53:11.997Z</time></trkpt><trkpt lat="45.5933867" lon="8.0806483"><ele>542.0</ele><time>2026-03-29T13:53:12.996Z</time></trkpt><trkpt lat="45.5932533" lon="8.08053"><ele>543.0</ele><time>2026-03-29T13:53:13.997Z</time></trkpt><trkpt lat="45.5931333" lon="8.0804117"><ele>543.0</ele><time>2026-03-29T13:53:14.996Z</time></trkpt><trkpt lat="45.5930317" lon="8.0802883"><ele>543.0</ele><time>2026-03-29T13:53:15.997Z</time></trkpt><trkpt lat="45.5929733" lon="8.080145"><ele>543.0</ele><time>2026-03-29T13:53:16.997Z</time></trkpt><trkpt lat="45.5929167" lon="8.0799933"><ele>543.0</ele><time>2026-03-29T13:53:17.997Z</time></trkpt><trkpt lat="45.5928917" lon="8.0798483"><ele>542.1999999999999</ele><time>2026-03-29T13:53:18.997Z</time></trkpt><trkpt lat="45.5928967" lon="8.079725"><ele>541.4</ele><time>2026-03-29T13:53:19.996Z</time></trkpt><trkpt lat="45.592935" lon="8.079615"><ele>540.5999999999999</ele><time>2026-03-29T13:53:20.997Z</time></trkpt><trkpt lat="45.5930317" lon="8.07951"><ele>539.8</ele><time>2026-03-29T13:53:21.997Z</time></trkpt><trkpt lat="45.5931483" lon="8.0794317"><ele>539.0</ele><time>2026-03-29T13:53:22.996Z</time></trkpt><trkpt lat="45.5934583" lon="8.079485"><ele>543.5</ele><time>2026-03-29T13:53:23.996Z</time></trkpt><trkpt lat="45.5937467" lon="8.0795767"><ele>548.0</ele><time>2026-03-29T13:53:24.996Z</time></trkpt><trkpt lat="45.593975" lon="8.0796417"><ele>548.0</ele><time>2026-03-29T13:53:25.997Z</time></trkpt><trkpt lat="45.59415" lon="8.0796533"><ele>548.0</ele><time>2026-03-29T13:53:26.997Z</time></trkpt><trkpt lat="45.594295" lon="8.07958"><ele>548.0</ele><time>2026-03-29T13:53:27.996Z</time></trkpt><trkpt lat="45.59442" lon="8.079445"><ele>550.25</ele><time>2026-03-29T13:53:28.997Z</time></trkpt><trkpt lat="45.5945283" lon="8.0792933"><ele>552.5</ele><time>2026-03-29T13:53:29.997Z</time></trkpt><trkpt lat="45.5946433" lon="8.0791917"><ele>554.75</ele><time>2026-03-29T13:53:30.997Z</time></trkpt><trkpt lat="45.5947733" lon="8.0791417"><ele>557.0</ele><time>2026-03-29T13:53:31.997Z</time></trkpt><trkpt lat="45.5949233" lon="8.0791567"><ele>557.0</ele><time>2026-03-29T13:53:32.996Z</time></trkpt><trkpt lat="45.5950867" lon="8.079205"><ele>557.0</ele><time>2026-03-29T13:53:33.996Z</time></trkpt><trkpt lat="45.5952317" lon="8.07929"><ele>557.0</ele><time>2026-03-29T13:53:34.997Z</time></trkpt><trkpt lat="45.5953533" lon="8.0794"><ele>558.6666666666666</ele><time>2026-03-29T13:53:35.997Z</time></trkpt><trkpt lat="45.5954617" lon="8.0795417"><ele>560.3333333333334</ele><time>2026-03-29T13:53:36.997Z</time></trkpt><trkpt lat="45.5955567" lon="8.0797317"><ele>562.0</ele><time>2026-03-29T13:53:37.997Z</time></trkpt><trkpt lat="45.5956667" lon="8.079975"><ele>562.0</ele><time>2026-03-29T13:53:38.997Z</time></trkpt><trkpt lat="45.5958" lon="8.0802167"><ele>562.0</ele><time>2026-03-29T13:53:39.997Z</time></trkpt><trkpt lat="45.595945" lon="8.0804483"><ele>562.0</ele><time>2026-03-29T13:53:40.997Z</time></trkpt><trkpt lat="45.5960933" lon="8.0806783"><ele>560.6666666666667</ele><time>2026-03-29T13:53:41.997Z</time></trkpt><trkpt lat="45.5962267" lon="8.08091"><ele>559.3333333333334</ele><time>2026-03-29T13:53:42.997Z</time></trkpt><trkpt lat="45.5963833" lon="8.0810967"><ele>558.0</ele><time>2026-03-29T13:53:43.997Z</time></trkpt><trkpt lat="45.5965267" lon="8.08127"><ele>558.0</ele><time>2026-03-29T13:53:44.997Z</time></trkpt><trkpt lat="45.5966683" lon="8.0814217"><ele>558.0</ele><time>2026-03-29T13:53:45.997Z</time></trkpt><trkpt lat="45.5967767" lon="8.0815783"><ele>558.0</ele><time>2026-03-29T13:53:46.997Z</time></trkpt><trkpt lat="45.5968633" lon="8.0817283"><ele>561.0</ele><time>2026-03-29T13:53:47.997Z</time></trkpt><trkpt lat="45.5969067" lon="8.0818833"><ele>564.0</ele><time>2026-03-29T13:53:48.996Z</time></trkpt><trkpt lat="45.5969017" lon="8.0820667"><ele>567.0</ele><time>2026-03-29T13:53:49.997Z</time></trkpt><trkpt lat="45.596835" lon="8.0822883"><ele>570.0</ele><time>2026-03-29T13:53:50.997Z</time></trkpt><trkpt lat="45.5967283" lon="8.0825433"><ele>570.75</ele><time>2026-03-29T13:53:51.997Z</time></trkpt><trkpt lat="45.5966867" lon="8.0827683"><ele>571.5</ele><time>2026-03-29T13:53:52.997Z</time></trkpt><trkpt lat="45.5966567" lon="8.0829667"><ele>572.25</ele><time>2026-03-29T13:53:53.997Z</time></trkpt><trkpt lat="45.5966317" lon="8.0831483"><ele>573.0</ele><time>2026-03-29T13:53:54.997Z</time></trkpt><trkpt lat="45.5966283" lon="8.0833367"><ele>574.0</ele><time>2026-03-29T13:53:55.997Z</time></trkpt><trkpt lat="45.5966133" lon="8.0835267"><ele>575.0</ele><time>2026-03-29T13:53:56.997Z</time></trkpt><trkpt lat="45.596635" lon="8.083725"><ele>576.0</ele><time>2026-03-29T13:53:57.997Z</time></trkpt><trkpt lat="45.5966683" lon="8.0838933"><ele>577.0</ele><time>2026-03-29T13:53:58.997Z</time></trkpt><trkpt lat="45.5966383" lon="8.0840467"><ele>576.0</ele><time>2026-03-29T13:53:59.996Z</time></trkpt><trkpt lat="45.59658" lon="8.0841983"><ele>575.0</ele><time>2026-03-29T13:54:00.997Z</time></trkpt><trkpt lat="45.5964683" lon="8.0843017"><ele>574.0</ele><time>2026-03-29T13:54:01.997Z</time></trkpt><trkpt lat="45.5963233" lon="8.084395"><ele>573.0</ele><time>2026-03-29T13:54:02.997Z</time></trkpt><trkpt lat="45.5961533" lon="8.0844917"><ele>573.0</ele><time>2026-03-29T13:54:03.996Z</time></trkpt><trkpt lat="45.5960083" lon="8.0846183"><ele>573.0</ele><time>2026-03-29T13:54:04.996Z</time></trkpt><trkpt lat="45.5958817" lon="8.08477"><ele>573.0</ele><time>2026-03-29T13:54:05.997Z</time></trkpt><trkpt lat="45.5957683" lon="8.084915"><ele>578.6666666666666</ele><time>2026-03-29T13:54:06.997Z</time></trkpt><trkpt lat="45.5956333" lon="8.0850517"><ele>584.3333333333333</ele><time>2026-03-29T13:54:07.997Z</time></trkpt><trkpt lat="45.59551" lon="8.085175"><ele>590.0</ele><time>2026-03-29T13:54:08.997Z</time></trkpt><trkpt lat="45.595405" lon="8.0852983"><ele>587.0</ele><time>2026-03-29T13:54:09.997Z</time></trkpt><trkpt lat="45.5953067" lon="8.0854233"><ele>584.0</ele><time>2026-03-29T13:54:10.996Z</time></trkpt><trkpt lat="45.5952367" lon="8.0855683"><ele>581.0</ele><time>2026-03-29T13:54:11.997Z</time></trkpt><trkpt lat="45.5951917" lon="8.0857183"><ele>578.0</ele><time>2026-03-29T13:54:12.997Z</time></trkpt><trkpt lat="45.595205" lon="8.0858833"><ele>578.0</ele><time>2026-03-29T13:54:13.997Z</time></trkpt><trkpt lat="45.595225" lon="8.086025"><ele>578.0</ele><time>2026-03-29T13:54:14.997Z</time></trkpt><trkpt lat="45.5952483" lon="8.0861417"><ele>578.0</ele><time>2026-03-29T13:54:15.997Z</time></trkpt><trkpt lat="45.5952683" lon="8.0862433"><ele>578.0</ele><time>2026-03-29T13:54:16.997Z</time></trkpt><trkpt lat="45.59529" lon="8.0863633"><ele>578.0</ele><time>2026-03-29T13:54:17.996Z</time></trkpt><trkpt lat="45.5953033" lon="8.0865083"><ele>578.0</ele><time>2026-03-29T13:54:18.996Z</time></trkpt><trkpt lat="45.5953033" lon="8.086665"><ele>577.6</ele><time>2026-03-29T13:54:19.997Z</time></trkpt><trkpt lat="45.59528" lon="8.08681"><ele>577.1999999999999</ele><time>2026-03-29T13:54:20.997Z</time></trkpt><trkpt lat="45.5952917" lon="8.0869433"><ele>576.8</ele><time>2026-03-29T13:54:21.996Z</time></trkpt><trkpt lat="45.59532" lon="8.0870717"><ele>576.4</ele><time>2026-03-29T13:54:22.996Z</time></trkpt><trkpt lat="45.5953617" lon="8.0871883"><ele>576.0</ele><time>2026-03-29T13:54:23.996Z</time></trkpt><trkpt lat="45.5954133" lon="8.0872817"><ele>578.1666666666666</ele><time>2026-03-29T13:54:24.996Z</time></trkpt><trkpt lat="45.5954767" lon="8.0873733"><ele>580.3333333333334</ele><time>2026-03-29T13:54:25.996Z</time></trkpt><trkpt lat="45.595545" lon="8.087445"><ele>582.5</ele><time>2026-03-29T13:54:26.997Z</time></trkpt><trkpt lat="45.5956167" lon="8.08752"><ele>584.6666666666667</ele><time>2026-03-29T13:54:27.997Z</time></trkpt><trkpt lat="45.595695" lon="8.0875517"><ele>586.8333333333334</ele><time>2026-03-29T13:54:28.997Z</time></trkpt><trkpt lat="45.5957783" lon="8.08756"><ele>589.0</ele><time>2026-03-29T13:54:29.997Z</time></trkpt><trkpt lat="45.5958967" lon="8.0875233"><ele>589.0</ele><time>2026-03-29T13:54:30.997Z</time></trkpt><trkpt lat="45.59606" lon="8.0874717"><ele>589.0</ele><time>2026-03-29T13:54:31.997Z</time></trkpt><trkpt lat="45.5962283" lon="8.0874617"><ele>589.0</ele><time>2026-03-29T13:54:32.997Z</time></trkpt><trkpt lat="45.5963933" lon="8.087455"><ele>591.3333333333334</ele><time>2026-03-29T13:54:33.997Z</time></trkpt><trkpt lat="45.5965683" lon="8.0874883"><ele>593.6666666666666</ele><time>2026-03-29T13:54:34.997Z</time></trkpt><trkpt lat="45.59675" lon="8.0875783"><ele>596.0</ele><time>2026-03-29T13:54:35.997Z</time></trkpt><trkpt lat="45.59693" lon="8.0877033"><ele>601.0</ele><time>2026-03-29T13:54:36.997Z</time></trkpt><trkpt lat="45.597075" lon="8.0878233"><ele>606.0</ele><time>2026-03-29T13:54:37.997Z</time></trkpt><trkpt lat="45.5971783" lon="8.08793"><ele>611.0</ele><time>2026-03-29T13:54:38.996Z</time></trkpt><trkpt lat="45.597235" lon="8.0880517"><ele>616.0</ele><time>2026-03-29T13:54:39.997Z</time></trkpt><trkpt lat="45.5972517" lon="8.08818"><ele>614.25</ele><time>2026-03-29T13:54:40.997Z</time></trkpt><trkpt lat="45.5972117" lon="8.0883233"><ele>612.5</ele><time>2026-03-29T13:54:41.997Z</time></trkpt><trkpt lat="45.5971183" lon="8.0884617"><ele>610.75</ele><time>2026-03-29T13:54:42.996Z</time></trkpt><trkpt lat="45.5970283" lon="8.08861"><ele>609.0</ele><time>2026-03-29T13:54:43.996Z</time></trkpt><trkpt lat="45.5969767" lon="8.0887533"><ele>608.5</ele><time>2026-03-29T13:54:44.996Z</time></trkpt><trkpt lat="45.596985" lon="8.0889283"><ele>608.0</ele><time>2026-03-29T13:54:45.996Z</time></trkpt><trkpt lat="45.5970433" lon="8.08911"><ele>607.5</ele><time>2026-03-29T13:54:46.996Z</time></trkpt><trkpt lat="45.5971483" lon="8.0892883"><ele>607.0</ele><time>2026-03-29T13:54:47.997Z</time></trkpt><trkpt lat="45.5972567" lon="8.08939"><ele>607.0</ele><time>2026-03-29T13:54:48.997Z</time></trkpt><trkpt lat="45.5973833" lon="8.0894233"><ele>607.0</ele><time>2026-03-29T13:54:49.996Z</time></trkpt><trkpt lat="45.5975067" lon="8.0894417"><ele>607.0</ele><time>2026-03-29T13:54:50.997Z</time></trkpt><trkpt lat="45.597645" lon="8.0894183"><ele>607.0</ele><time>2026-03-29T13:54:51.997Z</time></trkpt><trkpt lat="45.5978033" lon="8.08934"><ele>608.0</ele><time>2026-03-29T13:54:52.996Z</time></trkpt><trkpt lat="45.5979917" lon="8.0892167"><ele>609.0</ele><time>2026-03-29T13:54:53.996Z</time></trkpt><trkpt lat="45.59817" lon="8.0891"><ele>610.0</ele><time>2026-03-29T13:54:54.997Z</time></trkpt><trkpt lat="45.598335" lon="8.0889833"><ele>616.0</ele><time>2026-03-29T13:54:55.997Z</time></trkpt><trkpt lat="45.5984833" lon="8.088845"><ele>622.0</ele><time>2026-03-29T13:54:56.997Z</time></trkpt><trkpt lat="45.5986117" lon="8.0887267"><ele>628.0</ele><time>2026-03-29T13:54:57.997Z</time></trkpt><trkpt lat="45.5987417" lon="8.088605"><ele>631.3333333333334</ele><time>2026-03-29T13:54:58.996Z</time></trkpt><trkpt lat="45.5988767" lon="8.0885133"><ele>634.6666666666666</ele><time>2026-03-29T13:54:59.996Z</time></trkpt><trkpt lat="45.5990217" lon="8.0884583"><ele>638.0</ele><time>2026-03-29T13:55:00.997Z</time></trkpt><trkpt lat="45.5992033" lon="8.0885"><ele>638.0</ele><time>2026-03-29T13:55:01.997Z</time></trkpt><trkpt lat="45.599385" lon="8.0885517"><ele>638.0</ele><time>2026-03-29T13:55:02.997Z</time></trkpt><trkpt lat="45.5995633" lon="8.0885783"><ele>638.0</ele><time>2026-03-29T13:55:03.996Z</time></trkpt><trkpt lat="45.5997283" lon="8.08858"><ele>639.0</ele><time>2026-03-29T13:55:04.997Z</time></trkpt><trkpt lat="45.599895" lon="8.0885583"><ele>640.0</ele><time>2026-03-29T13:55:05.996Z</time></trkpt><trkpt lat="45.6000817" lon="8.0885467"><ele>641.0</ele><time>2026-03-29T13:55:06.997Z</time></trkpt><trkpt lat="45.6002867" lon="8.0885867"><ele>644.6666666666666</ele><time>2026-03-29T13:55:07.997Z</time></trkpt><trkpt lat="45.6004817" lon="8.08866"><ele>648.3333333333334</ele><time>2026-03-29T13:55:08.996Z</time></trkpt><trkpt lat="45.6006767" lon="8.08876"><ele>652.0</ele><time>2026-03-29T13:55:09.997Z</time></trkpt><trkpt lat="45.6008683" lon="8.0889917"><ele>656.6666666666667</ele><time>2026-03-29T13:55:10.997Z</time></trkpt><trkpt lat="45.601005" lon="8.0892283"><ele>661.3333333333334</ele><time>2026-03-29T13:55:11.997Z</time></trkpt><trkpt lat="45.60111" lon="8.0894483"><ele>666.0</ele><time>2026-03-29T13:55:12.997Z</time></trkpt><trkpt lat="45.601205" lon="8.0896733"><ele>666.0</ele><time>2026-03-29T13:55:13.997Z</time></trkpt><trkpt lat="45.601275" lon="8.089865"><ele>666.0</ele><time>2026-03-29T13:55:14.997Z</time></trkpt><trkpt lat="45.601375" lon="8.090025"><ele>666.0</ele><time>2026-03-29T13:55:15.997Z</time></trkpt><trkpt lat="45.6015283" lon="8.0900867"><ele>660.6666666666666</ele><time>2026-03-29T13:55:16.996Z</time></trkpt><trkpt lat="45.601685" lon="8.0901233"><ele>655.3333333333333</ele><time>2026-03-29T13:55:17.997Z</time></trkpt><trkpt lat="45.6018733" lon="8.0901083"><ele>650.0</ele><time>2026-03-29T13:55:18.996Z</time></trkpt><trkpt lat="45.602075" lon="8.0900783"><ele>650.0</ele><time>2026-03-29T13:55:19.997Z</time></trkpt><trkpt lat="45.6022817" lon="8.0900883"><ele>650.0</ele><time>2026-03-29T13:55:20.996Z</time></trkpt><trkpt lat="45.6024667" lon="8.090105"><ele>650.0</ele><time>2026-03-29T13:55:21.997Z</time></trkpt><trkpt lat="45.602635" lon="8.0901433"><ele>650.0</ele><time>2026-03-29T13:55:22.997Z</time></trkpt><trkpt lat="45.6028067" lon="8.0902117"><ele>650.0</ele><time>2026-03-29T13:55:23.997Z</time></trkpt><trkpt lat="45.6029533" lon="8.0902367"><ele>650.0</ele><time>2026-03-29T13:55:24.997Z</time></trkpt><trkpt lat="45.60309" lon="8.090205"><ele>651.0</ele><time>2026-03-29T13:55:25.997Z</time></trkpt><trkpt lat="45.60323" lon="8.090125"><ele>652.0</ele><time>2026-03-29T13:55:26.996Z</time></trkpt><trkpt lat="45.6033567" lon="8.0900167"><ele>653.0</ele><time>2026-03-29T13:55:27.997Z</time></trkpt><trkpt lat="45.6034767" lon="8.0899533"><ele>654.0</ele><time>2026-03-29T13:55:28.997Z</time></trkpt><trkpt lat="45.603605" lon="8.089945"><ele>651.0</ele><time>2026-03-29T13:55:29.997Z</time></trkpt><trkpt lat="45.6037583" lon="8.0899767"><ele>648.0</ele><time>2026-03-29T13:55:30.997Z</time></trkpt><trkpt lat="45.6039067" lon="8.0899983"><ele>645.0</ele><time>2026-03-29T13:55:31.997Z</time></trkpt><trkpt lat="45.6040533" lon="8.0899917"><ele>654.0</ele><time>2026-03-29T13:55:32.997Z</time></trkpt><trkpt lat="45.6041867" lon="8.089925"><ele>663.0</ele><time>2026-03-29T13:55:33.996Z</time></trkpt><trkpt lat="45.6043" lon="8.0897717"><ele>672.0</ele><time>2026-03-29T13:55:34.996Z</time></trkpt><trkpt lat="45.6044" lon="8.089635"><ele>681.0</ele><time>2026-03-29T13:55:35.996Z</time></trkpt><trkpt lat="45.604495" lon="8.0895317"><ele>678.5</ele><time>2026-03-29T13:55:36.997Z</time></trkpt><trkpt lat="45.6045883" lon="8.0894417"><ele>676.0</ele><time>2026-03-29T13:55:37.997Z</time></trkpt><trkpt lat="45.6047083" lon="8.0894083"><ele>673.5</ele><time>2026-03-29T13:55:38.997Z</time></trkpt><trkpt lat="45.60485" lon="8.0893667"><ele>671.0</ele><time>2026-03-29T13:55:39.996Z</time></trkpt><trkpt lat="45.6049867" lon="8.089335"><ele>671.0</ele><time>2026-03-29T13:55:40.997Z</time></trkpt><trkpt lat="45.6051283" lon="8.0893283"><ele>671.0</ele><time>2026-03-29T13:55:41.996Z</time></trkpt><trkpt lat="45.6052633" lon="8.0893867"><ele>671.0</ele><time>2026-03-29T13:55:42.997Z</time></trkpt><trkpt lat="45.60541" lon="8.0895517"><ele>678.6666666666666</ele><time>2026-03-29T13:55:43.997Z</time></trkpt><trkpt lat="45.6055583" lon="8.089725"><ele>686.3333333333334</ele><time>2026-03-29T13:55:44.996Z</time></trkpt><trkpt lat="45.6057367" lon="8.0898267"><ele>694.0</ele><time>2026-03-29T13:55:45.996Z</time></trkpt><trkpt lat="45.6059267" lon="8.089905"><ele>688.6666666666667</ele><time>2026-03-29T13:55:46.997Z</time></trkpt><trkpt lat="45.606105" lon="8.0899417"><ele>683.3333333333334</ele><time>2026-03-29T13:55:47.996Z</time></trkpt><trkpt lat="45.6062567" lon="8.090005"><ele>678.0</ele><time>2026-03-29T13:55:48.996Z</time></trkpt><trkpt lat="45.6064133" lon="8.0901"><ele>678.0</ele><time>2026-03-29T13:55:49.997Z</time></trkpt><trkpt lat="45.6065633" lon="8.090195"><ele>678.0</ele><time>2026-03-29T13:55:50.997Z</time></trkpt><trkpt lat="45.606705" lon="8.09025"><ele>678.0</ele><time>2026-03-29T13:55:51.996Z</time></trkpt><trkpt lat="45.60686" lon="8.0902567"><ele>680.0</ele><time>2026-03-29T13:55:52.997Z</time></trkpt><trkpt lat="45.60702" lon="8.09021"><ele>682.0</ele><time>2026-03-29T13:55:53.997Z</time></trkpt><trkpt lat="45.6071683" lon="8.0901867"><ele>684.0</ele><time>2026-03-29T13:55:54.997Z</time></trkpt><trkpt lat="45.6072967" lon="8.0901983"><ele>686.0</ele><time>2026-03-29T13:55:55.996Z</time></trkpt><trkpt lat="45.6074083" lon="8.0902683"><ele>686.0</ele><time>2026-03-29T13:55:56.997Z</time></trkpt><trkpt lat="45.607515" lon="8.090385"><ele>686.0</ele><time>2026-03-29T13:55:57.997Z</time></trkpt><trkpt lat="45.6076133" lon="8.0904633"><ele>686.0</ele><time>2026-03-29T13:55:58.997Z</time></trkpt><trkpt lat="45.6076967" lon="8.0905467"><ele>686.0</ele><time>2026-03-29T13:55:59.997Z</time></trkpt><trkpt lat="45.6077817" lon="8.090645"><ele>682.0</ele><time>2026-03-29T13:56:00.997Z</time></trkpt><trkpt lat="45.6078417" lon="8.0907967"><ele>678.0</ele><time>2026-03-29T13:56:01.997Z</time></trkpt><trkpt lat="45.607855" lon="8.0909967"><ele>674.0</ele><time>2026-03-29T13:56:02.996Z</time></trkpt><trkpt lat="45.6078367" lon="8.0912333"><ele>670.0</ele><time>2026-03-29T13:56:03.997Z</time></trkpt><trkpt lat="45.6078033" lon="8.0915017"><ele>669.3333333333334</ele><time>2026-03-29T13:56:04.997Z</time></trkpt><trkpt lat="45.6077983" lon="8.0917717"><ele>668.6666666666666</ele><time>2026-03-29T13:56:05.997Z</time></trkpt><trkpt lat="45.60779" lon="8.09203"><ele>668.0</ele><time>2026-03-29T13:56:06.997Z</time></trkpt><trkpt lat="45.6077417" lon="8.0922783"><ele>673.6666666666666</ele><time>2026-03-29T13:56:07.997Z</time></trkpt><trkpt lat="45.6076317" lon="8.0924817"><ele>679.3333333333334</ele><time>2026-03-29T13:56:08.997Z</time></trkpt><trkpt lat="45.607485" lon="8.0926333"><ele>685.0</ele><time>2026-03-29T13:56:09.996Z</time></trkpt><trkpt lat="45.6073433" lon="8.0927733"><ele>685.0</ele><time>2026-03-29T13:56:10.997Z</time></trkpt><trkpt lat="45.6071783" lon="8.0928917"><ele>685.0</ele><time>2026-03-29T13:56:11.997Z</time></trkpt><trkpt lat="45.6070267" lon="8.0929983"><ele>685.0</ele><time>2026-03-29T13:56:12.997Z</time></trkpt><trkpt lat="45.6069083" lon="8.0931033"><ele>682.0</ele><time>2026-03-29T13:56:13.997Z</time></trkpt><trkpt lat="45.6068367" lon="8.0932433"><ele>679.0</ele><time>2026-03-29T13:56:14.997Z</time></trkpt><trkpt lat="45.6067967" lon="8.0933983"><ele>676.0</ele><time>2026-03-29T13:56:15.997Z</time></trkpt><trkpt lat="45.60682" lon="8.093535"><ele>673.0</ele><time>2026-03-29T13:56:16.997Z</time></trkpt><trkpt lat="45.6069583" lon="8.093635"><ele>683.0</ele><time>2026-03-29T13:56:17.997Z</time></trkpt><trkpt lat="45.6071133" lon="8.0937183"><ele>693.0</ele><time>2026-03-29T13:56:18.996Z</time></trkpt><trkpt lat="45.6074" lon="8.0936617"><ele>693.0</ele><time>2026-03-29T13:56:19.997Z</time></trkpt><trkpt lat="45.6076333" lon="8.09365"><ele>693.0</ele><time>2026-03-29T13:56:20.996Z</time></trkpt><trkpt lat="45.6078283" lon="8.0936817"><ele>693.0</ele><time>2026-03-29T13:56:21.997Z</time></trkpt><trkpt lat="45.6079833" lon="8.0937433"><ele>695.0</ele><time>2026-03-29T13:56:22.997Z</time></trkpt><trkpt lat="45.608115" lon="8.0938617"><ele>697.0</ele><time>2026-03-29T13:56:23.997Z</time></trkpt><trkpt lat="45.6082083" lon="8.094035"><ele>699.0</ele><time>2026-03-29T13:56:24.997Z</time></trkpt><trkpt lat="45.6082933" lon="8.0942517"><ele>699.0</ele><time>2026-03-29T13:56:25.997Z</time></trkpt><trkpt lat="45.6083817" lon="8.0944767"><ele>699.0</ele><time>2026-03-29T13:56:26.997Z</time></trkpt><trkpt lat="45.608485" lon="8.094725"><ele>699.0</ele><time>2026-03-29T13:56:27.996Z</time></trkpt><trkpt lat="45.6085983" lon="8.0950217"><ele>706.5</ele><time>2026-03-29T13:56:28.997Z</time></trkpt><trkpt lat="45.6087083" lon="8.0953267"><ele>714.0</ele><time>2026-03-29T13:56:29.997Z</time></trkpt><trkpt lat="45.6088083" lon="8.0955967"><ele>711.3333333333334</ele><time>2026-03-29T13:56:30.997Z</time></trkpt><trkpt lat="45.6088817" lon="8.095815"><ele>708.6666666666667</ele><time>2026-03-29T13:56:31.997Z</time></trkpt><trkpt lat="45.6088933" lon="8.0960333"><ele>706.0</ele><time>2026-03-29T13:56:32.997Z</time></trkpt><trkpt lat="45.608865" lon="8.096235"><ele>706.0</ele><time>2026-03-29T13:56:33.996Z</time></trkpt><trkpt lat="45.6088633" lon="8.0964283"><ele>706.0</ele><time>2026-03-29T13:56:34.997Z</time></trkpt><trkpt lat="45.608925" lon="8.0966033"><ele>706.0</ele><time>2026-03-29T13:56:35.997Z</time></trkpt><trkpt lat="45.6090317" lon="8.09677"><ele>706.0</ele><time>2026-03-29T13:56:36.997Z</time></trkpt><trkpt lat="45.6091567" lon="8.09695"><ele>705.0</ele><time>2026-03-29T13:56:37.997Z</time></trkpt><trkpt lat="45.6093033" lon="8.0971333"><ele>704.0</ele><time>2026-03-29T13:56:38.997Z</time></trkpt><trkpt lat="45.60942" lon="8.0973367"><ele>703.0</ele><time>2026-03-29T13:56:39.996Z</time></trkpt><trkpt lat="45.609495" lon="8.0975417"><ele>700.5</ele><time>2026-03-29T13:56:40.997Z</time></trkpt><trkpt lat="45.6095333" lon="8.0977383"><ele>698.0</ele><time>2026-03-29T13:56:41.996Z</time></trkpt><trkpt lat="45.6095283" lon="8.09793"><ele>695.5</ele><time>2026-03-29T13:56:42.997Z</time></trkpt><trkpt lat="45.60949" lon="8.09811"><ele>693.0</ele><time>2026-03-29T13:56:43.997Z</time></trkpt><trkpt lat="45.609415" lon="8.0982817"><ele>693.0</ele><time>2026-03-29T13:56:44.997Z</time></trkpt><trkpt lat="45.6093517" lon="8.0984533"><ele>693.0</ele><time>2026-03-29T13:56:45.996Z</time></trkpt><trkpt lat="45.60932" lon="8.09863"><ele>693.0</ele><time>2026-03-29T13:56:46.997Z</time></trkpt><trkpt lat="45.6093283" lon="8.0988433"><ele>693.0</ele><time>2026-03-29T13:56:47.997Z</time></trkpt><trkpt lat="45.60931" lon="8.0990667"><ele>695.0</ele><time>2026-03-29T13:56:48.997Z</time></trkpt><trkpt lat="45.6092433" lon="8.0992633"><ele>697.0</ele><time>2026-03-29T13:56:49.997Z</time></trkpt><trkpt lat="45.6091817" lon="8.0994717"><ele>699.0</ele><time>2026-03-29T13:56:50.996Z</time></trkpt><trkpt lat="45.6091467" lon="8.099695"><ele>699.0</ele><time>2026-03-29T13:56:51.997Z</time></trkpt><trkpt lat="45.609155" lon="8.0999"><ele>699.0</ele><time>2026-03-29T13:56:52.997Z</time></trkpt><trkpt lat="45.60919" lon="8.100075"><ele>699.0</ele><time>2026-03-29T13:56:53.997Z</time></trkpt><trkpt lat="45.609265" lon="8.100205"><ele>699.0</ele><time>2026-03-29T13:56:54.997Z</time></trkpt><trkpt lat="45.6093467" lon="8.1003533"><ele>701.6666666666666</ele><time>2026-03-29T13:56:55.996Z</time></trkpt><trkpt lat="45.609435" lon="8.10051"><ele>704.3333333333333</ele><time>2026-03-29T13:56:56.997Z</time></trkpt><trkpt lat="45.6095383" lon="8.1006733"><ele>707.0</ele><time>2026-03-29T13:56:57.997Z</time></trkpt><trkpt lat="45.6096667" lon="8.1008583"><ele>708.6666666666666</ele><time>2026-03-29T13:56:58.997Z</time></trkpt><trkpt lat="45.6098117" lon="8.10104"><ele>710.3333333333334</ele><time>2026-03-29T13:56:59.996Z</time></trkpt><trkpt lat="45.6099617" lon="8.1012267"><ele>712.0</ele><time>2026-03-29T13:57:00.996Z</time></trkpt><trkpt lat="45.610105" lon="8.10141"><ele>712.6666666666667</ele><time>2026-03-29T13:57:01.997Z</time></trkpt><trkpt lat="45.6102517" lon="8.101605"><ele>713.3333333333334</ele><time>2026-03-29T13:57:02.996Z</time></trkpt><trkpt lat="45.6104067" lon="8.1018"><ele>714.0</ele><time>2026-03-29T13:57:03.997Z</time></trkpt><trkpt lat="45.6105617" lon="8.1020117"><ele>714.0</ele><time>2026-03-29T13:57:04.996Z</time></trkpt><trkpt lat="45.61071" lon="8.102195"><ele>714.0</ele><time>2026-03-29T13:57:05.997Z</time></trkpt><trkpt lat="45.6108367" lon="8.1023617"><ele>714.0</ele><time>2026-03-29T13:57:06.997Z</time></trkpt><trkpt lat="45.6109683" lon="8.1024717"><ele>714.0</ele><time>2026-03-29T13:57:07.997Z</time></trkpt><trkpt lat="45.6111" lon="8.102595"><ele>714.0</ele><time>2026-03-29T13:57:08.996Z</time></trkpt><trkpt lat="45.6112633" lon="8.1026717"><ele>714.0</ele><time>2026-03-29T13:57:09.997Z</time></trkpt><trkpt lat="45.6114317" lon="8.1026883"><ele>709.6666666666666</ele><time>2026-03-29T13:57:10.997Z</time></trkpt><trkpt lat="45.6116083" lon="8.102625"><ele>705.3333333333333</ele><time>2026-03-29T13:57:11.997Z</time></trkpt><trkpt lat="45.611765" lon="8.102545"><ele>701.0</ele><time>2026-03-29T13:57:12.996Z</time></trkpt><trkpt lat="45.6119017" lon="8.1024833"><ele>701.5</ele><time>2026-03-29T13:57:13.997Z</time></trkpt><trkpt lat="45.6120467" lon="8.1024667"><ele>702.0</ele><time>2026-03-29T13:57:14.997Z</time></trkpt><trkpt lat="45.6121667" lon="8.1025217"><ele>702.5</ele><time>2026-03-29T13:57:15.996Z</time></trkpt><trkpt lat="45.6122583" lon="8.102655"><ele>703.0</ele><time>2026-03-29T13:57:16.996Z</time></trkpt><trkpt lat="45.61234" lon="8.1028483"><ele>703.0</ele><time>2026-03-29T13:57:17.997Z</time></trkpt><trkpt lat="45.6124033" lon="8.1030783"><ele>703.0</ele><time>2026-03-29T13:57:18.996Z</time></trkpt><trkpt lat="45.612475" lon="8.10329"><ele>703.0</ele><time>2026-03-29T13:57:19.997Z</time></trkpt><trkpt lat="45.61255" lon="8.1035033"><ele>701.3333333333334</ele><time>2026-03-29T13:57:20.997Z</time></trkpt><trkpt lat="45.6126167" lon="8.103725"><ele>699.6666666666666</ele><time>2026-03-29T13:57:21.997Z</time></trkpt><trkpt lat="45.6126883" lon="8.1039567"><ele>698.0</ele><time>2026-03-29T13:57:22.997Z</time></trkpt><trkpt lat="45.6127767" lon="8.1041733"><ele>703.0</ele><time>2026-03-29T13:57:23.997Z</time></trkpt><trkpt lat="45.612855" lon="8.1043867"><ele>708.0</ele><time>2026-03-29T13:57:24.997Z</time></trkpt><trkpt lat="45.6129567" lon="8.1045717"><ele>713.0</ele><time>2026-03-29T13:57:25.997Z</time></trkpt><trkpt lat="45.613065" lon="8.1047317"><ele>707.6666666666666</ele><time>2026-03-29T13:57:26.997Z</time></trkpt><trkpt lat="45.613195" lon="8.1049183"><ele>702.3333333333334</ele><time>2026-03-29T13:57:27.997Z</time></trkpt><trkpt lat="45.6133383" lon="8.1050983"><ele>697.0</ele><time>2026-03-29T13:57:28.997Z</time></trkpt><trkpt lat="45.6134967" lon="8.105265"><ele>697.0</ele><time>2026-03-29T13:57:29.997Z</time></trkpt><trkpt lat="45.613635" lon="8.105445"><ele>697.0</ele><time>2026-03-29T13:57:30.996Z</time></trkpt><trkpt lat="45.61377" lon="8.1056383"><ele>697.0</ele><time>2026-03-29T13:57:31.997Z</time></trkpt><trkpt lat="45.613885" lon="8.1058483"><ele>698.3333333333334</ele><time>2026-03-29T13:57:32.997Z</time></trkpt><trkpt lat="45.614005" lon="8.10605"><ele>699.6666666666666</ele><time>2026-03-29T13:57:33.997Z</time></trkpt><trkpt lat="45.6141283" lon="8.1062367"><ele>701.0</ele><time>2026-03-29T13:57:34.996Z</time></trkpt><trkpt lat="45.6142817" lon="8.10639"><ele>701.0</ele><time>2026-03-29T13:57:35.997Z</time></trkpt><trkpt lat="45.6144483" lon="8.106545"><ele>701.0</ele><time>2026-03-29T13:57:36.997Z</time></trkpt><trkpt lat="45.6146033" lon="8.10668"><ele>701.0</ele><time>2026-03-29T13:57:37.997Z</time></trkpt><trkpt lat="45.61475" lon="8.1067867"><ele>699.6666666666666</ele><time>2026-03-29T13:57:38.996Z</time></trkpt><trkpt lat="45.6148933" lon="8.106905"><ele>698.3333333333334</ele><time>2026-03-29T13:57:39.996Z</time></trkpt><trkpt lat="45.6150117" lon="8.10705"><ele>697.0</ele><time>2026-03-29T13:57:40.997Z</time></trkpt><trkpt lat="45.6151" lon="8.1072183"><ele>697.0</ele><time>2026-03-29T13:57:41.996Z</time></trkpt><trkpt lat="45.6151767" lon="8.1074083"><ele>697.0</ele><time>2026-03-29T13:57:42.996Z</time></trkpt><trkpt lat="45.61527" lon="8.10763"><ele>697.0</ele><time>2026-03-29T13:57:43.997Z</time></trkpt><trkpt lat="45.61534" lon="8.1078533"><ele>697.0</ele><time>2026-03-29T13:57:44.997Z</time></trkpt><trkpt lat="45.6154083" lon="8.1080917"><ele>697.0</ele><time>2026-03-29T13:57:45.996Z</time></trkpt><trkpt lat="45.61548" lon="8.1083567"><ele>697.0</ele><time>2026-03-29T13:57:46.997Z</time></trkpt><trkpt lat="45.6155367" lon="8.1085833"><ele>697.0</ele><time>2026-03-29T13:57:47.997Z</time></trkpt><trkpt lat="45.6156" lon="8.1088033"><ele>697.0</ele><time>2026-03-29T13:57:48.997Z</time></trkpt><trkpt lat="45.6156483" lon="8.1090183"><ele>697.0</ele><time>2026-03-29T13:57:49.997Z</time></trkpt><trkpt lat="45.61569" lon="8.1092217"><ele>695.25</ele><time>2026-03-29T13:57:50.997Z</time></trkpt><trkpt lat="45.615755" lon="8.109385"><ele>693.5</ele><time>2026-03-29T13:57:51.997Z</time></trkpt><trkpt lat="45.61584" lon="8.109515"><ele>691.75</ele><time>2026-03-29T13:57:52.997Z</time></trkpt><trkpt lat="45.6159683" lon="8.1095967"><ele>690.0</ele><time>2026-03-29T13:57:53.996Z</time></trkpt><trkpt lat="45.6161083" lon="8.109685"><ele>693.0</ele><time>2026-03-29T13:57:54.997Z</time></trkpt><trkpt lat="45.6162433" lon="8.1098067"><ele>696.0</ele><time>2026-03-29T13:57:55.997Z</time></trkpt><trkpt lat="45.616365" lon="8.109935"><ele>699.0</ele><time>2026-03-29T13:57:56.997Z</time></trkpt><trkpt lat="45.6164883" lon="8.1101417"><ele>699.0</ele><time>2026-03-29T13:57:57.997Z</time></trkpt><trkpt lat="45.6166267" lon="8.1103333"><ele>699.0</ele><time>2026-03-29T13:57:58.996Z</time></trkpt><trkpt lat="45.61677" lon="8.1104517"><ele>699.0</ele><time>2026-03-29T13:57:59.997Z</time></trkpt><trkpt lat="45.6168867" lon="8.1105733"><ele>699.0</ele><time>2026-03-29T13:58:00.997Z</time></trkpt><trkpt lat="45.616985" lon="8.1107133"><ele>699.0</ele><time>2026-03-29T13:58:01.997Z</time></trkpt><trkpt lat="45.6170583" lon="8.1108733"><ele>699.0</ele><time>2026-03-29T13:58:02.997Z</time></trkpt><trkpt lat="45.6170967" lon="8.1110717"><ele>699.0</ele><time>2026-03-29T13:58:03.996Z</time></trkpt><trkpt lat="45.6171417" lon="8.11127"><ele>697.3333333333334</ele><time>2026-03-29T13:58:04.997Z</time></trkpt><trkpt lat="45.617235" lon="8.1114483"><ele>695.6666666666667</ele><time>2026-03-29T13:58:05.996Z</time></trkpt><trkpt lat="45.617345" lon="8.1115967"><ele>694.0</ele><time>2026-03-29T13:58:06.996Z</time></trkpt><trkpt lat="45.6174467" lon="8.1117483"><ele>694.0</ele><time>2026-03-29T13:58:07.996Z</time></trkpt><trkpt lat="45.61749" lon="8.111945"><ele>694.0</ele><time>2026-03-29T13:58:08.997Z</time></trkpt><trkpt lat="45.6175083" lon="8.1121267"><ele>694.0</ele><time>2026-03-29T13:58:09.997Z</time></trkpt><trkpt lat="45.6174867" lon="8.1123133"><ele>694.0</ele><time>2026-03-29T13:58:10.997Z</time></trkpt><trkpt lat="45.6175083" lon="8.1124817"><ele>691.75</ele><time>2026-03-29T13:58:11.997Z</time></trkpt><trkpt lat="45.6175667" lon="8.112625"><ele>689.5</ele><time>2026-03-29T13:58:12.997Z</time></trkpt><trkpt lat="45.6176567" lon="8.1127733"><ele>687.25</ele><time>2026-03-29T13:58:13.997Z</time></trkpt><trkpt lat="45.6177717" lon="8.1129367"><ele>685.0</ele><time>2026-03-29T13:58:14.997Z</time></trkpt><trkpt lat="45.6178967" lon="8.1131"><ele>688.0</ele><time>2026-03-29T13:58:15.997Z</time></trkpt><trkpt lat="45.618025" lon="8.11326"><ele>691.0</ele><time>2026-03-29T13:58:16.997Z</time></trkpt><trkpt lat="45.6181467" lon="8.1134267"><ele>694.0</ele><time>2026-03-29T13:58:17.996Z</time></trkpt><trkpt lat="45.6182483" lon="8.1135783"><ele>694.0</ele><time>2026-03-29T13:58:18.997Z</time></trkpt><trkpt lat="45.6183767" lon="8.11368"><ele>694.0</ele><time>2026-03-29T13:58:19.996Z</time></trkpt><trkpt lat="45.6185217" lon="8.1137117"><ele>694.0</ele><time>2026-03-29T13:58:20.997Z</time></trkpt><trkpt lat="45.61867" lon="8.1136717"><ele>694.0</ele><time>2026-03-29T13:58:21.997Z</time></trkpt><trkpt lat="45.6188283" lon="8.113575"><ele>693.3333333333334</ele><time>2026-03-29T13:58:22.997Z</time></trkpt><trkpt lat="45.618985" lon="8.1134383"><ele>692.6666666666666</ele><time>2026-03-29T13:58:23.997Z</time></trkpt><trkpt lat="45.6191383" lon="8.113315"><ele>692.0</ele><time>2026-03-29T13:58:24.997Z</time></trkpt><trkpt lat="45.619305" lon="8.1132033"><ele>701.6666666666666</ele><time>2026-03-29T13:58:25.997Z</time></trkpt><trkpt lat="45.6194833" lon="8.11312"><ele>711.3333333333334</ele><time>2026-03-29T13:58:26.997Z</time></trkpt><trkpt lat="45.619665" lon="8.11309"><ele>721.0</ele><time>2026-03-29T13:58:27.996Z</time></trkpt><trkpt lat="45.619855" lon="8.113065"><ele>721.0</ele><time>2026-03-29T13:58:28.997Z</time></trkpt><trkpt lat="45.6200567" lon="8.113035"><ele>721.0</ele><time>2026-03-29T13:58:29.997Z</time></trkpt><trkpt lat="45.620255" lon="8.1129967"><ele>721.0</ele><time>2026-03-29T13:58:30.997Z</time></trkpt><trkpt lat="45.62047" lon="8.1129833"><ele>719.0</ele><time>2026-03-29T13:58:31.996Z</time></trkpt><trkpt lat="45.6206717" lon="8.112995"><ele>717.0</ele><time>2026-03-29T13:58:32.997Z</time></trkpt><trkpt lat="45.620875" lon="8.11304"><ele>715.0</ele><time>2026-03-29T13:58:33.997Z</time></trkpt><trkpt lat="45.6210767" lon="8.1131267"><ele>704.6666666666667</ele><time>2026-03-29T13:58:34.996Z</time></trkpt><trkpt lat="45.6212583" lon="8.1132717"><ele>694.3333333333334</ele><time>2026-03-29T13:58:35.996Z</time></trkpt><trkpt lat="45.6214367" lon="8.1133633"><ele>684.0</ele><time>2026-03-29T13:58:36.997Z</time></trkpt><trkpt lat="45.6216017" lon="8.1134383"><ele>684.0</ele><time>2026-03-29T13:58:37.996Z</time></trkpt><trkpt lat="45.6217517" lon="8.1134633"><ele>684.0</ele><time>2026-03-29T13:58:38.996Z</time></trkpt><trkpt lat="45.6218783" lon="8.11344"><ele>684.0</ele><time>2026-03-29T13:58:39.997Z</time></trkpt><trkpt lat="45.621975" lon="8.113235"><ele>682.3333333333334</ele><time>2026-03-29T13:58:40.997Z</time></trkpt><trkpt lat="45.62208" lon="8.1129733"><ele>680.6666666666667</ele><time>2026-03-29T13:58:41.996Z</time></trkpt><trkpt lat="45.62217" lon="8.112735"><ele>679.0</ele><time>2026-03-29T13:58:42.997Z</time></trkpt><trkpt lat="45.622285" lon="8.1125967"><ele>679.0</ele><time>2026-03-29T13:58:43.996Z</time></trkpt><trkpt lat="45.622405" lon="8.11253"><ele>679.0</ele><time>2026-03-29T13:58:44.997Z</time></trkpt><trkpt lat="45.622575" lon="8.1125183"><ele>679.0</ele><time>2026-03-29T13:58:45.997Z</time></trkpt><trkpt lat="45.62272" lon="8.1124733"><ele>679.0</ele><time>2026-03-29T13:58:46.997Z</time></trkpt><trkpt lat="45.6228417" lon="8.112395"><ele>678.75</ele><time>2026-03-29T13:58:47.996Z</time></trkpt><trkpt lat="45.6229417" lon="8.1122683"><ele>678.5</ele><time>2026-03-29T13:58:48.997Z</time></trkpt><trkpt lat="45.6230233" lon="8.1121033"><ele>678.25</ele><time>2026-03-29T13:58:49.997Z</time></trkpt><trkpt lat="45.6230983" lon="8.111975"><ele>678.0</ele><time>2026-03-29T13:58:50.996Z</time></trkpt><trkpt lat="45.6232" lon="8.111875"><ele>678.0</ele><time>2026-03-29T13:58:51.997Z</time></trkpt><trkpt lat="45.6233133" lon="8.1118233"><ele>678.0</ele><time>2026-03-29T13:58:52.997Z</time></trkpt><trkpt lat="45.6234517" lon="8.1118383"><ele>678.0</ele><time>2026-03-29T13:58:53.997Z</time></trkpt><trkpt lat="45.6236517" lon="8.11188"><ele>673.3333333333334</ele><time>2026-03-29T13:58:54.997Z</time></trkpt><trkpt lat="45.6238067" lon="8.1118683"><ele>668.6666666666667</ele><time>2026-03-29T13:58:55.997Z</time></trkpt><trkpt lat="45.623975" lon="8.111805"><ele>664.0</ele><time>2026-03-29T13:58:56.996Z</time></trkpt><trkpt lat="45.6241367" lon="8.1117233"><ele>668.0</ele><time>2026-03-29T13:58:57.997Z</time></trkpt><trkpt lat="45.6241833" lon="8.1115167"><ele>672.0</ele><time>2026-03-29T13:58:58.995Z</time></trkpt><trkpt lat="45.6242133" lon="8.111275"><ele>676.0</ele><time>2026-03-29T13:58:59.995Z</time></trkpt><trkpt lat="45.6242217" lon="8.11105"><ele>676.0</ele><time>2026-03-29T13:59:00.996Z</time></trkpt><trkpt lat="45.6242283" lon="8.1108517"><ele>676.0</ele><time>2026-03-29T13:59:01.996Z</time></trkpt><trkpt lat="45.6242483" lon="8.1106683"><ele>676.0</ele><time>2026-03-29T13:59:02.996Z</time></trkpt><trkpt lat="45.6243533" lon="8.1105467"><ele>676.0</ele><time>2026-03-29T13:59:03.996Z</time></trkpt><trkpt lat="45.6244717" lon="8.1104883"><ele>667.0</ele><time>2026-03-29T13:59:04.995Z</time></trkpt><trkpt lat="45.6246167" lon="8.110415"><ele>658.0</ele><time>2026-03-29T13:59:05.996Z</time></trkpt><trkpt lat="45.62475" lon="8.1102967"><ele>649.0</ele><time>2026-03-29T13:59:06.996Z</time></trkpt><trkpt lat="45.6248733" lon="8.110185"><ele>649.0</ele><time>2026-03-29T13:59:07.996Z</time></trkpt><trkpt lat="45.6249583" lon="8.1100767"><ele>649.0</ele><time>2026-03-29T13:59:08.995Z</time></trkpt><trkpt lat="45.6250033" lon="8.1099633"><ele>649.0</ele><time>2026-03-29T13:59:09.996Z</time></trkpt><trkpt lat="45.6250083" lon="8.1098367"><ele>649.0</ele><time>2026-03-29T13:59:10.996Z</time></trkpt><trkpt lat="45.6249867" lon="8.1096917"><ele>649.0</ele><time>2026-03-29T13:59:11.996Z</time></trkpt><trkpt lat="45.6249333" lon="8.10952"><ele>648.75</ele><time>2026-03-29T13:59:12.996Z</time></trkpt><trkpt lat="45.6248983" lon="8.10933"><ele>648.5</ele><time>2026-03-29T13:59:13.995Z</time></trkpt><trkpt lat="45.6248933" lon="8.1091517"><ele>648.25</ele><time>2026-03-29T13:59:14.995Z</time></trkpt><trkpt lat="45.6249083" lon="8.108975"><ele>648.0</ele><time>2026-03-29T13:59:15.996Z</time></trkpt><trkpt lat="45.624925" lon="8.1088183"><ele>645.75</ele><time>2026-03-29T13:59:16.996Z</time></trkpt><trkpt lat="45.6248883" lon="8.108675"><ele>643.5</ele><time>2026-03-29T13:59:17.996Z</time></trkpt><trkpt lat="45.624795" lon="8.108565"><ele>641.25</ele><time>2026-03-29T13:59:18.996Z</time></trkpt><trkpt lat="45.6246783" lon="8.1084733"><ele>639.0</ele><time>2026-03-29T13:59:19.996Z</time></trkpt><trkpt lat="45.6245517" lon="8.1083983"><ele>644.6</ele><time>2026-03-29T13:59:20.996Z</time></trkpt><trkpt lat="45.624445" lon="8.10832"><ele>650.2</ele><time>2026-03-29T13:59:21.995Z</time></trkpt><trkpt lat="45.6243567" lon="8.1082217"><ele>655.8000000000001</ele><time>2026-03-29T13:59:22.996Z</time></trkpt><trkpt lat="45.6242733" lon="8.108115"><ele>661.4</ele><time>2026-03-29T13:59:23.995Z</time></trkpt><trkpt lat="45.6242033" lon="8.1080033"><ele>667.0</ele><time>2026-03-29T13:59:24.996Z</time></trkpt><trkpt lat="45.6241617" lon="8.1078933"><ele>668.8</ele><time>2026-03-29T13:59:25.996Z</time></trkpt><trkpt lat="45.6241567" lon="8.107795"><ele>670.6</ele><time>2026-03-29T13:59:26.996Z</time></trkpt><trkpt lat="45.6242067" lon="8.1076833"><ele>672.4</ele><time>2026-03-29T13:59:27.996Z</time></trkpt><trkpt lat="45.6242617" lon="8.10758"><ele>674.1999999999999</ele><time>2026-03-29T13:59:28.996Z</time></trkpt><trkpt lat="45.6243767" lon="8.1075167"><ele>676.0</ele><time>2026-03-29T13:59:29.996Z</time></trkpt><trkpt lat="45.6245617" lon="8.1074767"><ele>663.0</ele><time>2026-03-29T13:59:30.996Z</time></trkpt><trkpt lat="45.6247933" lon="8.1074633"><ele>650.0</ele><time>2026-03-29T13:59:31.995Z</time></trkpt><trkpt lat="45.625085" lon="8.10749"><ele>638.5</ele><time>2026-03-29T13:59:32.996Z</time></trkpt><trkpt lat="45.62553" lon="8.1075017"><ele>627.0</ele><time>2026-03-29T13:59:33.996Z</time></trkpt><trkpt lat="45.625725" lon="8.10746"><ele>631.0</ele><time>2026-03-29T13:59:34.996Z</time></trkpt><trkpt lat="45.62587" lon="8.1073783"><ele>635.0</ele><time>2026-03-29T13:59:35.996Z</time></trkpt><trkpt lat="45.6260117" lon="8.1072883"><ele>639.0</ele><time>2026-03-29T13:59:36.995Z</time></trkpt><trkpt lat="45.6261233" lon="8.1071317"><ele>622.3333333333334</ele><time>2026-03-29T13:59:37.996Z</time></trkpt><trkpt lat="45.6262183" lon="8.1069283"><ele>605.6666666666667</ele><time>2026-03-29T13:59:38.996Z</time></trkpt><trkpt lat="45.6262883" lon="8.1067417"><ele>589.0</ele><time>2026-03-29T13:59:39.996Z</time></trkpt><trkpt lat="45.6263433" lon="8.1065433"><ele>586.3333333333334</ele><time>2026-03-29T13:59:40.996Z</time></trkpt><trkpt lat="45.62634" lon="8.10631"><ele>583.6666666666666</ele><time>2026-03-29T13:59:41.996Z</time></trkpt><trkpt lat="45.6262833" lon="8.106045"><ele>581.0</ele><time>2026-03-29T13:59:42.996Z</time></trkpt><trkpt lat="45.626195" lon="8.1058"><ele>584.3333333333333</ele><time>2026-03-29T13:59:43.995Z</time></trkpt><trkpt lat="45.6261117" lon="8.1055783"><ele>587.6666666666666</ele><time>2026-03-29T13:59:44.995Z</time></trkpt><trkpt lat="45.625905" lon="8.1054167"><ele>591.0</ele><time>2026-03-29T13:59:45.996Z</time></trkpt><trkpt lat="45.6257233" lon="8.1052233"><ele>591.0</ele><time>2026-03-29T13:59:46.996Z</time></trkpt><trkpt lat="45.625465" lon="8.1050217"><ele>591.0</ele><time>2026-03-29T13:59:47.996Z</time></trkpt><trkpt lat="45.62526" lon="8.1048117"><ele>593.0</ele><time>2026-03-29T13:59:48.995Z</time></trkpt><trkpt lat="45.624975" lon="8.1046067"><ele>595.0</ele><time>2026-03-29T13:59:49.996Z</time></trkpt><trkpt lat="45.6246083" lon="8.1044583"><ele>604.0</ele><time>2026-03-29T13:59:50.996Z</time></trkpt><trkpt lat="45.62437" lon="8.1043"><ele>613.0</ele><time>2026-03-29T13:59:51.995Z</time></trkpt><trkpt lat="45.6241633" lon="8.1041683"><ele>610.3333333333334</ele><time>2026-03-29T13:59:52.995Z</time></trkpt><trkpt lat="45.6239633" lon="8.10406"><ele>607.6666666666666</ele><time>2026-03-29T13:59:53.996Z</time></trkpt><trkpt lat="45.6237517" lon="8.1040183"><ele>605.0</ele><time>2026-03-29T13:59:54.996Z</time></trkpt><trkpt lat="45.6235367" lon="8.1039783"><ele>605.0</ele><time>2026-03-29T13:59:55.996Z</time></trkpt><trkpt lat="45.6233583" lon="8.10395"><ele>605.0</ele><time>2026-03-29T13:59:56.996Z</time></trkpt><trkpt lat="45.6232267" lon="8.1038883"><ele>605.0</ele><time>2026-03-29T13:59:57.996Z</time></trkpt><trkpt lat="45.6231067" lon="8.1037933"><ele>605.0</ele><time>2026-03-29T13:59:58.996Z</time></trkpt><trkpt lat="45.62308" lon="8.103645"><ele>605.0</ele><time>2026-03-29T13:59:59.995Z</time></trkpt><trkpt lat="45.6230817" lon="8.10348"><ele>605.0</ele><time>2026-03-29T14:00:00.995Z</time></trkpt><trkpt lat="45.6231283" lon="8.103315"><ele>605.0</ele><time>2026-03-29T14:00:01.996Z</time></trkpt><trkpt lat="45.6232733" lon="8.103195"><ele>602.0</ele><time>2026-03-29T14:00:02.996Z</time></trkpt><trkpt lat="45.6234183" lon="8.103135"><ele>599.0</ele><time>2026-03-29T14:00:03.996Z</time></trkpt><trkpt lat="45.6235683" lon="8.1031383"><ele>596.0</ele><time>2026-03-29T14:00:04.995Z</time></trkpt><trkpt lat="45.62375" lon="8.103235"><ele>594.6666666666666</ele><time>2026-03-29T14:00:05.995Z</time></trkpt><trkpt lat="45.6239383" lon="8.1033517"><ele>593.3333333333334</ele><time>2026-03-29T14:00:06.996Z</time></trkpt><trkpt lat="45.6241383" lon="8.10348"><ele>592.0</ele><time>2026-03-29T14:00:07.996Z</time></trkpt><trkpt lat="45.6243433" lon="8.103615"><ele>588.6666666666667</ele><time>2026-03-29T14:00:08.996Z</time></trkpt><trkpt lat="45.6245467" lon="8.10373"><ele>585.3333333333334</ele><time>2026-03-29T14:00:09.996Z</time></trkpt><trkpt lat="45.624745" lon="8.1038483"><ele>582.0</ele><time>2026-03-29T14:00:10.996Z</time></trkpt><trkpt lat="45.624945" lon="8.1039667"><ele>581.0</ele><time>2026-03-29T14:00:11.996Z</time></trkpt><trkpt lat="45.6251283" lon="8.1041117"><ele>580.0</ele><time>2026-03-29T14:00:12.996Z</time></trkpt><trkpt lat="45.6253083" lon="8.1042717"><ele>579.0</ele><time>2026-03-29T14:00:13.995Z</time></trkpt><trkpt lat="45.6254967" lon="8.1044667"><ele>579.0</ele><time>2026-03-29T14:00:14.996Z</time></trkpt><trkpt lat="45.6256783" lon="8.10465"><ele>579.0</ele><time>2026-03-29T14:00:15.995Z</time></trkpt><trkpt lat="45.6258517" lon="8.1048333"><ele>579.0</ele><time>2026-03-29T14:00:16.996Z</time></trkpt><trkpt lat="45.626015" lon="8.105025"><ele>579.6666666666666</ele><time>2026-03-29T14:00:17.996Z</time></trkpt><trkpt lat="45.6261733" lon="8.1052017"><ele>580.3333333333333</ele><time>2026-03-29T14:00:18.996Z</time></trkpt><trkpt lat="45.62632" lon="8.10537"><ele>581.0</ele><time>2026-03-29T14:00:19.996Z</time></trkpt><trkpt lat="45.6264783" lon="8.1055267"><ele>581.0</ele><time>2026-03-29T14:00:20.996Z</time></trkpt><trkpt lat="45.62662" lon="8.1056783"><ele>581.0</ele><time>2026-03-29T14:00:21.996Z</time></trkpt><trkpt lat="45.6267533" lon="8.1058367"><ele>581.0</ele><time>2026-03-29T14:00:22.996Z</time></trkpt><trkpt lat="45.6268633" lon="8.106005"><ele>581.0</ele><time>2026-03-29T14:00:23.995Z</time></trkpt><trkpt lat="45.6269367" lon="8.10621"><ele>581.0</ele><time>2026-03-29T14:00:24.995Z</time></trkpt><trkpt lat="45.6269783" lon="8.1064417"><ele>581.0</ele><time>2026-03-29T14:00:25.996Z</time></trkpt><trkpt lat="45.62701" lon="8.1066867"><ele>582.3333333333333</ele><time>2026-03-29T14:00:26.995Z</time></trkpt><trkpt lat="45.627" lon="8.1069583"><ele>583.6666666666666</ele><time>2026-03-29T14:00:27.996Z</time></trkpt><trkpt lat="45.6269683" lon="8.1072367"><ele>585.0</ele><time>2026-03-29T14:00:28.996Z</time></trkpt><trkpt lat="45.6269167" lon="8.1075267"><ele>585.0</ele><time>2026-03-29T14:00:29.995Z</time></trkpt><trkpt lat="45.6268433" lon="8.1077833"><ele>585.0</ele><time>2026-03-29T14:00:30.996Z</time></trkpt><trkpt lat="45.6267683" lon="8.1079983"><ele>585.0</ele><time>2026-03-29T14:00:31.996Z</time></trkpt><trkpt lat="45.6267483" lon="8.1082067"><ele>582.0</ele><time>2026-03-29T14:00:32.996Z</time></trkpt><trkpt lat="45.626765" lon="8.1083833"><ele>579.0</ele><time>2026-03-29T14:00:33.996Z</time></trkpt><trkpt lat="45.6268233" lon="8.108545"><ele>576.0</ele><time>2026-03-29T14:00:34.996Z</time></trkpt><trkpt lat="45.62691" lon="8.1087167"><ele>573.0</ele><time>2026-03-29T14:00:35.996Z</time></trkpt><trkpt lat="45.6269483" lon="8.1088917"><ele>571.3333333333334</ele><time>2026-03-29T14:00:36.996Z</time></trkpt><trkpt lat="45.62695" lon="8.109085"><ele>569.6666666666667</ele><time>2026-03-29T14:00:37.995Z</time></trkpt><trkpt lat="45.6269333" lon="8.1092933"><ele>568.0</ele><time>2026-03-29T14:00:38.996Z</time></trkpt><trkpt lat="45.6268683" lon="8.109515"><ele>568.0</ele><time>2026-03-29T14:00:39.995Z</time></trkpt><trkpt lat="45.6267967" lon="8.1097633"><ele>568.0</ele><time>2026-03-29T14:00:40.996Z</time></trkpt><trkpt lat="45.626705" lon="8.11002"><ele>568.0</ele><time>2026-03-29T14:00:41.995Z</time></trkpt><trkpt lat="45.6265917" lon="8.1102667"><ele>570.3333333333334</ele><time>2026-03-29T14:00:42.996Z</time></trkpt><trkpt lat="45.6264983" lon="8.1105383"><ele>572.6666666666666</ele><time>2026-03-29T14:00:43.996Z</time></trkpt><trkpt lat="45.6264217" lon="8.1108283"><ele>575.0</ele><time>2026-03-29T14:00:44.996Z</time></trkpt><trkpt lat="45.626355" lon="8.111105"><ele>576.0</ele><time>2026-03-29T14:00:45.995Z</time></trkpt><trkpt lat="45.62634" lon="8.1113717"><ele>577.0</ele><time>2026-03-29T14:00:46.996Z</time></trkpt><trkpt lat="45.6263417" lon="8.1116"><ele>578.0</ele><time>2026-03-29T14:00:47.995Z</time></trkpt><trkpt lat="45.6263567" lon="8.1118083"><ele>578.0</ele><time>2026-03-29T14:00:48.996Z</time></trkpt><trkpt lat="45.6263867" lon="8.1120167"><ele>578.0</ele><time>2026-03-29T14:00:49.996Z</time></trkpt><trkpt lat="45.6264333" lon="8.1122317"><ele>578.0</ele><time>2026-03-29T14:00:50.996Z</time></trkpt><trkpt lat="45.6264867" lon="8.112445"><ele>573.3333333333333</ele><time>2026-03-29T14:00:51.995Z</time></trkpt><trkpt lat="45.6265417" lon="8.1126717"><ele>568.6666666666666</ele><time>2026-03-29T14:00:52.996Z</time></trkpt><trkpt lat="45.626605" lon="8.112905"><ele>564.0</ele><time>2026-03-29T14:00:53.995Z</time></trkpt><trkpt lat="45.6266533" lon="8.1131567"><ele>561.6666666666666</ele><time>2026-03-29T14:00:54.995Z</time></trkpt><trkpt lat="45.6267083" lon="8.1134033"><ele>559.3333333333333</ele><time>2026-03-29T14:00:55.995Z</time></trkpt><trkpt lat="45.626755" lon="8.113645"><ele>557.0</ele><time>2026-03-29T14:00:56.996Z</time></trkpt><trkpt lat="45.626815" lon="8.1139033"><ele>554.3333333333333</ele><time>2026-03-29T14:00:57.995Z</time></trkpt><trkpt lat="45.6268817" lon="8.1141783"><ele>551.6666666666666</ele><time>2026-03-29T14:00:58.996Z</time></trkpt><trkpt lat="45.6269567" lon="8.1144667"><ele>549.0</ele><time>2026-03-29T14:00:59.995Z</time></trkpt><trkpt lat="45.626985" lon="8.1147533"><ele>556.6666666666666</ele><time>2026-03-29T14:01:00.995Z</time></trkpt><trkpt lat="45.626995" lon="8.115045"><ele>564.3333333333333</ele><time>2026-03-29T14:01:01.995Z</time></trkpt><trkpt lat="45.6270067" lon="8.1153167"><ele>572.0</ele><time>2026-03-29T14:01:02.996Z</time></trkpt><trkpt lat="45.62704" lon="8.1155683"><ele>570.6666666666666</ele><time>2026-03-29T14:01:03.996Z</time></trkpt><trkpt lat="45.627105" lon="8.1158183"><ele>569.3333333333334</ele><time>2026-03-29T14:01:04.996Z</time></trkpt><trkpt lat="45.627205" lon="8.116045"><ele>568.0</ele><time>2026-03-29T14:01:05.996Z</time></trkpt><trkpt lat="45.6272967" lon="8.1162533"><ele>568.0</ele><time>2026-03-29T14:01:06.996Z</time></trkpt><trkpt lat="45.6273783" lon="8.11647"><ele>568.0</ele><time>2026-03-29T14:01:07.996Z</time></trkpt><trkpt lat="45.6274333" lon="8.1166733"><ele>568.0</ele><time>2026-03-29T14:01:08.996Z</time></trkpt><trkpt lat="45.6274367" lon="8.1168767"><ele>565.5</ele><time>2026-03-29T14:01:09.995Z</time></trkpt><trkpt lat="45.6274467" lon="8.11708"><ele>563.0</ele><time>2026-03-29T14:01:10.996Z</time></trkpt><trkpt lat="45.6274867" lon="8.1172783"><ele>560.5</ele><time>2026-03-29T14:01:11.996Z</time></trkpt><trkpt lat="45.6275817" lon="8.1174467"><ele>558.0</ele><time>2026-03-29T14:01:12.996Z</time></trkpt><trkpt lat="45.6277133" lon="8.1175767"><ele>553.75</ele><time>2026-03-29T14:01:13.996Z</time></trkpt><trkpt lat="45.6278383" lon="8.1176617"><ele>549.5</ele><time>2026-03-29T14:01:14.996Z</time></trkpt><trkpt lat="45.627955" lon="8.1176883"><ele>545.25</ele><time>2026-03-29T14:01:15.996Z</time></trkpt><trkpt lat="45.62807" lon="8.1177"><ele>541.0</ele><time>2026-03-29T14:01:16.995Z</time></trkpt><trkpt lat="45.6282" lon="8.1176667"><ele>541.0</ele><time>2026-03-29T14:01:17.996Z</time></trkpt><trkpt lat="45.6283483" lon="8.1175967"><ele>541.0</ele><time>2026-03-29T14:01:18.995Z</time></trkpt><trkpt lat="45.6285017" lon="8.1175083"><ele>541.0</ele><time>2026-03-29T14:01:19.996Z</time></trkpt><trkpt lat="45.6286717" lon="8.1174167"><ele>548.6666666666667</ele><time>2026-03-29T14:01:20.995Z</time></trkpt><trkpt lat="45.6288283" lon="8.117365"><ele>556.3333333333334</ele><time>2026-03-29T14:01:21.995Z</time></trkpt><trkpt lat="45.6289967" lon="8.11732"><ele>564.0</ele><time>2026-03-29T14:01:22.996Z</time></trkpt><trkpt lat="45.6291467" lon="8.1173117"><ele>566.3333333333334</ele><time>2026-03-29T14:01:23.996Z</time></trkpt><trkpt lat="45.6292633" lon="8.1174917"><ele>568.6666666666667</ele><time>2026-03-29T14:01:24.995Z</time></trkpt><trkpt lat="45.6293933" lon="8.1176433"><ele>571.0</ele><time>2026-03-29T14:01:25.996Z</time></trkpt><trkpt lat="45.6294983" lon="8.1178333"><ele>571.0</ele><time>2026-03-29T14:01:26.996Z</time></trkpt><trkpt lat="45.6295883" lon="8.1180483"><ele>571.0</ele><time>2026-03-29T14:01:27.996Z</time></trkpt><trkpt lat="45.6296617" lon="8.11824"><ele>571.0</ele><time>2026-03-29T14:01:28.995Z</time></trkpt><trkpt lat="45.6297067" lon="8.1184233"><ele>564.5</ele><time>2026-03-29T14:01:29.996Z</time></trkpt><trkpt lat="45.629775" lon="8.1185817"><ele>558.0</ele><time>2026-03-29T14:01:30.995Z</time></trkpt><trkpt lat="45.629855" lon="8.118725"><ele>551.5</ele><time>2026-03-29T14:01:31.995Z</time></trkpt><trkpt lat="45.6299483" lon="8.1188333"><ele>545.0</ele><time>2026-03-29T14:01:32.995Z</time></trkpt><trkpt lat="45.6300917" lon="8.1188783"><ele>545.0</ele><time>2026-03-29T14:01:33.995Z</time></trkpt><trkpt lat="45.630235" lon="8.1189517"><ele>545.0</ele><time>2026-03-29T14:01:34.996Z</time></trkpt><trkpt lat="45.6304083" lon="8.1190067"><ele>545.0</ele><time>2026-03-29T14:01:35.996Z</time></trkpt><trkpt lat="45.6305817" lon="8.1190667"><ele>539.0</ele><time>2026-03-29T14:01:36.996Z</time></trkpt><trkpt lat="45.6307433" lon="8.1191467"><ele>533.0</ele><time>2026-03-29T14:01:37.996Z</time></trkpt><trkpt lat="45.630905" lon="8.1192467"><ele>527.0</ele><time>2026-03-29T14:01:38.995Z</time></trkpt><trkpt lat="45.631045" lon="8.1193667"><ele>526.0</ele><time>2026-03-29T14:01:39.996Z</time></trkpt><trkpt lat="45.6311567" lon="8.1195283"><ele>525.0</ele><time>2026-03-29T14:01:40.995Z</time></trkpt><trkpt lat="45.631245" lon="8.119705"><ele>524.0</ele><time>2026-03-29T14:01:41.996Z</time></trkpt><trkpt lat="45.6313333" lon="8.1199017"><ele>524.0</ele><time>2026-03-29T14:01:42.995Z</time></trkpt><trkpt lat="45.63143" lon="8.1200483"><ele>524.0</ele><time>2026-03-29T14:01:43.995Z</time></trkpt><trkpt lat="45.63155" lon="8.1202"><ele>524.0</ele><time>2026-03-29T14:01:44.995Z</time></trkpt><trkpt lat="45.6316733" lon="8.12034"><ele>524.0</ele><time>2026-03-29T14:01:45.996Z</time></trkpt><trkpt lat="45.6317983" lon="8.1204817"><ele>524.0</ele><time>2026-03-29T14:01:46.996Z</time></trkpt><trkpt lat="45.631915" lon="8.120635"><ele>524.0</ele><time>2026-03-29T14:01:47.996Z</time></trkpt><trkpt lat="45.6320117" lon="8.1208117"><ele>523.0</ele><time>2026-03-29T14:01:48.996Z</time></trkpt><trkpt lat="45.6321183" lon="8.1209517"><ele>522.0</ele><time>2026-03-29T14:01:49.996Z</time></trkpt><trkpt lat="45.6322317" lon="8.1210733"><ele>521.0</ele><time>2026-03-29T14:01:50.995Z</time></trkpt><trkpt lat="45.6323233" lon="8.1212117"><ele>520.0</ele><time>2026-03-29T14:01:51.996Z</time></trkpt><trkpt lat="45.632405" lon="8.121365"><ele>520.0</ele><time>2026-03-29T14:01:52.996Z</time></trkpt><trkpt lat="45.63244" lon="8.12155"><ele>520.0</ele><time>2026-03-29T14:01:53.996Z</time></trkpt><trkpt lat="45.63247" lon="8.121765"><ele>520.0</ele><time>2026-03-29T14:01:54.996Z</time></trkpt><trkpt lat="45.6325183" lon="8.1220083"><ele>518.0</ele><time>2026-03-29T14:01:55.996Z</time></trkpt><trkpt lat="45.6325783" lon="8.1222567"><ele>516.0</ele><time>2026-03-29T14:01:56.995Z</time></trkpt><trkpt lat="45.6326367" lon="8.1225233"><ele>514.0</ele><time>2026-03-29T14:01:57.996Z</time></trkpt><trkpt lat="45.6327167" lon="8.1227767"><ele>519.3333333333334</ele><time>2026-03-29T14:01:58.995Z</time></trkpt><trkpt lat="45.6328067" lon="8.12303"><ele>524.6666666666666</ele><time>2026-03-29T14:01:59.996Z</time></trkpt><trkpt lat="45.6328733" lon="8.1232717"><ele>530.0</ele><time>2026-03-29T14:02:00.996Z</time></trkpt><trkpt lat="45.6329283" lon="8.1234667"><ele>530.0</ele><time>2026-03-29T14:02:01.996Z</time></trkpt><trkpt lat="45.6329567" lon="8.1236683"><ele>530.0</ele><time>2026-03-29T14:02:02.996Z</time></trkpt><trkpt lat="45.6329933" lon="8.1238383"><ele>530.0</ele><time>2026-03-29T14:02:03.996Z</time></trkpt><trkpt lat="45.63307" lon="8.1239783"><ele>530.0</ele><time>2026-03-29T14:02:04.996Z</time></trkpt><trkpt lat="45.63317" lon="8.124085"><ele>527.3333333333333</ele><time>2026-03-29T14:02:05.996Z</time></trkpt><trkpt lat="45.633335" lon="8.12414"><ele>524.6666666666666</ele><time>2026-03-29T14:02:06.995Z</time></trkpt><trkpt lat="45.63353" lon="8.124195"><ele>522.0</ele><time>2026-03-29T14:02:07.996Z</time></trkpt><trkpt lat="45.6337483" lon="8.1242583"><ele>522.0</ele><time>2026-03-29T14:02:08.996Z</time></trkpt><trkpt lat="45.6339683" lon="8.1243383"><ele>522.0</ele><time>2026-03-29T14:02:09.996Z</time></trkpt><trkpt lat="45.6342" lon="8.1244067"><ele>522.0</ele><time>2026-03-29T14:02:10.995Z</time></trkpt><trkpt lat="45.6344167" lon="8.1244817"><ele>522.0</ele><time>2026-03-29T14:02:11.995Z</time></trkpt><trkpt lat="45.6346133" lon="8.1245467"><ele>522.0</ele><time>2026-03-29T14:02:12.996Z</time></trkpt><trkpt lat="45.6347917" lon="8.1245967"><ele>526.6666666666666</ele><time>2026-03-29T14:02:13.996Z</time></trkpt><trkpt lat="45.6349533" lon="8.1246617"><ele>531.3333333333333</ele><time>2026-03-29T14:02:14.996Z</time></trkpt><trkpt lat="45.6350833" lon="8.1247567"><ele>536.0</ele><time>2026-03-29T14:02:15.996Z</time></trkpt><trkpt lat="45.6351933" lon="8.1248717"><ele>527.0</ele><time>2026-03-29T14:02:16.996Z</time></trkpt><trkpt lat="45.6353233" lon="8.12495"><ele>518.0</ele><time>2026-03-29T14:02:17.996Z</time></trkpt><trkpt lat="45.6354667" lon="8.1249917"><ele>509.0</ele><time>2026-03-29T14:02:18.996Z</time></trkpt><trkpt lat="45.63561" lon="8.12504"><ele>500.0</ele><time>2026-03-29T14:02:19.996Z</time></trkpt><trkpt lat="45.6357517" lon="8.12508"><ele>500.0</ele><time>2026-03-29T14:02:20.995Z</time></trkpt><trkpt lat="45.6358833" lon="8.1250833"><ele>500.0</ele><time>2026-03-29T14:02:21.995Z</time></trkpt><trkpt lat="45.6359867" lon="8.1250917"><ele>500.0</ele><time>2026-03-29T14:02:22.996Z</time></trkpt><trkpt lat="45.6360617" lon="8.1250717"><ele>500.0</ele><time>2026-03-29T14:02:23.996Z</time></trkpt><trkpt lat="45.6361283" lon="8.1250517"><ele>500.0</ele><time>2026-03-29T14:02:24.995Z</time></trkpt><trkpt lat="45.636205" lon="8.1250417"><ele>501.2</ele><time>2026-03-29T14:02:25.996Z</time></trkpt><trkpt lat="45.636285" lon="8.1250333"><ele>502.4</ele><time>2026-03-29T14:02:26.995Z</time></trkpt><trkpt lat="45.636375" lon="8.1250433"><ele>503.6</ele><time>2026-03-29T14:02:27.996Z</time></trkpt><trkpt lat="45.6364567" lon="8.12508"><ele>504.8</ele><time>2026-03-29T14:02:28.996Z</time></trkpt><trkpt lat="45.636555" lon="8.1251517"><ele>506.0</ele><time>2026-03-29T14:02:29.996Z</time></trkpt><trkpt lat="45.6366683" lon="8.1252683"><ele>506.0</ele><time>2026-03-29T14:02:30.995Z</time></trkpt><trkpt lat="45.6367933" lon="8.1254383"><ele>506.0</ele><time>2026-03-29T14:02:31.996Z</time></trkpt><trkpt lat="45.6369283" lon="8.1256183"><ele>506.0</ele><time>2026-03-29T14:02:32.995Z</time></trkpt><trkpt lat="45.637095" lon="8.1258133"><ele>508.3333333333333</ele><time>2026-03-29T14:02:33.996Z</time></trkpt><trkpt lat="45.6372217" lon="8.1260283"><ele>510.66666666666663</ele><time>2026-03-29T14:02:34.996Z</time></trkpt><trkpt lat="45.6373283" lon="8.1262433"><ele>513.0</ele><time>2026-03-29T14:02:35.996Z</time></trkpt><trkpt lat="45.6374117" lon="8.1264683"><ele>510.75</ele><time>2026-03-29T14:02:36.996Z</time></trkpt><trkpt lat="45.6374183" lon="8.1266867"><ele>508.5</ele><time>2026-03-29T14:02:37.996Z</time></trkpt><trkpt lat="45.6374233" lon="8.126895"><ele>506.25</ele><time>2026-03-29T14:02:38.996Z</time></trkpt><trkpt lat="45.6374" lon="8.1271"><ele>504.0</ele><time>2026-03-29T14:02:39.996Z</time></trkpt><trkpt lat="45.6373717" lon="8.1273133"><ele>503.33333333333337</ele><time>2026-03-29T14:02:40.995Z</time></trkpt><trkpt lat="45.6373283" lon="8.1275117"><ele>502.6666666666667</ele><time>2026-03-29T14:02:41.996Z</time></trkpt><trkpt lat="45.6372817" lon="8.1277"><ele>502.0</ele><time>2026-03-29T14:02:42.996Z</time></trkpt><trkpt lat="45.637145" lon="8.127855"><ele>502.0</ele><time>2026-03-29T14:02:43.996Z</time></trkpt><trkpt lat="45.6369917" lon="8.1279733"><ele>502.0</ele><time>2026-03-29T14:02:44.996Z</time></trkpt><trkpt lat="45.6368833" lon="8.1281133"><ele>502.0</ele><time>2026-03-29T14:02:45.996Z</time></trkpt><trkpt lat="45.63686" lon="8.1282633"><ele>502.0</ele><time>2026-03-29T14:02:46.995Z</time></trkpt><trkpt lat="45.6368533" lon="8.12841"><ele>503.5</ele><time>2026-03-29T14:02:47.996Z</time></trkpt><trkpt lat="45.6368483" lon="8.1285533"><ele>505.0</ele><time>2026-03-29T14:02:48.996Z</time></trkpt><trkpt lat="45.636835" lon="8.128715"><ele>506.5</ele><time>2026-03-29T14:02:49.996Z</time></trkpt><trkpt lat="45.6370367" lon="8.1288083"><ele>508.0</ele><time>2026-03-29T14:02:50.996Z</time></trkpt><trkpt lat="45.6373267" lon="8.1288217"><ele>500.0</ele><time>2026-03-29T14:02:51.995Z</time></trkpt><trkpt lat="45.6376183" lon="8.128865"><ele>492.0</ele><time>2026-03-29T14:02:52.996Z</time></trkpt><trkpt lat="45.63776" lon="8.128985"><ele>490.66666666666663</ele><time>2026-03-29T14:02:53.996Z</time></trkpt><trkpt lat="45.63793" lon="8.1291067"><ele>489.3333333333333</ele><time>2026-03-29T14:02:54.996Z</time></trkpt><trkpt lat="45.63802" lon="8.12927"><ele>488.0</ele><time>2026-03-29T14:02:55.996Z</time></trkpt><trkpt lat="45.63809" lon="8.1294583"><ele>488.0</ele><time>2026-03-29T14:02:56.996Z</time></trkpt><trkpt lat="45.6380967" lon="8.1296833"><ele>488.0</ele><time>2026-03-29T14:02:57.996Z</time></trkpt><trkpt lat="45.6380483" lon="8.12993"><ele>488.0</ele><time>2026-03-29T14:02:58.996Z</time></trkpt><trkpt lat="45.6379767" lon="8.1302017"><ele>487.0</ele><time>2026-03-29T14:02:59.995Z</time></trkpt><trkpt lat="45.6379067" lon="8.1304983"><ele>486.0</ele><time>2026-03-29T14:03:00.996Z</time></trkpt><trkpt lat="45.6378783" lon="8.13078"><ele>485.0</ele><time>2026-03-29T14:03:01.996Z</time></trkpt><trkpt lat="45.63788" lon="8.1310433"><ele>485.0</ele><time>2026-03-29T14:03:02.996Z</time></trkpt><trkpt lat="45.6379183" lon="8.131295"><ele>485.0</ele><time>2026-03-29T14:03:03.995Z</time></trkpt><trkpt lat="45.6379683" lon="8.1315333"><ele>485.0</ele><time>2026-03-29T14:03:04.996Z</time></trkpt><trkpt lat="45.6379833" lon="8.1317517"><ele>483.66666666666663</ele><time>2026-03-29T14:03:05.995Z</time></trkpt><trkpt lat="45.6379717" lon="8.1319617"><ele>482.33333333333337</ele><time>2026-03-29T14:03:06.996Z</time></trkpt><trkpt lat="45.6379283" lon="8.13216"><ele>481.0</ele><time>2026-03-29T14:03:07.995Z</time></trkpt><trkpt lat="45.63786" lon="8.1323767"><ele>476.33333333333337</ele><time>2026-03-29T14:03:08.996Z</time></trkpt><trkpt lat="45.63779" lon="8.1326133"><ele>471.66666666666663</ele><time>2026-03-29T14:03:09.996Z</time></trkpt><trkpt lat="45.6376933" lon="8.132865"><ele>467.0</ele><time>2026-03-29T14:03:10.995Z</time></trkpt><trkpt lat="45.6375867" lon="8.1331367"><ele>469.0</ele><time>2026-03-29T14:03:11.996Z</time></trkpt><trkpt lat="45.63748" lon="8.1334383"><ele>471.0</ele><time>2026-03-29T14:03:12.995Z</time></trkpt><trkpt lat="45.637305" lon="8.1337267"><ele>471.0</ele><time>2026-03-29T14:03:13.995Z</time></trkpt><trkpt lat="45.6371733" lon="8.1340417"><ele>471.0</ele><time>2026-03-29T14:03:14.996Z</time></trkpt><trkpt lat="45.6370583" lon="8.1343633"><ele>462.0</ele><time>2026-03-29T14:03:15.996Z</time></trkpt><trkpt lat="45.63696" lon="8.1346733"><ele>453.0</ele><time>2026-03-29T14:03:16.996Z</time></trkpt><trkpt lat="45.6368717" lon="8.1349883"><ele>453.0</ele><time>2026-03-29T14:03:17.996Z</time></trkpt><trkpt lat="45.636775" lon="8.1352733"><ele>453.0</ele><time>2026-03-29T14:03:18.996Z</time></trkpt><trkpt lat="45.6366733" lon="8.13556"><ele>453.0</ele><time>2026-03-29T14:03:19.996Z</time></trkpt><trkpt lat="45.63657" lon="8.1358483"><ele>454.0</ele><time>2026-03-29T14:03:20.996Z</time></trkpt><trkpt lat="45.6364717" lon="8.13611"><ele>455.0</ele><time>2026-03-29T14:03:21.996Z</time></trkpt><trkpt lat="45.6363817" lon="8.1363633"><ele>456.0</ele><time>2026-03-29T14:03:22.996Z</time></trkpt><trkpt lat="45.6362933" lon="8.1366017"><ele>458.66666666666663</ele><time>2026-03-29T14:03:23.995Z</time></trkpt><trkpt lat="45.6361983" lon="8.136825"><ele>461.3333333333333</ele><time>2026-03-29T14:03:24.996Z</time></trkpt><trkpt lat="45.6360983" lon="8.1370267"><ele>464.0</ele><time>2026-03-29T14:03:25.995Z</time></trkpt><trkpt lat="45.6359783" lon="8.1371933"><ele>460.3333333333333</ele><time>2026-03-29T14:03:26.995Z</time></trkpt><trkpt lat="45.6358617" lon="8.1373383"><ele>456.66666666666663</ele><time>2026-03-29T14:03:27.995Z</time></trkpt><trkpt lat="45.63575" lon="8.13751"><ele>453.0</ele><time>2026-03-29T14:03:28.996Z</time></trkpt><trkpt lat="45.6356567" lon="8.1376983"><ele>453.0</ele><time>2026-03-29T14:03:29.996Z</time></trkpt><trkpt lat="45.63559" lon="8.1378867"><ele>453.0</ele><time>2026-03-29T14:03:30.996Z</time></trkpt><trkpt lat="45.63554" lon="8.138085"><ele>453.0</ele><time>2026-03-29T14:03:31.996Z</time></trkpt><trkpt lat="45.6355033" lon="8.1382767"><ele>453.0</ele><time>2026-03-29T14:03:32.996Z</time></trkpt><trkpt lat="45.6354783" lon="8.1384733"><ele>454.5</ele><time>2026-03-29T14:03:33.995Z</time></trkpt><trkpt lat="45.6354467" lon="8.13867"><ele>456.0</ele><time>2026-03-29T14:03:34.996Z</time></trkpt><trkpt lat="45.6354333" lon="8.1388533"><ele>457.5</ele><time>2026-03-29T14:03:35.996Z</time></trkpt><trkpt lat="45.6354217" lon="8.1390267"><ele>459.0</ele><time>2026-03-29T14:03:36.996Z</time></trkpt><trkpt lat="45.6354633" lon="8.1392"><ele>459.0</ele><time>2026-03-29T14:03:37.996Z</time></trkpt><trkpt lat="45.6355017" lon="8.13938"><ele>459.0</ele><time>2026-03-29T14:03:38.995Z</time></trkpt><trkpt lat="45.635475" lon="8.1395433"><ele>459.0</ele><time>2026-03-29T14:03:39.995Z</time></trkpt><trkpt lat="45.635415" lon="8.1397317"><ele>459.0</ele><time>2026-03-29T14:03:40.996Z</time></trkpt><trkpt lat="45.6352983" lon="8.139915"><ele>452.33333333333337</ele><time>2026-03-29T14:03:41.996Z</time></trkpt><trkpt lat="45.63516" lon="8.1401033"><ele>445.6666666666667</ele><time>2026-03-29T14:03:42.996Z</time></trkpt><trkpt lat="45.635065" lon="8.1402883"><ele>439.0</ele><time>2026-03-29T14:03:43.996Z</time></trkpt><trkpt lat="45.634995" lon="8.1404867"><ele>439.0</ele><time>2026-03-29T14:03:44.995Z</time></trkpt><trkpt lat="45.6349533" lon="8.140695"><ele>439.0</ele><time>2026-03-29T14:03:45.996Z</time></trkpt><trkpt lat="45.634945" lon="8.14091"><ele>439.0</ele><time>2026-03-29T14:03:46.996Z</time></trkpt><trkpt lat="45.6349117" lon="8.1411183"><ele>439.25</ele><time>2026-03-29T14:03:47.996Z</time></trkpt><trkpt lat="45.6348833" lon="8.141325"><ele>439.5</ele><time>2026-03-29T14:03:48.996Z</time></trkpt><trkpt lat="45.6348717" lon="8.1415283"><ele>439.75</ele><time>2026-03-29T14:03:49.996Z</time></trkpt><trkpt lat="45.63487" lon="8.1417417"><ele>440.0</ele><time>2026-03-29T14:03:50.996Z</time></trkpt><trkpt lat="45.6348417" lon="8.14192"><ele>439.8</ele><time>2026-03-29T14:03:51.996Z</time></trkpt><trkpt lat="45.634825" lon="8.1420833"><ele>439.6</ele><time>2026-03-29T14:03:52.996Z</time></trkpt><trkpt lat="45.63482" lon="8.1422533"><ele>439.4</ele><time>2026-03-29T14:03:53.995Z</time></trkpt><trkpt lat="45.6348133" lon="8.14241"><ele>439.2</ele><time>2026-03-29T14:03:54.996Z</time></trkpt><trkpt lat="45.6347983" lon="8.1425483"><ele>439.0</ele><time>2026-03-29T14:03:55.996Z</time></trkpt><trkpt lat="45.634795" lon="8.1426967"><ele>439.0</ele><time>2026-03-29T14:03:56.995Z</time></trkpt><trkpt lat="45.6347867" lon="8.14284"><ele>439.0</ele><time>2026-03-29T14:03:57.996Z</time></trkpt><trkpt lat="45.634815" lon="8.142995"><ele>439.0</ele><time>2026-03-29T14:03:58.995Z</time></trkpt><trkpt lat="45.634845" lon="8.1431433"><ele>439.0</ele><time>2026-03-29T14:03:59.996Z</time></trkpt><trkpt lat="45.6348667" lon="8.1432917"><ele>439.0</ele><time>2026-03-29T14:04:00.996Z</time></trkpt><trkpt lat="45.6348717" lon="8.1434317"><ele>438.2</ele><time>2026-03-29T14:04:01.996Z</time></trkpt><trkpt lat="45.6348783" lon="8.1435433"><ele>437.4</ele><time>2026-03-29T14:04:02.996Z</time></trkpt><trkpt lat="45.634865" lon="8.143665"><ele>436.6</ele><time>2026-03-29T14:04:03.995Z</time></trkpt><trkpt lat="45.63486" lon="8.1437817"><ele>435.8</ele><time>2026-03-29T14:04:04.996Z</time></trkpt><trkpt lat="45.6348067" lon="8.14391"><ele>435.0</ele><time>2026-03-29T14:04:05.996Z</time></trkpt><trkpt lat="45.6347183" lon="8.14401"><ele>434.75</ele><time>2026-03-29T14:04:06.996Z</time></trkpt><trkpt lat="45.6346367" lon="8.14411"><ele>434.5</ele><time>2026-03-29T14:04:07.996Z</time></trkpt><trkpt lat="45.6345517" lon="8.144165"><ele>434.25</ele><time>2026-03-29T14:04:08.996Z</time></trkpt><trkpt lat="45.634475" lon="8.1442267"><ele>434.0</ele><time>2026-03-29T14:04:09.996Z</time></trkpt><trkpt lat="45.6342967" lon="8.1442667"><ele>434.0</ele><time>2026-03-29T14:04:10.996Z</time></trkpt><trkpt lat="45.6341233" lon="8.1443333"><ele>434.0</ele><time>2026-03-29T14:04:11.995Z</time></trkpt><trkpt lat="45.63398" lon="8.1444067"><ele>434.0</ele><time>2026-03-29T14:04:12.996Z</time></trkpt><trkpt lat="45.6339117" lon="8.1444983"><ele>434.0</ele><time>2026-03-29T14:04:13.996Z</time></trkpt><trkpt lat="45.6338117" lon="8.1445933"><ele>434.0</ele><time>2026-03-29T14:04:14.995Z</time></trkpt><trkpt lat="45.6337083" lon="8.1447"><ele>434.0</ele><time>2026-03-29T14:04:15.995Z</time></trkpt><trkpt lat="45.6335983" lon="8.1447833"><ele>434.0</ele><time>2026-03-29T14:04:16.996Z</time></trkpt><trkpt lat="45.63349" lon="8.1448733"><ele>434.0</ele><time>2026-03-29T14:04:17.996Z</time></trkpt><trkpt lat="45.633395" lon="8.1449917"><ele>432.6</ele><time>2026-03-29T14:04:18.995Z</time></trkpt><trkpt lat="45.6333017" lon="8.1451067"><ele>431.2</ele><time>2026-03-29T14:04:19.995Z</time></trkpt><trkpt lat="45.6332117" lon="8.1451817"><ele>429.80000000000007</ele><time>2026-03-29T14:04:20.996Z</time></trkpt><trkpt lat="45.6331283" lon="8.1452733"><ele>428.40000000000003</ele><time>2026-03-29T14:04:21.996Z</time></trkpt><trkpt lat="45.6330533" lon="8.1453617"><ele>427.0</ele><time>2026-03-29T14:04:22.995Z</time></trkpt><trkpt lat="45.63299" lon="8.14544"><ele>427.00000000000006</ele><time>2026-03-29T14:04:23.996Z</time></trkpt><trkpt lat="45.6329167" lon="8.1455217"><ele>427.0</ele><time>2026-03-29T14:04:24.996Z</time></trkpt><trkpt lat="45.6328633" lon="8.1455833"><ele>427.0</ele><time>2026-03-29T14:04:25.995Z</time></trkpt><trkpt lat="45.632805" lon="8.145655"><ele>427.0</ele><time>2026-03-29T14:04:26.995Z</time></trkpt><trkpt lat="45.63274" lon="8.1456983"><ele>427.00000000000006</ele><time>2026-03-29T14:04:27.995Z</time></trkpt><trkpt lat="45.6326617" lon="8.1457567"><ele>427.0</ele><time>2026-03-29T14:04:28.995Z</time></trkpt><trkpt lat="45.6326067" lon="8.1458267"><ele>426.50000000000006</ele><time>2026-03-29T14:04:29.996Z</time></trkpt><trkpt lat="45.6325333" lon="8.1459"><ele>426.0</ele><time>2026-03-29T14:04:31.995Z</time></trkpt><trkpt lat="45.6324967" lon="8.14599"><ele>425.5</ele><time>2026-03-29T14:04:33.996Z</time></trkpt><trkpt lat="45.6325617" lon="8.146045"><ele>425.0</ele><time>2026-03-29T14:04:36.996Z</time></trkpt><trkpt lat="45.6326133" lon="8.1458817"><ele>424.50000000000006</ele><time>2026-03-29T14:05:15.995Z</time></trkpt><trkpt lat="45.6325433" lon="8.1458417"><ele>424.0</ele><time>2026-03-29T14:05:19.996Z</time></trkpt><trkpt lat="45.632455" lon="8.1458683"><ele>424.0</ele><time>2026-03-29T14:05:21.995Z</time></trkpt><trkpt lat="45.63228" lon="8.14599"><ele>424.0</ele><time>2026-03-29T14:05:23.995Z</time></trkpt><trkpt lat="45.63212" lon="8.14612"><ele>424.0</ele><time>2026-03-29T14:05:24.996Z</time></trkpt><trkpt lat="45.6319333" lon="8.1462567"><ele>423.6666666666667</ele><time>2026-03-29T14:05:25.995Z</time></trkpt><trkpt lat="45.6317433" lon="8.14639"><ele>423.33333333333337</ele><time>2026-03-29T14:05:26.996Z</time></trkpt><trkpt lat="45.63155" lon="8.146535"><ele>423.0</ele><time>2026-03-29T14:05:27.995Z</time></trkpt><trkpt lat="45.6313833" lon="8.1466667"><ele>423.0</ele><time>2026-03-29T14:05:28.995Z</time></trkpt><trkpt lat="45.6312383" lon="8.1468467"><ele>423.0</ele><time>2026-03-29T14:05:29.996Z</time></trkpt><trkpt lat="45.6310783" lon="8.1470017"><ele>423.0</ele><time>2026-03-29T14:05:30.996Z</time></trkpt><trkpt lat="45.6309417" lon="8.1471583"><ele>422.33333333333337</ele><time>2026-03-29T14:05:31.996Z</time></trkpt><trkpt lat="45.63079" lon="8.1473383"><ele>421.6666666666667</ele><time>2026-03-29T14:05:32.996Z</time></trkpt><trkpt lat="45.6306483" lon="8.1475"><ele>421.0</ele><time>2026-03-29T14:05:33.995Z</time></trkpt><trkpt lat="45.6304833" lon="8.1476417"><ele>421.0</ele><time>2026-03-29T14:05:34.996Z</time></trkpt><trkpt lat="45.63031" lon="8.1477883"><ele>421.0</ele><time>2026-03-29T14:05:35.995Z</time></trkpt><trkpt lat="45.63014" lon="8.14794"><ele>421.0</ele><time>2026-03-29T14:05:36.995Z</time></trkpt><trkpt lat="45.6299667" lon="8.1480667"><ele>420.6666666666667</ele><time>2026-03-29T14:05:37.995Z</time></trkpt><trkpt lat="45.6297917" lon="8.1481883"><ele>420.33333333333337</ele><time>2026-03-29T14:05:38.995Z</time></trkpt><trkpt lat="45.6296417" lon="8.14832"><ele>420.0</ele><time>2026-03-29T14:05:39.994Z</time></trkpt><trkpt lat="45.62949" lon="8.1484483"><ele>416.66666666666663</ele><time>2026-03-29T14:05:40.995Z</time></trkpt><trkpt lat="45.6293333" lon="8.148535"><ele>413.3333333333333</ele><time>2026-03-29T14:05:41.995Z</time></trkpt><trkpt lat="45.62918" lon="8.14861"><ele>410.0</ele><time>2026-03-29T14:05:42.995Z</time></trkpt><trkpt lat="45.62903" lon="8.1486967"><ele>410.0</ele><time>2026-03-29T14:05:43.995Z</time></trkpt><trkpt lat="45.62889" lon="8.14879"><ele>410.0</ele><time>2026-03-29T14:05:44.995Z</time></trkpt><trkpt lat="45.6287583" lon="8.1488767"><ele>410.0</ele><time>2026-03-29T14:05:45.994Z</time></trkpt><trkpt lat="45.6286383" lon="8.1489767"><ele>410.0</ele><time>2026-03-29T14:05:46.995Z</time></trkpt><trkpt lat="45.628525" lon="8.1490667"><ele>409.8</ele><time>2026-03-29T14:05:47.995Z</time></trkpt><trkpt lat="45.6284083" lon="8.1491533"><ele>409.6</ele><time>2026-03-29T14:05:48.995Z</time></trkpt><trkpt lat="45.6283117" lon="8.1492217"><ele>409.4</ele><time>2026-03-29T14:05:49.994Z</time></trkpt><trkpt lat="45.62823" lon="8.1493"><ele>409.2</ele><time>2026-03-29T14:05:50.995Z</time></trkpt><trkpt lat="45.628155" lon="8.1493833"><ele>409.0</ele><time>2026-03-29T14:05:51.995Z</time></trkpt><trkpt lat="45.62809" lon="8.1494517"><ele>409.0</ele><time>2026-03-29T14:05:52.994Z</time></trkpt><trkpt lat="45.6280417" lon="8.1495117"><ele>409.0</ele><time>2026-03-29T14:05:53.994Z</time></trkpt><trkpt lat="45.6281" lon="8.149585"><ele>409.0</ele><time>2026-03-29T14:06:04.994Z</time></trkpt><trkpt lat="45.628275" lon="8.1495733"><ele>409.0</ele><time>2026-03-29T14:06:06.994Z</time></trkpt><trkpt lat="45.628395" lon="8.1495417"><ele>409.0</ele><time>2026-03-29T14:06:07.995Z</time></trkpt><trkpt lat="45.6285983" lon="8.1494633"><ele>412.0</ele><time>2026-03-29T14:06:08.995Z</time></trkpt><trkpt lat="45.6288117" lon="8.1494033"><ele>415.0</ele><time>2026-03-29T14:06:09.995Z</time></trkpt><trkpt lat="45.6290017" lon="8.149355"><ele>418.0</ele><time>2026-03-29T14:06:10.995Z</time></trkpt><trkpt lat="45.6292267" lon="8.1493217"><ele>418.0</ele><time>2026-03-29T14:06:11.995Z</time></trkpt><trkpt lat="45.6294367" lon="8.149285"><ele>418.0</ele><time>2026-03-29T14:06:12.994Z</time></trkpt><trkpt lat="45.629605" lon="8.1492667"><ele>418.0</ele><time>2026-03-29T14:06:13.995Z</time></trkpt><trkpt lat="45.6297467" lon="8.1493233"><ele>423.33333333333337</ele><time>2026-03-29T14:06:14.995Z</time></trkpt><trkpt lat="45.6298917" lon="8.1494167"><ele>428.66666666666663</ele><time>2026-03-29T14:06:15.995Z</time></trkpt><trkpt lat="45.630015" lon="8.1495683"><ele>434.0</ele><time>2026-03-29T14:06:16.995Z</time></trkpt><trkpt lat="45.6301583" lon="8.1497617"><ele>443.0</ele><time>2026-03-29T14:06:17.995Z</time></trkpt><trkpt lat="45.630335" lon="8.1499517"><ele>452.0</ele><time>2026-03-29T14:06:18.994Z</time></trkpt><trkpt lat="45.6305433" lon="8.15014"><ele>452.0</ele><time>2026-03-29T14:06:19.994Z</time></trkpt><trkpt lat="45.6307283" lon="8.150295"><ele>452.0</ele><time>2026-03-29T14:06:20.995Z</time></trkpt><trkpt lat="45.6308917" lon="8.1504117"><ele>452.0</ele><time>2026-03-29T14:06:21.995Z</time></trkpt><trkpt lat="45.6310617" lon="8.1505067"><ele>452.25</ele><time>2026-03-29T14:06:22.994Z</time></trkpt><trkpt lat="45.63118" lon="8.15057"><ele>452.5</ele><time>2026-03-29T14:06:23.995Z</time></trkpt><trkpt lat="45.631295" lon="8.1505933"><ele>452.75</ele><time>2026-03-29T14:06:24.995Z</time></trkpt><trkpt lat="45.6314017" lon="8.15055"><ele>453.0</ele><time>2026-03-29T14:06:25.995Z</time></trkpt><trkpt lat="45.6314967" lon="8.150395"><ele>453.0</ele><time>2026-03-29T14:06:26.995Z</time></trkpt><trkpt lat="45.6316083" lon="8.1502233"><ele>453.0</ele><time>2026-03-29T14:06:27.995Z</time></trkpt><trkpt lat="45.6317367" lon="8.150075"><ele>453.0</ele><time>2026-03-29T14:06:28.995Z</time></trkpt><trkpt lat="45.63187" lon="8.1499467"><ele>454.75</ele><time>2026-03-29T14:06:29.994Z</time></trkpt><trkpt lat="45.63201" lon="8.1498567"><ele>456.5</ele><time>2026-03-29T14:06:30.995Z</time></trkpt><trkpt lat="45.6321417" lon="8.1498233"><ele>458.25</ele><time>2026-03-29T14:06:31.995Z</time></trkpt><trkpt lat="45.6322767" lon="8.1498583"><ele>460.0</ele><time>2026-03-29T14:06:32.995Z</time></trkpt><trkpt lat="45.63243" lon="8.1499367"><ele>460.0</ele><time>2026-03-29T14:06:33.995Z</time></trkpt><trkpt lat="45.6325833" lon="8.1500333"><ele>460.0</ele><time>2026-03-29T14:06:34.994Z</time></trkpt><trkpt lat="45.6327333" lon="8.15013"><ele>460.0</ele><time>2026-03-29T14:06:35.995Z</time></trkpt><trkpt lat="45.6328833" lon="8.1501967"><ele>462.75</ele><time>2026-03-29T14:06:36.995Z</time></trkpt><trkpt lat="45.6330233" lon="8.1502633"><ele>465.5</ele><time>2026-03-29T14:06:37.995Z</time></trkpt><trkpt lat="45.6331567" lon="8.1502933"><ele>468.25</ele><time>2026-03-29T14:06:38.995Z</time></trkpt><trkpt lat="45.633285" lon="8.1503383"><ele>471.0</ele><time>2026-03-29T14:06:39.995Z</time></trkpt><trkpt lat="45.6334333" lon="8.1504067"><ele>471.0</ele><time>2026-03-29T14:06:40.995Z</time></trkpt><trkpt lat="45.6335583" lon="8.1505233"><ele>471.0</ele><time>2026-03-29T14:06:41.994Z</time></trkpt><trkpt lat="45.6336783" lon="8.1506467"><ele>471.0</ele><time>2026-03-29T14:06:42.994Z</time></trkpt><trkpt lat="45.6337933" lon="8.15074"><ele>471.0</ele><time>2026-03-29T14:06:43.995Z</time></trkpt><trkpt lat="45.633895" lon="8.15083"><ele>471.0</ele><time>2026-03-29T14:06:44.994Z</time></trkpt><trkpt lat="45.6339717" lon="8.1509033"><ele>471.0</ele><time>2026-03-29T14:06:45.995Z</time></trkpt><trkpt lat="45.6340583" lon="8.1509733"><ele>471.0</ele><time>2026-03-29T14:06:46.994Z</time></trkpt><trkpt lat="45.6341383" lon="8.15105"><ele>471.0</ele><time>2026-03-29T14:06:47.995Z</time></trkpt><trkpt lat="45.6342083" lon="8.1511317"><ele>471.0</ele><time>2026-03-29T14:06:48.995Z</time></trkpt><trkpt lat="45.6342817" lon="8.1511967"><ele>471.0</ele><time>2026-03-29T14:06:49.995Z</time></trkpt><trkpt lat="45.6343567" lon="8.1512233"><ele>471.0</ele><time>2026-03-29T14:06:50.995Z</time></trkpt><trkpt lat="45.6344317" lon="8.1511817"><ele>471.0</ele><time>2026-03-29T14:06:51.995Z</time></trkpt><trkpt lat="45.6344733" lon="8.1510917"><ele>471.0</ele><time>2026-03-29T14:06:52.995Z</time></trkpt><trkpt lat="45.6345033" lon="8.1509767"><ele>471.0</ele><time>2026-03-29T14:06:53.994Z</time></trkpt><trkpt lat="45.6344283" lon="8.1508483"><ele>471.0</ele><time>2026-03-29T14:06:54.994Z</time></trkpt><trkpt lat="45.6343233" lon="8.150705"><ele>475.33333333333337</ele><time>2026-03-29T14:06:55.995Z</time></trkpt><trkpt lat="45.634195" lon="8.15052"><ele>479.6666666666667</ele><time>2026-03-29T14:06:56.995Z</time></trkpt><trkpt lat="45.6340667" lon="8.1502983"><ele>484.0</ele><time>2026-03-29T14:06:57.995Z</time></trkpt><trkpt lat="45.633925" lon="8.1500683"><ele>484.6666666666667</ele><time>2026-03-29T14:06:58.994Z</time></trkpt><trkpt lat="45.6337717" lon="8.1498383"><ele>485.33333333333337</ele><time>2026-03-29T14:06:59.994Z</time></trkpt><trkpt lat="45.6336317" lon="8.1496367"><ele>486.0</ele><time>2026-03-29T14:07:00.995Z</time></trkpt><trkpt lat="45.6334883" lon="8.1495017"><ele>484.0</ele><time>2026-03-29T14:07:01.995Z</time></trkpt><trkpt lat="45.6333533" lon="8.1493883"><ele>482.0</ele><time>2026-03-29T14:07:02.995Z</time></trkpt><trkpt lat="45.633285" lon="8.1492567"><ele>480.0</ele><time>2026-03-29T14:07:03.995Z</time></trkpt><trkpt lat="45.6332517" lon="8.1491183"><ele>478.0</ele><time>2026-03-29T14:07:04.995Z</time></trkpt><trkpt lat="45.6332633" lon="8.148965"><ele>476.0</ele><time>2026-03-29T14:07:05.995Z</time></trkpt><trkpt lat="45.6332933" lon="8.1488417"><ele>474.0</ele><time>2026-03-29T14:07:06.994Z</time></trkpt><trkpt lat="45.63336" lon="8.1487467"><ele>472.0</ele><time>2026-03-29T14:07:07.995Z</time></trkpt><trkpt lat="45.6334533" lon="8.1486717"><ele>470.0</ele><time>2026-03-29T14:07:08.994Z</time></trkpt><trkpt lat="45.6336433" lon="8.1487167"><ele>470.0</ele><time>2026-03-29T14:07:09.995Z</time></trkpt><trkpt lat="45.633875" lon="8.1487467"><ele>470.0</ele><time>2026-03-29T14:07:10.995Z</time></trkpt><trkpt lat="45.6340867" lon="8.14882"><ele>470.0</ele><time>2026-03-29T14:07:11.994Z</time></trkpt><trkpt lat="45.6342917" lon="8.1488817"><ele>470.0</ele><time>2026-03-29T14:07:12.995Z</time></trkpt><trkpt lat="45.634505" lon="8.1489217"><ele>470.0</ele><time>2026-03-29T14:07:13.995Z</time></trkpt><trkpt lat="45.6346883" lon="8.1489583"><ele>473.75</ele><time>2026-03-29T14:07:14.995Z</time></trkpt><trkpt lat="45.6348417" lon="8.1489783"><ele>477.5</ele><time>2026-03-29T14:07:15.994Z</time></trkpt><trkpt lat="45.6349617" lon="8.1489633"><ele>481.25</ele><time>2026-03-29T14:07:16.995Z</time></trkpt><trkpt lat="45.6350667" lon="8.148875"><ele>485.0</ele><time>2026-03-29T14:07:17.995Z</time></trkpt><trkpt lat="45.6351483" lon="8.1487133"><ele>485.0</ele><time>2026-03-29T14:07:18.995Z</time></trkpt><trkpt lat="45.6352133" lon="8.1484933"><ele>485.0</ele><time>2026-03-29T14:07:19.994Z</time></trkpt><trkpt lat="45.63527" lon="8.1482267"><ele>485.0</ele><time>2026-03-29T14:07:20.995Z</time></trkpt><trkpt lat="45.6352833" lon="8.1479533"><ele>485.25</ele><time>2026-03-29T14:07:21.995Z</time></trkpt><trkpt lat="45.6352833" lon="8.1477217"><ele>485.5</ele><time>2026-03-29T14:07:22.994Z</time></trkpt><trkpt lat="45.6352917" lon="8.1474983"><ele>485.75</ele><time>2026-03-29T14:07:23.995Z</time></trkpt><trkpt lat="45.6353133" lon="8.1473267"><ele>486.0</ele><time>2026-03-29T14:07:24.995Z</time></trkpt><trkpt lat="45.6353933" lon="8.147195"><ele>486.0</ele><time>2026-03-29T14:07:25.994Z</time></trkpt><trkpt lat="45.6355083" lon="8.14711"><ele>486.0</ele><time>2026-03-29T14:07:26.995Z</time></trkpt><trkpt lat="45.6356717" lon="8.1471067"><ele>486.0</ele><time>2026-03-29T14:07:27.995Z</time></trkpt><trkpt lat="45.6357983" lon="8.1471383"><ele>486.0</ele><time>2026-03-29T14:07:28.995Z</time></trkpt><trkpt lat="45.6359183" lon="8.1472167"><ele>486.0</ele><time>2026-03-29T14:07:29.995Z</time></trkpt><trkpt lat="45.6360367" lon="8.1472783"><ele>486.0</ele><time>2026-03-29T14:07:30.994Z</time></trkpt><trkpt lat="45.6361533" lon="8.14726"><ele>486.0</ele><time>2026-03-29T14:07:31.995Z</time></trkpt><trkpt lat="45.63628" lon="8.1471817"><ele>486.0</ele><time>2026-03-29T14:07:32.995Z</time></trkpt><trkpt lat="45.6363883" lon="8.14706"><ele>488.5</ele><time>2026-03-29T14:07:33.994Z</time></trkpt><trkpt lat="45.6364633" lon="8.146915"><ele>491.0</ele><time>2026-03-29T14:07:34.995Z</time></trkpt><trkpt lat="45.6365117" lon="8.1467267"><ele>493.5</ele><time>2026-03-29T14:07:35.994Z</time></trkpt><trkpt lat="45.63653" lon="8.14652"><ele>496.0</ele><time>2026-03-29T14:07:36.995Z</time></trkpt><trkpt lat="45.6365333" lon="8.14632"><ele>496.0</ele><time>2026-03-29T14:07:37.994Z</time></trkpt><trkpt lat="45.6365367" lon="8.1461383"><ele>496.0</ele><time>2026-03-29T14:07:38.995Z</time></trkpt><trkpt lat="45.6365933" lon="8.145975"><ele>496.0</ele><time>2026-03-29T14:07:39.995Z</time></trkpt><trkpt lat="45.6366567" lon="8.14584"><ele>496.0</ele><time>2026-03-29T14:07:40.995Z</time></trkpt><trkpt lat="45.6367233" lon="8.1457367"><ele>497.33333333333337</ele><time>2026-03-29T14:07:41.995Z</time></trkpt><trkpt lat="45.6368217" lon="8.1456883"><ele>498.66666666666663</ele><time>2026-03-29T14:07:42.994Z</time></trkpt><trkpt lat="45.6369733" lon="8.1457567"><ele>500.0</ele><time>2026-03-29T14:07:43.995Z</time></trkpt><trkpt lat="45.6371433" lon="8.145875"><ele>500.0</ele><time>2026-03-29T14:07:44.995Z</time></trkpt><trkpt lat="45.6374033" lon="8.146135"><ele>500.0</ele><time>2026-03-29T14:07:45.995Z</time></trkpt><trkpt lat="45.6375983" lon="8.146285"><ele>502.66666666666663</ele><time>2026-03-29T14:07:46.994Z</time></trkpt><trkpt lat="45.6378067" lon="8.1463883"><ele>505.33333333333337</ele><time>2026-03-29T14:07:47.995Z</time></trkpt><trkpt lat="45.6379883" lon="8.1464017"><ele>508.0</ele><time>2026-03-29T14:07:48.995Z</time></trkpt><trkpt lat="45.638155" lon="8.146335"><ele>508.0</ele><time>2026-03-29T14:07:49.995Z</time></trkpt><trkpt lat="45.6383083" lon="8.1461867"><ele>508.0</ele><time>2026-03-29T14:07:50.995Z</time></trkpt><trkpt lat="45.6384617" lon="8.1460267"><ele>508.0</ele><time>2026-03-29T14:07:51.995Z</time></trkpt><trkpt lat="45.6385783" lon="8.14584"><ele>510.5</ele><time>2026-03-29T14:07:52.994Z</time></trkpt><trkpt lat="45.63867" lon="8.1456533"><ele>513.0</ele><time>2026-03-29T14:07:53.995Z</time></trkpt><trkpt lat="45.638735" lon="8.1454833"><ele>515.5</ele><time>2026-03-29T14:07:54.995Z</time></trkpt><trkpt lat="45.6388017" lon="8.145375"><ele>518.0</ele><time>2026-03-29T14:07:55.995Z</time></trkpt><trkpt lat="45.6388717" lon="8.1453633"><ele>518.0</ele><time>2026-03-29T14:07:56.995Z</time></trkpt><trkpt lat="45.63894" lon="8.1453883"><ele>518.0</ele><time>2026-03-29T14:07:57.994Z</time></trkpt><trkpt lat="45.6389767" lon="8.1455017"><ele>518.0</ele><time>2026-03-29T14:07:58.995Z</time></trkpt><trkpt lat="45.6389983" lon="8.145635"><ele>518.0</ele><time>2026-03-29T14:07:59.995Z</time></trkpt><trkpt lat="45.6389633" lon="8.1458483"><ele>518.0</ele><time>2026-03-29T14:08:00.994Z</time></trkpt><trkpt lat="45.6389167" lon="8.1460617"><ele>519.3333333333333</ele><time>2026-03-29T14:08:01.995Z</time></trkpt><trkpt lat="45.6388533" lon="8.1462567"><ele>520.6666666666666</ele><time>2026-03-29T14:08:02.994Z</time></trkpt><trkpt lat="45.6387617" lon="8.1464283"><ele>522.0</ele><time>2026-03-29T14:08:03.995Z</time></trkpt><trkpt lat="45.63861" lon="8.146565"><ele>522.0</ele><time>2026-03-29T14:08:04.994Z</time></trkpt><trkpt lat="45.6384817" lon="8.1467183"><ele>522.0</ele><time>2026-03-29T14:08:05.994Z</time></trkpt><trkpt lat="45.6383533" lon="8.1468583"><ele>522.0</ele><time>2026-03-29T14:08:06.994Z</time></trkpt><trkpt lat="45.6382283" lon="8.146955"><ele>522.0</ele><time>2026-03-29T14:08:07.995Z</time></trkpt><trkpt lat="45.6380933" lon="8.1469583"><ele>522.0</ele><time>2026-03-29T14:08:08.994Z</time></trkpt><trkpt lat="45.6379583" lon="8.14693"><ele>522.0</ele><time>2026-03-29T14:08:09.995Z</time></trkpt><trkpt lat="45.637825" lon="8.1468817"><ele>522.0</ele><time>2026-03-29T14:08:10.995Z</time></trkpt><trkpt lat="45.637695" lon="8.146875"><ele>520.5</ele><time>2026-03-29T14:08:11.995Z</time></trkpt><trkpt lat="45.637575" lon="8.1469317"><ele>519.0</ele><time>2026-03-29T14:08:12.995Z</time></trkpt><trkpt lat="45.6374733" lon="8.1470333"><ele>517.5</ele><time>2026-03-29T14:08:13.995Z</time></trkpt><trkpt lat="45.6373617" lon="8.1472233"><ele>516.0</ele><time>2026-03-29T14:08:14.994Z</time></trkpt><trkpt lat="45.6372383" lon="8.14745"><ele>515.6666666666666</ele><time>2026-03-29T14:08:15.994Z</time></trkpt><trkpt lat="45.6371417" lon="8.1477067"><ele>515.3333333333333</ele><time>2026-03-29T14:08:16.995Z</time></trkpt><trkpt lat="45.6370283" lon="8.1479633"><ele>515.0</ele><time>2026-03-29T14:08:17.995Z</time></trkpt><trkpt lat="45.63693" lon="8.1481483"><ele>519.0</ele><time>2026-03-29T14:08:18.995Z</time></trkpt><trkpt lat="45.63685" lon="8.148325"><ele>523.0</ele><time>2026-03-29T14:08:19.995Z</time></trkpt><trkpt lat="45.636805" lon="8.1485267"><ele>527.0</ele><time>2026-03-29T14:08:20.994Z</time></trkpt><trkpt lat="45.6367933" lon="8.14874"><ele>531.0</ele><time>2026-03-29T14:08:21.995Z</time></trkpt><trkpt lat="45.636815" lon="8.1489467"><ele>533.6666666666666</ele><time>2026-03-29T14:08:22.995Z</time></trkpt><trkpt lat="45.6368733" lon="8.1491617"><ele>536.3333333333333</ele><time>2026-03-29T14:08:23.994Z</time></trkpt><trkpt lat="45.636945" lon="8.14936"><ele>539.0</ele><time>2026-03-29T14:08:24.995Z</time></trkpt><trkpt lat="45.6370383" lon="8.14958"><ele>545.0</ele><time>2026-03-29T14:08:25.994Z</time></trkpt><trkpt lat="45.63714" lon="8.1497967"><ele>551.0</ele><time>2026-03-29T14:08:26.995Z</time></trkpt><trkpt lat="45.6372533" lon="8.1499567"><ele>557.0</ele><time>2026-03-29T14:08:27.995Z</time></trkpt><trkpt lat="45.6373633" lon="8.15009"><ele>557.0</ele><time>2026-03-29T14:08:28.995Z</time></trkpt><trkpt lat="45.63748" lon="8.1501767"><ele>557.0</ele><time>2026-03-29T14:08:29.994Z</time></trkpt><trkpt lat="45.637565" lon="8.15029"><ele>557.0</ele><time>2026-03-29T14:08:30.994Z</time></trkpt><trkpt lat="45.6376067" lon="8.1504717"><ele>557.0</ele><time>2026-03-29T14:08:31.995Z</time></trkpt><trkpt lat="45.6376417" lon="8.1506783"><ele>555.0</ele><time>2026-03-29T14:08:32.995Z</time></trkpt><trkpt lat="45.637675" lon="8.1509217"><ele>553.0</ele><time>2026-03-29T14:08:33.995Z</time></trkpt><trkpt lat="45.6376883" lon="8.1511867"><ele>551.0</ele><time>2026-03-29T14:08:34.995Z</time></trkpt><trkpt lat="45.6377067" lon="8.151445"><ele>549.3333333333333</ele><time>2026-03-29T14:08:35.995Z</time></trkpt><trkpt lat="45.63771" lon="8.1516983"><ele>547.6666666666666</ele><time>2026-03-29T14:08:36.995Z</time></trkpt><trkpt lat="45.6377417" lon="8.15193"><ele>546.0</ele><time>2026-03-29T14:08:37.994Z</time></trkpt><trkpt lat="45.6377667" lon="8.1521833"><ele>549.3333333333334</ele><time>2026-03-29T14:08:38.995Z</time></trkpt><trkpt lat="45.6378217" lon="8.152455"><ele>552.6666666666667</ele><time>2026-03-29T14:08:39.995Z</time></trkpt><trkpt lat="45.637885" lon="8.1527333"><ele>556.0</ele><time>2026-03-29T14:08:40.994Z</time></trkpt><trkpt lat="45.6379767" lon="8.153045"><ele>553.5</ele><time>2026-03-29T14:08:41.995Z</time></trkpt><trkpt lat="45.6380933" lon="8.153385"><ele>551.0</ele><time>2026-03-29T14:08:42.995Z</time></trkpt><trkpt lat="45.6382167" lon="8.1537233"><ele>554.0</ele><time>2026-03-29T14:08:43.995Z</time></trkpt><trkpt lat="45.638355" lon="8.1540583"><ele>557.0</ele><time>2026-03-29T14:08:44.995Z</time></trkpt><trkpt lat="45.6385083" lon="8.154385"><ele>565.5</ele><time>2026-03-29T14:08:45.995Z</time></trkpt><trkpt lat="45.6386617" lon="8.1547067"><ele>574.0</ele><time>2026-03-29T14:08:46.994Z</time></trkpt><trkpt lat="45.638815" lon="8.15503"><ele>582.5</ele><time>2026-03-29T14:08:47.995Z</time></trkpt><trkpt lat="45.6389717" lon="8.1553583"><ele>591.0</ele><time>2026-03-29T14:08:48.995Z</time></trkpt><trkpt lat="45.6391367" lon="8.155685"><ele>596.0</ele><time>2026-03-29T14:08:49.995Z</time></trkpt><trkpt lat="45.6392933" lon="8.1560133"><ele>601.0</ele><time>2026-03-29T14:08:50.995Z</time></trkpt><trkpt lat="45.63945" lon="8.15634"><ele>587.0</ele><time>2026-03-29T14:08:51.994Z</time></trkpt><trkpt lat="45.6402267" lon="8.1579217"><ele>580.5</ele><time>2026-03-29T14:08:57.009Z</time></trkpt><trkpt lat="45.6404167" lon="8.158175"><ele>574.0</ele><time>2026-03-29T14:08:58.009Z</time></trkpt><trkpt lat="45.6405133" lon="8.1584883"><ele>570.5</ele><time>2026-03-29T14:08:59.008Z</time></trkpt><trkpt lat="45.6406967" lon="8.1586433"><ele>567.0</ele><time>2026-03-29T14:09:00.009Z</time></trkpt><trkpt lat="45.6409183" lon="8.1588417"><ele>568.0</ele><time>2026-03-29T14:09:01.008Z</time></trkpt><trkpt lat="45.6410933" lon="8.1590767"><ele>569.0</ele><time>2026-03-29T14:09:02.009Z</time></trkpt><trkpt lat="45.6412683" lon="8.1593033"><ele>564.5</ele><time>2026-03-29T14:09:03.009Z</time></trkpt><trkpt lat="45.6414083" lon="8.15956"><ele>560.0</ele><time>2026-03-29T14:09:04.009Z</time></trkpt><trkpt lat="45.64157" lon="8.15981"><ele>562.5</ele><time>2026-03-29T14:09:05.008Z</time></trkpt><trkpt lat="45.641735" lon="8.160065"><ele>565.0</ele><time>2026-03-29T14:09:06.009Z</time></trkpt><trkpt lat="45.6419133" lon="8.1603117"><ele>563.5</ele><time>2026-03-29T14:09:07.009Z</time></trkpt><trkpt lat="45.6421017" lon="8.16055"><ele>562.0</ele><time>2026-03-29T14:09:08.009Z</time></trkpt><trkpt lat="45.6422817" lon="8.1607833"><ele>562.0</ele><time>2026-03-29T14:09:09.009Z</time></trkpt><trkpt lat="45.6424567" lon="8.1610017"><ele>562.0</ele><time>2026-03-29T14:09:10.009Z</time></trkpt><trkpt lat="45.6426183" lon="8.16122"><ele>562.0</ele><time>2026-03-29T14:09:11.009Z</time></trkpt><trkpt lat="45.642775" lon="8.1614267"><ele>562.0</ele><time>2026-03-29T14:09:12.009Z</time></trkpt><trkpt lat="45.6428917" lon="8.1616733"><ele>562.0</ele><time>2026-03-29T14:09:13.008Z</time></trkpt><trkpt lat="45.6430217" lon="8.1619317"><ele>560.6666666666667</ele><time>2026-03-29T14:09:14.008Z</time></trkpt><trkpt lat="45.64312" lon="8.162215"><ele>559.3333333333334</ele><time>2026-03-29T14:09:15.009Z</time></trkpt><trkpt lat="45.6431733" lon="8.1625117"><ele>558.0</ele><time>2026-03-29T14:09:16.009Z</time></trkpt><trkpt lat="45.64323" lon="8.1627983"><ele>557.3333333333334</ele><time>2026-03-29T14:09:17.009Z</time></trkpt><trkpt lat="45.6432733" lon="8.1630883"><ele>556.6666666666667</ele><time>2026-03-29T14:09:18.009Z</time></trkpt><trkpt lat="45.6433067" lon="8.1633783"><ele>556.0</ele><time>2026-03-29T14:09:19.009Z</time></trkpt><trkpt lat="45.6433183" lon="8.163685"><ele>554.6666666666667</ele><time>2026-03-29T14:09:20.009Z</time></trkpt><trkpt lat="45.643315" lon="8.1640017"><ele>553.3333333333334</ele><time>2026-03-29T14:09:21.009Z</time></trkpt><trkpt lat="45.6433" lon="8.1643267"><ele>552.0</ele><time>2026-03-29T14:09:22.008Z</time></trkpt><trkpt lat="45.643255" lon="8.1646633"><ele>551.3333333333334</ele><time>2026-03-29T14:09:23.008Z</time></trkpt><trkpt lat="45.6432533" lon="8.1649833"><ele>550.6666666666667</ele><time>2026-03-29T14:09:24.009Z</time></trkpt><trkpt lat="45.6432483" lon="8.165285"><ele>550.0</ele><time>2026-03-29T14:09:25.009Z</time></trkpt><trkpt lat="45.6432517" lon="8.1655767"><ele>549.3333333333334</ele><time>2026-03-29T14:09:26.009Z</time></trkpt><trkpt lat="45.6432333" lon="8.1658517"><ele>548.6666666666666</ele><time>2026-03-29T14:09:27.009Z</time></trkpt><trkpt lat="45.6431883" lon="8.1661033"><ele>548.0</ele><time>2026-03-29T14:09:28.008Z</time></trkpt><trkpt lat="45.6430567" lon="8.166335"><ele>548.6666666666666</ele><time>2026-03-29T14:09:29.008Z</time></trkpt><trkpt lat="45.6430067" lon="8.16656"><ele>549.3333333333334</ele><time>2026-03-29T14:09:30.008Z</time></trkpt><trkpt lat="45.6429533" lon="8.1667917"><ele>550.0</ele><time>2026-03-29T14:09:31.009Z</time></trkpt><trkpt lat="45.642915" lon="8.167015"><ele>550.0</ele><time>2026-03-29T14:09:32.009Z</time></trkpt><trkpt lat="45.64292" lon="8.1672417"><ele>550.0</ele><time>2026-03-29T14:09:33.008Z</time></trkpt><trkpt lat="45.6429533" lon="8.1674767"><ele>550.0</ele><time>2026-03-29T14:09:34.009Z</time></trkpt><trkpt lat="45.6430267" lon="8.1676883"><ele>549.0</ele><time>2026-03-29T14:09:35.009Z</time></trkpt><trkpt lat="45.643135" lon="8.1678867"><ele>548.0</ele><time>2026-03-29T14:09:36.008Z</time></trkpt><trkpt lat="45.64327" lon="8.1680983"><ele>547.0</ele><time>2026-03-29T14:09:37.009Z</time></trkpt><trkpt lat="45.6434217" lon="8.1683267"><ele>548.0</ele><time>2026-03-29T14:09:38.009Z</time></trkpt><trkpt lat="45.64357" lon="8.1685717"><ele>549.0</ele><time>2026-03-29T14:09:39.008Z</time></trkpt><trkpt lat="45.6437183" lon="8.168805"><ele>550.0</ele><time>2026-03-29T14:09:40.009Z</time></trkpt><trkpt lat="45.6438633" lon="8.16902"><ele>546.6666666666667</ele><time>2026-03-29T14:09:41.009Z</time></trkpt><trkpt lat="45.644005" lon="8.16923"><ele>543.3333333333334</ele><time>2026-03-29T14:09:42.009Z</time></trkpt><trkpt lat="45.644125" lon="8.169425"><ele>540.0</ele><time>2026-03-29T14:09:43.009Z</time></trkpt><trkpt lat="45.6442417" lon="8.16959"><ele>540.0</ele><time>2026-03-29T14:09:44.009Z</time></trkpt><trkpt lat="45.64433" lon="8.16971"><ele>540.0</ele><time>2026-03-29T14:09:45.009Z</time></trkpt><trkpt lat="45.6443917" lon="8.1698533"><ele>540.0</ele><time>2026-03-29T14:09:46.008Z</time></trkpt><trkpt lat="45.644395" lon="8.170025"><ele>540.0</ele><time>2026-03-29T14:09:47.009Z</time></trkpt><trkpt lat="45.6443517" lon="8.1701933"><ele>539.0</ele><time>2026-03-29T14:09:48.008Z</time></trkpt><trkpt lat="45.6443083" lon="8.17035"><ele>538.0</ele><time>2026-03-29T14:09:49.009Z</time></trkpt><trkpt lat="45.644265" lon="8.1705217"><ele>537.0</ele><time>2026-03-29T14:09:50.009Z</time></trkpt><trkpt lat="45.6442617" lon="8.17071"><ele>536.0</ele><time>2026-03-29T14:09:51.008Z</time></trkpt><trkpt lat="45.6442917" lon="8.17089"><ele>537.0</ele><time>2026-03-29T14:09:52.009Z</time></trkpt><trkpt lat="45.6443317" lon="8.171055"><ele>538.0</ele><time>2026-03-29T14:09:53.008Z</time></trkpt><trkpt lat="45.64441" lon="8.17123"><ele>539.0</ele><time>2026-03-29T14:09:54.009Z</time></trkpt><trkpt lat="45.6445833" lon="8.1713567"><ele>539.0</ele><time>2026-03-29T14:09:55.009Z</time></trkpt><trkpt lat="45.64482" lon="8.1714233"><ele>539.0</ele><time>2026-03-29T14:09:56.009Z</time></trkpt><trkpt lat="45.64501" lon="8.17148"><ele>539.0</ele><time>2026-03-29T14:09:57.009Z</time></trkpt><trkpt lat="45.6452467" lon="8.171445"><ele>539.6666666666666</ele><time>2026-03-29T14:09:58.009Z</time></trkpt><trkpt lat="45.64544" lon="8.1714433"><ele>540.3333333333334</ele><time>2026-03-29T14:09:59.009Z</time></trkpt><trkpt lat="45.6456217" lon="8.1714783"><ele>541.0</ele><time>2026-03-29T14:10:00.009Z</time></trkpt><trkpt lat="45.6457767" lon="8.1715867"><ele>535.6666666666667</ele><time>2026-03-29T14:10:01.009Z</time></trkpt><trkpt lat="45.6459383" lon="8.1717117"><ele>530.3333333333334</ele><time>2026-03-29T14:10:02.009Z</time></trkpt><trkpt lat="45.6461217" lon="8.171805"><ele>525.0</ele><time>2026-03-29T14:10:03.008Z</time></trkpt><trkpt lat="45.6462883" lon="8.171895"><ele>525.0</ele><time>2026-03-29T14:10:04.008Z</time></trkpt><trkpt lat="45.6464717" lon="8.1720267"><ele>525.0</ele><time>2026-03-29T14:10:05.009Z</time></trkpt><trkpt lat="45.6466467" lon="8.172195"><ele>525.0</ele><time>2026-03-29T14:10:06.009Z</time></trkpt><trkpt lat="45.6468183" lon="8.172375"><ele>524.3333333333334</ele><time>2026-03-29T14:10:07.009Z</time></trkpt><trkpt lat="45.646975" lon="8.1725917"><ele>523.6666666666667</ele><time>2026-03-29T14:10:08.008Z</time></trkpt><trkpt lat="45.6471083" lon="8.172815"><ele>523.0</ele><time>2026-03-29T14:10:09.008Z</time></trkpt><trkpt lat="45.6472233" lon="8.1730617"><ele>521.0</ele><time>2026-03-29T14:10:10.009Z</time></trkpt><trkpt lat="45.647325" lon="8.17333"><ele>519.0</ele><time>2026-03-29T14:10:11.009Z</time></trkpt><trkpt lat="45.6474217" lon="8.1736183"><ele>517.0</ele><time>2026-03-29T14:10:12.008Z</time></trkpt><trkpt lat="45.647515" lon="8.173905"><ele>515.5</ele><time>2026-03-29T14:10:13.009Z</time></trkpt><trkpt lat="45.6475983" lon="8.17422"><ele>514.0</ele><time>2026-03-29T14:10:14.008Z</time></trkpt><trkpt lat="45.6476917" lon="8.1745133"><ele>514.0</ele><time>2026-03-29T14:10:15.009Z</time></trkpt><trkpt lat="45.6477817" lon="8.17481"><ele>514.0</ele><time>2026-03-29T14:10:16.009Z</time></trkpt><trkpt lat="45.6478817" lon="8.1751133"><ele>515.0</ele><time>2026-03-29T14:10:17.009Z</time></trkpt><trkpt lat="45.6479783" lon="8.1754133"><ele>516.0</ele><time>2026-03-29T14:10:18.009Z</time></trkpt><trkpt lat="45.648085" lon="8.1757133"><ele>516.0</ele><time>2026-03-29T14:10:19.008Z</time></trkpt><trkpt lat="45.6481933" lon="8.1759933"><ele>516.0</ele><time>2026-03-29T14:10:20.009Z</time></trkpt><trkpt lat="45.64829" lon="8.176325"><ele>513.5</ele><time>2026-03-29T14:10:21.009Z</time></trkpt><trkpt lat="45.6484117" lon="8.1766"><ele>511.0</ele><time>2026-03-29T14:10:22.009Z</time></trkpt><trkpt lat="45.6485267" lon="8.1768767"><ele>512.0</ele><time>2026-03-29T14:10:23.009Z</time></trkpt><trkpt lat="45.6486517" lon="8.17713"><ele>513.0</ele><time>2026-03-29T14:10:24.009Z</time></trkpt><trkpt lat="45.6487883" lon="8.1773567"><ele>514.0</ele><time>2026-03-29T14:10:25.009Z</time></trkpt><trkpt lat="45.6489433" lon="8.177585"><ele>514.0</ele><time>2026-03-29T14:10:26.009Z</time></trkpt><trkpt lat="45.649095" lon="8.1777983"><ele>514.0</ele><time>2026-03-29T14:10:27.008Z</time></trkpt><trkpt lat="45.6492317" lon="8.177985"><ele>514.0</ele><time>2026-03-29T14:10:28.008Z</time></trkpt><trkpt lat="45.649365" lon="8.1781333"><ele>512.3333333333334</ele><time>2026-03-29T14:10:29.009Z</time></trkpt><trkpt lat="45.6495067" lon="8.1782633"><ele>510.66666666666663</ele><time>2026-03-29T14:10:30.009Z</time></trkpt><trkpt lat="45.6496917" lon="8.1783383"><ele>509.0</ele><time>2026-03-29T14:10:31.008Z</time></trkpt><trkpt lat="45.6498833" lon="8.1784067"><ele>509.0</ele><time>2026-03-29T14:10:32.009Z</time></trkpt><trkpt lat="45.6500683" lon="8.1784833"><ele>509.0</ele><time>2026-03-29T14:10:33.009Z</time></trkpt><trkpt lat="45.650245" lon="8.1785917"><ele>509.0</ele><time>2026-03-29T14:10:34.009Z</time></trkpt><trkpt lat="45.6504183" lon="8.1786867"><ele>508.0</ele><time>2026-03-29T14:10:35.008Z</time></trkpt><trkpt lat="45.650585" lon="8.1787883"><ele>507.0</ele><time>2026-03-29T14:10:36.009Z</time></trkpt><trkpt lat="45.6507367" lon="8.1789333"><ele>506.0</ele><time>2026-03-29T14:10:37.009Z</time></trkpt><trkpt lat="45.6508717" lon="8.1791283"><ele>505.0</ele><time>2026-03-29T14:10:38.009Z</time></trkpt><trkpt lat="45.6509683" lon="8.1793717"><ele>504.0</ele><time>2026-03-29T14:10:39.009Z</time></trkpt><trkpt lat="45.6510517" lon="8.1796267"><ele>503.0</ele><time>2026-03-29T14:10:40.009Z</time></trkpt><trkpt lat="45.65112" lon="8.1799017"><ele>504.3333333333333</ele><time>2026-03-29T14:10:41.009Z</time></trkpt><trkpt lat="45.65119" lon="8.1801733"><ele>505.66666666666663</ele><time>2026-03-29T14:10:42.008Z</time></trkpt><trkpt lat="45.651255" lon="8.1804117"><ele>507.0</ele><time>2026-03-29T14:10:43.009Z</time></trkpt><trkpt lat="45.6513483" lon="8.18065"><ele>505.0</ele><time>2026-03-29T14:10:44.009Z</time></trkpt><trkpt lat="45.651435" lon="8.1808817"><ele>503.0</ele><time>2026-03-29T14:10:45.009Z</time></trkpt><trkpt lat="45.6515183" lon="8.1811"><ele>501.0</ele><time>2026-03-29T14:10:46.008Z</time></trkpt><trkpt lat="45.6516067" lon="8.1813133"><ele>501.0</ele><time>2026-03-29T14:10:47.009Z</time></trkpt><trkpt lat="45.6516933" lon="8.181535"><ele>501.0</ele><time>2026-03-29T14:10:48.008Z</time></trkpt><trkpt lat="45.6517533" lon="8.1817383"><ele>501.0</ele><time>2026-03-29T14:10:49.009Z</time></trkpt><trkpt lat="45.65183" lon="8.1819367"><ele>501.0</ele><time>2026-03-29T14:10:50.009Z</time></trkpt><trkpt lat="45.651915" lon="8.1821717"><ele>501.0</ele><time>2026-03-29T14:10:51.009Z</time></trkpt><trkpt lat="45.651995" lon="8.1823917"><ele>501.0</ele><time>2026-03-29T14:10:52.009Z</time></trkpt><trkpt lat="45.6520717" lon="8.1826067"><ele>500.66666666666663</ele><time>2026-03-29T14:10:53.009Z</time></trkpt><trkpt lat="45.6521367" lon="8.182795"><ele>500.3333333333333</ele><time>2026-03-29T14:10:54.009Z</time></trkpt><trkpt lat="45.65222" lon="8.1830033"><ele>500.0</ele><time>2026-03-29T14:10:55.009Z</time></trkpt><trkpt lat="45.6523133" lon="8.1831933"><ele>500.0</ele><time>2026-03-29T14:10:56.009Z</time></trkpt><trkpt lat="45.652375" lon="8.1833667"><ele>500.0</ele><time>2026-03-29T14:10:57.008Z</time></trkpt><trkpt lat="45.6524533" lon="8.1835167"><ele>500.0</ele><time>2026-03-29T14:10:58.008Z</time></trkpt><trkpt lat="45.6525517" lon="8.18364"><ele>500.0</ele><time>2026-03-29T14:10:59.009Z</time></trkpt><trkpt lat="45.6526833" lon="8.1837467"><ele>499.75</ele><time>2026-03-29T14:11:00.009Z</time></trkpt><trkpt lat="45.652805" lon="8.18383"><ele>499.5</ele><time>2026-03-29T14:11:01.008Z</time></trkpt><trkpt lat="45.6529217" lon="8.1839583"><ele>499.25</ele><time>2026-03-29T14:11:02.009Z</time></trkpt><trkpt lat="45.6530383" lon="8.1841117"><ele>499.0</ele><time>2026-03-29T14:11:03.008Z</time></trkpt><trkpt lat="45.6531533" lon="8.1842783"><ele>499.0</ele><time>2026-03-29T14:11:04.009Z</time></trkpt><trkpt lat="45.6532567" lon="8.184445"><ele>499.0</ele><time>2026-03-29T14:11:05.009Z</time></trkpt><trkpt lat="45.6533433" lon="8.18459"><ele>499.0</ele><time>2026-03-29T14:11:06.008Z</time></trkpt><trkpt lat="45.6534183" lon="8.18478"><ele>499.0</ele><time>2026-03-29T14:11:07.008Z</time></trkpt><trkpt lat="45.65349" lon="8.1849717"><ele>498.75</ele><time>2026-03-29T14:11:08.008Z</time></trkpt><trkpt lat="45.6535583" lon="8.1851667"><ele>498.5</ele><time>2026-03-29T14:11:09.008Z</time></trkpt><trkpt lat="45.6536333" lon="8.1853417"><ele>498.25</ele><time>2026-03-29T14:11:10.009Z</time></trkpt><trkpt lat="45.6537" lon="8.185515"><ele>498.0</ele><time>2026-03-29T14:11:11.008Z</time></trkpt><trkpt lat="45.6537667" lon="8.1856883"><ele>500.0</ele><time>2026-03-29T14:11:12.008Z</time></trkpt><trkpt lat="45.65381" lon="8.1858833"><ele>502.0</ele><time>2026-03-29T14:11:13.009Z</time></trkpt><trkpt lat="45.653875" lon="8.1860733"><ele>504.0</ele><time>2026-03-29T14:11:14.009Z</time></trkpt><trkpt lat="45.65395" lon="8.1862817"><ele>504.0</ele><time>2026-03-29T14:11:15.009Z</time></trkpt><trkpt lat="45.654025" lon="8.1864733"><ele>504.0</ele><time>2026-03-29T14:11:16.009Z</time></trkpt><trkpt lat="45.654105" lon="8.18665"><ele>504.0</ele><time>2026-03-29T14:11:17.009Z</time></trkpt><trkpt lat="45.6541633" lon="8.1867967"><ele>504.0</ele><time>2026-03-29T14:11:18.009Z</time></trkpt><trkpt lat="45.654225" lon="8.1869383"><ele>504.0</ele><time>2026-03-29T14:11:19.008Z</time></trkpt><trkpt lat="45.6542917" lon="8.1870467"><ele>504.0</ele><time>2026-03-29T14:11:20.008Z</time></trkpt><trkpt lat="45.6543883" lon="8.1871733"><ele>504.0</ele><time>2026-03-29T14:11:21.009Z</time></trkpt><trkpt lat="45.6544617" lon="8.187265"><ele>504.0</ele><time>2026-03-29T14:11:22.009Z</time></trkpt><trkpt lat="45.6545117" lon="8.1873583"><ele>504.0</ele><time>2026-03-29T14:11:23.009Z</time></trkpt><trkpt lat="45.6545483" lon="8.18745"><ele>502.6666666666667</ele><time>2026-03-29T14:11:24.009Z</time></trkpt><trkpt lat="45.6545783" lon="8.18754"><ele>501.33333333333337</ele><time>2026-03-29T14:11:25.008Z</time></trkpt><trkpt lat="45.6546233" lon="8.1876233"><ele>500.0</ele><time>2026-03-29T14:11:26.008Z</time></trkpt><trkpt lat="45.6546683" lon="8.1877017"><ele>498.6666666666667</ele><time>2026-03-29T14:11:27.009Z</time></trkpt><trkpt lat="45.6547183" lon="8.1877867"><ele>497.33333333333337</ele><time>2026-03-29T14:11:28.009Z</time></trkpt><trkpt lat="45.654775" lon="8.187885"><ele>496.0</ele><time>2026-03-29T14:11:29.008Z</time></trkpt><trkpt lat="45.65483" lon="8.1879883"><ele>496.0</ele><time>2026-03-29T14:11:30.009Z</time></trkpt><trkpt lat="45.6548867" lon="8.1880883"><ele>496.0</ele><time>2026-03-29T14:11:31.009Z</time></trkpt><trkpt lat="45.654945" lon="8.1881983"><ele>496.0</ele><time>2026-03-29T14:11:32.009Z</time></trkpt><trkpt lat="45.6549967" lon="8.1883133"><ele>496.0</ele><time>2026-03-29T14:11:33.009Z</time></trkpt><trkpt lat="45.6550533" lon="8.1884317"><ele>496.0</ele><time>2026-03-29T14:11:34.009Z</time></trkpt><trkpt lat="45.6551117" lon="8.1885567"><ele>495.5</ele><time>2026-03-29T14:11:35.009Z</time></trkpt><trkpt lat="45.6551633" lon="8.1886733"><ele>495.0</ele><time>2026-03-29T14:11:36.008Z</time></trkpt><trkpt lat="45.6552133" lon="8.1887917"><ele>494.5</ele><time>2026-03-29T14:11:37.009Z</time></trkpt><trkpt lat="45.6552517" lon="8.18896"><ele>494.0</ele><time>2026-03-29T14:11:38.008Z</time></trkpt><trkpt lat="45.65527" lon="8.1891767"><ele>494.3333333333333</ele><time>2026-03-29T14:11:39.008Z</time></trkpt><trkpt lat="45.655295" lon="8.1894033"><ele>494.66666666666663</ele><time>2026-03-29T14:11:40.009Z</time></trkpt><trkpt lat="45.6553333" lon="8.189635"><ele>495.0</ele><time>2026-03-29T14:11:41.008Z</time></trkpt><trkpt lat="45.6553733" lon="8.1898633"><ele>496.33333333333337</ele><time>2026-03-29T14:11:42.009Z</time></trkpt><trkpt lat="45.6554067" lon="8.190095"><ele>497.6666666666667</ele><time>2026-03-29T14:11:43.008Z</time></trkpt><trkpt lat="45.6554333" lon="8.19033"><ele>499.0</ele><time>2026-03-29T14:11:44.009Z</time></trkpt><trkpt lat="45.6554633" lon="8.190585"><ele>499.0</ele><time>2026-03-29T14:11:45.009Z</time></trkpt><trkpt lat="45.6555033" lon="8.1908733"><ele>499.0</ele><time>2026-03-29T14:11:46.008Z</time></trkpt><trkpt lat="45.6555383" lon="8.1911617"><ele>499.0</ele><time>2026-03-29T14:11:47.009Z</time></trkpt><trkpt lat="45.6555517" lon="8.1914467"><ele>500.33333333333337</ele><time>2026-03-29T14:11:48.009Z</time></trkpt><trkpt lat="45.655525" lon="8.1917367"><ele>501.66666666666663</ele><time>2026-03-29T14:11:49.008Z</time></trkpt><trkpt lat="45.6554783" lon="8.1920167"><ele>503.0</ele><time>2026-03-29T14:11:50.009Z</time></trkpt><trkpt lat="45.6554083" lon="8.1922867"><ele>503.0</ele><time>2026-03-29T14:11:51.009Z</time></trkpt><trkpt lat="45.6553533" lon="8.1925383"><ele>503.0</ele><time>2026-03-29T14:11:52.009Z</time></trkpt><trkpt lat="45.655285" lon="8.1927667"><ele>503.0</ele><time>2026-03-29T14:11:53.009Z</time></trkpt><trkpt lat="45.6552117" lon="8.1929583"><ele>501.25</ele><time>2026-03-29T14:11:54.009Z</time></trkpt><trkpt lat="45.655105" lon="8.1930933"><ele>499.5</ele><time>2026-03-29T14:11:55.009Z</time></trkpt><trkpt lat="45.6549783" lon="8.1931467"><ele>497.75</ele><time>2026-03-29T14:11:56.009Z</time></trkpt><trkpt lat="45.65485" lon="8.1931883"><ele>496.0</ele><time>2026-03-29T14:11:57.008Z</time></trkpt><trkpt lat="45.6547417" lon="8.193295"><ele>496.0</ele><time>2026-03-29T14:11:58.008Z</time></trkpt><trkpt lat="45.6546367" lon="8.1934517"><ele>496.0</ele><time>2026-03-29T14:11:59.007Z</time></trkpt><trkpt lat="45.6545717" lon="8.1936483"><ele>496.0</ele><time>2026-03-29T14:12:00.008Z</time></trkpt><trkpt lat="45.6545517" lon="8.1938717"><ele>496.0</ele><time>2026-03-29T14:12:01.008Z</time></trkpt><trkpt lat="45.6545517" lon="8.1940867"><ele>496.0</ele><time>2026-03-29T14:12:02.007Z</time></trkpt><trkpt lat="45.654555" lon="8.1942983"><ele>496.0</ele><time>2026-03-29T14:12:03.007Z</time></trkpt><trkpt lat="45.6545567" lon="8.1945117"><ele>496.0</ele><time>2026-03-29T14:12:04.007Z</time></trkpt><trkpt lat="45.654555" lon="8.1947133"><ele>493.6666666666667</ele><time>2026-03-29T14:12:05.008Z</time></trkpt><trkpt lat="45.6545883" lon="8.1949033"><ele>491.33333333333337</ele><time>2026-03-29T14:12:06.007Z</time></trkpt><trkpt lat="45.654685" lon="8.19509"><ele>489.0</ele><time>2026-03-29T14:12:07.008Z</time></trkpt><trkpt lat="45.65481" lon="8.1952367"><ele>489.0</ele><time>2026-03-29T14:12:08.008Z</time></trkpt><trkpt lat="45.6549567" lon="8.1953467"><ele>489.0</ele><time>2026-03-29T14:12:09.008Z</time></trkpt><trkpt lat="45.6550833" lon="8.19548"><ele>489.0</ele><time>2026-03-29T14:12:10.007Z</time></trkpt><trkpt lat="45.65521" lon="8.1956683"><ele>489.33333333333337</ele><time>2026-03-29T14:12:11.008Z</time></trkpt><trkpt lat="45.6553067" lon="8.1958733"><ele>489.6666666666667</ele><time>2026-03-29T14:12:12.007Z</time></trkpt><trkpt lat="45.655395" lon="8.19609"><ele>490.0</ele><time>2026-03-29T14:12:13.007Z</time></trkpt><trkpt lat="45.6554683" lon="8.1963033"><ele>490.0</ele><time>2026-03-29T14:12:14.008Z</time></trkpt><trkpt lat="45.655565" lon="8.1964933"><ele>490.0</ele><time>2026-03-29T14:12:15.007Z</time></trkpt><trkpt lat="45.6556633" lon="8.1966633"><ele>490.0</ele><time>2026-03-29T14:12:16.008Z</time></trkpt><trkpt lat="45.6557683" lon="8.1968183"><ele>492.0</ele><time>2026-03-29T14:12:17.008Z</time></trkpt><trkpt lat="45.655885" lon="8.1969883"><ele>494.0</ele><time>2026-03-29T14:12:18.008Z</time></trkpt><trkpt lat="45.6560183" lon="8.19715"><ele>496.0</ele><time>2026-03-29T14:12:19.008Z</time></trkpt><trkpt lat="45.656155" lon="8.1972917"><ele>491.0</ele><time>2026-03-29T14:12:20.008Z</time></trkpt><trkpt lat="45.65632" lon="8.1974067"><ele>486.0</ele><time>2026-03-29T14:12:21.008Z</time></trkpt><trkpt lat="45.6564917" lon="8.1975167"><ele>481.0</ele><time>2026-03-29T14:12:22.008Z</time></trkpt><trkpt lat="45.6566667" lon="8.1976317"><ele>481.0</ele><time>2026-03-29T14:12:23.008Z</time></trkpt><trkpt lat="45.6568433" lon="8.19771"><ele>481.0</ele><time>2026-03-29T14:12:24.008Z</time></trkpt><trkpt lat="45.6570083" lon="8.1977867"><ele>481.0</ele><time>2026-03-29T14:12:25.007Z</time></trkpt><trkpt lat="45.657155" lon="8.1978983"><ele>480.6666666666667</ele><time>2026-03-29T14:12:26.007Z</time></trkpt><trkpt lat="45.6572933" lon="8.1980283"><ele>480.33333333333337</ele><time>2026-03-29T14:12:27.008Z</time></trkpt><trkpt lat="45.65738" lon="8.1982083"><ele>480.0</ele><time>2026-03-29T14:12:28.008Z</time></trkpt><trkpt lat="45.6574317" lon="8.198415"><ele>480.0</ele><time>2026-03-29T14:12:29.008Z</time></trkpt><trkpt lat="45.6574767" lon="8.1986"><ele>480.0</ele><time>2026-03-29T14:12:30.008Z</time></trkpt><trkpt lat="45.65753" lon="8.1988"><ele>480.0</ele><time>2026-03-29T14:12:31.008Z</time></trkpt><trkpt lat="45.6576333" lon="8.1989467"><ele>480.0</ele><time>2026-03-29T14:12:32.007Z</time></trkpt><trkpt lat="45.6577717" lon="8.1990533"><ele>478.0</ele><time>2026-03-29T14:12:33.008Z</time></trkpt><trkpt lat="45.657935" lon="8.1991267"><ele>476.0</ele><time>2026-03-29T14:12:34.008Z</time></trkpt><trkpt lat="45.6581217" lon="8.1992017"><ele>474.0</ele><time>2026-03-29T14:12:35.008Z</time></trkpt><trkpt lat="45.65832" lon="8.199285"><ele>474.0</ele><time>2026-03-29T14:12:36.007Z</time></trkpt><trkpt lat="45.6585183" lon="8.199365"><ele>474.0</ele><time>2026-03-29T14:12:37.008Z</time></trkpt><trkpt lat="45.6587017" lon="8.199435"><ele>474.0</ele><time>2026-03-29T14:12:38.007Z</time></trkpt><trkpt lat="45.6588517" lon="8.1995267"><ele>474.33333333333337</ele><time>2026-03-29T14:12:39.008Z</time></trkpt><trkpt lat="45.658985" lon="8.1996517"><ele>474.6666666666667</ele><time>2026-03-29T14:12:40.007Z</time></trkpt><trkpt lat="45.65909" lon="8.199835"><ele>475.0</ele><time>2026-03-29T14:12:41.008Z</time></trkpt><trkpt lat="45.6591733" lon="8.2000583"><ele>475.6666666666667</ele><time>2026-03-29T14:12:42.008Z</time></trkpt><trkpt lat="45.6592583" lon="8.2002917"><ele>476.33333333333337</ele><time>2026-03-29T14:12:43.008Z</time></trkpt><trkpt lat="45.6593233" lon="8.2004817"><ele>477.0</ele><time>2026-03-29T14:12:44.008Z</time></trkpt><trkpt lat="45.6594167" lon="8.2006417"><ele>477.33333333333337</ele><time>2026-03-29T14:12:45.008Z</time></trkpt><trkpt lat="45.6595333" lon="8.2007383"><ele>477.6666666666667</ele><time>2026-03-29T14:12:46.008Z</time></trkpt><trkpt lat="45.6596717" lon="8.20074"><ele>478.0</ele><time>2026-03-29T14:12:47.008Z</time></trkpt><trkpt lat="45.659845" lon="8.2006"><ele>476.0</ele><time>2026-03-29T14:12:48.008Z</time></trkpt><trkpt lat="45.6599983" lon="8.2004867"><ele>474.0</ele><time>2026-03-29T14:12:49.008Z</time></trkpt><trkpt lat="45.6601617" lon="8.2003667"><ele>472.0</ele><time>2026-03-29T14:12:50.008Z</time></trkpt><trkpt lat="45.6603383" lon="8.200165"><ele>471.0</ele><time>2026-03-29T14:12:51.007Z</time></trkpt><trkpt lat="45.6605267" lon="8.1999233"><ele>470.0</ele><time>2026-03-29T14:12:52.008Z</time></trkpt><trkpt lat="45.6607117" lon="8.1997083"><ele>470.0</ele><time>2026-03-29T14:12:53.007Z</time></trkpt><trkpt lat="45.66087" lon="8.1994883"><ele>470.0</ele><time>2026-03-29T14:12:54.007Z</time></trkpt><trkpt lat="45.66103" lon="8.19929"><ele>470.0</ele><time>2026-03-29T14:12:55.007Z</time></trkpt><trkpt lat="45.6611567" lon="8.1991283"><ele>468.5</ele><time>2026-03-29T14:12:56.008Z</time></trkpt><trkpt lat="45.66125" lon="8.1990283"><ele>467.0</ele><time>2026-03-29T14:12:57.008Z</time></trkpt><trkpt lat="45.66135" lon="8.19902"><ele>465.5</ele><time>2026-03-29T14:12:58.008Z</time></trkpt><trkpt lat="45.6614867" lon="8.1990767"><ele>464.0</ele><time>2026-03-29T14:12:59.008Z</time></trkpt><trkpt lat="45.6616417" lon="8.199205"><ele>464.0</ele><time>2026-03-29T14:13:00.007Z</time></trkpt><trkpt lat="45.6617717" lon="8.199355"><ele>464.0</ele><time>2026-03-29T14:13:01.008Z</time></trkpt><trkpt lat="45.6619" lon="8.1994367"><ele>464.0</ele><time>2026-03-29T14:13:02.008Z</time></trkpt><trkpt lat="45.662035" lon="8.199425"><ele>464.0</ele><time>2026-03-29T14:13:03.008Z</time></trkpt><trkpt lat="45.6621667" lon="8.1993717"><ele>463.3333333333333</ele><time>2026-03-29T14:13:04.007Z</time></trkpt><trkpt lat="45.6622967" lon="8.1993133"><ele>462.66666666666663</ele><time>2026-03-29T14:13:05.008Z</time></trkpt><trkpt lat="45.6624467" lon="8.19933"><ele>462.0</ele><time>2026-03-29T14:13:06.008Z</time></trkpt><trkpt lat="45.6626083" lon="8.19939"><ele>462.0</ele><time>2026-03-29T14:13:07.007Z</time></trkpt><trkpt lat="45.6627733" lon="8.1994883"><ele>462.0</ele><time>2026-03-29T14:13:08.008Z</time></trkpt><trkpt lat="45.6629483" lon="8.1996233"><ele>462.0</ele><time>2026-03-29T14:13:09.008Z</time></trkpt><trkpt lat="45.6631483" lon="8.1998433"><ele>461.5</ele><time>2026-03-29T14:13:10.008Z</time></trkpt><trkpt lat="45.66332" lon="8.20011"><ele>461.0</ele><time>2026-03-29T14:13:11.008Z</time></trkpt><trkpt lat="45.663495" lon="8.200345"><ele>466.0</ele><time>2026-03-29T14:13:12.008Z</time></trkpt><trkpt lat="45.66363" lon="8.2006067"><ele>471.0</ele><time>2026-03-29T14:13:13.008Z</time></trkpt><trkpt lat="45.66375" lon="8.2008517"><ele>476.0</ele><time>2026-03-29T14:13:14.008Z</time></trkpt><trkpt lat="45.6638317" lon="8.20107"><ele>476.0</ele><time>2026-03-29T14:13:15.008Z</time></trkpt><trkpt lat="45.6639117" lon="8.2012717"><ele>476.0</ele><time>2026-03-29T14:13:16.008Z</time></trkpt><trkpt lat="45.663965" lon="8.2014567"><ele>476.0</ele><time>2026-03-29T14:13:17.007Z</time></trkpt><trkpt lat="45.6639733" lon="8.2016233"><ele>476.0</ele><time>2026-03-29T14:13:18.008Z</time></trkpt><trkpt lat="45.66388" lon="8.20182"><ele>473.66666666666663</ele><time>2026-03-29T14:13:20.008Z</time></trkpt><trkpt lat="45.6637917" lon="8.20191"><ele>471.33333333333337</ele><time>2026-03-29T14:13:21.007Z</time></trkpt><trkpt lat="45.66369" lon="8.2019867"><ele>469.0</ele><time>2026-03-29T14:13:22.008Z</time></trkpt><trkpt lat="45.6633717" lon="8.2020533"><ele>460.5</ele><time>2026-03-29T14:13:23.008Z</time></trkpt><trkpt lat="45.6631183" lon="8.2020933"><ele>452.0</ele><time>2026-03-29T14:13:24.008Z</time></trkpt><trkpt lat="45.662885" lon="8.2021267"><ele>457.0</ele><time>2026-03-29T14:13:25.008Z</time></trkpt><trkpt lat="45.66271" lon="8.202175"><ele>462.0</ele><time>2026-03-29T14:13:26.008Z</time></trkpt><trkpt lat="45.66255" lon="8.2022133"><ele>467.0</ele><time>2026-03-29T14:13:27.008Z</time></trkpt><trkpt lat="45.6624433" lon="8.2023033"><ele>464.0</ele><time>2026-03-29T14:13:28.008Z</time></trkpt><trkpt lat="45.6623767" lon="8.2024467"><ele>461.0</ele><time>2026-03-29T14:13:29.008Z</time></trkpt><trkpt lat="45.6623483" lon="8.2026317"><ele>458.0</ele><time>2026-03-29T14:13:30.007Z</time></trkpt><trkpt lat="45.662335" lon="8.2028283"><ele>455.0</ele><time>2026-03-29T14:13:31.007Z</time></trkpt><trkpt lat="45.662325" lon="8.2030317"><ele>455.3333333333333</ele><time>2026-03-29T14:13:32.008Z</time></trkpt><trkpt lat="45.6623567" lon="8.2032583"><ele>455.66666666666663</ele><time>2026-03-29T14:13:33.008Z</time></trkpt><trkpt lat="45.6624567" lon="8.2035067"><ele>456.0</ele><time>2026-03-29T14:13:34.008Z</time></trkpt><trkpt lat="45.6625983" lon="8.2037867"><ele>454.66666666666663</ele><time>2026-03-29T14:13:35.007Z</time></trkpt><trkpt lat="45.662725" lon="8.20406"><ele>453.3333333333333</ele><time>2026-03-29T14:13:36.008Z</time></trkpt><trkpt lat="45.6628617" lon="8.2042933"><ele>452.0</ele><time>2026-03-29T14:13:37.008Z</time></trkpt><trkpt lat="45.6629783" lon="8.2045367"><ele>452.5</ele><time>2026-03-29T14:13:38.008Z</time></trkpt><trkpt lat="45.66322" lon="8.2047283"><ele>453.0</ele><time>2026-03-29T14:13:39.007Z</time></trkpt><trkpt lat="45.66345" lon="8.20492"><ele>460.0</ele><time>2026-03-29T14:13:40.008Z</time></trkpt><trkpt lat="45.663675" lon="8.2051367"><ele>467.0</ele><time>2026-03-29T14:13:41.008Z</time></trkpt><trkpt lat="45.663885" lon="8.2053567"><ele>467.0</ele><time>2026-03-29T14:13:42.007Z</time></trkpt><trkpt lat="45.6640917" lon="8.2055517"><ele>467.0</ele><time>2026-03-29T14:13:43.008Z</time></trkpt><trkpt lat="45.6642867" lon="8.2057167"><ele>470.0</ele><time>2026-03-29T14:13:44.007Z</time></trkpt><trkpt lat="45.6645" lon="8.205805"><ele>473.0</ele><time>2026-03-29T14:13:45.008Z</time></trkpt><trkpt lat="45.66467" lon="8.2059117"><ele>476.0</ele><time>2026-03-29T14:13:46.008Z</time></trkpt><trkpt lat="45.6648367" lon="8.2060367"><ele>476.0</ele><time>2026-03-29T14:13:47.008Z</time></trkpt><trkpt lat="45.6649367" lon="8.206275"><ele>476.0</ele><time>2026-03-29T14:13:48.007Z</time></trkpt><trkpt lat="45.6649833" lon="8.2065183"><ele>476.0</ele><time>2026-03-29T14:13:49.008Z</time></trkpt><trkpt lat="45.6649667" lon="8.2068217"><ele>469.66666666666663</ele><time>2026-03-29T14:13:50.008Z</time></trkpt><trkpt lat="45.6649467" lon="8.2071267"><ele>463.33333333333337</ele><time>2026-03-29T14:13:51.008Z</time></trkpt><trkpt lat="45.6649833" lon="8.2074"><ele>457.0</ele><time>2026-03-29T14:13:52.008Z</time></trkpt><trkpt lat="45.6650167" lon="8.20764"><ele>452.6666666666667</ele><time>2026-03-29T14:13:53.008Z</time></trkpt><trkpt lat="45.6650917" lon="8.2078517"><ele>448.33333333333337</ele><time>2026-03-29T14:13:54.008Z</time></trkpt><trkpt lat="45.66522" lon="8.2080167"><ele>444.0</ele><time>2026-03-29T14:13:55.007Z</time></trkpt><trkpt lat="45.66541" lon="8.2081417"><ele>446.5</ele><time>2026-03-29T14:13:56.007Z</time></trkpt><trkpt lat="45.6655683" lon="8.2083283"><ele>449.0</ele><time>2026-03-29T14:13:57.008Z</time></trkpt><trkpt lat="45.6657983" lon="8.2085267"><ele>449.0</ele><time>2026-03-29T14:13:58.008Z</time></trkpt><trkpt lat="45.6660067" lon="8.2087567"><ele>449.0</ele><time>2026-03-29T14:13:59.008Z</time></trkpt><trkpt lat="45.6661883" lon="8.20896"><ele>454.0</ele><time>2026-03-29T14:14:00.008Z</time></trkpt><trkpt lat="45.66635" lon="8.2091433"><ele>459.0</ele><time>2026-03-29T14:14:01.008Z</time></trkpt><trkpt lat="45.666485" lon="8.2093367"><ele>464.0</ele><time>2026-03-29T14:14:02.008Z</time></trkpt><trkpt lat="45.66659" lon="8.2095233"><ele>464.0</ele><time>2026-03-29T14:14:03.008Z</time></trkpt><trkpt lat="45.6666233" lon="8.2097617"><ele>464.0</ele><time>2026-03-29T14:14:04.008Z</time></trkpt><trkpt lat="45.666625" lon="8.21"><ele>464.0</ele><time>2026-03-29T14:14:05.008Z</time></trkpt><trkpt lat="45.6665833" lon="8.2102567"><ele>460.66666666666663</ele><time>2026-03-29T14:14:06.008Z</time></trkpt><trkpt lat="45.6664517" lon="8.2105417"><ele>457.33333333333337</ele><time>2026-03-29T14:14:07.008Z</time></trkpt><trkpt lat="45.6664183" lon="8.2107683"><ele>454.0</ele><time>2026-03-29T14:14:08.007Z</time></trkpt><trkpt lat="45.666425" lon="8.2110117"><ele>451.0</ele><time>2026-03-29T14:14:09.008Z</time></trkpt><trkpt lat="45.6664883" lon="8.21127"><ele>448.0</ele><time>2026-03-29T14:14:10.008Z</time></trkpt><trkpt lat="45.6665783" lon="8.2114933"><ele>445.0</ele><time>2026-03-29T14:14:11.008Z</time></trkpt><trkpt lat="45.6666967" lon="8.2116817"><ele>443.0</ele><time>2026-03-29T14:14:12.008Z</time></trkpt><trkpt lat="45.666865" lon="8.2118433"><ele>441.0</ele><time>2026-03-29T14:14:13.007Z</time></trkpt><trkpt lat="45.6670467" lon="8.2119867"><ele>439.0</ele><time>2026-03-29T14:14:14.008Z</time></trkpt><trkpt lat="45.667235" lon="8.21213"><ele>439.0</ele><time>2026-03-29T14:14:15.008Z</time></trkpt><trkpt lat="45.66743" lon="8.2122783"><ele>439.0</ele><time>2026-03-29T14:14:16.008Z</time></trkpt><trkpt lat="45.667635" lon="8.21241"><ele>439.0</ele><time>2026-03-29T14:14:17.007Z</time></trkpt><trkpt lat="45.66782" lon="8.2125333"><ele>433.0</ele><time>2026-03-29T14:14:18.008Z</time></trkpt><trkpt lat="45.6679733" lon="8.2127067"><ele>427.0</ele><time>2026-03-29T14:14:19.008Z</time></trkpt><trkpt lat="45.6681483" lon="8.2128133"><ele>421.0</ele><time>2026-03-29T14:14:20.007Z</time></trkpt><trkpt lat="45.668335" lon="8.212855"><ele>421.0</ele><time>2026-03-29T14:14:21.008Z</time></trkpt><trkpt lat="45.66853" lon="8.212865"><ele>421.0</ele><time>2026-03-29T14:14:22.008Z</time></trkpt><trkpt lat="45.6687367" lon="8.2127967"><ele>421.0</ele><time>2026-03-29T14:14:23.008Z</time></trkpt><trkpt lat="45.6689567" lon="8.2127"><ele>422.5</ele><time>2026-03-29T14:14:24.008Z</time></trkpt><trkpt lat="45.6691867" lon="8.2126267"><ele>424.0</ele><time>2026-03-29T14:14:25.007Z</time></trkpt><trkpt lat="45.6694083" lon="8.2125733"><ele>424.0</ele><time>2026-03-29T14:14:26.008Z</time></trkpt><trkpt lat="45.66962" lon="8.2125417"><ele>424.0</ele><time>2026-03-29T14:14:27.008Z</time></trkpt><trkpt lat="45.6698233" lon="8.21255"><ele>424.0</ele><time>2026-03-29T14:14:28.008Z</time></trkpt><trkpt lat="45.6700467" lon="8.2125867"><ele>424.0</ele><time>2026-03-29T14:14:29.008Z</time></trkpt><trkpt lat="45.6702583" lon="8.212665"><ele>424.0</ele><time>2026-03-29T14:14:30.007Z</time></trkpt><trkpt lat="45.6704367" lon="8.2127617"><ele>424.0</ele><time>2026-03-29T14:14:31.008Z</time></trkpt><trkpt lat="45.6705883" lon="8.2128867"><ele>422.33333333333337</ele><time>2026-03-29T14:14:32.007Z</time></trkpt><trkpt lat="45.6707383" lon="8.213045"><ele>420.66666666666663</ele><time>2026-03-29T14:14:33.008Z</time></trkpt><trkpt lat="45.6708667" lon="8.2132867"><ele>419.0</ele><time>2026-03-29T14:14:34.008Z</time></trkpt><trkpt lat="45.6709783" lon="8.2135267"><ele>419.0</ele><time>2026-03-29T14:14:35.008Z</time></trkpt><trkpt lat="45.6710983" lon="8.21376"><ele>419.0</ele><time>2026-03-29T14:14:36.008Z</time></trkpt><trkpt lat="45.6712233" lon="8.2139767"><ele>419.0</ele><time>2026-03-29T14:14:37.008Z</time></trkpt><trkpt lat="45.67135" lon="8.2141567"><ele>418.5</ele><time>2026-03-29T14:14:38.008Z</time></trkpt><trkpt lat="45.6714667" lon="8.2143217"><ele>418.0</ele><time>2026-03-29T14:14:39.007Z</time></trkpt><trkpt lat="45.67157" lon="8.2144417"><ele>417.5</ele><time>2026-03-29T14:14:40.007Z</time></trkpt><trkpt lat="45.6716733" lon="8.214515"><ele>417.0</ele><time>2026-03-29T14:14:41.008Z</time></trkpt><trkpt lat="45.6717767" lon="8.2145483"><ele>417.0</ele><time>2026-03-29T14:14:42.007Z</time></trkpt><trkpt lat="45.6718967" lon="8.2146183"><ele>417.0</ele><time>2026-03-29T14:14:43.008Z</time></trkpt><trkpt lat="45.6720283" lon="8.21472"><ele>417.0</ele><time>2026-03-29T14:14:44.008Z</time></trkpt><trkpt lat="45.6721717" lon="8.2148683"><ele>416.33333333333337</ele><time>2026-03-29T14:14:45.008Z</time></trkpt><trkpt lat="45.6723133" lon="8.2150633"><ele>415.6666666666667</ele><time>2026-03-29T14:14:46.007Z</time></trkpt><trkpt lat="45.6724333" lon="8.2152717"><ele>415.0</ele><time>2026-03-29T14:14:47.008Z</time></trkpt><trkpt lat="45.6725283" lon="8.2155083"><ele>416.0</ele><time>2026-03-29T14:14:48.008Z</time></trkpt><trkpt lat="45.6725833" lon="8.2157567"><ele>417.0</ele><time>2026-03-29T14:14:49.008Z</time></trkpt><trkpt lat="45.6726317" lon="8.2159967"><ele>418.0</ele><time>2026-03-29T14:14:50.008Z</time></trkpt><trkpt lat="45.67269" lon="8.2162183"><ele>418.0</ele><time>2026-03-29T14:14:51.008Z</time></trkpt><trkpt lat="45.6727083" lon="8.2164433"><ele>418.0</ele><time>2026-03-29T14:14:52.008Z</time></trkpt><trkpt lat="45.6726967" lon="8.2166783"><ele>418.0</ele><time>2026-03-29T14:14:53.007Z</time></trkpt><trkpt lat="45.6726533" lon="8.21693"><ele>418.6666666666667</ele><time>2026-03-29T14:14:54.008Z</time></trkpt><trkpt lat="45.672595" lon="8.21718"><ele>419.33333333333337</ele><time>2026-03-29T14:14:55.008Z</time></trkpt><trkpt lat="45.6725533" lon="8.2174167"><ele>420.0</ele><time>2026-03-29T14:14:56.007Z</time></trkpt><trkpt lat="45.6725133" lon="8.2176483"><ele>420.0</ele><time>2026-03-29T14:14:57.008Z</time></trkpt><trkpt lat="45.6724767" lon="8.2178617"><ele>420.0</ele><time>2026-03-29T14:14:58.008Z</time></trkpt><trkpt lat="45.6724417" lon="8.2180583"><ele>420.0</ele><time>2026-03-29T14:14:59.008Z</time></trkpt><trkpt lat="45.67241" lon="8.218255"><ele>420.0</ele><time>2026-03-29T14:15:00.007Z</time></trkpt><trkpt lat="45.6723767" lon="8.218445"><ele>419.5</ele><time>2026-03-29T14:15:01.008Z</time></trkpt><trkpt lat="45.672345" lon="8.218635"><ele>419.0</ele><time>2026-03-29T14:15:02.008Z</time></trkpt><trkpt lat="45.6723217" lon="8.2188367"><ele>418.5</ele><time>2026-03-29T14:15:03.008Z</time></trkpt><trkpt lat="45.67231" lon="8.21904"><ele>418.0</ele><time>2026-03-29T14:15:04.008Z</time></trkpt><trkpt lat="45.672305" lon="8.2192583"><ele>416.5</ele><time>2026-03-29T14:15:05.008Z</time></trkpt><trkpt lat="45.6722983" lon="8.21947"><ele>415.0</ele><time>2026-03-29T14:15:06.007Z</time></trkpt><trkpt lat="45.6723083" lon="8.21967"><ele>413.5</ele><time>2026-03-29T14:15:07.007Z</time></trkpt><trkpt lat="45.6723067" lon="8.21987"><ele>412.0</ele><time>2026-03-29T14:15:08.008Z</time></trkpt><trkpt lat="45.6723117" lon="8.2200633"><ele>412.0</ele><time>2026-03-29T14:15:09.008Z</time></trkpt><trkpt lat="45.67231" lon="8.2202483"><ele>412.0</ele><time>2026-03-29T14:15:10.008Z</time></trkpt><trkpt lat="45.6723033" lon="8.220435"><ele>412.0</ele><time>2026-03-29T14:15:11.008Z</time></trkpt><trkpt lat="45.6723133" lon="8.2206333"><ele>412.0</ele><time>2026-03-29T14:15:12.007Z</time></trkpt><trkpt lat="45.6723283" lon="8.220825"><ele>413.0</ele><time>2026-03-29T14:15:13.008Z</time></trkpt><trkpt lat="45.6723617" lon="8.2210217"><ele>414.0</ele><time>2026-03-29T14:15:14.008Z</time></trkpt><trkpt lat="45.6724183" lon="8.2212"><ele>415.0</ele><time>2026-03-29T14:15:15.008Z</time></trkpt><trkpt lat="45.6724833" lon="8.2213983"><ele>416.0</ele><time>2026-03-29T14:15:16.008Z</time></trkpt><trkpt lat="45.672565" lon="8.2215917"><ele>414.0</ele><time>2026-03-29T14:15:17.008Z</time></trkpt><trkpt lat="45.6726933" lon="8.22179"><ele>412.0</ele><time>2026-03-29T14:15:18.008Z</time></trkpt><trkpt lat="45.6728233" lon="8.2219883"><ele>410.0</ele><time>2026-03-29T14:15:19.008Z</time></trkpt><trkpt lat="45.672965" lon="8.2222067"><ele>412.3333333333333</ele><time>2026-03-29T14:15:20.008Z</time></trkpt><trkpt lat="45.6730967" lon="8.22244"><ele>414.66666666666663</ele><time>2026-03-29T14:15:21.008Z</time></trkpt><trkpt lat="45.6732233" lon="8.2226733"><ele>417.0</ele><time>2026-03-29T14:15:22.007Z</time></trkpt><trkpt lat="45.6733517" lon="8.222885"><ele>417.0</ele><time>2026-03-29T14:15:23.008Z</time></trkpt><trkpt lat="45.6734783" lon="8.223125"><ele>417.0</ele><time>2026-03-29T14:15:24.008Z</time></trkpt><trkpt lat="45.67359" lon="8.2233567"><ele>417.0</ele><time>2026-03-29T14:15:25.007Z</time></trkpt><trkpt lat="45.6737083" lon="8.2235783"><ele>413.33333333333337</ele><time>2026-03-29T14:15:26.008Z</time></trkpt><trkpt lat="45.6738333" lon="8.22379"><ele>409.6666666666667</ele><time>2026-03-29T14:15:27.007Z</time></trkpt><trkpt lat="45.6739317" lon="8.2240083"><ele>406.0</ele><time>2026-03-29T14:15:28.008Z</time></trkpt><trkpt lat="45.674015" lon="8.2242433"><ele>406.0</ele><time>2026-03-29T14:15:29.008Z</time></trkpt><trkpt lat="45.6740717" lon="8.224495"><ele>406.0</ele><time>2026-03-29T14:15:30.007Z</time></trkpt><trkpt lat="45.6741117" lon="8.2247583"><ele>406.0</ele><time>2026-03-29T14:15:31.008Z</time></trkpt><trkpt lat="45.6741667" lon="8.22502"><ele>410.6666666666667</ele><time>2026-03-29T14:15:32.008Z</time></trkpt><trkpt lat="45.6742133" lon="8.2252883"><ele>415.33333333333337</ele><time>2026-03-29T14:15:33.007Z</time></trkpt><trkpt lat="45.6742467" lon="8.2255617"><ele>420.0</ele><time>2026-03-29T14:15:34.008Z</time></trkpt><trkpt lat="45.6742433" lon="8.2258417"><ele>418.66666666666663</ele><time>2026-03-29T14:15:35.008Z</time></trkpt><trkpt lat="45.6742417" lon="8.2261133"><ele>417.3333333333333</ele><time>2026-03-29T14:15:36.007Z</time></trkpt><trkpt lat="45.6742433" lon="8.22639"><ele>416.0</ele><time>2026-03-29T14:15:37.008Z</time></trkpt><trkpt lat="45.6742083" lon="8.22668"><ele>416.0</ele><time>2026-03-29T14:15:38.007Z</time></trkpt><trkpt lat="45.6741617" lon="8.22698"><ele>416.0</ele><time>2026-03-29T14:15:39.007Z</time></trkpt><trkpt lat="45.67412" lon="8.2272617"><ele>416.0</ele><time>2026-03-29T14:15:40.008Z</time></trkpt><trkpt lat="45.6740767" lon="8.227535"><ele>413.66666666666663</ele><time>2026-03-29T14:15:41.007Z</time></trkpt><trkpt lat="45.6740267" lon="8.227815"><ele>411.33333333333337</ele><time>2026-03-29T14:15:42.007Z</time></trkpt><trkpt lat="45.6739967" lon="8.2280667"><ele>409.0</ele><time>2026-03-29T14:15:43.008Z</time></trkpt><trkpt lat="45.6739667" lon="8.2283117"><ele>407.0</ele><time>2026-03-29T14:15:44.008Z</time></trkpt><trkpt lat="45.6739217" lon="8.2285583"><ele>405.0</ele><time>2026-03-29T14:15:45.008Z</time></trkpt><trkpt lat="45.673885" lon="8.2288017"><ele>403.0</ele><time>2026-03-29T14:15:46.008Z</time></trkpt><trkpt lat="45.6738533" lon="8.2290783"><ele>402.6666666666667</ele><time>2026-03-29T14:15:47.008Z</time></trkpt><trkpt lat="45.6738217" lon="8.2293667"><ele>402.33333333333337</ele><time>2026-03-29T14:15:48.008Z</time></trkpt><trkpt lat="45.67381" lon="8.2296717"><ele>402.0</ele><time>2026-03-29T14:15:49.008Z</time></trkpt><trkpt lat="45.6738317" lon="8.22997"><ele>402.0</ele><time>2026-03-29T14:15:50.007Z</time></trkpt><trkpt lat="45.67387" lon="8.2302817"><ele>402.0</ele><time>2026-03-29T14:15:51.007Z</time></trkpt><trkpt lat="45.67392" lon="8.2306"><ele>402.0</ele><time>2026-03-29T14:15:52.007Z</time></trkpt><trkpt lat="45.6739783" lon="8.2308733"><ele>402.0</ele><time>2026-03-29T14:15:53.007Z</time></trkpt><trkpt lat="45.6740567" lon="8.2311483"><ele>402.0</ele><time>2026-03-29T14:15:54.007Z</time></trkpt><trkpt lat="45.67414" lon="8.23142"><ele>402.0</ele><time>2026-03-29T14:15:55.007Z</time></trkpt><trkpt lat="45.6742367" lon="8.23169"><ele>402.0</ele><time>2026-03-29T14:15:56.008Z</time></trkpt><trkpt lat="45.674345" lon="8.23194"><ele>402.0</ele><time>2026-03-29T14:15:57.008Z</time></trkpt><trkpt lat="45.674475" lon="8.232185"><ele>402.0</ele><time>2026-03-29T14:15:58.007Z</time></trkpt><trkpt lat="45.674625" lon="8.2324233"><ele>400.0</ele><time>2026-03-29T14:15:59.008Z</time></trkpt><trkpt lat="45.674785" lon="8.2326567"><ele>398.0</ele><time>2026-03-29T14:16:00.008Z</time></trkpt><trkpt lat="45.674945" lon="8.2328717"><ele>396.0</ele><time>2026-03-29T14:16:01.008Z</time></trkpt><trkpt lat="45.6751067" lon="8.2330733"><ele>395.0</ele><time>2026-03-29T14:16:02.008Z</time></trkpt><trkpt lat="45.6752667" lon="8.23328"><ele>394.0</ele><time>2026-03-29T14:16:03.008Z</time></trkpt><trkpt lat="45.6754217" lon="8.2334817"><ele>393.0</ele><time>2026-03-29T14:16:04.008Z</time></trkpt><trkpt lat="45.6755667" lon="8.2336933"><ele>393.0</ele><time>2026-03-29T14:16:05.008Z</time></trkpt><trkpt lat="45.6757067" lon="8.2338933"><ele>393.0</ele><time>2026-03-29T14:16:06.008Z</time></trkpt><trkpt lat="45.6758333" lon="8.2340817"><ele>393.0</ele><time>2026-03-29T14:16:07.008Z</time></trkpt><trkpt lat="45.6759567" lon="8.234295"><ele>392.0</ele><time>2026-03-29T14:16:08.007Z</time></trkpt><trkpt lat="45.67607" lon="8.234515"><ele>391.0</ele><time>2026-03-29T14:16:09.008Z</time></trkpt><trkpt lat="45.6761767" lon="8.2347583"><ele>390.0</ele><time>2026-03-29T14:16:10.008Z</time></trkpt><trkpt lat="45.676265" lon="8.2350233"><ele>390.0</ele><time>2026-03-29T14:16:11.008Z</time></trkpt><trkpt lat="45.67633" lon="8.2352817"><ele>390.0</ele><time>2026-03-29T14:16:12.008Z</time></trkpt><trkpt lat="45.6763783" lon="8.235545"><ele>390.0</ele><time>2026-03-29T14:16:13.008Z</time></trkpt><trkpt lat="45.6764033" lon="8.2358167"><ele>391.0</ele><time>2026-03-29T14:16:14.007Z</time></trkpt><trkpt lat="45.6764" lon="8.2361"><ele>392.0</ele><time>2026-03-29T14:16:15.008Z</time></trkpt><trkpt lat="45.676395" lon="8.2363967"><ele>393.0</ele><time>2026-03-29T14:16:16.008Z</time></trkpt><trkpt lat="45.6763667" lon="8.2367233"><ele>393.0</ele><time>2026-03-29T14:16:17.007Z</time></trkpt><trkpt lat="45.676325" lon="8.237105"><ele>393.0</ele><time>2026-03-29T14:16:18.008Z</time></trkpt><trkpt lat="45.676275" lon="8.2374983"><ele>393.0</ele><time>2026-03-29T14:16:19.008Z</time></trkpt><trkpt lat="45.6762383" lon="8.2378617"><ele>393.0</ele><time>2026-03-29T14:16:20.008Z</time></trkpt><trkpt lat="45.6762183" lon="8.2381917"><ele>393.0</ele><time>2026-03-29T14:16:21.008Z</time></trkpt><trkpt lat="45.67621" lon="8.2384917"><ele>393.0</ele><time>2026-03-29T14:16:22.007Z</time></trkpt><trkpt lat="45.6761967" lon="8.2387533"><ele>393.0</ele><time>2026-03-29T14:16:23.007Z</time></trkpt><trkpt lat="45.676195" lon="8.2390317"><ele>393.0</ele><time>2026-03-29T14:16:24.008Z</time></trkpt><trkpt lat="45.676215" lon="8.239315"><ele>393.0</ele><time>2026-03-29T14:16:25.008Z</time></trkpt><trkpt lat="45.67625" lon="8.2395967"><ele>393.0</ele><time>2026-03-29T14:16:26.008Z</time></trkpt><trkpt lat="45.6763033" lon="8.2398433"><ele>393.0</ele><time>2026-03-29T14:16:27.007Z</time></trkpt><trkpt lat="45.6763633" lon="8.2401"><ele>393.0</ele><time>2026-03-29T14:16:28.008Z</time></trkpt><trkpt lat="45.6764283" lon="8.240365"><ele>393.0</ele><time>2026-03-29T14:16:29.008Z</time></trkpt><trkpt lat="45.6765083" lon="8.2406117"><ele>393.66666666666663</ele><time>2026-03-29T14:16:30.008Z</time></trkpt><trkpt lat="45.6766017" lon="8.2408617"><ele>394.3333333333333</ele><time>2026-03-29T14:16:31.007Z</time></trkpt><trkpt lat="45.6766967" lon="8.2410783"><ele>395.0</ele><time>2026-03-29T14:16:32.008Z</time></trkpt><trkpt lat="45.6768133" lon="8.2412767"><ele>392.66666666666663</ele><time>2026-03-29T14:16:33.008Z</time></trkpt><trkpt lat="45.6769483" lon="8.241475"><ele>390.33333333333337</ele><time>2026-03-29T14:16:34.007Z</time></trkpt><trkpt lat="45.6771083" lon="8.2416683"><ele>388.0</ele><time>2026-03-29T14:16:35.007Z</time></trkpt><trkpt lat="45.6772767" lon="8.24191"><ele>388.0</ele><time>2026-03-29T14:16:36.007Z</time></trkpt><trkpt lat="45.677445" lon="8.2421733"><ele>388.0</ele><time>2026-03-29T14:16:37.007Z</time></trkpt><trkpt lat="45.6776217" lon="8.24246"><ele>386.0</ele><time>2026-03-29T14:16:38.008Z</time></trkpt><trkpt lat="45.6778267" lon="8.2427317"><ele>384.0</ele><time>2026-03-29T14:16:39.007Z</time></trkpt><trkpt lat="45.678045" lon="8.2430067"><ele>384.5</ele><time>2026-03-29T14:16:40.007Z</time></trkpt><trkpt lat="45.6782433" lon="8.2432717"><ele>385.0</ele><time>2026-03-29T14:16:41.007Z</time></trkpt><trkpt lat="45.6784467" lon="8.2435333"><ele>385.5</ele><time>2026-03-29T14:16:42.008Z</time></trkpt><trkpt lat="45.6786467" lon="8.24379"><ele>386.0</ele><time>2026-03-29T14:16:43.008Z</time></trkpt><trkpt lat="45.6788517" lon="8.2440317"><ele>386.0</ele><time>2026-03-29T14:16:44.008Z</time></trkpt><trkpt lat="45.6790567" lon="8.2442883"><ele>386.0</ele><time>2026-03-29T14:16:45.008Z</time></trkpt><trkpt lat="45.67926" lon="8.2445583"><ele>383.5</ele><time>2026-03-29T14:16:46.008Z</time></trkpt><trkpt lat="45.67945" lon="8.24484"><ele>381.0</ele><time>2026-03-29T14:16:47.008Z</time></trkpt><trkpt lat="45.6796383" lon="8.24513"><ele>381.0</ele><time>2026-03-29T14:16:48.008Z</time></trkpt><trkpt lat="45.6798233" lon="8.2454317"><ele>381.0</ele><time>2026-03-29T14:16:49.008Z</time></trkpt><trkpt lat="45.6800067" lon="8.245745"><ele>381.5</ele><time>2026-03-29T14:16:50.007Z</time></trkpt><trkpt lat="45.6801767" lon="8.2460517"><ele>382.0</ele><time>2026-03-29T14:16:51.008Z</time></trkpt><trkpt lat="45.680325" lon="8.2463517"><ele>379.0</ele><time>2026-03-29T14:16:52.008Z</time></trkpt><trkpt lat="45.68046" lon="8.246645"><ele>376.0</ele><time>2026-03-29T14:16:53.008Z</time></trkpt><trkpt lat="45.68056" lon="8.2469233"><ele>376.0</ele><time>2026-03-29T14:16:54.008Z</time></trkpt><trkpt lat="45.6806517" lon="8.2471833"><ele>376.0</ele><time>2026-03-29T14:16:55.008Z</time></trkpt><trkpt lat="45.680735" lon="8.2474267"><ele>376.0</ele><time>2026-03-29T14:16:56.007Z</time></trkpt><trkpt lat="45.6808233" lon="8.2476517"><ele>376.66666666666663</ele><time>2026-03-29T14:16:57.007Z</time></trkpt><trkpt lat="45.6809017" lon="8.2478683"><ele>377.3333333333333</ele><time>2026-03-29T14:16:58.008Z</time></trkpt><trkpt lat="45.6809917" lon="8.2480417"><ele>378.0</ele><time>2026-03-29T14:16:59.008Z</time></trkpt><trkpt lat="45.6810633" lon="8.2482133"><ele>377.79999999999995</ele><time>2026-03-29T14:17:00.007Z</time></trkpt><trkpt lat="45.68112" lon="8.2483817"><ele>377.6</ele><time>2026-03-29T14:17:01.007Z</time></trkpt><trkpt lat="45.6811717" lon="8.24852"><ele>377.4</ele><time>2026-03-29T14:17:02.007Z</time></trkpt><trkpt lat="45.6812017" lon="8.248665"><ele>377.20000000000005</ele><time>2026-03-29T14:17:03.008Z</time></trkpt><trkpt lat="45.6811983" lon="8.2488033"><ele>377.0</ele><time>2026-03-29T14:17:04.008Z</time></trkpt><trkpt lat="45.6811867" lon="8.248915"><ele>377.20000000000005</ele><time>2026-03-29T14:17:05.008Z</time></trkpt><trkpt lat="45.68118" lon="8.2490167"><ele>377.4</ele><time>2026-03-29T14:17:06.008Z</time></trkpt><trkpt lat="45.68125" lon="8.24915"><ele>377.6</ele><time>2026-03-29T14:17:08.008Z</time></trkpt><trkpt lat="45.6813233" lon="8.249175"><ele>377.79999999999995</ele><time>2026-03-29T14:17:09.008Z</time></trkpt><trkpt lat="45.681415" lon="8.2492183"><ele>378.0</ele><time>2026-03-29T14:17:10.007Z</time></trkpt><trkpt lat="45.6815033" lon="8.24932"><ele>378.0</ele><time>2026-03-29T14:17:11.008Z</time></trkpt><trkpt lat="45.6815883" lon="8.2494817"><ele>378.0</ele><time>2026-03-29T14:17:12.007Z</time></trkpt><trkpt lat="45.6816733" lon="8.2497133"><ele>378.0</ele><time>2026-03-29T14:17:13.008Z</time></trkpt><trkpt lat="45.6817567" lon="8.2499717"><ele>378.0</ele><time>2026-03-29T14:17:14.008Z</time></trkpt><trkpt lat="45.6818467" lon="8.2502417"><ele>378.0</ele><time>2026-03-29T14:17:15.008Z</time></trkpt><trkpt lat="45.6819433" lon="8.2505133"><ele>378.0</ele><time>2026-03-29T14:17:16.007Z</time></trkpt><trkpt lat="45.6820383" lon="8.2507717"><ele>377.3333333333333</ele><time>2026-03-29T14:17:17.008Z</time></trkpt><trkpt lat="45.6821217" lon="8.2509983"><ele>376.66666666666663</ele><time>2026-03-29T14:17:18.008Z</time></trkpt><trkpt lat="45.682205" lon="8.2511933"><ele>376.0</ele><time>2026-03-29T14:17:19.008Z</time></trkpt><trkpt lat="45.6822867" lon="8.25136"><ele>376.75</ele><time>2026-03-29T14:17:20.008Z</time></trkpt><trkpt lat="45.6823733" lon="8.25154"><ele>377.5</ele><time>2026-03-29T14:17:21.008Z</time></trkpt><trkpt lat="45.6824633" lon="8.2516967"><ele>378.25</ele><time>2026-03-29T14:17:22.008Z</time></trkpt><trkpt lat="45.68256" lon="8.2518467"><ele>379.0</ele><time>2026-03-29T14:17:23.007Z</time></trkpt><trkpt lat="45.6826667" lon="8.25198"><ele>378.3333333333333</ele><time>2026-03-29T14:17:24.008Z</time></trkpt><trkpt lat="45.6827817" lon="8.2521133"><ele>377.6666666666667</ele><time>2026-03-29T14:17:25.008Z</time></trkpt><trkpt lat="45.6829033" lon="8.2522367"><ele>377.0</ele><time>2026-03-29T14:17:26.008Z</time></trkpt><trkpt lat="45.6830283" lon="8.2523767"><ele>383.75</ele><time>2026-03-29T14:17:27.007Z</time></trkpt><trkpt lat="45.683155" lon="8.252465"><ele>390.5</ele><time>2026-03-29T14:17:28.008Z</time></trkpt><trkpt lat="45.6832933" lon="8.252565"><ele>397.25</ele><time>2026-03-29T14:17:29.008Z</time></trkpt><trkpt lat="45.68343" lon="8.25266"><ele>404.0</ele><time>2026-03-29T14:17:30.007Z</time></trkpt><trkpt lat="45.6835683" lon="8.252755"><ele>394.3333333333333</ele><time>2026-03-29T14:17:31.008Z</time></trkpt><trkpt lat="45.6837083" lon="8.25285"><ele>384.66666666666663</ele><time>2026-03-29T14:17:32.008Z</time></trkpt><trkpt lat="45.6838467" lon="8.252945"><ele>375.0</ele><time>2026-03-29T14:17:33.008Z</time></trkpt><trkpt lat="45.6839833" lon="8.25304"><ele>373.6666666666667</ele><time>2026-03-29T14:17:34.008Z</time></trkpt><trkpt lat="45.6841283" lon="8.2531317"><ele>372.33333333333337</ele><time>2026-03-29T14:17:35.008Z</time></trkpt><trkpt lat="45.6843167" lon="8.2531817"><ele>371.0</ele><time>2026-03-29T14:17:36.008Z</time></trkpt><trkpt lat="45.6845283" lon="8.2532917"><ele>371.0</ele><time>2026-03-29T14:17:37.007Z</time></trkpt><trkpt lat="45.6846717" lon="8.253415"><ele>371.0</ele><time>2026-03-29T14:17:38.007Z</time></trkpt><trkpt lat="45.684805" lon="8.2535267"><ele>371.0</ele><time>2026-03-29T14:17:39.008Z</time></trkpt><trkpt lat="45.6848883" lon="8.2536317"><ele>371.0</ele><time>2026-03-29T14:17:40.007Z</time></trkpt><trkpt lat="45.6849817" lon="8.2537817"><ele>368.6666666666667</ele><time>2026-03-29T14:17:41.007Z</time></trkpt><trkpt lat="45.6850767" lon="8.2539617"><ele>366.3333333333333</ele><time>2026-03-29T14:17:42.008Z</time></trkpt><trkpt lat="45.6851717" lon="8.254175"><ele>364.0</ele><time>2026-03-29T14:17:43.008Z</time></trkpt><trkpt lat="45.685265" lon="8.2543883"><ele>364.0</ele><time>2026-03-29T14:17:44.007Z</time></trkpt><trkpt lat="45.6853283" lon="8.2546367"><ele>364.0</ele><time>2026-03-29T14:17:45.007Z</time></trkpt><trkpt lat="45.6854133" lon="8.2548633"><ele>364.0</ele><time>2026-03-29T14:17:46.008Z</time></trkpt><trkpt lat="45.6855017" lon="8.2551017"><ele>365.66666666666663</ele><time>2026-03-29T14:17:47.007Z</time></trkpt><trkpt lat="45.685615" lon="8.2553367"><ele>367.3333333333333</ele><time>2026-03-29T14:17:48.007Z</time></trkpt><trkpt lat="45.6857167" lon="8.2555317"><ele>369.0</ele><time>2026-03-29T14:17:49.008Z</time></trkpt><trkpt lat="45.6858233" lon="8.25572"><ele>368.6666666666667</ele><time>2026-03-29T14:17:50.008Z</time></trkpt><trkpt lat="45.6859333" lon="8.2558917"><ele>368.33333333333337</ele><time>2026-03-29T14:17:51.008Z</time></trkpt><trkpt lat="45.6860567" lon="8.2560583"><ele>368.0</ele><time>2026-03-29T14:17:52.008Z</time></trkpt><trkpt lat="45.6861783" lon="8.256215"><ele>368.0</ele><time>2026-03-29T14:17:53.008Z</time></trkpt><trkpt lat="45.6863017" lon="8.25638"><ele>368.0</ele><time>2026-03-29T14:17:54.008Z</time></trkpt><trkpt lat="45.68643" lon="8.2565667"><ele>368.0</ele><time>2026-03-29T14:17:55.008Z</time></trkpt><trkpt lat="45.6865517" lon="8.2567883"><ele>370.6666666666667</ele><time>2026-03-29T14:17:56.007Z</time></trkpt><trkpt lat="45.6866567" lon="8.257055"><ele>373.3333333333333</ele><time>2026-03-29T14:17:57.008Z</time></trkpt><trkpt lat="45.686785" lon="8.2573317"><ele>376.0</ele><time>2026-03-29T14:17:58.008Z</time></trkpt><trkpt lat="45.6869217" lon="8.2576033"><ele>375.3333333333333</ele><time>2026-03-29T14:17:59.007Z</time></trkpt><trkpt lat="45.6870433" lon="8.2578633"><ele>374.6666666666667</ele><time>2026-03-29T14:18:00.008Z</time></trkpt><trkpt lat="45.6871533" lon="8.2580917"><ele>374.0</ele><time>2026-03-29T14:18:01.007Z</time></trkpt><trkpt lat="45.6872517" lon="8.258295"><ele>374.0</ele><time>2026-03-29T14:18:02.008Z</time></trkpt><trkpt lat="45.6873633" lon="8.2584983"><ele>374.0</ele><time>2026-03-29T14:18:03.008Z</time></trkpt><trkpt lat="45.6874767" lon="8.2587017"><ele>374.0</ele><time>2026-03-29T14:18:04.007Z</time></trkpt><trkpt lat="45.6875817" lon="8.2589067"><ele>369.6666666666667</ele><time>2026-03-29T14:18:05.008Z</time></trkpt><trkpt lat="45.6876733" lon="8.259135"><ele>365.3333333333333</ele><time>2026-03-29T14:18:06.007Z</time></trkpt><trkpt lat="45.6877683" lon="8.259375"><ele>361.0</ele><time>2026-03-29T14:18:07.008Z</time></trkpt><trkpt lat="45.6878517" lon="8.25963"><ele>360.66666666666663</ele><time>2026-03-29T14:18:08.008Z</time></trkpt><trkpt lat="45.6879133" lon="8.2598933"><ele>360.3333333333333</ele><time>2026-03-29T14:18:09.008Z</time></trkpt><trkpt lat="45.6879767" lon="8.260185"><ele>360.0</ele><time>2026-03-29T14:18:10.008Z</time></trkpt><trkpt lat="45.6880183" lon="8.26051"><ele>362.0</ele><time>2026-03-29T14:18:11.008Z</time></trkpt><trkpt lat="45.6880567" lon="8.2608617"><ele>364.0</ele><time>2026-03-29T14:18:12.007Z</time></trkpt><trkpt lat="45.6881067" lon="8.2612"><ele>368.0</ele><time>2026-03-29T14:18:13.007Z</time></trkpt><trkpt lat="45.6881717" lon="8.2615417"><ele>372.0</ele><time>2026-03-29T14:18:14.007Z</time></trkpt><trkpt lat="45.6882317" lon="8.2618783"><ele>372.0</ele><time>2026-03-29T14:18:15.006Z</time></trkpt><trkpt lat="45.6882883" lon="8.2622233"><ele>372.0</ele><time>2026-03-29T14:18:16.007Z</time></trkpt><trkpt lat="45.68833" lon="8.26257"><ele>372.5</ele><time>2026-03-29T14:18:17.007Z</time></trkpt><trkpt lat="45.6883667" lon="8.2629183"><ele>373.0</ele><time>2026-03-29T14:18:18.006Z</time></trkpt><trkpt lat="45.6883883" lon="8.263285"><ele>373.5</ele><time>2026-03-29T14:18:19.007Z</time></trkpt><trkpt lat="45.68841" lon="8.2636617"><ele>374.0</ele><time>2026-03-29T14:18:20.007Z</time></trkpt><trkpt lat="45.6884533" lon="8.26404"><ele>374.5</ele><time>2026-03-29T14:18:21.007Z</time></trkpt><trkpt lat="45.68853" lon="8.264395"><ele>375.0</ele><time>2026-03-29T14:18:22.007Z</time></trkpt><trkpt lat="45.6886283" lon="8.2647283"><ele>367.5</ele><time>2026-03-29T14:18:23.007Z</time></trkpt><trkpt lat="45.68874" lon="8.2650583"><ele>360.0</ele><time>2026-03-29T14:18:24.007Z</time></trkpt><trkpt lat="45.68887" lon="8.2653717"><ele>363.0</ele><time>2026-03-29T14:18:25.007Z</time></trkpt><trkpt lat="45.6890217" lon="8.2656383"><ele>366.0</ele><time>2026-03-29T14:18:26.007Z</time></trkpt><trkpt lat="45.6891983" lon="8.26589"><ele>366.0</ele><time>2026-03-29T14:18:27.007Z</time></trkpt><trkpt lat="45.689395" lon="8.2661233"><ele>366.0</ele><time>2026-03-29T14:18:28.007Z</time></trkpt><trkpt lat="45.689605" lon="8.2663317"><ele>366.5</ele><time>2026-03-29T14:18:29.006Z</time></trkpt><trkpt lat="45.6898167" lon="8.2665317"><ele>367.0</ele><time>2026-03-29T14:18:30.007Z</time></trkpt><trkpt lat="45.6900233" lon="8.26675"><ele>367.0</ele><time>2026-03-29T14:18:31.006Z</time></trkpt><trkpt lat="45.6902283" lon="8.266975"><ele>367.0</ele><time>2026-03-29T14:18:32.006Z</time></trkpt><trkpt lat="45.690435" lon="8.2672"><ele>369.5</ele><time>2026-03-29T14:18:33.007Z</time></trkpt><trkpt lat="45.69065" lon="8.2674133"><ele>372.0</ele><time>2026-03-29T14:18:34.007Z</time></trkpt><trkpt lat="45.69089" lon="8.2675717"><ele>369.0</ele><time>2026-03-29T14:18:35.006Z</time></trkpt><trkpt lat="45.69113" lon="8.2677"><ele>366.0</ele><time>2026-03-29T14:18:36.007Z</time></trkpt><trkpt lat="45.6913783" lon="8.267805"><ele>366.0</ele><time>2026-03-29T14:18:37.007Z</time></trkpt><trkpt lat="45.6916267" lon="8.2678517"><ele>366.0</ele><time>2026-03-29T14:18:38.006Z</time></trkpt><trkpt lat="45.6918817" lon="8.2678317"><ele>364.5</ele><time>2026-03-29T14:18:39.006Z</time></trkpt><trkpt lat="45.69215" lon="8.267795"><ele>363.0</ele><time>2026-03-29T14:18:40.006Z</time></trkpt><trkpt lat="45.6924167" lon="8.2677017"><ele>363.0</ele><time>2026-03-29T14:18:41.006Z</time></trkpt><trkpt lat="45.6926767" lon="8.267625"><ele>363.0</ele><time>2026-03-29T14:18:42.007Z</time></trkpt><trkpt lat="45.6929317" lon="8.2676"><ele>361.6666666666667</ele><time>2026-03-29T14:18:43.007Z</time></trkpt><trkpt lat="45.6931533" lon="8.2676333"><ele>360.33333333333337</ele><time>2026-03-29T14:18:44.007Z</time></trkpt><trkpt lat="45.6933717" lon="8.2677117"><ele>359.0</ele><time>2026-03-29T14:18:45.007Z</time></trkpt><trkpt lat="45.693585" lon="8.2678383"><ele>358.0</ele><time>2026-03-29T14:18:46.006Z</time></trkpt><trkpt lat="45.69375" lon="8.268035"><ele>357.0</ele><time>2026-03-29T14:18:47.007Z</time></trkpt><trkpt lat="45.6939083" lon="8.2682683"><ele>356.0</ele><time>2026-03-29T14:18:48.007Z</time></trkpt><trkpt lat="45.6940733" lon="8.268535"><ele>356.0</ele><time>2026-03-29T14:18:49.006Z</time></trkpt><trkpt lat="45.6942433" lon="8.268795"><ele>356.0</ele><time>2026-03-29T14:18:50.007Z</time></trkpt><trkpt lat="45.6944033" lon="8.26907"><ele>356.0</ele><time>2026-03-29T14:18:51.007Z</time></trkpt><trkpt lat="45.6945167" lon="8.269345"><ele>356.0</ele><time>2026-03-29T14:18:52.007Z</time></trkpt><trkpt lat="45.6946283" lon="8.26967"><ele>355.5</ele><time>2026-03-29T14:18:53.006Z</time></trkpt><trkpt lat="45.6947233" lon="8.2699967"><ele>355.0</ele><time>2026-03-29T14:18:54.007Z</time></trkpt><trkpt lat="45.6948167" lon="8.27036"><ele>354.5</ele><time>2026-03-29T14:18:55.007Z</time></trkpt><trkpt lat="45.694905" lon="8.2707067"><ele>354.0</ele><time>2026-03-29T14:18:56.007Z</time></trkpt><trkpt lat="45.6950017" lon="8.2710667"><ele>354.0</ele><time>2026-03-29T14:18:57.007Z</time></trkpt><trkpt lat="45.6951017" lon="8.271405"><ele>354.0</ele><time>2026-03-29T14:18:58.007Z</time></trkpt><trkpt lat="45.6951967" lon="8.2717317"><ele>354.5</ele><time>2026-03-29T14:18:59.007Z</time></trkpt><trkpt lat="45.6952967" lon="8.2720717"><ele>355.0</ele><time>2026-03-29T14:19:00.007Z</time></trkpt><trkpt lat="45.6954017" lon="8.272415"><ele>355.0</ele><time>2026-03-29T14:19:01.007Z</time></trkpt><trkpt lat="45.695505" lon="8.272765"><ele>355.0</ele><time>2026-03-29T14:19:02.007Z</time></trkpt><trkpt lat="45.6955817" lon="8.27311"><ele>356.0</ele><time>2026-03-29T14:19:03.006Z</time></trkpt><trkpt lat="45.6956633" lon="8.273455"><ele>357.0</ele><time>2026-03-29T14:19:04.006Z</time></trkpt><trkpt lat="45.695745" lon="8.2737933"><ele>356.0</ele><time>2026-03-29T14:19:05.007Z</time></trkpt><trkpt lat="45.6958167" lon="8.2741383"><ele>355.0</ele><time>2026-03-29T14:19:06.007Z</time></trkpt><trkpt lat="45.6958817" lon="8.2744817"><ele>356.0</ele><time>2026-03-29T14:19:07.006Z</time></trkpt><trkpt lat="45.695935" lon="8.2748367"><ele>357.0</ele><time>2026-03-29T14:19:08.007Z</time></trkpt><trkpt lat="45.6959767" lon="8.2751867"><ele>357.0</ele><time>2026-03-29T14:19:09.007Z</time></trkpt><trkpt lat="45.6960233" lon="8.275535"><ele>357.0</ele><time>2026-03-29T14:19:10.007Z</time></trkpt><trkpt lat="45.6960717" lon="8.2758933"><ele>352.0</ele><time>2026-03-29T14:19:11.007Z</time></trkpt><trkpt lat="45.69611" lon="8.2762567"><ele>347.0</ele><time>2026-03-29T14:19:12.006Z</time></trkpt><trkpt lat="45.69616" lon="8.2766133"><ele>347.0</ele><time>2026-03-29T14:19:13.007Z</time></trkpt><trkpt lat="45.696215" lon="8.27696"><ele>347.0</ele><time>2026-03-29T14:19:14.007Z</time></trkpt><trkpt lat="45.6962633" lon="8.2773017"><ele>348.5</ele><time>2026-03-29T14:19:15.006Z</time></trkpt><trkpt lat="45.69631" lon="8.2776467"><ele>350.0</ele><time>2026-03-29T14:19:16.007Z</time></trkpt><trkpt lat="45.6963517" lon="8.2779817"><ele>350.5</ele><time>2026-03-29T14:19:17.006Z</time></trkpt><trkpt lat="45.6963983" lon="8.2783317"><ele>351.0</ele><time>2026-03-29T14:19:18.007Z</time></trkpt><trkpt lat="45.6964383" lon="8.2786683"><ele>348.5</ele><time>2026-03-29T14:19:19.006Z</time></trkpt><trkpt lat="45.6964767" lon="8.2789917"><ele>346.0</ele><time>2026-03-29T14:19:20.006Z</time></trkpt><trkpt lat="45.6965217" lon="8.27931"><ele>346.0</ele><time>2026-03-29T14:19:21.007Z</time></trkpt><trkpt lat="45.6965633" lon="8.2796217"><ele>346.0</ele><time>2026-03-29T14:19:22.007Z</time></trkpt><trkpt lat="45.6966" lon="8.2799367"><ele>346.0</ele><time>2026-03-29T14:19:23.006Z</time></trkpt><trkpt lat="45.6966417" lon="8.2802333"><ele>345.3333333333333</ele><time>2026-03-29T14:19:24.006Z</time></trkpt><trkpt lat="45.6966733" lon="8.2805217"><ele>344.6666666666667</ele><time>2026-03-29T14:19:25.007Z</time></trkpt><trkpt lat="45.69671" lon="8.2808117"><ele>344.0</ele><time>2026-03-29T14:19:26.007Z</time></trkpt><trkpt lat="45.6967467" lon="8.281085"><ele>344.0</ele><time>2026-03-29T14:19:27.007Z</time></trkpt><trkpt lat="45.6967783" lon="8.2813383"><ele>344.0</ele><time>2026-03-29T14:19:28.007Z</time></trkpt><trkpt lat="45.6968117" lon="8.281595"><ele>344.0</ele><time>2026-03-29T14:19:29.007Z</time></trkpt><trkpt lat="45.6968467" lon="8.2818583"><ele>344.0</ele><time>2026-03-29T14:19:30.007Z</time></trkpt><trkpt lat="45.6968783" lon="8.2821217"><ele>344.0</ele><time>2026-03-29T14:19:31.006Z</time></trkpt><trkpt lat="45.6969117" lon="8.282375"><ele>344.0</ele><time>2026-03-29T14:19:32.007Z</time></trkpt><trkpt lat="45.6969467" lon="8.2826467"><ele>343.0</ele><time>2026-03-29T14:19:33.007Z</time></trkpt><trkpt lat="45.69698" lon="8.282915"><ele>342.0</ele><time>2026-03-29T14:19:34.007Z</time></trkpt><trkpt lat="45.6970167" lon="8.2831767"><ele>341.0</ele><time>2026-03-29T14:19:35.006Z</time></trkpt><trkpt lat="45.6970517" lon="8.2834133"><ele>341.0</ele><time>2026-03-29T14:19:36.007Z</time></trkpt><trkpt lat="45.69709" lon="8.2836517"><ele>341.0</ele><time>2026-03-29T14:19:37.006Z</time></trkpt><trkpt lat="45.6971233" lon="8.2838817"><ele>341.0</ele><time>2026-03-29T14:19:38.006Z</time></trkpt><trkpt lat="45.6971483" lon="8.2841217"><ele>341.0</ele><time>2026-03-29T14:19:39.007Z</time></trkpt><trkpt lat="45.69718" lon="8.2843567"><ele>341.0</ele><time>2026-03-29T14:19:40.006Z</time></trkpt><trkpt lat="45.6972083" lon="8.284575"><ele>341.0</ele><time>2026-03-29T14:19:41.007Z</time></trkpt><trkpt lat="45.6972283" lon="8.2847917"><ele>341.0</ele><time>2026-03-29T14:19:42.007Z</time></trkpt><trkpt lat="45.6972517" lon="8.2849917"><ele>341.0</ele><time>2026-03-29T14:19:43.006Z</time></trkpt><trkpt lat="45.697275" lon="8.2851717"><ele>341.0</ele><time>2026-03-29T14:19:44.006Z</time></trkpt><trkpt lat="45.6972983" lon="8.2853633"><ele>341.0</ele><time>2026-03-29T14:19:45.007Z</time></trkpt><trkpt lat="45.6973233" lon="8.285555"><ele>340.75</ele><time>2026-03-29T14:19:46.006Z</time></trkpt><trkpt lat="45.69734" lon="8.285735"><ele>340.5</ele><time>2026-03-29T14:19:47.007Z</time></trkpt><trkpt lat="45.6973567" lon="8.2859033"><ele>340.25</ele><time>2026-03-29T14:19:48.007Z</time></trkpt><trkpt lat="45.69736" lon="8.2860633"><ele>340.0</ele><time>2026-03-29T14:19:49.006Z</time></trkpt><trkpt lat="45.6973667" lon="8.2862167"><ele>340.0</ele><time>2026-03-29T14:19:50.006Z</time></trkpt><trkpt lat="45.697385" lon="8.28634"><ele>340.0</ele><time>2026-03-29T14:19:51.007Z</time></trkpt><trkpt lat="45.6974033" lon="8.2864433"><ele>340.0</ele><time>2026-03-29T14:19:52.007Z</time></trkpt><trkpt lat="45.6974283" lon="8.2866"><ele>340.0</ele><time>2026-03-29T14:19:54.007Z</time></trkpt><trkpt lat="45.69745" lon="8.28672"><ele>340.0</ele><time>2026-03-29T14:19:56.007Z</time></trkpt><trkpt lat="45.6974617" lon="8.2868367"><ele>340.0</ele><time>2026-03-29T14:19:59.007Z</time></trkpt><trkpt lat="45.6974817" lon="8.2869667"><ele>340.0</ele><time>2026-03-29T14:20:01.006Z</time></trkpt><trkpt lat="45.6976067" lon="8.2869733"><ele>340.0</ele><time>2026-03-29T14:20:03.007Z</time></trkpt><trkpt lat="45.6977083" lon="8.2869567"><ele>340.0</ele><time>2026-03-29T14:20:04.007Z</time></trkpt><trkpt lat="45.6978517" lon="8.2869733"><ele>340.0</ele><time>2026-03-29T14:20:05.007Z</time></trkpt><trkpt lat="45.69801" lon="8.2869917"><ele>338.3333333333333</ele><time>2026-03-29T14:20:06.007Z</time></trkpt><trkpt lat="45.69818" lon="8.28702"><ele>336.6666666666667</ele><time>2026-03-29T14:20:07.006Z</time></trkpt><trkpt lat="45.6983383" lon="8.28705"><ele>335.0</ele><time>2026-03-29T14:20:08.007Z</time></trkpt><trkpt lat="45.6985133" lon="8.2870683"><ele>335.33333333333337</ele><time>2026-03-29T14:20:09.006Z</time></trkpt><trkpt lat="45.6986933" lon="8.2870967"><ele>335.6666666666667</ele><time>2026-03-29T14:20:10.007Z</time></trkpt><trkpt lat="45.69887" lon="8.2871333"><ele>336.0</ele><time>2026-03-29T14:20:11.007Z</time></trkpt><trkpt lat="45.6990567" lon="8.287135"><ele>336.0</ele><time>2026-03-29T14:20:12.006Z</time></trkpt><trkpt lat="45.6992467" lon="8.2871633"><ele>336.0</ele><time>2026-03-29T14:20:13.006Z</time></trkpt><trkpt lat="45.6994367" lon="8.28719"><ele>336.0</ele><time>2026-03-29T14:20:14.007Z</time></trkpt><trkpt lat="45.699625" lon="8.2872283"><ele>335.6666666666667</ele><time>2026-03-29T14:20:15.007Z</time></trkpt><trkpt lat="45.6998133" lon="8.2872517"><ele>335.33333333333337</ele><time>2026-03-29T14:20:16.007Z</time></trkpt><trkpt lat="45.6999983" lon="8.2872783"><ele>335.0</ele><time>2026-03-29T14:20:17.006Z</time></trkpt><trkpt lat="45.700185" lon="8.2872833"><ele>335.33333333333337</ele><time>2026-03-29T14:20:18.007Z</time></trkpt><trkpt lat="45.7003517" lon="8.2872833"><ele>335.6666666666667</ele><time>2026-03-29T14:20:19.007Z</time></trkpt><trkpt lat="45.7005067" lon="8.2872817"><ele>336.0</ele><time>2026-03-29T14:20:20.007Z</time></trkpt><trkpt lat="45.7006383" lon="8.2873"><ele>336.0</ele><time>2026-03-29T14:20:21.007Z</time></trkpt><trkpt lat="45.7007617" lon="8.2873133"><ele>336.0</ele><time>2026-03-29T14:20:22.007Z</time></trkpt><trkpt lat="45.700875" lon="8.287325"><ele>336.0</ele><time>2026-03-29T14:20:23.007Z</time></trkpt><trkpt lat="45.7009717" lon="8.287335"><ele>336.0</ele><time>2026-03-29T14:20:24.007Z</time></trkpt><trkpt lat="45.7010483" lon="8.28736"><ele>336.0</ele><time>2026-03-29T14:20:25.006Z</time></trkpt><trkpt lat="45.70113" lon="8.2874217"><ele>339.5</ele><time>2026-03-29T14:20:26.007Z</time></trkpt><trkpt lat="45.7011817" lon="8.2875483"><ele>343.0</ele><time>2026-03-29T14:20:27.006Z</time></trkpt><trkpt lat="45.70122" lon="8.287715"><ele>346.5</ele><time>2026-03-29T14:20:28.007Z</time></trkpt><trkpt lat="45.70125" lon="8.2879167"><ele>350.0</ele><time>2026-03-29T14:20:29.006Z</time></trkpt><trkpt lat="45.70127" lon="8.2881417"><ele>350.0</ele><time>2026-03-29T14:20:30.007Z</time></trkpt><trkpt lat="45.7013067" lon="8.28837"><ele>350.0</ele><time>2026-03-29T14:20:31.006Z</time></trkpt><trkpt lat="45.7013617" lon="8.2885767"><ele>350.0</ele><time>2026-03-29T14:20:32.007Z</time></trkpt><trkpt lat="45.7014433" lon="8.2887283"><ele>350.0</ele><time>2026-03-29T14:20:33.007Z</time></trkpt><trkpt lat="45.7015517" lon="8.2888333"><ele>350.0</ele><time>2026-03-29T14:20:34.007Z</time></trkpt><trkpt lat="45.7016567" lon="8.2888733"><ele>350.0</ele><time>2026-03-29T14:20:35.006Z</time></trkpt><trkpt lat="45.7017633" lon="8.2888733"><ele>350.0</ele><time>2026-03-29T14:20:36.007Z</time></trkpt><trkpt lat="45.701875" lon="8.288855"><ele>350.5</ele><time>2026-03-29T14:20:37.006Z</time></trkpt><trkpt lat="45.7019917" lon="8.2888367"><ele>351.0</ele><time>2026-03-29T14:20:38.007Z</time></trkpt><trkpt lat="45.7021117" lon="8.28882"><ele>351.5</ele><time>2026-03-29T14:20:39.007Z</time></trkpt><trkpt lat="45.7022317" lon="8.2888017"><ele>352.0</ele><time>2026-03-29T14:20:40.006Z</time></trkpt><trkpt lat="45.7023383" lon="8.2887683"><ele>352.0</ele><time>2026-03-29T14:20:41.007Z</time></trkpt><trkpt lat="45.7024383" lon="8.288745"><ele>352.0</ele><time>2026-03-29T14:20:42.006Z</time></trkpt><trkpt lat="45.7025317" lon="8.288725"><ele>352.0</ele><time>2026-03-29T14:20:43.007Z</time></trkpt><trkpt lat="45.7026267" lon="8.2887033"><ele>352.0</ele><time>2026-03-29T14:20:44.007Z</time></trkpt><trkpt lat="45.70273" lon="8.288685"><ele>352.0</ele><time>2026-03-29T14:20:45.006Z</time></trkpt><trkpt lat="45.702835" lon="8.2886533"><ele>351.20000000000005</ele><time>2026-03-29T14:20:46.007Z</time></trkpt><trkpt lat="45.7029333" lon="8.2886317"><ele>350.4</ele><time>2026-03-29T14:20:47.007Z</time></trkpt><trkpt lat="45.7030417" lon="8.2886083"><ele>349.6</ele><time>2026-03-29T14:20:48.007Z</time></trkpt><trkpt lat="45.703155" lon="8.2885783"><ele>348.79999999999995</ele><time>2026-03-29T14:20:49.007Z</time></trkpt><trkpt lat="45.7032617" lon="8.28855"><ele>348.0</ele><time>2026-03-29T14:20:50.006Z</time></trkpt><trkpt lat="45.7033767" lon="8.2885167"><ele>348.0</ele><time>2026-03-29T14:20:51.007Z</time></trkpt><trkpt lat="45.70349" lon="8.2884833"><ele>348.0</ele><time>2026-03-29T14:20:52.006Z</time></trkpt><trkpt lat="45.7035967" lon="8.2884433"><ele>348.0</ele><time>2026-03-29T14:20:53.007Z</time></trkpt><trkpt lat="45.70369" lon="8.2884133"><ele>348.0</ele><time>2026-03-29T14:20:54.007Z</time></trkpt><trkpt lat="45.7037717" lon="8.28837"><ele>348.0</ele><time>2026-03-29T14:20:55.007Z</time></trkpt><trkpt lat="45.7038533" lon="8.2883367"><ele>347.5</ele><time>2026-03-29T14:20:56.007Z</time></trkpt><trkpt lat="45.7039517" lon="8.2882883"><ele>347.0</ele><time>2026-03-29T14:20:57.007Z</time></trkpt><trkpt lat="45.7040617" lon="8.2882317"><ele>346.5</ele><time>2026-03-29T14:20:58.007Z</time></trkpt><trkpt lat="45.7041767" lon="8.288185"><ele>346.0</ele><time>2026-03-29T14:20:59.007Z</time></trkpt><trkpt lat="45.7042933" lon="8.2881617"><ele>346.0</ele><time>2026-03-29T14:21:00.007Z</time></trkpt><trkpt lat="45.7044167" lon="8.2881833"><ele>346.0</ele><time>2026-03-29T14:21:01.007Z</time></trkpt><trkpt lat="45.7045267" lon="8.288195"><ele>346.0</ele><time>2026-03-29T14:21:02.007Z</time></trkpt><trkpt lat="45.7046517" lon="8.2881983"><ele>346.0</ele><time>2026-03-29T14:21:03.007Z</time></trkpt><trkpt lat="45.70478" lon="8.2881817"><ele>346.0</ele><time>2026-03-29T14:21:04.007Z</time></trkpt><trkpt lat="45.7049167" lon="8.2881617"><ele>346.0</ele><time>2026-03-29T14:21:05.007Z</time></trkpt><trkpt lat="45.7050483" lon="8.2881383"><ele>346.0</ele><time>2026-03-29T14:21:06.007Z</time></trkpt><trkpt lat="45.7051667" lon="8.2881033"><ele>346.0</ele><time>2026-03-29T14:21:07.007Z</time></trkpt><trkpt lat="45.70529" lon="8.288065"><ele>345.75</ele><time>2026-03-29T14:21:08.007Z</time></trkpt><trkpt lat="45.7054317" lon="8.288045"><ele>345.5</ele><time>2026-03-29T14:21:09.007Z</time></trkpt><trkpt lat="45.7055517" lon="8.2880217"><ele>345.25</ele><time>2026-03-29T14:21:10.007Z</time></trkpt><trkpt lat="45.705665" lon="8.2879917"><ele>345.0</ele><time>2026-03-29T14:21:11.007Z</time></trkpt><trkpt lat="45.7057933" lon="8.2879633"><ele>345.0</ele><time>2026-03-29T14:21:12.006Z</time></trkpt><trkpt lat="45.705935" lon="8.2879233"><ele>345.0</ele><time>2026-03-29T14:21:13.007Z</time></trkpt><trkpt lat="45.7060583" lon="8.28788"><ele>345.0</ele><time>2026-03-29T14:21:14.007Z</time></trkpt><trkpt lat="45.70617" lon="8.287815"><ele>345.0</ele><time>2026-03-29T14:21:15.006Z</time></trkpt><trkpt lat="45.70626" lon="8.2877367"><ele>345.0</ele><time>2026-03-29T14:21:16.006Z</time></trkpt><trkpt lat="45.706345" lon="8.2876433"><ele>345.0</ele><time>2026-03-29T14:21:17.007Z</time></trkpt><trkpt lat="45.7064083" lon="8.28752"><ele>345.0</ele><time>2026-03-29T14:21:18.007Z</time></trkpt><trkpt lat="45.706465" lon="8.28738"><ele>345.0</ele><time>2026-03-29T14:21:19.007Z</time></trkpt><trkpt lat="45.7065183" lon="8.2872483"><ele>345.0</ele><time>2026-03-29T14:21:20.007Z</time></trkpt><trkpt lat="45.7065733" lon="8.2871283"><ele>345.0</ele><time>2026-03-29T14:21:21.007Z</time></trkpt><trkpt lat="45.7066433" lon="8.2870133"><ele>345.0</ele><time>2026-03-29T14:21:22.006Z</time></trkpt><trkpt lat="45.70671" lon="8.2868883"><ele>345.0</ele><time>2026-03-29T14:21:23.007Z</time></trkpt><trkpt lat="45.70677" lon="8.2867783"><ele>345.0</ele><time>2026-03-29T14:21:24.006Z</time></trkpt><trkpt lat="45.70683" lon="8.28667"><ele>345.0</ele><time>2026-03-29T14:21:25.007Z</time></trkpt><trkpt lat="45.7068917" lon="8.2865683"><ele>345.0</ele><time>2026-03-29T14:21:26.007Z</time></trkpt><trkpt lat="45.70696" lon="8.2864483"><ele>345.0</ele><time>2026-03-29T14:21:27.006Z</time></trkpt><trkpt lat="45.7070267" lon="8.2863233"><ele>345.0</ele><time>2026-03-29T14:21:28.006Z</time></trkpt><trkpt lat="45.707105" lon="8.2862133"><ele>345.0</ele><time>2026-03-29T14:21:29.007Z</time></trkpt><trkpt lat="45.7071733" lon="8.2860933"><ele>345.0</ele><time>2026-03-29T14:21:30.007Z</time></trkpt><trkpt lat="45.7072433" lon="8.2859733"><ele>345.0</ele><time>2026-03-29T14:21:31.007Z</time></trkpt><trkpt lat="45.7073117" lon="8.28586"><ele>345.0</ele><time>2026-03-29T14:21:32.006Z</time></trkpt><trkpt lat="45.7073683" lon="8.285745"><ele>345.0</ele><time>2026-03-29T14:21:33.007Z</time></trkpt><trkpt lat="45.70745" lon="8.2856367"><ele>345.0</ele><time>2026-03-29T14:21:34.006Z</time></trkpt><trkpt lat="45.707525" lon="8.2855367"><ele>345.0</ele><time>2026-03-29T14:21:35.007Z</time></trkpt><trkpt lat="45.707605" lon="8.2854267"><ele>345.5</ele><time>2026-03-29T14:21:36.006Z</time></trkpt><trkpt lat="45.70768" lon="8.2852967"><ele>346.0</ele><time>2026-03-29T14:21:37.007Z</time></trkpt><trkpt lat="45.7077617" lon="8.2851717"><ele>346.5</ele><time>2026-03-29T14:21:38.007Z</time></trkpt><trkpt lat="45.7078567" lon="8.2850233"><ele>347.0</ele><time>2026-03-29T14:21:39.007Z</time></trkpt><trkpt lat="45.70795" lon="8.2848567"><ele>347.0</ele><time>2026-03-29T14:21:40.007Z</time></trkpt><trkpt lat="45.7080333" lon="8.28468"><ele>347.0</ele><time>2026-03-29T14:21:41.006Z</time></trkpt><trkpt lat="45.7081233" lon="8.28451"><ele>347.0</ele><time>2026-03-29T14:21:42.006Z</time></trkpt><trkpt lat="45.7082183" lon="8.284305"><ele>347.0</ele><time>2026-03-29T14:21:43.006Z</time></trkpt><trkpt lat="45.70835" lon="8.2841333"><ele>347.0</ele><time>2026-03-29T14:21:44.007Z</time></trkpt><trkpt lat="45.7084633" lon="8.283965"><ele>347.0</ele><time>2026-03-29T14:21:45.007Z</time></trkpt><trkpt lat="45.7085733" lon="8.2838"><ele>347.0</ele><time>2026-03-29T14:21:46.006Z</time></trkpt><trkpt lat="45.7086917" lon="8.2836367"><ele>347.0</ele><time>2026-03-29T14:21:47.006Z</time></trkpt><trkpt lat="45.708795" lon="8.2834817"><ele>347.0</ele><time>2026-03-29T14:21:48.006Z</time></trkpt><trkpt lat="45.7088883" lon="8.283325"><ele>347.0</ele><time>2026-03-29T14:21:49.007Z</time></trkpt><trkpt lat="45.7089767" lon="8.2831717"><ele>347.0</ele><time>2026-03-29T14:21:50.006Z</time></trkpt><trkpt lat="45.7090617" lon="8.2830183"><ele>347.0</ele><time>2026-03-29T14:21:51.006Z</time></trkpt><trkpt lat="45.7091567" lon="8.2828667"><ele>347.0</ele><time>2026-03-29T14:21:52.006Z</time></trkpt><trkpt lat="45.7092467" lon="8.2827033"><ele>347.0</ele><time>2026-03-29T14:21:53.007Z</time></trkpt><trkpt lat="45.7093383" lon="8.28252"><ele>347.0</ele><time>2026-03-29T14:21:54.007Z</time></trkpt><trkpt lat="45.7094283" lon="8.2823617"><ele>347.0</ele><time>2026-03-29T14:21:55.007Z</time></trkpt><trkpt lat="45.709515" lon="8.2822117"><ele>347.0</ele><time>2026-03-29T14:21:56.006Z</time></trkpt><trkpt lat="45.7096033" lon="8.282105"><ele>347.75</ele><time>2026-03-29T14:21:57.007Z</time></trkpt><trkpt lat="45.7097" lon="8.28201"><ele>348.5</ele><time>2026-03-29T14:21:58.007Z</time></trkpt><trkpt lat="45.7097867" lon="8.2819083"><ele>349.25</ele><time>2026-03-29T14:21:59.007Z</time></trkpt><trkpt lat="45.709865" lon="8.2817767"><ele>350.0</ele><time>2026-03-29T14:22:00.007Z</time></trkpt><trkpt lat="45.70994" lon="8.2816217"><ele>350.0</ele><time>2026-03-29T14:22:01.006Z</time></trkpt><trkpt lat="45.710025" lon="8.2814567"><ele>350.0</ele><time>2026-03-29T14:22:02.007Z</time></trkpt><trkpt lat="45.7101233" lon="8.2812817"><ele>350.0</ele><time>2026-03-29T14:22:03.007Z</time></trkpt><trkpt lat="45.7102317" lon="8.281105"><ele>350.0</ele><time>2026-03-29T14:22:04.006Z</time></trkpt><trkpt lat="45.7103383" lon="8.280915"><ele>350.0</ele><time>2026-03-29T14:22:05.007Z</time></trkpt><trkpt lat="45.7104483" lon="8.2807317"><ele>350.0</ele><time>2026-03-29T14:22:06.007Z</time></trkpt><trkpt lat="45.7105717" lon="8.2805583"><ele>350.0</ele><time>2026-03-29T14:22:07.006Z</time></trkpt><trkpt lat="45.7106683" lon="8.2803867"><ele>350.0</ele><time>2026-03-29T14:22:08.007Z</time></trkpt><trkpt lat="45.7107817" lon="8.2802133"><ele>350.0</ele><time>2026-03-29T14:22:09.007Z</time></trkpt><trkpt lat="45.7109" lon="8.2800333"><ele>350.0</ele><time>2026-03-29T14:22:10.007Z</time></trkpt><trkpt lat="45.7110033" lon="8.2798467"><ele>350.0</ele><time>2026-03-29T14:22:11.007Z</time></trkpt><trkpt lat="45.7110917" lon="8.27966"><ele>350.0</ele><time>2026-03-29T14:22:12.007Z</time></trkpt><trkpt lat="45.7111967" lon="8.27949"><ele>350.0</ele><time>2026-03-29T14:22:13.006Z</time></trkpt><trkpt lat="45.7112983" lon="8.2793417"><ele>350.0</ele><time>2026-03-29T14:22:14.007Z</time></trkpt><trkpt lat="45.7113917" lon="8.279195"><ele>350.0</ele><time>2026-03-29T14:22:15.007Z</time></trkpt><trkpt lat="45.71147" lon="8.2790733"><ele>350.0</ele><time>2026-03-29T14:22:16.007Z</time></trkpt><trkpt lat="45.7115317" lon="8.2789617"><ele>350.4</ele><time>2026-03-29T14:22:17.007Z</time></trkpt><trkpt lat="45.7115967" lon="8.2788517"><ele>350.8</ele><time>2026-03-29T14:22:18.006Z</time></trkpt><trkpt lat="45.7116617" lon="8.2787567"><ele>351.20000000000005</ele><time>2026-03-29T14:22:19.007Z</time></trkpt><trkpt lat="45.711735" lon="8.2786717"><ele>351.6</ele><time>2026-03-29T14:22:20.007Z</time></trkpt><trkpt lat="45.7117933" lon="8.2785767"><ele>352.0</ele><time>2026-03-29T14:22:21.007Z</time></trkpt><trkpt lat="45.7118467" lon="8.278485"><ele>352.0</ele><time>2026-03-29T14:22:22.007Z</time></trkpt><trkpt lat="45.7118933" lon="8.278395"><ele>352.0</ele><time>2026-03-29T14:22:23.007Z</time></trkpt><trkpt lat="45.7119317" lon="8.2782967"><ele>352.0</ele><time>2026-03-29T14:22:24.006Z</time></trkpt><trkpt lat="45.7119683" lon="8.2782"><ele>352.0</ele><time>2026-03-29T14:22:25.007Z</time></trkpt><trkpt lat="45.712005" lon="8.278115"><ele>352.0</ele><time>2026-03-29T14:22:26.007Z</time></trkpt><trkpt lat="45.71209" lon="8.277995"><ele>352.0</ele><time>2026-03-29T14:22:28.007Z</time></trkpt><trkpt lat="45.7122383" lon="8.2779667"><ele>351.8333333333333</ele><time>2026-03-29T14:22:30.006Z</time></trkpt><trkpt lat="45.7123117" lon="8.2779583"><ele>351.66666666666663</ele><time>2026-03-29T14:22:31.006Z</time></trkpt><trkpt lat="45.7123967" lon="8.2779583"><ele>351.5</ele><time>2026-03-29T14:22:32.006Z</time></trkpt><trkpt lat="45.712485" lon="8.2779517"><ele>351.3333333333333</ele><time>2026-03-29T14:22:33.006Z</time></trkpt><trkpt lat="45.712575" lon="8.2779367"><ele>351.1666666666667</ele><time>2026-03-29T14:22:34.007Z</time></trkpt><trkpt lat="45.7126667" lon="8.277925"><ele>351.0</ele><time>2026-03-29T14:22:35.007Z</time></trkpt><trkpt lat="45.7127683" lon="8.2779133"><ele>351.0</ele><time>2026-03-29T14:22:36.007Z</time></trkpt><trkpt lat="45.7128633" lon="8.27791"><ele>351.0</ele><time>2026-03-29T14:22:37.007Z</time></trkpt><trkpt lat="45.7129567" lon="8.2779083"><ele>351.0</ele><time>2026-03-29T14:22:38.007Z</time></trkpt><trkpt lat="45.7130467" lon="8.2779"><ele>351.0</ele><time>2026-03-29T14:22:39.006Z</time></trkpt><trkpt lat="45.7131283" lon="8.277885"><ele>351.0</ele><time>2026-03-29T14:22:40.006Z</time></trkpt><trkpt lat="45.71321" lon="8.2778683"><ele>351.0</ele><time>2026-03-29T14:22:41.006Z</time></trkpt><trkpt lat="45.713275" lon="8.2778367"><ele>351.00000000000006</ele><time>2026-03-29T14:22:42.007Z</time></trkpt><trkpt lat="45.7133433" lon="8.2778117"><ele>351.0</ele><time>2026-03-29T14:22:43.007Z</time></trkpt><trkpt lat="45.7134117" lon="8.2777867"><ele>351.0</ele><time>2026-03-29T14:22:44.007Z</time></trkpt><trkpt lat="45.7134883" lon="8.2777733"><ele>351.0</ele><time>2026-03-29T14:22:45.007Z</time></trkpt><trkpt lat="45.7135633" lon="8.277755"><ele>351.0</ele><time>2026-03-29T14:22:46.006Z</time></trkpt><trkpt lat="45.713635" lon="8.2777583"><ele>351.00000000000006</ele><time>2026-03-29T14:22:47.007Z</time></trkpt><trkpt lat="45.7137" lon="8.2777767"><ele>351.0</ele><time>2026-03-29T14:22:48.007Z</time></trkpt><trkpt lat="45.7137633" lon="8.2778033"><ele>351.28571428571433</ele><time>2026-03-29T14:22:49.007Z</time></trkpt><trkpt lat="45.713835" lon="8.2778417"><ele>351.57142857142856</ele><time>2026-03-29T14:22:50.007Z</time></trkpt><trkpt lat="45.7139033" lon="8.27788"><ele>351.8571428571429</ele><time>2026-03-29T14:22:51.007Z</time></trkpt><trkpt lat="45.7139667" lon="8.27793"><ele>352.14285714285717</ele><time>2026-03-29T14:22:52.006Z</time></trkpt><trkpt lat="45.7140267" lon="8.27797"><ele>352.42857142857144</ele><time>2026-03-29T14:22:53.007Z</time></trkpt><trkpt lat="45.714095" lon="8.2780133"><ele>352.7142857142857</ele><time>2026-03-29T14:22:54.006Z</time></trkpt><trkpt lat="45.7141683" lon="8.2780617"><ele>353.0</ele><time>2026-03-29T14:22:55.007Z</time></trkpt><trkpt lat="45.7142333" lon="8.2781"><ele>353.0</ele><time>2026-03-29T14:22:56.006Z</time></trkpt><trkpt lat="45.7143383" lon="8.2781767"><ele>353.0</ele><time>2026-03-29T14:22:58.007Z</time></trkpt><trkpt lat="45.7144283" lon="8.278245"><ele>353.0</ele><time>2026-03-29T14:23:00.007Z</time></trkpt><trkpt lat="45.7145067" lon="8.2782917"><ele>353.0</ele><time>2026-03-29T14:23:02.006Z</time></trkpt><trkpt lat="45.714565" lon="8.27833"><ele>353.0</ele><time>2026-03-29T14:23:04.007Z</time></trkpt><trkpt lat="45.7146283" lon="8.2783933"><ele>353.0</ele><time>2026-03-29T14:23:07.007Z</time></trkpt><trkpt lat="45.7147133" lon="8.2784383"><ele>353.79999999999995</ele><time>2026-03-29T14:23:10.007Z</time></trkpt><trkpt lat="45.7147967" lon="8.2784917"><ele>354.6</ele><time>2026-03-29T14:23:12.007Z</time></trkpt><trkpt lat="45.714875" lon="8.278565"><ele>355.4</ele><time>2026-03-29T14:23:14.007Z</time></trkpt><trkpt lat="45.7149367" lon="8.27867"><ele>356.20000000000005</ele><time>2026-03-29T14:23:16.007Z</time></trkpt><trkpt lat="45.71488" lon="8.278865"><ele>357.0</ele><time>2026-03-29T14:23:18.007Z</time></trkpt><trkpt lat="45.7148217" lon="8.2789933"><ele>357.0</ele><time>2026-03-29T14:23:19.007Z</time></trkpt><trkpt lat="45.7147617" lon="8.2791"><ele>357.0</ele><time>2026-03-29T14:23:20.007Z</time></trkpt><trkpt lat="45.7147167" lon="8.27921"><ele>357.0</ele><time>2026-03-29T14:23:21.007Z</time></trkpt><trkpt lat="45.714665" lon="8.2793067"><ele>357.0</ele><time>2026-03-29T14:23:22.007Z</time></trkpt><trkpt lat="45.71461" lon="8.2793967"><ele>357.0</ele><time>2026-03-29T14:23:23.007Z</time></trkpt><trkpt lat="45.7145733" lon="8.2794917"><ele>357.0</ele><time>2026-03-29T14:23:24.006Z</time></trkpt><trkpt lat="45.714535" lon="8.2795917"><ele>357.0</ele><time>2026-03-29T14:23:25.006Z</time></trkpt><trkpt lat="45.7144917" lon="8.2796917"><ele>357.0</ele><time>2026-03-29T14:23:26.007Z</time></trkpt><trkpt lat="45.714445" lon="8.2797967"><ele>357.0</ele><time>2026-03-29T14:23:27.007Z</time></trkpt><trkpt lat="45.7143783" lon="8.2799"><ele>357.0</ele><time>2026-03-29T14:23:28.007Z</time></trkpt><trkpt lat="45.7143067" lon="8.2800067"><ele>357.0</ele><time>2026-03-29T14:23:29.007Z</time></trkpt><trkpt lat="45.7142583" lon="8.2801083"><ele>356.1666666666667</ele><time>2026-03-29T14:23:30.006Z</time></trkpt><trkpt lat="45.7142033" lon="8.28019"><ele>355.3333333333333</ele><time>2026-03-29T14:23:31.006Z</time></trkpt><trkpt lat="45.7141633" lon="8.2802817"><ele>354.5</ele><time>2026-03-29T14:23:32.006Z</time></trkpt><trkpt lat="45.7141233" lon="8.280375"><ele>353.66666666666663</ele><time>2026-03-29T14:23:33.007Z</time></trkpt><trkpt lat="45.71408" lon="8.2804717"><ele>352.8333333333333</ele><time>2026-03-29T14:23:34.006Z</time></trkpt><trkpt lat="45.7140467" lon="8.280565"><ele>352.0</ele><time>2026-03-29T14:23:35.006Z</time></trkpt><trkpt lat="45.7140117" lon="8.280655"><ele>351.7142857142857</ele><time>2026-03-29T14:23:36.007Z</time></trkpt><trkpt lat="45.7139833" lon="8.28075"><ele>351.42857142857144</ele><time>2026-03-29T14:23:37.006Z</time></trkpt><trkpt lat="45.7139517" lon="8.2808383"><ele>351.1428571428571</ele><time>2026-03-29T14:23:38.006Z</time></trkpt><trkpt lat="45.7139317" lon="8.280935"><ele>350.8571428571429</ele><time>2026-03-29T14:23:39.006Z</time></trkpt><trkpt lat="45.7139" lon="8.2810183"><ele>350.57142857142856</ele><time>2026-03-29T14:23:40.006Z</time></trkpt><trkpt lat="45.713845" lon="8.2811"><ele>350.2857142857143</ele><time>2026-03-29T14:23:41.007Z</time></trkpt><trkpt lat="45.7138017" lon="8.28119"><ele>350.0</ele><time>2026-03-29T14:23:42.007Z</time></trkpt><trkpt lat="45.7137733" lon="8.281285"><ele>350.0</ele><time>2026-03-29T14:23:43.007Z</time></trkpt><trkpt lat="45.7137317" lon="8.281385"><ele>350.0</ele><time>2026-03-29T14:23:44.006Z</time></trkpt><trkpt lat="45.7136917" lon="8.2814967"><ele>350.0</ele><time>2026-03-29T14:23:45.007Z</time></trkpt><trkpt lat="45.7136317" lon="8.2816183"><ele>350.0</ele><time>2026-03-29T14:23:46.007Z</time></trkpt><trkpt lat="45.7135617" lon="8.2817517"><ele>350.0</ele><time>2026-03-29T14:23:47.007Z</time></trkpt><trkpt lat="45.7134967" lon="8.2819033"><ele>349.8</ele><time>2026-03-29T14:23:48.006Z</time></trkpt><trkpt lat="45.7134283" lon="8.2820483"><ele>349.6</ele><time>2026-03-29T14:23:49.007Z</time></trkpt><trkpt lat="45.7133717" lon="8.2821817"><ele>349.4</ele><time>2026-03-29T14:23:50.007Z</time></trkpt><trkpt lat="45.7133117" lon="8.2823033"><ele>349.2</ele><time>2026-03-29T14:23:51.007Z</time></trkpt><trkpt lat="45.7132483" lon="8.2824183"><ele>349.0</ele><time>2026-03-29T14:23:52.006Z</time></trkpt><trkpt lat="45.713195" lon="8.2825433"><ele>348.66666666666663</ele><time>2026-03-29T14:23:53.007Z</time></trkpt><trkpt lat="45.7131417" lon="8.282655"><ele>348.3333333333333</ele><time>2026-03-29T14:23:54.006Z</time></trkpt><trkpt lat="45.713085" lon="8.2827583"><ele>348.0</ele><time>2026-03-29T14:23:55.006Z</time></trkpt><trkpt lat="45.7130317" lon="8.2828617"><ele>347.6666666666667</ele><time>2026-03-29T14:23:56.006Z</time></trkpt><trkpt lat="45.7129833" lon="8.2829583"><ele>347.33333333333337</ele><time>2026-03-29T14:23:57.006Z</time></trkpt><trkpt lat="45.7129417" lon="8.2830367"><ele>347.0</ele><time>2026-03-29T14:23:58.006Z</time></trkpt><trkpt lat="45.7128717" lon="8.2831117"><ele>347.0</ele><time>2026-03-29T14:24:00.005Z</time></trkpt><trkpt lat="45.7128083" lon="8.283065"><ele>347.0</ele><time>2026-03-29T14:24:02.005Z</time></trkpt><trkpt lat="45.712735" lon="8.2831033"><ele>347.0</ele><time>2026-03-29T14:24:07.006Z</time></trkpt><trkpt lat="45.7127133" lon="8.28323"><ele>347.0</ele><time>2026-03-29T14:24:15.006Z</time></trkpt><trkpt lat="45.7126883" lon="8.2833917"><ele>347.0</ele><time>2026-03-29T14:29:13.006Z</time></trkpt><trkpt lat="45.712745" lon="8.283525"><ele>346.6666666666667</ele><time>2026-03-29T14:29:15.005Z</time></trkpt><trkpt lat="45.7127867" lon="8.2835933"><ele>346.33333333333337</ele><time>2026-03-29T14:29:16.005Z</time></trkpt><trkpt lat="45.7127667" lon="8.2837567"><ele>346.0</ele><time>2026-03-29T14:29:18.005Z</time></trkpt><trkpt lat="45.712735" lon="8.28386"><ele>345.6666666666667</ele><time>2026-03-29T14:29:19.006Z</time></trkpt><trkpt lat="45.712695" lon="8.2839667"><ele>345.3333333333333</ele><time>2026-03-29T14:29:20.005Z</time></trkpt><trkpt lat="45.712635" lon="8.284085"><ele>345.0</ele><time>2026-03-29T14:29:21.006Z</time></trkpt><trkpt lat="45.712565" lon="8.284235"><ele>344.75</ele><time>2026-03-29T14:29:22.006Z</time></trkpt><trkpt lat="45.7124983" lon="8.284385"><ele>344.5</ele><time>2026-03-29T14:29:23.005Z</time></trkpt><trkpt lat="45.71243" lon="8.2845317"><ele>344.25</ele><time>2026-03-29T14:29:24.005Z</time></trkpt><trkpt lat="45.7123567" lon="8.2847"><ele>344.0</ele><time>2026-03-29T14:29:25.006Z</time></trkpt><trkpt lat="45.712265" lon="8.2848667"><ele>343.75</ele><time>2026-03-29T14:29:26.005Z</time></trkpt><trkpt lat="45.7121967" lon="8.285055"><ele>343.5</ele><time>2026-03-29T14:29:27.005Z</time></trkpt><trkpt lat="45.71214" lon="8.2852217"><ele>343.25</ele><time>2026-03-29T14:29:28.005Z</time></trkpt><trkpt lat="45.7120683" lon="8.28541"><ele>343.0</ele><time>2026-03-29T14:29:29.004Z</time></trkpt><trkpt lat="45.712" lon="8.28559"><ele>343.0</ele><time>2026-03-29T14:29:30.005Z</time></trkpt><trkpt lat="45.7119317" lon="8.2857633"><ele>343.0</ele><time>2026-03-29T14:29:31.005Z</time></trkpt><trkpt lat="45.7118683" lon="8.2859133"><ele>343.0</ele><time>2026-03-29T14:29:32.004Z</time></trkpt><trkpt lat="45.71181" lon="8.286075"><ele>343.0</ele><time>2026-03-29T14:29:33.004Z</time></trkpt><trkpt lat="45.7117483" lon="8.2862183"><ele>343.2</ele><time>2026-03-29T14:29:34.005Z</time></trkpt><trkpt lat="45.711685" lon="8.2863383"><ele>343.4</ele><time>2026-03-29T14:29:35.005Z</time></trkpt><trkpt lat="45.7116267" lon="8.286455"><ele>343.59999999999997</ele><time>2026-03-29T14:29:36.004Z</time></trkpt><trkpt lat="45.711575" lon="8.2865867"><ele>343.79999999999995</ele><time>2026-03-29T14:29:37.005Z</time></trkpt><trkpt lat="45.7115217" lon="8.2867167"><ele>344.0</ele><time>2026-03-29T14:29:38.005Z</time></trkpt><trkpt lat="45.7114683" lon="8.2868433"><ele>344.5</ele><time>2026-03-29T14:29:39.005Z</time></trkpt><trkpt lat="45.7114117" lon="8.2869983"><ele>345.0</ele><time>2026-03-29T14:29:40.005Z</time></trkpt><trkpt lat="45.7113533" lon="8.2871733"><ele>345.5</ele><time>2026-03-29T14:29:41.005Z</time></trkpt><trkpt lat="45.7112933" lon="8.2873783"><ele>346.0</ele><time>2026-03-29T14:29:42.005Z</time></trkpt><trkpt lat="45.7112333" lon="8.28759"><ele>345.66666666666663</ele><time>2026-03-29T14:29:43.005Z</time></trkpt><trkpt lat="45.7111667" lon="8.2878167"><ele>345.3333333333333</ele><time>2026-03-29T14:29:44.005Z</time></trkpt><trkpt lat="45.711105" lon="8.2880383"><ele>345.0</ele><time>2026-03-29T14:29:45.005Z</time></trkpt><trkpt lat="45.7110633" lon="8.28828"><ele>345.0</ele><time>2026-03-29T14:29:46.005Z</time></trkpt><trkpt lat="45.7110367" lon="8.2885167"><ele>345.0</ele><time>2026-03-29T14:29:47.005Z</time></trkpt><trkpt lat="45.711015" lon="8.2887367"><ele>345.0</ele><time>2026-03-29T14:29:48.004Z</time></trkpt><trkpt lat="45.7110083" lon="8.2889433"><ele>344.5</ele><time>2026-03-29T14:29:49.004Z</time></trkpt><trkpt lat="45.711015" lon="8.2891433"><ele>344.0</ele><time>2026-03-29T14:29:50.005Z</time></trkpt><trkpt lat="45.71102" lon="8.2893217"><ele>343.5</ele><time>2026-03-29T14:29:51.004Z</time></trkpt><trkpt lat="45.7110317" lon="8.2894767"><ele>343.0</ele><time>2026-03-29T14:29:52.005Z</time></trkpt><trkpt lat="45.711055" lon="8.28962"><ele>343.0</ele><time>2026-03-29T14:29:53.005Z</time></trkpt><trkpt lat="45.711065" lon="8.289755"><ele>343.0</ele><time>2026-03-29T14:29:54.005Z</time></trkpt><trkpt lat="45.7110833" lon="8.2898767"><ele>343.0</ele><time>2026-03-29T14:29:55.005Z</time></trkpt><trkpt lat="45.7110883" lon="8.2899867"><ele>343.0</ele><time>2026-03-29T14:29:56.005Z</time></trkpt><trkpt lat="45.711095" lon="8.290095"><ele>343.0</ele><time>2026-03-29T14:29:57.005Z</time></trkpt><trkpt lat="45.7110933" lon="8.2901983"><ele>343.0</ele><time>2026-03-29T14:29:58.004Z</time></trkpt><trkpt lat="45.711095" lon="8.29032"><ele>343.2</ele><time>2026-03-29T14:29:59.005Z</time></trkpt><trkpt lat="45.7110967" lon="8.2904533"><ele>343.4</ele><time>2026-03-29T14:30:00.005Z</time></trkpt><trkpt lat="45.711085" lon="8.2905967"><ele>343.59999999999997</ele><time>2026-03-29T14:30:01.005Z</time></trkpt><trkpt lat="45.7110733" lon="8.2907517"><ele>343.79999999999995</ele><time>2026-03-29T14:30:02.005Z</time></trkpt><trkpt lat="45.711055" lon="8.2909167"><ele>344.0</ele><time>2026-03-29T14:30:03.005Z</time></trkpt><trkpt lat="45.7110383" lon="8.2910833"><ele>344.0</ele><time>2026-03-29T14:30:04.005Z</time></trkpt><trkpt lat="45.7109867" lon="8.2912783"><ele>344.0</ele><time>2026-03-29T14:30:05.004Z</time></trkpt><trkpt lat="45.710945" lon="8.291475"><ele>344.0</ele><time>2026-03-29T14:30:06.005Z</time></trkpt><trkpt lat="45.7108983" lon="8.29168"><ele>344.0</ele><time>2026-03-29T14:30:07.004Z</time></trkpt><trkpt lat="45.7108617" lon="8.2918783"><ele>344.0</ele><time>2026-03-29T14:30:08.005Z</time></trkpt><trkpt lat="45.710805" lon="8.2920883"><ele>344.0</ele><time>2026-03-29T14:30:09.005Z</time></trkpt><trkpt lat="45.7107533" lon="8.29228"><ele>344.0</ele><time>2026-03-29T14:30:10.005Z</time></trkpt><trkpt lat="45.7107183" lon="8.2924733"><ele>344.0</ele><time>2026-03-29T14:30:11.005Z</time></trkpt><trkpt lat="45.7106867" lon="8.2926367"><ele>344.2</ele><time>2026-03-29T14:30:12.004Z</time></trkpt><trkpt lat="45.7106633" lon="8.2927867"><ele>344.4</ele><time>2026-03-29T14:30:13.005Z</time></trkpt><trkpt lat="45.7106333" lon="8.2929083"><ele>344.6</ele><time>2026-03-29T14:30:14.005Z</time></trkpt><trkpt lat="45.7106" lon="8.2930383"><ele>344.8</ele><time>2026-03-29T14:30:15.004Z</time></trkpt><trkpt lat="45.71056" lon="8.29317"><ele>345.0</ele><time>2026-03-29T14:30:16.005Z</time></trkpt><trkpt lat="45.7105267" lon="8.293315"><ele>345.2</ele><time>2026-03-29T14:30:17.004Z</time></trkpt><trkpt lat="45.710505" lon="8.2934533"><ele>345.4</ele><time>2026-03-29T14:30:18.005Z</time></trkpt><trkpt lat="45.7104833" lon="8.2936033"><ele>345.6</ele><time>2026-03-29T14:30:19.005Z</time></trkpt><trkpt lat="45.710445" lon="8.2937483"><ele>345.8</ele><time>2026-03-29T14:30:20.005Z</time></trkpt><trkpt lat="45.7103917" lon="8.2938867"><ele>346.0</ele><time>2026-03-29T14:30:21.005Z</time></trkpt><trkpt lat="45.710335" lon="8.2940333"><ele>346.0</ele><time>2026-03-29T14:30:22.005Z</time></trkpt><trkpt lat="45.7103" lon="8.2941983"><ele>346.0</ele><time>2026-03-29T14:30:23.004Z</time></trkpt><trkpt lat="45.7102583" lon="8.294395"><ele>346.0</ele><time>2026-03-29T14:30:24.004Z</time></trkpt><trkpt lat="45.71022" lon="8.2946067"><ele>346.0</ele><time>2026-03-29T14:30:25.004Z</time></trkpt><trkpt lat="45.7101583" lon="8.2948033"><ele>345.3333333333333</ele><time>2026-03-29T14:30:26.004Z</time></trkpt><trkpt lat="45.71011" lon="8.2950267"><ele>344.6666666666667</ele><time>2026-03-29T14:30:27.005Z</time></trkpt><trkpt lat="45.7100367" lon="8.2952717"><ele>344.0</ele><time>2026-03-29T14:30:28.005Z</time></trkpt><trkpt lat="45.709965" lon="8.2955233"><ele>343.6666666666667</ele><time>2026-03-29T14:30:29.005Z</time></trkpt><trkpt lat="45.7098967" lon="8.2957733"><ele>343.3333333333333</ele><time>2026-03-29T14:30:30.004Z</time></trkpt><trkpt lat="45.7098483" lon="8.2960467"><ele>343.0</ele><time>2026-03-29T14:30:31.005Z</time></trkpt><trkpt lat="45.7097817" lon="8.2963083"><ele>343.0</ele><time>2026-03-29T14:30:32.005Z</time></trkpt><trkpt lat="45.7097033" lon="8.2965983"><ele>343.0</ele><time>2026-03-29T14:30:33.005Z</time></trkpt><trkpt lat="45.7096383" lon="8.2969"><ele>343.0</ele><time>2026-03-29T14:30:34.005Z</time></trkpt><trkpt lat="45.70957" lon="8.2972067"><ele>342.66666666666663</ele><time>2026-03-29T14:30:35.005Z</time></trkpt><trkpt lat="45.7095017" lon="8.2975017"><ele>342.3333333333333</ele><time>2026-03-29T14:30:36.005Z</time></trkpt><trkpt lat="45.709455" lon="8.2977667"><ele>342.0</ele><time>2026-03-29T14:30:37.004Z</time></trkpt><trkpt lat="45.7093983" lon="8.2980217"><ele>341.0</ele><time>2026-03-29T14:30:38.005Z</time></trkpt><trkpt lat="45.7093433" lon="8.2982667"><ele>340.0</ele><time>2026-03-29T14:30:39.005Z</time></trkpt><trkpt lat="45.7092933" lon="8.2985033"><ele>339.0</ele><time>2026-03-29T14:30:40.004Z</time></trkpt><trkpt lat="45.7092383" lon="8.2987333"><ele>339.3333333333333</ele><time>2026-03-29T14:30:41.004Z</time></trkpt><trkpt lat="45.70918" lon="8.2989583"><ele>339.66666666666663</ele><time>2026-03-29T14:30:42.004Z</time></trkpt><trkpt lat="45.7091" lon="8.29914"><ele>340.0</ele><time>2026-03-29T14:30:43.005Z</time></trkpt><trkpt lat="45.708995" lon="8.29929"><ele>340.0</ele><time>2026-03-29T14:30:44.004Z</time></trkpt><trkpt lat="45.7088733" lon="8.299405"><ele>340.0</ele><time>2026-03-29T14:30:45.005Z</time></trkpt><trkpt lat="45.7087067" lon="8.29947"><ele>340.0</ele><time>2026-03-29T14:30:46.004Z</time></trkpt><trkpt lat="45.7085433" lon="8.2995383"><ele>339.0</ele><time>2026-03-29T14:30:47.005Z</time></trkpt><trkpt lat="45.7084017" lon="8.2995733"><ele>338.0</ele><time>2026-03-29T14:30:48.004Z</time></trkpt><trkpt lat="45.7082267" lon="8.2996017"><ele>337.0</ele><time>2026-03-29T14:30:49.005Z</time></trkpt><trkpt lat="45.70806" lon="8.29963"><ele>337.0</ele><time>2026-03-29T14:30:50.005Z</time></trkpt><trkpt lat="45.7078967" lon="8.29966"><ele>337.0</ele><time>2026-03-29T14:30:51.005Z</time></trkpt><trkpt lat="45.70774" lon="8.2996983"><ele>337.0</ele><time>2026-03-29T14:30:52.005Z</time></trkpt><trkpt lat="45.7075867" lon="8.299735"><ele>335.66666666666663</ele><time>2026-03-29T14:30:53.005Z</time></trkpt><trkpt lat="45.7074117" lon="8.2997417"><ele>334.3333333333333</ele><time>2026-03-29T14:30:54.004Z</time></trkpt><trkpt lat="45.7072417" lon="8.2997433"><ele>333.0</ele><time>2026-03-29T14:30:55.005Z</time></trkpt><trkpt lat="45.7070667" lon="8.2997717"><ele>334.59999999999997</ele><time>2026-03-29T14:30:56.005Z</time></trkpt><trkpt lat="45.7069267" lon="8.29982"><ele>336.2</ele><time>2026-03-29T14:30:57.005Z</time></trkpt><trkpt lat="45.7068183" lon="8.29985"><ele>337.8</ele><time>2026-03-29T14:30:58.005Z</time></trkpt><trkpt lat="45.70674" lon="8.2998933"><ele>339.4</ele><time>2026-03-29T14:31:00.005Z</time></trkpt><trkpt lat="45.7066633" lon="8.2999083"><ele>341.0</ele><time>2026-03-29T14:31:14.004Z</time></trkpt><trkpt lat="45.70659" lon="8.2999283"><ele>341.0</ele><time>2026-03-29T14:31:15.005Z</time></trkpt><trkpt lat="45.7064433" lon="8.29996"><ele>341.0</ele><time>2026-03-29T14:31:16.005Z</time></trkpt><trkpt lat="45.7062817" lon="8.2999833"><ele>341.0</ele><time>2026-03-29T14:31:17.005Z</time></trkpt><trkpt lat="45.7061367" lon="8.30001"><ele>340.6666666666667</ele><time>2026-03-29T14:31:18.005Z</time></trkpt><trkpt lat="45.705985" lon="8.3000283"><ele>340.3333333333333</ele><time>2026-03-29T14:31:19.005Z</time></trkpt><trkpt lat="45.7057167" lon="8.3000383"><ele>340.0</ele><time>2026-03-29T14:31:20.005Z</time></trkpt><trkpt lat="45.70553" lon="8.300075"><ele>340.0</ele><time>2026-03-29T14:31:21.004Z</time></trkpt><trkpt lat="45.7053583" lon="8.3001217"><ele>340.0</ele><time>2026-03-29T14:31:22.005Z</time></trkpt><trkpt lat="45.7051817" lon="8.3001667"><ele>340.0</ele><time>2026-03-29T14:31:23.005Z</time></trkpt><trkpt lat="45.70501" lon="8.3002"><ele>338.66666666666663</ele><time>2026-03-29T14:31:24.005Z</time></trkpt><trkpt lat="45.70484" lon="8.3002133"><ele>337.3333333333333</ele><time>2026-03-29T14:31:25.005Z</time></trkpt><trkpt lat="45.70468" lon="8.3002233"><ele>336.0</ele><time>2026-03-29T14:31:26.004Z</time></trkpt><trkpt lat="45.7045483" lon="8.300265"><ele>336.0</ele><time>2026-03-29T14:31:27.005Z</time></trkpt><trkpt lat="45.70444" lon="8.3002967"><ele>336.0</ele><time>2026-03-29T14:31:28.005Z</time></trkpt><trkpt lat="45.7043983" lon="8.300475"><ele>336.0</ele><time>2026-03-29T14:31:31.004Z</time></trkpt><trkpt lat="45.7043417" lon="8.3005417"><ele>336.0</ele><time>2026-03-29T14:31:32.005Z</time></trkpt><trkpt lat="45.7041633" lon="8.300685"><ele>337.3333333333333</ele><time>2026-03-29T14:31:34.005Z</time></trkpt><trkpt lat="45.7040217" lon="8.3007633"><ele>338.66666666666663</ele><time>2026-03-29T14:31:35.005Z</time></trkpt><trkpt lat="45.7038683" lon="8.300825"><ele>340.0</ele><time>2026-03-29T14:31:36.004Z</time></trkpt><trkpt lat="45.7036983" lon="8.3008933"><ele>337.3333333333333</ele><time>2026-03-29T14:31:37.005Z</time></trkpt><trkpt lat="45.7035167" lon="8.30095"><ele>334.6666666666667</ele><time>2026-03-29T14:31:38.004Z</time></trkpt><trkpt lat="45.7033333" lon="8.3010333"><ele>332.0</ele><time>2026-03-29T14:31:39.005Z</time></trkpt><trkpt lat="45.703165" lon="8.3011"><ele>332.0</ele><time>2026-03-29T14:31:40.005Z</time></trkpt><trkpt lat="45.7029783" lon="8.3011617"><ele>332.0</ele><time>2026-03-29T14:31:41.005Z</time></trkpt><trkpt lat="45.702825" lon="8.30127"><ele>332.0</ele><time>2026-03-29T14:31:42.005Z</time></trkpt><trkpt lat="45.702705" lon="8.301415"><ele>331.0</ele><time>2026-03-29T14:31:43.005Z</time></trkpt><trkpt lat="45.7026483" lon="8.3016367"><ele>330.0</ele><time>2026-03-29T14:31:44.005Z</time></trkpt><trkpt lat="45.7025867" lon="8.3018617"><ele>329.0</ele><time>2026-03-29T14:31:45.004Z</time></trkpt><trkpt lat="45.7025283" lon="8.3021133"><ele>330.33333333333337</ele><time>2026-03-29T14:31:46.004Z</time></trkpt><trkpt lat="45.7024617" lon="8.3023683"><ele>331.6666666666667</ele><time>2026-03-29T14:31:47.005Z</time></trkpt><trkpt lat="45.7024017" lon="8.302625"><ele>333.0</ele><time>2026-03-29T14:31:48.005Z</time></trkpt><trkpt lat="45.70235" lon="8.3028467"><ele>333.0</ele><time>2026-03-29T14:31:49.005Z</time></trkpt><trkpt lat="45.7023067" lon="8.3030483"><ele>333.0</ele><time>2026-03-29T14:31:50.004Z</time></trkpt><trkpt lat="45.7023117" lon="8.303265"><ele>333.0</ele><time>2026-03-29T14:31:51.005Z</time></trkpt><trkpt lat="45.7023417" lon="8.3035"><ele>335.0</ele><time>2026-03-29T14:31:52.005Z</time></trkpt><trkpt lat="45.70238" lon="8.3037217"><ele>337.0</ele><time>2026-03-29T14:31:53.004Z</time></trkpt><trkpt lat="45.7023833" lon="8.3039517"><ele>339.0</ele><time>2026-03-29T14:31:54.004Z</time></trkpt><trkpt lat="45.7023467" lon="8.3041883"><ele>340.0</ele><time>2026-03-29T14:31:55.004Z</time></trkpt><trkpt lat="45.7022617" lon="8.3044133"><ele>341.0</ele><time>2026-03-29T14:31:56.005Z</time></trkpt><trkpt lat="45.7021633" lon="8.3046233"><ele>342.0</ele><time>2026-03-29T14:31:57.004Z</time></trkpt><trkpt lat="45.702035" lon="8.30483"><ele>337.0</ele><time>2026-03-29T14:31:58.004Z</time></trkpt><trkpt lat="45.701885" lon="8.30506"><ele>332.0</ele><time>2026-03-29T14:31:59.005Z</time></trkpt><trkpt lat="45.7017267" lon="8.3053133"><ele>332.0</ele><time>2026-03-29T14:32:00.004Z</time></trkpt><trkpt lat="45.7015567" lon="8.3055667"><ele>332.0</ele><time>2026-03-29T14:32:01.004Z</time></trkpt><trkpt lat="45.7014033" lon="8.3058033"><ele>331.6666666666667</ele><time>2026-03-29T14:32:02.005Z</time></trkpt><trkpt lat="45.70124" lon="8.3060033"><ele>331.3333333333333</ele><time>2026-03-29T14:32:03.005Z</time></trkpt><trkpt lat="45.701075" lon="8.30618"><ele>331.0</ele><time>2026-03-29T14:32:04.005Z</time></trkpt><trkpt lat="45.7008933" lon="8.3063267"><ele>333.0</ele><time>2026-03-29T14:32:05.005Z</time></trkpt><trkpt lat="45.7006867" lon="8.306475"><ele>335.0</ele><time>2026-03-29T14:32:06.005Z</time></trkpt><trkpt lat="45.7004883" lon="8.3065983"><ele>337.0</ele><time>2026-03-29T14:32:07.005Z</time></trkpt><trkpt lat="45.700225" lon="8.30672"><ele>337.0</ele><time>2026-03-29T14:32:08.005Z</time></trkpt><trkpt lat="45.69998" lon="8.3068533"><ele>337.0</ele><time>2026-03-29T14:32:09.005Z</time></trkpt><trkpt lat="45.699755" lon="8.3069617"><ele>337.0</ele><time>2026-03-29T14:32:10.004Z</time></trkpt><trkpt lat="45.6995217" lon="8.3070583"><ele>337.0</ele><time>2026-03-29T14:32:11.005Z</time></trkpt><trkpt lat="45.6993067" lon="8.3071533"><ele>342.5</ele><time>2026-03-29T14:32:12.004Z</time></trkpt><trkpt lat="45.69909" lon="8.3072933"><ele>348.0</ele><time>2026-03-29T14:32:13.005Z</time></trkpt><trkpt lat="45.698875" lon="8.3074767"><ele>348.0</ele><time>2026-03-29T14:32:14.004Z</time></trkpt><trkpt lat="45.6986867" lon="8.307735"><ele>348.0</ele><time>2026-03-29T14:32:15.005Z</time></trkpt><trkpt lat="45.6985117" lon="8.3079967"><ele>343.0</ele><time>2026-03-29T14:32:16.005Z</time></trkpt><trkpt lat="45.698345" lon="8.3082383"><ele>338.0</ele><time>2026-03-29T14:32:17.005Z</time></trkpt><trkpt lat="45.6982" lon="8.3084783"><ele>338.0</ele><time>2026-03-29T14:32:18.004Z</time></trkpt><trkpt lat="45.6981083" lon="8.3087767"><ele>338.0</ele><time>2026-03-29T14:32:19.005Z</time></trkpt><trkpt lat="45.6980267" lon="8.309125"><ele>343.0</ele><time>2026-03-29T14:32:20.005Z</time></trkpt><trkpt lat="45.6979567" lon="8.3094817"><ele>348.0</ele><time>2026-03-29T14:32:21.004Z</time></trkpt><trkpt lat="45.6978883" lon="8.309855"><ele>348.5</ele><time>2026-03-29T14:32:22.004Z</time></trkpt><trkpt lat="45.697785" lon="8.3102183"><ele>349.0</ele><time>2026-03-29T14:32:23.005Z</time></trkpt><trkpt lat="45.6976583" lon="8.3105567"><ele>339.0</ele><time>2026-03-29T14:32:24.005Z</time></trkpt><trkpt lat="45.6975" lon="8.3108733"><ele>329.0</ele><time>2026-03-29T14:32:25.005Z</time></trkpt><trkpt lat="45.6973517" lon="8.3111783"><ele>339.0</ele><time>2026-03-29T14:32:26.005Z</time></trkpt><trkpt lat="45.697185" lon="8.31148"><ele>349.0</ele><time>2026-03-29T14:32:27.005Z</time></trkpt><trkpt lat="45.6970167" lon="8.3117983"><ele>343.5</ele><time>2026-03-29T14:32:28.004Z</time></trkpt><trkpt lat="45.6968517" lon="8.3121117"><ele>338.0</ele><time>2026-03-29T14:32:29.005Z</time></trkpt><trkpt lat="45.6966817" lon="8.3124"><ele>338.0</ele><time>2026-03-29T14:32:30.004Z</time></trkpt><trkpt lat="45.6965533" lon="8.312735"><ele>338.0</ele><time>2026-03-29T14:32:31.005Z</time></trkpt><trkpt lat="45.6964483" lon="8.31307"><ele>344.0</ele><time>2026-03-29T14:32:32.004Z</time></trkpt><trkpt lat="45.6963467" lon="8.3133917"><ele>350.0</ele><time>2026-03-29T14:32:33.004Z</time></trkpt><trkpt lat="45.6962433" lon="8.3136983"><ele>353.5</ele><time>2026-03-29T14:32:34.004Z</time></trkpt><trkpt lat="45.696135" lon="8.313995"><ele>357.0</ele><time>2026-03-29T14:32:35.005Z</time></trkpt><trkpt lat="45.6960183" lon="8.3142783"><ele>355.3333333333333</ele><time>2026-03-29T14:32:36.005Z</time></trkpt><trkpt lat="45.6958733" lon="8.3145233"><ele>353.66666666666663</ele><time>2026-03-29T14:32:37.005Z</time></trkpt><trkpt lat="45.6957167" lon="8.3147317"><ele>352.0</ele><time>2026-03-29T14:32:38.005Z</time></trkpt><trkpt lat="45.6955383" lon="8.3148983"><ele>352.0</ele><time>2026-03-29T14:32:39.005Z</time></trkpt><trkpt lat="45.6953333" lon="8.3150167"><ele>352.0</ele><time>2026-03-29T14:32:40.005Z</time></trkpt><trkpt lat="45.69513" lon="8.3151033"><ele>352.0</ele><time>2026-03-29T14:32:41.005Z</time></trkpt><trkpt lat="45.6949567" lon="8.3151617"><ele>345.66666666666663</ele><time>2026-03-29T14:32:42.005Z</time></trkpt><trkpt lat="45.69479" lon="8.3152383"><ele>339.3333333333333</ele><time>2026-03-29T14:32:43.004Z</time></trkpt><trkpt lat="45.6946783" lon="8.315375"><ele>333.0</ele><time>2026-03-29T14:32:44.005Z</time></trkpt><trkpt lat="45.6946133" lon="8.3155583"><ele>331.0</ele><time>2026-03-29T14:32:45.005Z</time></trkpt><trkpt lat="45.69454" lon="8.3158083"><ele>329.0</ele><time>2026-03-29T14:32:46.005Z</time></trkpt><trkpt lat="45.6944583" lon="8.3160583"><ele>327.0</ele><time>2026-03-29T14:32:47.004Z</time></trkpt><trkpt lat="45.694325" lon="8.3162567"><ele>327.0</ele><time>2026-03-29T14:32:48.005Z</time></trkpt><trkpt lat="45.6941633" lon="8.3164017"><ele>327.0</ele><time>2026-03-29T14:32:49.005Z</time></trkpt><trkpt lat="45.69398" lon="8.3165033"><ele>327.0</ele><time>2026-03-29T14:32:50.005Z</time></trkpt><trkpt lat="45.6937933" lon="8.3165667"><ele>325.5</ele><time>2026-03-29T14:32:51.005Z</time></trkpt><trkpt lat="45.6936467" lon="8.3166333"><ele>324.0</ele><time>2026-03-29T14:32:52.005Z</time></trkpt><trkpt lat="45.6935333" lon="8.3167033"><ele>322.5</ele><time>2026-03-29T14:32:53.005Z</time></trkpt><trkpt lat="45.6934083" lon="8.31677"><ele>321.0</ele><time>2026-03-29T14:32:54.005Z</time></trkpt><trkpt lat="45.6933" lon="8.3168283"><ele>321.0</ele><time>2026-03-29T14:32:55.004Z</time></trkpt><trkpt lat="45.693195" lon="8.3168933"><ele>321.0</ele><time>2026-03-29T14:32:56.004Z</time></trkpt><trkpt lat="45.6931083" lon="8.3169617"><ele>321.0</ele><time>2026-03-29T14:32:57.005Z</time></trkpt><trkpt lat="45.69301" lon="8.3170217"><ele>321.0</ele><time>2026-03-29T14:32:58.005Z</time></trkpt><trkpt lat="45.69291" lon="8.3170933"><ele>321.0</ele><time>2026-03-29T14:32:59.005Z</time></trkpt><trkpt lat="45.692785" lon="8.3171783"><ele>321.0</ele><time>2026-03-29T14:33:00.005Z</time></trkpt><trkpt lat="45.692655" lon="8.3172717"><ele>321.0</ele><time>2026-03-29T14:33:01.005Z</time></trkpt><trkpt lat="45.6925317" lon="8.31738"><ele>321.0</ele><time>2026-03-29T14:33:02.004Z</time></trkpt><trkpt lat="45.6924117" lon="8.31749"><ele>321.0</ele><time>2026-03-29T14:33:03.005Z</time></trkpt><trkpt lat="45.692305" lon="8.31762"><ele>321.0</ele><time>2026-03-29T14:33:04.005Z</time></trkpt><trkpt lat="45.692205" lon="8.3177583"><ele>321.0</ele><time>2026-03-29T14:33:05.005Z</time></trkpt><trkpt lat="45.6921217" lon="8.3179367"><ele>321.0</ele><time>2026-03-29T14:33:06.004Z</time></trkpt><trkpt lat="45.6920267" lon="8.3181267"><ele>320.6666666666667</ele><time>2026-03-29T14:33:07.005Z</time></trkpt><trkpt lat="45.6918833" lon="8.3183167"><ele>320.33333333333337</ele><time>2026-03-29T14:33:08.005Z</time></trkpt><trkpt lat="45.6917367" lon="8.3185033"><ele>320.0</ele><time>2026-03-29T14:33:09.005Z</time></trkpt><trkpt lat="45.691585" lon="8.3186733"><ele>320.0</ele><time>2026-03-29T14:33:10.005Z</time></trkpt><trkpt lat="45.6914433" lon="8.31883"><ele>320.0</ele><time>2026-03-29T14:33:11.004Z</time></trkpt><trkpt lat="45.6913017" lon="8.318985"><ele>320.0</ele><time>2026-03-29T14:33:12.004Z</time></trkpt><trkpt lat="45.69117" lon="8.3191467"><ele>319.0</ele><time>2026-03-29T14:33:13.005Z</time></trkpt><trkpt lat="45.69106" lon="8.3193183"><ele>318.0</ele><time>2026-03-29T14:33:14.004Z</time></trkpt><trkpt lat="45.6909617" lon="8.3195017"><ele>317.0</ele><time>2026-03-29T14:33:15.005Z</time></trkpt><trkpt lat="45.6908367" lon="8.3196833"><ele>319.33333333333337</ele><time>2026-03-29T14:33:16.004Z</time></trkpt><trkpt lat="45.69071" lon="8.3198883"><ele>321.6666666666667</ele><time>2026-03-29T14:33:17.005Z</time></trkpt><trkpt lat="45.69057" lon="8.32008"><ele>324.0</ele><time>2026-03-29T14:33:18.004Z</time></trkpt><trkpt lat="45.6903867" lon="8.3202683"><ele>322.6666666666667</ele><time>2026-03-29T14:33:19.005Z</time></trkpt><trkpt lat="45.69021" lon="8.32044"><ele>321.33333333333337</ele><time>2026-03-29T14:33:20.005Z</time></trkpt><trkpt lat="45.6900533" lon="8.32058"><ele>320.0</ele><time>2026-03-29T14:33:21.005Z</time></trkpt><trkpt lat="45.68992" lon="8.320705"><ele>320.0</ele><time>2026-03-29T14:33:22.005Z</time></trkpt><trkpt lat="45.6898067" lon="8.3208183"><ele>320.0</ele><time>2026-03-29T14:33:23.005Z</time></trkpt><trkpt lat="45.68969" lon="8.3208983"><ele>320.0</ele><time>2026-03-29T14:33:24.005Z</time></trkpt><trkpt lat="45.6895767" lon="8.320915"><ele>320.0</ele><time>2026-03-29T14:33:25.005Z</time></trkpt><trkpt lat="45.68947" lon="8.320925"><ele>318.6</ele><time>2026-03-29T14:33:26.005Z</time></trkpt><trkpt lat="45.6893967" lon="8.3209683"><ele>317.2</ele><time>2026-03-29T14:33:27.004Z</time></trkpt><trkpt lat="45.68937" lon="8.3210633"><ele>315.8</ele><time>2026-03-29T14:33:28.005Z</time></trkpt><trkpt lat="45.6893833" lon="8.3211983"><ele>314.4</ele><time>2026-03-29T14:33:29.004Z</time></trkpt><trkpt lat="45.689415" lon="8.321335"><ele>313.0</ele><time>2026-03-29T14:33:30.004Z</time></trkpt><trkpt lat="45.6894283" lon="8.3215083"><ele>312.3333333333333</ele><time>2026-03-29T14:33:31.005Z</time></trkpt><trkpt lat="45.6894133" lon="8.3217133"><ele>311.6666666666667</ele><time>2026-03-29T14:33:32.004Z</time></trkpt><trkpt lat="45.6893383" lon="8.3219383"><ele>311.0</ele><time>2026-03-29T14:33:33.005Z</time></trkpt><trkpt lat="45.6892333" lon="8.3221883"><ele>314.33333333333337</ele><time>2026-03-29T14:33:34.005Z</time></trkpt><trkpt lat="45.6891117" lon="8.3224317"><ele>317.6666666666667</ele><time>2026-03-29T14:33:35.004Z</time></trkpt><trkpt lat="45.6889833" lon="8.3226933"><ele>321.0</ele><time>2026-03-29T14:33:36.005Z</time></trkpt><trkpt lat="45.6888317" lon="8.322955"><ele>318.0</ele><time>2026-03-29T14:33:37.004Z</time></trkpt><trkpt lat="45.6886633" lon="8.3232217"><ele>315.0</ele><time>2026-03-29T14:33:38.005Z</time></trkpt><trkpt lat="45.6884983" lon="8.3234933"><ele>315.0</ele><time>2026-03-29T14:33:39.004Z</time></trkpt><trkpt lat="45.68833" lon="8.3237667"><ele>315.0</ele><time>2026-03-29T14:33:40.005Z</time></trkpt><trkpt lat="45.6881717" lon="8.3240083"><ele>323.0</ele><time>2026-03-29T14:33:41.004Z</time></trkpt><trkpt lat="45.68802" lon="8.3242433"><ele>331.0</ele><time>2026-03-29T14:33:42.005Z</time></trkpt><trkpt lat="45.6878683" lon="8.3244867"><ele>325.66666666666663</ele><time>2026-03-29T14:33:43.005Z</time></trkpt><trkpt lat="45.6877317" lon="8.32475"><ele>320.3333333333333</ele><time>2026-03-29T14:33:44.005Z</time></trkpt><trkpt lat="45.6876133" lon="8.325005"><ele>315.0</ele><time>2026-03-29T14:33:45.004Z</time></trkpt><trkpt lat="45.6875117" lon="8.3252217"><ele>315.0</ele><time>2026-03-29T14:33:46.005Z</time></trkpt><trkpt lat="45.6874033" lon="8.3254367"><ele>315.0</ele><time>2026-03-29T14:33:47.005Z</time></trkpt><trkpt lat="45.6872917" lon="8.3256317"><ele>315.0</ele><time>2026-03-29T14:33:48.004Z</time></trkpt><trkpt lat="45.68719" lon="8.325775"><ele>316.3333333333333</ele><time>2026-03-29T14:33:49.005Z</time></trkpt><trkpt lat="45.6870583" lon="8.325905"><ele>317.66666666666663</ele><time>2026-03-29T14:33:50.005Z</time></trkpt><trkpt lat="45.6869033" lon="8.3259733"><ele>319.0</ele><time>2026-03-29T14:33:51.005Z</time></trkpt><trkpt lat="45.6867433" lon="8.3260267"><ele>319.0</ele><time>2026-03-29T14:33:52.004Z</time></trkpt><trkpt lat="45.6865617" lon="8.326065"><ele>319.0</ele><time>2026-03-29T14:33:53.004Z</time></trkpt><trkpt lat="45.6863617" lon="8.3261083"><ele>319.0</ele><time>2026-03-29T14:33:54.005Z</time></trkpt><trkpt lat="45.686145" lon="8.32616"><ele>317.66666666666663</ele><time>2026-03-29T14:33:55.004Z</time></trkpt><trkpt lat="45.68593" lon="8.3262233"><ele>316.3333333333333</ele><time>2026-03-29T14:33:56.004Z</time></trkpt><trkpt lat="45.685715" lon="8.32629"><ele>315.0</ele><time>2026-03-29T14:33:57.005Z</time></trkpt><trkpt lat="45.685505" lon="8.3263367"><ele>315.6666666666667</ele><time>2026-03-29T14:33:58.005Z</time></trkpt><trkpt lat="45.6853083" lon="8.3264133"><ele>316.33333333333337</ele><time>2026-03-29T14:33:59.004Z</time></trkpt><trkpt lat="45.68512" lon="8.32648"><ele>317.0</ele><time>2026-03-29T14:34:00.005Z</time></trkpt><trkpt lat="45.6849483" lon="8.3265217"><ele>317.0</ele><time>2026-03-29T14:34:01.005Z</time></trkpt><trkpt lat="45.6848067" lon="8.326635"><ele>317.0</ele><time>2026-03-29T14:34:02.005Z</time></trkpt><trkpt lat="45.6847" lon="8.326815"><ele>317.0</ele><time>2026-03-29T14:34:03.005Z</time></trkpt><trkpt lat="45.6846283" lon="8.3270333"><ele>322.33333333333337</ele><time>2026-03-29T14:34:04.004Z</time></trkpt><trkpt lat="45.6845867" lon="8.3272967"><ele>327.6666666666667</ele><time>2026-03-29T14:34:05.004Z</time></trkpt><trkpt lat="45.684575" lon="8.327555"><ele>333.0</ele><time>2026-03-29T14:34:06.005Z</time></trkpt><trkpt lat="45.6845483" lon="8.32783"><ele>332.6666666666667</ele><time>2026-03-29T14:34:07.005Z</time></trkpt><trkpt lat="45.6845167" lon="8.328135"><ele>332.33333333333337</ele><time>2026-03-29T14:34:08.005Z</time></trkpt><trkpt lat="45.6844817" lon="8.3284467"><ele>332.0</ele><time>2026-03-29T14:34:09.005Z</time></trkpt><trkpt lat="45.684445" lon="8.32876"><ele>327.0</ele><time>2026-03-29T14:34:10.004Z</time></trkpt><trkpt lat="45.6844067" lon="8.3290783"><ele>322.0</ele><time>2026-03-29T14:34:11.004Z</time></trkpt><trkpt lat="45.6843733" lon="8.3293933"><ele>317.0</ele><time>2026-03-29T14:34:12.005Z</time></trkpt><trkpt lat="45.68434" lon="8.329695"><ele>317.6666666666667</ele><time>2026-03-29T14:34:13.005Z</time></trkpt><trkpt lat="45.684315" lon="8.32999"><ele>318.3333333333333</ele><time>2026-03-29T14:34:14.005Z</time></trkpt><trkpt lat="45.68427" lon="8.3302717"><ele>319.0</ele><time>2026-03-29T14:34:15.005Z</time></trkpt><trkpt lat="45.684225" lon="8.3305383"><ele>319.66666666666663</ele><time>2026-03-29T14:34:16.005Z</time></trkpt><trkpt lat="45.6841867" lon="8.330795"><ele>320.3333333333333</ele><time>2026-03-29T14:34:17.005Z</time></trkpt><trkpt lat="45.6841467" lon="8.33105"><ele>321.0</ele><time>2026-03-29T14:34:18.004Z</time></trkpt><trkpt lat="45.68412" lon="8.3312983"><ele>321.6666666666667</ele><time>2026-03-29T14:34:19.005Z</time></trkpt><trkpt lat="45.6840933" lon="8.331535"><ele>322.33333333333337</ele><time>2026-03-29T14:34:20.005Z</time></trkpt><trkpt lat="45.6840667" lon="8.3317717"><ele>323.0</ele><time>2026-03-29T14:34:21.005Z</time></trkpt><trkpt lat="45.68403" lon="8.332025"><ele>323.0</ele><time>2026-03-29T14:34:22.005Z</time></trkpt><trkpt lat="45.6840067" lon="8.3322883"><ele>323.0</ele><time>2026-03-29T14:34:23.004Z</time></trkpt><trkpt lat="45.6839833" lon="8.3325433"><ele>323.0</ele><time>2026-03-29T14:34:24.005Z</time></trkpt><trkpt lat="45.6839517" lon="8.3327917"><ele>323.0</ele><time>2026-03-29T14:34:25.005Z</time></trkpt><trkpt lat="45.6839233" lon="8.3330517"><ele>323.0</ele><time>2026-03-29T14:34:26.004Z</time></trkpt><trkpt lat="45.68387" lon="8.3332883"><ele>323.0</ele><time>2026-03-29T14:34:27.004Z</time></trkpt><trkpt lat="45.68379" lon="8.33353"><ele>323.0</ele><time>2026-03-29T14:34:28.005Z</time></trkpt><trkpt lat="45.683705" lon="8.33374"><ele>323.0</ele><time>2026-03-29T14:34:29.005Z</time></trkpt><trkpt lat="45.6836117" lon="8.33395"><ele>323.0</ele><time>2026-03-29T14:34:30.004Z</time></trkpt><trkpt lat="45.6835067" lon="8.334165"><ele>323.0</ele><time>2026-03-29T14:34:31.005Z</time></trkpt><trkpt lat="45.6833817" lon="8.334425"><ele>323.0</ele><time>2026-03-29T14:34:32.004Z</time></trkpt><trkpt lat="45.6832533" lon="8.3346617"><ele>323.0</ele><time>2026-03-29T14:34:33.005Z</time></trkpt><trkpt lat="45.683145" lon="8.3348967"><ele>323.0</ele><time>2026-03-29T14:34:34.005Z</time></trkpt><trkpt lat="45.6830433" lon="8.3351167"><ele>323.0</ele><time>2026-03-29T14:34:35.004Z</time></trkpt><trkpt lat="45.6829233" lon="8.3353317"><ele>323.0</ele><time>2026-03-29T14:34:36.004Z</time></trkpt><trkpt lat="45.6828333" lon="8.335525"><ele>322.75</ele><time>2026-03-29T14:34:37.004Z</time></trkpt><trkpt lat="45.6827583" lon="8.3357083"><ele>322.5</ele><time>2026-03-29T14:34:38.004Z</time></trkpt><trkpt lat="45.682675" lon="8.3358817"><ele>322.25</ele><time>2026-03-29T14:34:39.005Z</time></trkpt><trkpt lat="45.6826283" lon="8.3360183"><ele>322.0</ele><time>2026-03-29T14:34:40.005Z</time></trkpt><trkpt lat="45.68257" lon="8.3361417"><ele>322.0</ele><time>2026-03-29T14:34:41.005Z</time></trkpt><trkpt lat="45.682515" lon="8.3362533"><ele>322.0</ele><time>2026-03-29T14:34:42.004Z</time></trkpt><trkpt lat="45.6824567" lon="8.3363733"><ele>322.0</ele><time>2026-03-29T14:34:43.005Z</time></trkpt><trkpt lat="45.682405" lon="8.3364867"><ele>322.0</ele><time>2026-03-29T14:34:44.005Z</time></trkpt><trkpt lat="45.68235" lon="8.3366133"><ele>322.0</ele><time>2026-03-29T14:34:45.004Z</time></trkpt><trkpt lat="45.6822917" lon="8.3367517"><ele>321.8</ele><time>2026-03-29T14:34:46.005Z</time></trkpt><trkpt lat="45.6822233" lon="8.3368767"><ele>321.6</ele><time>2026-03-29T14:34:47.005Z</time></trkpt><trkpt lat="45.6821667" lon="8.3369917"><ele>321.40000000000003</ele><time>2026-03-29T14:34:48.004Z</time></trkpt><trkpt lat="45.68211" lon="8.3371017"><ele>321.20000000000005</ele><time>2026-03-29T14:34:49.005Z</time></trkpt><trkpt lat="45.6820517" lon="8.337225"><ele>321.0</ele><time>2026-03-29T14:34:50.005Z</time></trkpt><trkpt lat="45.6819833" lon="8.3373483"><ele>321.0</ele><time>2026-03-29T14:34:51.005Z</time></trkpt><trkpt lat="45.6819267" lon="8.3374767"><ele>321.0</ele><time>2026-03-29T14:34:52.005Z</time></trkpt><trkpt lat="45.68186" lon="8.3375917"><ele>321.0</ele><time>2026-03-29T14:34:53.004Z</time></trkpt><trkpt lat="45.6817817" lon="8.337685"><ele>321.0</ele><time>2026-03-29T14:34:54.005Z</time></trkpt><trkpt lat="45.6816567" lon="8.3377533"><ele>321.0</ele><time>2026-03-29T14:34:55.005Z</time></trkpt><trkpt lat="45.6815333" lon="8.33782"><ele>321.0</ele><time>2026-03-29T14:34:56.005Z</time></trkpt><trkpt lat="45.6814133" lon="8.3378783"><ele>321.0</ele><time>2026-03-29T14:34:57.005Z</time></trkpt><trkpt lat="45.6813117" lon="8.3379317"><ele>321.0</ele><time>2026-03-29T14:34:58.005Z</time></trkpt><trkpt lat="45.6812233" lon="8.337995"><ele>321.0</ele><time>2026-03-29T14:34:59.003Z</time></trkpt><trkpt lat="45.6811267" lon="8.3380567"><ele>321.0</ele><time>2026-03-29T14:35:00.003Z</time></trkpt><trkpt lat="45.6810133" lon="8.3381133"><ele>320.25</ele><time>2026-03-29T14:35:01.004Z</time></trkpt><trkpt lat="45.68091" lon="8.3381883"><ele>319.5</ele><time>2026-03-29T14:35:02.004Z</time></trkpt><trkpt lat="45.6808067" lon="8.3382883"><ele>318.75</ele><time>2026-03-29T14:35:03.004Z</time></trkpt><trkpt lat="45.680715" lon="8.3384017"><ele>318.0</ele><time>2026-03-29T14:35:04.003Z</time></trkpt><trkpt lat="45.6806233" lon="8.338535"><ele>318.0</ele><time>2026-03-29T14:35:05.003Z</time></trkpt><trkpt lat="45.68052" lon="8.3386667"><ele>318.0</ele><time>2026-03-29T14:35:06.003Z</time></trkpt><trkpt lat="45.6804417" lon="8.3387983"><ele>318.0</ele><time>2026-03-29T14:35:07.004Z</time></trkpt><trkpt lat="45.6803783" lon="8.338935"><ele>318.0</ele><time>2026-03-29T14:35:08.003Z</time></trkpt><trkpt lat="45.6803067" lon="8.3390467"><ele>317.6</ele><time>2026-03-29T14:35:09.004Z</time></trkpt><trkpt lat="45.6802267" lon="8.339155"><ele>317.20000000000005</ele><time>2026-03-29T14:35:10.003Z</time></trkpt><trkpt lat="45.6801517" lon="8.339265"><ele>316.8</ele><time>2026-03-29T14:35:11.004Z</time></trkpt><trkpt lat="45.6800833" lon="8.3393683"><ele>316.40000000000003</ele><time>2026-03-29T14:35:12.003Z</time></trkpt><trkpt lat="45.6800183" lon="8.3394783"><ele>316.0</ele><time>2026-03-29T14:35:13.004Z</time></trkpt><trkpt lat="45.6799467" lon="8.33959"><ele>316.0</ele><time>2026-03-29T14:35:14.004Z</time></trkpt><trkpt lat="45.67987" lon="8.3396983"><ele>316.0</ele><time>2026-03-29T14:35:15.004Z</time></trkpt><trkpt lat="45.679795" lon="8.339805"><ele>316.0</ele><time>2026-03-29T14:35:16.004Z</time></trkpt><trkpt lat="45.67972" lon="8.3399067"><ele>316.0</ele><time>2026-03-29T14:35:17.004Z</time></trkpt><trkpt lat="45.6796283" lon="8.3399983"><ele>316.0</ele><time>2026-03-29T14:35:18.004Z</time></trkpt><trkpt lat="45.6795467" lon="8.3400717"><ele>316.16666666666663</ele><time>2026-03-29T14:35:19.004Z</time></trkpt><trkpt lat="45.6794567" lon="8.3401383"><ele>316.3333333333333</ele><time>2026-03-29T14:35:20.004Z</time></trkpt><trkpt lat="45.679375" lon="8.3402017"><ele>316.5</ele><time>2026-03-29T14:35:21.003Z</time></trkpt><trkpt lat="45.6793017" lon="8.34027"><ele>316.6666666666667</ele><time>2026-03-29T14:35:22.003Z</time></trkpt><trkpt lat="45.679235" lon="8.3403383"><ele>316.83333333333337</ele><time>2026-03-29T14:35:23.004Z</time></trkpt><trkpt lat="45.67917" lon="8.340405"><ele>317.0</ele><time>2026-03-29T14:35:24.004Z</time></trkpt><trkpt lat="45.6791117" lon="8.34046"><ele>316.6</ele><time>2026-03-29T14:35:25.004Z</time></trkpt><trkpt lat="45.6790183" lon="8.3405167"><ele>316.2</ele><time>2026-03-29T14:35:27.004Z</time></trkpt><trkpt lat="45.6789967" lon="8.34064"><ele>315.8</ele><time>2026-03-29T14:35:29.004Z</time></trkpt><trkpt lat="45.6790283" lon="8.3407383"><ele>315.4</ele><time>2026-03-29T14:35:30.004Z</time></trkpt><trkpt lat="45.6790667" lon="8.3408483"><ele>315.0</ele><time>2026-03-29T14:35:31.004Z</time></trkpt><trkpt lat="45.6791417" lon="8.3410117"><ele>315.0</ele><time>2026-03-29T14:35:32.004Z</time></trkpt><trkpt lat="45.6792217" lon="8.341215"><ele>315.0</ele><time>2026-03-29T14:35:33.004Z</time></trkpt><trkpt lat="45.6793" lon="8.3414617"><ele>315.0</ele><time>2026-03-29T14:35:34.003Z</time></trkpt><trkpt lat="45.67938" lon="8.3417333"><ele>317.0</ele><time>2026-03-29T14:35:35.003Z</time></trkpt><trkpt lat="45.6794767" lon="8.3420267"><ele>319.0</ele><time>2026-03-29T14:35:36.003Z</time></trkpt><trkpt lat="45.67958" lon="8.3423267"><ele>319.0</ele><time>2026-03-29T14:35:37.003Z</time></trkpt><trkpt lat="45.6796867" lon="8.3426483"><ele>319.0</ele><time>2026-03-29T14:35:38.003Z</time></trkpt><trkpt lat="45.6797933" lon="8.34296"><ele>318.5</ele><time>2026-03-29T14:35:39.004Z</time></trkpt><trkpt lat="45.6799017" lon="8.34327"><ele>318.0</ele><time>2026-03-29T14:35:40.004Z</time></trkpt><trkpt lat="45.6800117" lon="8.3435817"><ele>318.0</ele><time>2026-03-29T14:35:41.003Z</time></trkpt><trkpt lat="45.6801117" lon="8.343895"><ele>318.0</ele><time>2026-03-29T14:35:42.004Z</time></trkpt><trkpt lat="45.6802267" lon="8.3441933"><ele>319.0</ele><time>2026-03-29T14:35:43.004Z</time></trkpt><trkpt lat="45.6803317" lon="8.3444983"><ele>320.0</ele><time>2026-03-29T14:35:44.004Z</time></trkpt><trkpt lat="45.680445" lon="8.3447833"><ele>320.5</ele><time>2026-03-29T14:35:45.004Z</time></trkpt><trkpt lat="45.6805667" lon="8.3450733"><ele>321.0</ele><time>2026-03-29T14:35:46.004Z</time></trkpt><trkpt lat="45.680685" lon="8.3453417"><ele>321.6666666666667</ele><time>2026-03-29T14:35:47.004Z</time></trkpt><trkpt lat="45.6808067" lon="8.3455933"><ele>322.33333333333337</ele><time>2026-03-29T14:35:48.004Z</time></trkpt><trkpt lat="45.6809233" lon="8.3458183"><ele>323.0</ele><time>2026-03-29T14:35:49.003Z</time></trkpt><trkpt lat="45.68102" lon="8.3460267"><ele>323.0</ele><time>2026-03-29T14:35:50.004Z</time></trkpt><trkpt lat="45.6810933" lon="8.3462067"><ele>323.0</ele><time>2026-03-29T14:35:51.003Z</time></trkpt><trkpt lat="45.6811583" lon="8.3463417"><ele>323.0</ele><time>2026-03-29T14:35:52.004Z</time></trkpt><trkpt lat="45.6811883" lon="8.34647"><ele>323.0</ele><time>2026-03-29T14:35:53.003Z</time></trkpt><trkpt lat="45.6812067" lon="8.3466317"><ele>324.0</ele><time>2026-03-29T14:35:54.004Z</time></trkpt><trkpt lat="45.6812183" lon="8.3468283"><ele>325.0</ele><time>2026-03-29T14:35:55.004Z</time></trkpt><trkpt lat="45.681225" lon="8.3470617"><ele>326.0</ele><time>2026-03-29T14:35:56.004Z</time></trkpt><trkpt lat="45.6812617" lon="8.347305"><ele>326.6666666666667</ele><time>2026-03-29T14:35:57.004Z</time></trkpt><trkpt lat="45.6813183" lon="8.34757"><ele>327.3333333333333</ele><time>2026-03-29T14:35:58.003Z</time></trkpt><trkpt lat="45.6813883" lon="8.3478367"><ele>328.0</ele><time>2026-03-29T14:35:59.004Z</time></trkpt><trkpt lat="45.6814433" lon="8.3481267"><ele>326.66666666666663</ele><time>2026-03-29T14:36:00.004Z</time></trkpt><trkpt lat="45.6815" lon="8.3484133"><ele>325.3333333333333</ele><time>2026-03-29T14:36:01.004Z</time></trkpt><trkpt lat="45.681565" lon="8.3486983"><ele>324.0</ele><time>2026-03-29T14:36:02.003Z</time></trkpt><trkpt lat="45.68162" lon="8.348985"><ele>324.0</ele><time>2026-03-29T14:36:03.003Z</time></trkpt><trkpt lat="45.6816817" lon="8.34925"><ele>324.0</ele><time>2026-03-29T14:36:04.004Z</time></trkpt><trkpt lat="45.6817367" lon="8.34952"><ele>324.0</ele><time>2026-03-29T14:36:05.003Z</time></trkpt><trkpt lat="45.6818067" lon="8.3498067"><ele>323.5</ele><time>2026-03-29T14:36:06.004Z</time></trkpt><trkpt lat="45.6818733" lon="8.3501183"><ele>323.0</ele><time>2026-03-29T14:36:07.004Z</time></trkpt><trkpt lat="45.681935" lon="8.350425"><ele>325.0</ele><time>2026-03-29T14:36:08.004Z</time></trkpt><trkpt lat="45.682005" lon="8.3507383"><ele>327.0</ele><time>2026-03-29T14:36:09.003Z</time></trkpt><trkpt lat="45.68205" lon="8.35106"><ele>327.0</ele><time>2026-03-29T14:36:10.004Z</time></trkpt><trkpt lat="45.68212" lon="8.35135"><ele>327.0</ele><time>2026-03-29T14:36:11.004Z</time></trkpt><trkpt lat="45.6821767" lon="8.3516117"><ele>327.0</ele><time>2026-03-29T14:36:12.003Z</time></trkpt><trkpt lat="45.6822267" lon="8.351855"><ele>327.3333333333333</ele><time>2026-03-29T14:36:13.004Z</time></trkpt><trkpt lat="45.6822783" lon="8.3520867"><ele>327.66666666666663</ele><time>2026-03-29T14:36:14.004Z</time></trkpt><trkpt lat="45.6823117" lon="8.35231"><ele>328.0</ele><time>2026-03-29T14:36:15.003Z</time></trkpt><trkpt lat="45.682345" lon="8.3525417"><ele>328.0</ele><time>2026-03-29T14:36:16.003Z</time></trkpt><trkpt lat="45.6824117" lon="8.3527533"><ele>328.0</ele><time>2026-03-29T14:36:17.003Z</time></trkpt><trkpt lat="45.682475" lon="8.3529383"><ele>328.0</ele><time>2026-03-29T14:36:18.004Z</time></trkpt><trkpt lat="45.6825867" lon="8.3531183"><ele>327.0</ele><time>2026-03-29T14:36:19.004Z</time></trkpt><trkpt lat="45.6827183" lon="8.353295"><ele>326.0</ele><time>2026-03-29T14:36:20.004Z</time></trkpt><trkpt lat="45.6828667" lon="8.3534433"><ele>325.0</ele><time>2026-03-29T14:36:21.004Z</time></trkpt><trkpt lat="45.683025" lon="8.3536033"><ele>327.0</ele><time>2026-03-29T14:36:22.003Z</time></trkpt><trkpt lat="45.68317" lon="8.3537683"><ele>329.0</ele><time>2026-03-29T14:36:23.004Z</time></trkpt><trkpt lat="45.683325" lon="8.3539267"><ele>331.0</ele><time>2026-03-29T14:36:24.004Z</time></trkpt><trkpt lat="45.68346" lon="8.3540733"><ele>331.0</ele><time>2026-03-29T14:36:25.004Z</time></trkpt><trkpt lat="45.6835783" lon="8.3542167"><ele>331.0</ele><time>2026-03-29T14:36:26.003Z</time></trkpt><trkpt lat="45.6837117" lon="8.3543467"><ele>331.0</ele><time>2026-03-29T14:36:27.004Z</time></trkpt><trkpt lat="45.6838217" lon="8.3544883"><ele>331.66666666666663</ele><time>2026-03-29T14:36:28.004Z</time></trkpt><trkpt lat="45.6839483" lon="8.354645"><ele>332.3333333333333</ele><time>2026-03-29T14:36:29.004Z</time></trkpt><trkpt lat="45.6840717" lon="8.3547983"><ele>333.0</ele><time>2026-03-29T14:36:30.004Z</time></trkpt><trkpt lat="45.6841833" lon="8.3549333"><ele>333.0</ele><time>2026-03-29T14:36:31.004Z</time></trkpt><trkpt lat="45.68428" lon="8.355065"><ele>333.0</ele><time>2026-03-29T14:36:32.004Z</time></trkpt><trkpt lat="45.684375" lon="8.3552133"><ele>333.0</ele><time>2026-03-29T14:36:33.004Z</time></trkpt><trkpt lat="45.6844417" lon="8.3553483"><ele>333.0</ele><time>2026-03-29T14:36:34.004Z</time></trkpt><trkpt lat="45.6844817" lon="8.3555633"><ele>334.0</ele><time>2026-03-29T14:36:35.004Z</time></trkpt><trkpt lat="45.68451" lon="8.35577"><ele>335.0</ele><time>2026-03-29T14:36:36.004Z</time></trkpt><trkpt lat="45.684555" lon="8.3560017"><ele>336.0</ele><time>2026-03-29T14:36:37.003Z</time></trkpt><trkpt lat="45.6845867" lon="8.3562517"><ele>336.6666666666667</ele><time>2026-03-29T14:36:38.004Z</time></trkpt><trkpt lat="45.68461" lon="8.356485"><ele>337.33333333333337</ele><time>2026-03-29T14:36:39.004Z</time></trkpt><trkpt lat="45.6846433" lon="8.3567167"><ele>338.0</ele><time>2026-03-29T14:36:40.003Z</time></trkpt><trkpt lat="45.68469" lon="8.35695"><ele>338.0</ele><time>2026-03-29T14:36:41.004Z</time></trkpt><trkpt lat="45.684735" lon="8.357185"><ele>338.0</ele><time>2026-03-29T14:36:42.003Z</time></trkpt><trkpt lat="45.6847783" lon="8.3574083"><ele>338.0</ele><time>2026-03-29T14:36:43.004Z</time></trkpt><trkpt lat="45.6848133" lon="8.3576033"><ele>338.5</ele><time>2026-03-29T14:36:44.004Z</time></trkpt><trkpt lat="45.6848433" lon="8.3577817"><ele>339.0</ele><time>2026-03-29T14:36:45.004Z</time></trkpt><trkpt lat="45.6848733" lon="8.3579583"><ele>339.5</ele><time>2026-03-29T14:36:46.004Z</time></trkpt><trkpt lat="45.6848983" lon="8.358135"><ele>340.0</ele><time>2026-03-29T14:36:47.003Z</time></trkpt><trkpt lat="45.6849317" lon="8.3583083"><ele>340.25</ele><time>2026-03-29T14:36:48.004Z</time></trkpt><trkpt lat="45.685005" lon="8.3584583"><ele>340.5</ele><time>2026-03-29T14:36:49.003Z</time></trkpt><trkpt lat="45.685105" lon="8.3585733"><ele>340.75</ele><time>2026-03-29T14:36:50.003Z</time></trkpt><trkpt lat="45.685215" lon="8.3586633"><ele>341.0</ele><time>2026-03-29T14:36:51.004Z</time></trkpt><trkpt lat="45.685295" lon="8.3587717"><ele>342.5</ele><time>2026-03-29T14:36:52.004Z</time></trkpt><trkpt lat="45.68533" lon="8.3589117"><ele>344.0</ele><time>2026-03-29T14:36:53.004Z</time></trkpt><trkpt lat="45.6853533" lon="8.3590683"><ele>345.5</ele><time>2026-03-29T14:36:54.004Z</time></trkpt><trkpt lat="45.685385" lon="8.3592367"><ele>347.0</ele><time>2026-03-29T14:36:55.004Z</time></trkpt><trkpt lat="45.6854167" lon="8.35941"><ele>347.0</ele><time>2026-03-29T14:36:56.004Z</time></trkpt><trkpt lat="45.6854667" lon="8.35959"><ele>347.0</ele><time>2026-03-29T14:36:57.004Z</time></trkpt><trkpt lat="45.685545" lon="8.359745"><ele>347.0</ele><time>2026-03-29T14:36:58.004Z</time></trkpt><trkpt lat="45.6856567" lon="8.35986"><ele>347.0</ele><time>2026-03-29T14:36:59.004Z</time></trkpt><trkpt lat="45.6857833" lon="8.3599567"><ele>347.5</ele><time>2026-03-29T14:37:00.003Z</time></trkpt><trkpt lat="45.68591" lon="8.3600583"><ele>348.0</ele><time>2026-03-29T14:37:01.003Z</time></trkpt><trkpt lat="45.6859917" lon="8.3602067"><ele>348.5</ele><time>2026-03-29T14:37:02.003Z</time></trkpt><trkpt lat="45.6860567" lon="8.3603783"><ele>349.0</ele><time>2026-03-29T14:37:03.004Z</time></trkpt><trkpt lat="45.6860717" lon="8.360565"><ele>350.66666666666663</ele><time>2026-03-29T14:37:04.004Z</time></trkpt><trkpt lat="45.68605" lon="8.3607867"><ele>352.3333333333333</ele><time>2026-03-29T14:37:05.003Z</time></trkpt><trkpt lat="45.6860217" lon="8.36102"><ele>354.0</ele><time>2026-03-29T14:37:06.004Z</time></trkpt><trkpt lat="45.6859833" lon="8.361245"><ele>356.6666666666667</ele><time>2026-03-29T14:37:07.004Z</time></trkpt><trkpt lat="45.6859217" lon="8.3614617"><ele>359.33333333333337</ele><time>2026-03-29T14:37:08.003Z</time></trkpt><trkpt lat="45.685835" lon="8.3616633"><ele>362.0</ele><time>2026-03-29T14:37:09.004Z</time></trkpt><trkpt lat="45.6857333" lon="8.3618217"><ele>362.0</ele><time>2026-03-29T14:37:10.004Z</time></trkpt><trkpt lat="45.6856417" lon="8.3619467"><ele>362.0</ele><time>2026-03-29T14:37:11.003Z</time></trkpt><trkpt lat="45.6855733" lon="8.3620683"><ele>362.0</ele><time>2026-03-29T14:37:12.004Z</time></trkpt><trkpt lat="45.6855483" lon="8.362175"><ele>362.0</ele><time>2026-03-29T14:37:13.004Z</time></trkpt><trkpt lat="45.6855633" lon="8.3622783"><ele>362.0</ele><time>2026-03-29T14:37:14.004Z</time></trkpt><trkpt lat="45.68569" lon="8.3623117"><ele>362.0</ele><time>2026-03-29T14:37:16.003Z</time></trkpt><trkpt lat="45.6857617" lon="8.36221"><ele>362.0</ele><time>2026-03-29T14:37:17.004Z</time></trkpt><trkpt lat="45.68586" lon="8.362065"><ele>362.0</ele><time>2026-03-29T14:37:18.004Z</time></trkpt><trkpt lat="45.685975" lon="8.36191"><ele>362.0</ele><time>2026-03-29T14:37:19.004Z</time></trkpt><trkpt lat="45.6860967" lon="8.36177"><ele>363.0</ele><time>2026-03-29T14:37:20.004Z</time></trkpt><trkpt lat="45.6862167" lon="8.3616467"><ele>364.0</ele><time>2026-03-29T14:37:21.003Z</time></trkpt><trkpt lat="45.686335" lon="8.3615717"><ele>365.0</ele><time>2026-03-29T14:37:22.004Z</time></trkpt><trkpt lat="45.686425" lon="8.3615833"><ele>366.0</ele><time>2026-03-29T14:37:23.004Z</time></trkpt><trkpt lat="45.6864917" lon="8.3616483"><ele>367.0</ele><time>2026-03-29T14:37:24.004Z</time></trkpt><trkpt lat="45.6864717" lon="8.3617967"><ele>367.0</ele><time>2026-03-29T14:37:26.004Z</time></trkpt><trkpt lat="45.686405" lon="8.3618867"><ele>367.0</ele><time>2026-03-29T14:37:27.004Z</time></trkpt><trkpt lat="45.6863117" lon="8.3619833"><ele>367.0</ele><time>2026-03-29T14:37:28.004Z</time></trkpt><trkpt lat="45.6862217" lon="8.3621033"><ele>367.0</ele><time>2026-03-29T14:37:29.004Z</time></trkpt><trkpt lat="45.6861333" lon="8.3622917"><ele>368.3333333333333</ele><time>2026-03-29T14:37:30.004Z</time></trkpt><trkpt lat="45.6860617" lon="8.362525"><ele>369.6666666666667</ele><time>2026-03-29T14:37:31.003Z</time></trkpt><trkpt lat="45.686015" lon="8.3627683"><ele>371.0</ele><time>2026-03-29T14:37:32.003Z</time></trkpt><trkpt lat="45.6859967" lon="8.363025"><ele>373.0</ele><time>2026-03-29T14:37:33.004Z</time></trkpt><trkpt lat="45.6860183" lon="8.3632717"><ele>375.0</ele><time>2026-03-29T14:37:34.004Z</time></trkpt><trkpt lat="45.6860717" lon="8.363535"><ele>377.0</ele><time>2026-03-29T14:37:35.004Z</time></trkpt><trkpt lat="45.6861217" lon="8.363835"><ele>388.5</ele><time>2026-03-29T14:37:36.003Z</time></trkpt><trkpt lat="45.6861567" lon="8.3641617"><ele>400.0</ele><time>2026-03-29T14:37:37.004Z</time></trkpt><trkpt lat="45.68619" lon="8.3644767"><ele>404.0</ele><time>2026-03-29T14:37:38.004Z</time></trkpt><trkpt lat="45.6862167" lon="8.36476"><ele>408.0</ele><time>2026-03-29T14:37:39.003Z</time></trkpt><trkpt lat="45.68622" lon="8.365005"><ele>412.0</ele><time>2026-03-29T14:37:40.004Z</time></trkpt><trkpt lat="45.686205" lon="8.36523"><ele>412.0</ele><time>2026-03-29T14:37:41.004Z</time></trkpt><trkpt lat="45.6861817" lon="8.3654233"><ele>412.0</ele><time>2026-03-29T14:37:42.004Z</time></trkpt><trkpt lat="45.68616" lon="8.3655617"><ele>412.0</ele><time>2026-03-29T14:37:43.004Z</time></trkpt><trkpt lat="45.6861167" lon="8.365655"><ele>412.0</ele><time>2026-03-29T14:37:44.004Z</time></trkpt><trkpt lat="45.6860667" lon="8.36573"><ele>412.0</ele><time>2026-03-29T14:37:45.004Z</time></trkpt><trkpt lat="45.6860083" lon="8.3657967"><ele>411.20000000000005</ele><time>2026-03-29T14:37:46.004Z</time></trkpt><trkpt lat="45.685935" lon="8.36583"><ele>410.4</ele><time>2026-03-29T14:37:47.004Z</time></trkpt><trkpt lat="45.6858317" lon="8.36584"><ele>409.6</ele><time>2026-03-29T14:37:48.004Z</time></trkpt><trkpt lat="45.6857283" lon="8.3658083"><ele>408.79999999999995</ele><time>2026-03-29T14:37:49.003Z</time></trkpt><trkpt lat="45.6856133" lon="8.3657567"><ele>408.0</ele><time>2026-03-29T14:37:50.003Z</time></trkpt><trkpt lat="45.685525" lon="8.365675"><ele>403.75</ele><time>2026-03-29T14:37:51.004Z</time></trkpt><trkpt lat="45.6854417" lon="8.3655017"><ele>399.5</ele><time>2026-03-29T14:37:52.004Z</time></trkpt><trkpt lat="45.6853717" lon="8.3653067"><ele>395.25</ele><time>2026-03-29T14:37:53.004Z</time></trkpt><trkpt lat="45.6853283" lon="8.3651183"><ele>391.0</ele><time>2026-03-29T14:37:54.004Z</time></trkpt><trkpt lat="45.6852767" lon="8.3649383"><ele>391.6666666666667</ele><time>2026-03-29T14:37:55.004Z</time></trkpt><trkpt lat="45.6852133" lon="8.3647233"><ele>392.33333333333337</ele><time>2026-03-29T14:37:56.004Z</time></trkpt><trkpt lat="45.6851033" lon="8.3645967"><ele>393.0</ele><time>2026-03-29T14:37:57.003Z</time></trkpt><trkpt lat="45.6849583" lon="8.36457"><ele>393.0</ele><time>2026-03-29T14:37:58.003Z</time></trkpt><trkpt lat="45.6848183" lon="8.3646283"><ele>393.0</ele><time>2026-03-29T14:37:59.004Z</time></trkpt><trkpt lat="45.684695" lon="8.3647767"><ele>393.0</ele><time>2026-03-29T14:38:00.004Z</time></trkpt><trkpt lat="45.684605" lon="8.3649183"><ele>393.0</ele><time>2026-03-29T14:38:01.004Z</time></trkpt><trkpt lat="45.684565" lon="8.365075"><ele>395.5</ele><time>2026-03-29T14:38:02.004Z</time></trkpt><trkpt lat="45.6845683" lon="8.3652083"><ele>398.0</ele><time>2026-03-29T14:38:03.003Z</time></trkpt><trkpt lat="45.6846217" lon="8.3653267"><ele>400.5</ele><time>2026-03-29T14:38:04.004Z</time></trkpt><trkpt lat="45.6847217" lon="8.3654333"><ele>403.0</ele><time>2026-03-29T14:38:05.004Z</time></trkpt><trkpt lat="45.68485" lon="8.36555"><ele>404.6666666666667</ele><time>2026-03-29T14:38:06.004Z</time></trkpt><trkpt lat="45.685025" lon="8.36567"><ele>406.33333333333337</ele><time>2026-03-29T14:38:07.004Z</time></trkpt><trkpt lat="45.6852133" lon="8.365755"><ele>408.0</ele><time>2026-03-29T14:38:08.003Z</time></trkpt><trkpt lat="45.68538" lon="8.3658033"><ele>408.0</ele><time>2026-03-29T14:38:09.003Z</time></trkpt><trkpt lat="45.6855117" lon="8.365875"><ele>408.0</ele><time>2026-03-29T14:38:10.003Z</time></trkpt><trkpt lat="45.6855983" lon="8.3659617"><ele>408.0</ele><time>2026-03-29T14:38:11.004Z</time></trkpt><trkpt lat="45.6856183" lon="8.3660717"><ele>408.0</ele><time>2026-03-29T14:38:12.004Z</time></trkpt><trkpt lat="45.6856133" lon="8.3661733"><ele>408.0</ele><time>2026-03-29T14:38:13.004Z</time></trkpt><trkpt lat="45.6856017" lon="8.3662667"><ele>408.0</ele><time>2026-03-29T14:38:14.004Z</time></trkpt><trkpt lat="45.68555" lon="8.366335"><ele>408.0</ele><time>2026-03-29T14:38:15.003Z</time></trkpt><trkpt lat="45.6854633" lon="8.3663917"><ele>408.0</ele><time>2026-03-29T14:38:16.003Z</time></trkpt><trkpt lat="45.68532" lon="8.366445"><ele>408.0</ele><time>2026-03-29T14:38:17.004Z</time></trkpt><trkpt lat="45.6851333" lon="8.3665167"><ele>412.0</ele><time>2026-03-29T14:38:18.004Z</time></trkpt><trkpt lat="45.6849667" lon="8.36663"><ele>416.0</ele><time>2026-03-29T14:38:19.004Z</time></trkpt><trkpt lat="45.684825" lon="8.3667983"><ele>420.0</ele><time>2026-03-29T14:38:20.004Z</time></trkpt><trkpt lat="45.6846983" lon="8.3669783"><ele>420.0</ele><time>2026-03-29T14:38:21.004Z</time></trkpt><trkpt lat="45.6845967" lon="8.367135"><ele>420.0</ele><time>2026-03-29T14:38:22.004Z</time></trkpt><trkpt lat="45.6844833" lon="8.3672417"><ele>420.0</ele><time>2026-03-29T14:38:23.004Z</time></trkpt><trkpt lat="45.6843567" lon="8.3673"><ele>420.0</ele><time>2026-03-29T14:38:24.004Z</time></trkpt><trkpt lat="45.6842617" lon="8.3673533"><ele>421.2</ele><time>2026-03-29T14:38:25.003Z</time></trkpt><trkpt lat="45.6842083" lon="8.3674533"><ele>422.4</ele><time>2026-03-29T14:38:26.004Z</time></trkpt><trkpt lat="45.684195" lon="8.3675517"><ele>423.6</ele><time>2026-03-29T14:38:27.004Z</time></trkpt><trkpt lat="45.6842167" lon="8.3676633"><ele>424.8</ele><time>2026-03-29T14:38:28.004Z</time></trkpt><trkpt lat="45.684265" lon="8.3677967"><ele>426.0</ele><time>2026-03-29T14:38:29.004Z</time></trkpt><trkpt lat="45.6843217" lon="8.3679267"><ele>426.0</ele><time>2026-03-29T14:38:30.004Z</time></trkpt><trkpt lat="45.6843883" lon="8.3680267"><ele>426.0</ele><time>2026-03-29T14:38:31.004Z</time></trkpt><trkpt lat="45.6844883" lon="8.3680633"><ele>426.0</ele><time>2026-03-29T14:38:32.003Z</time></trkpt><trkpt lat="45.68461" lon="8.36802"><ele>426.0</ele><time>2026-03-29T14:38:33.004Z</time></trkpt><trkpt lat="45.6847483" lon="8.367915"><ele>426.0</ele><time>2026-03-29T14:38:34.004Z</time></trkpt><trkpt lat="45.684885" lon="8.367765"><ele>426.0</ele><time>2026-03-29T14:38:35.004Z</time></trkpt><trkpt lat="45.6850283" lon="8.367595"><ele>426.0</ele><time>2026-03-29T14:38:36.004Z</time></trkpt><trkpt lat="45.6851667" lon="8.3674217"><ele>425.0</ele><time>2026-03-29T14:38:37.004Z</time></trkpt><trkpt lat="45.6853367" lon="8.367295"><ele>424.0</ele><time>2026-03-29T14:38:38.004Z</time></trkpt><trkpt lat="45.685505" lon="8.3672067"><ele>423.0</ele><time>2026-03-29T14:38:39.004Z</time></trkpt><trkpt lat="45.685665" lon="8.3671583"><ele>423.0</ele><time>2026-03-29T14:38:40.003Z</time></trkpt><trkpt lat="45.68581" lon="8.3671383"><ele>423.0</ele><time>2026-03-29T14:38:41.004Z</time></trkpt><trkpt lat="45.6859433" lon="8.36719"><ele>423.0</ele><time>2026-03-29T14:38:42.003Z</time></trkpt><trkpt lat="45.686085" lon="8.3673133"><ele>430.0</ele><time>2026-03-29T14:38:43.003Z</time></trkpt><trkpt lat="45.6862267" lon="8.3675017"><ele>437.0</ele><time>2026-03-29T14:38:44.004Z</time></trkpt><trkpt lat="45.6863383" lon="8.3677217"><ele>444.0</ele><time>2026-03-29T14:38:45.003Z</time></trkpt><trkpt lat="45.68645" lon="8.36793"><ele>446.33333333333337</ele><time>2026-03-29T14:38:46.004Z</time></trkpt><trkpt lat="45.6865683" lon="8.3681033"><ele>448.6666666666667</ele><time>2026-03-29T14:38:47.004Z</time></trkpt><trkpt lat="45.6867017" lon="8.3682333"><ele>451.0</ele><time>2026-03-29T14:38:48.003Z</time></trkpt><trkpt lat="45.6868083" lon="8.3683467"><ele>451.00000000000006</ele><time>2026-03-29T14:38:49.004Z</time></trkpt><trkpt lat="45.686875" lon="8.3684633"><ele>451.0</ele><time>2026-03-29T14:38:50.004Z</time></trkpt><trkpt lat="45.68689" lon="8.3685717"><ele>451.0</ele><time>2026-03-29T14:38:51.004Z</time></trkpt><trkpt lat="45.6868467" lon="8.3686667"><ele>451.0</ele><time>2026-03-29T14:38:52.004Z</time></trkpt><trkpt lat="45.6867917" lon="8.3687333"><ele>451.00000000000006</ele><time>2026-03-29T14:38:53.003Z</time></trkpt><trkpt lat="45.686725" lon="8.3687917"><ele>451.0</ele><time>2026-03-29T14:38:54.004Z</time></trkpt><trkpt lat="45.6866283" lon="8.3688483"><ele>452.5</ele><time>2026-03-29T14:38:55.003Z</time></trkpt><trkpt lat="45.68655" lon="8.3689333"><ele>454.0</ele><time>2026-03-29T14:38:56.004Z</time></trkpt><trkpt lat="45.6865" lon="8.3690867"><ele>455.5</ele><time>2026-03-29T14:38:57.004Z</time></trkpt><trkpt lat="45.6864317" lon="8.369255"><ele>457.0</ele><time>2026-03-29T14:38:58.004Z</time></trkpt><trkpt lat="45.6863717" lon="8.3694233"><ele>457.0</ele><time>2026-03-29T14:38:59.004Z</time></trkpt><trkpt lat="45.686295" lon="8.3695567"><ele>457.0</ele><time>2026-03-29T14:39:00.003Z</time></trkpt><trkpt lat="45.6862217" lon="8.3696583"><ele>457.0</ele><time>2026-03-29T14:39:01.004Z</time></trkpt><trkpt lat="45.6861733" lon="8.36983"><ele>457.0</ele><time>2026-03-29T14:39:02.003Z</time></trkpt><trkpt lat="45.686165" lon="8.3700283"><ele>461.6666666666667</ele><time>2026-03-29T14:39:03.004Z</time></trkpt><trkpt lat="45.6861967" lon="8.370245"><ele>466.33333333333337</ele><time>2026-03-29T14:39:04.004Z</time></trkpt><trkpt lat="45.6862367" lon="8.3704967"><ele>471.0</ele><time>2026-03-29T14:39:05.004Z</time></trkpt><trkpt lat="45.6862717" lon="8.37075"><ele>471.75</ele><time>2026-03-29T14:39:06.004Z</time></trkpt><trkpt lat="45.6863117" lon="8.3709883"><ele>472.5</ele><time>2026-03-29T14:39:07.004Z</time></trkpt><trkpt lat="45.6863267" lon="8.37119"><ele>473.25</ele><time>2026-03-29T14:39:08.004Z</time></trkpt><trkpt lat="45.6862967" lon="8.3713633"><ele>474.0</ele><time>2026-03-29T14:39:09.004Z</time></trkpt><trkpt lat="45.6862417" lon="8.3715033"><ele>474.0</ele><time>2026-03-29T14:39:10.004Z</time></trkpt><trkpt lat="45.6862233" lon="8.3716567"><ele>474.0</ele><time>2026-03-29T14:39:11.004Z</time></trkpt><trkpt lat="45.6862433" lon="8.3718133"><ele>474.0</ele><time>2026-03-29T14:39:12.003Z</time></trkpt><trkpt lat="45.6862867" lon="8.3719733"><ele>474.0</ele><time>2026-03-29T14:39:13.004Z</time></trkpt><trkpt lat="45.68632" lon="8.3721483"><ele>471.5</ele><time>2026-03-29T14:39:14.004Z</time></trkpt><trkpt lat="45.686315" lon="8.3723283"><ele>469.0</ele><time>2026-03-29T14:39:15.004Z</time></trkpt><trkpt lat="45.6863333" lon="8.3724967"><ele>466.5</ele><time>2026-03-29T14:39:16.004Z</time></trkpt><trkpt lat="45.68638" lon="8.37266"><ele>464.0</ele><time>2026-03-29T14:39:17.003Z</time></trkpt><trkpt lat="45.6864417" lon="8.3728117"><ele>464.0</ele><time>2026-03-29T14:39:18.004Z</time></trkpt><trkpt lat="45.6864667" lon="8.3729583"><ele>464.0</ele><time>2026-03-29T14:39:19.004Z</time></trkpt><trkpt lat="45.6864517" lon="8.3730833"><ele>464.0</ele><time>2026-03-29T14:39:20.004Z</time></trkpt><trkpt lat="45.6864033" lon="8.3732"><ele>464.0</ele><time>2026-03-29T14:39:21.004Z</time></trkpt><trkpt lat="45.6863017" lon="8.3733317"><ele>464.0</ele><time>2026-03-29T14:39:22.004Z</time></trkpt><trkpt lat="45.6861933" lon="8.37347"><ele>458.75</ele><time>2026-03-29T14:39:23.004Z</time></trkpt><trkpt lat="45.6860917" lon="8.37364"><ele>453.5</ele><time>2026-03-29T14:39:24.003Z</time></trkpt><trkpt lat="45.6860333" lon="8.37381"><ele>448.25</ele><time>2026-03-29T14:39:25.004Z</time></trkpt><trkpt lat="45.6860267" lon="8.37396"><ele>443.0</ele><time>2026-03-29T14:39:26.004Z</time></trkpt><trkpt lat="45.68607" lon="8.3740867"><ele>447.0</ele><time>2026-03-29T14:39:27.003Z</time></trkpt><trkpt lat="45.6861567" lon="8.374205"><ele>450.99999999999994</ele><time>2026-03-29T14:39:28.004Z</time></trkpt><trkpt lat="45.6862633" lon="8.374275"><ele>454.99999999999994</ele><time>2026-03-29T14:39:29.004Z</time></trkpt><trkpt lat="45.6863617" lon="8.374315"><ele>459.0</ele><time>2026-03-29T14:39:30.004Z</time></trkpt><trkpt lat="45.68644" lon="8.374375"><ele>463.0</ele><time>2026-03-29T14:39:31.004Z</time></trkpt><trkpt lat="45.6865033" lon="8.374445"><ele>463.00000000000006</ele><time>2026-03-29T14:39:32.004Z</time></trkpt><trkpt lat="45.6865217" lon="8.3745567"><ele>463.0</ele><time>2026-03-29T14:39:33.004Z</time></trkpt><trkpt lat="45.6865217" lon="8.374655"><ele>463.0</ele><time>2026-03-29T14:39:34.004Z</time></trkpt><trkpt lat="45.6864933" lon="8.3747467"><ele>463.0</ele><time>2026-03-29T14:39:35.004Z</time></trkpt><trkpt lat="45.6864467" lon="8.3748133"><ele>463.00000000000006</ele><time>2026-03-29T14:39:36.003Z</time></trkpt><trkpt lat="45.6863233" lon="8.3748433"><ele>463.0</ele><time>2026-03-29T14:39:37.003Z</time></trkpt><trkpt lat="45.6862133" lon="8.374885"><ele>463.50000000000006</ele><time>2026-03-29T14:39:38.004Z</time></trkpt><trkpt lat="45.6861217" lon="8.37492"><ele>464.0</ele><time>2026-03-29T14:39:39.004Z</time></trkpt><trkpt lat="45.6860383" lon="8.37495"><ele>464.5</ele><time>2026-03-29T14:39:40.004Z</time></trkpt><trkpt lat="45.6859567" lon="8.3750017"><ele>465.0</ele><time>2026-03-29T14:39:41.004Z</time></trkpt><trkpt lat="45.685885" lon="8.37507"><ele>465.50000000000006</ele><time>2026-03-29T14:39:42.004Z</time></trkpt><trkpt lat="45.685835" lon="8.375155"><ele>466.0</ele><time>2026-03-29T14:39:43.004Z</time></trkpt><trkpt lat="45.6858533" lon="8.3752483"><ele>465.33333333333337</ele><time>2026-03-29T14:39:44.004Z</time></trkpt><trkpt lat="45.6858833" lon="8.3753483"><ele>464.6666666666667</ele><time>2026-03-29T14:39:45.004Z</time></trkpt><trkpt lat="45.68593" lon="8.375445"><ele>464.0</ele><time>2026-03-29T14:39:46.004Z</time></trkpt><trkpt lat="45.68599" lon="8.3755433"><ele>463.33333333333337</ele><time>2026-03-29T14:39:47.004Z</time></trkpt><trkpt lat="45.6860583" lon="8.37565"><ele>462.6666666666667</ele><time>2026-03-29T14:39:48.003Z</time></trkpt><trkpt lat="45.6861167" lon="8.37575"><ele>462.0</ele><time>2026-03-29T14:39:49.004Z</time></trkpt><trkpt lat="45.6861717" lon="8.37585"><ele>462.0</ele><time>2026-03-29T14:39:50.003Z</time></trkpt><trkpt lat="45.6862033" lon="8.3759467"><ele>462.0</ele><time>2026-03-29T14:39:51.004Z</time></trkpt><trkpt lat="45.6862283" lon="8.3760483"><ele>462.0</ele><time>2026-03-29T14:39:52.003Z</time></trkpt><trkpt lat="45.68626" lon="8.3761483"><ele>462.0</ele><time>2026-03-29T14:39:53.004Z</time></trkpt><trkpt lat="45.6863083" lon="8.3762417"><ele>462.0</ele><time>2026-03-29T14:39:54.004Z</time></trkpt><trkpt lat="45.6863833" lon="8.3763083"><ele>462.0</ele><time>2026-03-29T14:39:55.004Z</time></trkpt><trkpt lat="45.68646" lon="8.3763583"><ele>459.8</ele><time>2026-03-29T14:39:56.003Z</time></trkpt><trkpt lat="45.6865533" lon="8.3763767"><ele>457.6</ele><time>2026-03-29T14:39:57.004Z</time></trkpt><trkpt lat="45.6866417" lon="8.3763967"><ele>455.40000000000003</ele><time>2026-03-29T14:39:58.004Z</time></trkpt><trkpt lat="45.686735" lon="8.376415"><ele>453.20000000000005</ele><time>2026-03-29T14:39:59.004Z</time></trkpt><trkpt lat="45.6868167" lon="8.3764483"><ele>451.0</ele><time>2026-03-29T14:40:00.004Z</time></trkpt><trkpt lat="45.686905" lon="8.3765267"><ele>454.5</ele><time>2026-03-29T14:40:01.003Z</time></trkpt><trkpt lat="45.6869883" lon="8.376625"><ele>458.0</ele><time>2026-03-29T14:40:02.004Z</time></trkpt><trkpt lat="45.68706" lon="8.3767533"><ele>461.5</ele><time>2026-03-29T14:40:03.004Z</time></trkpt><trkpt lat="45.687115" lon="8.3769233"><ele>465.0</ele><time>2026-03-29T14:40:04.003Z</time></trkpt><trkpt lat="45.6871733" lon="8.3770967"><ele>464.5</ele><time>2026-03-29T14:40:05.004Z</time></trkpt><trkpt lat="45.68725" lon="8.3772733"><ele>464.0</ele><time>2026-03-29T14:40:06.003Z</time></trkpt><trkpt lat="45.68732" lon="8.3774283"><ele>463.5</ele><time>2026-03-29T14:40:07.003Z</time></trkpt><trkpt lat="45.68738" lon="8.3775483"><ele>463.0</ele><time>2026-03-29T14:40:08.004Z</time></trkpt><trkpt lat="45.6874283" lon="8.3776517"><ele>463.00000000000006</ele><time>2026-03-29T14:40:09.004Z</time></trkpt><trkpt lat="45.68746" lon="8.377755"><ele>463.0</ele><time>2026-03-29T14:40:10.004Z</time></trkpt><trkpt lat="45.68748" lon="8.377865"><ele>463.0</ele><time>2026-03-29T14:40:11.004Z</time></trkpt><trkpt lat="45.6874817" lon="8.3779817"><ele>463.0</ele><time>2026-03-29T14:40:12.004Z</time></trkpt><trkpt lat="45.6874567" lon="8.3780983"><ele>463.00000000000006</ele><time>2026-03-29T14:40:13.004Z</time></trkpt><trkpt lat="45.68742" lon="8.3781967"><ele>463.0</ele><time>2026-03-29T14:40:14.004Z</time></trkpt><trkpt lat="45.6873817" lon="8.3782833"><ele>462.71428571428567</ele><time>2026-03-29T14:40:15.004Z</time></trkpt><trkpt lat="45.6873483" lon="8.3783767"><ele>462.4285714285714</ele><time>2026-03-29T14:40:16.004Z</time></trkpt><trkpt lat="45.68733" lon="8.3784733"><ele>462.1428571428571</ele><time>2026-03-29T14:40:17.004Z</time></trkpt><trkpt lat="45.6873233" lon="8.3785767"><ele>461.8571428571429</ele><time>2026-03-29T14:40:18.004Z</time></trkpt><trkpt lat="45.6873383" lon="8.3786683"><ele>461.5714285714286</ele><time>2026-03-29T14:40:19.003Z</time></trkpt><trkpt lat="45.6873717" lon="8.378755"><ele>461.28571428571433</ele><time>2026-03-29T14:40:20.004Z</time></trkpt><trkpt lat="45.6874433" lon="8.3788433"><ele>461.0</ele><time>2026-03-29T14:40:21.004Z</time></trkpt><trkpt lat="45.6875517" lon="8.3789367"><ele>461.0</ele><time>2026-03-29T14:40:22.004Z</time></trkpt><trkpt lat="45.6876667" lon="8.379025"><ele>461.0</ele><time>2026-03-29T14:40:23.004Z</time></trkpt><trkpt lat="45.6877717" lon="8.379105"><ele>461.0</ele><time>2026-03-29T14:40:24.004Z</time></trkpt><trkpt lat="45.6878267" lon="8.3792133"><ele>461.0</ele><time>2026-03-29T14:40:25.004Z</time></trkpt><trkpt lat="45.6878817" lon="8.3793533"><ele>465.0</ele><time>2026-03-29T14:40:26.004Z</time></trkpt><trkpt lat="45.6878917" lon="8.3795583"><ele>469.0</ele><time>2026-03-29T14:40:27.004Z</time></trkpt><trkpt lat="45.6878767" lon="8.3797983"><ele>473.0</ele><time>2026-03-29T14:40:28.003Z</time></trkpt><trkpt lat="45.6878583" lon="8.38003"><ele>473.0</ele><time>2026-03-29T14:40:29.004Z</time></trkpt><trkpt lat="45.68781" lon="8.38027"><ele>473.0</ele><time>2026-03-29T14:40:30.003Z</time></trkpt><trkpt lat="45.6877533" lon="8.3804967"><ele>473.0</ele><time>2026-03-29T14:40:31.004Z</time></trkpt><trkpt lat="45.6876817" lon="8.380705"><ele>471.79999999999995</ele><time>2026-03-29T14:40:32.003Z</time></trkpt><trkpt lat="45.687635" lon="8.3808983"><ele>470.59999999999997</ele><time>2026-03-29T14:40:33.004Z</time></trkpt><trkpt lat="45.68761" lon="8.3810433"><ele>469.40000000000003</ele><time>2026-03-29T14:40:34.003Z</time></trkpt><trkpt lat="45.6875933" lon="8.381145"><ele>468.20000000000005</ele><time>2026-03-29T14:40:35.004Z</time></trkpt><trkpt lat="45.6875733" lon="8.3812567"><ele>467.0</ele><time>2026-03-29T14:40:37.004Z</time></trkpt><trkpt lat="45.6876317" lon="8.3814317"><ele>465.25</ele><time>2026-03-29T14:40:44.004Z</time></trkpt><trkpt lat="45.687685" lon="8.381615"><ele>463.5</ele><time>2026-03-29T14:40:45.003Z</time></trkpt><trkpt lat="45.687765" lon="8.3817967"><ele>461.75</ele><time>2026-03-29T14:40:46.003Z</time></trkpt><trkpt lat="45.6878517" lon="8.3819183"><ele>460.0</ele><time>2026-03-29T14:40:47.003Z</time></trkpt><trkpt lat="45.6879617" lon="8.3819633"><ele>458.25</ele><time>2026-03-29T14:40:48.003Z</time></trkpt><trkpt lat="45.6880767" lon="8.3819217"><ele>456.5</ele><time>2026-03-29T14:40:49.003Z</time></trkpt><trkpt lat="45.688195" lon="8.3817883"><ele>454.75</ele><time>2026-03-29T14:40:50.002Z</time></trkpt><trkpt lat="45.68828" lon="8.3816"><ele>453.0</ele><time>2026-03-29T14:40:51.003Z</time></trkpt><trkpt lat="45.6883733" lon="8.38144"><ele>453.0</ele><time>2026-03-29T14:40:52.003Z</time></trkpt><trkpt lat="45.6884783" lon="8.3813267"><ele>453.0</ele><time>2026-03-29T14:40:53.002Z</time></trkpt><trkpt lat="45.6885717" lon="8.3812583"><ele>453.0</ele><time>2026-03-29T14:40:54.002Z</time></trkpt><trkpt lat="45.688665" lon="8.3812733"><ele>453.0</ele><time>2026-03-29T14:40:55.003Z</time></trkpt><trkpt lat="45.68876" lon="8.3813933"><ele>452.66666666666663</ele><time>2026-03-29T14:40:56.002Z</time></trkpt><trkpt lat="45.6888317" lon="8.3816333"><ele>452.3333333333333</ele><time>2026-03-29T14:40:57.003Z</time></trkpt><trkpt lat="45.68888" lon="8.38186"><ele>452.0</ele><time>2026-03-29T14:40:58.002Z</time></trkpt><trkpt lat="45.6889033" lon="8.3820533"><ele>455.0</ele><time>2026-03-29T14:40:59.003Z</time></trkpt><trkpt lat="45.6888917" lon="8.3822317"><ele>458.0</ele><time>2026-03-29T14:41:00.003Z</time></trkpt><trkpt lat="45.6888267" lon="8.3824067"><ele>461.0</ele><time>2026-03-29T14:41:01.003Z</time></trkpt><trkpt lat="45.688725" lon="8.3826083"><ele>464.0</ele><time>2026-03-29T14:41:02.003Z</time></trkpt><trkpt lat="45.6886017" lon="8.382835"><ele>454.5</ele><time>2026-03-29T14:41:03.003Z</time></trkpt><trkpt lat="45.6884533" lon="8.3830833"><ele>445.0</ele><time>2026-03-29T14:41:04.002Z</time></trkpt><trkpt lat="45.6883017" lon="8.383355"><ele>445.0</ele><time>2026-03-29T14:41:05.003Z</time></trkpt><trkpt lat="45.6881333" lon="8.383585"><ele>445.0</ele><time>2026-03-29T14:41:06.003Z</time></trkpt><trkpt lat="45.687995" lon="8.3838017"><ele>445.0</ele><time>2026-03-29T14:41:07.002Z</time></trkpt><trkpt lat="45.6878933" lon="8.3840567"><ele>445.5</ele><time>2026-03-29T14:41:08.002Z</time></trkpt><trkpt lat="45.6878017" lon="8.3843567"><ele>446.0</ele><time>2026-03-29T14:41:09.003Z</time></trkpt><trkpt lat="45.6877383" lon="8.3846967"><ele>440.66666666666663</ele><time>2026-03-29T14:41:10.003Z</time></trkpt><trkpt lat="45.6876733" lon="8.3850183"><ele>435.33333333333337</ele><time>2026-03-29T14:41:11.002Z</time></trkpt><trkpt lat="45.68763" lon="8.3853067"><ele>430.0</ele><time>2026-03-29T14:41:12.003Z</time></trkpt><trkpt lat="45.6875917" lon="8.38559"><ele>428.33333333333337</ele><time>2026-03-29T14:41:13.002Z</time></trkpt><trkpt lat="45.687545" lon="8.3858367"><ele>426.66666666666663</ele><time>2026-03-29T14:41:14.003Z</time></trkpt><trkpt lat="45.6874933" lon="8.3860717"><ele>425.0</ele><time>2026-03-29T14:41:15.003Z</time></trkpt><trkpt lat="45.68745" lon="8.3863"><ele>425.0</ele><time>2026-03-29T14:41:16.003Z</time></trkpt><trkpt lat="45.6874217" lon="8.3865267"><ele>425.0</ele><time>2026-03-29T14:41:17.003Z</time></trkpt><trkpt lat="45.6873767" lon="8.3867367"><ele>425.0</ele><time>2026-03-29T14:41:18.003Z</time></trkpt><trkpt lat="45.6873417" lon="8.3869383"><ele>425.0</ele><time>2026-03-29T14:41:19.003Z</time></trkpt><trkpt lat="45.6872917" lon="8.3871317"><ele>425.0</ele><time>2026-03-29T14:41:20.003Z</time></trkpt><trkpt lat="45.6872617" lon="8.3873217"><ele>425.0</ele><time>2026-03-29T14:41:21.003Z</time></trkpt><trkpt lat="45.6872567" lon="8.3874933"><ele>425.0</ele><time>2026-03-29T14:41:22.002Z</time></trkpt><trkpt lat="45.68727" lon="8.3876583"><ele>424.2</ele><time>2026-03-29T14:41:23.003Z</time></trkpt><trkpt lat="45.687275" lon="8.387825"><ele>423.4</ele><time>2026-03-29T14:41:24.003Z</time></trkpt><trkpt lat="45.6872983" lon="8.38798"><ele>422.6</ele><time>2026-03-29T14:41:25.003Z</time></trkpt><trkpt lat="45.68731" lon="8.3881433"><ele>421.8</ele><time>2026-03-29T14:41:26.003Z</time></trkpt><trkpt lat="45.687325" lon="8.38829"><ele>421.0</ele><time>2026-03-29T14:41:27.002Z</time></trkpt><trkpt lat="45.687335" lon="8.388445"><ele>419.4</ele><time>2026-03-29T14:41:28.003Z</time></trkpt><trkpt lat="45.687335" lon="8.3886017"><ele>417.8</ele><time>2026-03-29T14:41:29.003Z</time></trkpt><trkpt lat="45.68732" lon="8.3887433"><ele>416.2</ele><time>2026-03-29T14:41:30.002Z</time></trkpt><trkpt lat="45.6872767" lon="8.3888783"><ele>414.59999999999997</ele><time>2026-03-29T14:41:31.003Z</time></trkpt><trkpt lat="45.68721" lon="8.3889783"><ele>413.0</ele><time>2026-03-29T14:41:32.003Z</time></trkpt><trkpt lat="45.687135" lon="8.38907"><ele>412.8333333333333</ele><time>2026-03-29T14:41:33.002Z</time></trkpt><trkpt lat="45.6870717" lon="8.3891683"><ele>412.66666666666663</ele><time>2026-03-29T14:41:34.003Z</time></trkpt><trkpt lat="45.6870183" lon="8.38926"><ele>412.5</ele><time>2026-03-29T14:41:35.002Z</time></trkpt><trkpt lat="45.6869667" lon="8.3893467"><ele>412.33333333333337</ele><time>2026-03-29T14:41:36.003Z</time></trkpt><trkpt lat="45.686905" lon="8.389435"><ele>412.1666666666667</ele><time>2026-03-29T14:41:37.003Z</time></trkpt><trkpt lat="45.6868483" lon="8.3895217"><ele>412.0</ele><time>2026-03-29T14:41:38.003Z</time></trkpt><trkpt lat="45.686785" lon="8.3895883"><ele>411.57142857142856</ele><time>2026-03-29T14:41:39.003Z</time></trkpt><trkpt lat="45.6867367" lon="8.389665"><ele>411.1428571428571</ele><time>2026-03-29T14:41:40.003Z</time></trkpt><trkpt lat="45.686695" lon="8.3897383"><ele>410.71428571428567</ele><time>2026-03-29T14:41:41.002Z</time></trkpt><trkpt lat="45.6866583" lon="8.38982"><ele>410.2857142857143</ele><time>2026-03-29T14:41:42.003Z</time></trkpt><trkpt lat="45.6866283" lon="8.389905"><ele>409.8571428571429</ele><time>2026-03-29T14:41:43.003Z</time></trkpt><trkpt lat="45.686605" lon="8.3899967"><ele>409.4285714285714</ele><time>2026-03-29T14:41:44.003Z</time></trkpt><trkpt lat="45.6865833" lon="8.390085"><ele>409.0</ele><time>2026-03-29T14:41:45.002Z</time></trkpt><trkpt lat="45.686585" lon="8.3901817"><ele>409.00000000000006</ele><time>2026-03-29T14:41:46.002Z</time></trkpt><trkpt lat="45.686585" lon="8.3902933"><ele>409.0</ele><time>2026-03-29T14:41:47.003Z</time></trkpt><trkpt lat="45.6865933" lon="8.3904067"><ele>409.0</ele><time>2026-03-29T14:41:48.003Z</time></trkpt><trkpt lat="45.6866033" lon="8.39052"><ele>409.0</ele><time>2026-03-29T14:41:49.003Z</time></trkpt><trkpt lat="45.68662" lon="8.390645"><ele>409.00000000000006</ele><time>2026-03-29T14:41:50.002Z</time></trkpt><trkpt lat="45.6866317" lon="8.3907583"><ele>409.0</ele><time>2026-03-29T14:41:51.002Z</time></trkpt><trkpt lat="45.6866733" lon="8.3908633"><ele>409.4</ele><time>2026-03-29T14:41:52.003Z</time></trkpt><trkpt lat="45.6866833" lon="8.39098"><ele>409.79999999999995</ele><time>2026-03-29T14:41:53.002Z</time></trkpt><trkpt lat="45.6866883" lon="8.3911"><ele>410.20000000000005</ele><time>2026-03-29T14:41:54.003Z</time></trkpt><trkpt lat="45.6866733" lon="8.39125"><ele>410.6</ele><time>2026-03-29T14:41:55.003Z</time></trkpt><trkpt lat="45.686675" lon="8.39143"><ele>411.0</ele><time>2026-03-29T14:41:56.003Z</time></trkpt><trkpt lat="45.6866983" lon="8.391635"><ele>409.33333333333337</ele><time>2026-03-29T14:41:57.003Z</time></trkpt><trkpt lat="45.6867317" lon="8.3918517"><ele>407.6666666666667</ele><time>2026-03-29T14:41:58.002Z</time></trkpt><trkpt lat="45.6867433" lon="8.392095"><ele>406.0</ele><time>2026-03-29T14:41:59.002Z</time></trkpt><trkpt lat="45.68673" lon="8.3923583"><ele>403.0</ele><time>2026-03-29T14:42:00.002Z</time></trkpt><trkpt lat="45.6866967" lon="8.392605"><ele>400.0</ele><time>2026-03-29T14:42:01.002Z</time></trkpt><trkpt lat="45.686645" lon="8.3928567"><ele>397.0</ele><time>2026-03-29T14:42:02.003Z</time></trkpt><trkpt lat="45.6865983" lon="8.3931033"><ele>396.6666666666667</ele><time>2026-03-29T14:42:03.002Z</time></trkpt><trkpt lat="45.686555" lon="8.3933467"><ele>396.33333333333337</ele><time>2026-03-29T14:42:04.002Z</time></trkpt><trkpt lat="45.6865133" lon="8.3935717"><ele>396.0</ele><time>2026-03-29T14:42:05.002Z</time></trkpt><trkpt lat="45.68644" lon="8.393795"><ele>395.66666666666663</ele><time>2026-03-29T14:42:06.003Z</time></trkpt><trkpt lat="45.6863383" lon="8.3940083"><ele>395.3333333333333</ele><time>2026-03-29T14:42:07.003Z</time></trkpt><trkpt lat="45.686215" lon="8.394205"><ele>395.0</ele><time>2026-03-29T14:42:08.002Z</time></trkpt><trkpt lat="45.6860717" lon="8.3943883"><ele>394.66666666666663</ele><time>2026-03-29T14:42:09.003Z</time></trkpt><trkpt lat="45.685925" lon="8.39458"><ele>394.33333333333337</ele><time>2026-03-29T14:42:10.002Z</time></trkpt><trkpt lat="45.68576" lon="8.3947583"><ele>394.0</ele><time>2026-03-29T14:42:11.003Z</time></trkpt><trkpt lat="45.6855817" lon="8.3949383"><ele>394.33333333333337</ele><time>2026-03-29T14:42:12.002Z</time></trkpt><trkpt lat="45.6854033" lon="8.3951283"><ele>394.66666666666663</ele><time>2026-03-29T14:42:13.003Z</time></trkpt><trkpt lat="45.6852333" lon="8.3953217"><ele>395.0</ele><time>2026-03-29T14:42:14.003Z</time></trkpt><trkpt lat="45.68506" lon="8.395525"><ele>393.66666666666663</ele><time>2026-03-29T14:42:15.003Z</time></trkpt><trkpt lat="45.68489" lon="8.39573"><ele>392.33333333333337</ele><time>2026-03-29T14:42:16.002Z</time></trkpt><trkpt lat="45.68473" lon="8.3959317"><ele>391.0</ele><time>2026-03-29T14:42:17.003Z</time></trkpt><trkpt lat="45.6845683" lon="8.3961183"><ele>391.0</ele><time>2026-03-29T14:42:18.002Z</time></trkpt><trkpt lat="45.68442" lon="8.3962867"><ele>391.0</ele><time>2026-03-29T14:42:19.003Z</time></trkpt><trkpt lat="45.68429" lon="8.39645"><ele>391.0</ele><time>2026-03-29T14:42:20.002Z</time></trkpt><trkpt lat="45.684185" lon="8.3966117"><ele>391.0</ele><time>2026-03-29T14:42:21.003Z</time></trkpt><trkpt lat="45.6840917" lon="8.396755"><ele>391.0</ele><time>2026-03-29T14:42:22.003Z</time></trkpt><trkpt lat="45.6839967" lon="8.3969433"><ele>391.0</ele><time>2026-03-29T14:42:23.002Z</time></trkpt><trkpt lat="45.68393" lon="8.3971567"><ele>390.0</ele><time>2026-03-29T14:42:24.003Z</time></trkpt><trkpt lat="45.6838917" lon="8.3973917"><ele>389.0</ele><time>2026-03-29T14:42:25.003Z</time></trkpt><trkpt lat="45.6838767" lon="8.3976567"><ele>388.0</ele><time>2026-03-29T14:42:26.003Z</time></trkpt><trkpt lat="45.6838617" lon="8.39793"><ele>387.33333333333337</ele><time>2026-03-29T14:42:27.003Z</time></trkpt><trkpt lat="45.6838517" lon="8.3982117"><ele>386.66666666666663</ele><time>2026-03-29T14:42:28.003Z</time></trkpt><trkpt lat="45.68382" lon="8.3985033"><ele>386.0</ele><time>2026-03-29T14:42:29.003Z</time></trkpt><trkpt lat="45.6837867" lon="8.3987833"><ele>385.0</ele><time>2026-03-29T14:42:30.002Z</time></trkpt><trkpt lat="45.683755" lon="8.3990567"><ele>384.0</ele><time>2026-03-29T14:42:31.002Z</time></trkpt><trkpt lat="45.6837133" lon="8.39932"><ele>383.0</ele><time>2026-03-29T14:42:32.003Z</time></trkpt><trkpt lat="45.683685" lon="8.39954"><ele>383.5</ele><time>2026-03-29T14:42:33.003Z</time></trkpt><trkpt lat="45.6836533" lon="8.3997317"><ele>384.0</ele><time>2026-03-29T14:42:34.002Z</time></trkpt><trkpt lat="45.6836167" lon="8.3999033"><ele>384.5</ele><time>2026-03-29T14:42:35.002Z</time></trkpt><trkpt lat="45.68357" lon="8.4000917"><ele>385.0</ele><time>2026-03-29T14:42:36.003Z</time></trkpt><trkpt lat="45.683495" lon="8.4003"><ele>383.33333333333337</ele><time>2026-03-29T14:42:37.003Z</time></trkpt><trkpt lat="45.6833817" lon="8.400515"><ele>381.6666666666667</ele><time>2026-03-29T14:42:38.003Z</time></trkpt><trkpt lat="45.68326" lon="8.40074"><ele>380.0</ele><time>2026-03-29T14:42:39.002Z</time></trkpt><trkpt lat="45.68314" lon="8.401"><ele>380.0</ele><time>2026-03-29T14:42:40.003Z</time></trkpt><trkpt lat="45.6830067" lon="8.4012533"><ele>380.0</ele><time>2026-03-29T14:42:41.003Z</time></trkpt><trkpt lat="45.6828633" lon="8.4015033"><ele>380.0</ele><time>2026-03-29T14:42:42.003Z</time></trkpt><trkpt lat="45.6827233" lon="8.4017567"><ele>380.6666666666667</ele><time>2026-03-29T14:42:43.003Z</time></trkpt><trkpt lat="45.6825833" lon="8.402005"><ele>381.3333333333333</ele><time>2026-03-29T14:42:44.003Z</time></trkpt><trkpt lat="45.682465" lon="8.4022367"><ele>382.0</ele><time>2026-03-29T14:42:45.002Z</time></trkpt><trkpt lat="45.6823417" lon="8.4024517"><ele>382.0</ele><time>2026-03-29T14:42:46.003Z</time></trkpt><trkpt lat="45.6822267" lon="8.40266"><ele>382.0</ele><time>2026-03-29T14:42:47.002Z</time></trkpt><trkpt lat="45.6821233" lon="8.4028383"><ele>382.0</ele><time>2026-03-29T14:42:48.003Z</time></trkpt><trkpt lat="45.68199" lon="8.4030267"><ele>383.3333333333333</ele><time>2026-03-29T14:42:49.003Z</time></trkpt><trkpt lat="45.6818483" lon="8.4031967"><ele>384.66666666666663</ele><time>2026-03-29T14:42:50.003Z</time></trkpt><trkpt lat="45.6816883" lon="8.4033433"><ele>386.0</ele><time>2026-03-29T14:42:51.003Z</time></trkpt><trkpt lat="45.6815133" lon="8.4034867"><ele>386.0</ele><time>2026-03-29T14:42:52.002Z</time></trkpt><trkpt lat="45.6813583" lon="8.4036467"><ele>386.0</ele><time>2026-03-29T14:42:53.003Z</time></trkpt><trkpt lat="45.6811883" lon="8.4038017"><ele>386.0</ele><time>2026-03-29T14:42:54.003Z</time></trkpt><trkpt lat="45.6810183" lon="8.403955"><ele>386.66666666666663</ele><time>2026-03-29T14:42:55.003Z</time></trkpt><trkpt lat="45.6808467" lon="8.404125"><ele>387.33333333333337</ele><time>2026-03-29T14:42:56.003Z</time></trkpt><trkpt lat="45.6806733" lon="8.4042883"><ele>388.0</ele><time>2026-03-29T14:42:57.002Z</time></trkpt><trkpt lat="45.6805117" lon="8.404425"><ele>388.0</ele><time>2026-03-29T14:42:58.003Z</time></trkpt><trkpt lat="45.6803533" lon="8.404585"><ele>388.0</ele><time>2026-03-29T14:42:59.003Z</time></trkpt><trkpt lat="45.6802017" lon="8.404725"><ele>388.0</ele><time>2026-03-29T14:43:00.003Z</time></trkpt><trkpt lat="45.680065" lon="8.4048633"><ele>389.0</ele><time>2026-03-29T14:43:01.003Z</time></trkpt><trkpt lat="45.6799417" lon="8.404985"><ele>390.0</ele><time>2026-03-29T14:43:02.003Z</time></trkpt><trkpt lat="45.6798417" lon="8.40514"><ele>391.0</ele><time>2026-03-29T14:43:03.003Z</time></trkpt><trkpt lat="45.67979" lon="8.4053217"><ele>392.0</ele><time>2026-03-29T14:43:04.002Z</time></trkpt><trkpt lat="45.6797233" lon="8.405485"><ele>391.5</ele><time>2026-03-29T14:43:05.002Z</time></trkpt><trkpt lat="45.6796583" lon="8.4056633"><ele>391.0</ele><time>2026-03-29T14:43:06.002Z</time></trkpt><trkpt lat="45.6795967" lon="8.405835"><ele>390.5</ele><time>2026-03-29T14:43:07.003Z</time></trkpt><trkpt lat="45.6795183" lon="8.4060067"><ele>390.0</ele><time>2026-03-29T14:43:08.003Z</time></trkpt><trkpt lat="45.679475" lon="8.4061633"><ele>389.8</ele><time>2026-03-29T14:43:09.003Z</time></trkpt><trkpt lat="45.6794183" lon="8.40629"><ele>389.6</ele><time>2026-03-29T14:43:10.002Z</time></trkpt><trkpt lat="45.6793983" lon="8.4064533"><ele>389.4</ele><time>2026-03-29T14:43:11.003Z</time></trkpt><trkpt lat="45.6793817" lon="8.406605"><ele>389.2</ele><time>2026-03-29T14:43:12.003Z</time></trkpt><trkpt lat="45.6793567" lon="8.4067583"><ele>389.0</ele><time>2026-03-29T14:43:13.003Z</time></trkpt><trkpt lat="45.6793333" lon="8.4068983"><ele>389.3333333333333</ele><time>2026-03-29T14:43:14.003Z</time></trkpt><trkpt lat="45.6793133" lon="8.40703"><ele>389.66666666666663</ele><time>2026-03-29T14:43:15.003Z</time></trkpt><trkpt lat="45.6793217" lon="8.4071667"><ele>390.0</ele><time>2026-03-29T14:43:17.003Z</time></trkpt><trkpt lat="45.6793417" lon="8.4072967"><ele>390.33333333333337</ele><time>2026-03-29T14:43:19.002Z</time></trkpt><trkpt lat="45.6794267" lon="8.40734"><ele>390.6666666666667</ele><time>2026-03-29T14:43:21.003Z</time></trkpt><trkpt lat="45.6794867" lon="8.4073117"><ele>391.0</ele><time>2026-03-29T14:43:22.003Z</time></trkpt><trkpt lat="45.6795783" lon="8.407255"><ele>389.75</ele><time>2026-03-29T14:43:23.003Z</time></trkpt><trkpt lat="45.6796983" lon="8.4071967"><ele>388.5</ele><time>2026-03-29T14:43:24.003Z</time></trkpt><trkpt lat="45.6798433" lon="8.4071433"><ele>387.25</ele><time>2026-03-29T14:43:25.003Z</time></trkpt><trkpt lat="45.6799967" lon="8.4071233"><ele>386.0</ele><time>2026-03-29T14:43:26.003Z</time></trkpt><trkpt lat="45.68016" lon="8.4071367"><ele>382.66666666666663</ele><time>2026-03-29T14:43:27.003Z</time></trkpt><trkpt lat="45.6803217" lon="8.4071833"><ele>379.3333333333333</ele><time>2026-03-29T14:43:28.002Z</time></trkpt><trkpt lat="45.680475" lon="8.4072733"><ele>376.0</ele><time>2026-03-29T14:43:29.002Z</time></trkpt><trkpt lat="45.680615" lon="8.40739"><ele>376.0</ele><time>2026-03-29T14:43:30.003Z</time></trkpt><trkpt lat="45.6807367" lon="8.407545"><ele>376.0</ele><time>2026-03-29T14:43:31.002Z</time></trkpt><trkpt lat="45.680865" lon="8.40772"><ele>376.0</ele><time>2026-03-29T14:43:32.003Z</time></trkpt><trkpt lat="45.6809833" lon="8.4079217"><ele>374.0</ele><time>2026-03-29T14:43:33.003Z</time></trkpt><trkpt lat="45.6810983" lon="8.4081467"><ele>372.0</ele><time>2026-03-29T14:43:34.003Z</time></trkpt><trkpt lat="45.6812017" lon="8.40839"><ele>370.0</ele><time>2026-03-29T14:43:35.003Z</time></trkpt><trkpt lat="45.6813217" lon="8.4086483"><ele>368.66666666666663</ele><time>2026-03-29T14:43:36.003Z</time></trkpt><trkpt lat="45.6814467" lon="8.4088717"><ele>367.3333333333333</ele><time>2026-03-29T14:43:37.003Z</time></trkpt><trkpt lat="45.6815483" lon="8.4090867"><ele>366.0</ele><time>2026-03-29T14:43:38.003Z</time></trkpt><trkpt lat="45.68165" lon="8.409295"><ele>366.0</ele><time>2026-03-29T14:43:39.003Z</time></trkpt><trkpt lat="45.6817417" lon="8.4094933"><ele>366.0</ele><time>2026-03-29T14:43:40.002Z</time></trkpt><trkpt lat="45.6818367" lon="8.4096783"><ele>366.0</ele><time>2026-03-29T14:43:41.003Z</time></trkpt><trkpt lat="45.6819233" lon="8.4098617"><ele>365.6666666666667</ele><time>2026-03-29T14:43:42.002Z</time></trkpt><trkpt lat="45.6820133" lon="8.4100567"><ele>365.33333333333337</ele><time>2026-03-29T14:43:43.003Z</time></trkpt><trkpt lat="45.682115" lon="8.4102517"><ele>365.0</ele><time>2026-03-29T14:43:44.003Z</time></trkpt><trkpt lat="45.6822183" lon="8.410455"><ele>365.0</ele><time>2026-03-29T14:43:45.002Z</time></trkpt><trkpt lat="45.6823367" lon="8.4106667"><ele>365.0</ele><time>2026-03-29T14:43:46.002Z</time></trkpt><trkpt lat="45.6824733" lon="8.4108683"><ele>365.0</ele><time>2026-03-29T14:43:47.003Z</time></trkpt><trkpt lat="45.6826283" lon="8.41103"><ele>365.33333333333337</ele><time>2026-03-29T14:43:48.002Z</time></trkpt><trkpt lat="45.682805" lon="8.41117"><ele>365.6666666666667</ele><time>2026-03-29T14:43:49.003Z</time></trkpt><trkpt lat="45.68299" lon="8.4112917"><ele>366.0</ele><time>2026-03-29T14:43:50.002Z</time></trkpt><trkpt lat="45.68318" lon="8.4114167"><ele>367.0</ele><time>2026-03-29T14:43:51.003Z</time></trkpt><trkpt lat="45.68335" lon="8.4115433"><ele>368.0</ele><time>2026-03-29T14:43:52.003Z</time></trkpt><trkpt lat="45.683515" lon="8.41166"><ele>369.0</ele><time>2026-03-29T14:43:53.003Z</time></trkpt><trkpt lat="45.683695" lon="8.4117667"><ele>370.3333333333333</ele><time>2026-03-29T14:43:54.003Z</time></trkpt><trkpt lat="45.6838667" lon="8.4118917"><ele>371.66666666666663</ele><time>2026-03-29T14:43:55.003Z</time></trkpt><trkpt lat="45.684045" lon="8.412025"><ele>373.0</ele><time>2026-03-29T14:43:56.003Z</time></trkpt><trkpt lat="45.6842217" lon="8.4121433"><ele>373.66666666666663</ele><time>2026-03-29T14:43:57.003Z</time></trkpt><trkpt lat="45.6843767" lon="8.4122683"><ele>374.3333333333333</ele><time>2026-03-29T14:43:58.003Z</time></trkpt><trkpt lat="45.68454" lon="8.4123683"><ele>375.0</ele><time>2026-03-29T14:43:59.003Z</time></trkpt><trkpt lat="45.6846967" lon="8.412475"><ele>376.6666666666667</ele><time>2026-03-29T14:44:00.003Z</time></trkpt><trkpt lat="45.68486" lon="8.412585"><ele>378.33333333333337</ele><time>2026-03-29T14:44:01.003Z</time></trkpt><trkpt lat="45.68501" lon="8.4126933"><ele>380.0</ele><time>2026-03-29T14:44:02.003Z</time></trkpt><trkpt lat="45.685165" lon="8.412795"><ele>380.6666666666667</ele><time>2026-03-29T14:44:03.003Z</time></trkpt><trkpt lat="45.6853067" lon="8.4128933"><ele>381.3333333333333</ele><time>2026-03-29T14:44:04.003Z</time></trkpt><trkpt lat="45.68547" lon="8.4129467"><ele>382.0</ele><time>2026-03-29T14:44:05.003Z</time></trkpt><trkpt lat="45.68558" lon="8.4130317"><ele>382.3333333333333</ele><time>2026-03-29T14:44:06.003Z</time></trkpt><trkpt lat="45.6857133" lon="8.4131317"><ele>382.6666666666667</ele><time>2026-03-29T14:44:07.002Z</time></trkpt><trkpt lat="45.6858533" lon="8.413225"><ele>383.0</ele><time>2026-03-29T14:44:08.003Z</time></trkpt><trkpt lat="45.6859867" lon="8.4133183"><ele>383.0</ele><time>2026-03-29T14:44:09.003Z</time></trkpt><trkpt lat="45.686115" lon="8.4134167"><ele>383.0</ele><time>2026-03-29T14:44:10.002Z</time></trkpt><trkpt lat="45.6862333" lon="8.413525"><ele>383.0</ele><time>2026-03-29T14:44:11.002Z</time></trkpt><trkpt lat="45.6863417" lon="8.4136667"><ele>383.0</ele><time>2026-03-29T14:44:12.003Z</time></trkpt><trkpt lat="45.6864217" lon="8.4138317"><ele>382.5</ele><time>2026-03-29T14:44:13.002Z</time></trkpt><trkpt lat="45.6864633" lon="8.4139933"><ele>382.0</ele><time>2026-03-29T14:44:14.003Z</time></trkpt><trkpt lat="45.6864683" lon="8.4141817"><ele>381.5</ele><time>2026-03-29T14:44:15.003Z</time></trkpt><trkpt lat="45.6864667" lon="8.4143967"><ele>381.0</ele><time>2026-03-29T14:44:16.003Z</time></trkpt><trkpt lat="45.686445" lon="8.4146317"><ele>378.6666666666667</ele><time>2026-03-29T14:44:17.003Z</time></trkpt><trkpt lat="45.68642" lon="8.4148783"><ele>376.33333333333337</ele><time>2026-03-29T14:44:18.003Z</time></trkpt><trkpt lat="45.686405" lon="8.41513"><ele>374.0</ele><time>2026-03-29T14:44:19.003Z</time></trkpt><trkpt lat="45.686395" lon="8.4154"><ele>372.0</ele><time>2026-03-29T14:44:20.003Z</time></trkpt><trkpt lat="45.6863883" lon="8.4156867"><ele>370.0</ele><time>2026-03-29T14:44:21.003Z</time></trkpt><trkpt lat="45.6863817" lon="8.4159717"><ele>368.0</ele><time>2026-03-29T14:44:22.003Z</time></trkpt><trkpt lat="45.6863783" lon="8.416275"><ele>367.5</ele><time>2026-03-29T14:44:23.003Z</time></trkpt><trkpt lat="45.6863717" lon="8.4166083"><ele>367.0</ele><time>2026-03-29T14:44:24.002Z</time></trkpt><trkpt lat="45.68636" lon="8.4169483"><ele>369.0</ele><time>2026-03-29T14:44:25.003Z</time></trkpt><trkpt lat="45.6863517" lon="8.4172833"><ele>371.0</ele><time>2026-03-29T14:44:26.003Z</time></trkpt><trkpt lat="45.6863417" lon="8.41761"><ele>371.0</ele><time>2026-03-29T14:44:27.003Z</time></trkpt><trkpt lat="45.6863433" lon="8.4179317"><ele>371.0</ele><time>2026-03-29T14:44:28.003Z</time></trkpt><trkpt lat="45.6863383" lon="8.41826"><ele>372.5</ele><time>2026-03-29T14:44:29.003Z</time></trkpt><trkpt lat="45.6863483" lon="8.41858"><ele>374.0</ele><time>2026-03-29T14:44:30.002Z</time></trkpt><trkpt lat="45.68635" lon="8.4189067"><ele>374.0</ele><time>2026-03-29T14:44:31.003Z</time></trkpt><trkpt lat="45.6863567" lon="8.4192217"><ele>374.0</ele><time>2026-03-29T14:44:32.003Z</time></trkpt><trkpt lat="45.6863567" lon="8.419535"><ele>374.0</ele><time>2026-03-29T14:44:33.003Z</time></trkpt><trkpt lat="45.68635" lon="8.4198367"><ele>374.0</ele><time>2026-03-29T14:44:34.003Z</time></trkpt><trkpt lat="45.686345" lon="8.4201467"><ele>374.0</ele><time>2026-03-29T14:44:35.002Z</time></trkpt><trkpt lat="45.6863317" lon="8.42045"><ele>374.0</ele><time>2026-03-29T14:44:36.003Z</time></trkpt><trkpt lat="45.6863367" lon="8.420755"><ele>374.33333333333337</ele><time>2026-03-29T14:44:37.003Z</time></trkpt><trkpt lat="45.6863617" lon="8.4210717"><ele>374.6666666666667</ele><time>2026-03-29T14:44:38.003Z</time></trkpt><trkpt lat="45.686405" lon="8.4213833"><ele>375.0</ele><time>2026-03-29T14:44:39.002Z</time></trkpt><trkpt lat="45.6864633" lon="8.4216817"><ele>375.0</ele><time>2026-03-29T14:44:40.002Z</time></trkpt><trkpt lat="45.6865033" lon="8.42198"><ele>375.0</ele><time>2026-03-29T14:44:41.003Z</time></trkpt><trkpt lat="45.6865433" lon="8.4222867"><ele>375.0</ele><time>2026-03-29T14:44:42.002Z</time></trkpt><trkpt lat="45.68657" lon="8.422595"><ele>374.6666666666667</ele><time>2026-03-29T14:44:43.002Z</time></trkpt><trkpt lat="45.6866067" lon="8.4229"><ele>374.33333333333337</ele><time>2026-03-29T14:44:44.003Z</time></trkpt><trkpt lat="45.6866533" lon="8.423215"><ele>374.0</ele><time>2026-03-29T14:44:45.002Z</time></trkpt><trkpt lat="45.686695" lon="8.4235283"><ele>374.0</ele><time>2026-03-29T14:44:46.002Z</time></trkpt><trkpt lat="45.6867367" lon="8.423835"><ele>374.0</ele><time>2026-03-29T14:44:47.002Z</time></trkpt><trkpt lat="45.686775" lon="8.4241283"><ele>374.0</ele><time>2026-03-29T14:44:48.002Z</time></trkpt><trkpt lat="45.6868033" lon="8.42441"><ele>374.6666666666667</ele><time>2026-03-29T14:44:49.003Z</time></trkpt><trkpt lat="45.68682" lon="8.42467"><ele>375.3333333333333</ele><time>2026-03-29T14:44:50.003Z</time></trkpt><trkpt lat="45.68685" lon="8.4249367"><ele>376.0</ele><time>2026-03-29T14:44:51.003Z</time></trkpt><trkpt lat="45.6868867" lon="8.4251867"><ele>376.0</ele><time>2026-03-29T14:44:52.003Z</time></trkpt><trkpt lat="45.6869417" lon="8.4254267"><ele>376.0</ele><time>2026-03-29T14:44:53.003Z</time></trkpt><trkpt lat="45.6870083" lon="8.4256617"><ele>376.0</ele><time>2026-03-29T14:44:54.003Z</time></trkpt><trkpt lat="45.687095" lon="8.425895"><ele>376.0</ele><time>2026-03-29T14:44:55.003Z</time></trkpt><trkpt lat="45.6871817" lon="8.4261117"><ele>376.0</ele><time>2026-03-29T14:44:56.003Z</time></trkpt><trkpt lat="45.6872833" lon="8.426335"><ele>376.0</ele><time>2026-03-29T14:44:57.003Z</time></trkpt><trkpt lat="45.68737" lon="8.426545"><ele>375.66666666666663</ele><time>2026-03-29T14:44:58.003Z</time></trkpt><trkpt lat="45.6874533" lon="8.42676"><ele>375.3333333333333</ele><time>2026-03-29T14:44:59.003Z</time></trkpt><trkpt lat="45.6875267" lon="8.4269617"><ele>375.0</ele><time>2026-03-29T14:45:00.003Z</time></trkpt><trkpt lat="45.68759" lon="8.4271367"><ele>375.4</ele><time>2026-03-29T14:45:01.003Z</time></trkpt><trkpt lat="45.6876383" lon="8.42727"><ele>375.8</ele><time>2026-03-29T14:45:02.003Z</time></trkpt><trkpt lat="45.6876667" lon="8.4273717"><ele>376.20000000000005</ele><time>2026-03-29T14:45:03.003Z</time></trkpt><trkpt lat="45.6877117" lon="8.4274983"><ele>376.6</ele><time>2026-03-29T14:45:05.003Z</time></trkpt><trkpt lat="45.6877317" lon="8.427595"><ele>377.0</ele><time>2026-03-29T14:45:07.002Z</time></trkpt><trkpt lat="45.6876317" lon="8.427675"><ele>377.0</ele><time>2026-03-29T14:45:09.003Z</time></trkpt><trkpt lat="45.6875533" lon="8.4277317"><ele>377.0</ele><time>2026-03-29T14:45:10.003Z</time></trkpt><trkpt lat="45.6874567" lon="8.427805"><ele>377.0</ele><time>2026-03-29T14:45:11.003Z</time></trkpt><trkpt lat="45.687325" lon="8.42791"><ele>377.0</ele><time>2026-03-29T14:45:12.003Z</time></trkpt><trkpt lat="45.6871783" lon="8.4280183"><ele>377.0</ele><time>2026-03-29T14:45:13.002Z</time></trkpt><trkpt lat="45.687005" lon="8.4281267"><ele>377.0</ele><time>2026-03-29T14:45:14.003Z</time></trkpt><trkpt lat="45.6868267" lon="8.4282417"><ele>377.0</ele><time>2026-03-29T14:45:15.003Z</time></trkpt><trkpt lat="45.6866567" lon="8.4283617"><ele>376.0</ele><time>2026-03-29T14:45:16.002Z</time></trkpt><trkpt lat="45.686475" lon="8.42847"><ele>375.0</ele><time>2026-03-29T14:45:17.003Z</time></trkpt><trkpt lat="45.6863083" lon="8.4285883"><ele>374.0</ele><time>2026-03-29T14:45:18.003Z</time></trkpt><trkpt lat="45.6861433" lon="8.4287233"><ele>373.6666666666667</ele><time>2026-03-29T14:45:19.003Z</time></trkpt><trkpt lat="45.685965" lon="8.428855"><ele>373.3333333333333</ele><time>2026-03-29T14:45:20.002Z</time></trkpt><trkpt lat="45.68579" lon="8.42898"><ele>373.0</ele><time>2026-03-29T14:45:21.003Z</time></trkpt><trkpt lat="45.68561" lon="8.4291167"><ele>373.0</ele><time>2026-03-29T14:45:22.002Z</time></trkpt><trkpt lat="45.6854233" lon="8.4292533"><ele>373.0</ele><time>2026-03-29T14:45:23.003Z</time></trkpt><trkpt lat="45.6852433" lon="8.4293817"><ele>373.0</ele><time>2026-03-29T14:45:24.003Z</time></trkpt><trkpt lat="45.6850433" lon="8.4295233"><ele>372.3333333333333</ele><time>2026-03-29T14:45:25.003Z</time></trkpt><trkpt lat="45.684855" lon="8.42966"><ele>371.6666666666667</ele><time>2026-03-29T14:45:26.003Z</time></trkpt><trkpt lat="45.68467" lon="8.429805"><ele>371.0</ele><time>2026-03-29T14:45:27.002Z</time></trkpt><trkpt lat="45.6844767" lon="8.4299583"><ele>370.6666666666667</ele><time>2026-03-29T14:45:28.003Z</time></trkpt><trkpt lat="45.684285" lon="8.4301067"><ele>370.3333333333333</ele><time>2026-03-29T14:45:29.003Z</time></trkpt><trkpt lat="45.68409" lon="8.4302533"><ele>370.0</ele><time>2026-03-29T14:45:30.003Z</time></trkpt><trkpt lat="45.6838967" lon="8.4304"><ele>370.66666666666663</ele><time>2026-03-29T14:45:31.003Z</time></trkpt><trkpt lat="45.683705" lon="8.4305533"><ele>371.3333333333333</ele><time>2026-03-29T14:45:32.003Z</time></trkpt><trkpt lat="45.6835117" lon="8.4306833"><ele>372.0</ele><time>2026-03-29T14:45:33.002Z</time></trkpt><trkpt lat="45.68333" lon="8.4308283"><ele>370.0</ele><time>2026-03-29T14:45:34.003Z</time></trkpt><trkpt lat="45.6831217" lon="8.4309767"><ele>368.0</ele><time>2026-03-29T14:45:35.002Z</time></trkpt><trkpt lat="45.6829317" lon="8.4311267"><ele>368.0</ele><time>2026-03-29T14:45:36.003Z</time></trkpt><trkpt lat="45.68275" lon="8.4312583"><ele>368.0</ele><time>2026-03-29T14:45:37.003Z</time></trkpt><trkpt lat="45.682575" lon="8.431385"><ele>368.0</ele><time>2026-03-29T14:45:38.003Z</time></trkpt><trkpt lat="45.6824067" lon="8.4315067"><ele>368.0</ele><time>2026-03-29T14:45:39.003Z</time></trkpt><trkpt lat="45.6822383" lon="8.43164"><ele>368.0</ele><time>2026-03-29T14:45:40.003Z</time></trkpt><trkpt lat="45.6820767" lon="8.4317767"><ele>368.0</ele><time>2026-03-29T14:45:41.003Z</time></trkpt><trkpt lat="45.6818967" lon="8.4319233"><ele>367.6666666666667</ele><time>2026-03-29T14:45:42.003Z</time></trkpt><trkpt lat="45.681715" lon="8.4320817"><ele>367.3333333333333</ele><time>2026-03-29T14:45:43.003Z</time></trkpt><trkpt lat="45.681515" lon="8.4322267"><ele>367.0</ele><time>2026-03-29T14:45:44.003Z</time></trkpt><trkpt lat="45.6813133" lon="8.4323583"><ele>365.5</ele><time>2026-03-29T14:45:45.002Z</time></trkpt><trkpt lat="45.6810983" lon="8.43249"><ele>364.0</ele><time>2026-03-29T14:45:46.002Z</time></trkpt><trkpt lat="45.68088" lon="8.4326217"><ele>364.0</ele><time>2026-03-29T14:45:47.003Z</time></trkpt><trkpt lat="45.6806817" lon="8.4327733"><ele>364.0</ele><time>2026-03-29T14:45:48.003Z</time></trkpt><trkpt lat="45.68047" lon="8.43294"><ele>364.0</ele><time>2026-03-29T14:45:49.003Z</time></trkpt><trkpt lat="45.6802533" lon="8.4331133"><ele>364.0</ele><time>2026-03-29T14:45:50.003Z</time></trkpt><trkpt lat="45.68004" lon="8.43328"><ele>364.0</ele><time>2026-03-29T14:45:51.003Z</time></trkpt><trkpt lat="45.679825" lon="8.43345"><ele>364.0</ele><time>2026-03-29T14:45:52.003Z</time></trkpt><trkpt lat="45.6796133" lon="8.4336117"><ele>363.5</ele><time>2026-03-29T14:45:53.003Z</time></trkpt><trkpt lat="45.6793917" lon="8.433765"><ele>363.0</ele><time>2026-03-29T14:45:54.002Z</time></trkpt><trkpt lat="45.6791767" lon="8.4339233"><ele>363.0</ele><time>2026-03-29T14:45:55.002Z</time></trkpt><trkpt lat="45.6789567" lon="8.4340767"><ele>363.0</ele><time>2026-03-29T14:45:56.002Z</time></trkpt><trkpt lat="45.6787467" lon="8.4342317"><ele>363.0</ele><time>2026-03-29T14:45:57.002Z</time></trkpt><trkpt lat="45.6785383" lon="8.4343933"><ele>363.0</ele><time>2026-03-29T14:45:58.002Z</time></trkpt><trkpt lat="45.6783267" lon="8.4345517"><ele>362.5</ele><time>2026-03-29T14:45:59.002Z</time></trkpt><trkpt lat="45.6781067" lon="8.434715"><ele>362.0</ele><time>2026-03-29T14:46:00.002Z</time></trkpt><trkpt lat="45.677885" lon="8.43488"><ele>361.0</ele><time>2026-03-29T14:46:01.003Z</time></trkpt><trkpt lat="45.677655" lon="8.43505"><ele>360.0</ele><time>2026-03-29T14:46:02.002Z</time></trkpt><trkpt lat="45.6774183" lon="8.4352233"><ele>360.0</ele><time>2026-03-29T14:46:03.002Z</time></trkpt><trkpt lat="45.6771817" lon="8.435405"><ele>360.0</ele><time>2026-03-29T14:46:04.002Z</time></trkpt><trkpt lat="45.6769383" lon="8.4355967"><ele>360.5</ele><time>2026-03-29T14:46:05.003Z</time></trkpt><trkpt lat="45.6766867" lon="8.4357883"><ele>361.0</ele><time>2026-03-29T14:46:06.003Z</time></trkpt><trkpt lat="45.6764267" lon="8.43596"><ele>361.0</ele><time>2026-03-29T14:46:07.002Z</time></trkpt><trkpt lat="45.6761667" lon="8.436135"><ele>361.0</ele><time>2026-03-29T14:46:08.003Z</time></trkpt><trkpt lat="45.6759167" lon="8.4363233"><ele>362.0</ele><time>2026-03-29T14:46:09.003Z</time></trkpt><trkpt lat="45.67566" lon="8.4365033"><ele>363.0</ele><time>2026-03-29T14:46:10.003Z</time></trkpt><trkpt lat="45.67541" lon="8.4366883"><ele>362.0</ele><time>2026-03-29T14:46:11.003Z</time></trkpt><trkpt lat="45.6751633" lon="8.43688"><ele>361.0</ele><time>2026-03-29T14:46:12.003Z</time></trkpt><trkpt lat="45.674915" lon="8.43707"><ele>361.5</ele><time>2026-03-29T14:46:13.003Z</time></trkpt><trkpt lat="45.6746583" lon="8.4372667"><ele>362.0</ele><time>2026-03-29T14:46:14.003Z</time></trkpt><trkpt lat="45.67439" lon="8.4374567"><ele>360.5</ele><time>2026-03-29T14:46:15.002Z</time></trkpt><trkpt lat="45.67412" lon="8.4376467"><ele>359.0</ele><time>2026-03-29T14:46:16.002Z</time></trkpt><trkpt lat="45.673865" lon="8.4378417"><ele>358.5</ele><time>2026-03-29T14:46:17.002Z</time></trkpt><trkpt lat="45.673595" lon="8.4380383"><ele>358.0</ele><time>2026-03-29T14:46:18.003Z</time></trkpt><trkpt lat="45.6733317" lon="8.438225"><ele>358.0</ele><time>2026-03-29T14:46:19.003Z</time></trkpt><trkpt lat="45.6730783" lon="8.4384033"><ele>358.0</ele><time>2026-03-29T14:46:20.003Z</time></trkpt><trkpt lat="45.6728317" lon="8.4385833"><ele>357.5</ele><time>2026-03-29T14:46:21.003Z</time></trkpt><trkpt lat="45.6725767" lon="8.438765"><ele>357.0</ele><time>2026-03-29T14:46:22.003Z</time></trkpt><trkpt lat="45.6723317" lon="8.4389417"><ele>357.0</ele><time>2026-03-29T14:46:23.002Z</time></trkpt><trkpt lat="45.672085" lon="8.4391217"><ele>357.0</ele><time>2026-03-29T14:46:24.002Z</time></trkpt><trkpt lat="45.6718367" lon="8.4393067"><ele>356.0</ele><time>2026-03-29T14:46:25.003Z</time></trkpt><trkpt lat="45.671595" lon="8.4394817"><ele>355.0</ele><time>2026-03-29T14:46:26.003Z</time></trkpt><trkpt lat="45.6713417" lon="8.4396717"><ele>355.5</ele><time>2026-03-29T14:46:27.002Z</time></trkpt><trkpt lat="45.6711033" lon="8.4398467"><ele>356.0</ele><time>2026-03-29T14:46:28.002Z</time></trkpt><trkpt lat="45.6708683" lon="8.4400167"><ele>356.0</ele><time>2026-03-29T14:46:29.003Z</time></trkpt><trkpt lat="45.670635" lon="8.44019"><ele>356.0</ele><time>2026-03-29T14:46:30.002Z</time></trkpt><trkpt lat="45.6704183" lon="8.44036"><ele>354.0</ele><time>2026-03-29T14:46:31.003Z</time></trkpt><trkpt lat="45.6702133" lon="8.44053"><ele>352.0</ele><time>2026-03-29T14:46:32.003Z</time></trkpt><trkpt lat="45.6700117" lon="8.4406767"><ele>352.0</ele><time>2026-03-29T14:46:33.003Z</time></trkpt><trkpt lat="45.669815" lon="8.4408333"><ele>352.0</ele><time>2026-03-29T14:46:34.003Z</time></trkpt><trkpt lat="45.6696317" lon="8.4409783"><ele>352.0</ele><time>2026-03-29T14:46:35.003Z</time></trkpt><trkpt lat="45.6694583" lon="8.4411183"><ele>352.3333333333333</ele><time>2026-03-29T14:46:36.003Z</time></trkpt><trkpt lat="45.6692683" lon="8.441255"><ele>352.6666666666667</ele><time>2026-03-29T14:46:37.002Z</time></trkpt><trkpt lat="45.66909" lon="8.4413817"><ele>353.0</ele><time>2026-03-29T14:46:38.003Z</time></trkpt><trkpt lat="45.6688967" lon="8.4415183"><ele>352.6666666666667</ele><time>2026-03-29T14:46:39.002Z</time></trkpt><trkpt lat="45.6686967" lon="8.4416633"><ele>352.3333333333333</ele><time>2026-03-29T14:46:40.003Z</time></trkpt><trkpt lat="45.6684983" lon="8.4418"><ele>352.0</ele><time>2026-03-29T14:46:41.003Z</time></trkpt><trkpt lat="45.668305" lon="8.44194"><ele>352.0</ele><time>2026-03-29T14:46:42.003Z</time></trkpt><trkpt lat="45.6681083" lon="8.4420917"><ele>352.0</ele><time>2026-03-29T14:46:43.002Z</time></trkpt><trkpt lat="45.6679117" lon="8.4422367"><ele>352.0</ele><time>2026-03-29T14:46:44.001Z</time></trkpt><trkpt lat="45.6676983" lon="8.4423917"><ele>351.0</ele><time>2026-03-29T14:46:45.002Z</time></trkpt><trkpt lat="45.6674983" lon="8.44254"><ele>350.0</ele><time>2026-03-29T14:46:46.002Z</time></trkpt><trkpt lat="45.6673067" lon="8.44267"><ele>349.0</ele><time>2026-03-29T14:46:47.001Z</time></trkpt><trkpt lat="45.6671133" lon="8.4428017"><ele>348.66666666666663</ele><time>2026-03-29T14:46:48.002Z</time></trkpt><trkpt lat="45.6669317" lon="8.442935"><ele>348.3333333333333</ele><time>2026-03-29T14:46:49.001Z</time></trkpt><trkpt lat="45.6667633" lon="8.4430617"><ele>348.0</ele><time>2026-03-29T14:46:50.002Z</time></trkpt><trkpt lat="45.6666067" lon="8.4431783"><ele>348.0</ele><time>2026-03-29T14:46:51.002Z</time></trkpt><trkpt lat="45.6664583" lon="8.4432917"><ele>348.0</ele><time>2026-03-29T14:46:52.001Z</time></trkpt><trkpt lat="45.6663183" lon="8.4434017"><ele>348.0</ele><time>2026-03-29T14:46:53.001Z</time></trkpt><trkpt lat="45.6661833" lon="8.4434933"><ele>347.8333333333333</ele><time>2026-03-29T14:46:54.002Z</time></trkpt><trkpt lat="45.666075" lon="8.44357"><ele>347.6666666666667</ele><time>2026-03-29T14:46:55.001Z</time></trkpt><trkpt lat="45.6659933" lon="8.4436267"><ele>347.5</ele><time>2026-03-29T14:46:56.001Z</time></trkpt><trkpt lat="45.6659317" lon="8.443665"><ele>347.33333333333337</ele><time>2026-03-29T14:46:57.001Z</time></trkpt><trkpt lat="45.6658667" lon="8.443685"><ele>347.1666666666667</ele><time>2026-03-29T14:47:00.002Z</time></trkpt><trkpt lat="45.66579" lon="8.4436933"><ele>347.0</ele><time>2026-03-29T14:47:05.002Z</time></trkpt><trkpt lat="45.665775" lon="8.44381"><ele>347.0</ele><time>2026-03-29T14:47:07.002Z</time></trkpt><trkpt lat="45.6658233" lon="8.4438983"><ele>347.0</ele><time>2026-03-29T14:47:08.001Z</time></trkpt><trkpt lat="45.665885" lon="8.4440033"><ele>347.0</ele><time>2026-03-29T14:47:09.002Z</time></trkpt><trkpt lat="45.6659733" lon="8.4441483"><ele>347.0</ele><time>2026-03-29T14:47:10.002Z</time></trkpt><trkpt lat="45.6660833" lon="8.4443183"><ele>347.0</ele><time>2026-03-29T14:47:11.002Z</time></trkpt><trkpt lat="45.666205" lon="8.44452"><ele>347.0</ele><time>2026-03-29T14:47:12.002Z</time></trkpt><trkpt lat="45.6663233" lon="8.4447133"><ele>347.0</ele><time>2026-03-29T14:47:13.002Z</time></trkpt><trkpt lat="45.6664483" lon="8.4449033"><ele>347.33333333333337</ele><time>2026-03-29T14:47:14.002Z</time></trkpt><trkpt lat="45.6665617" lon="8.4450717"><ele>347.6666666666667</ele><time>2026-03-29T14:47:15.002Z</time></trkpt><trkpt lat="45.6667383" lon="8.4451883"><ele>348.0</ele><time>2026-03-29T14:47:16.001Z</time></trkpt><trkpt lat="45.6669133" lon="8.4452733"><ele>346.3333333333333</ele><time>2026-03-29T14:47:17.002Z</time></trkpt><trkpt lat="45.66709" lon="8.4453417"><ele>344.66666666666663</ele><time>2026-03-29T14:47:18.001Z</time></trkpt><trkpt lat="45.667255" lon="8.4453733"><ele>343.0</ele><time>2026-03-29T14:47:19.001Z</time></trkpt><trkpt lat="45.6674167" lon="8.4453633"><ele>343.0</ele><time>2026-03-29T14:47:20.002Z</time></trkpt><trkpt lat="45.66757" lon="8.445325"><ele>343.0</ele><time>2026-03-29T14:47:21.001Z</time></trkpt><trkpt lat="45.6677183" lon="8.4452867"><ele>343.0</ele><time>2026-03-29T14:47:22.002Z</time></trkpt><trkpt lat="45.667895" lon="8.44524"><ele>340.3333333333333</ele><time>2026-03-29T14:47:23.002Z</time></trkpt><trkpt lat="45.668105" lon="8.4452"><ele>337.6666666666667</ele><time>2026-03-29T14:47:24.002Z</time></trkpt><trkpt lat="45.6683217" lon="8.4451867"><ele>335.0</ele><time>2026-03-29T14:47:25.001Z</time></trkpt><trkpt lat="45.6685267" lon="8.4451733"><ele>335.33333333333337</ele><time>2026-03-29T14:47:26.001Z</time></trkpt><trkpt lat="45.6687133" lon="8.4451767"><ele>335.6666666666667</ele><time>2026-03-29T14:47:27.002Z</time></trkpt><trkpt lat="45.6688833" lon="8.4451633"><ele>336.0</ele><time>2026-03-29T14:47:28.002Z</time></trkpt><trkpt lat="45.6690467" lon="8.4451533"><ele>336.0</ele><time>2026-03-29T14:47:29.002Z</time></trkpt><trkpt lat="45.6691933" lon="8.4452"><ele>336.0</ele><time>2026-03-29T14:47:30.002Z</time></trkpt><trkpt lat="45.6693267" lon="8.445285"><ele>336.0</ele><time>2026-03-29T14:47:31.001Z</time></trkpt><trkpt lat="45.6694417" lon="8.445395"><ele>336.0</ele><time>2026-03-29T14:47:32.001Z</time></trkpt><trkpt lat="45.6695417" lon="8.445535"><ele>336.25</ele><time>2026-03-29T14:47:33.002Z</time></trkpt><trkpt lat="45.6696167" lon="8.4456967"><ele>336.5</ele><time>2026-03-29T14:47:34.002Z</time></trkpt><trkpt lat="45.669645" lon="8.4458683"><ele>336.75</ele><time>2026-03-29T14:47:35.002Z</time></trkpt><trkpt lat="45.6696583" lon="8.44605"><ele>337.0</ele><time>2026-03-29T14:47:36.002Z</time></trkpt><trkpt lat="45.6696583" lon="8.4462317"><ele>336.0</ele><time>2026-03-29T14:47:37.002Z</time></trkpt><trkpt lat="45.669625" lon="8.44641"><ele>335.0</ele><time>2026-03-29T14:47:38.002Z</time></trkpt><trkpt lat="45.6695633" lon="8.4465833"><ele>334.0</ele><time>2026-03-29T14:47:39.001Z</time></trkpt><trkpt lat="45.6694917" lon="8.4467533"><ele>333.0</ele><time>2026-03-29T14:47:40.002Z</time></trkpt><trkpt lat="45.669425" lon="8.4469283"><ele>333.0</ele><time>2026-03-29T14:47:41.002Z</time></trkpt><trkpt lat="45.66936" lon="8.44712"><ele>333.0</ele><time>2026-03-29T14:47:42.002Z</time></trkpt><trkpt lat="45.66929" lon="8.4473167"><ele>333.0</ele><time>2026-03-29T14:47:43.002Z</time></trkpt><trkpt lat="45.6692267" lon="8.4475017"><ele>333.0</ele><time>2026-03-29T14:47:44.002Z</time></trkpt><trkpt lat="45.669165" lon="8.44769"><ele>331.0</ele><time>2026-03-29T14:47:45.001Z</time></trkpt><trkpt lat="45.6691067" lon="8.4478717"><ele>329.0</ele><time>2026-03-29T14:47:46.002Z</time></trkpt><trkpt lat="45.6690367" lon="8.44807"><ele>327.0</ele><time>2026-03-29T14:47:47.002Z</time></trkpt><trkpt lat="45.6689683" lon="8.4482733"><ele>324.3333333333333</ele><time>2026-03-29T14:47:48.002Z</time></trkpt><trkpt lat="45.6689033" lon="8.4484817"><ele>321.66666666666663</ele><time>2026-03-29T14:47:49.002Z</time></trkpt><trkpt lat="45.6688483" lon="8.448715"><ele>319.0</ele><time>2026-03-29T14:47:50.002Z</time></trkpt><trkpt lat="45.66877" lon="8.44893"><ele>320.0</ele><time>2026-03-29T14:47:51.002Z</time></trkpt><trkpt lat="45.66868" lon="8.4491433"><ele>321.0</ele><time>2026-03-29T14:47:52.001Z</time></trkpt><trkpt lat="45.6686" lon="8.4493517"><ele>322.0</ele><time>2026-03-29T14:47:53.001Z</time></trkpt><trkpt lat="45.6685267" lon="8.4495483"><ele>318.0</ele><time>2026-03-29T14:47:54.001Z</time></trkpt><trkpt lat="45.6684567" lon="8.4497467"><ele>314.0</ele><time>2026-03-29T14:47:55.001Z</time></trkpt><trkpt lat="45.6684017" lon="8.4499483"><ele>310.0</ele><time>2026-03-29T14:47:56.002Z</time></trkpt><trkpt lat="45.6683367" lon="8.4501517"><ele>310.0</ele><time>2026-03-29T14:47:57.002Z</time></trkpt><trkpt lat="45.6682617" lon="8.4503567"><ele>310.0</ele><time>2026-03-29T14:47:58.002Z</time></trkpt><trkpt lat="45.6681833" lon="8.45056"><ele>310.0</ele><time>2026-03-29T14:47:59.002Z</time></trkpt><trkpt lat="45.6681083" lon="8.4507583"><ele>308.0</ele><time>2026-03-29T14:48:00.001Z</time></trkpt><trkpt lat="45.66803" lon="8.4509517"><ele>306.0</ele><time>2026-03-29T14:48:01.002Z</time></trkpt><trkpt lat="45.6679883" lon="8.45118"><ele>304.0</ele><time>2026-03-29T14:48:02.002Z</time></trkpt><trkpt lat="45.6679683" lon="8.451435"><ele>302.3333333333333</ele><time>2026-03-29T14:48:03.002Z</time></trkpt><trkpt lat="45.6679967" lon="8.4516783"><ele>300.6666666666667</ele><time>2026-03-29T14:48:04.002Z</time></trkpt><trkpt lat="45.6680483" lon="8.4519017"><ele>299.0</ele><time>2026-03-29T14:48:05.001Z</time></trkpt><trkpt lat="45.6681217" lon="8.452095"><ele>298.33333333333337</ele><time>2026-03-29T14:48:06.002Z</time></trkpt><trkpt lat="45.6682133" lon="8.45227"><ele>297.6666666666667</ele><time>2026-03-29T14:48:07.002Z</time></trkpt><trkpt lat="45.6683317" lon="8.4524283"><ele>297.0</ele><time>2026-03-29T14:48:08.002Z</time></trkpt><trkpt lat="45.66846" lon="8.4525633"><ele>297.0</ele><time>2026-03-29T14:48:09.001Z</time></trkpt><trkpt lat="45.668595" lon="8.4526833"><ele>297.0</ele><time>2026-03-29T14:48:10.002Z</time></trkpt><trkpt lat="45.6687433" lon="8.4528067"><ele>297.0</ele><time>2026-03-29T14:48:11.002Z</time></trkpt><trkpt lat="45.6689117" lon="8.4529283"><ele>296.6666666666667</ele><time>2026-03-29T14:48:12.002Z</time></trkpt><trkpt lat="45.6690917" lon="8.4530617"><ele>296.33333333333337</ele><time>2026-03-29T14:48:13.001Z</time></trkpt><trkpt lat="45.6692867" lon="8.4532067"><ele>296.0</ele><time>2026-03-29T14:48:14.002Z</time></trkpt><trkpt lat="45.6694883" lon="8.4533633"><ele>295.0</ele><time>2026-03-29T14:48:15.001Z</time></trkpt><trkpt lat="45.669685" lon="8.45354"><ele>294.0</ele><time>2026-03-29T14:48:16.002Z</time></trkpt><trkpt lat="45.66988" lon="8.4537183"><ele>294.0</ele><time>2026-03-29T14:48:17.002Z</time></trkpt><trkpt lat="45.6700833" lon="8.45391"><ele>294.0</ele><time>2026-03-29T14:48:18.002Z</time></trkpt><trkpt lat="45.6703017" lon="8.454095"><ele>294.5</ele><time>2026-03-29T14:48:19.002Z</time></trkpt><trkpt lat="45.6705167" lon="8.45425"><ele>295.0</ele><time>2026-03-29T14:48:20.001Z</time></trkpt><trkpt lat="45.6707317" lon="8.4544167"><ele>295.0</ele><time>2026-03-29T14:48:21.002Z</time></trkpt><trkpt lat="45.6709333" lon="8.4545717"><ele>295.0</ele><time>2026-03-29T14:48:22.001Z</time></trkpt><trkpt lat="45.671105" lon="8.4547267"><ele>295.0</ele><time>2026-03-29T14:48:23.002Z</time></trkpt><trkpt lat="45.6712833" lon="8.4548517"><ele>294.66666666666663</ele><time>2026-03-29T14:48:24.002Z</time></trkpt><trkpt lat="45.6714717" lon="8.4549983"><ele>294.3333333333333</ele><time>2026-03-29T14:48:25.002Z</time></trkpt><trkpt lat="45.6716667" lon="8.455165"><ele>294.0</ele><time>2026-03-29T14:48:26.002Z</time></trkpt><trkpt lat="45.67187" lon="8.4553133"><ele>294.0</ele><time>2026-03-29T14:48:27.002Z</time></trkpt><trkpt lat="45.6720767" lon="8.4554533"><ele>294.0</ele><time>2026-03-29T14:48:28.002Z</time></trkpt><trkpt lat="45.6722767" lon="8.4555883"><ele>294.0</ele><time>2026-03-29T14:48:29.002Z</time></trkpt><trkpt lat="45.6724717" lon="8.455695"><ele>294.0</ele><time>2026-03-29T14:48:30.001Z</time></trkpt><trkpt lat="45.672665" lon="8.4557833"><ele>294.0</ele><time>2026-03-29T14:48:31.001Z</time></trkpt><trkpt lat="45.672875" lon="8.4558417"><ele>294.3333333333333</ele><time>2026-03-29T14:48:32.002Z</time></trkpt><trkpt lat="45.6730733" lon="8.45588"><ele>294.66666666666663</ele><time>2026-03-29T14:48:33.002Z</time></trkpt><trkpt lat="45.673265" lon="8.45591"><ele>295.0</ele><time>2026-03-29T14:48:34.001Z</time></trkpt><trkpt lat="45.6734467" lon="8.4559317"><ele>295.0</ele><time>2026-03-29T14:48:35.002Z</time></trkpt><trkpt lat="45.6736133" lon="8.4559383"><ele>295.0</ele><time>2026-03-29T14:48:36.001Z</time></trkpt><trkpt lat="45.67377" lon="8.4559333"><ele>295.0</ele><time>2026-03-29T14:48:37.002Z</time></trkpt><trkpt lat="45.6739033" lon="8.4559333"><ele>295.0</ele><time>2026-03-29T14:48:38.002Z</time></trkpt><trkpt lat="45.67404" lon="8.4559533"><ele>295.0</ele><time>2026-03-29T14:48:39.002Z</time></trkpt><trkpt lat="45.674135" lon="8.4559717"><ele>295.0</ele><time>2026-03-29T14:48:40.002Z</time></trkpt><trkpt lat="45.6742217" lon="8.4560167"><ele>295.0</ele><time>2026-03-29T14:48:41.002Z</time></trkpt><trkpt lat="45.6742817" lon="8.456085"><ele>295.0</ele><time>2026-03-29T14:48:42.002Z</time></trkpt><trkpt lat="45.6743317" lon="8.4562033"><ele>295.25</ele><time>2026-03-29T14:48:43.002Z</time></trkpt><trkpt lat="45.6743633" lon="8.45636"><ele>295.5</ele><time>2026-03-29T14:48:44.002Z</time></trkpt><trkpt lat="45.6743617" lon="8.45657"><ele>295.75</ele><time>2026-03-29T14:48:45.002Z</time></trkpt><trkpt lat="45.67436" lon="8.4568"><ele>296.0</ele><time>2026-03-29T14:48:46.002Z</time></trkpt><trkpt lat="45.67437" lon="8.457025"><ele>295.25</ele><time>2026-03-29T14:48:47.002Z</time></trkpt><trkpt lat="45.6743883" lon="8.4572283"><ele>294.5</ele><time>2026-03-29T14:48:48.002Z</time></trkpt><trkpt lat="45.6744017" lon="8.4574517"><ele>293.75</ele><time>2026-03-29T14:48:49.002Z</time></trkpt><trkpt lat="45.6744183" lon="8.4576633"><ele>293.0</ele><time>2026-03-29T14:48:50.002Z</time></trkpt><trkpt lat="45.6744283" lon="8.45787"><ele>293.0</ele><time>2026-03-29T14:48:51.001Z</time></trkpt><trkpt lat="45.6744533" lon="8.45805"><ele>293.0</ele><time>2026-03-29T14:48:52.002Z</time></trkpt><trkpt lat="45.674465" lon="8.4581517"><ele>293.0</ele><time>2026-03-29T14:48:53.002Z</time></trkpt><trkpt lat="45.6744017" lon="8.4582417"><ele>293.0</ele><time>2026-03-29T14:48:55.001Z</time></trkpt><trkpt lat="45.6743283" lon="8.4582767"><ele>293.0</ele><time>2026-03-29T14:48:56.002Z</time></trkpt><trkpt lat="45.6741633" lon="8.4582533"><ele>292.6666666666667</ele><time>2026-03-29T14:48:57.002Z</time></trkpt><trkpt lat="45.673935" lon="8.458215"><ele>292.3333333333333</ele><time>2026-03-29T14:48:58.002Z</time></trkpt><trkpt lat="45.6737583" lon="8.4581983"><ele>292.0</ele><time>2026-03-29T14:48:59.002Z</time></trkpt><trkpt lat="45.6735867" lon="8.45819"><ele>292.0</ele><time>2026-03-29T14:49:00.002Z</time></trkpt><trkpt lat="45.67342" lon="8.4581733"><ele>292.0</ele><time>2026-03-29T14:49:01.002Z</time></trkpt><trkpt lat="45.673255" lon="8.4581817"><ele>292.0</ele><time>2026-03-29T14:49:02.001Z</time></trkpt><trkpt lat="45.673095" lon="8.4581683"><ele>292.0</ele><time>2026-03-29T14:49:03.002Z</time></trkpt><trkpt lat="45.6729267" lon="8.458185"><ele>292.0</ele><time>2026-03-29T14:49:04.002Z</time></trkpt><trkpt lat="45.6727533" lon="8.4581967"><ele>292.0</ele><time>2026-03-29T14:49:05.001Z</time></trkpt><trkpt lat="45.672575" lon="8.4582"><ele>291.66666666666663</ele><time>2026-03-29T14:49:06.002Z</time></trkpt><trkpt lat="45.672385" lon="8.4582167"><ele>291.3333333333333</ele><time>2026-03-29T14:49:07.001Z</time></trkpt><trkpt lat="45.6722" lon="8.4582167"><ele>291.0</ele><time>2026-03-29T14:49:08.002Z</time></trkpt><trkpt lat="45.6720233" lon="8.45822"><ele>291.0</ele><time>2026-03-29T14:49:09.001Z</time></trkpt><trkpt lat="45.6718683" lon="8.4582217"><ele>291.0</ele><time>2026-03-29T14:49:10.001Z</time></trkpt><trkpt lat="45.6717417" lon="8.458225"><ele>291.0</ele><time>2026-03-29T14:49:11.002Z</time></trkpt><trkpt lat="45.671665" lon="8.45822"><ele>291.0</ele><time>2026-03-29T14:49:12.002Z</time></trkpt><trkpt lat="45.6715733" lon="8.458265"><ele>291.0</ele><time>2026-03-29T14:49:14.001Z</time></trkpt><trkpt lat="45.6715683" lon="8.458405"><ele>291.0</ele><time>2026-03-29T14:49:16.002Z</time></trkpt><trkpt lat="45.6715883" lon="8.4585067"><ele>291.0</ele><time>2026-03-29T14:49:17.002Z</time></trkpt><trkpt lat="45.67163" lon="8.4586367"><ele>291.0</ele><time>2026-03-29T14:49:18.002Z</time></trkpt><trkpt lat="45.6716533" lon="8.458795"><ele>291.0</ele><time>2026-03-29T14:49:19.002Z</time></trkpt><trkpt lat="45.671685" lon="8.4589817"><ele>290.6666666666667</ele><time>2026-03-29T14:49:20.002Z</time></trkpt><trkpt lat="45.671725" lon="8.4591867"><ele>290.33333333333337</ele><time>2026-03-29T14:49:21.002Z</time></trkpt><trkpt lat="45.67177" lon="8.4594033"><ele>290.0</ele><time>2026-03-29T14:49:22.001Z</time></trkpt><trkpt lat="45.67182" lon="8.4596333"><ele>290.0</ele><time>2026-03-29T14:49:23.002Z</time></trkpt><trkpt lat="45.6718633" lon="8.4598783"><ele>290.0</ele><time>2026-03-29T14:49:24.002Z</time></trkpt><trkpt lat="45.6719083" lon="8.460115"><ele>290.0</ele><time>2026-03-29T14:49:25.002Z</time></trkpt><trkpt lat="45.671965" lon="8.460315"><ele>290.0</ele><time>2026-03-29T14:49:26.001Z</time></trkpt><trkpt lat="45.6719983" lon="8.4605183"><ele>290.0</ele><time>2026-03-29T14:49:27.001Z</time></trkpt><trkpt lat="45.6720183" lon="8.4606933"><ele>290.0</ele><time>2026-03-29T14:49:28.002Z</time></trkpt><trkpt lat="45.6720417" lon="8.4608483"><ele>290.0</ele><time>2026-03-29T14:49:29.001Z</time></trkpt><trkpt lat="45.6720433" lon="8.4609917"><ele>290.0</ele><time>2026-03-29T14:49:30.002Z</time></trkpt><trkpt lat="45.6720217" lon="8.4611367"><ele>290.0</ele><time>2026-03-29T14:49:31.002Z</time></trkpt><trkpt lat="45.6719583" lon="8.4612617"><ele>290.0</ele><time>2026-03-29T14:49:32.001Z</time></trkpt><trkpt lat="45.67184" lon="8.4613167"><ele>290.0</ele><time>2026-03-29T14:49:33.002Z</time></trkpt><trkpt lat="45.6716967" lon="8.4613567"><ele>289.6666666666667</ele><time>2026-03-29T14:49:34.002Z</time></trkpt><trkpt lat="45.67155" lon="8.461415"><ele>289.3333333333333</ele><time>2026-03-29T14:49:35.002Z</time></trkpt><trkpt lat="45.6714033" lon="8.4614817"><ele>289.0</ele><time>2026-03-29T14:49:36.002Z</time></trkpt><trkpt lat="45.67126" lon="8.461545"><ele>289.0</ele><time>2026-03-29T14:49:37.001Z</time></trkpt><trkpt lat="45.67113" lon="8.4616067"><ele>289.0</ele><time>2026-03-29T14:49:38.002Z</time></trkpt><trkpt lat="45.6710533" lon="8.4616983"><ele>289.0</ele><time>2026-03-29T14:49:39.002Z</time></trkpt><trkpt lat="45.671005" lon="8.4618433"><ele>289.0</ele><time>2026-03-29T14:49:40.002Z</time></trkpt><trkpt lat="45.671" lon="8.4620217"><ele>288.3333333333333</ele><time>2026-03-29T14:49:41.001Z</time></trkpt><trkpt lat="45.6710267" lon="8.462245"><ele>287.6666666666667</ele><time>2026-03-29T14:49:42.001Z</time></trkpt><trkpt lat="45.6710833" lon="8.462495"><ele>287.0</ele><time>2026-03-29T14:49:43.001Z</time></trkpt><trkpt lat="45.6711433" lon="8.462755"><ele>287.0</ele><time>2026-03-29T14:49:44.002Z</time></trkpt><trkpt lat="45.6712" lon="8.46301"><ele>287.0</ele><time>2026-03-29T14:49:45.001Z</time></trkpt><trkpt lat="45.6712517" lon="8.4632517"><ele>287.0</ele><time>2026-03-29T14:49:46.002Z</time></trkpt><trkpt lat="45.6712933" lon="8.46347"><ele>287.0</ele><time>2026-03-29T14:49:47.002Z</time></trkpt><trkpt lat="45.67133" lon="8.463665"><ele>287.0</ele><time>2026-03-29T14:49:48.001Z</time></trkpt><trkpt lat="45.6713683" lon="8.4638383"><ele>287.0</ele><time>2026-03-29T14:49:49.002Z</time></trkpt><trkpt lat="45.6713733" lon="8.46398"><ele>287.0</ele><time>2026-03-29T14:49:50.002Z</time></trkpt><trkpt lat="45.6714067" lon="8.4640767"><ele>287.0</ele><time>2026-03-29T14:49:51.001Z</time></trkpt><trkpt lat="45.671355" lon="8.4641817"><ele>287.0</ele><time>2026-03-29T14:49:53.001Z</time></trkpt><trkpt lat="45.671205" lon="8.4642083"><ele>287.0</ele><time>2026-03-29T14:49:55.002Z</time></trkpt><trkpt lat="45.6710733" lon="8.464215"><ele>287.0</ele><time>2026-03-29T14:49:56.001Z</time></trkpt><trkpt lat="45.6709017" lon="8.4642233"><ele>287.33333333333337</ele><time>2026-03-29T14:49:57.002Z</time></trkpt><trkpt lat="45.6707083" lon="8.464265"><ele>287.6666666666667</ele><time>2026-03-29T14:49:58.002Z</time></trkpt><trkpt lat="45.6705" lon="8.46432"><ele>288.0</ele><time>2026-03-29T14:49:59.001Z</time></trkpt><trkpt lat="45.6702683" lon="8.4644167"><ele>288.0</ele><time>2026-03-29T14:50:00.002Z</time></trkpt><trkpt lat="45.6700217" lon="8.4645317"><ele>288.0</ele><time>2026-03-29T14:50:01.002Z</time></trkpt><trkpt lat="45.66977" lon="8.4646617"><ele>288.0</ele><time>2026-03-29T14:50:02.002Z</time></trkpt><trkpt lat="45.6695167" lon="8.46481"><ele>288.0</ele><time>2026-03-29T14:50:03.001Z</time></trkpt><trkpt lat="45.6692533" lon="8.46498"><ele>287.5</ele><time>2026-03-29T14:50:04.001Z</time></trkpt><trkpt lat="45.6690083" lon="8.4651717"><ele>287.0</ele><time>2026-03-29T14:50:05.001Z</time></trkpt><trkpt lat="45.6687417" lon="8.4653667"><ele>286.5</ele><time>2026-03-29T14:50:06.002Z</time></trkpt><trkpt lat="45.6684783" lon="8.4655517"><ele>286.0</ele><time>2026-03-29T14:50:07.002Z</time></trkpt><trkpt lat="45.668225" lon="8.46574"><ele>286.0</ele><time>2026-03-29T14:50:08.002Z</time></trkpt><trkpt lat="45.6679733" lon="8.4659233"><ele>286.0</ele><time>2026-03-29T14:50:09.002Z</time></trkpt><trkpt lat="45.6677367" lon="8.4661"><ele>285.5</ele><time>2026-03-29T14:50:10.001Z</time></trkpt><trkpt lat="45.6675033" lon="8.4662667"><ele>285.0</ele><time>2026-03-29T14:50:11.002Z</time></trkpt><trkpt lat="45.6672767" lon="8.4664367"><ele>285.0</ele><time>2026-03-29T14:50:12.002Z</time></trkpt><trkpt lat="45.667055" lon="8.466605"><ele>285.0</ele><time>2026-03-29T14:50:13.002Z</time></trkpt><trkpt lat="45.666815" lon="8.4667567"><ele>284.5</ele><time>2026-03-29T14:50:14.002Z</time></trkpt><trkpt lat="45.6665717" lon="8.46689"><ele>284.0</ele><time>2026-03-29T14:50:15.002Z</time></trkpt><trkpt lat="45.66633" lon="8.4670233"><ele>284.0</ele><time>2026-03-29T14:50:16.002Z</time></trkpt><trkpt lat="45.6660917" lon="8.4671517"><ele>284.0</ele><time>2026-03-29T14:50:17.001Z</time></trkpt><trkpt lat="45.66586" lon="8.4672967"><ele>284.0</ele><time>2026-03-29T14:50:18.001Z</time></trkpt><trkpt lat="45.6656167" lon="8.46743"><ele>284.0</ele><time>2026-03-29T14:50:19.002Z</time></trkpt><trkpt lat="45.6653667" lon="8.4675767"><ele>283.5</ele><time>2026-03-29T14:50:20.002Z</time></trkpt><trkpt lat="45.66512" lon="8.467715"><ele>283.0</ele><time>2026-03-29T14:50:21.002Z</time></trkpt><trkpt lat="45.6648767" lon="8.4678483"><ele>283.0</ele><time>2026-03-29T14:50:22.002Z</time></trkpt><trkpt lat="45.6646317" lon="8.4679833"><ele>283.0</ele><time>2026-03-29T14:50:23.001Z</time></trkpt><trkpt lat="45.6643833" lon="8.46812"><ele>283.0</ele><time>2026-03-29T14:50:24.002Z</time></trkpt><trkpt lat="45.6641283" lon="8.468255"><ele>283.0</ele><time>2026-03-29T14:50:25.002Z</time></trkpt><trkpt lat="45.66388" lon="8.4684067"><ele>283.0</ele><time>2026-03-29T14:50:26.002Z</time></trkpt><trkpt lat="45.6636167" lon="8.4685617"><ele>283.0</ele><time>2026-03-29T14:50:27.002Z</time></trkpt><trkpt lat="45.6633633" lon="8.468705"><ele>282.0</ele><time>2026-03-29T14:50:28.001Z</time></trkpt><trkpt lat="45.6631117" lon="8.468845"><ele>281.0</ele><time>2026-03-29T14:50:29.001Z</time></trkpt><trkpt lat="45.6628583" lon="8.4689783"><ele>280.0</ele><time>2026-03-29T14:50:30.001Z</time></trkpt><trkpt lat="45.6626017" lon="8.469115"><ele>279.0</ele><time>2026-03-29T14:50:31.002Z</time></trkpt><trkpt lat="45.6623483" lon="8.4692517"><ele>279.0</ele><time>2026-03-29T14:50:32.002Z</time></trkpt><trkpt lat="45.6620967" lon="8.4694"><ele>279.0</ele><time>2026-03-29T14:50:33.002Z</time></trkpt><trkpt lat="45.661835" lon="8.4695417"><ele>278.5</ele><time>2026-03-29T14:50:34.002Z</time></trkpt><trkpt lat="45.661575" lon="8.46969"><ele>278.0</ele><time>2026-03-29T14:50:35.002Z</time></trkpt><trkpt lat="45.66132" lon="8.4698367"><ele>278.0</ele><time>2026-03-29T14:50:36.001Z</time></trkpt><trkpt lat="45.6610667" lon="8.4699883"><ele>278.0</ele><time>2026-03-29T14:50:37.002Z</time></trkpt><trkpt lat="45.66082" lon="8.4701367"><ele>278.0</ele><time>2026-03-29T14:50:38.002Z</time></trkpt><trkpt lat="45.660585" lon="8.47028"><ele>278.0</ele><time>2026-03-29T14:50:39.001Z</time></trkpt><trkpt lat="45.6603683" lon="8.4704183"><ele>278.5</ele><time>2026-03-29T14:50:40.002Z</time></trkpt><trkpt lat="45.66015" lon="8.4705783"><ele>279.0</ele><time>2026-03-29T14:50:41.002Z</time></trkpt><trkpt lat="45.6599283" lon="8.470745"><ele>279.0</ele><time>2026-03-29T14:50:42.002Z</time></trkpt><trkpt lat="45.659695" lon="8.4709267"><ele>279.0</ele><time>2026-03-29T14:50:43.002Z</time></trkpt><trkpt lat="45.659465" lon="8.47111"><ele>279.5</ele><time>2026-03-29T14:50:44.002Z</time></trkpt><trkpt lat="45.65922" lon="8.4712783"><ele>280.0</ele><time>2026-03-29T14:50:45.001Z</time></trkpt><trkpt lat="45.6589617" lon="8.4714617"><ele>280.0</ele><time>2026-03-29T14:50:46.002Z</time></trkpt><trkpt lat="45.65871" lon="8.4716567"><ele>280.0</ele><time>2026-03-29T14:50:47.002Z</time></trkpt><trkpt lat="45.658455" lon="8.4718567"><ele>278.5</ele><time>2026-03-29T14:50:48.002Z</time></trkpt><trkpt lat="45.6582083" lon="8.4720567"><ele>277.0</ele><time>2026-03-29T14:50:49.002Z</time></trkpt><trkpt lat="45.6579567" lon="8.472255"><ele>275.5</ele><time>2026-03-29T14:50:50.002Z</time></trkpt><trkpt lat="45.6577067" lon="8.4724467"><ele>274.0</ele><time>2026-03-29T14:50:51.002Z</time></trkpt><trkpt lat="45.657455" lon="8.4726017"><ele>274.0</ele><time>2026-03-29T14:50:52.001Z</time></trkpt><trkpt lat="45.6571983" lon="8.472725"><ele>274.0</ele><time>2026-03-29T14:50:53.002Z</time></trkpt><trkpt lat="45.6569367" lon="8.47281"><ele>274.0</ele><time>2026-03-29T14:50:54.002Z</time></trkpt><trkpt lat="45.6566783" lon="8.4728733"><ele>274.0</ele><time>2026-03-29T14:50:55.002Z</time></trkpt><trkpt lat="45.6564117" lon="8.4729283"><ele>274.0</ele><time>2026-03-29T14:50:56.002Z</time></trkpt><trkpt lat="45.6561467" lon="8.472995"><ele>274.0</ele><time>2026-03-29T14:50:57.002Z</time></trkpt><trkpt lat="45.6558733" lon="8.4730817"><ele>274.0</ele><time>2026-03-29T14:50:58.002Z</time></trkpt><trkpt lat="45.655605" lon="8.4731667"><ele>274.0</ele><time>2026-03-29T14:50:59.002Z</time></trkpt><trkpt lat="45.65534" lon="8.4732533"><ele>273.5</ele><time>2026-03-29T14:51:00.001Z</time></trkpt><trkpt lat="45.655065" lon="8.473355"><ele>273.0</ele><time>2026-03-29T14:51:01.002Z</time></trkpt><trkpt lat="45.6548017" lon="8.4734717"><ele>273.0</ele><time>2026-03-29T14:51:02.001Z</time></trkpt><trkpt lat="45.65457" lon="8.473605"><ele>273.0</ele><time>2026-03-29T14:51:03.002Z</time></trkpt><trkpt lat="45.6543533" lon="8.473765"><ele>272.0</ele><time>2026-03-29T14:51:04.002Z</time></trkpt><trkpt lat="45.6541317" lon="8.4739133"><ele>271.0</ele><time>2026-03-29T14:51:05.002Z</time></trkpt><trkpt lat="45.653925" lon="8.4740583"><ele>271.0</ele><time>2026-03-29T14:51:06.002Z</time></trkpt><trkpt lat="45.6537317" lon="8.474195"><ele>271.0</ele><time>2026-03-29T14:51:07.002Z</time></trkpt><trkpt lat="45.653555" lon="8.4743033"><ele>271.0</ele><time>2026-03-29T14:51:08.002Z</time></trkpt><trkpt lat="45.6533783" lon="8.4744133"><ele>271.66666666666663</ele><time>2026-03-29T14:51:09.002Z</time></trkpt><trkpt lat="45.6532217" lon="8.4745067"><ele>272.3333333333333</ele><time>2026-03-29T14:51:10.001Z</time></trkpt><trkpt lat="45.6530383" lon="8.4746217"><ele>273.0</ele><time>2026-03-29T14:51:11.001Z</time></trkpt><trkpt lat="45.652855" lon="8.4747467"><ele>272.5</ele><time>2026-03-29T14:51:12.001Z</time></trkpt><trkpt lat="45.6526467" lon="8.4748817"><ele>272.0</ele><time>2026-03-29T14:51:13.002Z</time></trkpt><trkpt lat="45.6524483" lon="8.4750233"><ele>272.0</ele><time>2026-03-29T14:51:14.002Z</time></trkpt><trkpt lat="45.6522483" lon="8.47515"><ele>272.0</ele><time>2026-03-29T14:51:15.001Z</time></trkpt><trkpt lat="45.6520567" lon="8.4752833"><ele>272.0</ele><time>2026-03-29T14:51:16.002Z</time></trkpt><trkpt lat="45.6518717" lon="8.47541"><ele>272.6666666666667</ele><time>2026-03-29T14:51:17.002Z</time></trkpt><trkpt lat="45.65169" lon="8.475535"><ele>273.3333333333333</ele><time>2026-03-29T14:51:18.001Z</time></trkpt><trkpt lat="45.6514983" lon="8.4756567"><ele>274.0</ele><time>2026-03-29T14:51:19.002Z</time></trkpt><trkpt lat="45.65133" lon="8.4757683"><ele>274.0</ele><time>2026-03-29T14:51:20.002Z</time></trkpt><trkpt lat="45.65117" lon="8.4758767"><ele>274.0</ele><time>2026-03-29T14:51:21.002Z</time></trkpt><trkpt lat="45.651015" lon="8.4760033"><ele>274.0</ele><time>2026-03-29T14:51:22.002Z</time></trkpt><trkpt lat="45.6508867" lon="8.47615"><ele>273.0</ele><time>2026-03-29T14:51:23.001Z</time></trkpt><trkpt lat="45.6507667" lon="8.4763383"><ele>272.0</ele><time>2026-03-29T14:51:24.002Z</time></trkpt><trkpt lat="45.6506667" lon="8.4765683"><ele>271.0</ele><time>2026-03-29T14:51:25.002Z</time></trkpt><trkpt lat="45.6505883" lon="8.476825"><ele>271.0</ele><time>2026-03-29T14:51:26.002Z</time></trkpt><trkpt lat="45.6505133" lon="8.47709"><ele>271.0</ele><time>2026-03-29T14:51:27.001Z</time></trkpt><trkpt lat="45.6504383" lon="8.4773483"><ele>271.0</ele><time>2026-03-29T14:51:28.001Z</time></trkpt><trkpt lat="45.650395" lon="8.4776117"><ele>270.66666666666663</ele><time>2026-03-29T14:51:29.002Z</time></trkpt><trkpt lat="45.65038" lon="8.4778767"><ele>270.3333333333333</ele><time>2026-03-29T14:51:30.002Z</time></trkpt><trkpt lat="45.6503917" lon="8.47814"><ele>270.0</ele><time>2026-03-29T14:51:31.002Z</time></trkpt><trkpt lat="45.650425" lon="8.4784317"><ele>270.0</ele><time>2026-03-29T14:51:32.002Z</time></trkpt><trkpt lat="45.6504967" lon="8.4787133"><ele>270.0</ele><time>2026-03-29T14:51:33.002Z</time></trkpt><trkpt lat="45.6505617" lon="8.479015"><ele>270.0</ele><time>2026-03-29T14:51:34.001Z</time></trkpt><trkpt lat="45.6506267" lon="8.4793233"><ele>270.5</ele><time>2026-03-29T14:51:35.002Z</time></trkpt><trkpt lat="45.6506933" lon="8.4796283"><ele>271.0</ele><time>2026-03-29T14:51:36.002Z</time></trkpt><trkpt lat="45.650765" lon="8.4799367"><ele>271.0</ele><time>2026-03-29T14:51:37.002Z</time></trkpt><trkpt lat="45.650835" lon="8.4802617"><ele>271.0</ele><time>2026-03-29T14:51:38.001Z</time></trkpt><trkpt lat="45.6509" lon="8.480585"><ele>271.0</ele><time>2026-03-29T14:51:39.002Z</time></trkpt><trkpt lat="45.650955" lon="8.4808983"><ele>271.0</ele><time>2026-03-29T14:51:40.001Z</time></trkpt><trkpt lat="45.6510117" lon="8.4811783"><ele>271.0</ele><time>2026-03-29T14:51:41.001Z</time></trkpt><trkpt lat="45.6510517" lon="8.4814483"><ele>270.66666666666663</ele><time>2026-03-29T14:51:42.001Z</time></trkpt><trkpt lat="45.6510633" lon="8.4817083"><ele>270.3333333333333</ele><time>2026-03-29T14:51:43.002Z</time></trkpt><trkpt lat="45.6510233" lon="8.4819317"><ele>270.0</ele><time>2026-03-29T14:51:44.001Z</time></trkpt><trkpt lat="45.6509317" lon="8.4821317"><ele>270.0</ele><time>2026-03-29T14:51:45.002Z</time></trkpt><trkpt lat="45.6508017" lon="8.4823033"><ele>270.0</ele><time>2026-03-29T14:51:46.001Z</time></trkpt><trkpt lat="45.6506267" lon="8.4824283"><ele>270.0</ele><time>2026-03-29T14:51:47.002Z</time></trkpt><trkpt lat="45.6504267" lon="8.4824983"><ele>270.0</ele><time>2026-03-29T14:51:48.002Z</time></trkpt><trkpt lat="45.6502233" lon="8.482555"><ele>270.0</ele><time>2026-03-29T14:51:49.002Z</time></trkpt><trkpt lat="45.64999" lon="8.4825883"><ele>270.0</ele><time>2026-03-29T14:51:50.002Z</time></trkpt><trkpt lat="45.6497467" lon="8.48266"><ele>270.0</ele><time>2026-03-29T14:51:51.001Z</time></trkpt><trkpt lat="45.649505" lon="8.4827283"><ele>270.0</ele><time>2026-03-29T14:51:52.002Z</time></trkpt><trkpt lat="45.6492433" lon="8.4828"><ele>269.0</ele><time>2026-03-29T14:51:53.002Z</time></trkpt><trkpt lat="45.6489633" lon="8.4828733"><ele>268.0</ele><time>2026-03-29T14:51:54.001Z</time></trkpt><trkpt lat="45.6486867" lon="8.4829633"><ele>268.0</ele><time>2026-03-29T14:51:55.002Z</time></trkpt><trkpt lat="45.6484133" lon="8.48304"><ele>268.0</ele><time>2026-03-29T14:51:56.001Z</time></trkpt><trkpt lat="45.648155" lon="8.4830983"><ele>268.0</ele><time>2026-03-29T14:51:57.002Z</time></trkpt><trkpt lat="45.6479083" lon="8.4831717"><ele>268.0</ele><time>2026-03-29T14:51:58.001Z</time></trkpt><trkpt lat="45.6476517" lon="8.48328"><ele>266.5</ele><time>2026-03-29T14:51:59.001Z</time></trkpt><trkpt lat="45.6473967" lon="8.4834017"><ele>265.0</ele><time>2026-03-29T14:52:00.001Z</time></trkpt><trkpt lat="45.6471533" lon="8.4835733"><ele>264.5</ele><time>2026-03-29T14:52:01.002Z</time></trkpt><trkpt lat="45.6469133" lon="8.483735"><ele>264.0</ele><time>2026-03-29T14:52:02.002Z</time></trkpt><trkpt lat="45.6466867" lon="8.4838717"><ele>264.0</ele><time>2026-03-29T14:52:03.002Z</time></trkpt><trkpt lat="45.646475" lon="8.4839867"><ele>264.0</ele><time>2026-03-29T14:52:04.002Z</time></trkpt><trkpt lat="45.64629" lon="8.4840817"><ele>264.0</ele><time>2026-03-29T14:52:05.001Z</time></trkpt><trkpt lat="45.6460933" lon="8.4841517"><ele>264.0</ele><time>2026-03-29T14:52:06.002Z</time></trkpt><trkpt lat="45.64588" lon="8.484175"><ele>264.0</ele><time>2026-03-29T14:52:07.002Z</time></trkpt><trkpt lat="45.6456733" lon="8.4841717"><ele>264.0</ele><time>2026-03-29T14:52:08.002Z</time></trkpt><trkpt lat="45.6454617" lon="8.4841583"><ele>264.0</ele><time>2026-03-29T14:52:09.002Z</time></trkpt><trkpt lat="45.64526" lon="8.48414"><ele>264.0</ele><time>2026-03-29T14:52:10.002Z</time></trkpt><trkpt lat="45.645075" lon="8.4841383"><ele>264.0</ele><time>2026-03-29T14:52:11.002Z</time></trkpt><trkpt lat="45.6449033" lon="8.4841317"><ele>264.0</ele><time>2026-03-29T14:52:12.001Z</time></trkpt><trkpt lat="45.64474" lon="8.4841283"><ele>264.0</ele><time>2026-03-29T14:52:13.002Z</time></trkpt><trkpt lat="45.6445833" lon="8.484125"><ele>264.0</ele><time>2026-03-29T14:52:14.001Z</time></trkpt><trkpt lat="45.6444383" lon="8.484155"><ele>263.6666666666667</ele><time>2026-03-29T14:52:15.002Z</time></trkpt><trkpt lat="45.6442983" lon="8.484235"><ele>263.33333333333337</ele><time>2026-03-29T14:52:16.002Z</time></trkpt><trkpt lat="45.6441517" lon="8.4843533"><ele>263.0</ele><time>2026-03-29T14:52:17.001Z</time></trkpt><trkpt lat="45.644005" lon="8.4844633"><ele>263.0</ele><time>2026-03-29T14:52:18.002Z</time></trkpt><trkpt lat="45.64385" lon="8.4845633"><ele>263.0</ele><time>2026-03-29T14:52:19.002Z</time></trkpt><trkpt lat="45.6437017" lon="8.48466"><ele>263.0</ele><time>2026-03-29T14:52:20.002Z</time></trkpt><trkpt lat="45.6435317" lon="8.4847133"><ele>263.0</ele><time>2026-03-29T14:52:21.001Z</time></trkpt><trkpt lat="45.643365" lon="8.4847133"><ele>263.0</ele><time>2026-03-29T14:52:22.001Z</time></trkpt><trkpt lat="45.6431933" lon="8.4846483"><ele>263.0</ele><time>2026-03-29T14:52:23.002Z</time></trkpt><trkpt lat="45.64303" lon="8.484525"><ele>263.0</ele><time>2026-03-29T14:52:24.002Z</time></trkpt><trkpt lat="45.642905" lon="8.4843767"><ele>263.0</ele><time>2026-03-29T14:52:25.002Z</time></trkpt><trkpt lat="45.642795" lon="8.4842267"><ele>263.0</ele><time>2026-03-29T14:52:26.002Z</time></trkpt><trkpt lat="45.6426983" lon="8.4840933"><ele>263.0</ele><time>2026-03-29T14:52:27.002Z</time></trkpt><trkpt lat="45.642625" lon="8.483955"><ele>262.8</ele><time>2026-03-29T14:52:28.002Z</time></trkpt><trkpt lat="45.6425783" lon="8.483845"><ele>262.6</ele><time>2026-03-29T14:52:29.002Z</time></trkpt><trkpt lat="45.64253" lon="8.4837583"><ele>262.4</ele><time>2026-03-29T14:52:30.002Z</time></trkpt><trkpt lat="45.6424117" lon="8.4837217"><ele>262.2</ele><time>2026-03-29T14:52:32.002Z</time></trkpt><trkpt lat="45.64234" lon="8.4837733"><ele>262.0</ele><time>2026-03-29T14:52:33.002Z</time></trkpt><trkpt lat="45.6422617" lon="8.4838467"><ele>262.0</ele><time>2026-03-29T14:52:34.001Z</time></trkpt><trkpt lat="45.6421683" lon="8.4839433"><ele>262.0</ele><time>2026-03-29T14:52:35.002Z</time></trkpt><trkpt lat="45.642075" lon="8.4840333"><ele>262.0</ele><time>2026-03-29T14:52:36.002Z</time></trkpt><trkpt lat="45.6419867" lon="8.48412"><ele>262.0</ele><time>2026-03-29T14:52:37.002Z</time></trkpt><trkpt lat="45.64191" lon="8.4841933"><ele>262.0</ele><time>2026-03-29T14:52:38.002Z</time></trkpt><trkpt lat="45.6418367" lon="8.4842567"><ele>262.16666666666663</ele><time>2026-03-29T14:52:39.001Z</time></trkpt><trkpt lat="45.6417767" lon="8.4843267"><ele>262.3333333333333</ele><time>2026-03-29T14:52:40.002Z</time></trkpt><trkpt lat="45.6417267" lon="8.4844133"><ele>262.5</ele><time>2026-03-29T14:52:41.001Z</time></trkpt><trkpt lat="45.6416867" lon="8.484505"><ele>262.6666666666667</ele><time>2026-03-29T14:52:42.002Z</time></trkpt><trkpt lat="45.64166" lon="8.4845867"><ele>262.83333333333337</ele><time>2026-03-29T14:52:43.002Z</time></trkpt><trkpt lat="45.6416467" lon="8.484755"><ele>263.0</ele><time>2026-03-29T14:52:45.001Z</time></trkpt><trkpt lat="45.6416533" lon="8.4848533"><ele>262.6</ele><time>2026-03-29T14:52:46.002Z</time></trkpt><trkpt lat="45.641655" lon="8.48497"><ele>262.20000000000005</ele><time>2026-03-29T14:52:47.001Z</time></trkpt><trkpt lat="45.6416533" lon="8.4851"><ele>261.8</ele><time>2026-03-29T14:52:48.002Z</time></trkpt><trkpt lat="45.6416617" lon="8.4852483"><ele>261.40000000000003</ele><time>2026-03-29T14:52:49.002Z</time></trkpt><trkpt lat="45.641675" lon="8.4854033"><ele>261.0</ele><time>2026-03-29T14:52:50.002Z</time></trkpt><trkpt lat="45.641715" lon="8.4856133"><ele>261.0</ele><time>2026-03-29T14:52:51.002Z</time></trkpt><trkpt lat="45.6417633" lon="8.4858333"><ele>261.0</ele><time>2026-03-29T14:52:52.002Z</time></trkpt><trkpt lat="45.6417967" lon="8.48606"><ele>261.0</ele><time>2026-03-29T14:52:53.001Z</time></trkpt><trkpt lat="45.6418183" lon="8.486295"><ele>260.6666666666667</ele><time>2026-03-29T14:52:54.001Z</time></trkpt><trkpt lat="45.6418267" lon="8.4865767"><ele>260.33333333333337</ele><time>2026-03-29T14:52:55.001Z</time></trkpt><trkpt lat="45.64187" lon="8.4868583"><ele>260.0</ele><time>2026-03-29T14:52:56Z</time></trkpt><trkpt lat="45.6419417" lon="8.4871167"><ele>259.6666666666667</ele><time>2026-03-29T14:52:57.001Z</time></trkpt><trkpt lat="45.6420417" lon="8.4873483"><ele>259.3333333333333</ele><time>2026-03-29T14:52:58.001Z</time></trkpt><trkpt lat="45.642185" lon="8.4875517"><ele>259.0</ele><time>2026-03-29T14:52:59Z</time></trkpt><trkpt lat="45.64235" lon="8.48773"><ele>259.0</ele><time>2026-03-29T14:53:00Z</time></trkpt><trkpt lat="45.6425117" lon="8.4878967"><ele>259.0</ele><time>2026-03-29T14:53:01.001Z</time></trkpt><trkpt lat="45.64267" lon="8.488065"><ele>259.0</ele><time>2026-03-29T14:53:02Z</time></trkpt><trkpt lat="45.642825" lon="8.4882267"><ele>259.3333333333333</ele><time>2026-03-29T14:53:03.001Z</time></trkpt><trkpt lat="45.6429717" lon="8.4883733"><ele>259.6666666666667</ele><time>2026-03-29T14:53:04Z</time></trkpt><trkpt lat="45.643095" lon="8.488515"><ele>260.0</ele><time>2026-03-29T14:53:05.001Z</time></trkpt><trkpt lat="45.64321" lon="8.48864"><ele>260.0</ele><time>2026-03-29T14:53:06.001Z</time></trkpt><trkpt lat="45.6433117" lon="8.4887783"><ele>260.0</ele><time>2026-03-29T14:53:07.001Z</time></trkpt><trkpt lat="45.6433967" lon="8.48891"><ele>260.0</ele><time>2026-03-29T14:53:08Z</time></trkpt><trkpt lat="45.643465" lon="8.4890517"><ele>260.0</ele><time>2026-03-29T14:53:09.001Z</time></trkpt><trkpt lat="45.6435167" lon="8.4892067"><ele>260.0</ele><time>2026-03-29T14:53:10.001Z</time></trkpt><trkpt lat="45.6435517" lon="8.48936"><ele>260.0</ele><time>2026-03-29T14:53:11.001Z</time></trkpt><trkpt lat="45.643565" lon="8.4895183"><ele>260.0</ele><time>2026-03-29T14:53:12Z</time></trkpt><trkpt lat="45.643575" lon="8.4896717"><ele>260.0</ele><time>2026-03-29T14:53:13.001Z</time></trkpt><trkpt lat="45.64358" lon="8.4898233"><ele>260.0</ele><time>2026-03-29T14:53:14.001Z</time></trkpt><trkpt lat="45.643585" lon="8.4899683"><ele>260.0</ele><time>2026-03-29T14:53:15.001Z</time></trkpt><trkpt lat="45.643585" lon="8.4900883"><ele>260.0</ele><time>2026-03-29T14:53:16Z</time></trkpt><trkpt lat="45.6435883" lon="8.4902033"><ele>260.0</ele><time>2026-03-29T14:53:17.001Z</time></trkpt><trkpt lat="45.6435883" lon="8.490295"><ele>260.0</ele><time>2026-03-29T14:53:18.001Z</time></trkpt><trkpt lat="45.6435833" lon="8.4904133"><ele>260.0</ele><time>2026-03-29T14:53:20.001Z</time></trkpt><trkpt lat="45.643575" lon="8.4905333"><ele>260.0</ele><time>2026-03-29T14:53:24.001Z</time></trkpt><trkpt lat="45.6435483" lon="8.49065"><ele>260.33333333333337</ele><time>2026-03-29T14:53:26.001Z</time></trkpt><trkpt lat="45.6435183" lon="8.4907383"><ele>260.6666666666667</ele><time>2026-03-29T14:53:27.001Z</time></trkpt><trkpt lat="45.643495" lon="8.49083"><ele>261.0</ele><time>2026-03-29T14:53:28.001Z</time></trkpt><trkpt lat="45.643475" lon="8.4909417"><ele>261.3333333333333</ele><time>2026-03-29T14:53:29.001Z</time></trkpt><trkpt lat="45.6434767" lon="8.4910533"><ele>261.66666666666663</ele><time>2026-03-29T14:53:30.001Z</time></trkpt><trkpt lat="45.643495" lon="8.4911667"><ele>262.0</ele><time>2026-03-29T14:53:31.001Z</time></trkpt><trkpt lat="45.64353" lon="8.491265"><ele>262.3333333333333</ele><time>2026-03-29T14:53:32.001Z</time></trkpt><trkpt lat="45.6435717" lon="8.4913583"><ele>262.66666666666663</ele><time>2026-03-29T14:53:33.001Z</time></trkpt><trkpt lat="45.643595" lon="8.491455"><ele>263.0</ele><time>2026-03-29T14:53:34.001Z</time></trkpt><trkpt lat="45.643605" lon="8.49156"><ele>263.3333333333333</ele><time>2026-03-29T14:53:35.001Z</time></trkpt><trkpt lat="45.64361" lon="8.4916683"><ele>263.6666666666667</ele><time>2026-03-29T14:53:36Z</time></trkpt><trkpt lat="45.6436183" lon="8.4917933"><ele>264.0</ele><time>2026-03-29T14:53:37.001Z</time></trkpt><trkpt lat="45.6436333" lon="8.49192"><ele>264.0</ele><time>2026-03-29T14:53:38.001Z</time></trkpt><trkpt lat="45.643665" lon="8.4920517"><ele>264.0</ele><time>2026-03-29T14:53:39.001Z</time></trkpt><trkpt lat="45.6437117" lon="8.4921767"><ele>264.0</ele><time>2026-03-29T14:53:40.001Z</time></trkpt><trkpt lat="45.6437667" lon="8.4922867"><ele>264.0</ele><time>2026-03-29T14:53:41.001Z</time></trkpt><trkpt lat="45.6438183" lon="8.492395"><ele>264.0</ele><time>2026-03-29T14:53:42.001Z</time></trkpt><trkpt lat="45.643855" lon="8.4925083"><ele>264.0</ele><time>2026-03-29T14:53:43.001Z</time></trkpt><trkpt lat="45.6438967" lon="8.4926133"><ele>264.0</ele><time>2026-03-29T14:53:44.001Z</time></trkpt><trkpt lat="45.6439467" lon="8.4927067"><ele>264.0</ele><time>2026-03-29T14:53:45Z</time></trkpt><trkpt lat="45.6439883" lon="8.4928183"><ele>264.0</ele><time>2026-03-29T14:53:46Z</time></trkpt><trkpt lat="45.6440317" lon="8.4929367"><ele>264.0</ele><time>2026-03-29T14:53:47.001Z</time></trkpt><trkpt lat="45.644085" lon="8.493065"><ele>264.0</ele><time>2026-03-29T14:53:48Z</time></trkpt><trkpt lat="45.644145" lon="8.4932233"><ele>264.0</ele><time>2026-03-29T14:53:49.001Z</time></trkpt><trkpt lat="45.644205" lon="8.4934083"><ele>264.0</ele><time>2026-03-29T14:53:50Z</time></trkpt><trkpt lat="45.64427" lon="8.4936067"><ele>264.0</ele><time>2026-03-29T14:53:51.001Z</time></trkpt><trkpt lat="45.6443417" lon="8.4938083"><ele>264.3333333333333</ele><time>2026-03-29T14:53:52.001Z</time></trkpt><trkpt lat="45.644415" lon="8.494015"><ele>264.66666666666663</ele><time>2026-03-29T14:53:53Z</time></trkpt><trkpt lat="45.6445017" lon="8.4942283"><ele>265.0</ele><time>2026-03-29T14:53:54.001Z</time></trkpt><trkpt lat="45.6445967" lon="8.49445"><ele>265.0</ele><time>2026-03-29T14:53:55.001Z</time></trkpt><trkpt lat="45.644695" lon="8.4947133"><ele>265.0</ele><time>2026-03-29T14:53:56.001Z</time></trkpt><trkpt lat="45.64478" lon="8.4949933"><ele>265.0</ele><time>2026-03-29T14:53:57Z</time></trkpt><trkpt lat="45.6448717" lon="8.4952717"><ele>265.0</ele><time>2026-03-29T14:53:58.001Z</time></trkpt><trkpt lat="45.6449617" lon="8.4955433"><ele>265.0</ele><time>2026-03-29T14:53:59Z</time></trkpt><trkpt lat="45.6450667" lon="8.4958167"><ele>265.0</ele><time>2026-03-29T14:54:00Z</time></trkpt><trkpt lat="45.6451733" lon="8.49609"><ele>264.66666666666663</ele><time>2026-03-29T14:54:01Z</time></trkpt><trkpt lat="45.6452867" lon="8.4963617"><ele>264.3333333333333</ele><time>2026-03-29T14:54:02.001Z</time></trkpt><trkpt lat="45.645395" lon="8.496635"><ele>264.0</ele><time>2026-03-29T14:54:03.001Z</time></trkpt><trkpt lat="45.645495" lon="8.496895"><ele>264.3333333333333</ele><time>2026-03-29T14:54:04.001Z</time></trkpt><trkpt lat="45.6455917" lon="8.4971633"><ele>264.66666666666663</ele><time>2026-03-29T14:54:05.001Z</time></trkpt><trkpt lat="45.6456617" lon="8.497405"><ele>265.0</ele><time>2026-03-29T14:54:06Z</time></trkpt><trkpt lat="45.6457333" lon="8.497645"><ele>265.0</ele><time>2026-03-29T14:54:07.001Z</time></trkpt><trkpt lat="45.645805" lon="8.497855"><ele>265.0</ele><time>2026-03-29T14:54:08Z</time></trkpt><trkpt lat="45.6458717" lon="8.4980283"><ele>265.0</ele><time>2026-03-29T14:54:09.001Z</time></trkpt><trkpt lat="45.645925" lon="8.498165"><ele>265.0</ele><time>2026-03-29T14:54:10.001Z</time></trkpt><trkpt lat="45.64599" lon="8.498275"><ele>265.0</ele><time>2026-03-29T14:54:11Z</time></trkpt><trkpt lat="45.6460567" lon="8.49835"><ele>265.0</ele><time>2026-03-29T14:54:12Z</time></trkpt><trkpt lat="45.6460967" lon="8.4984267"><ele>265.0</ele><time>2026-03-29T14:54:13Z</time></trkpt><trkpt lat="45.6461133" lon="8.4985983"><ele>265.0</ele><time>2026-03-29T14:54:15.001Z</time></trkpt><trkpt lat="45.6460867" lon="8.4986967"><ele>265.0</ele><time>2026-03-29T14:54:16Z</time></trkpt><trkpt lat="45.6460533" lon="8.4987983"><ele>265.0</ele><time>2026-03-29T14:54:17.001Z</time></trkpt><trkpt lat="45.64603" lon="8.49893"><ele>265.0</ele><time>2026-03-29T14:54:18.001Z</time></trkpt><trkpt lat="45.64603" lon="8.4991033"><ele>265.0</ele><time>2026-03-29T14:54:19.001Z</time></trkpt><trkpt lat="45.6460433" lon="8.4993033"><ele>265.0</ele><time>2026-03-29T14:54:20.001Z</time></trkpt><trkpt lat="45.6460617" lon="8.49953"><ele>265.0</ele><time>2026-03-29T14:54:21.001Z</time></trkpt><trkpt lat="45.6460733" lon="8.4997533"><ele>264.8</ele><time>2026-03-29T14:54:22.001Z</time></trkpt><trkpt lat="45.64609" lon="8.4999583"><ele>264.6</ele><time>2026-03-29T14:54:23.001Z</time></trkpt><trkpt lat="45.6461017" lon="8.500135"><ele>264.4</ele><time>2026-03-29T14:54:24.001Z</time></trkpt><trkpt lat="45.6460933" lon="8.5002683"><ele>264.2</ele><time>2026-03-29T14:54:25.001Z</time></trkpt><trkpt lat="45.6460917" lon="8.5003833"><ele>264.0</ele><time>2026-03-29T14:54:26.001Z</time></trkpt><trkpt lat="45.6460983" lon="8.5005217"><ele>263.8333333333333</ele><time>2026-03-29T14:54:28.001Z</time></trkpt><trkpt lat="45.6461417" lon="8.5006433"><ele>263.6666666666667</ele><time>2026-03-29T14:54:30.001Z</time></trkpt><trkpt lat="45.64615" lon="8.5007367"><ele>263.5</ele><time>2026-03-29T14:54:31.001Z</time></trkpt><trkpt lat="45.6461633" lon="8.5008483"><ele>263.33333333333337</ele><time>2026-03-29T14:54:32Z</time></trkpt><trkpt lat="45.6461783" lon="8.50096"><ele>263.1666666666667</ele><time>2026-03-29T14:54:33.001Z</time></trkpt><trkpt lat="45.64619" lon="8.5010833"><ele>263.0</ele><time>2026-03-29T14:54:34.001Z</time></trkpt><trkpt lat="45.6461933" lon="8.5012317"><ele>262.5</ele><time>2026-03-29T14:54:35Z</time></trkpt><trkpt lat="45.6461917" lon="8.5013967"><ele>262.0</ele><time>2026-03-29T14:54:36.001Z</time></trkpt><trkpt lat="45.6461917" lon="8.501575"><ele>261.5</ele><time>2026-03-29T14:54:37.001Z</time></trkpt><trkpt lat="45.6462067" lon="8.50178"><ele>261.0</ele><time>2026-03-29T14:54:38.001Z</time></trkpt><trkpt lat="45.6462233" lon="8.5019867"><ele>261.0</ele><time>2026-03-29T14:54:39Z</time></trkpt><trkpt lat="45.6462433" lon="8.5022183"><ele>261.0</ele><time>2026-03-29T14:54:40.001Z</time></trkpt><trkpt lat="45.6462733" lon="8.50244"><ele>261.0</ele><time>2026-03-29T14:54:41.001Z</time></trkpt><trkpt lat="45.64629" lon="8.50267"><ele>261.0</ele><time>2026-03-29T14:54:42Z</time></trkpt><trkpt lat="45.6463" lon="8.5028983"><ele>261.0</ele><time>2026-03-29T14:54:43.001Z</time></trkpt><trkpt lat="45.6463233" lon="8.5031333"><ele>261.0</ele><time>2026-03-29T14:54:44.001Z</time></trkpt><trkpt lat="45.6463317" lon="8.50336"><ele>261.0</ele><time>2026-03-29T14:54:45.001Z</time></trkpt><trkpt lat="45.64635" lon="8.5035717"><ele>261.0</ele><time>2026-03-29T14:54:46.001Z</time></trkpt><trkpt lat="45.6463717" lon="8.503805"><ele>261.0</ele><time>2026-03-29T14:54:47.001Z</time></trkpt><trkpt lat="45.64639" lon="8.5040283"><ele>261.3333333333333</ele><time>2026-03-29T14:54:48.001Z</time></trkpt><trkpt lat="45.6464217" lon="8.5042633"><ele>261.66666666666663</ele><time>2026-03-29T14:54:49.001Z</time></trkpt><trkpt lat="45.6464433" lon="8.5045017"><ele>262.0</ele><time>2026-03-29T14:54:50.001Z</time></trkpt><trkpt lat="45.6464667" lon="8.5047133"><ele>262.5</ele><time>2026-03-29T14:54:51.001Z</time></trkpt><trkpt lat="45.6464867" lon="8.5049267"><ele>263.0</ele><time>2026-03-29T14:54:52.001Z</time></trkpt><trkpt lat="45.6465067" lon="8.5051333"><ele>263.5</ele><time>2026-03-29T14:54:53.001Z</time></trkpt><trkpt lat="45.64651" lon="8.5053433"><ele>264.0</ele><time>2026-03-29T14:54:54.001Z</time></trkpt><trkpt lat="45.646545" lon="8.5055617"><ele>265.0</ele><time>2026-03-29T14:54:55.001Z</time></trkpt><trkpt lat="45.6465567" lon="8.5057867"><ele>266.0</ele><time>2026-03-29T14:54:56.001Z</time></trkpt><trkpt lat="45.6465733" lon="8.5060083"><ele>267.0</ele><time>2026-03-29T14:54:57.001Z</time></trkpt><trkpt lat="45.6465917" lon="8.50623"><ele>267.5</ele><time>2026-03-29T14:54:58Z</time></trkpt><trkpt lat="45.6466083" lon="8.5064383"><ele>268.0</ele><time>2026-03-29T14:54:59.001Z</time></trkpt><trkpt lat="45.6466567" lon="8.5066433"><ele>268.5</ele><time>2026-03-29T14:55:00.001Z</time></trkpt><trkpt lat="45.6466617" lon="8.5068233"><ele>269.0</ele><time>2026-03-29T14:55:01.001Z</time></trkpt><trkpt lat="45.6466567" lon="8.5069767"><ele>269.1666666666667</ele><time>2026-03-29T14:55:02Z</time></trkpt><trkpt lat="45.6466717" lon="8.5071117"><ele>269.33333333333337</ele><time>2026-03-29T14:55:03.001Z</time></trkpt><trkpt lat="45.6466917" lon="8.5072317"><ele>269.5</ele><time>2026-03-29T14:55:04.001Z</time></trkpt><trkpt lat="45.6467017" lon="8.507335"><ele>269.6666666666667</ele><time>2026-03-29T14:55:05.001Z</time></trkpt><trkpt lat="45.6467067" lon="8.5074317"><ele>269.8333333333333</ele><time>2026-03-29T14:55:06.001Z</time></trkpt><trkpt lat="45.6467083" lon="8.5075317"><ele>270.0</ele><time>2026-03-29T14:55:07Z</time></trkpt><trkpt lat="45.6467" lon="8.5076233"><ele>270.0</ele><time>2026-03-29T14:55:08Z</time></trkpt><trkpt lat="45.64668" lon="8.5077167"><ele>270.0</ele><time>2026-03-29T14:55:11Z</time></trkpt><trkpt lat="45.6465933" lon="8.5077533"><ele>270.0</ele><time>2026-03-29T14:55:13.001Z</time></trkpt><trkpt lat="45.6464817" lon="8.50779"><ele>270.0</ele><time>2026-03-29T14:55:15.001Z</time></trkpt><trkpt lat="45.6464017" lon="8.5078"><ele>270.0</ele><time>2026-03-29T14:55:16.001Z</time></trkpt><trkpt lat="45.646305" lon="8.5078"><ele>270.0</ele><time>2026-03-29T14:55:17Z</time></trkpt><trkpt lat="45.64619" lon="8.5077817"><ele>270.0</ele><time>2026-03-29T14:55:18.001Z</time></trkpt><trkpt lat="45.6460917" lon="8.5077717"><ele>270.0</ele><time>2026-03-29T14:55:19.001Z</time></trkpt><trkpt lat="45.6459967" lon="8.5077483"><ele>270.0</ele><time>2026-03-29T14:55:20.001Z</time></trkpt><trkpt lat="45.6459083" lon="8.5077367"><ele>270.0</ele><time>2026-03-29T14:55:21.001Z</time></trkpt><trkpt lat="45.6458283" lon="8.5077267"><ele>270.0</ele><time>2026-03-29T14:55:22Z</time></trkpt><trkpt lat="45.6457383" lon="8.507725"><ele>270.0</ele><time>2026-03-29T14:55:23.001Z</time></trkpt><trkpt lat="45.645655" lon="8.5077183"><ele>270.0</ele><time>2026-03-29T14:55:24.001Z</time></trkpt><trkpt lat="45.645585" lon="8.5077183"><ele>270.0</ele><time>2026-03-29T14:55:25.001Z</time></trkpt><trkpt lat="45.6455283" lon="8.5077683"><ele>270.0</ele><time>2026-03-29T14:55:27.001Z</time></trkpt><trkpt lat="45.6455717" lon="8.5079417"><ele>270.0</ele><time>2026-03-29T14:55:29.001Z</time></trkpt><trkpt lat="45.6455933" lon="8.5080317"><ele>270.0</ele><time>2026-03-29T14:55:30.001Z</time></trkpt><trkpt lat="45.64562" lon="8.5081283"><ele>270.0</ele><time>2026-03-29T14:55:31.001Z</time></trkpt><trkpt lat="45.64564" lon="8.5082167"><ele>270.0</ele><time>2026-03-29T14:55:32Z</time></trkpt><trkpt lat="45.6456633" lon="8.50832"><ele>270.0</ele><time>2026-03-29T14:55:34.001Z</time></trkpt><trkpt lat="45.6455967" lon="8.5084567"><ele>270.0</ele><time>2026-03-29T14:56:04.001Z</time></trkpt><trkpt lat="45.6456467" lon="8.5085383"><ele>270.0</ele><time>2026-03-29T14:56:06.001Z</time></trkpt><trkpt lat="45.645655" lon="8.5084233"><ele>270.0</ele><time>2026-03-29T14:56:10.001Z</time></trkpt><trkpt lat="45.6456217" lon="8.508275"><ele>270.0</ele><time>2026-03-29T14:56:12.001Z</time></trkpt><trkpt lat="45.645615" lon="8.5081383"><ele>270.0</ele><time>2026-03-29T14:56:13.001Z</time></trkpt><trkpt lat="45.645615" lon="8.50802"><ele>270.0</ele><time>2026-03-29T14:56:14.001Z</time></trkpt><trkpt lat="45.645615" lon="8.50791"><ele>270.0</ele><time>2026-03-29T14:56:15.001Z</time></trkpt><trkpt lat="45.6456183" lon="8.5078167"><ele>270.0</ele><time>2026-03-29T14:56:16.001Z</time></trkpt><trkpt lat="45.6456433" lon="8.5077"><ele>270.0</ele><time>2026-03-29T14:56:18Z</time></trkpt><trkpt lat="45.6457067" lon="8.5077267"><ele>270.0</ele><time>2026-03-29T14:56:19.001Z</time></trkpt><trkpt lat="45.6459" lon="8.50774"><ele>270.0</ele><time>2026-03-29T14:56:22.001Z</time></trkpt><trkpt lat="45.6459833" lon="8.5077467"><ele>270.0</ele><time>2026-03-29T14:56:23.001Z</time></trkpt><trkpt lat="45.6460667" lon="8.507745"><ele>270.0</ele><time>2026-03-29T14:56:24.001Z</time></trkpt><trkpt lat="45.6461533" lon="8.5077417"><ele>270.0</ele><time>2026-03-29T14:56:25.001Z</time></trkpt><trkpt lat="45.6462367" lon="8.5077383"><ele>270.0</ele><time>2026-03-29T14:56:26Z</time></trkpt><trkpt lat="45.64632" lon="8.507745"><ele>270.0</ele><time>2026-03-29T14:56:27.001Z</time></trkpt><trkpt lat="45.64641" lon="8.5077517"><ele>270.0</ele><time>2026-03-29T14:56:28.001Z</time></trkpt><trkpt lat="45.6464783" lon="8.5077633"><ele>270.0</ele><time>2026-03-29T14:56:29.001Z</time></trkpt><trkpt lat="45.6465883" lon="8.507785"><ele>270.0</ele><time>2026-03-29T14:56:31.001Z</time></trkpt><trkpt lat="45.6466883" lon="8.5077533"><ele>270.0</ele><time>2026-03-29T14:56:33Z</time></trkpt><trkpt lat="45.6467517" lon="8.5076533"><ele>270.0</ele><time>2026-03-29T14:56:35.001Z</time></trkpt><trkpt lat="45.6467683" lon="8.5074867"><ele>270.0</ele><time>2026-03-29T14:56:37Z</time></trkpt><trkpt lat="45.6467433" lon="8.5073583"><ele>270.0</ele><time>2026-03-29T14:56:38Z</time></trkpt><trkpt lat="45.6467233" lon="8.50723"><ele>270.0</ele><time>2026-03-29T14:56:39.001Z</time></trkpt><trkpt lat="45.6467017" lon="8.5071217"><ele>269.8333333333333</ele><time>2026-03-29T14:56:40.001Z</time></trkpt><trkpt lat="45.646695" lon="8.506975"><ele>269.6666666666667</ele><time>2026-03-29T14:56:42.001Z</time></trkpt><trkpt lat="45.646695" lon="8.50685"><ele>269.5</ele><time>2026-03-29T14:57:56Z</time></trkpt><trkpt lat="45.64669" lon="8.5067467"><ele>269.33333333333337</ele><time>2026-03-29T14:57:57.001Z</time></trkpt><trkpt lat="45.6466783" lon="8.50663"><ele>269.1666666666667</ele><time>2026-03-29T14:57:58.001Z</time></trkpt><trkpt lat="45.646675" lon="8.50652"><ele>269.0</ele><time>2026-03-29T14:57:59.001Z</time></trkpt><trkpt lat="45.646665" lon="8.50639"><ele>269.0</ele><time>2026-03-29T14:58:00.001Z</time></trkpt><trkpt lat="45.6466333" lon="8.506245"><ele>269.0</ele><time>2026-03-29T14:58:01.001Z</time></trkpt><trkpt lat="45.6466017" lon="8.5060833"><ele>269.0</ele><time>2026-03-29T14:58:02.001Z</time></trkpt><trkpt lat="45.6465817" lon="8.505905"><ele>269.0</ele><time>2026-03-29T14:58:03Z</time></trkpt><trkpt lat="45.6465567" lon="8.5057333"><ele>268.5</ele><time>2026-03-29T14:58:04Z</time></trkpt><trkpt lat="45.646545" lon="8.5055533"><ele>268.0</ele><time>2026-03-29T14:58:05.001Z</time></trkpt><trkpt lat="45.6465333" lon="8.5053917"><ele>267.5</ele><time>2026-03-29T14:58:06.001Z</time></trkpt><trkpt lat="45.6465283" lon="8.5052433"><ele>267.0</ele><time>2026-03-29T14:58:07.001Z</time></trkpt><trkpt lat="45.6465167" lon="8.5050817"><ele>266.4</ele><time>2026-03-29T14:58:08.001Z</time></trkpt><trkpt lat="45.6464967" lon="8.5049333"><ele>265.79999999999995</ele><time>2026-03-29T14:58:09.001Z</time></trkpt><trkpt lat="45.6464733" lon="8.5047833"><ele>265.2</ele><time>2026-03-29T14:58:10.001Z</time></trkpt><trkpt lat="45.6464483" lon="8.5046233"><ele>264.59999999999997</ele><time>2026-03-29T14:58:11.001Z</time></trkpt><trkpt lat="45.64643" lon="8.5044867"><ele>264.0</ele><time>2026-03-29T14:58:12.001Z</time></trkpt><trkpt lat="45.646425" lon="8.5043617"><ele>263.6666666666667</ele><time>2026-03-29T14:58:13.001Z</time></trkpt><trkpt lat="45.6464167" lon="8.5042383"><ele>263.3333333333333</ele><time>2026-03-29T14:58:14.001Z</time></trkpt><trkpt lat="45.6464033" lon="8.504125"><ele>263.0</ele><time>2026-03-29T14:58:15Z</time></trkpt><trkpt lat="45.64639" lon="8.5040167"><ele>262.66666666666663</ele><time>2026-03-29T14:58:16.001Z</time></trkpt><trkpt lat="45.6463767" lon="8.5039017"><ele>262.3333333333333</ele><time>2026-03-29T14:58:17.001Z</time></trkpt><trkpt lat="45.6463683" lon="8.5038033"><ele>262.0</ele><time>2026-03-29T14:58:18.001Z</time></trkpt><trkpt lat="45.64636" lon="8.5036983"><ele>261.8333333333333</ele><time>2026-03-29T14:58:19.001Z</time></trkpt><trkpt lat="45.6463567" lon="8.5035917"><ele>261.66666666666663</ele><time>2026-03-29T14:58:20.001Z</time></trkpt><trkpt lat="45.64635" lon="8.5034683"><ele>261.5</ele><time>2026-03-29T14:58:21.001Z</time></trkpt><trkpt lat="45.6463383" lon="8.503345"><ele>261.3333333333333</ele><time>2026-03-29T14:58:22Z</time></trkpt><trkpt lat="45.6463283" lon="8.5032117"><ele>261.1666666666667</ele><time>2026-03-29T14:58:23.001Z</time></trkpt><trkpt lat="45.6463233" lon="8.50309"><ele>261.0</ele><time>2026-03-29T14:58:24.001Z</time></trkpt><trkpt lat="45.6463117" lon="8.5029767"><ele>261.0</ele><time>2026-03-29T14:58:25Z</time></trkpt><trkpt lat="45.6463067" lon="8.50287"><ele>261.0</ele><time>2026-03-29T14:58:26.001Z</time></trkpt><trkpt lat="45.6462933" lon="8.5027683"><ele>261.0</ele><time>2026-03-29T14:58:27Z</time></trkpt><trkpt lat="45.6462817" lon="8.5026617"><ele>261.0</ele><time>2026-03-29T14:58:28.001Z</time></trkpt><trkpt lat="45.6462733" lon="8.50255"><ele>261.0</ele><time>2026-03-29T14:58:29.001Z</time></trkpt><trkpt lat="45.6462633" lon="8.5024383"><ele>261.0</ele><time>2026-03-29T14:58:30.001Z</time></trkpt><trkpt lat="45.646255" lon="8.502335"><ele>261.0</ele><time>2026-03-29T14:58:31Z</time></trkpt><trkpt lat="45.646245" lon="8.50224"><ele>261.0</ele><time>2026-03-29T14:58:32.001Z</time></trkpt><trkpt lat="45.6462317" lon="8.5021367"><ele>261.0</ele><time>2026-03-29T14:58:33Z</time></trkpt><trkpt lat="45.64622" lon="8.502035"><ele>261.0</ele><time>2026-03-29T14:58:34.001Z</time></trkpt><trkpt lat="45.6462067" lon="8.5019283"><ele>261.0</ele><time>2026-03-29T14:58:35Z</time></trkpt><trkpt lat="45.6462017" lon="8.5018383"><ele>261.0</ele><time>2026-03-29T14:58:36.001Z</time></trkpt><trkpt lat="45.6461833" lon="8.5016633"><ele>261.0</ele><time>2026-03-29T14:58:38Z</time></trkpt><trkpt lat="45.6461783" lon="8.5015717"><ele>261.0</ele><time>2026-03-29T14:58:39.001Z</time></trkpt><trkpt lat="45.646175" lon="8.50148"><ele>261.0</ele><time>2026-03-29T14:58:40Z</time></trkpt><trkpt lat="45.646175" lon="8.5013883"><ele>261.0</ele><time>2026-03-29T14:58:41Z</time></trkpt><trkpt lat="45.6461683" lon="8.5012983"><ele>261.0</ele><time>2026-03-29T14:58:42Z</time></trkpt><trkpt lat="45.646145" lon="8.501155"><ele>261.0</ele><time>2026-03-29T14:58:44.001Z</time></trkpt><trkpt lat="45.64613" lon="8.5010117"><ele>261.75</ele><time>2026-03-29T14:58:46.001Z</time></trkpt><trkpt lat="45.6461167" lon="8.5008383"><ele>262.5</ele><time>2026-03-29T14:58:48.001Z</time></trkpt><trkpt lat="45.6460967" lon="8.5006683"><ele>263.25</ele><time>2026-03-29T14:58:50.001Z</time></trkpt><trkpt lat="45.6460817" lon="8.500505"><ele>264.0</ele><time>2026-03-29T14:58:52Z</time></trkpt><trkpt lat="45.646065" lon="8.50036"><ele>264.0</ele><time>2026-03-29T14:58:54Z</time></trkpt><trkpt lat="45.6460517" lon="8.5001983"><ele>264.0</ele><time>2026-03-29T14:58:55.999Z</time></trkpt><trkpt lat="45.6460433" lon="8.50002"><ele>264.0</ele><time>2026-03-29T14:58:58Z</time></trkpt><trkpt lat="45.6460383" lon="8.49993"><ele>264.0</ele><time>2026-03-29T14:58:58.999Z</time></trkpt><trkpt lat="45.646035" lon="8.4998383"><ele>264.0</ele><time>2026-03-29T14:59:00Z</time></trkpt><trkpt lat="45.6460283" lon="8.4996567"><ele>264.25</ele><time>2026-03-29T14:59:02Z</time></trkpt><trkpt lat="45.6460067" lon="8.4994417"><ele>264.5</ele><time>2026-03-29T14:59:03.999Z</time></trkpt><trkpt lat="45.6459783" lon="8.4992283"><ele>264.75</ele><time>2026-03-29T14:59:06Z</time></trkpt><trkpt lat="45.64598" lon="8.4991133"><ele>265.0</ele><time>2026-03-29T14:59:08Z</time></trkpt><trkpt lat="45.646015" lon="8.4990317"><ele>265.0</ele><time>2026-03-29T14:59:10.999Z</time></trkpt><trkpt lat="45.64606" lon="8.4989167"><ele>265.0</ele><time>2026-03-29T14:59:14Z</time></trkpt><trkpt lat="45.6460467" lon="8.49882"><ele>265.0</ele><time>2026-03-29T14:59:15.999Z</time></trkpt><trkpt lat="45.6459683" lon="8.498825"><ele>265.0</ele><time>2026-03-29T14:59:23Z</time></trkpt><trkpt lat="45.6459217" lon="8.498955"><ele>265.0</ele><time>2026-03-29T14:59:24.999Z</time></trkpt><trkpt lat="45.645925" lon="8.4990583"><ele>265.0</ele><time>2026-03-29T14:59:26Z</time></trkpt><trkpt lat="45.6459417" lon="8.4991767"><ele>265.0</ele><time>2026-03-29T14:59:27Z</time></trkpt><trkpt lat="45.6459667" lon="8.499335"><ele>265.0</ele><time>2026-03-29T14:59:28Z</time></trkpt><trkpt lat="45.645985" lon="8.4994867"><ele>265.0</ele><time>2026-03-29T14:59:29Z</time></trkpt><trkpt lat="45.646" lon="8.4996383"><ele>265.0</ele><time>2026-03-29T14:59:30Z</time></trkpt><trkpt lat="45.6460133" lon="8.4997883"><ele>265.0</ele><time>2026-03-29T14:59:30.999Z</time></trkpt><trkpt lat="45.6460233" lon="8.4999333"><ele>264.8</ele><time>2026-03-29T14:59:31.999Z</time></trkpt><trkpt lat="45.6460383" lon="8.50008"><ele>264.6</ele><time>2026-03-29T14:59:33Z</time></trkpt><trkpt lat="45.6460517" lon="8.500215"><ele>264.4</ele><time>2026-03-29T14:59:33.999Z</time></trkpt><trkpt lat="45.6460633" lon="8.50033"><ele>264.2</ele><time>2026-03-29T14:59:35Z</time></trkpt><trkpt lat="45.64607" lon="8.500425"><ele>264.0</ele><time>2026-03-29T14:59:36Z</time></trkpt><trkpt lat="45.6460833" lon="8.50058"><ele>264.0</ele><time>2026-03-29T14:59:38Z</time></trkpt><trkpt lat="45.6460917" lon="8.5007567"><ele>264.0</ele><time>2026-03-29T14:59:39.999Z</time></trkpt><trkpt lat="45.6460883" lon="8.5008533"><ele>264.0</ele><time>2026-03-29T14:59:40.999Z</time></trkpt><trkpt lat="45.6460983" lon="8.5009517"><ele>264.0</ele><time>2026-03-29T14:59:42Z</time></trkpt><trkpt lat="45.6461067" lon="8.501045"><ele>264.0</ele><time>2026-03-29T14:59:43Z</time></trkpt><trkpt lat="45.6461233" lon="8.5011417"><ele>264.0</ele><time>2026-03-29T14:59:44Z</time></trkpt><trkpt lat="45.6461267" lon="8.5012567"><ele>263.5</ele><time>2026-03-29T14:59:45Z</time></trkpt><trkpt lat="45.6461383" lon="8.501365"><ele>263.0</ele><time>2026-03-29T14:59:45.999Z</time></trkpt><trkpt lat="45.6461417" lon="8.501475"><ele>262.5</ele><time>2026-03-29T14:59:46.999Z</time></trkpt><trkpt lat="45.6461417" lon="8.5015833"><ele>262.0</ele><time>2026-03-29T14:59:48Z</time></trkpt><trkpt lat="45.64614" lon="8.5017017"><ele>261.5</ele><time>2026-03-29T14:59:49Z</time></trkpt><trkpt lat="45.6461467" lon="8.50181"><ele>261.0</ele><time>2026-03-29T14:59:50Z</time></trkpt><trkpt lat="45.646155" lon="8.5019233"><ele>261.0</ele><time>2026-03-29T14:59:51Z</time></trkpt><trkpt lat="45.6461667" lon="8.5020383"><ele>261.0</ele><time>2026-03-29T14:59:52Z</time></trkpt><trkpt lat="45.6461833" lon="8.502155"><ele>261.0</ele><time>2026-03-29T14:59:53Z</time></trkpt><trkpt lat="45.6462" lon="8.502285"><ele>261.0</ele><time>2026-03-29T14:59:53.999Z</time></trkpt><trkpt lat="45.6462117" lon="8.5024233"><ele>261.0</ele><time>2026-03-29T14:59:55Z</time></trkpt><trkpt lat="45.6462217" lon="8.50255"><ele>261.0</ele><time>2026-03-29T14:59:56Z</time></trkpt><trkpt lat="45.6462283" lon="8.50267"><ele>261.0</ele><time>2026-03-29T14:59:57Z</time></trkpt><trkpt lat="45.6462383" lon="8.50278"><ele>261.0</ele><time>2026-03-29T14:59:57.999Z</time></trkpt><trkpt lat="45.6462283" lon="8.5029017"><ele>261.0</ele><time>2026-03-29T14:59:59Z</time></trkpt><trkpt lat="45.64623" lon="8.50302"><ele>261.0</ele><time>2026-03-29T15:00:00Z</time></trkpt><trkpt lat="45.6462333" lon="8.5031383"><ele>261.0</ele><time>2026-03-29T15:00:01Z</time></trkpt><trkpt lat="45.6462467" lon="8.5032567"><ele>261.0</ele><time>2026-03-29T15:00:01.999Z</time></trkpt><trkpt lat="45.6462617" lon="8.50339"><ele>261.0</ele><time>2026-03-29T15:00:03Z</time></trkpt><trkpt lat="45.6462833" lon="8.5035233"><ele>261.0</ele><time>2026-03-29T15:00:03.999Z</time></trkpt><trkpt lat="45.6463067" lon="8.5036717"><ele>261.0</ele><time>2026-03-29T15:00:05Z</time></trkpt><trkpt lat="45.6463233" lon="8.503795"><ele>261.0</ele><time>2026-03-29T15:00:05.999Z</time></trkpt><trkpt lat="45.6463383" lon="8.5039283"><ele>261.0</ele><time>2026-03-29T15:00:07Z</time></trkpt><trkpt lat="45.64635" lon="8.50406"><ele>261.2</ele><time>2026-03-29T15:00:08Z</time></trkpt><trkpt lat="45.64637" lon="8.5041917"><ele>261.40000000000003</ele><time>2026-03-29T15:00:09Z</time></trkpt><trkpt lat="45.646375" lon="8.5043317"><ele>261.6</ele><time>2026-03-29T15:00:09.999Z</time></trkpt><trkpt lat="45.6463883" lon="8.5044667"><ele>261.8</ele><time>2026-03-29T15:00:11Z</time></trkpt><trkpt lat="45.6464" lon="8.5045967"><ele>262.0</ele><time>2026-03-29T15:00:12Z</time></trkpt><trkpt lat="45.646415" lon="8.5047183"><ele>262.3333333333333</ele><time>2026-03-29T15:00:12.999Z</time></trkpt><trkpt lat="45.6464333" lon="8.5048483"><ele>262.66666666666663</ele><time>2026-03-29T15:00:13.999Z</time></trkpt><trkpt lat="45.64644" lon="8.5049583"><ele>263.0</ele><time>2026-03-29T15:00:15Z</time></trkpt><trkpt lat="45.646455" lon="8.5050717"><ele>263.3333333333333</ele><time>2026-03-29T15:00:16Z</time></trkpt><trkpt lat="45.646465" lon="8.5051933"><ele>263.6666666666667</ele><time>2026-03-29T15:00:17Z</time></trkpt><trkpt lat="45.6464717" lon="8.5053133"><ele>264.0</ele><time>2026-03-29T15:00:17.999Z</time></trkpt><trkpt lat="45.6464833" lon="8.50544"><ele>264.59999999999997</ele><time>2026-03-29T15:00:19Z</time></trkpt><trkpt lat="45.6464967" lon="8.5055733"><ele>265.2</ele><time>2026-03-29T15:00:20Z</time></trkpt><trkpt lat="45.646505" lon="8.5057067"><ele>265.79999999999995</ele><time>2026-03-29T15:00:21Z</time></trkpt><trkpt lat="45.6465133" lon="8.5058367"><ele>266.4</ele><time>2026-03-29T15:00:22Z</time></trkpt><trkpt lat="45.646525" lon="8.5059633"><ele>267.0</ele><time>2026-03-29T15:00:23Z</time></trkpt><trkpt lat="45.6465317" lon="8.5060983"><ele>267.0</ele><time>2026-03-29T15:00:23.999Z</time></trkpt><trkpt lat="45.6465467" lon="8.5062283"><ele>267.0</ele><time>2026-03-29T15:00:25Z</time></trkpt><trkpt lat="45.6465633" lon="8.5063467"><ele>267.0</ele><time>2026-03-29T15:00:26Z</time></trkpt><trkpt lat="45.64658" lon="8.5064617"><ele>267.0</ele><time>2026-03-29T15:00:27Z</time></trkpt><trkpt lat="45.6465967" lon="8.5065683"><ele>267.0</ele><time>2026-03-29T15:00:28Z</time></trkpt><trkpt lat="45.6466083" lon="8.5066717"><ele>267.0</ele><time>2026-03-29T15:00:29Z</time></trkpt><trkpt lat="45.6466217" lon="8.50678"><ele>267.28571428571433</ele><time>2026-03-29T15:00:30Z</time></trkpt><trkpt lat="45.6466333" lon="8.5068833"><ele>267.57142857142856</ele><time>2026-03-29T15:00:31Z</time></trkpt><trkpt lat="45.64665" lon="8.506985"><ele>267.8571428571429</ele><time>2026-03-29T15:00:32Z</time></trkpt><trkpt lat="45.6466617" lon="8.5070917"><ele>268.14285714285717</ele><time>2026-03-29T15:00:33Z</time></trkpt><trkpt lat="45.6466717" lon="8.5071983"><ele>268.42857142857144</ele><time>2026-03-29T15:00:33.999Z</time></trkpt><trkpt lat="45.64669" lon="8.50731"><ele>268.7142857142857</ele><time>2026-03-29T15:00:34.999Z</time></trkpt><trkpt lat="45.6467033" lon="8.50741"><ele>269.0</ele><time>2026-03-29T15:00:35.999Z</time></trkpt><trkpt lat="45.6467217" lon="8.5075633"><ele>269.2</ele><time>2026-03-29T15:00:37.999Z</time></trkpt><trkpt lat="45.6467317" lon="8.5076633"><ele>269.4</ele><time>2026-03-29T15:00:39.999Z</time></trkpt><trkpt lat="45.64669" lon="8.507745"><ele>269.6</ele><time>2026-03-29T15:00:43Z</time></trkpt><trkpt lat="45.6465833" lon="8.5077417"><ele>269.8</ele><time>2026-03-29T15:00:46Z</time></trkpt><trkpt lat="45.6464367" lon="8.5077217"><ele>270.0</ele><time>2026-03-29T15:00:48Z</time></trkpt><trkpt lat="45.6463417" lon="8.5077217"><ele>270.0</ele><time>2026-03-29T15:00:49Z</time></trkpt><trkpt lat="45.6462" lon="8.5077233"><ele>270.0</ele><time>2026-03-29T15:00:50Z</time></trkpt><trkpt lat="45.6460867" lon="8.507735"><ele>270.0</ele><time>2026-03-29T15:00:50.999Z</time></trkpt><trkpt lat="45.64597" lon="8.5077417"><ele>270.0</ele><time>2026-03-29T15:00:52Z</time></trkpt><trkpt lat="45.6458567" lon="8.5077367"><ele>270.0</ele><time>2026-03-29T15:00:52.999Z</time></trkpt><trkpt lat="45.6457433" lon="8.5077283"><ele>270.0</ele><time>2026-03-29T15:00:53.999Z</time></trkpt><trkpt lat="45.64565" lon="8.5077217"><ele>270.0</ele><time>2026-03-29T15:00:55Z</time></trkpt><trkpt lat="45.645565" lon="8.5077183"><ele>270.0</ele><time>2026-03-29T15:00:56Z</time></trkpt><trkpt lat="45.645485" lon="8.5077283"><ele>270.0</ele><time>2026-03-29T15:00:57Z</time></trkpt><trkpt lat="45.6454317" lon="8.50787"><ele>270.0</ele><time>2026-03-29T15:00:59Z</time></trkpt><trkpt lat="45.6453917" lon="8.50795"><ele>270.0</ele><time>2026-03-29T15:01:00Z</time></trkpt><trkpt lat="45.6453983" lon="8.508095"><ele>270.0</ele><time>2026-03-29T15:01:00.999Z</time></trkpt><trkpt lat="45.64543" lon="8.5082483"><ele>270.0</ele><time>2026-03-29T15:01:01.999Z</time></trkpt><trkpt lat="45.64559" lon="8.50848"><ele>270.0</ele><time>2026-03-29T15:01:02.999Z</time></trkpt><trkpt lat="45.6456" lon="8.5086267"><ele>270.0</ele><time>2026-03-29T15:01:03.999Z</time></trkpt><trkpt lat="45.64561" lon="8.50877"><ele>270.0</ele><time>2026-03-29T15:01:04.999Z</time></trkpt><trkpt lat="45.6455883" lon="8.508915"><ele>270.0</ele><time>2026-03-29T15:01:05.999Z</time></trkpt><trkpt lat="45.64558" lon="8.5090783"><ele>270.0</ele><time>2026-03-29T15:01:07Z</time></trkpt><trkpt lat="45.6456" lon="8.50926"><ele>269.0</ele><time>2026-03-29T15:01:08Z</time></trkpt><trkpt lat="45.6456317" lon="8.50946"><ele>268.0</ele><time>2026-03-29T15:01:08.999Z</time></trkpt><trkpt lat="45.64568" lon="8.50968"><ele>267.0</ele><time>2026-03-29T15:01:10Z</time></trkpt><trkpt lat="45.6457417" lon="8.5099017"><ele>266.3333333333333</ele><time>2026-03-29T15:01:11Z</time></trkpt><trkpt lat="45.645815" lon="8.5101317"><ele>265.66666666666663</ele><time>2026-03-29T15:01:12Z</time></trkpt><trkpt lat="45.6459" lon="8.510365"><ele>265.0</ele><time>2026-03-29T15:01:12.999Z</time></trkpt><trkpt lat="45.6459767" lon="8.51059"><ele>265.0</ele><time>2026-03-29T15:01:14Z</time></trkpt><trkpt lat="45.6460383" lon="8.5108083"><ele>265.0</ele><time>2026-03-29T15:01:15Z</time></trkpt><trkpt lat="45.6460917" lon="8.51101"><ele>265.0</ele><time>2026-03-29T15:01:16Z</time></trkpt><trkpt lat="45.64614" lon="8.5111867"><ele>265.0</ele><time>2026-03-29T15:01:17Z</time></trkpt><trkpt lat="45.6461783" lon="8.5113433"><ele>265.0</ele><time>2026-03-29T15:01:18Z</time></trkpt><trkpt lat="45.646195" lon="8.511505"><ele>265.0</ele><time>2026-03-29T15:01:18.999Z</time></trkpt><trkpt lat="45.6461867" lon="8.51165"><ele>265.0</ele><time>2026-03-29T15:01:20Z</time></trkpt><trkpt lat="45.646135" lon="8.51179"><ele>265.0</ele><time>2026-03-29T15:01:20.999Z</time></trkpt><trkpt lat="45.6460483" lon="8.5119283"><ele>265.0</ele><time>2026-03-29T15:01:21.999Z</time></trkpt><trkpt lat="45.645935" lon="8.51207"><ele>265.0</ele><time>2026-03-29T15:01:22.999Z</time></trkpt><trkpt lat="45.64581" lon="8.5122167"><ele>265.0</ele><time>2026-03-29T15:01:24Z</time></trkpt><trkpt lat="45.6456817" lon="8.51238"><ele>266.3333333333333</ele><time>2026-03-29T15:01:25Z</time></trkpt><trkpt lat="45.645545" lon="8.5125517"><ele>267.6666666666667</ele><time>2026-03-29T15:01:25.999Z</time></trkpt><trkpt lat="45.64541" lon="8.5127333"><ele>269.0</ele><time>2026-03-29T15:01:27Z</time></trkpt><trkpt lat="45.6452733" lon="8.5129183"><ele>269.33333333333337</ele><time>2026-03-29T15:01:28Z</time></trkpt><trkpt lat="45.6451467" lon="8.5131167"><ele>269.6666666666667</ele><time>2026-03-29T15:01:29Z</time></trkpt><trkpt lat="45.6450083" lon="8.5133267"><ele>270.0</ele><time>2026-03-29T15:01:30Z</time></trkpt><trkpt lat="45.644855" lon="8.5135417"><ele>271.0</ele><time>2026-03-29T15:01:30.999Z</time></trkpt><trkpt lat="45.6447033" lon="8.51377"><ele>272.0</ele><time>2026-03-29T15:01:32Z</time></trkpt><trkpt lat="45.64454" lon="8.5140033"><ele>270.5</ele><time>2026-03-29T15:01:33Z</time></trkpt><trkpt lat="45.64438" lon="8.5142367"><ele>269.0</ele><time>2026-03-29T15:01:34Z</time></trkpt><trkpt lat="45.6442133" lon="8.514465"><ele>269.0</ele><time>2026-03-29T15:01:35Z</time></trkpt><trkpt lat="45.6440433" lon="8.5146917"><ele>269.0</ele><time>2026-03-29T15:01:35.999Z</time></trkpt><trkpt lat="45.64388" lon="8.5149217"><ele>269.0</ele><time>2026-03-29T15:01:37Z</time></trkpt><trkpt lat="45.64371" lon="8.51516"><ele>269.0</ele><time>2026-03-29T15:01:37.999Z</time></trkpt><trkpt lat="45.6435383" lon="8.5153983"><ele>268.0</ele><time>2026-03-29T15:01:39Z</time></trkpt><trkpt lat="45.643375" lon="8.5156383"><ele>267.0</ele><time>2026-03-29T15:01:39.999Z</time></trkpt><trkpt lat="45.6431983" lon="8.5158817"><ele>267.0</ele><time>2026-03-29T15:01:41Z</time></trkpt><trkpt lat="45.643015" lon="8.5161417"><ele>267.0</ele><time>2026-03-29T15:01:41.999Z</time></trkpt><trkpt lat="45.6428383" lon="8.5164"><ele>268.0</ele><time>2026-03-29T15:01:43Z</time></trkpt><trkpt lat="45.642655" lon="8.5166617"><ele>269.0</ele><time>2026-03-29T15:01:44Z</time></trkpt><trkpt lat="45.6424717" lon="8.5169217"><ele>269.0</ele><time>2026-03-29T15:01:45Z</time></trkpt><trkpt lat="45.6422917" lon="8.5171817"><ele>269.0</ele><time>2026-03-29T15:01:46Z</time></trkpt><trkpt lat="45.6421017" lon="8.5174433"><ele>268.0</ele><time>2026-03-29T15:01:47Z</time></trkpt><trkpt lat="45.6419167" lon="8.5176967"><ele>267.0</ele><time>2026-03-29T15:01:48Z</time></trkpt><trkpt lat="45.6417333" lon="8.517955"><ele>266.0</ele><time>2026-03-29T15:01:49Z</time></trkpt><trkpt lat="45.6415483" lon="8.51821"><ele>265.0</ele><time>2026-03-29T15:01:50Z</time></trkpt><trkpt lat="45.6413633" lon="8.5184733"><ele>265.0</ele><time>2026-03-29T15:01:50.999Z</time></trkpt><trkpt lat="45.6411733" lon="8.5187267"><ele>265.0</ele><time>2026-03-29T15:01:51.999Z</time></trkpt><trkpt lat="45.640995" lon="8.5189867"><ele>264.5</ele><time>2026-03-29T15:01:52.999Z</time></trkpt><trkpt lat="45.6408183" lon="8.5192483"><ele>264.0</ele><time>2026-03-29T15:01:53.999Z</time></trkpt><trkpt lat="45.6406467" lon="8.519505"><ele>264.5</ele><time>2026-03-29T15:01:54.999Z</time></trkpt><trkpt lat="45.6404783" lon="8.519765"><ele>265.0</ele><time>2026-03-29T15:01:55.999Z</time></trkpt><trkpt lat="45.6403217" lon="8.520035"><ele>264.5</ele><time>2026-03-29T15:01:57Z</time></trkpt><trkpt lat="45.64016" lon="8.52031"><ele>264.0</ele><time>2026-03-29T15:01:58Z</time></trkpt><trkpt lat="45.639995" lon="8.52059"><ele>263.0</ele><time>2026-03-29T15:01:59Z</time></trkpt><trkpt lat="45.6398317" lon="8.5208767"><ele>262.0</ele><time>2026-03-29T15:02:00Z</time></trkpt><trkpt lat="45.6396667" lon="8.52115"><ele>263.0</ele><time>2026-03-29T15:02:00.999Z</time></trkpt><trkpt lat="45.6395017" lon="8.52144"><ele>264.0</ele><time>2026-03-29T15:02:02Z</time></trkpt><trkpt lat="45.6393333" lon="8.5217267"><ele>264.0</ele><time>2026-03-29T15:02:02.999Z</time></trkpt><trkpt lat="45.6391583" lon="8.5220033"><ele>264.0</ele><time>2026-03-29T15:02:04Z</time></trkpt><trkpt lat="45.6389917" lon="8.5222733"><ele>264.0</ele><time>2026-03-29T15:02:05Z</time></trkpt><trkpt lat="45.638815" lon="8.522545"><ele>264.0</ele><time>2026-03-29T15:02:06Z</time></trkpt><trkpt lat="45.6386367" lon="8.5228083"><ele>263.0</ele><time>2026-03-29T15:02:06.999Z</time></trkpt><trkpt lat="45.6384533" lon="8.52305"><ele>262.0</ele><time>2026-03-29T15:02:07.999Z</time></trkpt><trkpt lat="45.63825" lon="8.5232767"><ele>262.0</ele><time>2026-03-29T15:02:09Z</time></trkpt><trkpt lat="45.6380417" lon="8.5234933"><ele>262.0</ele><time>2026-03-29T15:02:10Z</time></trkpt><trkpt lat="45.6378283" lon="8.5237117"><ele>262.0</ele><time>2026-03-29T15:02:11Z</time></trkpt><trkpt lat="45.637605" lon="8.52393"><ele>262.0</ele><time>2026-03-29T15:02:11.999Z</time></trkpt><trkpt lat="45.6373983" lon="8.5241517"><ele>262.0</ele><time>2026-03-29T15:02:13Z</time></trkpt><trkpt lat="45.63719" lon="8.5243783"><ele>262.0</ele><time>2026-03-29T15:02:13.999Z</time></trkpt><trkpt lat="45.6369833" lon="8.5246"><ele>262.5</ele><time>2026-03-29T15:02:15Z</time></trkpt><trkpt lat="45.6367783" lon="8.5248083"><ele>263.0</ele><time>2026-03-29T15:02:16Z</time></trkpt><trkpt lat="45.63657" lon="8.525035"><ele>263.0</ele><time>2026-03-29T15:02:17Z</time></trkpt><trkpt lat="45.6363683" lon="8.52526"><ele>263.0</ele><time>2026-03-29T15:02:17.999Z</time></trkpt><trkpt lat="45.6361717" lon="8.5254933"><ele>261.5</ele><time>2026-03-29T15:02:19Z</time></trkpt><trkpt lat="45.63597" lon="8.52572"><ele>260.0</ele><time>2026-03-29T15:02:20Z</time></trkpt><trkpt lat="45.6357683" lon="8.5259467"><ele>260.0</ele><time>2026-03-29T15:02:21Z</time></trkpt><trkpt lat="45.635585" lon="8.5261667"><ele>260.0</ele><time>2026-03-29T15:02:22Z</time></trkpt><trkpt lat="45.6354083" lon="8.5263717"><ele>259.6666666666667</ele><time>2026-03-29T15:02:23Z</time></trkpt><trkpt lat="45.6352317" lon="8.5265833"><ele>259.3333333333333</ele><time>2026-03-29T15:02:24Z</time></trkpt><trkpt lat="45.6350767" lon="8.5268017"><ele>259.0</ele><time>2026-03-29T15:02:25Z</time></trkpt><trkpt lat="45.6349333" lon="8.5270217"><ele>259.0</ele><time>2026-03-29T15:02:26Z</time></trkpt><trkpt lat="45.6348067" lon="8.5272383"><ele>259.0</ele><time>2026-03-29T15:02:26.999Z</time></trkpt><trkpt lat="45.63469" lon="8.5274333"><ele>259.0</ele><time>2026-03-29T15:02:27.999Z</time></trkpt><trkpt lat="45.634605" lon="8.527635"><ele>259.0</ele><time>2026-03-29T15:02:28.999Z</time></trkpt><trkpt lat="45.6345383" lon="8.5278233"><ele>259.0</ele><time>2026-03-29T15:02:29.999Z</time></trkpt><trkpt lat="45.6345017" lon="8.5280017"><ele>259.0</ele><time>2026-03-29T15:02:30.999Z</time></trkpt><trkpt lat="45.6344767" lon="8.528175"><ele>259.0</ele><time>2026-03-29T15:02:32Z</time></trkpt><trkpt lat="45.63446" lon="8.52835"><ele>258.75</ele><time>2026-03-29T15:02:33Z</time></trkpt><trkpt lat="45.6344367" lon="8.5285317"><ele>258.5</ele><time>2026-03-29T15:02:33.999Z</time></trkpt><trkpt lat="45.6344083" lon="8.5287067"><ele>258.25</ele><time>2026-03-29T15:02:35Z</time></trkpt><trkpt lat="45.634375" lon="8.5288883"><ele>258.0</ele><time>2026-03-29T15:02:36Z</time></trkpt><trkpt lat="45.6343433" lon="8.5290767"><ele>257.75</ele><time>2026-03-29T15:02:37Z</time></trkpt><trkpt lat="45.63431" lon="8.52928"><ele>257.5</ele><time>2026-03-29T15:02:38Z</time></trkpt><trkpt lat="45.634275" lon="8.5294867"><ele>257.25</ele><time>2026-03-29T15:02:38.999Z</time></trkpt><trkpt lat="45.6342433" lon="8.5296883"><ele>257.0</ele><time>2026-03-29T15:02:40Z</time></trkpt><trkpt lat="45.634205" lon="8.529885"><ele>257.5</ele><time>2026-03-29T15:02:41Z</time></trkpt><trkpt lat="45.634165" lon="8.5300767"><ele>258.0</ele><time>2026-03-29T15:02:42Z</time></trkpt><trkpt lat="45.6341317" lon="8.530265"><ele>258.5</ele><time>2026-03-29T15:02:42.999Z</time></trkpt><trkpt lat="45.6341" lon="8.5304583"><ele>259.0</ele><time>2026-03-29T15:02:43.999Z</time></trkpt><trkpt lat="45.63407" lon="8.53065"><ele>259.25</ele><time>2026-03-29T15:02:45Z</time></trkpt><trkpt lat="45.6340383" lon="8.53085"><ele>259.5</ele><time>2026-03-29T15:02:45.999Z</time></trkpt><trkpt lat="45.6340067" lon="8.53105"><ele>259.75</ele><time>2026-03-29T15:02:47Z</time></trkpt><trkpt lat="45.63397" lon="8.5312533"><ele>260.0</ele><time>2026-03-29T15:02:47.999Z</time></trkpt><trkpt lat="45.6339317" lon="8.5314517"><ele>260.25</ele><time>2026-03-29T15:02:49Z</time></trkpt><trkpt lat="45.6338983" lon="8.5316467"><ele>260.5</ele><time>2026-03-29T15:02:50Z</time></trkpt><trkpt lat="45.63387" lon="8.53185"><ele>260.75</ele><time>2026-03-29T15:02:51Z</time></trkpt><trkpt lat="45.6338283" lon="8.53205"><ele>261.0</ele><time>2026-03-29T15:02:52Z</time></trkpt><trkpt lat="45.633785" lon="8.5322483"><ele>261.0</ele><time>2026-03-29T15:02:53Z</time></trkpt><trkpt lat="45.633755" lon="8.532455"><ele>261.0</ele><time>2026-03-29T15:02:54Z</time></trkpt><trkpt lat="45.6337167" lon="8.5326633"><ele>261.0</ele><time>2026-03-29T15:02:55Z</time></trkpt><trkpt lat="45.6336883" lon="8.53287"><ele>261.0</ele><time>2026-03-29T15:02:56Z</time></trkpt><trkpt lat="45.6336667" lon="8.53309"><ele>261.0</ele><time>2026-03-29T15:02:57Z</time></trkpt><trkpt lat="45.6336783" lon="8.53331"><ele>261.0</ele><time>2026-03-29T15:02:58Z</time></trkpt><trkpt lat="45.6336967" lon="8.53354"><ele>261.0</ele><time>2026-03-29T15:02:58.999Z</time></trkpt><trkpt lat="45.633715" lon="8.53379"><ele>261.0</ele><time>2026-03-29T15:03:00Z</time></trkpt><trkpt lat="45.633745" lon="8.53405"><ele>261.0</ele><time>2026-03-29T15:03:01Z</time></trkpt><trkpt lat="45.6337667" lon="8.53433"><ele>261.0</ele><time>2026-03-29T15:03:01.999Z</time></trkpt><trkpt lat="45.6337767" lon="8.53458"><ele>261.6666666666667</ele><time>2026-03-29T15:03:03Z</time></trkpt><trkpt lat="45.633795" lon="8.5348383"><ele>262.33333333333337</ele><time>2026-03-29T15:03:03.999Z</time></trkpt><trkpt lat="45.633805" lon="8.5351217"><ele>263.0</ele><time>2026-03-29T15:03:05Z</time></trkpt><trkpt lat="45.6338233" lon="8.5353867"><ele>263.0</ele><time>2026-03-29T15:03:06Z</time></trkpt><trkpt lat="45.6338433" lon="8.5356617"><ele>263.0</ele><time>2026-03-29T15:03:07Z</time></trkpt><trkpt lat="45.6338717" lon="8.535945"><ele>263.0</ele><time>2026-03-29T15:03:08Z</time></trkpt><trkpt lat="45.63388" lon="8.5362267"><ele>262.33333333333337</ele><time>2026-03-29T15:03:09Z</time></trkpt><trkpt lat="45.6339" lon="8.5365067"><ele>261.6666666666667</ele><time>2026-03-29T15:03:10Z</time></trkpt><trkpt lat="45.6339417" lon="8.5368017"><ele>261.0</ele><time>2026-03-29T15:03:11Z</time></trkpt><trkpt lat="45.6339567" lon="8.5370917"><ele>259.6666666666667</ele><time>2026-03-29T15:03:11.999Z</time></trkpt><trkpt lat="45.6339717" lon="8.53737"><ele>258.33333333333337</ele><time>2026-03-29T15:03:13Z</time></trkpt><trkpt lat="45.6339867" lon="8.5376283"><ele>257.0</ele><time>2026-03-29T15:03:14Z</time></trkpt><trkpt lat="45.6340017" lon="8.5378667"><ele>256.33333333333337</ele><time>2026-03-29T15:03:15Z</time></trkpt><trkpt lat="45.6340117" lon="8.5381"><ele>255.66666666666669</ele><time>2026-03-29T15:03:16Z</time></trkpt><trkpt lat="45.634025" lon="8.538325"><ele>255.0</ele><time>2026-03-29T15:03:16.999Z</time></trkpt><trkpt lat="45.63405" lon="8.5385517"><ele>255.0</ele><time>2026-03-29T15:03:18Z</time></trkpt><trkpt lat="45.6340633" lon="8.53877"><ele>255.0</ele><time>2026-03-29T15:03:18.999Z</time></trkpt><trkpt lat="45.6340733" lon="8.5389417"><ele>255.0</ele><time>2026-03-29T15:03:19.999Z</time></trkpt><trkpt lat="45.63407" lon="8.5391083"><ele>255.0</ele><time>2026-03-29T15:03:21Z</time></trkpt><trkpt lat="45.6340383" lon="8.5392633"><ele>255.0</ele><time>2026-03-29T15:03:22Z</time></trkpt><trkpt lat="45.6340167" lon="8.539415"><ele>255.0</ele><time>2026-03-29T15:03:22.999Z</time></trkpt><trkpt lat="45.6340167" lon="8.5395467"><ele>255.0</ele><time>2026-03-29T15:03:24Z</time></trkpt><trkpt lat="45.6340133" lon="8.539665"><ele>255.0</ele><time>2026-03-29T15:03:24.999Z</time></trkpt><trkpt lat="45.63402" lon="8.5398217"><ele>255.0</ele><time>2026-03-29T15:03:26.999Z</time></trkpt><trkpt lat="45.63402" lon="8.53996"><ele>255.25</ele><time>2026-03-29T15:03:29Z</time></trkpt><trkpt lat="45.6340133" lon="8.5400667"><ele>255.5</ele><time>2026-03-29T15:03:30Z</time></trkpt><trkpt lat="45.6340283" lon="8.5402"><ele>255.75</ele><time>2026-03-29T15:03:31Z</time></trkpt><trkpt lat="45.6340467" lon="8.54038"><ele>256.0</ele><time>2026-03-29T15:03:31.999Z</time></trkpt><trkpt lat="45.6340817" lon="8.5406283"><ele>256.0</ele><time>2026-03-29T15:03:33Z</time></trkpt><trkpt lat="45.6340967" lon="8.5408767"><ele>256.0</ele><time>2026-03-29T15:03:33.999Z</time></trkpt><trkpt lat="45.63413" lon="8.541105"><ele>256.0</ele><time>2026-03-29T15:03:34.999Z</time></trkpt><trkpt lat="45.6341467" lon="8.5413067"><ele>256.25</ele><time>2026-03-29T15:03:36Z</time></trkpt><trkpt lat="45.6341567" lon="8.5415033"><ele>256.5</ele><time>2026-03-29T15:03:37Z</time></trkpt><trkpt lat="45.6341567" lon="8.54168"><ele>256.75</ele><time>2026-03-29T15:03:37.999Z</time></trkpt><trkpt lat="45.63414" lon="8.5418767"><ele>257.0</ele><time>2026-03-29T15:03:38.999Z</time></trkpt><trkpt lat="45.6341083" lon="8.5420467"><ele>257.6666666666667</ele><time>2026-03-29T15:03:40Z</time></trkpt><trkpt lat="45.6340383" lon="8.54224"><ele>258.3333333333333</ele><time>2026-03-29T15:03:41Z</time></trkpt><trkpt lat="45.6339767" lon="8.5424617"><ele>259.0</ele><time>2026-03-29T15:03:41.999Z</time></trkpt><trkpt lat="45.6339033" lon="8.542675"><ele>259.0</ele><time>2026-03-29T15:03:42.999Z</time></trkpt><trkpt lat="45.6338333" lon="8.5428617"><ele>259.0</ele><time>2026-03-29T15:03:44Z</time></trkpt><trkpt lat="45.6337633" lon="8.5430483"><ele>259.0</ele><time>2026-03-29T15:03:45Z</time></trkpt><trkpt lat="45.6336717" lon="8.5432183"><ele>259.0</ele><time>2026-03-29T15:03:46Z</time></trkpt><trkpt lat="45.633595" lon="8.5433683"><ele>259.25</ele><time>2026-03-29T15:03:46.999Z</time></trkpt><trkpt lat="45.633515" lon="8.5435133"><ele>259.5</ele><time>2026-03-29T15:03:48Z</time></trkpt><trkpt lat="45.63343" lon="8.5436583"><ele>259.75</ele><time>2026-03-29T15:03:48.999Z</time></trkpt><trkpt lat="45.633385" lon="8.5438383"><ele>260.0</ele><time>2026-03-29T15:03:50Z</time></trkpt><trkpt lat="45.63337" lon="8.54405"><ele>261.0</ele><time>2026-03-29T15:03:51Z</time></trkpt><trkpt lat="45.6333883" lon="8.54429"><ele>262.0</ele><time>2026-03-29T15:03:52Z</time></trkpt><trkpt lat="45.6334" lon="8.5445433"><ele>263.0</ele><time>2026-03-29T15:03:53Z</time></trkpt><trkpt lat="45.63343" lon="8.5448133"><ele>263.0</ele><time>2026-03-29T15:03:54Z</time></trkpt><trkpt lat="45.6334683" lon="8.5450833"><ele>263.0</ele><time>2026-03-29T15:03:55Z</time></trkpt><trkpt lat="45.6335" lon="8.54539"><ele>263.0</ele><time>2026-03-29T15:03:56Z</time></trkpt><trkpt lat="45.6335083" lon="8.5457217"><ele>262.5</ele><time>2026-03-29T15:03:57Z</time></trkpt><trkpt lat="45.6335217" lon="8.5460683"><ele>262.0</ele><time>2026-03-29T15:03:58Z</time></trkpt><trkpt lat="45.6335367" lon="8.5464167"><ele>262.0</ele><time>2026-03-29T15:03:59Z</time></trkpt><trkpt lat="45.6335567" lon="8.546775"><ele>262.0</ele><time>2026-03-29T15:04:00Z</time></trkpt><trkpt lat="45.6335667" lon="8.5471167"><ele>263.0</ele><time>2026-03-29T15:04:00.999Z</time></trkpt><trkpt lat="45.6335833" lon="8.5474517"><ele>264.0</ele><time>2026-03-29T15:04:01.999Z</time></trkpt><trkpt lat="45.6335983" lon="8.5477683"><ele>263.0</ele><time>2026-03-29T15:04:03Z</time></trkpt><trkpt lat="45.6336117" lon="8.5480967"><ele>262.0</ele><time>2026-03-29T15:04:04Z</time></trkpt><trkpt lat="45.6336317" lon="8.54842"><ele>262.0</ele><time>2026-03-29T15:04:05Z</time></trkpt><trkpt lat="45.63366" lon="8.548755"><ele>262.0</ele><time>2026-03-29T15:04:05.999Z</time></trkpt><trkpt lat="45.6336833" lon="8.5490883"><ele>262.0</ele><time>2026-03-29T15:04:07Z</time></trkpt><trkpt lat="45.633715" lon="8.5494"><ele>262.0</ele><time>2026-03-29T15:04:07.999Z</time></trkpt><trkpt lat="45.633755" lon="8.54971"><ele>262.0</ele><time>2026-03-29T15:04:09Z</time></trkpt><trkpt lat="45.633785" lon="8.55003"><ele>262.0</ele><time>2026-03-29T15:04:09.999Z</time></trkpt><trkpt lat="45.6338133" lon="8.550345"><ele>262.0</ele><time>2026-03-29T15:04:11Z</time></trkpt><trkpt lat="45.6338383" lon="8.550655"><ele>262.0</ele><time>2026-03-29T15:04:12Z</time></trkpt><trkpt lat="45.6338567" lon="8.5509583"><ele>261.5</ele><time>2026-03-29T15:04:13Z</time></trkpt><trkpt lat="45.63386" lon="8.5512733"><ele>261.0</ele><time>2026-03-29T15:04:14Z</time></trkpt><trkpt lat="45.6338633" lon="8.5516083"><ele>261.0</ele><time>2026-03-29T15:04:14.999Z</time></trkpt><trkpt lat="45.6338683" lon="8.5519367"><ele>261.0</ele><time>2026-03-29T15:04:16Z</time></trkpt><trkpt lat="45.6338817" lon="8.5522717"><ele>260.0</ele><time>2026-03-29T15:04:17Z</time></trkpt><trkpt lat="45.6338967" lon="8.55262"><ele>259.0</ele><time>2026-03-29T15:04:18Z</time></trkpt><trkpt lat="45.6339283" lon="8.552965"><ele>259.0</ele><time>2026-03-29T15:04:19Z</time></trkpt><trkpt lat="45.6339633" lon="8.553305"><ele>259.0</ele><time>2026-03-29T15:04:20Z</time></trkpt><trkpt lat="45.6339833" lon="8.5536483"><ele>259.5</ele><time>2026-03-29T15:04:21Z</time></trkpt><trkpt lat="45.634005" lon="8.5540117"><ele>260.0</ele><time>2026-03-29T15:04:22Z</time></trkpt><trkpt lat="45.63405" lon="8.554365"><ele>260.5</ele><time>2026-03-29T15:04:23Z</time></trkpt><trkpt lat="45.634095" lon="8.5547117"><ele>261.0</ele><time>2026-03-29T15:04:24Z</time></trkpt><trkpt lat="45.6341417" lon="8.5550567"><ele>259.5</ele><time>2026-03-29T15:04:25Z</time></trkpt><trkpt lat="45.6342017" lon="8.5553983"><ele>258.0</ele><time>2026-03-29T15:04:26Z</time></trkpt><trkpt lat="45.6342417" lon="8.5557233"><ele>258.0</ele><time>2026-03-29T15:04:27Z</time></trkpt><trkpt lat="45.63428" lon="8.5560367"><ele>258.0</ele><time>2026-03-29T15:04:28Z</time></trkpt><trkpt lat="45.63432" lon="8.5563367"><ele>258.0</ele><time>2026-03-29T15:04:29Z</time></trkpt><trkpt lat="45.6343717" lon="8.55663"><ele>258.3333333333333</ele><time>2026-03-29T15:04:30Z</time></trkpt><trkpt lat="45.63443" lon="8.5569233"><ele>258.66666666666663</ele><time>2026-03-29T15:04:31Z</time></trkpt><trkpt lat="45.6345017" lon="8.5572083"><ele>259.0</ele><time>2026-03-29T15:04:32Z</time></trkpt><trkpt lat="45.6345783" lon="8.5574983"><ele>260.0</ele><time>2026-03-29T15:04:33Z</time></trkpt><trkpt lat="45.634655" lon="8.55778"><ele>261.0</ele><time>2026-03-29T15:04:34Z</time></trkpt><trkpt lat="45.6347467" lon="8.5580467"><ele>262.0</ele><time>2026-03-29T15:04:35Z</time></trkpt><trkpt lat="45.6348233" lon="8.5583383"><ele>262.3333333333333</ele><time>2026-03-29T15:04:36Z</time></trkpt><trkpt lat="45.6348967" lon="8.5586067"><ele>262.6666666666667</ele><time>2026-03-29T15:04:37Z</time></trkpt><trkpt lat="45.63494" lon="8.5588683"><ele>263.0</ele><time>2026-03-29T15:04:38Z</time></trkpt><trkpt lat="45.6349683" lon="8.5591183"><ele>262.75</ele><time>2026-03-29T15:04:39Z</time></trkpt><trkpt lat="45.63498" lon="8.5593533"><ele>262.5</ele><time>2026-03-29T15:04:40Z</time></trkpt><trkpt lat="45.63498" lon="8.5595367"><ele>262.25</ele><time>2026-03-29T15:04:40.999Z</time></trkpt><trkpt lat="45.6349467" lon="8.559715"><ele>262.0</ele><time>2026-03-29T15:04:42Z</time></trkpt><trkpt lat="45.6349017" lon="8.559895"><ele>262.0</ele><time>2026-03-29T15:04:43Z</time></trkpt><trkpt lat="45.6348183" lon="8.560065"><ele>262.0</ele><time>2026-03-29T15:04:44Z</time></trkpt><trkpt lat="45.634755" lon="8.5602383"><ele>262.0</ele><time>2026-03-29T15:04:44.999Z</time></trkpt><trkpt lat="45.6347083" lon="8.5604383"><ele>262.0</ele><time>2026-03-29T15:04:46Z</time></trkpt><trkpt lat="45.634675" lon="8.56068"><ele>262.0</ele><time>2026-03-29T15:04:46.999Z</time></trkpt><trkpt lat="45.6346267" lon="8.5609383"><ele>262.0</ele><time>2026-03-29T15:04:47.999Z</time></trkpt><trkpt lat="45.6345617" lon="8.5612067"><ele>262.0</ele><time>2026-03-29T15:04:48.999Z</time></trkpt><trkpt lat="45.634495" lon="8.5614533"><ele>262.0</ele><time>2026-03-29T15:04:49.998Z</time></trkpt><trkpt lat="45.634425" lon="8.5616633"><ele>262.0</ele><time>2026-03-29T15:04:50.999Z</time></trkpt><trkpt lat="45.634345" lon="8.5618333"><ele>262.0</ele><time>2026-03-29T15:04:51.999Z</time></trkpt><trkpt lat="45.6342617" lon="8.561985"><ele>262.0</ele><time>2026-03-29T15:04:52.998Z</time></trkpt><trkpt lat="45.6341683" lon="8.562105"><ele>262.0</ele><time>2026-03-29T15:04:53.998Z</time></trkpt><trkpt lat="45.6340283" lon="8.5622233"><ele>262.0</ele><time>2026-03-29T15:04:54.999Z</time></trkpt><trkpt lat="45.63392" lon="8.5624033"><ele>262.0</ele><time>2026-03-29T15:04:55.999Z</time></trkpt><trkpt lat="45.6338167" lon="8.5626233"><ele>262.0</ele><time>2026-03-29T15:04:56.999Z</time></trkpt><trkpt lat="45.6337333" lon="8.5628717"><ele>262.0</ele><time>2026-03-29T15:04:57.999Z</time></trkpt><trkpt lat="45.6336783" lon="8.5631217"><ele>262.0</ele><time>2026-03-29T15:04:58.999Z</time></trkpt><trkpt lat="45.6336333" lon="8.5633617"><ele>262.3333333333333</ele><time>2026-03-29T15:04:59.999Z</time></trkpt><trkpt lat="45.6335867" lon="8.56357"><ele>262.6666666666667</ele><time>2026-03-29T15:05:00.999Z</time></trkpt><trkpt lat="45.6335733" lon="8.56378"><ele>263.0</ele><time>2026-03-29T15:05:01.998Z</time></trkpt><trkpt lat="45.6335767" lon="8.56401"><ele>263.0</ele><time>2026-03-29T15:05:02.999Z</time></trkpt><trkpt lat="45.633605" lon="8.5642617"><ele>263.0</ele><time>2026-03-29T15:05:03.999Z</time></trkpt><trkpt lat="45.6336433" lon="8.56451"><ele>263.0</ele><time>2026-03-29T15:05:04.999Z</time></trkpt><trkpt lat="45.6336717" lon="8.5647633"><ele>263.0</ele><time>2026-03-29T15:05:05.999Z</time></trkpt><trkpt lat="45.63371" lon="8.5650117"><ele>263.0</ele><time>2026-03-29T15:05:06.999Z</time></trkpt><trkpt lat="45.6337433" lon="8.5652683"><ele>263.0</ele><time>2026-03-29T15:05:07.999Z</time></trkpt><trkpt lat="45.633795" lon="8.56552"><ele>263.33333333333337</ele><time>2026-03-29T15:05:08.999Z</time></trkpt><trkpt lat="45.6338517" lon="8.5657667"><ele>263.6666666666667</ele><time>2026-03-29T15:05:09.999Z</time></trkpt><trkpt lat="45.6339267" lon="8.56602"><ele>264.0</ele><time>2026-03-29T15:05:10.999Z</time></trkpt><trkpt lat="45.6340017" lon="8.56628"><ele>264.0</ele><time>2026-03-29T15:05:11.999Z</time></trkpt><trkpt lat="45.6340783" lon="8.5665333"><ele>264.0</ele><time>2026-03-29T15:05:12.999Z</time></trkpt><trkpt lat="45.6341633" lon="8.5667933"><ele>264.0</ele><time>2026-03-29T15:05:13.998Z</time></trkpt><trkpt lat="45.63426" lon="8.56705"><ele>264.3333333333333</ele><time>2026-03-29T15:05:14.999Z</time></trkpt><trkpt lat="45.63436" lon="8.567315"><ele>264.66666666666663</ele><time>2026-03-29T15:05:15.998Z</time></trkpt><trkpt lat="45.634455" lon="8.567555"><ele>265.0</ele><time>2026-03-29T15:05:16.998Z</time></trkpt><trkpt lat="45.6345617" lon="8.5677867"><ele>265.0</ele><time>2026-03-29T15:05:17.998Z</time></trkpt><trkpt lat="45.634655" lon="8.5680233"><ele>265.0</ele><time>2026-03-29T15:05:18.999Z</time></trkpt><trkpt lat="45.634755" lon="8.56823"><ele>265.0</ele><time>2026-03-29T15:05:19.999Z</time></trkpt><trkpt lat="45.6348167" lon="8.568465"><ele>266.0</ele><time>2026-03-29T15:05:20.999Z</time></trkpt><trkpt lat="45.634825" lon="8.5687167"><ele>267.0</ele><time>2026-03-29T15:05:21.998Z</time></trkpt><trkpt lat="45.63482" lon="8.5689717"><ele>268.0</ele><time>2026-03-29T15:05:22.999Z</time></trkpt><trkpt lat="45.6348083" lon="8.5692333"><ele>268.0</ele><time>2026-03-29T15:05:23.999Z</time></trkpt><trkpt lat="45.6347833" lon="8.5694833"><ele>268.0</ele><time>2026-03-29T15:05:24.998Z</time></trkpt><trkpt lat="45.6347567" lon="8.569725"><ele>268.0</ele><time>2026-03-29T15:05:25.999Z</time></trkpt><trkpt lat="45.6347417" lon="8.569945"><ele>268.5</ele><time>2026-03-29T15:05:26.999Z</time></trkpt><trkpt lat="45.6347367" lon="8.5701583"><ele>269.0</ele><time>2026-03-29T15:05:27.999Z</time></trkpt><trkpt lat="45.63473" lon="8.5703517"><ele>269.5</ele><time>2026-03-29T15:05:28.998Z</time></trkpt><trkpt lat="45.6347267" lon="8.5705433"><ele>270.0</ele><time>2026-03-29T15:05:29.998Z</time></trkpt><trkpt lat="45.634749" lon="8.570743"><ele>270.0</ele><time>2026-03-29T15:05:30.998Z</time></trkpt><trkpt lat="45.6347995" lon="8.5709383"><ele>270.0</ele><time>2026-03-29T15:05:31.999Z</time></trkpt><trkpt lat="45.6348666" lon="8.5711269"><ele>270.0</ele><time>2026-03-29T15:05:32.999Z</time></trkpt><trkpt lat="45.6349633" lon="8.5713045"><ele>269.5</ele><time>2026-03-29T15:05:33.998Z</time></trkpt><trkpt lat="45.6350549" lon="8.5714651"><ele>269.0</ele><time>2026-03-29T15:05:34.999Z</time></trkpt><trkpt lat="45.6351253" lon="8.5716365"><ele>268.5</ele><time>2026-03-29T15:05:35.999Z</time></trkpt><trkpt lat="45.635162" lon="8.5718253"><ele>268.0</ele><time>2026-03-29T15:05:36.998Z</time></trkpt><trkpt lat="45.6351524" lon="8.5720184"><ele>268.5</ele><time>2026-03-29T15:05:37.999Z</time></trkpt><trkpt lat="45.6350914" lon="8.5722023"><ele>269.0</ele><time>2026-03-29T15:05:38.999Z</time></trkpt><trkpt lat="45.6349938" lon="8.5723631"><ele>269.5</ele><time>2026-03-29T15:05:39.999Z</time></trkpt><trkpt lat="45.6348695" lon="8.5724853"><ele>270.0</ele><time>2026-03-29T15:05:40.999Z</time></trkpt><trkpt lat="45.6347238" lon="8.5725508"><ele>270.0</ele><time>2026-03-29T15:05:41.999Z</time></trkpt><trkpt lat="45.6345714" lon="8.5725835"><ele>270.0</ele><time>2026-03-29T15:05:42.999Z</time></trkpt><trkpt lat="45.6344255" lon="8.5725992"><ele>270.0</ele><time>2026-03-29T15:05:43.999Z</time></trkpt><trkpt lat="45.6342771" lon="8.5726109"><ele>270.0</ele><time>2026-03-29T15:05:44.999Z</time></trkpt><trkpt lat="45.6341408" lon="8.5726123"><ele>269.75</ele><time>2026-03-29T15:05:45.998Z</time></trkpt><trkpt lat="45.634014" lon="8.5725911"><ele>269.5</ele><time>2026-03-29T15:05:46.999Z</time></trkpt><trkpt lat="45.6338849" lon="8.5725667"><ele>269.25</ele><time>2026-03-29T15:05:47.999Z</time></trkpt><trkpt lat="45.6337536" lon="8.572572"><ele>269.0</ele><time>2026-03-29T15:05:48.998Z</time></trkpt><trkpt lat="45.6336254" lon="8.5726123"><ele>269.0</ele><time>2026-03-29T15:05:49.999Z</time></trkpt><trkpt lat="45.6334957" lon="8.5727147"><ele>269.0</ele><time>2026-03-29T15:05:50.999Z</time></trkpt><trkpt lat="45.63335" lon="8.5728561"><ele>269.0</ele><time>2026-03-29T15:05:51.998Z</time></trkpt><trkpt lat="45.6331811" lon="8.5730064"><ele>269.0</ele><time>2026-03-29T15:05:52.999Z</time></trkpt><trkpt lat="45.632997" lon="8.5731671"><ele>269.0</ele><time>2026-03-29T15:05:53.999Z</time></trkpt><trkpt lat="45.6328027" lon="8.5733246"><ele>269.0</ele><time>2026-03-29T15:05:54.999Z</time></trkpt><trkpt lat="45.6325935" lon="8.5735015"><ele>268.5</ele><time>2026-03-29T15:05:55.999Z</time></trkpt><trkpt lat="45.632371" lon="8.5736876"><ele>268.0</ele><time>2026-03-29T15:05:56.998Z</time></trkpt><trkpt lat="45.632167" lon="8.5738564"><ele>268.0</ele><time>2026-03-29T15:05:57.998Z</time></trkpt><trkpt lat="45.6319954" lon="8.5740115"><ele>268.0</ele><time>2026-03-29T15:05:58.999Z</time></trkpt><trkpt lat="45.6318424" lon="8.5741801"><ele>268.0</ele><time>2026-03-29T15:05:59.999Z</time></trkpt><trkpt lat="45.6317203" lon="8.5743833"><ele>268.0</ele><time>2026-03-29T15:06:00.999Z</time></trkpt><trkpt lat="45.6315992" lon="8.5745732"><ele>268.0</ele><time>2026-03-29T15:06:01.999Z</time></trkpt><trkpt lat="45.631447" lon="8.5747284"><ele>268.0</ele><time>2026-03-29T15:06:02.999Z</time></trkpt><trkpt lat="45.6312567" lon="8.574855"><ele>266.5</ele><time>2026-03-29T15:06:03.998Z</time></trkpt><trkpt lat="45.6310533" lon="8.57498"><ele>265.0</ele><time>2026-03-29T15:06:04.999Z</time></trkpt><trkpt lat="45.630845" lon="8.5751133"><ele>265.0</ele><time>2026-03-29T15:06:05.999Z</time></trkpt><trkpt lat="45.6306517" lon="8.575245"><ele>265.0</ele><time>2026-03-29T15:06:06.998Z</time></trkpt><trkpt lat="45.6304617" lon="8.5753983"><ele>265.0</ele><time>2026-03-29T15:06:07.998Z</time></trkpt><trkpt lat="45.6302867" lon="8.575585"><ele>265.0</ele><time>2026-03-29T15:06:08.998Z</time></trkpt><trkpt lat="45.6301167" lon="8.57575"><ele>265.0</ele><time>2026-03-29T15:06:09.999Z</time></trkpt><trkpt lat="45.6299233" lon="8.5759017"><ele>265.0</ele><time>2026-03-29T15:06:10.998Z</time></trkpt><trkpt lat="45.629715" lon="8.5760317"><ele>265.0</ele><time>2026-03-29T15:06:11.998Z</time></trkpt><trkpt lat="45.62951" lon="8.576155"><ele>265.0</ele><time>2026-03-29T15:06:12.998Z</time></trkpt><trkpt lat="45.6293167" lon="8.5762817"><ele>265.0</ele><time>2026-03-29T15:06:13.998Z</time></trkpt><trkpt lat="45.6291367" lon="8.5764"><ele>264.75</ele><time>2026-03-29T15:06:14.998Z</time></trkpt><trkpt lat="45.6289767" lon="8.57651"><ele>264.5</ele><time>2026-03-29T15:06:15.998Z</time></trkpt><trkpt lat="45.62885" lon="8.5766133"><ele>264.25</ele><time>2026-03-29T15:06:16.999Z</time></trkpt><trkpt lat="45.6287567" lon="8.5767333"><ele>264.0</ele><time>2026-03-29T15:06:17.998Z</time></trkpt><trkpt lat="45.6287117" lon="8.5769117"><ele>265.0</ele><time>2026-03-29T15:06:18.999Z</time></trkpt><trkpt lat="45.6287283" lon="8.5771283"><ele>266.0</ele><time>2026-03-29T15:06:19.998Z</time></trkpt><trkpt lat="45.628765" lon="8.5773767"><ele>267.0</ele><time>2026-03-29T15:06:20.998Z</time></trkpt><trkpt lat="45.62881" lon="8.57767"><ele>270.0</ele><time>2026-03-29T15:06:21.999Z</time></trkpt><trkpt lat="45.6288483" lon="8.577995"><ele>273.0</ele><time>2026-03-29T15:06:22.999Z</time></trkpt><trkpt lat="45.6288833" lon="8.5783267"><ele>273.0</ele><time>2026-03-29T15:06:23.999Z</time></trkpt><trkpt lat="45.6289217" lon="8.5786333"><ele>273.0</ele><time>2026-03-29T15:06:24.998Z</time></trkpt><trkpt lat="45.6289617" lon="8.5789217"><ele>273.0</ele><time>2026-03-29T15:06:25.999Z</time></trkpt><trkpt lat="45.6289933" lon="8.5791783"><ele>273.5</ele><time>2026-03-29T15:06:26.998Z</time></trkpt><trkpt lat="45.6290217" lon="8.5793933"><ele>274.0</ele><time>2026-03-29T15:06:27.999Z</time></trkpt><trkpt lat="45.6290467" lon="8.5795967"><ele>274.5</ele><time>2026-03-29T15:06:28.998Z</time></trkpt><trkpt lat="45.62904" lon="8.5798"><ele>275.0</ele><time>2026-03-29T15:06:29.998Z</time></trkpt><trkpt lat="45.6290133" lon="8.5800083"><ele>275.0</ele><time>2026-03-29T15:06:30.999Z</time></trkpt><trkpt lat="45.6289667" lon="8.580235"><ele>275.0</ele><time>2026-03-29T15:06:31.998Z</time></trkpt><trkpt lat="45.6289067" lon="8.5805067"><ele>275.0</ele><time>2026-03-29T15:06:32.999Z</time></trkpt><trkpt lat="45.628845" lon="8.5808033"><ele>273.5</ele><time>2026-03-29T15:06:33.999Z</time></trkpt><trkpt lat="45.6287867" lon="8.581135"><ele>272.0</ele><time>2026-03-29T15:06:34.998Z</time></trkpt><trkpt lat="45.6287233" lon="8.5814833"><ele>271.5</ele><time>2026-03-29T15:06:35.998Z</time></trkpt><trkpt lat="45.6286567" lon="8.58182"><ele>271.0</ele><time>2026-03-29T15:06:36.999Z</time></trkpt><trkpt lat="45.6286" lon="8.5821367"><ele>270.3333333333333</ele><time>2026-03-29T15:06:37.998Z</time></trkpt><trkpt lat="45.6285383" lon="8.5824233"><ele>269.6666666666667</ele><time>2026-03-29T15:06:38.998Z</time></trkpt><trkpt lat="45.6284867" lon="8.5826817"><ele>269.0</ele><time>2026-03-29T15:06:39.999Z</time></trkpt><trkpt lat="45.6284333" lon="8.5828967"><ele>269.0</ele><time>2026-03-29T15:06:40.999Z</time></trkpt><trkpt lat="45.6283817" lon="8.5830683"><ele>269.0</ele><time>2026-03-29T15:06:41.999Z</time></trkpt><trkpt lat="45.628295" lon="8.58319"><ele>269.0</ele><time>2026-03-29T15:06:42.999Z</time></trkpt><trkpt lat="45.6281767" lon="8.5832717"><ele>269.0</ele><time>2026-03-29T15:06:43.999Z</time></trkpt><trkpt lat="45.628035" lon="8.58334"><ele>269.0</ele><time>2026-03-29T15:06:44.998Z</time></trkpt><trkpt lat="45.6278817" lon="8.5834017"><ele>269.0</ele><time>2026-03-29T15:06:45.999Z</time></trkpt><trkpt lat="45.6277483" lon="8.5834767"><ele>269.0</ele><time>2026-03-29T15:06:46.999Z</time></trkpt><trkpt lat="45.6276433" lon="8.5835767"><ele>269.0</ele><time>2026-03-29T15:06:47.999Z</time></trkpt><trkpt lat="45.6275883" lon="8.5837117"><ele>268.33333333333337</ele><time>2026-03-29T15:06:48.999Z</time></trkpt><trkpt lat="45.62759" lon="8.583905"><ele>267.6666666666667</ele><time>2026-03-29T15:06:49.998Z</time></trkpt><trkpt lat="45.6276133" lon="8.5841083"><ele>267.0</ele><time>2026-03-29T15:06:50.999Z</time></trkpt><trkpt lat="45.6276667" lon="8.5843417"><ele>269.3333333333333</ele><time>2026-03-29T15:06:51.998Z</time></trkpt><trkpt lat="45.6277333" lon="8.5846"><ele>271.66666666666663</ele><time>2026-03-29T15:06:52.998Z</time></trkpt><trkpt lat="45.62781" lon="8.584885"><ele>274.0</ele><time>2026-03-29T15:06:53.999Z</time></trkpt><trkpt lat="45.6279117" lon="8.585225"><ele>277.66666666666663</ele><time>2026-03-29T15:06:54.999Z</time></trkpt><trkpt lat="45.6280033" lon="8.5855283"><ele>281.3333333333333</ele><time>2026-03-29T15:06:55.999Z</time></trkpt><trkpt lat="45.6280833" lon="8.5857917"><ele>285.0</ele><time>2026-03-29T15:06:56.998Z</time></trkpt><trkpt lat="45.6281533" lon="8.5860083"><ele>286.75</ele><time>2026-03-29T15:06:57.999Z</time></trkpt><trkpt lat="45.62818" lon="8.5861983"><ele>288.5</ele><time>2026-03-29T15:06:58.999Z</time></trkpt><trkpt lat="45.62817" lon="8.5863883"><ele>290.25</ele><time>2026-03-29T15:06:59.999Z</time></trkpt><trkpt lat="45.6281367" lon="8.5865767"><ele>292.0</ele><time>2026-03-29T15:07:00.999Z</time></trkpt><trkpt lat="45.62809" lon="8.5867633"><ele>292.0</ele><time>2026-03-29T15:07:01.998Z</time></trkpt><trkpt lat="45.6280233" lon="8.5869317"><ele>292.0</ele><time>2026-03-29T15:07:02.998Z</time></trkpt><trkpt lat="45.627925" lon="8.5870817"><ele>292.0</ele><time>2026-03-29T15:07:03.998Z</time></trkpt><trkpt lat="45.6278233" lon="8.5872033"><ele>292.0</ele><time>2026-03-29T15:07:04.998Z</time></trkpt><trkpt lat="45.6276867" lon="8.5872767"><ele>291.5</ele><time>2026-03-29T15:07:05.999Z</time></trkpt><trkpt lat="45.6275433" lon="8.5872967"><ele>291.0</ele><time>2026-03-29T15:07:06.999Z</time></trkpt><trkpt lat="45.6273867" lon="8.5872867"><ele>290.5</ele><time>2026-03-29T15:07:07.999Z</time></trkpt><trkpt lat="45.6272417" lon="8.5872883"><ele>290.0</ele><time>2026-03-29T15:07:08.999Z</time></trkpt><trkpt lat="45.6271217" lon="8.5873233"><ele>290.0</ele><time>2026-03-29T15:07:09.998Z</time></trkpt><trkpt lat="45.627025" lon="8.5874083"><ele>290.0</ele><time>2026-03-29T15:07:10.999Z</time></trkpt><trkpt lat="45.6269533" lon="8.587555"><ele>290.0</ele><time>2026-03-29T15:07:11.998Z</time></trkpt><trkpt lat="45.6269083" lon="8.5877683"><ele>290.0</ele><time>2026-03-29T15:07:12.998Z</time></trkpt><trkpt lat="45.626875" lon="8.588025"><ele>290.33333333333337</ele><time>2026-03-29T15:07:13.998Z</time></trkpt><trkpt lat="45.6268517" lon="8.5883217"><ele>290.6666666666667</ele><time>2026-03-29T15:07:14.999Z</time></trkpt><trkpt lat="45.6268117" lon="8.58864"><ele>291.0</ele><time>2026-03-29T15:07:15.999Z</time></trkpt><trkpt lat="45.6267533" lon="8.5889717"><ele>291.0</ele><time>2026-03-29T15:07:16.998Z</time></trkpt><trkpt lat="45.6267167" lon="8.5892817"><ele>291.0</ele><time>2026-03-29T15:07:17.999Z</time></trkpt><trkpt lat="45.6266767" lon="8.5895667"><ele>291.0</ele><time>2026-03-29T15:07:18.999Z</time></trkpt><trkpt lat="45.626625" lon="8.5898383"><ele>290.6666666666667</ele><time>2026-03-29T15:07:19.998Z</time></trkpt><trkpt lat="45.62655" lon="8.5901217"><ele>290.33333333333337</ele><time>2026-03-29T15:07:20.998Z</time></trkpt><trkpt lat="45.6264833" lon="8.5903883"><ele>290.0</ele><time>2026-03-29T15:07:21.999Z</time></trkpt><trkpt lat="45.6264033" lon="8.5906417"><ele>288.6666666666667</ele><time>2026-03-29T15:07:22.999Z</time></trkpt><trkpt lat="45.62634" lon="8.5908667"><ele>287.3333333333333</ele><time>2026-03-29T15:07:23.999Z</time></trkpt><trkpt lat="45.6262833" lon="8.5911"><ele>286.0</ele><time>2026-03-29T15:07:24.998Z</time></trkpt><trkpt lat="45.6262633" lon="8.59133"><ele>284.66666666666663</ele><time>2026-03-29T15:07:25.998Z</time></trkpt><trkpt lat="45.6262667" lon="8.5915733"><ele>283.3333333333333</ele><time>2026-03-29T15:07:26.999Z</time></trkpt><trkpt lat="45.626285" lon="8.5918217"><ele>282.0</ele><time>2026-03-29T15:07:27.999Z</time></trkpt><trkpt lat="45.6263167" lon="8.59204"><ele>282.0</ele><time>2026-03-29T15:07:28.999Z</time></trkpt><trkpt lat="45.626315" lon="8.59221"><ele>282.0</ele><time>2026-03-29T15:07:29.999Z</time></trkpt><trkpt lat="45.6262717" lon="8.5923617"><ele>282.0</ele><time>2026-03-29T15:07:30.999Z</time></trkpt><trkpt lat="45.6261667" lon="8.5924683"><ele>282.0</ele><time>2026-03-29T15:07:31.999Z</time></trkpt><trkpt lat="45.6260383" lon="8.5925783"><ele>282.25</ele><time>2026-03-29T15:07:32.998Z</time></trkpt><trkpt lat="45.6259267" lon="8.59273"><ele>282.5</ele><time>2026-03-29T15:07:33.998Z</time></trkpt><trkpt lat="45.6258533" lon="8.5928817"><ele>282.75</ele><time>2026-03-29T15:07:34.999Z</time></trkpt><trkpt lat="45.6258283" lon="8.593075"><ele>283.0</ele><time>2026-03-29T15:07:35.998Z</time></trkpt><trkpt lat="45.62584" lon="8.5933117"><ele>283.0</ele><time>2026-03-29T15:07:36.999Z</time></trkpt><trkpt lat="45.625865" lon="8.59357"><ele>283.0</ele><time>2026-03-29T15:07:37.998Z</time></trkpt><trkpt lat="45.6258767" lon="8.5938483"><ele>283.0</ele><time>2026-03-29T15:07:38.999Z</time></trkpt><trkpt lat="45.625885" lon="8.594085"><ele>283.0</ele><time>2026-03-29T15:07:39.998Z</time></trkpt><trkpt lat="45.625875" lon="8.594305"><ele>283.0</ele><time>2026-03-29T15:07:40.998Z</time></trkpt><trkpt lat="45.6258167" lon="8.5944833"><ele>283.0</ele><time>2026-03-29T15:07:41.999Z</time></trkpt><trkpt lat="45.6257417" lon="8.5946217"><ele>283.0</ele><time>2026-03-29T15:07:42.999Z</time></trkpt><trkpt lat="45.6256367" lon="8.5947117"><ele>283.0</ele><time>2026-03-29T15:07:43.999Z</time></trkpt><trkpt lat="45.6255433" lon="8.5948417"><ele>283.0</ele><time>2026-03-29T15:07:44.998Z</time></trkpt><trkpt lat="45.6255" lon="8.5950367"><ele>283.0</ele><time>2026-03-29T15:07:45.999Z</time></trkpt><trkpt lat="45.6254683" lon="8.59527"><ele>283.0</ele><time>2026-03-29T15:07:46.998Z</time></trkpt><trkpt lat="45.6254383" lon="8.5955333"><ele>282.3333333333333</ele><time>2026-03-29T15:07:47.998Z</time></trkpt><trkpt lat="45.6254067" lon="8.595805"><ele>281.6666666666667</ele><time>2026-03-29T15:07:48.999Z</time></trkpt><trkpt lat="45.6253683" lon="8.5960667"><ele>281.0</ele><time>2026-03-29T15:07:49.999Z</time></trkpt><trkpt lat="45.6253167" lon="8.59634"><ele>279.0</ele><time>2026-03-29T15:07:50.998Z</time></trkpt><trkpt lat="45.6252717" lon="8.596625"><ele>277.0</ele><time>2026-03-29T15:07:51.999Z</time></trkpt><trkpt lat="45.6252233" lon="8.5969167"><ele>275.0</ele><time>2026-03-29T15:07:52.998Z</time></trkpt><trkpt lat="45.625175" lon="8.59721"><ele>271.6666666666667</ele><time>2026-03-29T15:07:53.999Z</time></trkpt><trkpt lat="45.6251317" lon="8.5975017"><ele>268.3333333333333</ele><time>2026-03-29T15:07:54.999Z</time></trkpt><trkpt lat="45.6250867" lon="8.5977783"><ele>265.0</ele><time>2026-03-29T15:07:55.998Z</time></trkpt><trkpt lat="45.6250417" lon="8.598045"><ele>264.0</ele><time>2026-03-29T15:07:56.999Z</time></trkpt><trkpt lat="45.624995" lon="8.5982967"><ele>263.0</ele><time>2026-03-29T15:07:57.998Z</time></trkpt><trkpt lat="45.6249433" lon="8.5985567"><ele>262.0</ele><time>2026-03-29T15:07:58.999Z</time></trkpt><trkpt lat="45.6249017" lon="8.5988117"><ele>261.3333333333333</ele><time>2026-03-29T15:07:59.999Z</time></trkpt><trkpt lat="45.624865" lon="8.5990633"><ele>260.6666666666667</ele><time>2026-03-29T15:08:00.999Z</time></trkpt><trkpt lat="45.62483" lon="8.5993067"><ele>260.0</ele><time>2026-03-29T15:08:01.999Z</time></trkpt><trkpt lat="45.6247983" lon="8.5995317"><ele>259.6666666666667</ele><time>2026-03-29T15:08:02.998Z</time></trkpt><trkpt lat="45.6247683" lon="8.599755"><ele>259.3333333333333</ele><time>2026-03-29T15:08:03.999Z</time></trkpt><trkpt lat="45.62474" lon="8.5999717"><ele>259.0</ele><time>2026-03-29T15:08:04.998Z</time></trkpt><trkpt lat="45.624695" lon="8.600175"><ele>259.3333333333333</ele><time>2026-03-29T15:08:05.999Z</time></trkpt><trkpt lat="45.62461" lon="8.6003667"><ele>259.6666666666667</ele><time>2026-03-29T15:08:06.999Z</time></trkpt><trkpt lat="45.62451" lon="8.6005217"><ele>260.0</ele><time>2026-03-29T15:08:07.999Z</time></trkpt><trkpt lat="45.6243733" lon="8.60064"><ele>259.0</ele><time>2026-03-29T15:08:08.999Z</time></trkpt><trkpt lat="45.6242367" lon="8.6007533"><ele>258.0</ele><time>2026-03-29T15:08:09.999Z</time></trkpt><trkpt lat="45.6241" lon="8.6008533"><ele>257.0</ele><time>2026-03-29T15:08:10.998Z</time></trkpt><trkpt lat="45.623985" lon="8.60095"><ele>256.0</ele><time>2026-03-29T15:08:11.999Z</time></trkpt><trkpt lat="45.6238933" lon="8.6010717"><ele>256.2</ele><time>2026-03-29T15:08:12.999Z</time></trkpt><trkpt lat="45.6238333" lon="8.6011733"><ele>256.40000000000003</ele><time>2026-03-29T15:08:13.998Z</time></trkpt><trkpt lat="45.6237867" lon="8.601355"><ele>256.6</ele><time>2026-03-29T15:08:15.999Z</time></trkpt><trkpt lat="45.6237817" lon="8.6014717"><ele>256.8</ele><time>2026-03-29T15:08:16.999Z</time></trkpt><trkpt lat="45.6237967" lon="8.601625"><ele>257.0</ele><time>2026-03-29T15:08:17.999Z</time></trkpt><trkpt lat="45.623805" lon="8.6017883"><ele>257.0</ele><time>2026-03-29T15:08:18.998Z</time></trkpt><trkpt lat="45.6237817" lon="8.6019267"><ele>257.0</ele><time>2026-03-29T15:08:19.999Z</time></trkpt><trkpt lat="45.6237183" lon="8.60205"><ele>257.0</ele><time>2026-03-29T15:08:20.999Z</time></trkpt><trkpt lat="45.6235883" lon="8.602145"><ele>257.0</ele><time>2026-03-29T15:08:21.999Z</time></trkpt><trkpt lat="45.6234417" lon="8.6022617"><ele>256.0</ele><time>2026-03-29T15:08:22.999Z</time></trkpt><trkpt lat="45.6232833" lon="8.6023917"><ele>255.0</ele><time>2026-03-29T15:08:23.999Z</time></trkpt><trkpt lat="45.6231183" lon="8.6025167"><ele>254.0</ele><time>2026-03-29T15:08:24.997Z</time></trkpt><trkpt lat="45.6229683" lon="8.6026233"><ele>253.33333333333334</ele><time>2026-03-29T15:08:25.998Z</time></trkpt><trkpt lat="45.622795" lon="8.6027333"><ele>252.66666666666669</ele><time>2026-03-29T15:08:26.999Z</time></trkpt><trkpt lat="45.6226467" lon="8.6028367"><ele>252.0</ele><time>2026-03-29T15:08:27.999Z</time></trkpt><trkpt lat="45.6225083" lon="8.60294"><ele>253.66666666666669</ele><time>2026-03-29T15:08:28.999Z</time></trkpt><trkpt lat="45.62237" lon="8.6030367"><ele>255.33333333333334</ele><time>2026-03-29T15:08:29.998Z</time></trkpt><trkpt lat="45.6222333" lon="8.60312"><ele>257.0</ele><time>2026-03-29T15:08:30.998Z</time></trkpt><trkpt lat="45.6220933" lon="8.6031867"><ele>256.5</ele><time>2026-03-29T15:08:31.998Z</time></trkpt><trkpt lat="45.621965" lon="8.6032583"><ele>256.0</ele><time>2026-03-29T15:08:32.998Z</time></trkpt><trkpt lat="45.621845" lon="8.60332"><ele>255.5</ele><time>2026-03-29T15:08:33.998Z</time></trkpt><trkpt lat="45.6217317" lon="8.6033817"><ele>255.0</ele><time>2026-03-29T15:08:34.999Z</time></trkpt><trkpt lat="45.6216233" lon="8.60344"><ele>255.0</ele><time>2026-03-29T15:08:35.999Z</time></trkpt><trkpt lat="45.62152" lon="8.6034917"><ele>255.0</ele><time>2026-03-29T15:08:36.999Z</time></trkpt><trkpt lat="45.6214133" lon="8.603535"><ele>255.0</ele><time>2026-03-29T15:08:37.999Z</time></trkpt><trkpt lat="45.6213067" lon="8.6035783"><ele>255.0</ele><time>2026-03-29T15:08:38.999Z</time></trkpt><trkpt lat="45.6211917" lon="8.6036217"><ele>255.5</ele><time>2026-03-29T15:08:39.999Z</time></trkpt><trkpt lat="45.621075" lon="8.6036667"><ele>256.0</ele><time>2026-03-29T15:08:40.999Z</time></trkpt><trkpt lat="45.6209617" lon="8.60371"><ele>256.5</ele><time>2026-03-29T15:08:41.999Z</time></trkpt><trkpt lat="45.6208417" lon="8.603755"><ele>257.0</ele><time>2026-03-29T15:08:42.998Z</time></trkpt><trkpt lat="45.6207417" lon="8.6037733"><ele>257.0</ele><time>2026-03-29T15:08:43.999Z</time></trkpt><trkpt lat="45.6206183" lon="8.6037833"><ele>257.0</ele><time>2026-03-29T15:08:44.998Z</time></trkpt><trkpt lat="45.6204917" lon="8.6037783"><ele>257.0</ele><time>2026-03-29T15:08:45.999Z</time></trkpt><trkpt lat="45.6203717" lon="8.6037717"><ele>257.0</ele><time>2026-03-29T15:08:46.998Z</time></trkpt><trkpt lat="45.6202667" lon="8.6037967"><ele>256.5</ele><time>2026-03-29T15:08:47.998Z</time></trkpt><trkpt lat="45.6201433" lon="8.6038083"><ele>256.0</ele><time>2026-03-29T15:08:48.999Z</time></trkpt><trkpt lat="45.620035" lon="8.6038517"><ele>255.5</ele><time>2026-03-29T15:08:49.999Z</time></trkpt><trkpt lat="45.6199283" lon="8.60392"><ele>255.0</ele><time>2026-03-29T15:08:50.999Z</time></trkpt><trkpt lat="45.61981" lon="8.6039867"><ele>255.0</ele><time>2026-03-29T15:08:51.998Z</time></trkpt><trkpt lat="45.6196883" lon="8.6040817"><ele>255.0</ele><time>2026-03-29T15:08:52.999Z</time></trkpt><trkpt lat="45.6195817" lon="8.6041633"><ele>255.0</ele><time>2026-03-29T15:08:53.998Z</time></trkpt><trkpt lat="45.6194683" lon="8.60424"><ele>255.0</ele><time>2026-03-29T15:08:54.998Z</time></trkpt><trkpt lat="45.619345" lon="8.604325"><ele>254.5</ele><time>2026-03-29T15:08:55.998Z</time></trkpt><trkpt lat="45.6192367" lon="8.6043933"><ele>254.0</ele><time>2026-03-29T15:08:56.999Z</time></trkpt><trkpt lat="45.61913" lon="8.6044717"><ele>253.5</ele><time>2026-03-29T15:08:57.998Z</time></trkpt><trkpt lat="45.6190283" lon="8.60455"><ele>253.0</ele><time>2026-03-29T15:08:58.998Z</time></trkpt><trkpt lat="45.6189167" lon="8.6046433"><ele>253.0</ele><time>2026-03-29T15:08:59.998Z</time></trkpt><trkpt lat="45.6188117" lon="8.6047"><ele>253.0</ele><time>2026-03-29T15:09:00.999Z</time></trkpt><trkpt lat="45.618695" lon="8.6047533"><ele>253.0</ele><time>2026-03-29T15:09:01.998Z</time></trkpt><trkpt lat="45.6185967" lon="8.6048067"><ele>253.0</ele><time>2026-03-29T15:09:02.999Z</time></trkpt><trkpt lat="45.6184817" lon="8.6048733"><ele>252.8</ele><time>2026-03-29T15:09:03.999Z</time></trkpt><trkpt lat="45.6183583" lon="8.6049083"><ele>252.60000000000002</ele><time>2026-03-29T15:09:04.999Z</time></trkpt><trkpt lat="45.61824" lon="8.6049533"><ele>252.39999999999998</ele><time>2026-03-29T15:09:05.998Z</time></trkpt><trkpt lat="45.618145" lon="8.6049683"><ele>252.2</ele><time>2026-03-29T15:09:06.999Z</time></trkpt><trkpt lat="45.6180717" lon="8.6049917"><ele>252.0</ele><time>2026-03-29T15:09:07.999Z</time></trkpt><trkpt lat="45.6179867" lon="8.6050583"><ele>252.0</ele><time>2026-03-29T15:09:09.999Z</time></trkpt><trkpt lat="45.6180067" lon="8.6052083"><ele>252.0</ele><time>2026-03-29T15:09:11.999Z</time></trkpt><trkpt lat="45.6180617" lon="8.6053567"><ele>252.0</ele><time>2026-03-29T15:09:12.999Z</time></trkpt><trkpt lat="45.6181117" lon="8.6055233"><ele>252.0</ele><time>2026-03-29T15:09:13.999Z</time></trkpt><trkpt lat="45.6181417" lon="8.605685"><ele>251.83333333333334</ele><time>2026-03-29T15:09:14.999Z</time></trkpt><trkpt lat="45.6181833" lon="8.6057833"><ele>251.66666666666669</ele><time>2026-03-29T15:09:15.999Z</time></trkpt><trkpt lat="45.618235" lon="8.60587"><ele>251.5</ele><time>2026-03-29T15:09:17.999Z</time></trkpt><trkpt lat="45.6183" lon="8.6058933"><ele>251.33333333333334</ele><time>2026-03-29T15:09:19.999Z</time></trkpt><trkpt lat="45.618365" lon="8.6058967"><ele>251.16666666666669</ele><time>2026-03-29T15:09:20.999Z</time></trkpt><trkpt lat="45.6184517" lon="8.605895"><ele>251.0</ele><time>2026-03-29T15:09:21.998Z</time></trkpt><trkpt lat="45.61855" lon="8.60588"><ele>251.5</ele><time>2026-03-29T15:09:22.999Z</time></trkpt><trkpt lat="45.61867" lon="8.6058483"><ele>252.0</ele><time>2026-03-29T15:09:23.999Z</time></trkpt><trkpt lat="45.618825" lon="8.6058"><ele>252.5</ele><time>2026-03-29T15:09:24.999Z</time></trkpt><trkpt lat="45.61898" lon="8.605755"><ele>253.0</ele><time>2026-03-29T15:09:25.999Z</time></trkpt><trkpt lat="45.6191317" lon="8.6057183"><ele>253.0</ele><time>2026-03-29T15:09:26.999Z</time></trkpt><trkpt lat="45.61929" lon="8.605695"><ele>253.0</ele><time>2026-03-29T15:09:27.999Z</time></trkpt><trkpt lat="45.61943" lon="8.6056767"><ele>253.0</ele><time>2026-03-29T15:09:28.998Z</time></trkpt><trkpt lat="45.6195767" lon="8.6056633"><ele>253.0</ele><time>2026-03-29T15:09:29.999Z</time></trkpt><trkpt lat="45.6196867" lon="8.6056433"><ele>253.0</ele><time>2026-03-29T15:09:30.999Z</time></trkpt><trkpt lat="45.6197783" lon="8.6056217"><ele>253.0</ele><time>2026-03-29T15:09:31.999Z</time></trkpt><trkpt lat="45.6198483" lon="8.6056017"><ele>253.0</ele><time>2026-03-29T15:09:32.999Z</time></trkpt><trkpt lat="45.6199533" lon="8.6055983"><ele>253.0</ele><time>2026-03-29T15:09:34.998Z</time></trkpt><trkpt lat="45.6200517" lon="8.6056533"><ele>253.0</ele><time>2026-03-29T15:09:44.998Z</time></trkpt><trkpt lat="45.620025" lon="8.6057983"><ele>252.99999999999997</ele><time>2026-03-29T15:09:46.999Z</time></trkpt><trkpt lat="45.6200033" lon="8.60589"><ele>253.0</ele><time>2026-03-29T15:09:47.998Z</time></trkpt><trkpt lat="45.6199583" lon="8.6059867"><ele>253.0</ele><time>2026-03-29T15:09:48.999Z</time></trkpt><trkpt lat="45.61992" lon="8.6061017"><ele>253.0</ele><time>2026-03-29T15:09:49.998Z</time></trkpt><trkpt lat="45.6198783" lon="8.606235"><ele>252.99999999999997</ele><time>2026-03-29T15:09:50.998Z</time></trkpt><trkpt lat="45.619825" lon="8.6063567"><ele>253.0</ele><time>2026-03-29T15:09:51.999Z</time></trkpt><trkpt lat="45.61978" lon="8.60646"><ele>252.60000000000002</ele><time>2026-03-29T15:09:52.999Z</time></trkpt><trkpt lat="45.6197833" lon="8.6066017"><ele>252.20000000000002</ele><time>2026-03-29T15:09:53.998Z</time></trkpt><trkpt lat="45.6197483" lon="8.6067617"><ele>251.8</ele><time>2026-03-29T15:09:55.998Z</time></trkpt><trkpt lat="45.6197133" lon="8.6068417"><ele>251.4</ele><time>2026-03-29T15:09:56.998Z</time></trkpt><trkpt lat="45.6196967" lon="8.6069967"><ele>251.0</ele><time>2026-03-29T15:09:58.998Z</time></trkpt><trkpt lat="45.619645" lon="8.60713"><ele>250.33333333333334</ele><time>2026-03-29T15:10:00.999Z</time></trkpt><trkpt lat="45.61955" lon="8.607185"><ele>249.66666666666669</ele><time>2026-03-29T15:10:02.999Z</time></trkpt><trkpt lat="45.619475" lon="8.6071833"><ele>249.0</ele><time>2026-03-29T15:10:03.999Z</time></trkpt><trkpt lat="45.6193867" lon="8.6071967"><ele>248.33333333333331</ele><time>2026-03-29T15:10:04.998Z</time></trkpt><trkpt lat="45.6192983" lon="8.607215"><ele>247.66666666666666</ele><time>2026-03-29T15:10:05.999Z</time></trkpt><trkpt lat="45.6192117" lon="8.6072667"><ele>247.0</ele><time>2026-03-29T15:10:06.999Z</time></trkpt><trkpt lat="45.61913" lon="8.6072983"><ele>246.99999999999997</ele><time>2026-03-29T15:10:07.999Z</time></trkpt><trkpt lat="45.6190667" lon="8.6073433"><ele>247.0</ele><time>2026-03-29T15:10:08.998Z</time></trkpt><trkpt lat="45.619" lon="8.60739"><ele>247.0</ele><time>2026-03-29T15:10:09.999Z</time></trkpt><trkpt lat="45.6189367" lon="8.6074383"><ele>247.0</ele><time>2026-03-29T15:10:10.998Z</time></trkpt><trkpt lat="45.6188467" lon="8.607465"><ele>246.99999999999997</ele><time>2026-03-29T15:10:11.999Z</time></trkpt><trkpt lat="45.6187533" lon="8.6075017"><ele>247.0</ele><time>2026-03-29T15:10:12.999Z</time></trkpt><trkpt lat="45.6186483" lon="8.60753"><ele>247.39999999999998</ele><time>2026-03-29T15:10:13.999Z</time></trkpt><trkpt lat="45.6185267" lon="8.6075133"><ele>247.79999999999998</ele><time>2026-03-29T15:10:14.998Z</time></trkpt><trkpt lat="45.618425" lon="8.607515"><ele>248.2</ele><time>2026-03-29T15:10:15.998Z</time></trkpt><trkpt lat="45.6183233" lon="8.6075117"><ele>248.6</ele><time>2026-03-29T15:10:16.998Z</time></trkpt><trkpt lat="45.6182183" lon="8.607505"><ele>249.0</ele><time>2026-03-29T15:10:17.999Z</time></trkpt><trkpt lat="45.61811" lon="8.607505"><ele>249.0</ele><time>2026-03-29T15:10:18.999Z</time></trkpt><trkpt lat="45.618015" lon="8.6075067"><ele>248.99999999999997</ele><time>2026-03-29T15:10:19.999Z</time></trkpt><trkpt lat="45.6179" lon="8.6075033"><ele>248.99999999999997</ele><time>2026-03-29T15:10:20.999Z</time></trkpt><trkpt lat="45.61779" lon="8.60748"><ele>249.0</ele><time>2026-03-29T15:10:21.999Z</time></trkpt><trkpt lat="45.617705" lon="8.6074567"><ele>249.0</ele><time>2026-03-29T15:10:22.998Z</time></trkpt><trkpt lat="45.6176417" lon="8.6074233"><ele>248.6</ele><time>2026-03-29T15:10:23.999Z</time></trkpt><trkpt lat="45.617545" lon="8.607515"><ele>248.2</ele><time>2026-03-29T15:10:30.998Z</time></trkpt><trkpt lat="45.617535" lon="8.6076267"><ele>247.79999999999998</ele><time>2026-03-29T15:10:31.999Z</time></trkpt><trkpt lat="45.61752" lon="8.6077683"><ele>247.39999999999998</ele><time>2026-03-29T15:10:32.998Z</time></trkpt><trkpt lat="45.6175033" lon="8.6079317"><ele>247.0</ele><time>2026-03-29T15:10:33.999Z</time></trkpt><trkpt lat="45.6174933" lon="8.6081133"><ele>246.0</ele><time>2026-03-29T15:10:34.999Z</time></trkpt><trkpt lat="45.6174767" lon="8.60832"><ele>245.0</ele><time>2026-03-29T15:10:35.998Z</time></trkpt><trkpt lat="45.6174667" lon="8.60854"><ele>244.0</ele><time>2026-03-29T15:10:36.999Z</time></trkpt><trkpt lat="45.6174617" lon="8.60876"><ele>243.33333333333331</ele><time>2026-03-29T15:10:37.999Z</time></trkpt><trkpt lat="45.61747" lon="8.6089917"><ele>242.66666666666669</ele><time>2026-03-29T15:10:38.998Z</time></trkpt><trkpt lat="45.617485" lon="8.6092117"><ele>242.0</ele><time>2026-03-29T15:10:39.998Z</time></trkpt><trkpt lat="45.6175133" lon="8.6094333"><ele>241.66666666666669</ele><time>2026-03-29T15:10:40.997Z</time></trkpt><trkpt lat="45.6175433" lon="8.6096467"><ele>241.33333333333331</ele><time>2026-03-29T15:10:41.998Z</time></trkpt><trkpt lat="45.61758" lon="8.6098567"><ele>241.0</ele><time>2026-03-29T15:10:42.998Z</time></trkpt><trkpt lat="45.6176117" lon="8.6100617"><ele>241.0</ele><time>2026-03-29T15:10:43.997Z</time></trkpt><trkpt lat="45.617635" lon="8.6102583"><ele>241.0</ele><time>2026-03-29T15:10:44.998Z</time></trkpt><trkpt lat="45.61766" lon="8.61043"><ele>241.0</ele><time>2026-03-29T15:10:45.998Z</time></trkpt><trkpt lat="45.6176633" lon="8.6105883"><ele>241.0</ele><time>2026-03-29T15:10:46.997Z</time></trkpt><trkpt lat="45.6176467" lon="8.610725"><ele>241.20000000000002</ele><time>2026-03-29T15:10:47.998Z</time></trkpt><trkpt lat="45.6175883" lon="8.61082"><ele>241.40000000000003</ele><time>2026-03-29T15:10:48.998Z</time></trkpt><trkpt lat="45.6175517" lon="8.6109133"><ele>241.6</ele><time>2026-03-29T15:10:49.998Z</time></trkpt><trkpt lat="45.6175783" lon="8.6110467"><ele>241.8</ele><time>2026-03-29T15:10:51.997Z</time></trkpt><trkpt lat="45.617695" lon="8.610985"><ele>242.0</ele><time>2026-03-29T15:10:53.998Z</time></trkpt><trkpt lat="45.6177767" lon="8.6108967"><ele>242.5</ele><time>2026-03-29T15:10:54.998Z</time></trkpt><trkpt lat="45.6178733" lon="8.6107983"><ele>243.0</ele><time>2026-03-29T15:10:55.998Z</time></trkpt><trkpt lat="45.61799" lon="8.6107083"><ele>243.5</ele><time>2026-03-29T15:10:56.998Z</time></trkpt><trkpt lat="45.61812" lon="8.6106433"><ele>244.0</ele><time>2026-03-29T15:10:57.998Z</time></trkpt><trkpt lat="45.618275" lon="8.6105783"><ele>244.0</ele><time>2026-03-29T15:10:58.997Z</time></trkpt><trkpt lat="45.61845" lon="8.6105067"><ele>244.0</ele><time>2026-03-29T15:10:59.998Z</time></trkpt><trkpt lat="45.61864" lon="8.61042"><ele>244.0</ele><time>2026-03-29T15:11:00.998Z</time></trkpt><trkpt lat="45.6188333" lon="8.61033"><ele>243.66666666666666</ele><time>2026-03-29T15:11:01.998Z</time></trkpt><trkpt lat="45.6190467" lon="8.6102317"><ele>243.33333333333331</ele><time>2026-03-29T15:11:02.998Z</time></trkpt><trkpt lat="45.619225" lon="8.610135"><ele>243.0</ele><time>2026-03-29T15:11:03.997Z</time></trkpt><trkpt lat="45.6193917" lon="8.6100417"><ele>243.33333333333331</ele><time>2026-03-29T15:11:04.998Z</time></trkpt><trkpt lat="45.61955" lon="8.6099267"><ele>243.66666666666666</ele><time>2026-03-29T15:11:05.998Z</time></trkpt><trkpt lat="45.619695" lon="8.6097733"><ele>244.0</ele><time>2026-03-29T15:11:06.998Z</time></trkpt><trkpt lat="45.6198317" lon="8.609595"><ele>243.66666666666666</ele><time>2026-03-29T15:11:07.998Z</time></trkpt><trkpt lat="45.61996" lon="8.6094117"><ele>243.33333333333331</ele><time>2026-03-29T15:11:08.998Z</time></trkpt><trkpt lat="45.620085" lon="8.6092417"><ele>243.0</ele><time>2026-03-29T15:11:09.998Z</time></trkpt><trkpt lat="45.6201933" lon="8.6090967"><ele>243.0</ele><time>2026-03-29T15:11:10.997Z</time></trkpt><trkpt lat="45.620285" lon="8.6089817"><ele>243.0</ele><time>2026-03-29T15:11:11.997Z</time></trkpt><trkpt lat="45.6203483" lon="8.6088817"><ele>243.0</ele><time>2026-03-29T15:11:12.998Z</time></trkpt><trkpt lat="45.6204167" lon="8.6087917"><ele>243.0</ele><time>2026-03-29T15:11:13.998Z</time></trkpt><trkpt lat="45.6204833" lon="8.608725"><ele>243.0</ele><time>2026-03-29T15:11:14.997Z</time></trkpt><trkpt lat="45.6205583" lon="8.6086883"><ele>243.2</ele><time>2026-03-29T15:11:15.998Z</time></trkpt><trkpt lat="45.62065" lon="8.6086883"><ele>243.4</ele><time>2026-03-29T15:11:16.998Z</time></trkpt><trkpt lat="45.6207367" lon="8.60872"><ele>243.59999999999997</ele><time>2026-03-29T15:11:17.998Z</time></trkpt><trkpt lat="45.6208533" lon="8.608785"><ele>243.79999999999998</ele><time>2026-03-29T15:11:18.998Z</time></trkpt><trkpt lat="45.620955" lon="8.60889"><ele>244.0</ele><time>2026-03-29T15:11:19.998Z</time></trkpt><trkpt lat="45.62107" lon="8.6091367"><ele>244.0</ele><time>2026-03-29T15:11:20.998Z</time></trkpt><trkpt lat="45.62119" lon="8.6093767"><ele>244.0</ele><time>2026-03-29T15:11:21.998Z</time></trkpt><trkpt lat="45.6213233" lon="8.6095967"><ele>244.0</ele><time>2026-03-29T15:11:22.998Z</time></trkpt><trkpt lat="45.6214617" lon="8.609775"><ele>244.33333333333331</ele><time>2026-03-29T15:11:23.998Z</time></trkpt><trkpt lat="45.6216083" lon="8.609935"><ele>244.66666666666669</ele><time>2026-03-29T15:11:24.998Z</time></trkpt><trkpt lat="45.62174" lon="8.6100633"><ele>245.0</ele><time>2026-03-29T15:11:25.998Z</time></trkpt><trkpt lat="45.6218767" lon="8.6102033"><ele>245.0</ele><time>2026-03-29T15:11:26.998Z</time></trkpt><trkpt lat="45.6220133" lon="8.6103367"><ele>245.0</ele><time>2026-03-29T15:11:27.998Z</time></trkpt><trkpt lat="45.6221483" lon="8.6104783"><ele>245.0</ele><time>2026-03-29T15:11:28.997Z</time></trkpt><trkpt lat="45.6222717" lon="8.6106317"><ele>245.0</ele><time>2026-03-29T15:11:29.997Z</time></trkpt><trkpt lat="45.62237" lon="8.6108533"><ele>245.0</ele><time>2026-03-29T15:11:30.997Z</time></trkpt><trkpt lat="45.622435" lon="8.6110983"><ele>245.0</ele><time>2026-03-29T15:11:31.998Z</time></trkpt><trkpt lat="45.6225067" lon="8.6113533"><ele>245.0</ele><time>2026-03-29T15:11:32.998Z</time></trkpt><trkpt lat="45.6225717" lon="8.61161"><ele>245.0</ele><time>2026-03-29T15:11:33.997Z</time></trkpt><trkpt lat="45.6226233" lon="8.6118967"><ele>245.0</ele><time>2026-03-29T15:11:34.998Z</time></trkpt><trkpt lat="45.6226817" lon="8.6121933"><ele>245.33333333333334</ele><time>2026-03-29T15:11:35.997Z</time></trkpt><trkpt lat="45.6227433" lon="8.61249"><ele>245.66666666666669</ele><time>2026-03-29T15:11:36.998Z</time></trkpt><trkpt lat="45.6228067" lon="8.61278"><ele>246.0</ele><time>2026-03-29T15:11:37.997Z</time></trkpt><trkpt lat="45.6228633" lon="8.6130867"><ele>246.33333333333331</ele><time>2026-03-29T15:11:38.997Z</time></trkpt><trkpt lat="45.6229083" lon="8.6133683"><ele>246.66666666666666</ele><time>2026-03-29T15:11:39.998Z</time></trkpt><trkpt lat="45.6229483" lon="8.6136417"><ele>247.0</ele><time>2026-03-29T15:11:40.998Z</time></trkpt><trkpt lat="45.6229867" lon="8.6138867"><ele>247.0</ele><time>2026-03-29T15:11:41.998Z</time></trkpt><trkpt lat="45.6230017" lon="8.614145"><ele>247.0</ele><time>2026-03-29T15:11:42.998Z</time></trkpt><trkpt lat="45.62302" lon="8.6144167"><ele>247.0</ele><time>2026-03-29T15:11:43.998Z</time></trkpt><trkpt lat="45.6230433" lon="8.6147067"><ele>246.66666666666666</ele><time>2026-03-29T15:11:44.998Z</time></trkpt><trkpt lat="45.62306" lon="8.6149733"><ele>246.33333333333331</ele><time>2026-03-29T15:11:45.998Z</time></trkpt><trkpt lat="45.62309" lon="8.615235"><ele>246.0</ele><time>2026-03-29T15:11:46.998Z</time></trkpt><trkpt lat="45.62312" lon="8.6154383"><ele>246.0</ele><time>2026-03-29T15:11:47.997Z</time></trkpt><trkpt lat="45.623185" lon="8.615585"><ele>246.0</ele><time>2026-03-29T15:11:48.998Z</time></trkpt><trkpt lat="45.6233033" lon="8.61567"><ele>246.0</ele><time>2026-03-29T15:11:49.998Z</time></trkpt><trkpt lat="45.6234533" lon="8.6156917"><ele>246.0</ele><time>2026-03-29T15:11:50.998Z</time></trkpt><trkpt lat="45.62362" lon="8.61568"><ele>247.0</ele><time>2026-03-29T15:11:51.997Z</time></trkpt><trkpt lat="45.62379" lon="8.6156817"><ele>248.0</ele><time>2026-03-29T15:11:52.998Z</time></trkpt><trkpt lat="45.623955" lon="8.6157083"><ele>249.0</ele><time>2026-03-29T15:11:53.998Z</time></trkpt><trkpt lat="45.6241" lon="8.61571"><ele>249.0</ele><time>2026-03-29T15:11:54.998Z</time></trkpt><trkpt lat="45.62421" lon="8.6157167"><ele>249.0</ele><time>2026-03-29T15:11:55.998Z</time></trkpt><trkpt lat="45.6243233" lon="8.6157583"><ele>249.0</ele><time>2026-03-29T15:11:56.998Z</time></trkpt><trkpt lat="45.62443" lon="8.61583"><ele>249.0</ele><time>2026-03-29T15:11:57.997Z</time></trkpt><trkpt lat="45.6245117" lon="8.615945"><ele>249.25</ele><time>2026-03-29T15:11:58.998Z</time></trkpt><trkpt lat="45.6245733" lon="8.6160917"><ele>249.5</ele><time>2026-03-29T15:11:59.998Z</time></trkpt><trkpt lat="45.6246183" lon="8.6162917"><ele>249.75</ele><time>2026-03-29T15:12:00.997Z</time></trkpt><trkpt lat="45.624655" lon="8.61651"><ele>250.0</ele><time>2026-03-29T15:12:01.997Z</time></trkpt><trkpt lat="45.6247" lon="8.6167333"><ele>250.0</ele><time>2026-03-29T15:12:02.997Z</time></trkpt><trkpt lat="45.6247467" lon="8.616985"><ele>250.0</ele><time>2026-03-29T15:12:03.998Z</time></trkpt><trkpt lat="45.6248033" lon="8.6172567"><ele>250.0</ele><time>2026-03-29T15:12:04.998Z</time></trkpt><trkpt lat="45.6248733" lon="8.6175267"><ele>249.66666666666666</ele><time>2026-03-29T15:12:05.997Z</time></trkpt><trkpt lat="45.6249283" lon="8.617805"><ele>249.33333333333331</ele><time>2026-03-29T15:12:06.998Z</time></trkpt><trkpt lat="45.6250067" lon="8.6180867"><ele>249.0</ele><time>2026-03-29T15:12:07.998Z</time></trkpt><trkpt lat="45.625085" lon="8.6183867"><ele>248.0</ele><time>2026-03-29T15:12:08.998Z</time></trkpt><trkpt lat="45.6251533" lon="8.6186967"><ele>247.0</ele><time>2026-03-29T15:12:09.997Z</time></trkpt><trkpt lat="45.6252217" lon="8.6190033"><ele>247.0</ele><time>2026-03-29T15:12:10.998Z</time></trkpt><trkpt lat="45.6252833" lon="8.619315"><ele>247.0</ele><time>2026-03-29T15:12:11.998Z</time></trkpt><trkpt lat="45.6253567" lon="8.61962"><ele>247.33333333333331</ele><time>2026-03-29T15:12:12.997Z</time></trkpt><trkpt lat="45.6254183" lon="8.619905"><ele>247.66666666666669</ele><time>2026-03-29T15:12:13.998Z</time></trkpt><trkpt lat="45.6254817" lon="8.6201933"><ele>248.0</ele><time>2026-03-29T15:12:14.997Z</time></trkpt><trkpt lat="45.625555" lon="8.620485"><ele>248.66666666666669</ele><time>2026-03-29T15:12:15.998Z</time></trkpt><trkpt lat="45.6256183" lon="8.6207833"><ele>249.33333333333331</ele><time>2026-03-29T15:12:16.998Z</time></trkpt><trkpt lat="45.625675" lon="8.6210767"><ele>250.0</ele><time>2026-03-29T15:12:17.998Z</time></trkpt><trkpt lat="45.62573" lon="8.621355"><ele>250.0</ele><time>2026-03-29T15:12:18.998Z</time></trkpt><trkpt lat="45.6257867" lon="8.6216483"><ele>250.0</ele><time>2026-03-29T15:12:19.997Z</time></trkpt><trkpt lat="45.6258467" lon="8.621925"><ele>250.0</ele><time>2026-03-29T15:12:20.997Z</time></trkpt><trkpt lat="45.6259033" lon="8.622205"><ele>250.0</ele><time>2026-03-29T15:12:21.998Z</time></trkpt><trkpt lat="45.6259717" lon="8.622475"><ele>250.0</ele><time>2026-03-29T15:12:22.998Z</time></trkpt><trkpt lat="45.6260267" lon="8.622745"><ele>250.0</ele><time>2026-03-29T15:12:23.998Z</time></trkpt><trkpt lat="45.626095" lon="8.6230133"><ele>250.0</ele><time>2026-03-29T15:12:24.998Z</time></trkpt><trkpt lat="45.6261383" lon="8.623285"><ele>250.0</ele><time>2026-03-29T15:12:25.998Z</time></trkpt><trkpt lat="45.6262017" lon="8.6235683"><ele>250.0</ele><time>2026-03-29T15:12:26.998Z</time></trkpt><trkpt lat="45.62625" lon="8.623845"><ele>250.33333333333331</ele><time>2026-03-29T15:12:27.998Z</time></trkpt><trkpt lat="45.6263217" lon="8.62408"><ele>250.66666666666669</ele><time>2026-03-29T15:12:28.998Z</time></trkpt><trkpt lat="45.6263833" lon="8.6243067"><ele>251.0</ele><time>2026-03-29T15:12:29.997Z</time></trkpt><trkpt lat="45.626435" lon="8.624535"><ele>251.0</ele><time>2026-03-29T15:12:30.998Z</time></trkpt><trkpt lat="45.6264717" lon="8.6247583"><ele>251.0</ele><time>2026-03-29T15:12:31.998Z</time></trkpt><trkpt lat="45.6265167" lon="8.62495"><ele>251.0</ele><time>2026-03-29T15:12:32.997Z</time></trkpt><trkpt lat="45.62656" lon="8.6251217"><ele>251.0</ele><time>2026-03-29T15:12:33.998Z</time></trkpt><trkpt lat="45.6265933" lon="8.6252867"><ele>251.25</ele><time>2026-03-29T15:12:34.997Z</time></trkpt><trkpt lat="45.6266533" lon="8.6254133"><ele>251.5</ele><time>2026-03-29T15:12:35.998Z</time></trkpt><trkpt lat="45.6267367" lon="8.6255183"><ele>251.75</ele><time>2026-03-29T15:12:36.997Z</time></trkpt><trkpt lat="45.6268517" lon="8.6256133"><ele>252.0</ele><time>2026-03-29T15:12:37.998Z</time></trkpt><trkpt lat="45.6269583" lon="8.6257233"><ele>252.0</ele><time>2026-03-29T15:12:38.998Z</time></trkpt><trkpt lat="45.6270433" lon="8.62584"><ele>252.0</ele><time>2026-03-29T15:12:39.998Z</time></trkpt><trkpt lat="45.6271" lon="8.625985"><ele>252.0</ele><time>2026-03-29T15:12:40.998Z</time></trkpt><trkpt lat="45.627135" lon="8.6261567"><ele>252.0</ele><time>2026-03-29T15:12:41.998Z</time></trkpt><trkpt lat="45.6271617" lon="8.6263333"><ele>252.2</ele><time>2026-03-29T15:12:42.998Z</time></trkpt><trkpt lat="45.6271833" lon="8.62652"><ele>252.39999999999998</ele><time>2026-03-29T15:12:43.997Z</time></trkpt><trkpt lat="45.6272083" lon="8.6266983"><ele>252.60000000000002</ele><time>2026-03-29T15:12:44.997Z</time></trkpt><trkpt lat="45.627235" lon="8.626845"><ele>252.8</ele><time>2026-03-29T15:12:45.998Z</time></trkpt><trkpt lat="45.6272617" lon="8.626955"><ele>253.0</ele><time>2026-03-29T15:12:46.998Z</time></trkpt><trkpt lat="45.62729" lon="8.627045"><ele>253.0</ele><time>2026-03-29T15:12:47.998Z</time></trkpt><trkpt lat="45.6273683" lon="8.6271717"><ele>253.0</ele><time>2026-03-29T15:12:49.997Z</time></trkpt><trkpt lat="45.627465" lon="8.627275"><ele>253.0</ele><time>2026-03-29T15:12:51.998Z</time></trkpt><trkpt lat="45.6275133" lon="8.6273517"><ele>253.0</ele><time>2026-03-29T15:12:52.997Z</time></trkpt><trkpt lat="45.6275567" lon="8.627435"><ele>253.0</ele><time>2026-03-29T15:12:53.998Z</time></trkpt><trkpt lat="45.6275867" lon="8.6275567"><ele>253.0</ele><time>2026-03-29T15:12:54.998Z</time></trkpt><trkpt lat="45.6276" lon="8.6277167"><ele>253.0</ele><time>2026-03-29T15:12:55.997Z</time></trkpt><trkpt lat="45.6276" lon="8.6278967"><ele>253.0</ele><time>2026-03-29T15:12:56.998Z</time></trkpt><trkpt lat="45.6276167" lon="8.62808"><ele>253.0</ele><time>2026-03-29T15:12:57.998Z</time></trkpt><trkpt lat="45.6276283" lon="8.6282617"><ele>253.25</ele><time>2026-03-29T15:12:58.998Z</time></trkpt><trkpt lat="45.6276233" lon="8.62844"><ele>253.5</ele><time>2026-03-29T15:12:59.997Z</time></trkpt><trkpt lat="45.62762" lon="8.6286183"><ele>253.75</ele><time>2026-03-29T15:13:00.998Z</time></trkpt><trkpt lat="45.6276133" lon="8.62878"><ele>254.0</ele><time>2026-03-29T15:13:01.998Z</time></trkpt><trkpt lat="45.6276333" lon="8.6289383"><ele>254.39999999999998</ele><time>2026-03-29T15:13:02.998Z</time></trkpt><trkpt lat="45.6276667" lon="8.62909"><ele>254.79999999999998</ele><time>2026-03-29T15:13:03.997Z</time></trkpt><trkpt lat="45.6277233" lon="8.62921"><ele>255.20000000000002</ele><time>2026-03-29T15:13:04.997Z</time></trkpt><trkpt lat="45.6278" lon="8.6292817"><ele>255.60000000000002</ele><time>2026-03-29T15:13:05.998Z</time></trkpt><trkpt lat="45.627885" lon="8.629295"><ele>256.0</ele><time>2026-03-29T15:13:06.998Z</time></trkpt><trkpt lat="45.627975" lon="8.629295"><ele>256.2</ele><time>2026-03-29T15:13:07.998Z</time></trkpt><trkpt lat="45.6280583" lon="8.6293167"><ele>256.40000000000003</ele><time>2026-03-29T15:13:08.998Z</time></trkpt><trkpt lat="45.6281367" lon="8.6293617"><ele>256.6</ele><time>2026-03-29T15:13:09.997Z</time></trkpt><trkpt lat="45.6282" lon="8.6294333"><ele>256.8</ele><time>2026-03-29T15:13:10.997Z</time></trkpt><trkpt lat="45.62826" lon="8.629485"><ele>257.0</ele><time>2026-03-29T15:13:11.998Z</time></trkpt><trkpt lat="45.6283917" lon="8.6294467"><ele>257.0</ele><time>2026-03-29T15:13:13.998Z</time></trkpt><trkpt lat="45.62847" lon="8.6293983"><ele>257.0</ele><time>2026-03-29T15:13:14.997Z</time></trkpt><trkpt lat="45.6285617" lon="8.62935"><ele>257.0</ele><time>2026-03-29T15:13:15.998Z</time></trkpt><trkpt lat="45.6286617" lon="8.6292967"><ele>257.0</ele><time>2026-03-29T15:13:16.998Z</time></trkpt><trkpt lat="45.628765" lon="8.629245"><ele>257.0</ele><time>2026-03-29T15:13:17.997Z</time></trkpt><trkpt lat="45.628875" lon="8.6291967"><ele>257.25</ele><time>2026-03-29T15:13:18.997Z</time></trkpt><trkpt lat="45.6289783" lon="8.6291367"><ele>257.5</ele><time>2026-03-29T15:13:19.998Z</time></trkpt><trkpt lat="45.6290917" lon="8.6290883"><ele>257.75</ele><time>2026-03-29T15:13:20.997Z</time></trkpt><trkpt lat="45.6292067" lon="8.629045"><ele>258.0</ele><time>2026-03-29T15:13:21.998Z</time></trkpt><trkpt lat="45.62932" lon="8.6289867"><ele>258.0</ele><time>2026-03-29T15:13:22.998Z</time></trkpt><trkpt lat="45.62944" lon="8.62893"><ele>258.0</ele><time>2026-03-29T15:13:23.998Z</time></trkpt><trkpt lat="45.62956" lon="8.62887"><ele>258.0</ele><time>2026-03-29T15:13:24.998Z</time></trkpt><trkpt lat="45.6296833" lon="8.628805"><ele>258.0</ele><time>2026-03-29T15:13:25.998Z</time></trkpt><trkpt lat="45.6298017" lon="8.62874"><ele>257.5</ele><time>2026-03-29T15:13:26.997Z</time></trkpt><trkpt lat="45.629925" lon="8.6286933"><ele>257.0</ele><time>2026-03-29T15:13:27.998Z</time></trkpt><trkpt lat="45.6300533" lon="8.6286467"><ele>256.5</ele><time>2026-03-29T15:13:28.998Z</time></trkpt><trkpt lat="45.6301867" lon="8.6285983"><ele>256.0</ele><time>2026-03-29T15:13:29.998Z</time></trkpt><trkpt lat="45.6303283" lon="8.6285367"><ele>255.8</ele><time>2026-03-29T15:13:30.998Z</time></trkpt><trkpt lat="45.6304433" lon="8.62848"><ele>255.60000000000002</ele><time>2026-03-29T15:13:31.998Z</time></trkpt><trkpt lat="45.63055" lon="8.6284217"><ele>255.4</ele><time>2026-03-29T15:13:32.997Z</time></trkpt><trkpt lat="45.63064" lon="8.628385"><ele>255.2</ele><time>2026-03-29T15:13:33.998Z</time></trkpt><trkpt lat="45.6307483" lon="8.6283117"><ele>255.0</ele><time>2026-03-29T15:13:35.998Z</time></trkpt><trkpt lat="45.630755" lon="8.628205"><ele>255.0</ele><time>2026-03-29T15:13:36.998Z</time></trkpt><trkpt lat="45.6307483" lon="8.6280617"><ele>255.0</ele><time>2026-03-29T15:13:37.997Z</time></trkpt><trkpt lat="45.6307317" lon="8.6279067"><ele>255.0</ele><time>2026-03-29T15:13:38.998Z</time></trkpt><trkpt lat="45.6306933" lon="8.627725"><ele>255.0</ele><time>2026-03-29T15:13:39.998Z</time></trkpt><trkpt lat="45.6306417" lon="8.62754"><ele>255.0</ele><time>2026-03-29T15:13:40.998Z</time></trkpt><trkpt lat="45.6306067" lon="8.6273467"><ele>255.0</ele><time>2026-03-29T15:13:41.998Z</time></trkpt><trkpt lat="45.6305333" lon="8.6271517"><ele>255.0</ele><time>2026-03-29T15:13:42.998Z</time></trkpt><trkpt lat="45.6304467" lon="8.6269467"><ele>255.0</ele><time>2026-03-29T15:13:43.997Z</time></trkpt><trkpt lat="45.6303717" lon="8.626745"><ele>255.0</ele><time>2026-03-29T15:13:44.998Z</time></trkpt><trkpt lat="45.6303083" lon="8.6265467"><ele>255.0</ele><time>2026-03-29T15:13:45.998Z</time></trkpt><trkpt lat="45.6302433" lon="8.6263717"><ele>255.0</ele><time>2026-03-29T15:13:46.997Z</time></trkpt><trkpt lat="45.6301867" lon="8.6262367"><ele>255.0</ele><time>2026-03-29T15:13:47.998Z</time></trkpt><trkpt lat="45.6301467" lon="8.6261217"><ele>255.0</ele><time>2026-03-29T15:13:48.998Z</time></trkpt><trkpt lat="45.6301183" lon="8.62604"><ele>255.0</ele><time>2026-03-29T15:13:49.998Z</time></trkpt><trkpt lat="45.6300783" lon="8.6259417"><ele>255.0</ele><time>2026-03-29T15:13:51.998Z</time></trkpt><trkpt lat="45.6299867" lon="8.6259267"><ele>255.0</ele><time>2026-03-29T15:14:27.998Z</time></trkpt><trkpt lat="45.6299083" lon="8.6259217"><ele>255.0</ele><time>2026-03-29T15:14:28.997Z</time></trkpt><trkpt lat="45.629815" lon="8.6259067"><ele>255.0</ele><time>2026-03-29T15:14:29.998Z</time></trkpt><trkpt lat="45.6297133" lon="8.6258833"><ele>255.0</ele><time>2026-03-29T15:14:30.998Z</time></trkpt><trkpt lat="45.62959" lon="8.62591"><ele>255.0</ele><time>2026-03-29T15:14:31.997Z</time></trkpt><trkpt lat="45.629465" lon="8.62594"><ele>255.0</ele><time>2026-03-29T15:14:32.998Z</time></trkpt><trkpt lat="45.6293433" lon="8.6259733"><ele>254.75</ele><time>2026-03-29T15:14:33.998Z</time></trkpt><trkpt lat="45.6292283" lon="8.6260017"><ele>254.5</ele><time>2026-03-29T15:14:34.998Z</time></trkpt><trkpt lat="45.629105" lon="8.6260283"><ele>254.25</ele><time>2026-03-29T15:14:35.998Z</time></trkpt><trkpt lat="45.62898" lon="8.62604"><ele>254.0</ele><time>2026-03-29T15:14:36.998Z</time></trkpt><trkpt lat="45.62888" lon="8.6260433"><ele>254.00000000000003</ele><time>2026-03-29T15:14:37.997Z</time></trkpt><trkpt lat="45.6287983" lon="8.626045"><ele>254.0</ele><time>2026-03-29T15:14:38.998Z</time></trkpt><trkpt lat="45.6287267" lon="8.6260417"><ele>254.0</ele><time>2026-03-29T15:14:39.998Z</time></trkpt><trkpt lat="45.6286583" lon="8.62603"><ele>254.0</ele><time>2026-03-29T15:14:40.998Z</time></trkpt><trkpt lat="45.62854" lon="8.6260067"><ele>254.00000000000003</ele><time>2026-03-29T15:14:42.998Z</time></trkpt><trkpt lat="45.62847" lon="8.62599"><ele>254.0</ele><time>2026-03-29T15:14:43.998Z</time></trkpt><trkpt lat="45.628405" lon="8.6259617"><ele>253.66666666666669</ele><time>2026-03-29T15:14:44.998Z</time></trkpt><trkpt lat="45.6283333" lon="8.6259333"><ele>253.33333333333334</ele><time>2026-03-29T15:14:45.997Z</time></trkpt><trkpt lat="45.6282517" lon="8.6259017"><ele>253.0</ele><time>2026-03-29T15:14:46.997Z</time></trkpt><trkpt lat="45.6281883" lon="8.6258533"><ele>252.66666666666669</ele><time>2026-03-29T15:14:47.997Z</time></trkpt><trkpt lat="45.6281033" lon="8.6257967"><ele>252.33333333333334</ele><time>2026-03-29T15:14:49.998Z</time></trkpt><trkpt lat="45.6280167" lon="8.62576"><ele>252.0</ele><time>2026-03-29T15:14:56.998Z</time></trkpt><trkpt lat="45.6278917" lon="8.6257383"><ele>252.0</ele><time>2026-03-29T15:14:58.998Z</time></trkpt><trkpt lat="45.6278017" lon="8.62571"><ele>252.0</ele><time>2026-03-29T15:14:59.997Z</time></trkpt><trkpt lat="45.6277083" lon="8.6256817"><ele>252.0</ele><time>2026-03-29T15:15:00.998Z</time></trkpt><trkpt lat="45.6276133" lon="8.6256583"><ele>252.0</ele><time>2026-03-29T15:15:01.997Z</time></trkpt><trkpt lat="45.6275233" lon="8.625645"><ele>252.0</ele><time>2026-03-29T15:15:02.998Z</time></trkpt><trkpt lat="45.6274317" lon="8.6256283"><ele>252.0</ele><time>2026-03-29T15:15:03.998Z</time></trkpt><trkpt lat="45.6273483" lon="8.6256017"><ele>252.0</ele><time>2026-03-29T15:15:04.998Z</time></trkpt><trkpt lat="45.6272683" lon="8.625575"><ele>252.0</ele><time>2026-03-29T15:15:05.997Z</time></trkpt><trkpt lat="45.6271933" lon="8.625565"><ele>252.0</ele><time>2026-03-29T15:15:06.998Z</time></trkpt><trkpt lat="45.627125" lon="8.6255717"><ele>252.0</ele><time>2026-03-29T15:15:07.998Z</time></trkpt><trkpt lat="45.627015" lon="8.6256033"><ele>252.0</ele><time>2026-03-29T15:15:09.997Z</time></trkpt><trkpt lat="45.6269417" lon="8.6256217"><ele>252.0</ele><time>2026-03-29T15:15:12.998Z</time></trkpt><trkpt lat="45.6268683" lon="8.625565"><ele>252.0</ele><time>2026-03-29T15:15:15.997Z</time></trkpt><trkpt lat="45.6268" lon="8.625495"><ele>252.0</ele><time>2026-03-29T15:15:17.997Z</time></trkpt><trkpt lat="45.6267267" lon="8.6254183"><ele>252.0</ele><time>2026-03-29T15:15:19.997Z</time></trkpt><trkpt lat="45.6266517" lon="8.62532"><ele>252.0</ele><time>2026-03-29T15:15:21.998Z</time></trkpt><trkpt lat="45.6266117" lon="8.625215"><ele>252.0</ele><time>2026-03-29T15:15:23.997Z</time></trkpt><trkpt lat="45.6266017" lon="8.625095"><ele>252.0</ele><time>2026-03-29T15:15:25.998Z</time></trkpt><trkpt lat="45.62661" lon="8.6249933"><ele>252.0</ele><time>2026-03-29T15:15:27.998Z</time></trkpt><trkpt lat="45.626695" lon="8.6248867"><ele>252.0</ele><time>2026-03-29T15:15:29.998Z</time></trkpt><trkpt lat="45.6267933" lon="8.6248383"><ele>252.0</ele><time>2026-03-29T15:15:30.998Z</time></trkpt><trkpt lat="45.6269067" lon="8.624805"><ele>252.0</ele><time>2026-03-29T15:15:31.998Z</time></trkpt><trkpt lat="45.6270433" lon="8.624785"><ele>252.0</ele><time>2026-03-29T15:15:32.998Z</time></trkpt><trkpt lat="45.6271883" lon="8.6247717"><ele>252.0</ele><time>2026-03-29T15:15:33.997Z</time></trkpt><trkpt lat="45.627335" lon="8.6247583"><ele>252.0</ele><time>2026-03-29T15:15:34.998Z</time></trkpt><trkpt lat="45.6274817" lon="8.6247467"><ele>252.0</ele><time>2026-03-29T15:15:35.997Z</time></trkpt><trkpt lat="45.6276033" lon="8.624705"><ele>252.0</ele><time>2026-03-29T15:15:36.997Z</time></trkpt><trkpt lat="45.6277" lon="8.6246217"><ele>252.0</ele><time>2026-03-29T15:15:37.998Z</time></trkpt><trkpt lat="45.6277667" lon="8.6244967"><ele>252.0</ele><time>2026-03-29T15:15:38.997Z</time></trkpt><trkpt lat="45.6278" lon="8.6243367"><ele>252.0</ele><time>2026-03-29T15:15:39.998Z</time></trkpt><trkpt lat="45.6278117" lon="8.6241683"><ele>252.0</ele><time>2026-03-29T15:15:40.997Z</time></trkpt><trkpt lat="45.6278417" lon="8.6240233"><ele>252.0</ele><time>2026-03-29T15:15:41.998Z</time></trkpt><trkpt lat="45.62789" lon="8.6239067"><ele>252.0</ele><time>2026-03-29T15:15:42.998Z</time></trkpt><trkpt lat="45.62797" lon="8.6238417"><ele>252.0</ele><time>2026-03-29T15:15:43.998Z</time></trkpt><trkpt lat="45.6280967" lon="8.6238067"><ele>252.0</ele><time>2026-03-29T15:15:44.998Z</time></trkpt><trkpt lat="45.6282483" lon="8.6237783"><ele>252.0</ele><time>2026-03-29T15:15:45.998Z</time></trkpt><trkpt lat="45.6284067" lon="8.6237517"><ele>252.0</ele><time>2026-03-29T15:15:46.998Z</time></trkpt><trkpt lat="45.6285667" lon="8.6237233"><ele>252.0</ele><time>2026-03-29T15:15:47.997Z</time></trkpt><trkpt lat="45.6287367" lon="8.6237"><ele>253.0</ele><time>2026-03-29T15:15:48.997Z</time></trkpt><trkpt lat="45.6289183" lon="8.6236733"><ele>254.0</ele><time>2026-03-29T15:15:49.998Z</time></trkpt><trkpt lat="45.6291117" lon="8.6236483"><ele>255.0</ele><time>2026-03-29T15:15:50.998Z</time></trkpt><trkpt lat="45.629295" lon="8.6236267"><ele>255.66666666666669</ele><time>2026-03-29T15:15:51.998Z</time></trkpt><trkpt lat="45.6294917" lon="8.62359"><ele>256.33333333333337</ele><time>2026-03-29T15:15:52.998Z</time></trkpt><trkpt lat="45.6297083" lon="8.6235517"><ele>257.0</ele><time>2026-03-29T15:15:53.998Z</time></trkpt><trkpt lat="45.629915" lon="8.62352"><ele>257.0</ele><time>2026-03-29T15:15:54.998Z</time></trkpt><trkpt lat="45.6301183" lon="8.6234833"><ele>257.0</ele><time>2026-03-29T15:15:55.998Z</time></trkpt><trkpt lat="45.6303167" lon="8.6234567"><ele>257.0</ele><time>2026-03-29T15:15:56.998Z</time></trkpt><trkpt lat="45.6305283" lon="8.62344"><ele>256.33333333333337</ele><time>2026-03-29T15:15:57.998Z</time></trkpt><trkpt lat="45.63074" lon="8.6234067"><ele>255.66666666666669</ele><time>2026-03-29T15:15:58.998Z</time></trkpt><trkpt lat="45.63095" lon="8.62338"><ele>255.0</ele><time>2026-03-29T15:15:59.998Z</time></trkpt><trkpt lat="45.6311617" lon="8.6233483"><ele>254.33333333333331</ele><time>2026-03-29T15:16:00.998Z</time></trkpt><trkpt lat="45.6313717" lon="8.6233117"><ele>253.66666666666666</ele><time>2026-03-29T15:16:01.997Z</time></trkpt><trkpt lat="45.63159" lon="8.6232683"><ele>253.0</ele><time>2026-03-29T15:16:02.998Z</time></trkpt><trkpt lat="45.6318117" lon="8.62323"><ele>253.66666666666666</ele><time>2026-03-29T15:16:03.997Z</time></trkpt><trkpt lat="45.63204" lon="8.6231933"><ele>254.33333333333331</ele><time>2026-03-29T15:16:04.997Z</time></trkpt><trkpt lat="45.6322567" lon="8.6231533"><ele>255.0</ele><time>2026-03-29T15:16:05.998Z</time></trkpt><trkpt lat="45.63247" lon="8.6231117"><ele>255.0</ele><time>2026-03-29T15:16:06.998Z</time></trkpt><trkpt lat="45.6326883" lon="8.6230817"><ele>255.0</ele><time>2026-03-29T15:16:07.998Z</time></trkpt><trkpt lat="45.6329067" lon="8.6230483"><ele>255.0</ele><time>2026-03-29T15:16:08.997Z</time></trkpt><trkpt lat="45.6331233" lon="8.623015"><ele>256.3333333333333</ele><time>2026-03-29T15:16:09.997Z</time></trkpt><trkpt lat="45.6333333" lon="8.62299"><ele>257.66666666666663</ele><time>2026-03-29T15:16:10.998Z</time></trkpt><trkpt lat="45.633555" lon="8.622955"><ele>259.0</ele><time>2026-03-29T15:16:11.998Z</time></trkpt><trkpt lat="45.6337717" lon="8.6229267"><ele>259.0</ele><time>2026-03-29T15:16:12.998Z</time></trkpt><trkpt lat="45.63398" lon="8.62289"><ele>259.0</ele><time>2026-03-29T15:16:13.998Z</time></trkpt><trkpt lat="45.634195" lon="8.6228583"><ele>259.0</ele><time>2026-03-29T15:16:14.998Z</time></trkpt><trkpt lat="45.6344117" lon="8.6228217"><ele>259.0</ele><time>2026-03-29T15:16:15.997Z</time></trkpt><trkpt lat="45.6346183" lon="8.622785"><ele>259.0</ele><time>2026-03-29T15:16:16.997Z</time></trkpt><trkpt lat="45.6348317" lon="8.622745"><ele>259.0</ele><time>2026-03-29T15:16:17.998Z</time></trkpt><trkpt lat="45.63505" lon="8.6227067"><ele>259.0</ele><time>2026-03-29T15:16:18.998Z</time></trkpt><trkpt lat="45.6352717" lon="8.622665"><ele>259.0</ele><time>2026-03-29T15:16:19.997Z</time></trkpt><trkpt lat="45.6354917" lon="8.622625"><ele>259.0</ele><time>2026-03-29T15:16:20.998Z</time></trkpt><trkpt lat="45.6357133" lon="8.6225967"><ele>259.5</ele><time>2026-03-29T15:16:21.998Z</time></trkpt><trkpt lat="45.6359417" lon="8.6225633"><ele>260.0</ele><time>2026-03-29T15:16:22.998Z</time></trkpt><trkpt lat="45.6361633" lon="8.6225267"><ele>261.0</ele><time>2026-03-29T15:16:23.997Z</time></trkpt><trkpt lat="45.6363833" lon="8.622485"><ele>262.0</ele><time>2026-03-29T15:16:24.998Z</time></trkpt><trkpt lat="45.6366017" lon="8.62245"><ele>263.0</ele><time>2026-03-29T15:16:25.998Z</time></trkpt><trkpt lat="45.6368183" lon="8.6224217"><ele>265.5</ele><time>2026-03-29T15:16:26.998Z</time></trkpt><trkpt lat="45.63704" lon="8.62238"><ele>268.0</ele><time>2026-03-29T15:16:27.998Z</time></trkpt><trkpt lat="45.63728" lon="8.622345"><ele>268.0</ele><time>2026-03-29T15:16:28.997Z</time></trkpt><trkpt lat="45.6375133" lon="8.622305"><ele>268.0</ele><time>2026-03-29T15:16:29.997Z</time></trkpt><trkpt lat="45.637745" lon="8.622275"><ele>268.5</ele><time>2026-03-29T15:16:30.996Z</time></trkpt><trkpt lat="45.6379783" lon="8.6222367"><ele>269.0</ele><time>2026-03-29T15:16:31.997Z</time></trkpt><trkpt lat="45.638205" lon="8.6222083"><ele>269.0</ele><time>2026-03-29T15:16:32.996Z</time></trkpt><trkpt lat="45.6384217" lon="8.6221517"><ele>269.0</ele><time>2026-03-29T15:16:33.996Z</time></trkpt><trkpt lat="45.638625" lon="8.6221067"><ele>269.0</ele><time>2026-03-29T15:16:34.996Z</time></trkpt><trkpt lat="45.6388383" lon="8.6220733"><ele>268.0</ele><time>2026-03-29T15:16:35.996Z</time></trkpt><trkpt lat="45.6390333" lon="8.622055"><ele>267.0</ele><time>2026-03-29T15:16:36.997Z</time></trkpt><trkpt lat="45.6392333" lon="8.6220133"><ele>266.0</ele><time>2026-03-29T15:16:37.997Z</time></trkpt><trkpt lat="45.63944" lon="8.621985"><ele>266.6666666666667</ele><time>2026-03-29T15:16:38.997Z</time></trkpt><trkpt lat="45.639645" lon="8.6219583"><ele>267.3333333333333</ele><time>2026-03-29T15:16:39.997Z</time></trkpt><trkpt lat="45.639845" lon="8.62193"><ele>268.0</ele><time>2026-03-29T15:16:40.996Z</time></trkpt><trkpt lat="45.640035" lon="8.6219067"><ele>268.0</ele><time>2026-03-29T15:16:41.997Z</time></trkpt><trkpt lat="45.64022" lon="8.62188"><ele>268.0</ele><time>2026-03-29T15:16:42.997Z</time></trkpt><trkpt lat="45.6404067" lon="8.6218467"><ele>268.0</ele><time>2026-03-29T15:16:43.997Z</time></trkpt><trkpt lat="45.64058" lon="8.6218267"><ele>269.3333333333333</ele><time>2026-03-29T15:16:44.997Z</time></trkpt><trkpt lat="45.6407567" lon="8.62179"><ele>270.6666666666667</ele><time>2026-03-29T15:16:45.996Z</time></trkpt><trkpt lat="45.64092" lon="8.6217583"><ele>272.0</ele><time>2026-03-29T15:16:46.997Z</time></trkpt><trkpt lat="45.6410717" lon="8.6217233"><ele>272.6666666666667</ele><time>2026-03-29T15:16:47.997Z</time></trkpt><trkpt lat="45.6412283" lon="8.6216983"><ele>273.3333333333333</ele><time>2026-03-29T15:16:48.997Z</time></trkpt><trkpt lat="45.64138" lon="8.621675"><ele>274.0</ele><time>2026-03-29T15:16:49.996Z</time></trkpt><trkpt lat="45.6415317" lon="8.62166"><ele>274.0</ele><time>2026-03-29T15:16:50.996Z</time></trkpt><trkpt lat="45.6416817" lon="8.621635"><ele>274.0</ele><time>2026-03-29T15:16:51.997Z</time></trkpt><trkpt lat="45.641805" lon="8.621625"><ele>274.0</ele><time>2026-03-29T15:16:52.997Z</time></trkpt><trkpt lat="45.641925" lon="8.621605"><ele>274.0</ele><time>2026-03-29T15:16:53.997Z</time></trkpt><trkpt lat="45.6420333" lon="8.62159"><ele>273.75</ele><time>2026-03-29T15:16:54.997Z</time></trkpt><trkpt lat="45.6421433" lon="8.62158"><ele>273.5</ele><time>2026-03-29T15:16:55.997Z</time></trkpt><trkpt lat="45.642265" lon="8.62156"><ele>273.25</ele><time>2026-03-29T15:16:56.997Z</time></trkpt><trkpt lat="45.6423917" lon="8.6215367"><ele>273.0</ele><time>2026-03-29T15:16:57.997Z</time></trkpt><trkpt lat="45.642525" lon="8.6215117"><ele>273.0</ele><time>2026-03-29T15:16:58.997Z</time></trkpt><trkpt lat="45.64265" lon="8.6214883"><ele>273.0</ele><time>2026-03-29T15:16:59.997Z</time></trkpt><trkpt lat="45.642765" lon="8.6214717"><ele>273.0</ele><time>2026-03-29T15:17:00.997Z</time></trkpt><trkpt lat="45.6428683" lon="8.6214583"><ele>273.0</ele><time>2026-03-29T15:17:01.996Z</time></trkpt><trkpt lat="45.642955" lon="8.6214483"><ele>273.0</ele><time>2026-03-29T15:17:02.997Z</time></trkpt><trkpt lat="45.64303" lon="8.6214317"><ele>273.14285714285717</ele><time>2026-03-29T15:17:03.996Z</time></trkpt><trkpt lat="45.6431067" lon="8.6214217"><ele>273.2857142857143</ele><time>2026-03-29T15:17:04.996Z</time></trkpt><trkpt lat="45.6431783" lon="8.6214117"><ele>273.42857142857144</ele><time>2026-03-29T15:17:05.997Z</time></trkpt><trkpt lat="45.6432467" lon="8.6214"><ele>273.57142857142856</ele><time>2026-03-29T15:17:06.996Z</time></trkpt><trkpt lat="45.6433133" lon="8.6213917"><ele>273.7142857142857</ele><time>2026-03-29T15:17:07.997Z</time></trkpt><trkpt lat="45.6433767" lon="8.6213833"><ele>273.8571428571429</ele><time>2026-03-29T15:17:08.997Z</time></trkpt><trkpt lat="45.6434767" lon="8.6213867"><ele>274.0</ele><time>2026-03-29T15:17:10.996Z</time></trkpt><trkpt lat="45.6435483" lon="8.6214467"><ele>274.4</ele><time>2026-03-29T15:17:12.997Z</time></trkpt><trkpt lat="45.6436583" lon="8.621555"><ele>274.79999999999995</ele><time>2026-03-29T15:17:14.996Z</time></trkpt><trkpt lat="45.6437467" lon="8.6215733"><ele>275.20000000000005</ele><time>2026-03-29T15:17:15.997Z</time></trkpt><trkpt lat="45.64383" lon="8.6215517"><ele>275.6</ele><time>2026-03-29T15:17:16.997Z</time></trkpt><trkpt lat="45.64391" lon="8.6214867"><ele>276.0</ele><time>2026-03-29T15:17:17.996Z</time></trkpt><trkpt lat="45.6439917" lon="8.6213917"><ele>276.0</ele><time>2026-03-29T15:17:18.997Z</time></trkpt><trkpt lat="45.6440583" lon="8.621295"><ele>276.0</ele><time>2026-03-29T15:17:19.997Z</time></trkpt><trkpt lat="45.6441483" lon="8.621215"><ele>276.0</ele><time>2026-03-29T15:17:20.996Z</time></trkpt><trkpt lat="45.6442483" lon="8.621165"><ele>276.0</ele><time>2026-03-29T15:17:21.997Z</time></trkpt><trkpt lat="45.6443483" lon="8.621135"><ele>276.0</ele><time>2026-03-29T15:17:22.997Z</time></trkpt><trkpt lat="45.64445" lon="8.6211083"><ele>276.75</ele><time>2026-03-29T15:17:23.997Z</time></trkpt><trkpt lat="45.6445583" lon="8.6210767"><ele>277.5</ele><time>2026-03-29T15:17:24.997Z</time></trkpt><trkpt lat="45.644665" lon="8.62104"><ele>278.25</ele><time>2026-03-29T15:17:25.997Z</time></trkpt><trkpt lat="45.6447817" lon="8.6209967"><ele>279.0</ele><time>2026-03-29T15:17:26.996Z</time></trkpt><trkpt lat="45.644905" lon="8.6209433"><ele>279.0</ele><time>2026-03-29T15:17:27.996Z</time></trkpt><trkpt lat="45.645025" lon="8.6208967"><ele>279.0</ele><time>2026-03-29T15:17:28.997Z</time></trkpt><trkpt lat="45.6451483" lon="8.62085"><ele>279.0</ele><time>2026-03-29T15:17:29.997Z</time></trkpt><trkpt lat="45.6452733" lon="8.6207967"><ele>279.0</ele><time>2026-03-29T15:17:30.996Z</time></trkpt><trkpt lat="45.6453967" lon="8.62074"><ele>280.0</ele><time>2026-03-29T15:17:31.996Z</time></trkpt><trkpt lat="45.64552" lon="8.620675"><ele>281.0</ele><time>2026-03-29T15:17:32.997Z</time></trkpt><trkpt lat="45.6456383" lon="8.62062"><ele>282.0</ele><time>2026-03-29T15:17:33.997Z</time></trkpt><trkpt lat="45.6457583" lon="8.6205767"><ele>283.0</ele><time>2026-03-29T15:17:34.996Z</time></trkpt><trkpt lat="45.6458767" lon="8.6205217"><ele>283.0</ele><time>2026-03-29T15:17:35.997Z</time></trkpt><trkpt lat="45.6460067" lon="8.6204583"><ele>283.0</ele><time>2026-03-29T15:17:36.997Z</time></trkpt><trkpt lat="45.6461383" lon="8.6203967"><ele>283.0</ele><time>2026-03-29T15:17:37.996Z</time></trkpt><trkpt lat="45.6462683" lon="8.6203333"><ele>283.0</ele><time>2026-03-29T15:17:38.996Z</time></trkpt><trkpt lat="45.6464017" lon="8.6202783"><ele>283.5</ele><time>2026-03-29T15:17:39.996Z</time></trkpt><trkpt lat="45.646525" lon="8.62022"><ele>284.0</ele><time>2026-03-29T15:17:40.997Z</time></trkpt><trkpt lat="45.6466533" lon="8.62016"><ele>284.5</ele><time>2026-03-29T15:17:41.997Z</time></trkpt><trkpt lat="45.6467933" lon="8.6200817"><ele>285.0</ele><time>2026-03-29T15:17:42.996Z</time></trkpt><trkpt lat="45.6469383" lon="8.6200017"><ele>285.0</ele><time>2026-03-29T15:17:43.996Z</time></trkpt><trkpt lat="45.6470967" lon="8.619915"><ele>285.0</ele><time>2026-03-29T15:17:44.996Z</time></trkpt><trkpt lat="45.6472533" lon="8.6198283"><ele>285.0</ele><time>2026-03-29T15:17:45.997Z</time></trkpt><trkpt lat="45.64742" lon="8.6197417"><ele>285.0</ele><time>2026-03-29T15:17:46.996Z</time></trkpt><trkpt lat="45.6475933" lon="8.6196583"><ele>285.0</ele><time>2026-03-29T15:17:47.997Z</time></trkpt><trkpt lat="45.64777" lon="8.6195733"><ele>285.0</ele><time>2026-03-29T15:17:48.997Z</time></trkpt><trkpt lat="45.647945" lon="8.6194917"><ele>284.0</ele><time>2026-03-29T15:17:49.996Z</time></trkpt><trkpt lat="45.6481167" lon="8.6194083"><ele>283.0</ele><time>2026-03-29T15:17:50.997Z</time></trkpt><trkpt lat="45.6482917" lon="8.6193317"><ele>282.0</ele><time>2026-03-29T15:17:51.997Z</time></trkpt><trkpt lat="45.6484467" lon="8.6192567"><ele>282.0</ele><time>2026-03-29T15:17:52.997Z</time></trkpt><trkpt lat="45.6486117" lon="8.61919"><ele>282.0</ele><time>2026-03-29T15:17:53.997Z</time></trkpt><trkpt lat="45.648775" lon="8.6191317"><ele>282.0</ele><time>2026-03-29T15:17:54.997Z</time></trkpt><trkpt lat="45.6489417" lon="8.6190817"><ele>283.0</ele><time>2026-03-29T15:17:55.997Z</time></trkpt><trkpt lat="45.6491167" lon="8.6190517"><ele>284.0</ele><time>2026-03-29T15:17:56.996Z</time></trkpt><trkpt lat="45.6493" lon="8.6190217"><ele>285.0</ele><time>2026-03-29T15:17:57.997Z</time></trkpt><trkpt lat="45.6494733" lon="8.6189883"><ele>285.3333333333333</ele><time>2026-03-29T15:17:58.997Z</time></trkpt><trkpt lat="45.6496417" lon="8.6189567"><ele>285.66666666666663</ele><time>2026-03-29T15:17:59.997Z</time></trkpt><trkpt lat="45.6498183" lon="8.618945"><ele>286.0</ele><time>2026-03-29T15:18:00.996Z</time></trkpt><trkpt lat="45.6499883" lon="8.6189283"><ele>286.0</ele><time>2026-03-29T15:18:01.997Z</time></trkpt><trkpt lat="45.65016" lon="8.6189117"><ele>286.0</ele><time>2026-03-29T15:18:02.997Z</time></trkpt><trkpt lat="45.65032" lon="8.6188883"><ele>286.0</ele><time>2026-03-29T15:18:03.996Z</time></trkpt><trkpt lat="45.6504717" lon="8.61887"><ele>285.5</ele><time>2026-03-29T15:18:04.997Z</time></trkpt><trkpt lat="45.6506183" lon="8.6188467"><ele>285.0</ele><time>2026-03-29T15:18:05.997Z</time></trkpt><trkpt lat="45.6507683" lon="8.618835"><ele>284.5</ele><time>2026-03-29T15:18:06.997Z</time></trkpt><trkpt lat="45.6509183" lon="8.618825"><ele>284.0</ele><time>2026-03-29T15:18:07.997Z</time></trkpt><trkpt lat="45.6510567" lon="8.6188083"><ele>284.25</ele><time>2026-03-29T15:18:08.997Z</time></trkpt><trkpt lat="45.6511833" lon="8.6187867"><ele>284.5</ele><time>2026-03-29T15:18:09.997Z</time></trkpt><trkpt lat="45.6513233" lon="8.6187683"><ele>284.75</ele><time>2026-03-29T15:18:10.996Z</time></trkpt><trkpt lat="45.65145" lon="8.6187633"><ele>285.0</ele><time>2026-03-29T15:18:11.997Z</time></trkpt><trkpt lat="45.651565" lon="8.6187433"><ele>285.0</ele><time>2026-03-29T15:18:12.997Z</time></trkpt><trkpt lat="45.6516717" lon="8.618735"><ele>285.0</ele><time>2026-03-29T15:18:13.996Z</time></trkpt><trkpt lat="45.65177" lon="8.618725"><ele>285.0</ele><time>2026-03-29T15:18:14.997Z</time></trkpt><trkpt lat="45.651855" lon="8.61872"><ele>285.0</ele><time>2026-03-29T15:18:15.997Z</time></trkpt><trkpt lat="45.6519367" lon="8.6187367"><ele>285.0</ele><time>2026-03-29T15:18:16.997Z</time></trkpt><trkpt lat="45.6520133" lon="8.61877"><ele>285.1666666666667</ele><time>2026-03-29T15:18:17.996Z</time></trkpt><trkpt lat="45.6520833" lon="8.6188217"><ele>285.3333333333333</ele><time>2026-03-29T15:18:18.997Z</time></trkpt><trkpt lat="45.6521617" lon="8.6188517"><ele>285.5</ele><time>2026-03-29T15:18:19.996Z</time></trkpt><trkpt lat="45.652245" lon="8.618835"><ele>285.66666666666663</ele><time>2026-03-29T15:18:20.997Z</time></trkpt><trkpt lat="45.6523233" lon="8.6187917"><ele>285.8333333333333</ele><time>2026-03-29T15:18:21.997Z</time></trkpt><trkpt lat="45.6524067" lon="8.6187483"><ele>286.0</ele><time>2026-03-29T15:18:22.997Z</time></trkpt><trkpt lat="45.6524933" lon="8.6187133"><ele>286.0</ele><time>2026-03-29T15:18:23.996Z</time></trkpt><trkpt lat="45.6525867" lon="8.6186967"><ele>286.0</ele><time>2026-03-29T15:18:24.996Z</time></trkpt><trkpt lat="45.6526733" lon="8.618685"><ele>286.0</ele><time>2026-03-29T15:18:25.996Z</time></trkpt><trkpt lat="45.6527733" lon="8.61868"><ele>286.0</ele><time>2026-03-29T15:18:26.996Z</time></trkpt><trkpt lat="45.6528733" lon="8.6186733"><ele>286.0</ele><time>2026-03-29T15:18:27.996Z</time></trkpt><trkpt lat="45.652975" lon="8.618665"><ele>285.5</ele><time>2026-03-29T15:18:28.997Z</time></trkpt><trkpt lat="45.65309" lon="8.6186583"><ele>285.0</ele><time>2026-03-29T15:18:29.997Z</time></trkpt><trkpt lat="45.6532117" lon="8.6186333"><ele>284.5</ele><time>2026-03-29T15:18:30.997Z</time></trkpt><trkpt lat="45.6533317" lon="8.6186067"><ele>284.0</ele><time>2026-03-29T15:18:31.997Z</time></trkpt><trkpt lat="45.6534517" lon="8.618575"><ele>285.5</ele><time>2026-03-29T15:18:32.997Z</time></trkpt><trkpt lat="45.6535767" lon="8.6185533"><ele>287.0</ele><time>2026-03-29T15:18:33.997Z</time></trkpt><trkpt lat="45.6537033" lon="8.6185283"><ele>288.5</ele><time>2026-03-29T15:18:34.996Z</time></trkpt><trkpt lat="45.6538317" lon="8.6185067"><ele>290.0</ele><time>2026-03-29T15:18:35.997Z</time></trkpt><trkpt lat="45.653965" lon="8.6184833"><ele>290.75</ele><time>2026-03-29T15:18:36.997Z</time></trkpt><trkpt lat="45.6540817" lon="8.61846"><ele>291.5</ele><time>2026-03-29T15:18:37.997Z</time></trkpt><trkpt lat="45.654205" lon="8.618455"><ele>292.25</ele><time>2026-03-29T15:18:38.997Z</time></trkpt><trkpt lat="45.6543383" lon="8.61846"><ele>293.0</ele><time>2026-03-29T15:18:39.997Z</time></trkpt><trkpt lat="45.654465" lon="8.6184683"><ele>293.25</ele><time>2026-03-29T15:18:40.996Z</time></trkpt><trkpt lat="45.654585" lon="8.6184717"><ele>293.5</ele><time>2026-03-29T15:18:41.997Z</time></trkpt><trkpt lat="45.6547167" lon="8.6184883"><ele>293.75</ele><time>2026-03-29T15:18:42.996Z</time></trkpt><trkpt lat="45.654845" lon="8.6185067"><ele>294.0</ele><time>2026-03-29T15:18:43.997Z</time></trkpt><trkpt lat="45.654985" lon="8.6185283"><ele>294.0</ele><time>2026-03-29T15:18:44.997Z</time></trkpt><trkpt lat="45.6551317" lon="8.6185383"><ele>294.0</ele><time>2026-03-29T15:18:45.996Z</time></trkpt><trkpt lat="45.6552733" lon="8.618565"><ele>294.0</ele><time>2026-03-29T15:18:46.997Z</time></trkpt><trkpt lat="45.6554167" lon="8.61859"><ele>294.0</ele><time>2026-03-29T15:18:47.997Z</time></trkpt><trkpt lat="45.6555633" lon="8.6186167"><ele>294.0</ele><time>2026-03-29T15:18:48.997Z</time></trkpt><trkpt lat="45.6557067" lon="8.6186333"><ele>294.0</ele><time>2026-03-29T15:18:49.997Z</time></trkpt><trkpt lat="45.6558433" lon="8.6186433"><ele>294.0</ele><time>2026-03-29T15:18:50.997Z</time></trkpt><trkpt lat="45.6559917" lon="8.6186683"><ele>294.0</ele><time>2026-03-29T15:18:51.996Z</time></trkpt><trkpt lat="45.6561467" lon="8.6186917"><ele>293.3333333333333</ele><time>2026-03-29T15:18:52.997Z</time></trkpt><trkpt lat="45.656295" lon="8.6187133"><ele>292.66666666666663</ele><time>2026-03-29T15:18:53.996Z</time></trkpt><trkpt lat="45.6564683" lon="8.6187267"><ele>292.0</ele><time>2026-03-29T15:18:54.997Z</time></trkpt><trkpt lat="45.65665" lon="8.6187567"><ele>292.0</ele><time>2026-03-29T15:18:55.997Z</time></trkpt><trkpt lat="45.6568333" lon="8.61879"><ele>292.0</ele><time>2026-03-29T15:18:56.997Z</time></trkpt><trkpt lat="45.6570083" lon="8.6188"><ele>292.0</ele><time>2026-03-29T15:18:57.997Z</time></trkpt><trkpt lat="45.6571833" lon="8.6188233"><ele>292.3333333333333</ele><time>2026-03-29T15:18:58.996Z</time></trkpt><trkpt lat="45.657355" lon="8.618845"><ele>292.6666666666667</ele><time>2026-03-29T15:18:59.997Z</time></trkpt><trkpt lat="45.6575167" lon="8.618865"><ele>293.0</ele><time>2026-03-29T15:19:00.996Z</time></trkpt><trkpt lat="45.6576733" lon="8.6188983"><ele>293.6666666666667</ele><time>2026-03-29T15:19:01.997Z</time></trkpt><trkpt lat="45.657825" lon="8.6189233"><ele>294.3333333333333</ele><time>2026-03-29T15:19:02.997Z</time></trkpt><trkpt lat="45.6579933" lon="8.6189317"><ele>295.0</ele><time>2026-03-29T15:19:03.997Z</time></trkpt><trkpt lat="45.6581483" lon="8.61895"><ele>295.0</ele><time>2026-03-29T15:19:04.997Z</time></trkpt><trkpt lat="45.6582917" lon="8.618965"><ele>295.0</ele><time>2026-03-29T15:19:05.997Z</time></trkpt><trkpt lat="45.6584433" lon="8.61897"><ele>295.0</ele><time>2026-03-29T15:19:06.997Z</time></trkpt><trkpt lat="45.658595" lon="8.61898"><ele>295.0</ele><time>2026-03-29T15:19:07.997Z</time></trkpt><trkpt lat="45.65875" lon="8.61898"><ele>295.25</ele><time>2026-03-29T15:19:08.997Z</time></trkpt><trkpt lat="45.65889" lon="8.618985"><ele>295.5</ele><time>2026-03-29T15:19:09.997Z</time></trkpt><trkpt lat="45.6590433" lon="8.6189867"><ele>295.75</ele><time>2026-03-29T15:19:10.996Z</time></trkpt><trkpt lat="45.659195" lon="8.6189733"><ele>296.0</ele><time>2026-03-29T15:19:11.997Z</time></trkpt><trkpt lat="45.6593633" lon="8.6189583"><ele>296.33333333333337</ele><time>2026-03-29T15:19:12.997Z</time></trkpt><trkpt lat="45.6595183" lon="8.6189517"><ele>296.6666666666667</ele><time>2026-03-29T15:19:13.997Z</time></trkpt><trkpt lat="45.65967" lon="8.6189417"><ele>297.0</ele><time>2026-03-29T15:19:14.996Z</time></trkpt><trkpt lat="45.6598183" lon="8.61892"><ele>297.0</ele><time>2026-03-29T15:19:15.997Z</time></trkpt><trkpt lat="45.659955" lon="8.6189033"><ele>297.0</ele><time>2026-03-29T15:19:16.996Z</time></trkpt><trkpt lat="45.6600817" lon="8.6188983"><ele>297.0</ele><time>2026-03-29T15:19:17.997Z</time></trkpt><trkpt lat="45.660225" lon="8.61889"><ele>297.0</ele><time>2026-03-29T15:19:18.997Z</time></trkpt><trkpt lat="45.6603567" lon="8.6188817"><ele>296.75</ele><time>2026-03-29T15:19:19.997Z</time></trkpt><trkpt lat="45.6604917" lon="8.6188667"><ele>296.5</ele><time>2026-03-29T15:19:20.997Z</time></trkpt><trkpt lat="45.660635" lon="8.61885"><ele>296.25</ele><time>2026-03-29T15:19:21.997Z</time></trkpt><trkpt lat="45.6607767" lon="8.618835"><ele>296.0</ele><time>2026-03-29T15:19:22.997Z</time></trkpt><trkpt lat="45.660905" lon="8.61881"><ele>296.0</ele><time>2026-03-29T15:19:23.997Z</time></trkpt><trkpt lat="45.661025" lon="8.61879"><ele>296.0</ele><time>2026-03-29T15:19:24.997Z</time></trkpt><trkpt lat="45.6611483" lon="8.61879"><ele>296.0</ele><time>2026-03-29T15:19:25.997Z</time></trkpt><trkpt lat="45.6612583" lon="8.6187883"><ele>296.0</ele><time>2026-03-29T15:19:26.997Z</time></trkpt><trkpt lat="45.6613817" lon="8.6187767"><ele>294.5</ele><time>2026-03-29T15:19:27.996Z</time></trkpt><trkpt lat="45.661505" lon="8.61876"><ele>293.0</ele><time>2026-03-29T15:19:28.996Z</time></trkpt><trkpt lat="45.6616233" lon="8.6187467"><ele>291.5</ele><time>2026-03-29T15:19:29.997Z</time></trkpt><trkpt lat="45.6617517" lon="8.618745"><ele>290.0</ele><time>2026-03-29T15:19:30.996Z</time></trkpt><trkpt lat="45.6618767" lon="8.6187333"><ele>290.0</ele><time>2026-03-29T15:19:31.996Z</time></trkpt><trkpt lat="45.66201" lon="8.6187217"><ele>290.0</ele><time>2026-03-29T15:19:32.996Z</time></trkpt><trkpt lat="45.662145" lon="8.6187167"><ele>290.0</ele><time>2026-03-29T15:19:33.997Z</time></trkpt><trkpt lat="45.6622783" lon="8.6187167"><ele>290.0</ele><time>2026-03-29T15:19:34.997Z</time></trkpt><trkpt lat="45.6624033" lon="8.6187067"><ele>290.0</ele><time>2026-03-29T15:19:35.997Z</time></trkpt><trkpt lat="45.66253" lon="8.6187033"><ele>290.0</ele><time>2026-03-29T15:19:36.997Z</time></trkpt><trkpt lat="45.662645" lon="8.6186967"><ele>290.0</ele><time>2026-03-29T15:19:37.997Z</time></trkpt><trkpt lat="45.6627583" lon="8.6186783"><ele>290.0</ele><time>2026-03-29T15:19:38.997Z</time></trkpt><trkpt lat="45.6628683" lon="8.618655"><ele>291.0</ele><time>2026-03-29T15:19:39.997Z</time></trkpt><trkpt lat="45.6629767" lon="8.6186467"><ele>292.0</ele><time>2026-03-29T15:19:40.997Z</time></trkpt><trkpt lat="45.6630967" lon="8.6186383"><ele>293.0</ele><time>2026-03-29T15:19:41.997Z</time></trkpt><trkpt lat="45.66322" lon="8.6186333"><ele>294.0</ele><time>2026-03-29T15:19:42.996Z</time></trkpt><trkpt lat="45.66334" lon="8.6186267"><ele>294.0</ele><time>2026-03-29T15:19:43.997Z</time></trkpt><trkpt lat="45.663455" lon="8.6186217"><ele>294.0</ele><time>2026-03-29T15:19:44.997Z</time></trkpt><trkpt lat="45.66356" lon="8.61861"><ele>294.0</ele><time>2026-03-29T15:19:45.997Z</time></trkpt><trkpt lat="45.6636517" lon="8.6185933"><ele>294.0</ele><time>2026-03-29T15:19:46.997Z</time></trkpt><trkpt lat="45.66373" lon="8.618595"><ele>294.0</ele><time>2026-03-29T15:19:47.997Z</time></trkpt><trkpt lat="45.663835" lon="8.6185883"><ele>294.2</ele><time>2026-03-29T15:19:49.997Z</time></trkpt><trkpt lat="45.6639183" lon="8.6185783"><ele>294.4</ele><time>2026-03-29T15:19:51.997Z</time></trkpt><trkpt lat="45.66399" lon="8.61858"><ele>294.6</ele><time>2026-03-29T15:19:54.997Z</time></trkpt><trkpt lat="45.6640917" lon="8.61858"><ele>294.8</ele><time>2026-03-29T15:19:58.997Z</time></trkpt><trkpt lat="45.664185" lon="8.6186283"><ele>295.0</ele><time>2026-03-29T15:20:00.997Z</time></trkpt><trkpt lat="45.6642983" lon="8.618735"><ele>294.8</ele><time>2026-03-29T15:20:02.997Z</time></trkpt><trkpt lat="45.6643667" lon="8.6188317"><ele>294.6</ele><time>2026-03-29T15:20:03.997Z</time></trkpt><trkpt lat="45.6644483" lon="8.6189117"><ele>294.4</ele><time>2026-03-29T15:20:04.997Z</time></trkpt><trkpt lat="45.664545" lon="8.61898"><ele>294.2</ele><time>2026-03-29T15:20:05.997Z</time></trkpt><trkpt lat="45.6646367" lon="8.6190667"><ele>294.0</ele><time>2026-03-29T15:20:06.997Z</time></trkpt><trkpt lat="45.6647133" lon="8.6192167"><ele>294.0</ele><time>2026-03-29T15:20:07.997Z</time></trkpt><trkpt lat="45.6647767" lon="8.61942"><ele>294.0</ele><time>2026-03-29T15:20:08.997Z</time></trkpt><trkpt lat="45.66481" lon="8.61964"><ele>294.0</ele><time>2026-03-29T15:20:09.997Z</time></trkpt><trkpt lat="45.6648317" lon="8.6198767"><ele>293.6666666666667</ele><time>2026-03-29T15:20:10.997Z</time></trkpt><trkpt lat="45.66485" lon="8.6201167"><ele>293.33333333333337</ele><time>2026-03-29T15:20:11.997Z</time></trkpt><trkpt lat="45.6648683" lon="8.62034"><ele>293.0</ele><time>2026-03-29T15:20:12.997Z</time></trkpt><trkpt lat="45.664895" lon="8.62056"><ele>293.0</ele><time>2026-03-29T15:20:13.997Z</time></trkpt><trkpt lat="45.6649133" lon="8.6207817"><ele>293.0</ele><time>2026-03-29T15:20:14.997Z</time></trkpt><trkpt lat="45.66494" lon="8.6210067"><ele>293.0</ele><time>2026-03-29T15:20:15.996Z</time></trkpt><trkpt lat="45.664975" lon="8.6212067"><ele>293.0</ele><time>2026-03-29T15:20:16.997Z</time></trkpt><trkpt lat="45.6649983" lon="8.6213883"><ele>293.0</ele><time>2026-03-29T15:20:17.997Z</time></trkpt><trkpt lat="45.6650267" lon="8.6215533"><ele>293.0</ele><time>2026-03-29T15:20:18.997Z</time></trkpt><trkpt lat="45.665045" lon="8.621715"><ele>293.0</ele><time>2026-03-29T15:20:19.997Z</time></trkpt><trkpt lat="45.6650617" lon="8.6218867"><ele>293.25</ele><time>2026-03-29T15:20:20.997Z</time></trkpt><trkpt lat="45.66508" lon="8.6220717"><ele>293.5</ele><time>2026-03-29T15:20:21.996Z</time></trkpt><trkpt lat="45.6651067" lon="8.622255"><ele>293.75</ele><time>2026-03-29T15:20:22.997Z</time></trkpt><trkpt lat="45.6651167" lon="8.62245"><ele>294.0</ele><time>2026-03-29T15:20:23.997Z</time></trkpt><trkpt lat="45.66513" lon="8.6226133"><ele>294.0</ele><time>2026-03-29T15:20:24.997Z</time></trkpt><trkpt lat="45.66515" lon="8.6227917"><ele>294.0</ele><time>2026-03-29T15:20:25.997Z</time></trkpt><trkpt lat="45.6651733" lon="8.6229767"><ele>294.0</ele><time>2026-03-29T15:20:26.997Z</time></trkpt><trkpt lat="45.665205" lon="8.6231533"><ele>294.0</ele><time>2026-03-29T15:20:27.996Z</time></trkpt><trkpt lat="45.6652283" lon="8.6233333"><ele>294.75</ele><time>2026-03-29T15:20:28.997Z</time></trkpt><trkpt lat="45.6652517" lon="8.6235367"><ele>295.5</ele><time>2026-03-29T15:20:29.997Z</time></trkpt><trkpt lat="45.6652783" lon="8.6237317"><ele>296.25</ele><time>2026-03-29T15:20:30.996Z</time></trkpt><trkpt lat="45.6653017" lon="8.6239383"><ele>297.0</ele><time>2026-03-29T15:20:31.997Z</time></trkpt><trkpt lat="45.6653283" lon="8.6241367"><ele>297.0</ele><time>2026-03-29T15:20:32.997Z</time></trkpt><trkpt lat="45.6653517" lon="8.624325"><ele>297.0</ele><time>2026-03-29T15:20:33.996Z</time></trkpt><trkpt lat="45.6653783" lon="8.6245267"><ele>297.0</ele><time>2026-03-29T15:20:34.997Z</time></trkpt><trkpt lat="45.6654033" lon="8.62472"><ele>297.0</ele><time>2026-03-29T15:20:35.997Z</time></trkpt><trkpt lat="45.6654183" lon="8.6249233"><ele>297.0</ele><time>2026-03-29T15:20:36.997Z</time></trkpt><trkpt lat="45.6654217" lon="8.62512"><ele>297.0</ele><time>2026-03-29T15:20:37.997Z</time></trkpt><trkpt lat="45.665415" lon="8.625315"><ele>297.0</ele><time>2026-03-29T15:20:38.997Z</time></trkpt><trkpt lat="45.6654083" lon="8.6255083"><ele>297.0</ele><time>2026-03-29T15:20:39.996Z</time></trkpt><trkpt lat="45.6654033" lon="8.625695"><ele>297.0</ele><time>2026-03-29T15:20:40.997Z</time></trkpt><trkpt lat="45.6654" lon="8.6258683"><ele>297.0</ele><time>2026-03-29T15:20:41.997Z</time></trkpt><trkpt lat="45.6654017" lon="8.62604"><ele>297.0</ele><time>2026-03-29T15:20:42.996Z</time></trkpt><trkpt lat="45.6653888" lon="8.6262235"><ele>297.0</ele><time>2026-03-29T15:20:43.997Z</time></trkpt><trkpt lat="45.6653778" lon="8.6264069"><ele>297.0</ele><time>2026-03-29T15:20:44.997Z</time></trkpt><trkpt lat="45.6653697" lon="8.6265982"><ele>297.0</ele><time>2026-03-29T15:20:45.996Z</time></trkpt><trkpt lat="45.6653608" lon="8.6267919"><ele>297.0</ele><time>2026-03-29T15:20:46.997Z</time></trkpt><trkpt lat="45.6653575" lon="8.6269843"><ele>297.0</ele><time>2026-03-29T15:20:47.997Z</time></trkpt><trkpt lat="45.6653497" lon="8.6271658"><ele>296.75</ele><time>2026-03-29T15:20:48.996Z</time></trkpt><trkpt lat="45.6653456" lon="8.6273378"><ele>296.5</ele><time>2026-03-29T15:20:49.996Z</time></trkpt><trkpt lat="45.6653422" lon="8.6275154"><ele>296.25</ele><time>2026-03-29T15:20:50.996Z</time></trkpt><trkpt lat="45.6653351" lon="8.6276875"><ele>296.0</ele><time>2026-03-29T15:20:51.997Z</time></trkpt><trkpt lat="45.6653255" lon="8.627838"><ele>295.83333333333337</ele><time>2026-03-29T15:20:52.996Z</time></trkpt><trkpt lat="45.6653215" lon="8.6279648"><ele>295.6666666666667</ele><time>2026-03-29T15:20:53.996Z</time></trkpt><trkpt lat="45.6653238" lon="8.6280781"><ele>295.5</ele><time>2026-03-29T15:20:54.997Z</time></trkpt><trkpt lat="45.6653278" lon="8.6281866"><ele>295.3333333333333</ele><time>2026-03-29T15:20:55.997Z</time></trkpt><trkpt lat="45.6653279" lon="8.6283014"><ele>295.16666666666663</ele><time>2026-03-29T15:20:56.997Z</time></trkpt><trkpt lat="45.6653143" lon="8.628434"><ele>295.0</ele><time>2026-03-29T15:20:57.996Z</time></trkpt><trkpt lat="45.6652926" lon="8.6286095"><ele>295.5</ele><time>2026-03-29T15:20:58.997Z</time></trkpt><trkpt lat="45.6652707" lon="8.6287973"><ele>296.0</ele><time>2026-03-29T15:20:59.997Z</time></trkpt><trkpt lat="45.6652611" lon="8.6289862"><ele>296.5</ele><time>2026-03-29T15:21:00.996Z</time></trkpt><trkpt lat="45.6652564" lon="8.6291472"><ele>297.0</ele><time>2026-03-29T15:21:01.997Z</time></trkpt><trkpt lat="45.6652542" lon="8.6292736"><ele>297.0</ele><time>2026-03-29T15:21:02.997Z</time></trkpt><trkpt lat="45.6652614" lon="8.6293769"><ele>297.0</ele><time>2026-03-29T15:21:03.997Z</time></trkpt><trkpt lat="45.6652995" lon="8.6294528"><ele>297.0</ele><time>2026-03-29T15:21:04.997Z</time></trkpt><trkpt lat="45.6653575" lon="8.6295073"><ele>297.0</ele><time>2026-03-29T15:21:05.997Z</time></trkpt><trkpt lat="45.6654581" lon="8.6295239"><ele>297.0</ele><time>2026-03-29T15:21:06.997Z</time></trkpt><trkpt lat="45.665585" lon="8.6295302"><ele>297.0</ele><time>2026-03-29T15:21:07.996Z</time></trkpt><trkpt lat="45.6657206" lon="8.6295491"><ele>297.5</ele><time>2026-03-29T15:21:08.997Z</time></trkpt><trkpt lat="45.6658583" lon="8.6295755"><ele>298.0</ele><time>2026-03-29T15:21:09.996Z</time></trkpt><trkpt lat="45.6659945" lon="8.6296099"><ele>298.5</ele><time>2026-03-29T15:21:10.996Z</time></trkpt><trkpt lat="45.6661264" lon="8.6296405"><ele>299.0</ele><time>2026-03-29T15:21:11.997Z</time></trkpt><trkpt lat="45.6662458" lon="8.6296707"><ele>299.4</ele><time>2026-03-29T15:21:12.997Z</time></trkpt><trkpt lat="45.6663505" lon="8.6296923"><ele>299.79999999999995</ele><time>2026-03-29T15:21:13.997Z</time></trkpt><trkpt lat="45.6664414" lon="8.6297335"><ele>300.20000000000005</ele><time>2026-03-29T15:21:14.996Z</time></trkpt><trkpt lat="45.666518" lon="8.6297809"><ele>300.6</ele><time>2026-03-29T15:21:15.997Z</time></trkpt><trkpt lat="45.6665833" lon="8.6298433"><ele>301.0</ele><time>2026-03-29T15:21:16.997Z</time></trkpt><trkpt lat="45.6666333" lon="8.6299467"><ele>301.0</ele><time>2026-03-29T15:21:18.997Z</time></trkpt><trkpt lat="45.6666367" lon="8.63005"><ele>301.0</ele><time>2026-03-29T15:21:24.997Z</time></trkpt><trkpt lat="45.6666183" lon="8.6301367"><ele>301.0</ele><time>2026-03-29T15:21:25.996Z</time></trkpt><trkpt lat="45.66659" lon="8.6302717"><ele>301.0</ele><time>2026-03-29T15:21:26.997Z</time></trkpt><trkpt lat="45.6665667" lon="8.6304433"><ele>301.0</ele><time>2026-03-29T15:21:27.996Z</time></trkpt><trkpt lat="45.66653" lon="8.6305967"><ele>301.2</ele><time>2026-03-29T15:21:28.997Z</time></trkpt><trkpt lat="45.6664717" lon="8.63076"><ele>301.40000000000003</ele><time>2026-03-29T15:21:29.997Z</time></trkpt><trkpt lat="45.666455" lon="8.6308917"><ele>301.6</ele><time>2026-03-29T15:21:30.997Z</time></trkpt><trkpt lat="45.666435" lon="8.6310167"><ele>301.8</ele><time>2026-03-29T15:21:31.996Z</time></trkpt><trkpt lat="45.66642" lon="8.6311367"><ele>302.0</ele><time>2026-03-29T15:21:32.997Z</time></trkpt><trkpt lat="45.666405" lon="8.6312633"><ele>301.33333333333337</ele><time>2026-03-29T15:21:33.997Z</time></trkpt><trkpt lat="45.6663867" lon="8.6313667"><ele>300.6666666666667</ele><time>2026-03-29T15:21:34.997Z</time></trkpt><trkpt lat="45.6663767" lon="8.631465"><ele>300.0</ele><time>2026-03-29T15:21:35.997Z</time></trkpt><trkpt lat="45.6663867" lon="8.63156"><ele>299.3333333333333</ele><time>2026-03-29T15:21:36.997Z</time></trkpt><trkpt lat="45.6664167" lon="8.6316483"><ele>298.66666666666663</ele><time>2026-03-29T15:21:37.996Z</time></trkpt><trkpt lat="45.6664733" lon="8.6317867"><ele>298.0</ele><time>2026-03-29T15:21:39.996Z</time></trkpt><trkpt lat="45.6665133" lon="8.631945"><ele>297.5</ele><time>2026-03-29T15:21:41.997Z</time></trkpt><trkpt lat="45.6665033" lon="8.6321217"><ele>297.0</ele><time>2026-03-29T15:21:43.996Z</time></trkpt><trkpt lat="45.66649" lon="8.6322867"><ele>296.5</ele><time>2026-03-29T15:21:45.996Z</time></trkpt><trkpt lat="45.666495" lon="8.6323817"><ele>296.0</ele><time>2026-03-29T15:21:46.997Z</time></trkpt><trkpt lat="45.666495" lon="8.6324817"><ele>295.5</ele><time>2026-03-29T15:21:47.997Z</time></trkpt><trkpt lat="45.6664933" lon="8.632575"><ele>295.0</ele><time>2026-03-29T15:21:48.996Z</time></trkpt><trkpt lat="45.666495" lon="8.6327433"><ele>295.28571428571433</ele><time>2026-03-29T15:21:50.997Z</time></trkpt><trkpt lat="45.6665" lon="8.632835"><ele>295.57142857142856</ele><time>2026-03-29T15:21:51.996Z</time></trkpt><trkpt lat="45.6665067" lon="8.6329383"><ele>295.8571428571429</ele><time>2026-03-29T15:21:52.997Z</time></trkpt><trkpt lat="45.6665333" lon="8.63304"><ele>296.14285714285717</ele><time>2026-03-29T15:21:53.996Z</time></trkpt><trkpt lat="45.6665683" lon="8.633135"><ele>296.42857142857144</ele><time>2026-03-29T15:21:54.997Z</time></trkpt><trkpt lat="45.6666133" lon="8.6332183"><ele>296.7142857142857</ele><time>2026-03-29T15:21:55.997Z</time></trkpt><trkpt lat="45.66667" lon="8.6332867"><ele>297.0</ele><time>2026-03-29T15:21:56.997Z</time></trkpt><trkpt lat="45.66673" lon="8.6333483"><ele>297.0</ele><time>2026-03-29T15:21:57.997Z</time></trkpt><trkpt lat="45.66679" lon="8.633425"><ele>297.0</ele><time>2026-03-29T15:21:58.997Z</time></trkpt><trkpt lat="45.6668483" lon="8.6335017"><ele>297.0</ele><time>2026-03-29T15:21:59.996Z</time></trkpt><trkpt lat="45.6669183" lon="8.6335967"><ele>297.0</ele><time>2026-03-29T15:22:00.996Z</time></trkpt><trkpt lat="45.6669633" lon="8.6336967"><ele>297.0</ele><time>2026-03-29T15:22:01.997Z</time></trkpt><trkpt lat="45.6669967" lon="8.6338267"><ele>297.0</ele><time>2026-03-29T15:22:02.997Z</time></trkpt><trkpt lat="45.6670183" lon="8.6339333"><ele>295.6</ele><time>2026-03-29T15:22:03.997Z</time></trkpt><trkpt lat="45.6670333" lon="8.63407"><ele>294.2</ele><time>2026-03-29T15:22:04.997Z</time></trkpt><trkpt lat="45.6670333" lon="8.6342133"><ele>292.8</ele><time>2026-03-29T15:22:05.996Z</time></trkpt><trkpt lat="45.6670367" lon="8.634345"><ele>291.4</ele><time>2026-03-29T15:22:06.997Z</time></trkpt><trkpt lat="45.6670517" lon="8.634475"><ele>290.0</ele><time>2026-03-29T15:22:07.996Z</time></trkpt><trkpt lat="45.6670517" lon="8.63461"><ele>289.0</ele><time>2026-03-29T15:22:08.997Z</time></trkpt><trkpt lat="45.667055" lon="8.63476"><ele>288.0</ele><time>2026-03-29T15:22:09.997Z</time></trkpt><trkpt lat="45.6670667" lon="8.6348983"><ele>287.0</ele><time>2026-03-29T15:22:10.997Z</time></trkpt><trkpt lat="45.66707" lon="8.6350417"><ele>286.0</ele><time>2026-03-29T15:22:11.997Z</time></trkpt><trkpt lat="45.667075" lon="8.635205"><ele>285.0</ele><time>2026-03-29T15:22:12.996Z</time></trkpt><trkpt lat="45.6670617" lon="8.635365"><ele>284.25</ele><time>2026-03-29T15:22:13.997Z</time></trkpt><trkpt lat="45.6670433" lon="8.63553"><ele>283.5</ele><time>2026-03-29T15:22:14.997Z</time></trkpt><trkpt lat="45.66704" lon="8.6356867"><ele>282.75</ele><time>2026-03-29T15:22:15.995Z</time></trkpt><trkpt lat="45.667045" lon="8.6358567"><ele>282.0</ele><time>2026-03-29T15:22:16.996Z</time></trkpt><trkpt lat="45.6670483" lon="8.6360217"><ele>282.0</ele><time>2026-03-29T15:22:17.995Z</time></trkpt><trkpt lat="45.6670467" lon="8.6361883"><ele>282.0</ele><time>2026-03-29T15:22:18.996Z</time></trkpt><trkpt lat="45.6670333" lon="8.6363533"><ele>282.0</ele><time>2026-03-29T15:22:19.996Z</time></trkpt><trkpt lat="45.6670167" lon="8.636505"><ele>282.0</ele><time>2026-03-29T15:22:20.995Z</time></trkpt><trkpt lat="45.6669983" lon="8.6366583"><ele>282.0</ele><time>2026-03-29T15:22:21.996Z</time></trkpt><trkpt lat="45.6669933" lon="8.6368067"><ele>282.0</ele><time>2026-03-29T15:22:22.996Z</time></trkpt><trkpt lat="45.6669983" lon="8.6369517"><ele>282.0</ele><time>2026-03-29T15:22:23.996Z</time></trkpt><trkpt lat="45.667025" lon="8.637105"><ele>282.0</ele><time>2026-03-29T15:22:24.996Z</time></trkpt><trkpt lat="45.66705" lon="8.6372583"><ele>282.0</ele><time>2026-03-29T15:22:25.996Z</time></trkpt><trkpt lat="45.667085" lon="8.63742"><ele>282.0</ele><time>2026-03-29T15:22:26.996Z</time></trkpt><trkpt lat="45.6671217" lon="8.6375717"><ele>282.8</ele><time>2026-03-29T15:22:27.996Z</time></trkpt><trkpt lat="45.6671633" lon="8.6377283"><ele>283.6</ele><time>2026-03-29T15:22:28.995Z</time></trkpt><trkpt lat="45.6671717" lon="8.6378883"><ele>284.40000000000003</ele><time>2026-03-29T15:22:29.996Z</time></trkpt><trkpt lat="45.6671683" lon="8.6380433"><ele>285.2</ele><time>2026-03-29T15:22:30.996Z</time></trkpt><trkpt lat="45.66718" lon="8.6382"><ele>286.0</ele><time>2026-03-29T15:22:31.995Z</time></trkpt><trkpt lat="45.6672033" lon="8.63836"><ele>286.25</ele><time>2026-03-29T15:22:32.996Z</time></trkpt><trkpt lat="45.66723" lon="8.638515"><ele>286.5</ele><time>2026-03-29T15:22:33.996Z</time></trkpt><trkpt lat="45.66725" lon="8.6386783"><ele>286.75</ele><time>2026-03-29T15:22:34.995Z</time></trkpt><trkpt lat="45.6672817" lon="8.63883"><ele>287.0</ele><time>2026-03-29T15:22:35.996Z</time></trkpt><trkpt lat="45.6673317" lon="8.6389833"><ele>286.25</ele><time>2026-03-29T15:22:36.996Z</time></trkpt><trkpt lat="45.6673967" lon="8.6391133"><ele>285.5</ele><time>2026-03-29T15:22:37.996Z</time></trkpt><trkpt lat="45.667455" lon="8.6392533"><ele>284.75</ele><time>2026-03-29T15:22:38.996Z</time></trkpt><trkpt lat="45.66752" lon="8.6394167"><ele>284.0</ele><time>2026-03-29T15:22:39.995Z</time></trkpt><trkpt lat="45.6676067" lon="8.63958"><ele>283.75</ele><time>2026-03-29T15:22:40.996Z</time></trkpt><trkpt lat="45.667695" lon="8.6397333"><ele>283.5</ele><time>2026-03-29T15:22:41.996Z</time></trkpt><trkpt lat="45.6677967" lon="8.63988"><ele>283.25</ele><time>2026-03-29T15:22:42.995Z</time></trkpt><trkpt lat="45.6678967" lon="8.6400217"><ele>283.0</ele><time>2026-03-29T15:22:43.996Z</time></trkpt><trkpt lat="45.6679867" lon="8.6401367"><ele>283.0</ele><time>2026-03-29T15:22:44.996Z</time></trkpt><trkpt lat="45.6680733" lon="8.6402583"><ele>283.0</ele><time>2026-03-29T15:22:45.996Z</time></trkpt><trkpt lat="45.66816" lon="8.6403933"><ele>283.0</ele><time>2026-03-29T15:22:46.996Z</time></trkpt><trkpt lat="45.6682317" lon="8.6405467"><ele>283.0</ele><time>2026-03-29T15:22:47.996Z</time></trkpt><trkpt lat="45.6682983" lon="8.640715"><ele>283.66666666666663</ele><time>2026-03-29T15:22:48.995Z</time></trkpt><trkpt lat="45.6683567" lon="8.6408933"><ele>284.3333333333333</ele><time>2026-03-29T15:22:49.996Z</time></trkpt><trkpt lat="45.66845" lon="8.6410683"><ele>285.0</ele><time>2026-03-29T15:22:50.996Z</time></trkpt><trkpt lat="45.66855" lon="8.6412683"><ele>287.0</ele><time>2026-03-29T15:22:51.996Z</time></trkpt><trkpt lat="45.6686533" lon="8.641475"><ele>289.0</ele><time>2026-03-29T15:22:52.996Z</time></trkpt><trkpt lat="45.668765" lon="8.6416883"><ele>291.0</ele><time>2026-03-29T15:22:53.996Z</time></trkpt><trkpt lat="45.6688767" lon="8.6418917"><ele>291.6666666666667</ele><time>2026-03-29T15:22:54.996Z</time></trkpt><trkpt lat="45.6689717" lon="8.6420833"><ele>292.33333333333337</ele><time>2026-03-29T15:22:55.995Z</time></trkpt><trkpt lat="45.6690733" lon="8.64225"><ele>293.0</ele><time>2026-03-29T15:22:56.996Z</time></trkpt><trkpt lat="45.6691667" lon="8.64241"><ele>293.0</ele><time>2026-03-29T15:22:57.996Z</time></trkpt><trkpt lat="45.669235" lon="8.6425667"><ele>293.0</ele><time>2026-03-29T15:22:58.996Z</time></trkpt><trkpt lat="45.6692833" lon="8.6427367"><ele>293.0</ele><time>2026-03-29T15:22:59.996Z</time></trkpt><trkpt lat="45.6693083" lon="8.64293"><ele>293.0</ele><time>2026-03-29T15:23:00.996Z</time></trkpt><trkpt lat="45.669305" lon="8.64312"><ele>291.0</ele><time>2026-03-29T15:23:01.995Z</time></trkpt><trkpt lat="45.66929" lon="8.6432983"><ele>289.0</ele><time>2026-03-29T15:23:02.996Z</time></trkpt><trkpt lat="45.6692767" lon="8.643485"><ele>287.0</ele><time>2026-03-29T15:23:03.995Z</time></trkpt><trkpt lat="45.6692667" lon="8.6436867"><ele>285.0</ele><time>2026-03-29T15:23:04.995Z</time></trkpt><trkpt lat="45.6692817" lon="8.6439017"><ele>280.3333333333333</ele><time>2026-03-29T15:23:05.995Z</time></trkpt><trkpt lat="45.669315" lon="8.6441217"><ele>275.66666666666663</ele><time>2026-03-29T15:23:06.995Z</time></trkpt><trkpt lat="45.6693533" lon="8.6443633"><ele>271.0</ele><time>2026-03-29T15:23:07.996Z</time></trkpt><trkpt lat="45.6693883" lon="8.6446517"><ele>269.0</ele><time>2026-03-29T15:23:08.996Z</time></trkpt><trkpt lat="45.6694167" lon="8.6449967"><ele>267.0</ele><time>2026-03-29T15:23:09.995Z</time></trkpt><trkpt lat="45.6694517" lon="8.6453617"><ele>265.5</ele><time>2026-03-29T15:23:10.996Z</time></trkpt><trkpt lat="45.669485" lon="8.6457317"><ele>264.0</ele><time>2026-03-29T15:23:11.995Z</time></trkpt><trkpt lat="45.669515" lon="8.6461083"><ele>263.5</ele><time>2026-03-29T15:23:12.996Z</time></trkpt><trkpt lat="45.66954" lon="8.6464883"><ele>263.0</ele><time>2026-03-29T15:23:13.996Z</time></trkpt><trkpt lat="45.669565" lon="8.6468567"><ele>264.0</ele><time>2026-03-29T15:23:14.996Z</time></trkpt><trkpt lat="45.66959" lon="8.6472133"><ele>265.0</ele><time>2026-03-29T15:23:15.995Z</time></trkpt><trkpt lat="45.6696017" lon="8.64756"><ele>263.5</ele><time>2026-03-29T15:23:16.996Z</time></trkpt><trkpt lat="45.66964" lon="8.6479183"><ele>262.0</ele><time>2026-03-29T15:23:17.996Z</time></trkpt><trkpt lat="45.6697133" lon="8.6482717"><ele>262.0</ele><time>2026-03-29T15:23:18.995Z</time></trkpt><trkpt lat="45.6697967" lon="8.6486133"><ele>262.0</ele><time>2026-03-29T15:23:19.996Z</time></trkpt><trkpt lat="45.669875" lon="8.648945"><ele>260.0</ele><time>2026-03-29T15:23:20.995Z</time></trkpt><trkpt lat="45.669945" lon="8.649295"><ele>258.0</ele><time>2026-03-29T15:23:21.995Z</time></trkpt><trkpt lat="45.669995" lon="8.64964"><ele>257.0</ele><time>2026-03-29T15:23:22.996Z</time></trkpt><trkpt lat="45.6700117" lon="8.65"><ele>256.0</ele><time>2026-03-29T15:23:23.996Z</time></trkpt><trkpt lat="45.6700033" lon="8.650335"><ele>256.0</ele><time>2026-03-29T15:23:24.995Z</time></trkpt><trkpt lat="45.669975" lon="8.65068"><ele>256.0</ele><time>2026-03-29T15:23:25.996Z</time></trkpt><trkpt lat="45.6699567" lon="8.6510483"><ele>256.0</ele><time>2026-03-29T15:23:26.995Z</time></trkpt><trkpt lat="45.669945" lon="8.6514083"><ele>256.0</ele><time>2026-03-29T15:23:27.996Z</time></trkpt><trkpt lat="45.6699567" lon="8.651755"><ele>254.5</ele><time>2026-03-29T15:23:28.996Z</time></trkpt><trkpt lat="45.6699683" lon="8.652095"><ele>253.0</ele><time>2026-03-29T15:23:29.996Z</time></trkpt><trkpt lat="45.66999" lon="8.6524417"><ele>252.0</ele><time>2026-03-29T15:23:30.996Z</time></trkpt><trkpt lat="45.6700233" lon="8.6527933"><ele>251.0</ele><time>2026-03-29T15:23:31.995Z</time></trkpt><trkpt lat="45.6700683" lon="8.65316"><ele>251.0</ele><time>2026-03-29T15:23:32.996Z</time></trkpt><trkpt lat="45.670125" lon="8.6535283"><ele>251.0</ele><time>2026-03-29T15:23:33.996Z</time></trkpt><trkpt lat="45.6701783" lon="8.653895"><ele>252.0</ele><time>2026-03-29T15:23:34.996Z</time></trkpt><trkpt lat="45.6702133" lon="8.6542617"><ele>253.0</ele><time>2026-03-29T15:23:35.996Z</time></trkpt><trkpt lat="45.670225" lon="8.6546367"><ele>254.0</ele><time>2026-03-29T15:23:36.996Z</time></trkpt><trkpt lat="45.670225" lon="8.65502"><ele>255.0</ele><time>2026-03-29T15:23:37.996Z</time></trkpt><trkpt lat="45.6702283" lon="8.6553733"><ele>257.0</ele><time>2026-03-29T15:23:38.995Z</time></trkpt><trkpt lat="45.6702" lon="8.655715"><ele>259.0</ele><time>2026-03-29T15:23:39.996Z</time></trkpt><trkpt lat="45.670205" lon="8.6560483"><ele>258.5</ele><time>2026-03-29T15:23:40.995Z</time></trkpt><trkpt lat="45.6701917" lon="8.6563833"><ele>258.0</ele><time>2026-03-29T15:23:41.996Z</time></trkpt><trkpt lat="45.6702033" lon="8.6567333"><ele>254.5</ele><time>2026-03-29T15:23:42.996Z</time></trkpt><trkpt lat="45.6702183" lon="8.6570933"><ele>251.0</ele><time>2026-03-29T15:23:43.995Z</time></trkpt><trkpt lat="45.6702317" lon="8.6574583"><ele>250.0</ele><time>2026-03-29T15:23:44.996Z</time></trkpt><trkpt lat="45.6702433" lon="8.6578317"><ele>249.0</ele><time>2026-03-29T15:23:45.996Z</time></trkpt><trkpt lat="45.6702567" lon="8.6582067"><ele>249.0</ele><time>2026-03-29T15:23:46.995Z</time></trkpt><trkpt lat="45.670255" lon="8.6585817"><ele>249.0</ele><time>2026-03-29T15:23:47.996Z</time></trkpt><trkpt lat="45.6702583" lon="8.6589417"><ele>248.0</ele><time>2026-03-29T15:23:48.996Z</time></trkpt><trkpt lat="45.6702483" lon="8.6592867"><ele>247.0</ele><time>2026-03-29T15:23:49.996Z</time></trkpt><trkpt lat="45.6702467" lon="8.65964"><ele>244.0</ele><time>2026-03-29T15:23:50.995Z</time></trkpt><trkpt lat="45.6702383" lon="8.66"><ele>241.0</ele><time>2026-03-29T15:23:51.996Z</time></trkpt><trkpt lat="45.6702117" lon="8.6603667"><ele>240.0</ele><time>2026-03-29T15:23:52.996Z</time></trkpt><trkpt lat="45.6701683" lon="8.6607383"><ele>239.0</ele><time>2026-03-29T15:23:53.995Z</time></trkpt><trkpt lat="45.6701067" lon="8.6611067"><ele>236.0</ele><time>2026-03-29T15:23:54.996Z</time></trkpt><trkpt lat="45.6700283" lon="8.661475"><ele>233.0</ele><time>2026-03-29T15:23:55.995Z</time></trkpt><trkpt lat="45.66995" lon="8.6618233"><ele>229.0</ele><time>2026-03-29T15:23:56.996Z</time></trkpt><trkpt lat="45.6699" lon="8.66216"><ele>225.0</ele><time>2026-03-29T15:23:57.995Z</time></trkpt><trkpt lat="45.6698783" lon="8.6625033"><ele>225.0</ele><time>2026-03-29T15:23:58.996Z</time></trkpt><trkpt lat="45.6699067" lon="8.662845"><ele>225.0</ele><time>2026-03-29T15:23:59.996Z</time></trkpt><trkpt lat="45.66995" lon="8.663195"><ele>225.0</ele><time>2026-03-29T15:24:00.996Z</time></trkpt><trkpt lat="45.6700083" lon="8.663545"><ele>225.0</ele><time>2026-03-29T15:24:01.996Z</time></trkpt><trkpt lat="45.6700717" lon="8.6638917"><ele>224.5</ele><time>2026-03-29T15:24:02.996Z</time></trkpt><trkpt lat="45.6701383" lon="8.66423"><ele>224.0</ele><time>2026-03-29T15:24:03.996Z</time></trkpt><trkpt lat="45.6702417" lon="8.6645483"><ele>223.0</ele><time>2026-03-29T15:24:04.996Z</time></trkpt><trkpt lat="45.670405" lon="8.664825"><ele>222.0</ele><time>2026-03-29T15:24:05.995Z</time></trkpt><trkpt lat="45.6705833" lon="8.665125"><ele>223.0</ele><time>2026-03-29T15:24:06.996Z</time></trkpt><trkpt lat="45.6707733" lon="8.6654217"><ele>224.0</ele><time>2026-03-29T15:24:07.996Z</time></trkpt><trkpt lat="45.670945" lon="8.6657133"><ele>221.0</ele><time>2026-03-29T15:24:08.996Z</time></trkpt><trkpt lat="45.6711217" lon="8.6660067"><ele>218.0</ele><time>2026-03-29T15:24:09.996Z</time></trkpt><trkpt lat="45.67129" lon="8.6662983"><ele>218.0</ele><time>2026-03-29T15:24:10.996Z</time></trkpt><trkpt lat="45.67147" lon="8.6665883"><ele>218.0</ele><time>2026-03-29T15:24:11.996Z</time></trkpt><trkpt lat="45.6716383" lon="8.6668733"><ele>218.5</ele><time>2026-03-29T15:24:12.995Z</time></trkpt><trkpt lat="45.6718133" lon="8.667165"><ele>219.0</ele><time>2026-03-29T15:24:13.996Z</time></trkpt><trkpt lat="45.6719717" lon="8.6674533"><ele>219.0</ele><time>2026-03-29T15:24:14.996Z</time></trkpt><trkpt lat="45.6721217" lon="8.667735"><ele>219.0</ele><time>2026-03-29T15:24:15.996Z</time></trkpt><trkpt lat="45.67227" lon="8.6680017"><ele>217.66666666666669</ele><time>2026-03-29T15:24:16.996Z</time></trkpt><trkpt lat="45.6724167" lon="8.668235"><ele>216.33333333333334</ele><time>2026-03-29T15:24:17.996Z</time></trkpt><trkpt lat="45.67254" lon="8.668465"><ele>215.0</ele><time>2026-03-29T15:24:18.996Z</time></trkpt><trkpt lat="45.6726717" lon="8.66868"><ele>214.66666666666669</ele><time>2026-03-29T15:24:19.996Z</time></trkpt><trkpt lat="45.6727933" lon="8.66889"><ele>214.33333333333331</ele><time>2026-03-29T15:24:20.996Z</time></trkpt><trkpt lat="45.6729117" lon="8.6690867"><ele>214.0</ele><time>2026-03-29T15:24:21.995Z</time></trkpt><trkpt lat="45.67303" lon="8.6692767"><ele>213.66666666666666</ele><time>2026-03-29T15:24:22.996Z</time></trkpt><trkpt lat="45.6731467" lon="8.6694817"><ele>213.33333333333331</ele><time>2026-03-29T15:24:23.996Z</time></trkpt><trkpt lat="45.673265" lon="8.66969"><ele>213.0</ele><time>2026-03-29T15:24:24.995Z</time></trkpt><trkpt lat="45.6733783" lon="8.669905"><ele>213.0</ele><time>2026-03-29T15:24:25.996Z</time></trkpt><trkpt lat="45.6735033" lon="8.6701167"><ele>213.0</ele><time>2026-03-29T15:24:26.996Z</time></trkpt><trkpt lat="45.6736117" lon="8.6703283"><ele>213.0</ele><time>2026-03-29T15:24:27.995Z</time></trkpt><trkpt lat="45.6737183" lon="8.6705367"><ele>210.33333333333331</ele><time>2026-03-29T15:24:28.995Z</time></trkpt><trkpt lat="45.67384" lon="8.670735"><ele>207.66666666666666</ele><time>2026-03-29T15:24:29.996Z</time></trkpt><trkpt lat="45.6739683" lon="8.67095"><ele>205.0</ele><time>2026-03-29T15:24:30.996Z</time></trkpt><trkpt lat="45.6740867" lon="8.6711467"><ele>203.66666666666666</ele><time>2026-03-29T15:24:31.995Z</time></trkpt><trkpt lat="45.6742167" lon="8.6713017"><ele>202.33333333333331</ele><time>2026-03-29T15:24:32.996Z</time></trkpt><trkpt lat="45.6743467" lon="8.6714383"><ele>201.0</ele><time>2026-03-29T15:24:33.996Z</time></trkpt><trkpt lat="45.6744917" lon="8.6714917"><ele>198.66666666666669</ele><time>2026-03-29T15:24:34.996Z</time></trkpt><trkpt lat="45.6746617" lon="8.6714617"><ele>196.33333333333334</ele><time>2026-03-29T15:24:35.996Z</time></trkpt><trkpt lat="45.6748317" lon="8.6713867"><ele>194.0</ele><time>2026-03-29T15:24:36.996Z</time></trkpt><trkpt lat="45.6750067" lon="8.671265"><ele>194.0</ele><time>2026-03-29T15:24:37.996Z</time></trkpt><trkpt lat="45.6751967" lon="8.6711417"><ele>194.0</ele><time>2026-03-29T15:24:38.996Z</time></trkpt><trkpt lat="45.6753917" lon="8.6710183"><ele>194.0</ele><time>2026-03-29T15:24:39.995Z</time></trkpt><trkpt lat="45.6755767" lon="8.6709033"><ele>193.0</ele><time>2026-03-29T15:24:40.996Z</time></trkpt><trkpt lat="45.6757717" lon="8.6707883"><ele>192.0</ele><time>2026-03-29T15:24:41.996Z</time></trkpt><trkpt lat="45.675975" lon="8.6706767"><ele>191.0</ele><time>2026-03-29T15:24:42.996Z</time></trkpt><trkpt lat="45.67618" lon="8.6705767"><ele>190.66666666666666</ele><time>2026-03-29T15:24:43.995Z</time></trkpt><trkpt lat="45.6763783" lon="8.6704733"><ele>190.33333333333334</ele><time>2026-03-29T15:24:44.996Z</time></trkpt><trkpt lat="45.6765683" lon="8.6703817"><ele>190.0</ele><time>2026-03-29T15:24:45.996Z</time></trkpt><trkpt lat="45.6767517" lon="8.6702867"><ele>190.0</ele><time>2026-03-29T15:24:46.996Z</time></trkpt><trkpt lat="45.6769333" lon="8.6701967"><ele>190.0</ele><time>2026-03-29T15:24:47.995Z</time></trkpt><trkpt lat="45.6770967" lon="8.6701083"><ele>190.0</ele><time>2026-03-29T15:24:48.996Z</time></trkpt><trkpt lat="45.6772417" lon="8.6700267"><ele>191.75</ele><time>2026-03-29T15:24:49.996Z</time></trkpt><trkpt lat="45.677375" lon="8.6699567"><ele>193.5</ele><time>2026-03-29T15:24:50.996Z</time></trkpt><trkpt lat="45.6775033" lon="8.6698967"><ele>195.25</ele><time>2026-03-29T15:24:51.996Z</time></trkpt><trkpt lat="45.677625" lon="8.6698483"><ele>197.0</ele><time>2026-03-29T15:24:52.996Z</time></trkpt><trkpt lat="45.6777267" lon="8.6698167"><ele>201.39999999999998</ele><time>2026-03-29T15:24:53.996Z</time></trkpt><trkpt lat="45.6778217" lon="8.669815"><ele>205.79999999999998</ele><time>2026-03-29T15:24:54.996Z</time></trkpt><trkpt lat="45.67791" lon="8.669835"><ele>210.2</ele><time>2026-03-29T15:24:55.995Z</time></trkpt><trkpt lat="45.6779883" lon="8.6699033"><ele>214.6</ele><time>2026-03-29T15:24:56.996Z</time></trkpt><trkpt lat="45.67806" lon="8.6699883"><ele>219.0</ele><time>2026-03-29T15:24:57.996Z</time></trkpt><trkpt lat="45.678115" lon="8.6701067"><ele>219.0</ele><time>2026-03-29T15:24:58.995Z</time></trkpt><trkpt lat="45.6781583" lon="8.6702583"><ele>219.0</ele><time>2026-03-29T15:24:59.995Z</time></trkpt><trkpt lat="45.6781817" lon="8.67043"><ele>219.0</ele><time>2026-03-29T15:25:00.996Z</time></trkpt><trkpt lat="45.67819" lon="8.6705967"><ele>219.0</ele><time>2026-03-29T15:25:01.996Z</time></trkpt><trkpt lat="45.678165" lon="8.67076"><ele>219.25</ele><time>2026-03-29T15:25:02.996Z</time></trkpt><trkpt lat="45.67812" lon="8.6709117"><ele>219.5</ele><time>2026-03-29T15:25:03.996Z</time></trkpt><trkpt lat="45.6780517" lon="8.6710667"><ele>219.75</ele><time>2026-03-29T15:25:04.996Z</time></trkpt><trkpt lat="45.6779867" lon="8.671215"><ele>220.0</ele><time>2026-03-29T15:25:05.996Z</time></trkpt><trkpt lat="45.6779333" lon="8.6713617"><ele>220.0</ele><time>2026-03-29T15:25:06.995Z</time></trkpt><trkpt lat="45.677885" lon="8.6715217"><ele>220.0</ele><time>2026-03-29T15:25:07.995Z</time></trkpt><trkpt lat="45.677845" lon="8.6716967"><ele>220.0</ele><time>2026-03-29T15:25:08.995Z</time></trkpt><trkpt lat="45.6778133" lon="8.6718817"><ele>220.0</ele><time>2026-03-29T15:25:09.995Z</time></trkpt><trkpt lat="45.6778" lon="8.6720767"><ele>219.75</ele><time>2026-03-29T15:25:10.996Z</time></trkpt><trkpt lat="45.6778033" lon="8.6722683"><ele>219.5</ele><time>2026-03-29T15:25:11.996Z</time></trkpt><trkpt lat="45.6778217" lon="8.6724533"><ele>219.25</ele><time>2026-03-29T15:25:12.996Z</time></trkpt><trkpt lat="45.6778617" lon="8.6726517"><ele>219.0</ele><time>2026-03-29T15:25:13.996Z</time></trkpt><trkpt lat="45.67792" lon="8.6728817"><ele>217.66666666666669</ele><time>2026-03-29T15:25:14.996Z</time></trkpt><trkpt lat="45.6779883" lon="8.6731483"><ele>216.33333333333334</ele><time>2026-03-29T15:25:15.996Z</time></trkpt><trkpt lat="45.6780633" lon="8.6734183"><ele>215.0</ele><time>2026-03-29T15:25:16.996Z</time></trkpt><trkpt lat="45.678105" lon="8.6737067"><ele>212.66666666666669</ele><time>2026-03-29T15:25:17.995Z</time></trkpt><trkpt lat="45.6781483" lon="8.6739783"><ele>210.33333333333331</ele><time>2026-03-29T15:25:18.995Z</time></trkpt><trkpt lat="45.67818" lon="8.6742533"><ele>208.0</ele><time>2026-03-29T15:25:19.996Z</time></trkpt><trkpt lat="45.67825" lon="8.6745267"><ele>205.66666666666666</ele><time>2026-03-29T15:25:20.996Z</time></trkpt><trkpt lat="45.6783133" lon="8.6748167"><ele>203.33333333333331</ele><time>2026-03-29T15:25:21.996Z</time></trkpt><trkpt lat="45.6783717" lon="8.675105"><ele>201.0</ele><time>2026-03-29T15:25:22.996Z</time></trkpt><trkpt lat="45.6784333" lon="8.6754083"><ele>199.66666666666669</ele><time>2026-03-29T15:25:23.996Z</time></trkpt><trkpt lat="45.6784833" lon="8.6757067"><ele>198.33333333333334</ele><time>2026-03-29T15:25:24.995Z</time></trkpt><trkpt lat="45.678525" lon="8.676025"><ele>197.0</ele><time>2026-03-29T15:25:25.996Z</time></trkpt><trkpt lat="45.6785733" lon="8.6763267"><ele>201.66666666666669</ele><time>2026-03-29T15:25:26.996Z</time></trkpt><trkpt lat="45.6786117" lon="8.676635"><ele>206.33333333333331</ele><time>2026-03-29T15:25:27.995Z</time></trkpt><trkpt lat="45.6786483" lon="8.6769567"><ele>211.0</ele><time>2026-03-29T15:25:28.996Z</time></trkpt><trkpt lat="45.6786533" lon="8.67728"><ele>211.0</ele><time>2026-03-29T15:25:29.996Z</time></trkpt><trkpt lat="45.678665" lon="8.6776"><ele>211.0</ele><time>2026-03-29T15:25:30.995Z</time></trkpt><trkpt lat="45.678675" lon="8.67792"><ele>211.0</ele><time>2026-03-29T15:25:31.996Z</time></trkpt><trkpt lat="45.6786883" lon="8.6782233"><ele>208.66666666666666</ele><time>2026-03-29T15:25:32.995Z</time></trkpt><trkpt lat="45.6786717" lon="8.6785317"><ele>206.33333333333331</ele><time>2026-03-29T15:25:33.996Z</time></trkpt><trkpt lat="45.6786467" lon="8.678815"><ele>204.0</ele><time>2026-03-29T15:25:34.996Z</time></trkpt><trkpt lat="45.6786167" lon="8.6790817"><ele>200.0</ele><time>2026-03-29T15:25:35.995Z</time></trkpt><trkpt lat="45.6785733" lon="8.6793467"><ele>196.0</ele><time>2026-03-29T15:25:36.996Z</time></trkpt><trkpt lat="45.6785217" lon="8.6796033"><ele>192.0</ele><time>2026-03-29T15:25:37.995Z</time></trkpt><trkpt lat="45.678465" lon="8.6798583"><ele>192.0</ele><time>2026-03-29T15:25:38.996Z</time></trkpt><trkpt lat="45.67841" lon="8.6800933"><ele>192.0</ele><time>2026-03-29T15:25:39.996Z</time></trkpt><trkpt lat="45.6783483" lon="8.6803517"><ele>192.0</ele><time>2026-03-29T15:25:40.996Z</time></trkpt><trkpt lat="45.678275" lon="8.680615"><ele>192.0</ele><time>2026-03-29T15:25:41.996Z</time></trkpt><trkpt lat="45.6781967" lon="8.6808783"><ele>192.0</ele><time>2026-03-29T15:25:42.996Z</time></trkpt><trkpt lat="45.6781083" lon="8.681145"><ele>192.0</ele><time>2026-03-29T15:25:43.995Z</time></trkpt><trkpt lat="45.6780317" lon="8.68139"><ele>192.0</ele><time>2026-03-29T15:25:44.996Z</time></trkpt><trkpt lat="45.6779667" lon="8.6816233"><ele>192.0</ele><time>2026-03-29T15:25:45.996Z</time></trkpt><trkpt lat="45.6779117" lon="8.681855"><ele>192.0</ele><time>2026-03-29T15:25:46.995Z</time></trkpt><trkpt lat="45.6778717" lon="8.6820917"><ele>192.33333333333331</ele><time>2026-03-29T15:25:47.995Z</time></trkpt><trkpt lat="45.677835" lon="8.682335"><ele>192.66666666666666</ele><time>2026-03-29T15:25:48.996Z</time></trkpt><trkpt lat="45.6778167" lon="8.6825667"><ele>193.0</ele><time>2026-03-29T15:25:49.996Z</time></trkpt><trkpt lat="45.677785" lon="8.68277"><ele>193.0</ele><time>2026-03-29T15:25:50.996Z</time></trkpt><trkpt lat="45.6777367" lon="8.68296"><ele>193.0</ele><time>2026-03-29T15:25:51.995Z</time></trkpt><trkpt lat="45.677675" lon="8.6831333"><ele>193.0</ele><time>2026-03-29T15:25:52.996Z</time></trkpt><trkpt lat="45.677605" lon="8.6832917"><ele>193.0</ele><time>2026-03-29T15:25:53.996Z</time></trkpt><trkpt lat="45.6775317" lon="8.683425"><ele>192.99999999999997</ele><time>2026-03-29T15:25:54.996Z</time></trkpt><trkpt lat="45.6774733" lon="8.683555"><ele>193.0</ele><time>2026-03-29T15:25:55.996Z</time></trkpt><trkpt lat="45.677425" lon="8.68366"><ele>193.0</ele><time>2026-03-29T15:25:56.996Z</time></trkpt><trkpt lat="45.677375" lon="8.6837567"><ele>193.0</ele><time>2026-03-29T15:25:57.996Z</time></trkpt><trkpt lat="45.6773333" lon="8.683845"><ele>192.99999999999997</ele><time>2026-03-29T15:25:58.996Z</time></trkpt><trkpt lat="45.6772983" lon="8.6839217"><ele>193.0</ele><time>2026-03-29T15:25:59.996Z</time></trkpt><trkpt lat="45.6772433" lon="8.6840217"><ele>197.0</ele><time>2026-03-29T15:26:01.996Z</time></trkpt><trkpt lat="45.6771783" lon="8.6840833"><ele>197.0</ele><time>2026-03-29T15:26:03.996Z</time></trkpt><trkpt lat="45.6771633" lon="8.6841783"><ele>197.0</ele><time>2026-03-29T15:26:06.995Z</time></trkpt></trkseg></trk></gpx>